<?xml version="1.0" encoding="UTF-8" standalone="no" ?>
<gpx xmlns="http://www.topografix.com/GPX/1/1" xmlns:xsi="http://www.w3.org/2001/XMLSchema-instance" xsi:schemaLocation="http://www.topografix.com/GPX/1/1 http://www.topografix.com/GPX/1/1/gpx.xsd" version="1.1" creator="VisuGPX - https://www.visugpx.com">
  <metadata>
    <name>TOURNON D AGENAIS</name>
    <desc><![CDATA[111111111111111111111111111111111111111111111111111111111111111111111111111111111111111111]]></desc>
  </metadata>
  <trk>
    <name><![CDATA[TOURNON D AGENAIS_1]]></name>
    <trkseg>
      <trkpt lat="44.40098" lon="0.99707">
        <ele>175.4</ele>
        <time>2019-08-17T12:16:45Z</time>
      </trkpt>
      <trkpt lat="44.40109" lon="0.99701">
        <ele>191.184814</ele>
        <time>2019-08-17T12:16:46Z</time>
      </trkpt>
      <trkpt lat="44.4011" lon="0.99698">
        <ele>190.859421</ele>
        <time>2019-08-17T12:16:47Z</time>
      </trkpt>
      <trkpt lat="44.40112" lon="0.99695">
        <ele>190.859421</ele>
        <time>2019-08-17T12:16:48Z</time>
      </trkpt>
      <trkpt lat="44.40113" lon="0.99692">
        <ele>190.518997</ele>
        <time>2019-08-17T12:16:49Z</time>
      </trkpt>
      <trkpt lat="44.40115" lon="0.99689">
        <ele>190.206131</ele>
        <time>2019-08-17T12:16:50Z</time>
      </trkpt>
      <trkpt lat="44.40117" lon="0.99686">
        <ele>189.960999</ele>
        <time>2019-08-17T12:16:51Z</time>
      </trkpt>
      <trkpt lat="44.40118" lon="0.99683">
        <ele>189.787537</ele>
        <time>2019-08-17T12:16:52Z</time>
      </trkpt>
      <trkpt lat="44.4012" lon="0.99681">
        <ele>189.787537</ele>
        <time>2019-08-17T12:16:53Z</time>
      </trkpt>
      <trkpt lat="44.40123" lon="0.9968">
        <ele>189.689194</ele>
        <time>2019-08-17T12:16:54Z</time>
      </trkpt>
      <trkpt lat="44.40126" lon="0.99682">
        <ele>189.61792</ele>
        <time>2019-08-17T12:16:55Z</time>
      </trkpt>
      <trkpt lat="44.40127" lon="0.99686">
        <ele>189.494278</ele>
        <time>2019-08-17T12:16:56Z</time>
      </trkpt>
      <trkpt lat="44.40128" lon="0.99691">
        <ele>189.306076</ele>
        <time>2019-08-17T12:16:57Z</time>
      </trkpt>
      <trkpt lat="44.40126" lon="0.99696">
        <ele>188.981873</ele>
        <time>2019-08-17T12:16:58Z</time>
      </trkpt>
      <trkpt lat="44.40125" lon="0.99702">
        <ele>188.981873</ele>
        <time>2019-08-17T12:16:59Z</time>
      </trkpt>
      <trkpt lat="44.40123" lon="0.99708">
        <ele>188.556168</ele>
        <time>2019-08-17T12:17:00Z</time>
      </trkpt>
      <trkpt lat="44.40121" lon="0.99714">
        <ele>188.052597</ele>
        <time>2019-08-17T12:17:01Z</time>
      </trkpt>
      <trkpt lat="44.4012" lon="0.99721">
        <ele>188.052597</ele>
        <time>2019-08-17T12:17:02Z</time>
      </trkpt>
      <trkpt lat="44.40119" lon="0.99728">
        <ele>187.447937</ele>
        <time>2019-08-17T12:17:03Z</time>
      </trkpt>
      <trkpt lat="44.40119" lon="0.99736">
        <ele>186.875961</ele>
        <time>2019-08-17T12:17:04Z</time>
      </trkpt>
      <trkpt lat="44.4012" lon="0.99743">
        <ele>186.294174</ele>
        <time>2019-08-17T12:17:05Z</time>
      </trkpt>
      <trkpt lat="44.40123" lon="0.99749">
        <ele>185.760452</ele>
        <time>2019-08-17T12:17:06Z</time>
      </trkpt>
      <trkpt lat="44.40126" lon="0.99755">
        <ele>185.212234</ele>
        <time>2019-08-17T12:17:07Z</time>
      </trkpt>
      <trkpt lat="44.4013" lon="0.99759">
        <ele>185.212234</ele>
        <time>2019-08-17T12:17:08Z</time>
      </trkpt>
      <trkpt lat="44.40134" lon="0.99764">
        <ele>184.586685</ele>
        <time>2019-08-17T12:17:09Z</time>
      </trkpt>
      <trkpt lat="44.40138" lon="0.99768">
        <ele>183.876755</ele>
        <time>2019-08-17T12:17:10Z</time>
      </trkpt>
      <trkpt lat="44.40141" lon="0.99773">
        <ele>182.83461</ele>
        <time>2019-08-17T12:17:11Z</time>
      </trkpt>
      <trkpt lat="44.40144" lon="0.99779">
        <ele>181.735306</ele>
        <time>2019-08-17T12:17:12Z</time>
      </trkpt>
      <trkpt lat="44.40146" lon="0.99786">
        <ele>180.574265</ele>
        <time>2019-08-17T12:17:13Z</time>
      </trkpt>
      <trkpt lat="44.40147" lon="0.99793">
        <ele>179.403183</ele>
        <time>2019-08-17T12:17:14Z</time>
      </trkpt>
      <trkpt lat="44.40148" lon="0.998">
        <ele>179.403183</ele>
        <time>2019-08-17T12:17:15Z</time>
      </trkpt>
      <trkpt lat="44.4015" lon="0.99806">
        <ele>178.259155</ele>
        <time>2019-08-17T12:17:16Z</time>
      </trkpt>
      <trkpt lat="44.40151" lon="0.99813">
        <ele>177.19519</ele>
        <time>2019-08-17T12:17:17Z</time>
      </trkpt>
      <trkpt lat="44.40153" lon="0.9982">
        <ele>176.268188</ele>
        <time>2019-08-17T12:17:18Z</time>
      </trkpt>
      <trkpt lat="44.40155" lon="0.99827">
        <ele>176.268188</ele>
        <time>2019-08-17T12:17:19Z</time>
      </trkpt>
      <trkpt lat="44.40157" lon="0.99834">
        <ele>175.377563</ele>
        <time>2019-08-17T12:17:20Z</time>
      </trkpt>
      <trkpt lat="44.40159" lon="0.99841">
        <ele>174.519974</ele>
        <time>2019-08-17T12:17:21Z</time>
      </trkpt>
      <trkpt lat="44.4016" lon="0.99848">
        <ele>173.584885</ele>
        <time>2019-08-17T12:17:22Z</time>
      </trkpt>
      <trkpt lat="44.40162" lon="0.99855">
        <ele>172.67897</ele>
        <time>2019-08-17T12:17:23Z</time>
      </trkpt>
      <trkpt lat="44.40164" lon="0.99862">
        <ele>172.67897</ele>
        <time>2019-08-17T12:17:24Z</time>
      </trkpt>
      <trkpt lat="44.40166" lon="0.99869">
        <ele>171.789871</ele>
        <time>2019-08-17T12:17:25Z</time>
      </trkpt>
      <trkpt lat="44.40168" lon="0.99876">
        <ele>171.040359</ele>
        <time>2019-08-17T12:17:26Z</time>
      </trkpt>
      <trkpt lat="44.4017" lon="0.99882">
        <ele>171.040359</ele>
        <time>2019-08-17T12:17:27Z</time>
      </trkpt>
      <trkpt lat="44.40172" lon="0.99889">
        <ele>170.23204</ele>
        <time>2019-08-17T12:17:28Z</time>
      </trkpt>
      <trkpt lat="44.40175" lon="0.99895">
        <ele>169.457504</ele>
        <time>2019-08-17T12:17:29Z</time>
      </trkpt>
      <trkpt lat="44.40177" lon="0.99902">
        <ele>168.774124</ele>
        <time>2019-08-17T12:17:30Z</time>
      </trkpt>
      <trkpt lat="44.40179" lon="0.99908">
        <ele>168.14064</ele>
        <time>2019-08-17T12:17:31Z</time>
      </trkpt>
      <trkpt lat="44.40182" lon="0.99915">
        <ele>168.14064</ele>
        <time>2019-08-17T12:17:32Z</time>
      </trkpt>
      <trkpt lat="44.40184" lon="0.99921">
        <ele>167.552567</ele>
        <time>2019-08-17T12:17:33Z</time>
      </trkpt>
      <trkpt lat="44.40186" lon="0.99927">
        <ele>167.005478</ele>
        <time>2019-08-17T12:17:34Z</time>
      </trkpt>
      <trkpt lat="44.40188" lon="0.99933">
        <ele>167.005478</ele>
        <time>2019-08-17T12:17:35Z</time>
      </trkpt>
      <trkpt lat="44.4019" lon="0.99939">
        <ele>166.536819</ele>
        <time>2019-08-17T12:17:36Z</time>
      </trkpt>
      <trkpt lat="44.40193" lon="0.99944">
        <ele>166.100296</ele>
        <time>2019-08-17T12:17:37Z</time>
      </trkpt>
      <trkpt lat="44.40196" lon="0.99949">
        <ele>165.718979</ele>
        <time>2019-08-17T12:17:38Z</time>
      </trkpt>
      <trkpt lat="44.40199" lon="0.99954">
        <ele>165.364731</ele>
        <time>2019-08-17T12:17:39Z</time>
      </trkpt>
      <trkpt lat="44.40203" lon="0.99957">
        <ele>165.364731</ele>
        <time>2019-08-17T12:17:40Z</time>
      </trkpt>
      <trkpt lat="44.40207" lon="0.99959">
        <ele>165.040817</ele>
        <time>2019-08-17T12:17:41Z</time>
      </trkpt>
      <trkpt lat="44.40212" lon="0.9996">
        <ele>164.774658</ele>
        <time>2019-08-17T12:17:42Z</time>
      </trkpt>
      <trkpt lat="44.40217" lon="0.99963">
        <ele>164.63324</ele>
        <time>2019-08-17T12:17:43Z</time>
      </trkpt>
      <trkpt lat="44.40222" lon="0.99967">
        <ele>164.561234</ele>
        <time>2019-08-17T12:17:44Z</time>
      </trkpt>
      <trkpt lat="44.40225" lon="0.99972">
        <ele>164.561234</ele>
        <time>2019-08-17T12:17:45Z</time>
      </trkpt>
      <trkpt lat="44.4023" lon="0.99976">
        <ele>164.561234</ele>
        <time>2019-08-17T12:17:46Z</time>
      </trkpt>
      <trkpt lat="44.40234" lon="0.9998">
        <ele>164.561234</ele>
        <time>2019-08-17T12:17:47Z</time>
      </trkpt>
      <trkpt lat="44.40238" lon="0.99984">
        <ele>164.586777</ele>
        <time>2019-08-17T12:17:48Z</time>
      </trkpt>
      <trkpt lat="44.40242" lon="0.99989">
        <ele>164.663895</ele>
        <time>2019-08-17T12:17:49Z</time>
      </trkpt>
      <trkpt lat="44.40247" lon="0.99993">
        <ele>164.805008</ele>
        <time>2019-08-17T12:17:50Z</time>
      </trkpt>
      <trkpt lat="44.40251" lon="0.99998">
        <ele>164.954071</ele>
        <time>2019-08-17T12:17:51Z</time>
      </trkpt>
      <trkpt lat="44.40256" lon="1.00002">
        <ele>165.09288</ele>
        <time>2019-08-17T12:17:52Z</time>
      </trkpt>
      <trkpt lat="44.4026" lon="1.00007">
        <ele>165.227463</ele>
        <time>2019-08-17T12:17:53Z</time>
      </trkpt>
      <trkpt lat="44.40265" lon="1.00011">
        <ele>165.365753</ele>
        <time>2019-08-17T12:17:54Z</time>
      </trkpt>
      <trkpt lat="44.40269" lon="1.00014">
        <ele>165.510574</ele>
        <time>2019-08-17T12:17:55Z</time>
      </trkpt>
      <trkpt lat="44.40273" lon="1.00018">
        <ele>165.640244</ele>
        <time>2019-08-17T12:17:56Z</time>
      </trkpt>
      <trkpt lat="44.40278" lon="1.00022">
        <ele>165.759964</ele>
        <time>2019-08-17T12:17:57Z</time>
      </trkpt>
      <trkpt lat="44.40282" lon="1.00025">
        <ele>165.860809</ele>
        <time>2019-08-17T12:17:58Z</time>
      </trkpt>
      <trkpt lat="44.40286" lon="1.00028">
        <ele>165.940506</ele>
        <time>2019-08-17T12:17:59Z</time>
      </trkpt>
      <trkpt lat="44.40291" lon="1.00032">
        <ele>165.997681</ele>
        <time>2019-08-17T12:18:00Z</time>
      </trkpt>
      <trkpt lat="44.40295" lon="1.00035">
        <ele>166.033417</ele>
        <time>2019-08-17T12:18:01Z</time>
      </trkpt>
      <trkpt lat="44.40299" lon="1.00038">
        <ele>166.049667</ele>
        <time>2019-08-17T12:18:02Z</time>
      </trkpt>
      <trkpt lat="44.40303" lon="1.00041">
        <ele>166.065964</ele>
        <time>2019-08-17T12:18:03Z</time>
      </trkpt>
      <trkpt lat="44.40308" lon="1.00045">
        <ele>166.08905</ele>
        <time>2019-08-17T12:18:04Z</time>
      </trkpt>
      <trkpt lat="44.40312" lon="1.00048">
        <ele>166.119614</ele>
        <time>2019-08-17T12:18:05Z</time>
      </trkpt>
      <trkpt lat="44.40316" lon="1.00052">
        <ele>166.119614</ele>
        <time>2019-08-17T12:18:06Z</time>
      </trkpt>
      <trkpt lat="44.4032" lon="1.00056">
        <ele>166.158203</ele>
        <time>2019-08-17T12:18:07Z</time>
      </trkpt>
      <trkpt lat="44.40323" lon="1.00059">
        <ele>166.201736</ele>
        <time>2019-08-17T12:18:08Z</time>
      </trkpt>
      <trkpt lat="44.40328" lon="1.00063">
        <ele>166.241135</ele>
        <time>2019-08-17T12:18:09Z</time>
      </trkpt>
      <trkpt lat="44.40331" lon="1.00067">
        <ele>166.274826</ele>
        <time>2019-08-17T12:18:10Z</time>
      </trkpt>
      <trkpt lat="44.40335" lon="1.00071">
        <ele>166.302689</ele>
        <time>2019-08-17T12:18:11Z</time>
      </trkpt>
      <trkpt lat="44.40339" lon="1.00075">
        <ele>166.307602</ele>
        <time>2019-08-17T12:18:12Z</time>
      </trkpt>
      <trkpt lat="44.40342" lon="1.00078">
        <ele>166.307602</ele>
        <time>2019-08-17T12:18:13Z</time>
      </trkpt>
      <trkpt lat="44.40347" lon="1.00082">
        <ele>166.307602</ele>
        <time>2019-08-17T12:18:14Z</time>
      </trkpt>
      <trkpt lat="44.40352" lon="1.00086">
        <ele>166.251602</ele>
        <time>2019-08-17T12:18:15Z</time>
      </trkpt>
      <trkpt lat="44.40357" lon="1.0009">
        <ele>166.251602</ele>
        <time>2019-08-17T12:18:16Z</time>
      </trkpt>
      <trkpt lat="44.40363" lon="1.00094">
        <ele>166.201981</ele>
        <time>2019-08-17T12:18:17Z</time>
      </trkpt>
      <trkpt lat="44.40369" lon="1.00098">
        <ele>166.201981</ele>
        <time>2019-08-17T12:18:18Z</time>
      </trkpt>
      <trkpt lat="44.40375" lon="1.00102">
        <ele>166.151062</ele>
        <time>2019-08-17T12:18:19Z</time>
      </trkpt>
      <trkpt lat="44.40381" lon="1.00106">
        <ele>166.081711</ele>
        <time>2019-08-17T12:18:20Z</time>
      </trkpt>
      <trkpt lat="44.40388" lon="1.00111">
        <ele>166.018021</ele>
        <time>2019-08-17T12:18:21Z</time>
      </trkpt>
      <trkpt lat="44.40395" lon="1.00115">
        <ele>165.968338</ele>
        <time>2019-08-17T12:18:22Z</time>
      </trkpt>
      <trkpt lat="44.40402" lon="1.0012">
        <ele>165.934814</ele>
        <time>2019-08-17T12:18:23Z</time>
      </trkpt>
      <trkpt lat="44.40409" lon="1.00124">
        <ele>165.90773</ele>
        <time>2019-08-17T12:18:24Z</time>
      </trkpt>
      <trkpt lat="44.40416" lon="1.00129">
        <ele>165.879959</ele>
        <time>2019-08-17T12:18:25Z</time>
      </trkpt>
      <trkpt lat="44.40424" lon="1.00133">
        <ele>165.853455</ele>
        <time>2019-08-17T12:18:26Z</time>
      </trkpt>
      <trkpt lat="44.40432" lon="1.00138">
        <ele>165.853455</ele>
        <time>2019-08-17T12:18:27Z</time>
      </trkpt>
      <trkpt lat="44.4044" lon="1.00142">
        <ele>165.754745</ele>
        <time>2019-08-17T12:18:28Z</time>
      </trkpt>
      <trkpt lat="44.40448" lon="1.00145">
        <ele>165.58252</ele>
        <time>2019-08-17T12:18:29Z</time>
      </trkpt>
      <trkpt lat="44.40456" lon="1.00149">
        <ele>165.257385</ele>
        <time>2019-08-17T12:18:30Z</time>
      </trkpt>
      <trkpt lat="44.40465" lon="1.00153">
        <ele>164.858963</ele>
        <time>2019-08-17T12:18:31Z</time>
      </trkpt>
      <trkpt lat="44.40474" lon="1.00156">
        <ele>164.386276</ele>
        <time>2019-08-17T12:18:32Z</time>
      </trkpt>
      <trkpt lat="44.40482" lon="1.0016">
        <ele>163.855652</ele>
        <time>2019-08-17T12:18:33Z</time>
      </trkpt>
      <trkpt lat="44.40491" lon="1.00165">
        <ele>163.328659</ele>
        <time>2019-08-17T12:18:34Z</time>
      </trkpt>
      <trkpt lat="44.405" lon="1.00169">
        <ele>162.782242</ele>
        <time>2019-08-17T12:18:35Z</time>
      </trkpt>
      <trkpt lat="44.40508" lon="1.00175">
        <ele>162.275635</ele>
        <time>2019-08-17T12:18:36Z</time>
      </trkpt>
      <trkpt lat="44.40516" lon="1.0018">
        <ele>161.735764</ele>
        <time>2019-08-17T12:18:37Z</time>
      </trkpt>
      <trkpt lat="44.40525" lon="1.00186">
        <ele>161.166245</ele>
        <time>2019-08-17T12:18:38Z</time>
      </trkpt>
      <trkpt lat="44.40532" lon="1.00192">
        <ele>160.571854</ele>
        <time>2019-08-17T12:18:39Z</time>
      </trkpt>
      <trkpt lat="44.4054" lon="1.00198">
        <ele>159.957474</ele>
        <time>2019-08-17T12:18:40Z</time>
      </trkpt>
      <trkpt lat="44.40547" lon="1.00205">
        <ele>159.350037</ele>
        <time>2019-08-17T12:18:41Z</time>
      </trkpt>
      <trkpt lat="44.40553" lon="1.00213">
        <ele>158.775589</ele>
        <time>2019-08-17T12:18:42Z</time>
      </trkpt>
      <trkpt lat="44.40558" lon="1.00221">
        <ele>158.235184</ele>
        <time>2019-08-17T12:18:43Z</time>
      </trkpt>
      <trkpt lat="44.40564" lon="1.00229">
        <ele>157.73201</ele>
        <time>2019-08-17T12:18:44Z</time>
      </trkpt>
      <trkpt lat="44.40568" lon="1.00236">
        <ele>157.273666</ele>
        <time>2019-08-17T12:18:45Z</time>
      </trkpt>
      <trkpt lat="44.40572" lon="1.00242">
        <ele>156.861633</ele>
        <time>2019-08-17T12:18:46Z</time>
      </trkpt>
      <trkpt lat="44.40576" lon="1.00248">
        <ele>156.861633</ele>
        <time>2019-08-17T12:18:47Z</time>
      </trkpt>
      <trkpt lat="44.40579" lon="1.00253">
        <ele>156.498306</ele>
        <time>2019-08-17T12:18:48Z</time>
      </trkpt>
      <trkpt lat="44.40583" lon="1.00258">
        <ele>156.175705</ele>
        <time>2019-08-17T12:18:49Z</time>
      </trkpt>
      <trkpt lat="44.40587" lon="1.00263">
        <ele>155.860519</ele>
        <time>2019-08-17T12:18:50Z</time>
      </trkpt>
      <trkpt lat="44.4059" lon="1.00267">
        <ele>155.586121</ele>
        <time>2019-08-17T12:18:51Z</time>
      </trkpt>
      <trkpt lat="44.40594" lon="1.00271">
        <ele>155.344925</ele>
        <time>2019-08-17T12:18:52Z</time>
      </trkpt>
      <trkpt lat="44.40598" lon="1.00276">
        <ele>155.12764</ele>
        <time>2019-08-17T12:18:53Z</time>
      </trkpt>
      <trkpt lat="44.40601" lon="1.00283">
        <ele>154.929855</ele>
        <time>2019-08-17T12:18:54Z</time>
      </trkpt>
      <trkpt lat="44.40604" lon="1.0029">
        <ele>154.746231</ele>
        <time>2019-08-17T12:18:55Z</time>
      </trkpt>
      <trkpt lat="44.40607" lon="1.00298">
        <ele>154.607681</ele>
        <time>2019-08-17T12:18:56Z</time>
      </trkpt>
      <trkpt lat="44.40611" lon="1.00307">
        <ele>154.503113</ele>
        <time>2019-08-17T12:18:57Z</time>
      </trkpt>
      <trkpt lat="44.40614" lon="1.00316">
        <ele>154.444458</ele>
        <time>2019-08-17T12:18:58Z</time>
      </trkpt>
      <trkpt lat="44.40619" lon="1.00325">
        <ele>154.436707</ele>
        <time>2019-08-17T12:18:59Z</time>
      </trkpt>
      <trkpt lat="44.40623" lon="1.00334">
        <ele>154.436707</ele>
        <time>2019-08-17T12:19:00Z</time>
      </trkpt>
      <trkpt lat="44.40627" lon="1.00344">
        <ele>154.436707</ele>
        <time>2019-08-17T12:19:01Z</time>
      </trkpt>
      <trkpt lat="44.40632" lon="1.00352">
        <ele>154.436707</ele>
        <time>2019-08-17T12:19:02Z</time>
      </trkpt>
      <trkpt lat="44.40635" lon="1.00361">
        <ele>154.476273</ele>
        <time>2019-08-17T12:19:03Z</time>
      </trkpt>
      <trkpt lat="44.40637" lon="1.0037">
        <ele>154.58812</ele>
        <time>2019-08-17T12:19:04Z</time>
      </trkpt>
      <trkpt lat="44.4064" lon="1.00378">
        <ele>154.745621</ele>
        <time>2019-08-17T12:19:05Z</time>
      </trkpt>
      <trkpt lat="44.40643" lon="1.00385">
        <ele>154.921219</ele>
        <time>2019-08-17T12:19:06Z</time>
      </trkpt>
      <trkpt lat="44.40646" lon="1.00392">
        <ele>155.100052</ele>
        <time>2019-08-17T12:19:07Z</time>
      </trkpt>
      <trkpt lat="44.40649" lon="1.00399">
        <ele>155.278152</ele>
        <time>2019-08-17T12:19:08Z</time>
      </trkpt>
      <trkpt lat="44.40652" lon="1.00406">
        <ele>155.452957</ele>
        <time>2019-08-17T12:19:09Z</time>
      </trkpt>
      <trkpt lat="44.40654" lon="1.00412">
        <ele>155.600266</ele>
        <time>2019-08-17T12:19:10Z</time>
      </trkpt>
      <trkpt lat="44.40657" lon="1.00418">
        <ele>155.742676</ele>
        <time>2019-08-17T12:19:11Z</time>
      </trkpt>
      <trkpt lat="44.4066" lon="1.00424">
        <ele>155.875977</ele>
        <time>2019-08-17T12:19:12Z</time>
      </trkpt>
      <trkpt lat="44.40663" lon="1.00429">
        <ele>155.999832</ele>
        <time>2019-08-17T12:19:13Z</time>
      </trkpt>
      <trkpt lat="44.40666" lon="1.00435">
        <ele>156.113937</ele>
        <time>2019-08-17T12:19:14Z</time>
      </trkpt>
      <trkpt lat="44.40669" lon="1.0044">
        <ele>156.220703</ele>
        <time>2019-08-17T12:19:15Z</time>
      </trkpt>
      <trkpt lat="44.40671" lon="1.00447">
        <ele>156.318527</ele>
        <time>2019-08-17T12:19:16Z</time>
      </trkpt>
      <trkpt lat="44.40673" lon="1.00453">
        <ele>156.40918</ele>
        <time>2019-08-17T12:19:17Z</time>
      </trkpt>
      <trkpt lat="44.40675" lon="1.0046">
        <ele>156.40918</ele>
        <time>2019-08-17T12:19:18Z</time>
      </trkpt>
      <trkpt lat="44.40675" lon="1.00466">
        <ele>156.494949</ele>
        <time>2019-08-17T12:19:19Z</time>
      </trkpt>
      <trkpt lat="44.40675" lon="1.00473">
        <ele>156.57991</ele>
        <time>2019-08-17T12:19:20Z</time>
      </trkpt>
      <trkpt lat="44.40675" lon="1.00479">
        <ele>156.671463</ele>
        <time>2019-08-17T12:19:21Z</time>
      </trkpt>
      <trkpt lat="44.40676" lon="1.00486">
        <ele>156.747147</ele>
        <time>2019-08-17T12:19:22Z</time>
      </trkpt>
      <trkpt lat="44.40676" lon="1.00492">
        <ele>156.811203</ele>
        <time>2019-08-17T12:19:23Z</time>
      </trkpt>
      <trkpt lat="44.40676" lon="1.00499">
        <ele>156.861816</ele>
        <time>2019-08-17T12:19:24Z</time>
      </trkpt>
      <trkpt lat="44.40676" lon="1.00505">
        <ele>156.899582</ele>
        <time>2019-08-17T12:19:25Z</time>
      </trkpt>
      <trkpt lat="44.40676" lon="1.00512">
        <ele>156.919434</ele>
        <time>2019-08-17T12:19:26Z</time>
      </trkpt>
      <trkpt lat="44.40676" lon="1.00519">
        <ele>156.919434</ele>
        <time>2019-08-17T12:19:27Z</time>
      </trkpt>
      <trkpt lat="44.40677" lon="1.00526">
        <ele>156.919434</ele>
        <time>2019-08-17T12:19:28Z</time>
      </trkpt>
      <trkpt lat="44.40677" lon="1.00533">
        <ele>156.91333</ele>
        <time>2019-08-17T12:19:29Z</time>
      </trkpt>
      <trkpt lat="44.40677" lon="1.0054">
        <ele>156.907227</ele>
        <time>2019-08-17T12:19:30Z</time>
      </trkpt>
      <trkpt lat="44.40677" lon="1.00548">
        <ele>156.899002</ele>
        <time>2019-08-17T12:19:31Z</time>
      </trkpt>
      <trkpt lat="44.40677" lon="1.00555">
        <ele>156.87294</ele>
        <time>2019-08-17T12:19:32Z</time>
      </trkpt>
      <trkpt lat="44.40677" lon="1.00563">
        <ele>156.829086</ele>
        <time>2019-08-17T12:19:33Z</time>
      </trkpt>
      <trkpt lat="44.40677" lon="1.00572">
        <ele>156.768234</ele>
        <time>2019-08-17T12:19:34Z</time>
      </trkpt>
      <trkpt lat="44.40677" lon="1.00581">
        <ele>156.693161</ele>
        <time>2019-08-17T12:19:35Z</time>
      </trkpt>
      <trkpt lat="44.40677" lon="1.00591">
        <ele>156.600342</ele>
        <time>2019-08-17T12:19:36Z</time>
      </trkpt>
      <trkpt lat="44.40678" lon="1.00602">
        <ele>156.490219</ele>
        <time>2019-08-17T12:19:37Z</time>
      </trkpt>
      <trkpt lat="44.40678" lon="1.00612">
        <ele>156.490219</ele>
        <time>2019-08-17T12:19:38Z</time>
      </trkpt>
      <trkpt lat="44.40678" lon="1.00622">
        <ele>156.376266</ele>
        <time>2019-08-17T12:19:39Z</time>
      </trkpt>
      <trkpt lat="44.40678" lon="1.00633">
        <ele>156.256165</ele>
        <time>2019-08-17T12:19:40Z</time>
      </trkpt>
      <trkpt lat="44.40679" lon="1.00644">
        <ele>156.063477</ele>
        <time>2019-08-17T12:19:41Z</time>
      </trkpt>
      <trkpt lat="44.40679" lon="1.00656">
        <ele>155.837784</ele>
        <time>2019-08-17T12:19:42Z</time>
      </trkpt>
      <trkpt lat="44.4068" lon="1.00667">
        <ele>155.837784</ele>
        <time>2019-08-17T12:19:43Z</time>
      </trkpt>
      <trkpt lat="44.40682" lon="1.00678">
        <ele>155.581161</ele>
        <time>2019-08-17T12:19:44Z</time>
      </trkpt>
      <trkpt lat="44.40685" lon="1.00687">
        <ele>155.294205</ele>
        <time>2019-08-17T12:19:45Z</time>
      </trkpt>
      <trkpt lat="44.4069" lon="1.00697">
        <ele>154.930252</ele>
        <time>2019-08-17T12:19:46Z</time>
      </trkpt>
      <trkpt lat="44.40694" lon="1.00705">
        <ele>154.930252</ele>
        <time>2019-08-17T12:19:47Z</time>
      </trkpt>
      <trkpt lat="44.40698" lon="1.00712">
        <ele>154.548019</ele>
        <time>2019-08-17T12:19:48Z</time>
      </trkpt>
      <trkpt lat="44.40702" lon="1.00718">
        <ele>154.548019</ele>
        <time>2019-08-17T12:19:49Z</time>
      </trkpt>
      <trkpt lat="44.40705" lon="1.00723">
        <ele>154.225143</ele>
        <time>2019-08-17T12:19:50Z</time>
      </trkpt>
      <trkpt lat="44.40705" lon="1.0073">
        <ele>153.947342</ele>
        <time>2019-08-17T12:19:51Z</time>
      </trkpt>
      <trkpt lat="44.40704" lon="1.00736">
        <ele>153.712646</ele>
        <time>2019-08-17T12:19:52Z</time>
      </trkpt>
      <trkpt lat="44.40701" lon="1.00742">
        <ele>153.712646</ele>
        <time>2019-08-17T12:19:53Z</time>
      </trkpt>
      <trkpt lat="44.40698" lon="1.00748">
        <ele>153.526382</ele>
        <time>2019-08-17T12:19:54Z</time>
      </trkpt>
      <trkpt lat="44.40696" lon="1.00753">
        <ele>153.427948</ele>
        <time>2019-08-17T12:19:55Z</time>
      </trkpt>
      <trkpt lat="44.40693" lon="1.00758">
        <ele>153.427948</ele>
        <time>2019-08-17T12:19:56Z</time>
      </trkpt>
      <trkpt lat="44.4069" lon="1.00763">
        <ele>153.322235</ele>
        <time>2019-08-17T12:19:57Z</time>
      </trkpt>
      <trkpt lat="44.40688" lon="1.00767">
        <ele>153.206635</ele>
        <time>2019-08-17T12:19:58Z</time>
      </trkpt>
      <trkpt lat="44.40686" lon="1.00772">
        <ele>153.012283</ele>
        <time>2019-08-17T12:19:59Z</time>
      </trkpt>
      <trkpt lat="44.40685" lon="1.00776">
        <ele>152.784134</ele>
        <time>2019-08-17T12:20:00Z</time>
      </trkpt>
      <trkpt lat="44.40683" lon="1.00779">
        <ele>152.529251</ele>
        <time>2019-08-17T12:20:01Z</time>
      </trkpt>
      <trkpt lat="44.40682" lon="1.00782">
        <ele>152.227676</ele>
        <time>2019-08-17T12:20:02Z</time>
      </trkpt>
      <trkpt lat="44.40681" lon="1.00785">
        <ele>151.955307</ele>
        <time>2019-08-17T12:20:03Z</time>
      </trkpt>
      <trkpt lat="44.40679" lon="1.00788">
        <ele>151.692657</ele>
        <time>2019-08-17T12:20:04Z</time>
      </trkpt>
      <trkpt lat="44.40677" lon="1.00792">
        <ele>151.4897</ele>
        <time>2019-08-17T12:20:05Z</time>
      </trkpt>
      <trkpt lat="44.40675" lon="1.00796">
        <ele>151.4897</ele>
        <time>2019-08-17T12:20:06Z</time>
      </trkpt>
      <trkpt lat="44.40675" lon="1.008">
        <ele>151.3004</ele>
        <time>2019-08-17T12:20:07Z</time>
      </trkpt>
      <trkpt lat="44.40676" lon="1.00805">
        <ele>151.119919</ele>
        <time>2019-08-17T12:20:08Z</time>
      </trkpt>
      <trkpt lat="44.40677" lon="1.0081">
        <ele>150.899506</ele>
        <time>2019-08-17T12:20:09Z</time>
      </trkpt>
      <trkpt lat="44.40677" lon="1.00814">
        <ele>150.688583</ele>
        <time>2019-08-17T12:20:10Z</time>
      </trkpt>
      <trkpt lat="44.40677" lon="1.00819">
        <ele>150.688583</ele>
        <time>2019-08-17T12:20:11Z</time>
      </trkpt>
      <trkpt lat="44.40678" lon="1.00823">
        <ele>150.504501</ele>
        <time>2019-08-17T12:20:12Z</time>
      </trkpt>
      <trkpt lat="44.40678" lon="1.00826">
        <ele>150.339264</ele>
        <time>2019-08-17T12:20:13Z</time>
      </trkpt>
      <trkpt lat="44.40678" lon="1.00829">
        <ele>150.339264</ele>
        <time>2019-08-17T12:20:14Z</time>
      </trkpt>
      <trkpt lat="44.40678" lon="1.00832">
        <ele>150.189331</ele>
        <time>2019-08-17T12:20:15Z</time>
      </trkpt>
      <trkpt lat="44.40678" lon="1.00836">
        <ele>150.065842</ele>
        <time>2019-08-17T12:20:16Z</time>
      </trkpt>
      <trkpt lat="44.40679" lon="1.00839">
        <ele>150.065842</ele>
        <time>2019-08-17T12:20:17Z</time>
      </trkpt>
      <trkpt lat="44.4068" lon="1.00843">
        <ele>150.004318</ele>
        <time>2019-08-17T12:20:18Z</time>
      </trkpt>
      <trkpt lat="44.40682" lon="1.00846">
        <ele>149.960205</ele>
        <time>2019-08-17T12:20:19Z</time>
      </trkpt>
      <trkpt lat="44.40683" lon="1.00851">
        <ele>149.92659</ele>
        <time>2019-08-17T12:20:20Z</time>
      </trkpt>
      <trkpt lat="44.40683" lon="1.00856">
        <ele>149.92659</ele>
        <time>2019-08-17T12:20:21Z</time>
      </trkpt>
      <trkpt lat="44.40684" lon="1.00861">
        <ele>149.895096</ele>
        <time>2019-08-17T12:20:22Z</time>
      </trkpt>
      <trkpt lat="44.40685" lon="1.00867">
        <ele>149.870438</ele>
        <time>2019-08-17T12:20:23Z</time>
      </trkpt>
      <trkpt lat="44.40685" lon="1.00872">
        <ele>149.846268</ele>
        <time>2019-08-17T12:20:24Z</time>
      </trkpt>
      <trkpt lat="44.40686" lon="1.00878">
        <ele>149.846268</ele>
        <time>2019-08-17T12:20:25Z</time>
      </trkpt>
      <trkpt lat="44.40686" lon="1.00885">
        <ele>149.832687</ele>
        <time>2019-08-17T12:20:26Z</time>
      </trkpt>
      <trkpt lat="44.40688" lon="1.00892">
        <ele>149.819824</ele>
        <time>2019-08-17T12:20:27Z</time>
      </trkpt>
      <trkpt lat="44.40688" lon="1.00899">
        <ele>149.796143</ele>
        <time>2019-08-17T12:20:28Z</time>
      </trkpt>
      <trkpt lat="44.40689" lon="1.00906">
        <ele>149.777344</ele>
        <time>2019-08-17T12:20:29Z</time>
      </trkpt>
      <trkpt lat="44.40689" lon="1.00914">
        <ele>149.751633</ele>
        <time>2019-08-17T12:20:30Z</time>
      </trkpt>
      <trkpt lat="44.40689" lon="1.00921">
        <ele>149.751633</ele>
        <time>2019-08-17T12:20:31Z</time>
      </trkpt>
      <trkpt lat="44.40688" lon="1.00928">
        <ele>149.710938</ele>
        <time>2019-08-17T12:20:32Z</time>
      </trkpt>
      <trkpt lat="44.40688" lon="1.00936">
        <ele>149.660721</ele>
        <time>2019-08-17T12:20:33Z</time>
      </trkpt>
      <trkpt lat="44.40686" lon="1.00942">
        <ele>149.583328</ele>
        <time>2019-08-17T12:20:34Z</time>
      </trkpt>
      <trkpt lat="44.40685" lon="1.00949">
        <ele>149.492111</ele>
        <time>2019-08-17T12:20:35Z</time>
      </trkpt>
      <trkpt lat="44.40685" lon="1.00955">
        <ele>149.378906</ele>
        <time>2019-08-17T12:20:36Z</time>
      </trkpt>
      <trkpt lat="44.40683" lon="1.00962">
        <ele>149.243332</ele>
        <time>2019-08-17T12:20:37Z</time>
      </trkpt>
      <trkpt lat="44.40682" lon="1.00968">
        <ele>149.090576</ele>
        <time>2019-08-17T12:20:38Z</time>
      </trkpt>
      <trkpt lat="44.40682" lon="1.00975">
        <ele>149.090576</ele>
        <time>2019-08-17T12:20:39Z</time>
      </trkpt>
      <trkpt lat="44.4068" lon="1.00982">
        <ele>148.918289</ele>
        <time>2019-08-17T12:20:40Z</time>
      </trkpt>
      <trkpt lat="44.4068" lon="1.00988">
        <ele>148.750076</ele>
        <time>2019-08-17T12:20:41Z</time>
      </trkpt>
      <trkpt lat="44.40679" lon="1.00994">
        <ele>148.553391</ele>
        <time>2019-08-17T12:20:42Z</time>
      </trkpt>
      <trkpt lat="44.40678" lon="1.01001">
        <ele>148.356689</ele>
        <time>2019-08-17T12:20:43Z</time>
      </trkpt>
      <trkpt lat="44.40678" lon="1.01007">
        <ele>148.165283</ele>
        <time>2019-08-17T12:20:44Z</time>
      </trkpt>
      <trkpt lat="44.40678" lon="1.01014">
        <ele>147.974289</ele>
        <time>2019-08-17T12:20:45Z</time>
      </trkpt>
      <trkpt lat="44.40679" lon="1.01021">
        <ele>147.788986</ele>
        <time>2019-08-17T12:20:46Z</time>
      </trkpt>
      <trkpt lat="44.4068" lon="1.01028">
        <ele>147.6315</ele>
        <time>2019-08-17T12:20:47Z</time>
      </trkpt>
      <trkpt lat="44.40682" lon="1.01034">
        <ele>147.6315</ele>
        <time>2019-08-17T12:20:48Z</time>
      </trkpt>
      <trkpt lat="44.40683" lon="1.01041">
        <ele>147.551514</ele>
        <time>2019-08-17T12:20:49Z</time>
      </trkpt>
      <trkpt lat="44.40685" lon="1.01048">
        <ele>147.510483</ele>
        <time>2019-08-17T12:20:50Z</time>
      </trkpt>
      <trkpt lat="44.40686" lon="1.01054">
        <ele>147.508728</ele>
        <time>2019-08-17T12:20:51Z</time>
      </trkpt>
      <trkpt lat="44.40688" lon="1.01061">
        <ele>147.508728</ele>
        <time>2019-08-17T12:20:52Z</time>
      </trkpt>
      <trkpt lat="44.40691" lon="1.01068">
        <ele>147.508728</ele>
        <time>2019-08-17T12:20:53Z</time>
      </trkpt>
      <trkpt lat="44.40693" lon="1.01074">
        <ele>147.508728</ele>
        <time>2019-08-17T12:20:54Z</time>
      </trkpt>
      <trkpt lat="44.40696" lon="1.0108">
        <ele>147.550659</ele>
        <time>2019-08-17T12:20:55Z</time>
      </trkpt>
      <trkpt lat="44.40698" lon="1.01087">
        <ele>147.654037</ele>
        <time>2019-08-17T12:20:56Z</time>
      </trkpt>
      <trkpt lat="44.40701" lon="1.01094">
        <ele>147.779663</ele>
        <time>2019-08-17T12:20:57Z</time>
      </trkpt>
      <trkpt lat="44.40703" lon="1.011">
        <ele>147.903397</ele>
        <time>2019-08-17T12:20:58Z</time>
      </trkpt>
      <trkpt lat="44.40706" lon="1.01107">
        <ele>148.034103</ele>
        <time>2019-08-17T12:20:59Z</time>
      </trkpt>
      <trkpt lat="44.40708" lon="1.01114">
        <ele>148.164444</ele>
        <time>2019-08-17T12:21:00Z</time>
      </trkpt>
      <trkpt lat="44.40711" lon="1.01121">
        <ele>148.164444</ele>
        <time>2019-08-17T12:21:01Z</time>
      </trkpt>
      <trkpt lat="44.40714" lon="1.01128">
        <ele>148.291</ele>
        <time>2019-08-17T12:21:02Z</time>
      </trkpt>
      <trkpt lat="44.40716" lon="1.01135">
        <ele>148.395798</ele>
        <time>2019-08-17T12:21:03Z</time>
      </trkpt>
      <trkpt lat="44.40718" lon="1.01142">
        <ele>148.506531</ele>
        <time>2019-08-17T12:21:04Z</time>
      </trkpt>
      <trkpt lat="44.4072" lon="1.01149">
        <ele>148.606293</ele>
        <time>2019-08-17T12:21:05Z</time>
      </trkpt>
      <trkpt lat="44.40723" lon="1.01156">
        <ele>148.606293</ele>
        <time>2019-08-17T12:21:06Z</time>
      </trkpt>
      <trkpt lat="44.40725" lon="1.01163">
        <ele>148.695404</ele>
        <time>2019-08-17T12:21:07Z</time>
      </trkpt>
      <trkpt lat="44.40727" lon="1.01169">
        <ele>148.775894</ele>
        <time>2019-08-17T12:21:08Z</time>
      </trkpt>
      <trkpt lat="44.4073" lon="1.01176">
        <ele>148.775894</ele>
        <time>2019-08-17T12:21:09Z</time>
      </trkpt>
      <trkpt lat="44.40731" lon="1.01183">
        <ele>148.852188</ele>
        <time>2019-08-17T12:21:10Z</time>
      </trkpt>
      <trkpt lat="44.40733" lon="1.01189">
        <ele>148.917435</ele>
        <time>2019-08-17T12:21:11Z</time>
      </trkpt>
      <trkpt lat="44.40735" lon="1.01196">
        <ele>148.917435</ele>
        <time>2019-08-17T12:21:12Z</time>
      </trkpt>
      <trkpt lat="44.40738" lon="1.01202">
        <ele>148.952408</ele>
        <time>2019-08-17T12:21:13Z</time>
      </trkpt>
      <trkpt lat="44.4074" lon="1.01208">
        <ele>148.975922</ele>
        <time>2019-08-17T12:21:14Z</time>
      </trkpt>
      <trkpt lat="44.40743" lon="1.01214">
        <ele>148.990616</ele>
        <time>2019-08-17T12:21:15Z</time>
      </trkpt>
      <trkpt lat="44.40744" lon="1.01221">
        <ele>148.990616</ele>
        <time>2019-08-17T12:21:16Z</time>
      </trkpt>
      <trkpt lat="44.40747" lon="1.01226">
        <ele>148.998184</ele>
        <time>2019-08-17T12:21:17Z</time>
      </trkpt>
      <trkpt lat="44.4075" lon="1.01231">
        <ele>149.002533</ele>
        <time>2019-08-17T12:21:18Z</time>
      </trkpt>
      <trkpt lat="44.40753" lon="1.01235">
        <ele>149.002533</ele>
        <time>2019-08-17T12:21:19Z</time>
      </trkpt>
      <trkpt lat="44.40757" lon="1.01237">
        <ele>149.010757</ele>
        <time>2019-08-17T12:21:20Z</time>
      </trkpt>
      <trkpt lat="44.40762" lon="1.01239">
        <ele>149.017731</ele>
        <time>2019-08-17T12:21:21Z</time>
      </trkpt>
      <trkpt lat="44.40766" lon="1.0124">
        <ele>149.054245</ele>
        <time>2019-08-17T12:21:22Z</time>
      </trkpt>
      <trkpt lat="44.40771" lon="1.01241">
        <ele>149.117599</ele>
        <time>2019-08-17T12:21:23Z</time>
      </trkpt>
      <trkpt lat="44.40776" lon="1.01243">
        <ele>149.215851</ele>
        <time>2019-08-17T12:21:24Z</time>
      </trkpt>
      <trkpt lat="44.4078" lon="1.01244">
        <ele>149.354721</ele>
        <time>2019-08-17T12:21:25Z</time>
      </trkpt>
      <trkpt lat="44.40784" lon="1.01246">
        <ele>149.53038</ele>
        <time>2019-08-17T12:21:26Z</time>
      </trkpt>
      <trkpt lat="44.40788" lon="1.01247">
        <ele>149.737076</ele>
        <time>2019-08-17T12:21:27Z</time>
      </trkpt>
      <trkpt lat="44.40793" lon="1.01248">
        <ele>149.937378</ele>
        <time>2019-08-17T12:21:28Z</time>
      </trkpt>
      <trkpt lat="44.40797" lon="1.01249">
        <ele>150.13829</ele>
        <time>2019-08-17T12:21:29Z</time>
      </trkpt>
      <trkpt lat="44.40801" lon="1.0125">
        <ele>150.334732</ele>
        <time>2019-08-17T12:21:30Z</time>
      </trkpt>
      <trkpt lat="44.40805" lon="1.01252">
        <ele>150.526962</ele>
        <time>2019-08-17T12:21:31Z</time>
      </trkpt>
      <trkpt lat="44.40809" lon="1.01253">
        <ele>150.714935</ele>
        <time>2019-08-17T12:21:32Z</time>
      </trkpt>
      <trkpt lat="44.40814" lon="1.01254">
        <ele>150.900818</ele>
        <time>2019-08-17T12:21:33Z</time>
      </trkpt>
      <trkpt lat="44.40818" lon="1.01255">
        <ele>151.082809</ele>
        <time>2019-08-17T12:21:34Z</time>
      </trkpt>
      <trkpt lat="44.40822" lon="1.01256">
        <ele>151.264023</ele>
        <time>2019-08-17T12:21:35Z</time>
      </trkpt>
      <trkpt lat="44.40827" lon="1.01256">
        <ele>151.264023</ele>
        <time>2019-08-17T12:21:36Z</time>
      </trkpt>
      <trkpt lat="44.40831" lon="1.01257">
        <ele>151.450409</ele>
        <time>2019-08-17T12:21:37Z</time>
      </trkpt>
      <trkpt lat="44.40836" lon="1.01258">
        <ele>151.641296</ele>
        <time>2019-08-17T12:21:38Z</time>
      </trkpt>
      <trkpt lat="44.40841" lon="1.01258">
        <ele>151.87027</ele>
        <time>2019-08-17T12:21:39Z</time>
      </trkpt>
      <trkpt lat="44.40845" lon="1.01259">
        <ele>152.106491</ele>
        <time>2019-08-17T12:21:40Z</time>
      </trkpt>
      <trkpt lat="44.4085" lon="1.0126">
        <ele>152.350693</ele>
        <time>2019-08-17T12:21:41Z</time>
      </trkpt>
      <trkpt lat="44.40855" lon="1.0126">
        <ele>152.601578</ele>
        <time>2019-08-17T12:21:42Z</time>
      </trkpt>
      <trkpt lat="44.40859" lon="1.01261">
        <ele>152.851486</ele>
        <time>2019-08-17T12:21:43Z</time>
      </trkpt>
      <trkpt lat="44.40864" lon="1.01261">
        <ele>153.103027</ele>
        <time>2019-08-17T12:21:44Z</time>
      </trkpt>
      <trkpt lat="44.4087" lon="1.01261">
        <ele>153.321945</ele>
        <time>2019-08-17T12:21:45Z</time>
      </trkpt>
      <trkpt lat="44.40874" lon="1.01262">
        <ele>153.538651</ele>
        <time>2019-08-17T12:21:46Z</time>
      </trkpt>
      <trkpt lat="44.40879" lon="1.01262">
        <ele>153.757751</ele>
        <time>2019-08-17T12:21:47Z</time>
      </trkpt>
      <trkpt lat="44.40884" lon="1.01263">
        <ele>153.981461</ele>
        <time>2019-08-17T12:21:48Z</time>
      </trkpt>
      <trkpt lat="44.40889" lon="1.01263">
        <ele>154.2099</ele>
        <time>2019-08-17T12:21:49Z</time>
      </trkpt>
      <trkpt lat="44.40894" lon="1.01264">
        <ele>154.43782</ele>
        <time>2019-08-17T12:21:50Z</time>
      </trkpt>
      <trkpt lat="44.40899" lon="1.01264">
        <ele>154.670212</ele>
        <time>2019-08-17T12:21:51Z</time>
      </trkpt>
      <trkpt lat="44.40903" lon="1.01265">
        <ele>154.908157</ele>
        <time>2019-08-17T12:21:52Z</time>
      </trkpt>
      <trkpt lat="44.40908" lon="1.01265">
        <ele>155.151764</ele>
        <time>2019-08-17T12:21:53Z</time>
      </trkpt>
      <trkpt lat="44.40913" lon="1.01265">
        <ele>155.397522</ele>
        <time>2019-08-17T12:21:54Z</time>
      </trkpt>
      <trkpt lat="44.40918" lon="1.01265">
        <ele>155.645279</ele>
        <time>2019-08-17T12:21:55Z</time>
      </trkpt>
      <trkpt lat="44.40923" lon="1.01265">
        <ele>155.90332</ele>
        <time>2019-08-17T12:21:56Z</time>
      </trkpt>
      <trkpt lat="44.40928" lon="1.01265">
        <ele>156.166992</ele>
        <time>2019-08-17T12:21:57Z</time>
      </trkpt>
      <trkpt lat="44.40933" lon="1.01265">
        <ele>156.166992</ele>
        <time>2019-08-17T12:21:58Z</time>
      </trkpt>
      <trkpt lat="44.40938" lon="1.01264">
        <ele>156.435547</ele>
        <time>2019-08-17T12:21:59Z</time>
      </trkpt>
      <trkpt lat="44.40942" lon="1.01264">
        <ele>156.708984</ele>
        <time>2019-08-17T12:22:00Z</time>
      </trkpt>
      <trkpt lat="44.40947" lon="1.01263">
        <ele>157.042313</ele>
        <time>2019-08-17T12:22:01Z</time>
      </trkpt>
      <trkpt lat="44.40951" lon="1.01263">
        <ele>157.385422</ele>
        <time>2019-08-17T12:22:02Z</time>
      </trkpt>
      <trkpt lat="44.40955" lon="1.01263">
        <ele>157.730148</ele>
        <time>2019-08-17T12:22:03Z</time>
      </trkpt>
      <trkpt lat="44.40959" lon="1.01264">
        <ele>158.071609</ele>
        <time>2019-08-17T12:22:04Z</time>
      </trkpt>
      <trkpt lat="44.40963" lon="1.01265">
        <ele>158.391006</ele>
        <time>2019-08-17T12:22:05Z</time>
      </trkpt>
      <trkpt lat="44.40968" lon="1.01266">
        <ele>158.670685</ele>
        <time>2019-08-17T12:22:06Z</time>
      </trkpt>
      <trkpt lat="44.40972" lon="1.01267">
        <ele>158.855148</ele>
        <time>2019-08-17T12:22:07Z</time>
      </trkpt>
      <trkpt lat="44.40976" lon="1.01268">
        <ele>158.992203</ele>
        <time>2019-08-17T12:22:08Z</time>
      </trkpt>
      <trkpt lat="44.40981" lon="1.01269">
        <ele>159.086746</ele>
        <time>2019-08-17T12:22:09Z</time>
      </trkpt>
      <trkpt lat="44.40985" lon="1.01271">
        <ele>159.137253</ele>
        <time>2019-08-17T12:22:10Z</time>
      </trkpt>
      <trkpt lat="44.40989" lon="1.01272">
        <ele>159.156799</ele>
        <time>2019-08-17T12:22:11Z</time>
      </trkpt>
      <trkpt lat="44.40993" lon="1.01274">
        <ele>159.160934</ele>
        <time>2019-08-17T12:22:12Z</time>
      </trkpt>
      <trkpt lat="44.40998" lon="1.01275">
        <ele>159.160934</ele>
        <time>2019-08-17T12:22:13Z</time>
      </trkpt>
      <trkpt lat="44.41003" lon="1.01276">
        <ele>159.160934</ele>
        <time>2019-08-17T12:22:14Z</time>
      </trkpt>
      <trkpt lat="44.41008" lon="1.01277">
        <ele>159.156052</ele>
        <time>2019-08-17T12:22:15Z</time>
      </trkpt>
      <trkpt lat="44.41013" lon="1.01278">
        <ele>159.151917</ele>
        <time>2019-08-17T12:22:16Z</time>
      </trkpt>
      <trkpt lat="44.41018" lon="1.01279">
        <ele>159.142105</ele>
        <time>2019-08-17T12:22:17Z</time>
      </trkpt>
      <trkpt lat="44.41023" lon="1.0128">
        <ele>159.133865</ele>
        <time>2019-08-17T12:22:18Z</time>
      </trkpt>
      <trkpt lat="44.41027" lon="1.01281">
        <ele>159.133865</ele>
        <time>2019-08-17T12:22:19Z</time>
      </trkpt>
      <trkpt lat="44.41032" lon="1.01281">
        <ele>159.133865</ele>
        <time>2019-08-17T12:22:20Z</time>
      </trkpt>
      <trkpt lat="44.41037" lon="1.01282">
        <ele>159.140839</ele>
        <time>2019-08-17T12:22:21Z</time>
      </trkpt>
      <trkpt lat="44.41042" lon="1.01282">
        <ele>159.168228</ele>
        <time>2019-08-17T12:22:22Z</time>
      </trkpt>
      <trkpt lat="44.41047" lon="1.01283">
        <ele>159.218613</ele>
        <time>2019-08-17T12:22:23Z</time>
      </trkpt>
      <trkpt lat="44.41052" lon="1.01283">
        <ele>159.287338</ele>
        <time>2019-08-17T12:22:24Z</time>
      </trkpt>
      <trkpt lat="44.41056" lon="1.01283">
        <ele>159.376099</ele>
        <time>2019-08-17T12:22:25Z</time>
      </trkpt>
      <trkpt lat="44.4106" lon="1.01282">
        <ele>159.48555</ele>
        <time>2019-08-17T12:22:26Z</time>
      </trkpt>
      <trkpt lat="44.41065" lon="1.01282">
        <ele>159.606934</ele>
        <time>2019-08-17T12:22:27Z</time>
      </trkpt>
      <trkpt lat="44.4107" lon="1.01281">
        <ele>159.606934</ele>
        <time>2019-08-17T12:22:28Z</time>
      </trkpt>
      <trkpt lat="44.41076" lon="1.0128">
        <ele>159.734695</ele>
        <time>2019-08-17T12:22:29Z</time>
      </trkpt>
      <trkpt lat="44.41081" lon="1.0128">
        <ele>159.865723</ele>
        <time>2019-08-17T12:22:30Z</time>
      </trkpt>
      <trkpt lat="44.41086" lon="1.01279">
        <ele>160.029297</ele>
        <time>2019-08-17T12:22:31Z</time>
      </trkpt>
      <trkpt lat="44.41092" lon="1.01277">
        <ele>160.201065</ele>
        <time>2019-08-17T12:22:32Z</time>
      </trkpt>
      <trkpt lat="44.41097" lon="1.01274">
        <ele>160.379425</ele>
        <time>2019-08-17T12:22:33Z</time>
      </trkpt>
      <trkpt lat="44.41102" lon="1.01271">
        <ele>160.568619</ele>
        <time>2019-08-17T12:22:34Z</time>
      </trkpt>
      <trkpt lat="44.41106" lon="1.01267">
        <ele>160.777267</ele>
        <time>2019-08-17T12:22:35Z</time>
      </trkpt>
      <trkpt lat="44.41111" lon="1.01263">
        <ele>161.005402</ele>
        <time>2019-08-17T12:22:36Z</time>
      </trkpt>
      <trkpt lat="44.41115" lon="1.01258">
        <ele>161.221634</ele>
        <time>2019-08-17T12:22:37Z</time>
      </trkpt>
      <trkpt lat="44.4112" lon="1.01253">
        <ele>161.455383</ele>
        <time>2019-08-17T12:22:38Z</time>
      </trkpt>
      <trkpt lat="44.41124" lon="1.01247">
        <ele>161.710464</ele>
        <time>2019-08-17T12:22:39Z</time>
      </trkpt>
      <trkpt lat="44.41128" lon="1.01242">
        <ele>161.710464</ele>
        <time>2019-08-17T12:22:40Z</time>
      </trkpt>
      <trkpt lat="44.41133" lon="1.01238">
        <ele>161.985641</ele>
        <time>2019-08-17T12:22:41Z</time>
      </trkpt>
      <trkpt lat="44.41138" lon="1.01235">
        <ele>162.267487</ele>
        <time>2019-08-17T12:22:42Z</time>
      </trkpt>
      <trkpt lat="44.41143" lon="1.01233">
        <ele>162.597351</ele>
        <time>2019-08-17T12:22:43Z</time>
      </trkpt>
      <trkpt lat="44.41148" lon="1.01231">
        <ele>162.923721</ele>
        <time>2019-08-17T12:22:44Z</time>
      </trkpt>
      <trkpt lat="44.41153" lon="1.0123">
        <ele>163.236618</ele>
        <time>2019-08-17T12:22:45Z</time>
      </trkpt>
      <trkpt lat="44.41157" lon="1.01229">
        <ele>163.529312</ele>
        <time>2019-08-17T12:22:46Z</time>
      </trkpt>
      <trkpt lat="44.41162" lon="1.01228">
        <ele>163.795212</ele>
        <time>2019-08-17T12:22:47Z</time>
      </trkpt>
      <trkpt lat="44.41166" lon="1.01228">
        <ele>164.033981</ele>
        <time>2019-08-17T12:22:48Z</time>
      </trkpt>
      <trkpt lat="44.41171" lon="1.01228">
        <ele>164.206009</ele>
        <time>2019-08-17T12:22:49Z</time>
      </trkpt>
      <trkpt lat="44.41175" lon="1.01228">
        <ele>164.368546</ele>
        <time>2019-08-17T12:22:50Z</time>
      </trkpt>
      <trkpt lat="44.41179" lon="1.01229">
        <ele>164.525085</ele>
        <time>2019-08-17T12:22:51Z</time>
      </trkpt>
      <trkpt lat="44.41184" lon="1.0123">
        <ele>164.675308</ele>
        <time>2019-08-17T12:22:52Z</time>
      </trkpt>
      <trkpt lat="44.41187" lon="1.01232">
        <ele>164.823547</ele>
        <time>2019-08-17T12:22:53Z</time>
      </trkpt>
      <trkpt lat="44.41191" lon="1.01234">
        <ele>164.969971</ele>
        <time>2019-08-17T12:22:54Z</time>
      </trkpt>
      <trkpt lat="44.41195" lon="1.01237">
        <ele>165.110474</ele>
        <time>2019-08-17T12:22:55Z</time>
      </trkpt>
      <trkpt lat="44.41199" lon="1.01241">
        <ele>165.237534</ele>
        <time>2019-08-17T12:22:56Z</time>
      </trkpt>
      <trkpt lat="44.41203" lon="1.01245">
        <ele>165.350662</ele>
        <time>2019-08-17T12:22:57Z</time>
      </trkpt>
      <trkpt lat="44.41206" lon="1.0125">
        <ele>165.350662</ele>
        <time>2019-08-17T12:22:58Z</time>
      </trkpt>
      <trkpt lat="44.41209" lon="1.01255">
        <ele>165.452225</ele>
        <time>2019-08-17T12:22:59Z</time>
      </trkpt>
      <trkpt lat="44.41213" lon="1.0126">
        <ele>165.540146</ele>
        <time>2019-08-17T12:23:00Z</time>
      </trkpt>
      <trkpt lat="44.41216" lon="1.01266">
        <ele>165.540146</ele>
        <time>2019-08-17T12:23:01Z</time>
      </trkpt>
      <trkpt lat="44.41219" lon="1.01271">
        <ele>165.622131</ele>
        <time>2019-08-17T12:23:02Z</time>
      </trkpt>
      <trkpt lat="44.41222" lon="1.01276">
        <ele>165.691223</ele>
        <time>2019-08-17T12:23:03Z</time>
      </trkpt>
      <trkpt lat="44.41225" lon="1.01282">
        <ele>165.753799</ele>
        <time>2019-08-17T12:23:04Z</time>
      </trkpt>
      <trkpt lat="44.41227" lon="1.01288">
        <ele>165.812881</ele>
        <time>2019-08-17T12:23:05Z</time>
      </trkpt>
      <trkpt lat="44.4123" lon="1.01294">
        <ele>165.812881</ele>
        <time>2019-08-17T12:23:06Z</time>
      </trkpt>
      <trkpt lat="44.41233" lon="1.01299">
        <ele>165.868576</ele>
        <time>2019-08-17T12:23:07Z</time>
      </trkpt>
      <trkpt lat="44.41235" lon="1.01304">
        <ele>165.925735</ele>
        <time>2019-08-17T12:23:08Z</time>
      </trkpt>
      <trkpt lat="44.41238" lon="1.0131">
        <ele>165.993286</ele>
        <time>2019-08-17T12:23:09Z</time>
      </trkpt>
      <trkpt lat="44.4124" lon="1.01315">
        <ele>165.993286</ele>
        <time>2019-08-17T12:23:10Z</time>
      </trkpt>
      <trkpt lat="44.41242" lon="1.01322">
        <ele>166.067337</ele>
        <time>2019-08-17T12:23:11Z</time>
      </trkpt>
      <trkpt lat="44.41244" lon="1.01328">
        <ele>166.145065</ele>
        <time>2019-08-17T12:23:12Z</time>
      </trkpt>
      <trkpt lat="44.41246" lon="1.01333">
        <ele>166.231796</ele>
        <time>2019-08-17T12:23:13Z</time>
      </trkpt>
      <trkpt lat="44.41249" lon="1.01336">
        <ele>166.314774</ele>
        <time>2019-08-17T12:23:14Z</time>
      </trkpt>
      <trkpt lat="44.41253" lon="1.01337">
        <ele>166.314774</ele>
        <time>2019-08-17T12:23:15Z</time>
      </trkpt>
      <trkpt lat="44.41257" lon="1.01337">
        <ele>166.387695</ele>
        <time>2019-08-17T12:23:16Z</time>
      </trkpt>
      <trkpt lat="44.41261" lon="1.01337">
        <ele>166.446701</ele>
        <time>2019-08-17T12:23:17Z</time>
      </trkpt>
      <trkpt lat="44.41265" lon="1.01336">
        <ele>166.553391</ele>
        <time>2019-08-17T12:23:18Z</time>
      </trkpt>
      <trkpt lat="44.41269" lon="1.01337">
        <ele>166.685226</ele>
        <time>2019-08-17T12:23:19Z</time>
      </trkpt>
      <trkpt lat="44.41272" lon="1.01338">
        <ele>166.837967</ele>
        <time>2019-08-17T12:23:20Z</time>
      </trkpt>
      <trkpt lat="44.41275" lon="1.01338">
        <ele>167.022049</ele>
        <time>2019-08-17T12:23:21Z</time>
      </trkpt>
      <trkpt lat="44.41277" lon="1.01339">
        <ele>167.240723</ele>
        <time>2019-08-17T12:23:22Z</time>
      </trkpt>
      <trkpt lat="44.4128" lon="1.0134">
        <ele>167.480392</ele>
        <time>2019-08-17T12:23:23Z</time>
      </trkpt>
      <trkpt lat="44.41282" lon="1.0134">
        <ele>167.685791</ele>
        <time>2019-08-17T12:23:24Z</time>
      </trkpt>
      <trkpt lat="44.41285" lon="1.0134">
        <ele>167.876465</ele>
        <time>2019-08-17T12:23:25Z</time>
      </trkpt>
      <trkpt lat="44.41287" lon="1.0134">
        <ele>168.050125</ele>
        <time>2019-08-17T12:23:26Z</time>
      </trkpt>
      <trkpt lat="44.4129" lon="1.01339">
        <ele>168.210281</ele>
        <time>2019-08-17T12:23:27Z</time>
      </trkpt>
      <trkpt lat="44.41293" lon="1.01337">
        <ele>168.359451</ele>
        <time>2019-08-17T12:23:28Z</time>
      </trkpt>
      <trkpt lat="44.41295" lon="1.01336">
        <ele>168.503342</ele>
        <time>2019-08-17T12:23:29Z</time>
      </trkpt>
      <trkpt lat="44.41298" lon="1.01336">
        <ele>168.651199</ele>
        <time>2019-08-17T12:23:30Z</time>
      </trkpt>
      <trkpt lat="44.413" lon="1.01336">
        <ele>168.651199</ele>
        <time>2019-08-17T12:23:31Z</time>
      </trkpt>
      <trkpt lat="44.41302" lon="1.01338">
        <ele>168.8069</ele>
        <time>2019-08-17T12:23:32Z</time>
      </trkpt>
      <trkpt lat="44.41303" lon="1.0134">
        <ele>168.970688</ele>
        <time>2019-08-17T12:23:33Z</time>
      </trkpt>
      <trkpt lat="44.41304" lon="1.01342">
        <ele>169.157272</ele>
        <time>2019-08-17T12:23:34Z</time>
      </trkpt>
      <trkpt lat="44.41304" lon="1.01344">
        <ele>169.332672</ele>
        <time>2019-08-17T12:23:35Z</time>
      </trkpt>
      <trkpt lat="44.41304" lon="1.01347">
        <ele>169.487473</ele>
        <time>2019-08-17T12:23:36Z</time>
      </trkpt>
      <trkpt lat="44.41306" lon="1.01349">
        <ele>169.611206</ele>
        <time>2019-08-17T12:23:37Z</time>
      </trkpt>
      <trkpt lat="44.41308" lon="1.0135">
        <ele>169.704636</ele>
        <time>2019-08-17T12:23:38Z</time>
      </trkpt>
      <trkpt lat="44.4131" lon="1.0135">
        <ele>169.770554</ele>
        <time>2019-08-17T12:23:39Z</time>
      </trkpt>
      <trkpt lat="44.41312" lon="1.0135">
        <ele>169.794861</ele>
        <time>2019-08-17T12:23:40Z</time>
      </trkpt>
      <trkpt lat="44.41314" lon="1.0135">
        <ele>169.817871</ele>
        <time>2019-08-17T12:23:41Z</time>
      </trkpt>
      <trkpt lat="44.41316" lon="1.0135">
        <ele>169.855911</ele>
        <time>2019-08-17T12:23:42Z</time>
      </trkpt>
      <trkpt lat="44.41318" lon="1.01351">
        <ele>169.910904</ele>
        <time>2019-08-17T12:23:43Z</time>
      </trkpt>
      <trkpt lat="44.4132" lon="1.01353">
        <ele>169.985764</ele>
        <time>2019-08-17T12:23:44Z</time>
      </trkpt>
      <trkpt lat="44.41321" lon="1.01356">
        <ele>170.079147</ele>
        <time>2019-08-17T12:23:45Z</time>
      </trkpt>
      <trkpt lat="44.41322" lon="1.01359">
        <ele>170.185226</ele>
        <time>2019-08-17T12:23:46Z</time>
      </trkpt>
      <trkpt lat="44.41323" lon="1.01362">
        <ele>170.185226</ele>
        <time>2019-08-17T12:23:47Z</time>
      </trkpt>
      <trkpt lat="44.41324" lon="1.01364">
        <ele>170.271973</ele>
        <time>2019-08-17T12:23:48Z</time>
      </trkpt>
      <trkpt lat="44.41326" lon="1.01366">
        <ele>170.271973</ele>
        <time>2019-08-17T12:23:49Z</time>
      </trkpt>
      <trkpt lat="44.41328" lon="1.01367">
        <ele>170.349609</ele>
        <time>2019-08-17T12:23:50Z</time>
      </trkpt>
      <trkpt lat="44.4133" lon="1.01368">
        <ele>170.409348</ele>
        <time>2019-08-17T12:23:51Z</time>
      </trkpt>
      <trkpt lat="44.41333" lon="1.01368">
        <ele>170.409348</ele>
        <time>2019-08-17T12:23:52Z</time>
      </trkpt>
      <trkpt lat="44.41336" lon="1.01369">
        <ele>170.453125</ele>
        <time>2019-08-17T12:23:53Z</time>
      </trkpt>
      <trkpt lat="44.41338" lon="1.0137">
        <ele>170.486328</ele>
        <time>2019-08-17T12:23:54Z</time>
      </trkpt>
      <trkpt lat="44.4134" lon="1.01371">
        <ele>170.554199</ele>
        <time>2019-08-17T12:23:55Z</time>
      </trkpt>
      <trkpt lat="44.41343" lon="1.01372">
        <ele>170.63916</ele>
        <time>2019-08-17T12:23:56Z</time>
      </trkpt>
      <trkpt lat="44.41345" lon="1.01372">
        <ele>170.738602</ele>
        <time>2019-08-17T12:23:57Z</time>
      </trkpt>
      <trkpt lat="44.41347" lon="1.0137">
        <ele>170.847168</ele>
        <time>2019-08-17T12:23:58Z</time>
      </trkpt>
      <trkpt lat="44.4135" lon="1.01369">
        <ele>170.979004</ele>
        <time>2019-08-17T12:23:59Z</time>
      </trkpt>
      <trkpt lat="44.41353" lon="1.01369">
        <ele>171.123047</ele>
        <time>2019-08-17T12:24:00Z</time>
      </trkpt>
      <trkpt lat="44.41355" lon="1.0137">
        <ele>171.254395</ele>
        <time>2019-08-17T12:24:01Z</time>
      </trkpt>
      <trkpt lat="44.41358" lon="1.0137">
        <ele>171.390137</ele>
        <time>2019-08-17T12:24:02Z</time>
      </trkpt>
      <trkpt lat="44.41361" lon="1.0137">
        <ele>171.535156</ele>
        <time>2019-08-17T12:24:03Z</time>
      </trkpt>
      <trkpt lat="44.41363" lon="1.01371">
        <ele>171.691086</ele>
        <time>2019-08-17T12:24:04Z</time>
      </trkpt>
      <trkpt lat="44.41366" lon="1.01372">
        <ele>171.852219</ele>
        <time>2019-08-17T12:24:05Z</time>
      </trkpt>
      <trkpt lat="44.41368" lon="1.01372">
        <ele>172.01001</ele>
        <time>2019-08-17T12:24:06Z</time>
      </trkpt>
      <trkpt lat="44.41371" lon="1.01373">
        <ele>172.166992</ele>
        <time>2019-08-17T12:24:07Z</time>
      </trkpt>
      <trkpt lat="44.41373" lon="1.01373">
        <ele>172.322021</ele>
        <time>2019-08-17T12:24:08Z</time>
      </trkpt>
      <trkpt lat="44.41375" lon="1.01372">
        <ele>172.477463</ele>
        <time>2019-08-17T12:24:09Z</time>
      </trkpt>
      <trkpt lat="44.41378" lon="1.01371">
        <ele>172.636063</ele>
        <time>2019-08-17T12:24:10Z</time>
      </trkpt>
      <trkpt lat="44.4138" lon="1.01371">
        <ele>172.799149</ele>
        <time>2019-08-17T12:24:11Z</time>
      </trkpt>
      <trkpt lat="44.41383" lon="1.01369">
        <ele>172.971268</ele>
        <time>2019-08-17T12:24:12Z</time>
      </trkpt>
      <trkpt lat="44.41386" lon="1.01368">
        <ele>173.147461</ele>
        <time>2019-08-17T12:24:13Z</time>
      </trkpt>
      <trkpt lat="44.41388" lon="1.01366">
        <ele>173.332596</ele>
        <time>2019-08-17T12:24:14Z</time>
      </trkpt>
      <trkpt lat="44.4139" lon="1.01364">
        <ele>173.528976</ele>
        <time>2019-08-17T12:24:15Z</time>
      </trkpt>
      <trkpt lat="44.41393" lon="1.01363">
        <ele>173.737549</ele>
        <time>2019-08-17T12:24:16Z</time>
      </trkpt>
      <trkpt lat="44.41395" lon="1.01361">
        <ele>173.737549</ele>
        <time>2019-08-17T12:24:17Z</time>
      </trkpt>
      <trkpt lat="44.41398" lon="1.01359">
        <ele>173.951828</ele>
        <time>2019-08-17T12:24:18Z</time>
      </trkpt>
      <trkpt lat="44.414" lon="1.01358">
        <ele>174.170822</ele>
        <time>2019-08-17T12:24:19Z</time>
      </trkpt>
      <trkpt lat="44.41402" lon="1.01357">
        <ele>174.428055</ele>
        <time>2019-08-17T12:24:20Z</time>
      </trkpt>
      <trkpt lat="44.41405" lon="1.01355">
        <ele>174.688965</ele>
        <time>2019-08-17T12:24:21Z</time>
      </trkpt>
      <trkpt lat="44.41407" lon="1.01354">
        <ele>174.94783</ele>
        <time>2019-08-17T12:24:22Z</time>
      </trkpt>
      <trkpt lat="44.4141" lon="1.01352">
        <ele>175.203857</ele>
        <time>2019-08-17T12:24:23Z</time>
      </trkpt>
      <trkpt lat="44.41412" lon="1.0135">
        <ele>175.461105</ele>
        <time>2019-08-17T12:24:24Z</time>
      </trkpt>
      <trkpt lat="44.41415" lon="1.01348">
        <ele>175.720139</ele>
        <time>2019-08-17T12:24:25Z</time>
      </trkpt>
      <trkpt lat="44.41417" lon="1.01347">
        <ele>175.946045</ele>
        <time>2019-08-17T12:24:26Z</time>
      </trkpt>
      <trkpt lat="44.41419" lon="1.01346">
        <ele>176.171555</ele>
        <time>2019-08-17T12:24:27Z</time>
      </trkpt>
      <trkpt lat="44.41422" lon="1.01344">
        <ele>176.40007</ele>
        <time>2019-08-17T12:24:28Z</time>
      </trkpt>
      <trkpt lat="44.41423" lon="1.01341">
        <ele>176.626389</ele>
        <time>2019-08-17T12:24:29Z</time>
      </trkpt>
      <trkpt lat="44.41426" lon="1.01339">
        <ele>176.849854</ele>
        <time>2019-08-17T12:24:30Z</time>
      </trkpt>
      <trkpt lat="44.41428" lon="1.01337">
        <ele>177.07048</ele>
        <time>2019-08-17T12:24:31Z</time>
      </trkpt>
      <trkpt lat="44.4143" lon="1.01335">
        <ele>177.286209</ele>
        <time>2019-08-17T12:24:32Z</time>
      </trkpt>
      <trkpt lat="44.41432" lon="1.01333">
        <ele>177.500732</ele>
        <time>2019-08-17T12:24:33Z</time>
      </trkpt>
      <trkpt lat="44.41435" lon="1.01331">
        <ele>177.711594</ele>
        <time>2019-08-17T12:24:34Z</time>
      </trkpt>
      <trkpt lat="44.41436" lon="1.01329">
        <ele>177.925308</ele>
        <time>2019-08-17T12:24:35Z</time>
      </trkpt>
      <trkpt lat="44.41438" lon="1.01327">
        <ele>177.925308</ele>
        <time>2019-08-17T12:24:36Z</time>
      </trkpt>
      <trkpt lat="44.41441" lon="1.01325">
        <ele>178.144409</ele>
        <time>2019-08-17T12:24:37Z</time>
      </trkpt>
      <trkpt lat="44.41443" lon="1.01323">
        <ele>178.362549</ele>
        <time>2019-08-17T12:24:38Z</time>
      </trkpt>
      <trkpt lat="44.41444" lon="1.01321">
        <ele>178.620041</ele>
        <time>2019-08-17T12:24:39Z</time>
      </trkpt>
      <trkpt lat="44.41447" lon="1.01319">
        <ele>178.875351</ele>
        <time>2019-08-17T12:24:40Z</time>
      </trkpt>
      <trkpt lat="44.41449" lon="1.01317">
        <ele>179.132706</ele>
        <time>2019-08-17T12:24:41Z</time>
      </trkpt>
      <trkpt lat="44.41451" lon="1.01315">
        <ele>179.393875</ele>
        <time>2019-08-17T12:24:42Z</time>
      </trkpt>
      <trkpt lat="44.41453" lon="1.01313">
        <ele>179.655518</ele>
        <time>2019-08-17T12:24:43Z</time>
      </trkpt>
      <trkpt lat="44.41455" lon="1.01311">
        <ele>179.920761</ele>
        <time>2019-08-17T12:24:44Z</time>
      </trkpt>
      <trkpt lat="44.41457" lon="1.01309">
        <ele>180.146072</ele>
        <time>2019-08-17T12:24:45Z</time>
      </trkpt>
      <trkpt lat="44.41459" lon="1.01307">
        <ele>180.373535</ele>
        <time>2019-08-17T12:24:46Z</time>
      </trkpt>
      <trkpt lat="44.41461" lon="1.01305">
        <ele>180.60553</ele>
        <time>2019-08-17T12:24:47Z</time>
      </trkpt>
      <trkpt lat="44.41462" lon="1.01302">
        <ele>180.836563</ele>
        <time>2019-08-17T12:24:48Z</time>
      </trkpt>
      <trkpt lat="44.41464" lon="1.013">
        <ele>181.06926</ele>
        <time>2019-08-17T12:24:49Z</time>
      </trkpt>
      <trkpt lat="44.41466" lon="1.01298">
        <ele>181.06926</ele>
        <time>2019-08-17T12:24:50Z</time>
      </trkpt>
      <trkpt lat="44.41468" lon="1.01295">
        <ele>181.299973</ele>
        <time>2019-08-17T12:24:51Z</time>
      </trkpt>
      <trkpt lat="44.4147" lon="1.01292">
        <ele>181.535202</ele>
        <time>2019-08-17T12:24:52Z</time>
      </trkpt>
      <trkpt lat="44.41471" lon="1.0129">
        <ele>181.809387</ele>
        <time>2019-08-17T12:24:53Z</time>
      </trkpt>
      <trkpt lat="44.41473" lon="1.01288">
        <ele>182.082901</ele>
        <time>2019-08-17T12:24:54Z</time>
      </trkpt>
      <trkpt lat="44.41475" lon="1.01286">
        <ele>182.355148</ele>
        <time>2019-08-17T12:24:55Z</time>
      </trkpt>
      <trkpt lat="44.41477" lon="1.01284">
        <ele>182.629196</ele>
        <time>2019-08-17T12:24:56Z</time>
      </trkpt>
      <trkpt lat="44.4148" lon="1.01282">
        <ele>182.908737</ele>
        <time>2019-08-17T12:24:57Z</time>
      </trkpt>
      <trkpt lat="44.41481" lon="1.01279">
        <ele>183.192276</ele>
        <time>2019-08-17T12:24:58Z</time>
      </trkpt>
      <trkpt lat="44.41484" lon="1.01277">
        <ele>183.444458</ele>
        <time>2019-08-17T12:24:59Z</time>
      </trkpt>
      <trkpt lat="44.41485" lon="1.01274">
        <ele>183.699265</ele>
        <time>2019-08-17T12:25:00Z</time>
      </trkpt>
      <trkpt lat="44.41487" lon="1.01271">
        <ele>183.954941</ele>
        <time>2019-08-17T12:25:01Z</time>
      </trkpt>
      <trkpt lat="44.41489" lon="1.01269">
        <ele>184.210892</ele>
        <time>2019-08-17T12:25:02Z</time>
      </trkpt>
      <trkpt lat="44.41491" lon="1.01266">
        <ele>184.467758</ele>
        <time>2019-08-17T12:25:03Z</time>
      </trkpt>
      <trkpt lat="44.41493" lon="1.01263">
        <ele>184.725296</ele>
        <time>2019-08-17T12:25:04Z</time>
      </trkpt>
      <trkpt lat="44.41496" lon="1.0126">
        <ele>184.978439</ele>
        <time>2019-08-17T12:25:05Z</time>
      </trkpt>
      <trkpt lat="44.41497" lon="1.01258">
        <ele>185.231689</ele>
        <time>2019-08-17T12:25:06Z</time>
      </trkpt>
      <trkpt lat="44.415" lon="1.01255">
        <ele>185.488785</ele>
        <time>2019-08-17T12:25:07Z</time>
      </trkpt>
      <trkpt lat="44.41502" lon="1.01253">
        <ele>185.746811</ele>
        <time>2019-08-17T12:25:08Z</time>
      </trkpt>
      <trkpt lat="44.41504" lon="1.01251">
        <ele>186.004333</ele>
        <time>2019-08-17T12:25:09Z</time>
      </trkpt>
      <trkpt lat="44.41506" lon="1.01249">
        <ele>186.26001</ele>
        <time>2019-08-17T12:25:10Z</time>
      </trkpt>
      <trkpt lat="44.41508" lon="1.01247">
        <ele>186.515381</ele>
        <time>2019-08-17T12:25:11Z</time>
      </trkpt>
      <trkpt lat="44.4151" lon="1.01246">
        <ele>186.765686</ele>
        <time>2019-08-17T12:25:12Z</time>
      </trkpt>
      <trkpt lat="44.4151" lon="1.01243">
        <ele>187.012939</ele>
        <time>2019-08-17T12:25:13Z</time>
      </trkpt>
      <trkpt lat="44.41511" lon="1.0124">
        <ele>187.253357</ele>
        <time>2019-08-17T12:25:14Z</time>
      </trkpt>
      <trkpt lat="44.41511" lon="1.01235">
        <ele>187.483887</ele>
        <time>2019-08-17T12:25:15Z</time>
      </trkpt>
      <trkpt lat="44.41511" lon="1.0123">
        <ele>187.699875</ele>
        <time>2019-08-17T12:25:16Z</time>
      </trkpt>
      <trkpt lat="44.41511" lon="1.01225">
        <ele>187.896317</ele>
        <time>2019-08-17T12:25:17Z</time>
      </trkpt>
      <trkpt lat="44.41512" lon="1.0122">
        <ele>188.076004</ele>
        <time>2019-08-17T12:25:18Z</time>
      </trkpt>
      <trkpt lat="44.41513" lon="1.01215">
        <ele>188.238602</ele>
        <time>2019-08-17T12:25:19Z</time>
      </trkpt>
      <trkpt lat="44.41515" lon="1.0121">
        <ele>188.391281</ele>
        <time>2019-08-17T12:25:20Z</time>
      </trkpt>
      <trkpt lat="44.41517" lon="1.01207">
        <ele>188.546707</ele>
        <time>2019-08-17T12:25:21Z</time>
      </trkpt>
      <trkpt lat="44.4152" lon="1.01204">
        <ele>188.546707</ele>
        <time>2019-08-17T12:25:22Z</time>
      </trkpt>
      <trkpt lat="44.41523" lon="1.01202">
        <ele>188.719238</ele>
        <time>2019-08-17T12:25:23Z</time>
      </trkpt>
      <trkpt lat="44.41526" lon="1.01199">
        <ele>188.922012</ele>
        <time>2019-08-17T12:25:24Z</time>
      </trkpt>
      <trkpt lat="44.41528" lon="1.01195">
        <ele>189.219604</ele>
        <time>2019-08-17T12:25:25Z</time>
      </trkpt>
      <trkpt lat="44.41531" lon="1.01192">
        <ele>189.547531</ele>
        <time>2019-08-17T12:25:26Z</time>
      </trkpt>
      <trkpt lat="44.41534" lon="1.01189">
        <ele>189.907181</ele>
        <time>2019-08-17T12:25:27Z</time>
      </trkpt>
      <trkpt lat="44.41538" lon="1.01187">
        <ele>190.291519</ele>
        <time>2019-08-17T12:25:28Z</time>
      </trkpt>
      <trkpt lat="44.41541" lon="1.01186">
        <ele>190.691391</ele>
        <time>2019-08-17T12:25:29Z</time>
      </trkpt>
      <trkpt lat="44.41544" lon="1.01187">
        <ele>191.100113</ele>
        <time>2019-08-17T12:25:30Z</time>
      </trkpt>
      <trkpt lat="44.41547" lon="1.01189">
        <ele>191.448914</ele>
        <time>2019-08-17T12:25:31Z</time>
      </trkpt>
      <trkpt lat="44.4155" lon="1.01192">
        <ele>191.795547</ele>
        <time>2019-08-17T12:25:32Z</time>
      </trkpt>
      <trkpt lat="44.41553" lon="1.01194">
        <ele>191.795547</ele>
        <time>2019-08-17T12:25:33Z</time>
      </trkpt>
      <trkpt lat="44.41557" lon="1.01196">
        <ele>192.123413</ele>
        <time>2019-08-17T12:25:34Z</time>
      </trkpt>
      <trkpt lat="44.4156" lon="1.01198">
        <ele>192.420242</ele>
        <time>2019-08-17T12:25:35Z</time>
      </trkpt>
      <trkpt lat="44.41563" lon="1.01201">
        <ele>192.713303</ele>
        <time>2019-08-17T12:25:36Z</time>
      </trkpt>
      <trkpt lat="44.41566" lon="1.01202">
        <ele>192.983337</ele>
        <time>2019-08-17T12:25:37Z</time>
      </trkpt>
      <trkpt lat="44.41568" lon="1.01204">
        <ele>193.230423</ele>
        <time>2019-08-17T12:25:38Z</time>
      </trkpt>
      <trkpt lat="44.41571" lon="1.01206">
        <ele>193.457108</ele>
        <time>2019-08-17T12:25:39Z</time>
      </trkpt>
      <trkpt lat="44.41575" lon="1.01208">
        <ele>193.677872</ele>
        <time>2019-08-17T12:25:40Z</time>
      </trkpt>
      <trkpt lat="44.41578" lon="1.01209">
        <ele>193.903183</ele>
        <time>2019-08-17T12:25:41Z</time>
      </trkpt>
      <trkpt lat="44.41581" lon="1.01211">
        <ele>194.105881</ele>
        <time>2019-08-17T12:25:42Z</time>
      </trkpt>
      <trkpt lat="44.41584" lon="1.01213">
        <ele>194.308151</ele>
        <time>2019-08-17T12:25:43Z</time>
      </trkpt>
      <trkpt lat="44.41587" lon="1.01214">
        <ele>194.513657</ele>
        <time>2019-08-17T12:25:44Z</time>
      </trkpt>
      <trkpt lat="44.41591" lon="1.01216">
        <ele>194.726318</ele>
        <time>2019-08-17T12:25:45Z</time>
      </trkpt>
      <trkpt lat="44.41594" lon="1.01217">
        <ele>194.946396</ele>
        <time>2019-08-17T12:25:46Z</time>
      </trkpt>
      <trkpt lat="44.41598" lon="1.01217">
        <ele>194.946396</ele>
        <time>2019-08-17T12:25:47Z</time>
      </trkpt>
      <trkpt lat="44.41601" lon="1.01218">
        <ele>195.172897</ele>
        <time>2019-08-17T12:25:48Z</time>
      </trkpt>
      <trkpt lat="44.41604" lon="1.0122">
        <ele>195.409225</ele>
        <time>2019-08-17T12:25:49Z</time>
      </trkpt>
      <trkpt lat="44.41608" lon="1.01221">
        <ele>195.702316</ele>
        <time>2019-08-17T12:25:50Z</time>
      </trkpt>
      <trkpt lat="44.41612" lon="1.01222">
        <ele>196.004318</ele>
        <time>2019-08-17T12:25:51Z</time>
      </trkpt>
      <trkpt lat="44.41615" lon="1.01223">
        <ele>196.315445</ele>
        <time>2019-08-17T12:25:52Z</time>
      </trkpt>
      <trkpt lat="44.41619" lon="1.01224">
        <ele>196.635269</ele>
        <time>2019-08-17T12:25:53Z</time>
      </trkpt>
      <trkpt lat="44.41623" lon="1.01225">
        <ele>196.966431</ele>
        <time>2019-08-17T12:25:54Z</time>
      </trkpt>
      <trkpt lat="44.41627" lon="1.01226">
        <ele>197.306808</ele>
        <time>2019-08-17T12:25:55Z</time>
      </trkpt>
      <trkpt lat="44.4163" lon="1.01227">
        <ele>197.606689</ele>
        <time>2019-08-17T12:25:56Z</time>
      </trkpt>
      <trkpt lat="44.41634" lon="1.01229">
        <ele>197.912674</ele>
        <time>2019-08-17T12:25:57Z</time>
      </trkpt>
      <trkpt lat="44.41637" lon="1.0123">
        <ele>198.224365</ele>
        <time>2019-08-17T12:25:58Z</time>
      </trkpt>
      <trkpt lat="44.41641" lon="1.01232">
        <ele>198.538315</ele>
        <time>2019-08-17T12:25:59Z</time>
      </trkpt>
      <trkpt lat="44.41645" lon="1.01233">
        <ele>198.852585</ele>
        <time>2019-08-17T12:26:00Z</time>
      </trkpt>
      <trkpt lat="44.41649" lon="1.01235">
        <ele>199.16069</ele>
        <time>2019-08-17T12:26:01Z</time>
      </trkpt>
      <trkpt lat="44.41653" lon="1.01237">
        <ele>199.46077</ele>
        <time>2019-08-17T12:26:02Z</time>
      </trkpt>
      <trkpt lat="44.41657" lon="1.01238">
        <ele>199.755447</ele>
        <time>2019-08-17T12:26:03Z</time>
      </trkpt>
      <trkpt lat="44.41661" lon="1.01239">
        <ele>199.755447</ele>
        <time>2019-08-17T12:26:04Z</time>
      </trkpt>
      <trkpt lat="44.41665" lon="1.01241">
        <ele>200.045532</ele>
        <time>2019-08-17T12:26:05Z</time>
      </trkpt>
      <trkpt lat="44.41669" lon="1.01242">
        <ele>200.330017</ele>
        <time>2019-08-17T12:26:06Z</time>
      </trkpt>
      <trkpt lat="44.41673" lon="1.01243">
        <ele>200.662582</ele>
        <time>2019-08-17T12:26:07Z</time>
      </trkpt>
      <trkpt lat="44.41677" lon="1.01244">
        <ele>200.997498</ele>
        <time>2019-08-17T12:26:08Z</time>
      </trkpt>
      <trkpt lat="44.41681" lon="1.01244">
        <ele>201.336319</ele>
        <time>2019-08-17T12:26:09Z</time>
      </trkpt>
      <trkpt lat="44.41685" lon="1.01244">
        <ele>201.680298</ele>
        <time>2019-08-17T12:26:10Z</time>
      </trkpt>
      <trkpt lat="44.41689" lon="1.01244">
        <ele>202.028244</ele>
        <time>2019-08-17T12:26:11Z</time>
      </trkpt>
      <trkpt lat="44.41693" lon="1.01245">
        <ele>202.385147</ele>
        <time>2019-08-17T12:26:12Z</time>
      </trkpt>
      <trkpt lat="44.41697" lon="1.01245">
        <ele>202.694946</ele>
        <time>2019-08-17T12:26:13Z</time>
      </trkpt>
      <trkpt lat="44.417" lon="1.01245">
        <ele>203.00946</ele>
        <time>2019-08-17T12:26:14Z</time>
      </trkpt>
      <trkpt lat="44.41705" lon="1.01245">
        <ele>203.32811</ele>
        <time>2019-08-17T12:26:15Z</time>
      </trkpt>
      <trkpt lat="44.41708" lon="1.01245">
        <ele>203.645889</ele>
        <time>2019-08-17T12:26:16Z</time>
      </trkpt>
      <trkpt lat="44.41712" lon="1.01245">
        <ele>203.96199</ele>
        <time>2019-08-17T12:26:17Z</time>
      </trkpt>
      <trkpt lat="44.41716" lon="1.01246">
        <ele>204.273972</ele>
        <time>2019-08-17T12:26:18Z</time>
      </trkpt>
      <trkpt lat="44.41719" lon="1.01246">
        <ele>204.575012</ele>
        <time>2019-08-17T12:26:19Z</time>
      </trkpt>
      <trkpt lat="44.41723" lon="1.01247">
        <ele>204.864944</ele>
        <time>2019-08-17T12:26:20Z</time>
      </trkpt>
      <trkpt lat="44.41727" lon="1.01246">
        <ele>205.1436</ele>
        <time>2019-08-17T12:26:21Z</time>
      </trkpt>
      <trkpt lat="44.4173" lon="1.01246">
        <ele>205.408325</ele>
        <time>2019-08-17T12:26:22Z</time>
      </trkpt>
      <trkpt lat="44.41734" lon="1.01246">
        <ele>205.660477</ele>
        <time>2019-08-17T12:26:23Z</time>
      </trkpt>
      <trkpt lat="44.41738" lon="1.01245">
        <ele>205.901443</ele>
        <time>2019-08-17T12:26:24Z</time>
      </trkpt>
      <trkpt lat="44.41741" lon="1.01244">
        <ele>206.140137</ele>
        <time>2019-08-17T12:26:25Z</time>
      </trkpt>
      <trkpt lat="44.41745" lon="1.01244">
        <ele>206.376465</ele>
        <time>2019-08-17T12:26:26Z</time>
      </trkpt>
      <trkpt lat="44.41748" lon="1.01243">
        <ele>206.610336</ele>
        <time>2019-08-17T12:26:27Z</time>
      </trkpt>
      <trkpt lat="44.41752" lon="1.01243">
        <ele>206.846436</ele>
        <time>2019-08-17T12:26:28Z</time>
      </trkpt>
      <trkpt lat="44.41756" lon="1.01242">
        <ele>207.081787</ele>
        <time>2019-08-17T12:26:29Z</time>
      </trkpt>
      <trkpt lat="44.41759" lon="1.01242">
        <ele>207.315811</ele>
        <time>2019-08-17T12:26:30Z</time>
      </trkpt>
      <trkpt lat="44.41763" lon="1.01241">
        <ele>207.548645</ele>
        <time>2019-08-17T12:26:31Z</time>
      </trkpt>
      <trkpt lat="44.41766" lon="1.01241">
        <ele>207.780701</ele>
        <time>2019-08-17T12:26:32Z</time>
      </trkpt>
      <trkpt lat="44.4177" lon="1.01242">
        <ele>208.009949</ele>
        <time>2019-08-17T12:26:33Z</time>
      </trkpt>
      <trkpt lat="44.41774" lon="1.01243">
        <ele>208.237289</ele>
        <time>2019-08-17T12:26:34Z</time>
      </trkpt>
      <trkpt lat="44.41777" lon="1.01244">
        <ele>208.237289</ele>
        <time>2019-08-17T12:26:35Z</time>
      </trkpt>
      <trkpt lat="44.41781" lon="1.01245">
        <ele>208.464966</ele>
        <time>2019-08-17T12:26:36Z</time>
      </trkpt>
      <trkpt lat="44.41784" lon="1.01246">
        <ele>208.692444</ele>
        <time>2019-08-17T12:26:37Z</time>
      </trkpt>
      <trkpt lat="44.41788" lon="1.01247">
        <ele>208.943176</ele>
        <time>2019-08-17T12:26:38Z</time>
      </trkpt>
      <trkpt lat="44.41792" lon="1.01249">
        <ele>209.179794</ele>
        <time>2019-08-17T12:26:39Z</time>
      </trkpt>
      <trkpt lat="44.41795" lon="1.0125">
        <ele>209.404907</ele>
        <time>2019-08-17T12:26:40Z</time>
      </trkpt>
      <trkpt lat="44.41798" lon="1.01251">
        <ele>209.617996</ele>
        <time>2019-08-17T12:26:41Z</time>
      </trkpt>
      <trkpt lat="44.41802" lon="1.01251">
        <ele>209.82019</ele>
        <time>2019-08-17T12:26:42Z</time>
      </trkpt>
      <trkpt lat="44.41806" lon="1.01252">
        <ele>210.008591</ele>
        <time>2019-08-17T12:26:43Z</time>
      </trkpt>
      <trkpt lat="44.4181" lon="1.01253">
        <ele>210.159134</ele>
        <time>2019-08-17T12:26:44Z</time>
      </trkpt>
      <trkpt lat="44.41813" lon="1.01254">
        <ele>210.312134</ele>
        <time>2019-08-17T12:26:45Z</time>
      </trkpt>
      <trkpt lat="44.41817" lon="1.01254">
        <ele>210.465897</ele>
        <time>2019-08-17T12:26:46Z</time>
      </trkpt>
      <trkpt lat="44.41821" lon="1.01256">
        <ele>210.620605</ele>
        <time>2019-08-17T12:26:47Z</time>
      </trkpt>
      <trkpt lat="44.41825" lon="1.01257">
        <ele>210.773575</ele>
        <time>2019-08-17T12:26:48Z</time>
      </trkpt>
      <trkpt lat="44.41829" lon="1.01258">
        <ele>210.928543</ele>
        <time>2019-08-17T12:26:49Z</time>
      </trkpt>
      <trkpt lat="44.41834" lon="1.01259">
        <ele>211.090469</ele>
        <time>2019-08-17T12:26:50Z</time>
      </trkpt>
      <trkpt lat="44.41839" lon="1.0126">
        <ele>211.256607</ele>
        <time>2019-08-17T12:26:51Z</time>
      </trkpt>
      <trkpt lat="44.41842" lon="1.01262">
        <ele>211.429184</ele>
        <time>2019-08-17T12:26:52Z</time>
      </trkpt>
      <trkpt lat="44.41846" lon="1.01265">
        <ele>211.609055</ele>
        <time>2019-08-17T12:26:53Z</time>
      </trkpt>
      <trkpt lat="44.4185" lon="1.01268">
        <ele>211.798233</ele>
        <time>2019-08-17T12:26:54Z</time>
      </trkpt>
      <trkpt lat="44.41854" lon="1.01272">
        <ele>211.798233</ele>
        <time>2019-08-17T12:26:55Z</time>
      </trkpt>
      <trkpt lat="44.41858" lon="1.01276">
        <ele>211.991714</ele>
        <time>2019-08-17T12:26:56Z</time>
      </trkpt>
      <trkpt lat="44.41862" lon="1.01279">
        <ele>212.175537</ele>
        <time>2019-08-17T12:26:57Z</time>
      </trkpt>
      <trkpt lat="44.41867" lon="1.01283">
        <ele>212.381363</ele>
        <time>2019-08-17T12:26:58Z</time>
      </trkpt>
      <trkpt lat="44.41871" lon="1.01286">
        <ele>212.58342</ele>
        <time>2019-08-17T12:26:59Z</time>
      </trkpt>
      <trkpt lat="44.41875" lon="1.01289">
        <ele>212.781006</ele>
        <time>2019-08-17T12:27:00Z</time>
      </trkpt>
      <trkpt lat="44.4188" lon="1.01292">
        <ele>212.966476</ele>
        <time>2019-08-17T12:27:01Z</time>
      </trkpt>
      <trkpt lat="44.41884" lon="1.01294">
        <ele>213.138596</ele>
        <time>2019-08-17T12:27:02Z</time>
      </trkpt>
      <trkpt lat="44.41888" lon="1.01296">
        <ele>213.307358</ele>
        <time>2019-08-17T12:27:03Z</time>
      </trkpt>
      <trkpt lat="44.41893" lon="1.01299">
        <ele>213.43988</ele>
        <time>2019-08-17T12:27:04Z</time>
      </trkpt>
      <trkpt lat="44.41897" lon="1.01301">
        <ele>213.560471</ele>
        <time>2019-08-17T12:27:05Z</time>
      </trkpt>
      <trkpt lat="44.41901" lon="1.01304">
        <ele>213.668289</ele>
        <time>2019-08-17T12:27:06Z</time>
      </trkpt>
      <trkpt lat="44.41906" lon="1.01307">
        <ele>213.770676</ele>
        <time>2019-08-17T12:27:07Z</time>
      </trkpt>
      <trkpt lat="44.41911" lon="1.01309">
        <ele>213.872147</ele>
        <time>2019-08-17T12:27:08Z</time>
      </trkpt>
      <trkpt lat="44.41915" lon="1.01312">
        <ele>213.972824</ele>
        <time>2019-08-17T12:27:09Z</time>
      </trkpt>
      <trkpt lat="44.4192" lon="1.01315">
        <ele>214.073563</ele>
        <time>2019-08-17T12:27:10Z</time>
      </trkpt>
      <trkpt lat="44.41924" lon="1.01318">
        <ele>214.1745</ele>
        <time>2019-08-17T12:27:11Z</time>
      </trkpt>
      <trkpt lat="44.41929" lon="1.01321">
        <ele>214.271057</ele>
        <time>2019-08-17T12:27:12Z</time>
      </trkpt>
      <trkpt lat="44.41933" lon="1.01324">
        <ele>214.363708</ele>
        <time>2019-08-17T12:27:13Z</time>
      </trkpt>
      <trkpt lat="44.41938" lon="1.01328">
        <ele>214.453064</ele>
        <time>2019-08-17T12:27:14Z</time>
      </trkpt>
      <trkpt lat="44.41943" lon="1.01331">
        <ele>214.541153</ele>
        <time>2019-08-17T12:27:15Z</time>
      </trkpt>
      <trkpt lat="44.41947" lon="1.01335">
        <ele>214.629044</ele>
        <time>2019-08-17T12:27:16Z</time>
      </trkpt>
      <trkpt lat="44.41952" lon="1.01338">
        <ele>214.719009</ele>
        <time>2019-08-17T12:27:17Z</time>
      </trkpt>
      <trkpt lat="44.41957" lon="1.01341">
        <ele>214.818039</ele>
        <time>2019-08-17T12:27:18Z</time>
      </trkpt>
      <trkpt lat="44.41962" lon="1.01344">
        <ele>214.925858</ele>
        <time>2019-08-17T12:27:19Z</time>
      </trkpt>
      <trkpt lat="44.41966" lon="1.01348">
        <ele>215.042343</ele>
        <time>2019-08-17T12:27:20Z</time>
      </trkpt>
      <trkpt lat="44.41971" lon="1.01351">
        <ele>215.165604</ele>
        <time>2019-08-17T12:27:21Z</time>
      </trkpt>
      <trkpt lat="44.41976" lon="1.01355">
        <ele>215.296326</ele>
        <time>2019-08-17T12:27:22Z</time>
      </trkpt>
      <trkpt lat="44.41981" lon="1.01358">
        <ele>215.433426</ele>
        <time>2019-08-17T12:27:23Z</time>
      </trkpt>
      <trkpt lat="44.41985" lon="1.01362">
        <ele>215.566879</ele>
        <time>2019-08-17T12:27:24Z</time>
      </trkpt>
      <trkpt lat="44.4199" lon="1.01365">
        <ele>215.682419</ele>
        <time>2019-08-17T12:27:25Z</time>
      </trkpt>
      <trkpt lat="44.41995" lon="1.01369">
        <ele>215.682419</ele>
        <time>2019-08-17T12:27:26Z</time>
      </trkpt>
      <trkpt lat="44.41999" lon="1.01373">
        <ele>215.761108</ele>
        <time>2019-08-17T12:27:27Z</time>
      </trkpt>
      <trkpt lat="44.42004" lon="1.01377">
        <ele>215.812012</ele>
        <time>2019-08-17T12:27:28Z</time>
      </trkpt>
      <trkpt lat="44.42009" lon="1.01381">
        <ele>215.83519</ele>
        <time>2019-08-17T12:27:29Z</time>
      </trkpt>
      <trkpt lat="44.42013" lon="1.01385">
        <ele>215.83519</ele>
        <time>2019-08-17T12:27:30Z</time>
      </trkpt>
      <trkpt lat="44.42018" lon="1.01388">
        <ele>215.83519</ele>
        <time>2019-08-17T12:27:31Z</time>
      </trkpt>
      <trkpt lat="44.42022" lon="1.01392">
        <ele>215.83519</ele>
        <time>2019-08-17T12:27:32Z</time>
      </trkpt>
      <trkpt lat="44.42027" lon="1.01395">
        <ele>215.830856</ele>
        <time>2019-08-17T12:27:33Z</time>
      </trkpt>
      <trkpt lat="44.42031" lon="1.01399">
        <ele>215.810623</ele>
        <time>2019-08-17T12:27:34Z</time>
      </trkpt>
      <trkpt lat="44.42035" lon="1.01402">
        <ele>215.789551</ele>
        <time>2019-08-17T12:27:35Z</time>
      </trkpt>
      <trkpt lat="44.4204" lon="1.01406">
        <ele>215.78717</ele>
        <time>2019-08-17T12:27:36Z</time>
      </trkpt>
      <trkpt lat="44.42044" lon="1.01409">
        <ele>215.78717</ele>
        <time>2019-08-17T12:27:37Z</time>
      </trkpt>
      <trkpt lat="44.42049" lon="1.01412">
        <ele>215.78717</ele>
        <time>2019-08-17T12:27:38Z</time>
      </trkpt>
      <trkpt lat="44.42054" lon="1.01415">
        <ele>215.794754</ele>
        <time>2019-08-17T12:27:39Z</time>
      </trkpt>
      <trkpt lat="44.42059" lon="1.01418">
        <ele>215.791946</ele>
        <time>2019-08-17T12:27:40Z</time>
      </trkpt>
      <trkpt lat="44.42064" lon="1.01421">
        <ele>215.790573</ele>
        <time>2019-08-17T12:27:41Z</time>
      </trkpt>
      <trkpt lat="44.42069" lon="1.01424">
        <ele>215.790451</ele>
        <time>2019-08-17T12:27:42Z</time>
      </trkpt>
      <trkpt lat="44.42074" lon="1.01426">
        <ele>215.771606</ele>
        <time>2019-08-17T12:27:43Z</time>
      </trkpt>
      <trkpt lat="44.42079" lon="1.01429">
        <ele>215.727478</ele>
        <time>2019-08-17T12:27:44Z</time>
      </trkpt>
      <trkpt lat="44.42084" lon="1.01432">
        <ele>215.655151</ele>
        <time>2019-08-17T12:27:45Z</time>
      </trkpt>
      <trkpt lat="44.42088" lon="1.01436">
        <ele>215.554398</ele>
        <time>2019-08-17T12:27:46Z</time>
      </trkpt>
      <trkpt lat="44.42089" lon="1.01443">
        <ele>215.424637</ele>
        <time>2019-08-17T12:27:47Z</time>
      </trkpt>
      <trkpt lat="44.42089" lon="1.0145">
        <ele>215.286133</ele>
        <time>2019-08-17T12:27:48Z</time>
      </trkpt>
      <trkpt lat="44.42087" lon="1.01456">
        <ele>215.286133</ele>
        <time>2019-08-17T12:27:49Z</time>
      </trkpt>
      <trkpt lat="44.42085" lon="1.01464">
        <ele>215.150223</ele>
        <time>2019-08-17T12:27:50Z</time>
      </trkpt>
      <trkpt lat="44.42083" lon="1.01471">
        <ele>215.047531</ele>
        <time>2019-08-17T12:27:51Z</time>
      </trkpt>
      <trkpt lat="44.42081" lon="1.01479">
        <ele>214.980301</ele>
        <time>2019-08-17T12:27:52Z</time>
      </trkpt>
      <trkpt lat="44.42079" lon="1.01486">
        <ele>214.980301</ele>
        <time>2019-08-17T12:27:53Z</time>
      </trkpt>
      <trkpt lat="44.42077" lon="1.01494">
        <ele>214.958496</ele>
        <time>2019-08-17T12:27:54Z</time>
      </trkpt>
      <trkpt lat="44.42074" lon="1.01502">
        <ele>214.951248</ele>
        <time>2019-08-17T12:27:55Z</time>
      </trkpt>
      <trkpt lat="44.42072" lon="1.01511">
        <ele>214.951248</ele>
        <time>2019-08-17T12:27:56Z</time>
      </trkpt>
      <trkpt lat="44.42069" lon="1.0152">
        <ele>214.928635</ele>
        <time>2019-08-17T12:27:57Z</time>
      </trkpt>
      <trkpt lat="44.42066" lon="1.01529">
        <ele>214.903152</ele>
        <time>2019-08-17T12:27:58Z</time>
      </trkpt>
      <trkpt lat="44.42063" lon="1.01538">
        <ele>214.903152</ele>
        <time>2019-08-17T12:27:59Z</time>
      </trkpt>
      <trkpt lat="44.4206" lon="1.01548">
        <ele>214.885422</ele>
        <time>2019-08-17T12:28:00Z</time>
      </trkpt>
      <trkpt lat="44.42057" lon="1.01557">
        <ele>214.880371</ele>
        <time>2019-08-17T12:28:01Z</time>
      </trkpt>
      <trkpt lat="44.42056" lon="1.01566">
        <ele>214.880371</ele>
        <time>2019-08-17T12:28:02Z</time>
      </trkpt>
      <trkpt lat="44.42056" lon="1.01575">
        <ele>214.880371</ele>
        <time>2019-08-17T12:28:03Z</time>
      </trkpt>
      <trkpt lat="44.42058" lon="1.01583">
        <ele>214.863449</ele>
        <time>2019-08-17T12:28:04Z</time>
      </trkpt>
      <trkpt lat="44.4206" lon="1.01591">
        <ele>214.820801</ele>
        <time>2019-08-17T12:28:05Z</time>
      </trkpt>
      <trkpt lat="44.42062" lon="1.01598">
        <ele>214.686035</ele>
        <time>2019-08-17T12:28:06Z</time>
      </trkpt>
      <trkpt lat="44.42063" lon="1.01605">
        <ele>214.686035</ele>
        <time>2019-08-17T12:28:07Z</time>
      </trkpt>
      <trkpt lat="44.42064" lon="1.0161">
        <ele>214.508301</ele>
        <time>2019-08-17T12:28:08Z</time>
      </trkpt>
      <trkpt lat="44.42064" lon="1.01614">
        <ele>214.290359</ele>
        <time>2019-08-17T12:28:09Z</time>
      </trkpt>
      <trkpt lat="44.42065" lon="1.01616">
        <ele>214.290359</ele>
        <time>2019-08-17T12:28:10Z</time>
      </trkpt>
      <trkpt lat="44.42066" lon="1.01616">
        <ele>214.008469</ele>
        <time>2019-08-17T12:28:11Z</time>
      </trkpt>
      <trkpt lat="44.42066" lon="1.01614">
        <ele>213.706863</ele>
        <time>2019-08-17T12:28:12Z</time>
      </trkpt>
      <trkpt lat="44.42066" lon="1.01612">
        <ele>213.387207</ele>
        <time>2019-08-17T12:28:13Z</time>
      </trkpt>
      <trkpt lat="44.42067" lon="1.01609">
        <ele>213.161301</ele>
        <time>2019-08-17T12:28:14Z</time>
      </trkpt>
      <trkpt lat="44.42067" lon="1.01605">
        <ele>212.996094</ele>
        <time>2019-08-17T12:28:15Z</time>
      </trkpt>
      <trkpt lat="44.4207" lon="1.01604">
        <ele>212.996094</ele>
        <time>2019-08-17T12:28:16Z</time>
      </trkpt>
      <trkpt lat="44.42073" lon="1.01604">
        <ele>212.885254</ele>
        <time>2019-08-17T12:28:17Z</time>
      </trkpt>
      <trkpt lat="44.42076" lon="1.01604">
        <ele>212.839188</ele>
        <time>2019-08-17T12:28:18Z</time>
      </trkpt>
      <trkpt lat="44.4208" lon="1.01605">
        <ele>212.805176</ele>
        <time>2019-08-17T12:28:19Z</time>
      </trkpt>
      <trkpt lat="44.42084" lon="1.01605">
        <ele>212.771973</ele>
        <time>2019-08-17T12:28:20Z</time>
      </trkpt>
      <trkpt lat="44.42088" lon="1.01605">
        <ele>212.740402</ele>
        <time>2019-08-17T12:28:21Z</time>
      </trkpt>
      <trkpt lat="44.42092" lon="1.01606">
        <ele>212.721024</ele>
        <time>2019-08-17T12:28:22Z</time>
      </trkpt>
      <trkpt lat="44.42096" lon="1.01608">
        <ele>212.687012</ele>
        <time>2019-08-17T12:28:23Z</time>
      </trkpt>
      <trkpt lat="44.42101" lon="1.01608">
        <ele>212.626297</ele>
        <time>2019-08-17T12:28:24Z</time>
      </trkpt>
      <trkpt lat="44.42105" lon="1.01608">
        <ele>212.527832</ele>
        <time>2019-08-17T12:28:25Z</time>
      </trkpt>
      <trkpt lat="44.4211" lon="1.01608">
        <ele>212.396805</ele>
        <time>2019-08-17T12:28:26Z</time>
      </trkpt>
      <trkpt lat="44.42114" lon="1.01609">
        <ele>212.259277</ele>
        <time>2019-08-17T12:28:27Z</time>
      </trkpt>
      <trkpt lat="44.42118" lon="1.01609">
        <ele>212.120117</ele>
        <time>2019-08-17T12:28:28Z</time>
      </trkpt>
      <trkpt lat="44.42123" lon="1.0161">
        <ele>211.977859</ele>
        <time>2019-08-17T12:28:29Z</time>
      </trkpt>
      <trkpt lat="44.42128" lon="1.0161">
        <ele>211.834793</ele>
        <time>2019-08-17T12:28:30Z</time>
      </trkpt>
      <trkpt lat="44.42133" lon="1.0161">
        <ele>211.682938</ele>
        <time>2019-08-17T12:28:31Z</time>
      </trkpt>
      <trkpt lat="44.42138" lon="1.0161">
        <ele>211.508469</ele>
        <time>2019-08-17T12:28:32Z</time>
      </trkpt>
      <trkpt lat="44.42143" lon="1.01609">
        <ele>211.304199</ele>
        <time>2019-08-17T12:28:33Z</time>
      </trkpt>
      <trkpt lat="44.42149" lon="1.01608">
        <ele>211.072433</ele>
        <time>2019-08-17T12:28:34Z</time>
      </trkpt>
      <trkpt lat="44.42153" lon="1.01607">
        <ele>210.816406</ele>
        <time>2019-08-17T12:28:35Z</time>
      </trkpt>
      <trkpt lat="44.42159" lon="1.01605">
        <ele>210.537766</ele>
        <time>2019-08-17T12:28:36Z</time>
      </trkpt>
      <trkpt lat="44.42163" lon="1.01604">
        <ele>210.249191</ele>
        <time>2019-08-17T12:28:37Z</time>
      </trkpt>
      <trkpt lat="44.42167" lon="1.01602">
        <ele>209.96875</ele>
        <time>2019-08-17T12:28:38Z</time>
      </trkpt>
      <trkpt lat="44.42172" lon="1.016">
        <ele>209.700851</ele>
        <time>2019-08-17T12:28:39Z</time>
      </trkpt>
      <trkpt lat="44.42176" lon="1.01599">
        <ele>209.446777</ele>
        <time>2019-08-17T12:28:40Z</time>
      </trkpt>
      <trkpt lat="44.4218" lon="1.01598">
        <ele>209.204102</ele>
        <time>2019-08-17T12:28:41Z</time>
      </trkpt>
      <trkpt lat="44.42185" lon="1.01597">
        <ele>208.972</ele>
        <time>2019-08-17T12:28:42Z</time>
      </trkpt>
      <trkpt lat="44.42191" lon="1.01596">
        <ele>208.74675</ele>
        <time>2019-08-17T12:28:43Z</time>
      </trkpt>
      <trkpt lat="44.42197" lon="1.01596">
        <ele>208.528</ele>
        <time>2019-08-17T12:28:44Z</time>
      </trkpt>
      <trkpt lat="44.42203" lon="1.01595">
        <ele>208.528</ele>
        <time>2019-08-17T12:28:45Z</time>
      </trkpt>
      <trkpt lat="44.42209" lon="1.01593">
        <ele>208.308105</ele>
        <time>2019-08-17T12:28:46Z</time>
      </trkpt>
      <trkpt lat="44.42216" lon="1.01589">
        <ele>208.072754</ele>
        <time>2019-08-17T12:28:47Z</time>
      </trkpt>
      <trkpt lat="44.42222" lon="1.01585">
        <ele>207.762863</ele>
        <time>2019-08-17T12:28:48Z</time>
      </trkpt>
      <trkpt lat="44.42229" lon="1.01581">
        <ele>207.435715</ele>
        <time>2019-08-17T12:28:49Z</time>
      </trkpt>
      <trkpt lat="44.42236" lon="1.01577">
        <ele>207.435715</ele>
        <time>2019-08-17T12:28:50Z</time>
      </trkpt>
      <trkpt lat="44.42242" lon="1.01575">
        <ele>207.097656</ele>
        <time>2019-08-17T12:28:51Z</time>
      </trkpt>
      <trkpt lat="44.42249" lon="1.01572">
        <ele>206.752441</ele>
        <time>2019-08-17T12:28:52Z</time>
      </trkpt>
      <trkpt lat="44.42254" lon="1.01568">
        <ele>206.356766</ele>
        <time>2019-08-17T12:28:53Z</time>
      </trkpt>
      <trkpt lat="44.42259" lon="1.01562">
        <ele>205.95784</ele>
        <time>2019-08-17T12:28:54Z</time>
      </trkpt>
      <trkpt lat="44.42263" lon="1.01557">
        <ele>205.624512</ele>
        <time>2019-08-17T12:28:55Z</time>
      </trkpt>
      <trkpt lat="44.42267" lon="1.01551">
        <ele>205.624512</ele>
        <time>2019-08-17T12:28:56Z</time>
      </trkpt>
      <trkpt lat="44.42271" lon="1.01546">
        <ele>205.313309</ele>
        <time>2019-08-17T12:28:57Z</time>
      </trkpt>
      <trkpt lat="44.42276" lon="1.0154">
        <ele>205.040527</ele>
        <time>2019-08-17T12:28:58Z</time>
      </trkpt>
      <trkpt lat="44.42279" lon="1.01534">
        <ele>204.80217</ele>
        <time>2019-08-17T12:28:59Z</time>
      </trkpt>
      <trkpt lat="44.42283" lon="1.01529">
        <ele>204.653076</ele>
        <time>2019-08-17T12:29:00Z</time>
      </trkpt>
      <trkpt lat="44.42287" lon="1.01524">
        <ele>204.557297</ele>
        <time>2019-08-17T12:29:01Z</time>
      </trkpt>
      <trkpt lat="44.42291" lon="1.01519">
        <ele>204.504471</ele>
        <time>2019-08-17T12:29:02Z</time>
      </trkpt>
      <trkpt lat="44.42294" lon="1.01514">
        <ele>204.479736</ele>
        <time>2019-08-17T12:29:03Z</time>
      </trkpt>
      <trkpt lat="44.42297" lon="1.01509">
        <ele>204.463135</ele>
        <time>2019-08-17T12:29:04Z</time>
      </trkpt>
      <trkpt lat="44.42299" lon="1.01503">
        <ele>204.450119</ele>
        <time>2019-08-17T12:29:05Z</time>
      </trkpt>
      <trkpt lat="44.423" lon="1.01497">
        <ele>204.450119</ele>
        <time>2019-08-17T12:29:06Z</time>
      </trkpt>
      <trkpt lat="44.423" lon="1.0149">
        <ele>204.450119</ele>
        <time>2019-08-17T12:29:07Z</time>
      </trkpt>
      <trkpt lat="44.42299" lon="1.01484">
        <ele>204.450119</ele>
        <time>2019-08-17T12:29:08Z</time>
      </trkpt>
      <trkpt lat="44.42299" lon="1.01477">
        <ele>204.454269</ele>
        <time>2019-08-17T12:29:09Z</time>
      </trkpt>
      <trkpt lat="44.42298" lon="1.0147">
        <ele>204.482986</ele>
        <time>2019-08-17T12:29:10Z</time>
      </trkpt>
      <trkpt lat="44.42296" lon="1.01464">
        <ele>204.482986</ele>
        <time>2019-08-17T12:29:11Z</time>
      </trkpt>
      <trkpt lat="44.42296" lon="1.01457">
        <ele>204.573975</ele>
        <time>2019-08-17T12:29:12Z</time>
      </trkpt>
      <trkpt lat="44.42295" lon="1.01451">
        <ele>204.689621</ele>
        <time>2019-08-17T12:29:13Z</time>
      </trkpt>
      <trkpt lat="44.42294" lon="1.01444">
        <ele>204.856445</ele>
        <time>2019-08-17T12:29:14Z</time>
      </trkpt>
      <trkpt lat="44.42293" lon="1.01438">
        <ele>205.051437</ele>
        <time>2019-08-17T12:29:15Z</time>
      </trkpt>
      <trkpt lat="44.42292" lon="1.01431">
        <ele>205.253098</ele>
        <time>2019-08-17T12:29:16Z</time>
      </trkpt>
      <trkpt lat="44.42291" lon="1.01425">
        <ele>205.454758</ele>
        <time>2019-08-17T12:29:17Z</time>
      </trkpt>
      <trkpt lat="44.42291" lon="1.01419">
        <ele>205.613358</ele>
        <time>2019-08-17T12:29:18Z</time>
      </trkpt>
      <trkpt lat="44.4229" lon="1.01413">
        <ele>205.772781</ele>
        <time>2019-08-17T12:29:19Z</time>
      </trkpt>
      <trkpt lat="44.42289" lon="1.01406">
        <ele>205.903809</ele>
        <time>2019-08-17T12:29:20Z</time>
      </trkpt>
      <trkpt lat="44.42287" lon="1.014">
        <ele>206.030762</ele>
        <time>2019-08-17T12:29:21Z</time>
      </trkpt>
      <trkpt lat="44.42286" lon="1.01394">
        <ele>206.158524</ele>
        <time>2019-08-17T12:29:22Z</time>
      </trkpt>
      <trkpt lat="44.42284" lon="1.01388">
        <ele>206.158524</ele>
        <time>2019-08-17T12:29:23Z</time>
      </trkpt>
      <trkpt lat="44.42283" lon="1.01381">
        <ele>206.287186</ele>
        <time>2019-08-17T12:29:24Z</time>
      </trkpt>
      <trkpt lat="44.42281" lon="1.01375">
        <ele>206.420334</ele>
        <time>2019-08-17T12:29:25Z</time>
      </trkpt>
      <trkpt lat="44.42279" lon="1.01369">
        <ele>206.583252</ele>
        <time>2019-08-17T12:29:26Z</time>
      </trkpt>
      <trkpt lat="44.42278" lon="1.01362">
        <ele>206.751221</ele>
        <time>2019-08-17T12:29:27Z</time>
      </trkpt>
      <trkpt lat="44.42276" lon="1.01356">
        <ele>206.926926</ele>
        <time>2019-08-17T12:29:28Z</time>
      </trkpt>
      <trkpt lat="44.42275" lon="1.0135">
        <ele>207.107254</ele>
        <time>2019-08-17T12:29:29Z</time>
      </trkpt>
      <trkpt lat="44.42273" lon="1.01344">
        <ele>207.29126</ele>
        <time>2019-08-17T12:29:30Z</time>
      </trkpt>
      <trkpt lat="44.42271" lon="1.01339">
        <ele>207.476074</ele>
        <time>2019-08-17T12:29:31Z</time>
      </trkpt>
      <trkpt lat="44.4227" lon="1.01333">
        <ele>207.476074</ele>
        <time>2019-08-17T12:29:32Z</time>
      </trkpt>
      <trkpt lat="44.42268" lon="1.01327">
        <ele>207.566788</ele>
        <time>2019-08-17T12:29:33Z</time>
      </trkpt>
      <trkpt lat="44.42267" lon="1.01322">
        <ele>207.602417</ele>
        <time>2019-08-17T12:29:34Z</time>
      </trkpt>
      <trkpt lat="44.42266" lon="1.01316">
        <ele>207.602417</ele>
        <time>2019-08-17T12:29:35Z</time>
      </trkpt>
      <trkpt lat="44.42264" lon="1.01311">
        <ele>207.602417</ele>
        <time>2019-08-17T12:29:36Z</time>
      </trkpt>
      <trkpt lat="44.42263" lon="1.01306">
        <ele>207.602417</ele>
        <time>2019-08-17T12:29:37Z</time>
      </trkpt>
      <trkpt lat="44.42262" lon="1.013">
        <ele>207.55188</ele>
        <time>2019-08-17T12:29:38Z</time>
      </trkpt>
      <trkpt lat="44.4226" lon="1.01295">
        <ele>207.446594</ele>
        <time>2019-08-17T12:29:39Z</time>
      </trkpt>
      <trkpt lat="44.4226" lon="1.0129">
        <ele>207.446594</ele>
        <time>2019-08-17T12:29:40Z</time>
      </trkpt>
      <trkpt lat="44.42259" lon="1.01285">
        <ele>207.287857</ele>
        <time>2019-08-17T12:29:41Z</time>
      </trkpt>
      <trkpt lat="44.42258" lon="1.0128">
        <ele>207.073486</ele>
        <time>2019-08-17T12:29:42Z</time>
      </trkpt>
      <trkpt lat="44.42257" lon="1.01275">
        <ele>207.073486</ele>
        <time>2019-08-17T12:29:43Z</time>
      </trkpt>
      <trkpt lat="44.42256" lon="1.01269">
        <ele>206.83931</ele>
        <time>2019-08-17T12:29:44Z</time>
      </trkpt>
      <trkpt lat="44.42255" lon="1.01264">
        <ele>206.603317</ele>
        <time>2019-08-17T12:29:45Z</time>
      </trkpt>
      <trkpt lat="44.42254" lon="1.01258">
        <ele>206.603317</ele>
        <time>2019-08-17T12:29:46Z</time>
      </trkpt>
      <trkpt lat="44.42252" lon="1.01253">
        <ele>206.361374</ele>
        <time>2019-08-17T12:29:47Z</time>
      </trkpt>
      <trkpt lat="44.4225" lon="1.01248">
        <ele>206.113968</ele>
        <time>2019-08-17T12:29:48Z</time>
      </trkpt>
      <trkpt lat="44.42249" lon="1.01243">
        <ele>206.113968</ele>
        <time>2019-08-17T12:29:49Z</time>
      </trkpt>
      <trkpt lat="44.42247" lon="1.01237">
        <ele>205.825363</ele>
        <time>2019-08-17T12:29:50Z</time>
      </trkpt>
      <trkpt lat="44.42246" lon="1.01231">
        <ele>205.535507</ele>
        <time>2019-08-17T12:29:51Z</time>
      </trkpt>
      <trkpt lat="44.42245" lon="1.01226">
        <ele>205.250595</ele>
        <time>2019-08-17T12:29:52Z</time>
      </trkpt>
      <trkpt lat="44.42247" lon="1.01222">
        <ele>205.250595</ele>
        <time>2019-08-17T12:29:53Z</time>
      </trkpt>
      <trkpt lat="44.4225" lon="1.0122">
        <ele>204.964523</ele>
        <time>2019-08-17T12:29:54Z</time>
      </trkpt>
      <trkpt lat="44.42254" lon="1.01221">
        <ele>204.709305</ele>
        <time>2019-08-17T12:29:55Z</time>
      </trkpt>
      <trkpt lat="44.42258" lon="1.01223">
        <ele>204.709305</ele>
        <time>2019-08-17T12:29:56Z</time>
      </trkpt>
      <trkpt lat="44.42263" lon="1.01226">
        <ele>204.411118</ele>
        <time>2019-08-17T12:29:57Z</time>
      </trkpt>
      <trkpt lat="44.42269" lon="1.01229">
        <ele>204.149536</ele>
        <time>2019-08-17T12:29:58Z</time>
      </trkpt>
      <trkpt lat="44.42275" lon="1.01232">
        <ele>203.901733</ele>
        <time>2019-08-17T12:29:59Z</time>
      </trkpt>
      <trkpt lat="44.4228" lon="1.01236">
        <ele>203.705246</ele>
        <time>2019-08-17T12:30:00Z</time>
      </trkpt>
      <trkpt lat="44.42286" lon="1.01239">
        <ele>203.536423</ele>
        <time>2019-08-17T12:30:01Z</time>
      </trkpt>
      <trkpt lat="44.42291" lon="1.01244">
        <ele>203.397903</ele>
        <time>2019-08-17T12:30:02Z</time>
      </trkpt>
      <trkpt lat="44.42297" lon="1.01248">
        <ele>203.339584</ele>
        <time>2019-08-17T12:30:03Z</time>
      </trkpt>
      <trkpt lat="44.42304" lon="1.01252">
        <ele>203.315674</ele>
        <time>2019-08-17T12:30:04Z</time>
      </trkpt>
      <trkpt lat="44.42309" lon="1.01256">
        <ele>203.306808</ele>
        <time>2019-08-17T12:30:05Z</time>
      </trkpt>
      <trkpt lat="44.42315" lon="1.01259">
        <ele>203.300949</ele>
        <time>2019-08-17T12:30:06Z</time>
      </trkpt>
      <trkpt lat="44.4232" lon="1.01262">
        <ele>203.292725</ele>
        <time>2019-08-17T12:30:07Z</time>
      </trkpt>
      <trkpt lat="44.42324" lon="1.01264">
        <ele>203.285889</ele>
        <time>2019-08-17T12:30:08Z</time>
      </trkpt>
      <trkpt lat="44.42328" lon="1.01264">
        <ele>203.279053</ele>
        <time>2019-08-17T12:30:09Z</time>
      </trkpt>
      <trkpt lat="44.42331" lon="1.01261">
        <ele>203.271408</ele>
        <time>2019-08-17T12:30:10Z</time>
      </trkpt>
      <trkpt lat="44.42335" lon="1.01255">
        <ele>203.264084</ele>
        <time>2019-08-17T12:30:11Z</time>
      </trkpt>
      <trkpt lat="44.42339" lon="1.01249">
        <ele>203.264084</ele>
        <time>2019-08-17T12:30:12Z</time>
      </trkpt>
      <trkpt lat="44.42342" lon="1.01242">
        <ele>203.242661</ele>
        <time>2019-08-17T12:30:13Z</time>
      </trkpt>
      <trkpt lat="44.42347" lon="1.01236">
        <ele>203.180359</ele>
        <time>2019-08-17T12:30:14Z</time>
      </trkpt>
      <trkpt lat="44.42353" lon="1.0123">
        <ele>203.004288</ele>
        <time>2019-08-17T12:30:15Z</time>
      </trkpt>
      <trkpt lat="44.42359" lon="1.01225">
        <ele>202.774643</ele>
        <time>2019-08-17T12:30:16Z</time>
      </trkpt>
      <trkpt lat="44.42365" lon="1.0122">
        <ele>202.774643</ele>
        <time>2019-08-17T12:30:17Z</time>
      </trkpt>
      <trkpt lat="44.4237" lon="1.01214">
        <ele>202.494247</ele>
        <time>2019-08-17T12:30:18Z</time>
      </trkpt>
      <trkpt lat="44.42377" lon="1.0121">
        <ele>202.164047</ele>
        <time>2019-08-17T12:30:19Z</time>
      </trkpt>
      <trkpt lat="44.42382" lon="1.01205">
        <ele>201.75029</ele>
        <time>2019-08-17T12:30:20Z</time>
      </trkpt>
      <trkpt lat="44.42388" lon="1.012">
        <ele>201.3255</ele>
        <time>2019-08-17T12:30:21Z</time>
      </trkpt>
      <trkpt lat="44.42392" lon="1.01196">
        <ele>200.973511</ele>
        <time>2019-08-17T12:30:22Z</time>
      </trkpt>
      <trkpt lat="44.42397" lon="1.01191">
        <ele>200.642014</ele>
        <time>2019-08-17T12:30:23Z</time>
      </trkpt>
      <trkpt lat="44.424" lon="1.01187">
        <ele>200.330612</ele>
        <time>2019-08-17T12:30:24Z</time>
      </trkpt>
      <trkpt lat="44.42403" lon="1.01182">
        <ele>200.04744</ele>
        <time>2019-08-17T12:30:25Z</time>
      </trkpt>
      <trkpt lat="44.42405" lon="1.01176">
        <ele>199.843796</ele>
        <time>2019-08-17T12:30:26Z</time>
      </trkpt>
      <trkpt lat="44.42408" lon="1.01171">
        <ele>199.669052</ele>
        <time>2019-08-17T12:30:27Z</time>
      </trkpt>
      <trkpt lat="44.4241" lon="1.01166">
        <ele>199.514633</ele>
        <time>2019-08-17T12:30:28Z</time>
      </trkpt>
      <trkpt lat="44.42413" lon="1.01163">
        <ele>199.377243</ele>
        <time>2019-08-17T12:30:29Z</time>
      </trkpt>
      <trkpt lat="44.42416" lon="1.01159">
        <ele>199.256149</ele>
        <time>2019-08-17T12:30:30Z</time>
      </trkpt>
      <trkpt lat="44.42419" lon="1.01156">
        <ele>199.144897</ele>
        <time>2019-08-17T12:30:31Z</time>
      </trkpt>
      <trkpt lat="44.42422" lon="1.01153">
        <ele>199.040405</ele>
        <time>2019-08-17T12:30:32Z</time>
      </trkpt>
      <trkpt lat="44.42425" lon="1.01151">
        <ele>198.944626</ele>
        <time>2019-08-17T12:30:33Z</time>
      </trkpt>
      <trkpt lat="44.42428" lon="1.01148">
        <ele>198.862549</ele>
        <time>2019-08-17T12:30:34Z</time>
      </trkpt>
      <trkpt lat="44.42431" lon="1.01145">
        <ele>198.796921</ele>
        <time>2019-08-17T12:30:35Z</time>
      </trkpt>
      <trkpt lat="44.42434" lon="1.01142">
        <ele>198.748047</ele>
        <time>2019-08-17T12:30:36Z</time>
      </trkpt>
      <trkpt lat="44.42438" lon="1.01139">
        <ele>198.710892</ele>
        <time>2019-08-17T12:30:37Z</time>
      </trkpt>
      <trkpt lat="44.42442" lon="1.01136">
        <ele>198.681473</ele>
        <time>2019-08-17T12:30:38Z</time>
      </trkpt>
      <trkpt lat="44.42445" lon="1.01132">
        <ele>198.658875</ele>
        <time>2019-08-17T12:30:39Z</time>
      </trkpt>
      <trkpt lat="44.42448" lon="1.01129">
        <ele>198.642685</ele>
        <time>2019-08-17T12:30:40Z</time>
      </trkpt>
      <trkpt lat="44.42452" lon="1.01125">
        <ele>198.631088</ele>
        <time>2019-08-17T12:30:41Z</time>
      </trkpt>
      <trkpt lat="44.42455" lon="1.01122">
        <ele>198.62117</ele>
        <time>2019-08-17T12:30:42Z</time>
      </trkpt>
      <trkpt lat="44.42458" lon="1.01118">
        <ele>198.615219</ele>
        <time>2019-08-17T12:30:43Z</time>
      </trkpt>
      <trkpt lat="44.42462" lon="1.01115">
        <ele>198.615219</ele>
        <time>2019-08-17T12:30:44Z</time>
      </trkpt>
      <trkpt lat="44.42465" lon="1.01112">
        <ele>198.615219</ele>
        <time>2019-08-17T12:30:45Z</time>
      </trkpt>
      <trkpt lat="44.42468" lon="1.01109">
        <ele>198.615219</ele>
        <time>2019-08-17T12:30:46Z</time>
      </trkpt>
      <trkpt lat="44.42472" lon="1.01105">
        <ele>198.618896</ele>
        <time>2019-08-17T12:30:47Z</time>
      </trkpt>
      <trkpt lat="44.42475" lon="1.01102">
        <ele>198.633133</ele>
        <time>2019-08-17T12:30:48Z</time>
      </trkpt>
      <trkpt lat="44.42479" lon="1.01098">
        <ele>198.658508</ele>
        <time>2019-08-17T12:30:49Z</time>
      </trkpt>
      <trkpt lat="44.42484" lon="1.01095">
        <ele>198.695999</ele>
        <time>2019-08-17T12:30:50Z</time>
      </trkpt>
      <trkpt lat="44.42487" lon="1.01092">
        <ele>198.748367</ele>
        <time>2019-08-17T12:30:51Z</time>
      </trkpt>
      <trkpt lat="44.42491" lon="1.01089">
        <ele>198.817749</ele>
        <time>2019-08-17T12:30:52Z</time>
      </trkpt>
      <trkpt lat="44.42495" lon="1.01086">
        <ele>198.900024</ele>
        <time>2019-08-17T12:30:53Z</time>
      </trkpt>
      <trkpt lat="44.42499" lon="1.01083">
        <ele>198.995926</ele>
        <time>2019-08-17T12:30:54Z</time>
      </trkpt>
      <trkpt lat="44.42503" lon="1.0108">
        <ele>199.104782</ele>
        <time>2019-08-17T12:30:55Z</time>
      </trkpt>
      <trkpt lat="44.42507" lon="1.01077">
        <ele>199.22554</ele>
        <time>2019-08-17T12:30:56Z</time>
      </trkpt>
      <trkpt lat="44.42511" lon="1.01074">
        <ele>199.360672</ele>
        <time>2019-08-17T12:30:57Z</time>
      </trkpt>
      <trkpt lat="44.42516" lon="1.01072">
        <ele>199.507797</ele>
        <time>2019-08-17T12:30:58Z</time>
      </trkpt>
      <trkpt lat="44.4252" lon="1.0107">
        <ele>199.666443</ele>
        <time>2019-08-17T12:30:59Z</time>
      </trkpt>
      <trkpt lat="44.42524" lon="1.01068">
        <ele>199.835815</ele>
        <time>2019-08-17T12:31:00Z</time>
      </trkpt>
      <trkpt lat="44.42529" lon="1.01067">
        <ele>199.835815</ele>
        <time>2019-08-17T12:31:01Z</time>
      </trkpt>
      <trkpt lat="44.42534" lon="1.01065">
        <ele>200.022888</ele>
        <time>2019-08-17T12:31:02Z</time>
      </trkpt>
      <trkpt lat="44.42537" lon="1.01064">
        <ele>200.225952</ele>
        <time>2019-08-17T12:31:03Z</time>
      </trkpt>
      <trkpt lat="44.42542" lon="1.01063">
        <ele>200.480957</ele>
        <time>2019-08-17T12:31:04Z</time>
      </trkpt>
      <trkpt lat="44.42547" lon="1.01063">
        <ele>200.736893</ele>
        <time>2019-08-17T12:31:05Z</time>
      </trkpt>
      <trkpt lat="44.42551" lon="1.01063">
        <ele>200.992722</ele>
        <time>2019-08-17T12:31:06Z</time>
      </trkpt>
      <trkpt lat="44.42556" lon="1.01064">
        <ele>201.246109</ele>
        <time>2019-08-17T12:31:07Z</time>
      </trkpt>
      <trkpt lat="44.4256" lon="1.01064">
        <ele>201.485535</ele>
        <time>2019-08-17T12:31:08Z</time>
      </trkpt>
      <trkpt lat="44.42565" lon="1.01065">
        <ele>201.708069</ele>
        <time>2019-08-17T12:31:09Z</time>
      </trkpt>
      <trkpt lat="44.4257" lon="1.01066">
        <ele>201.87352</ele>
        <time>2019-08-17T12:31:10Z</time>
      </trkpt>
      <trkpt lat="44.42576" lon="1.01066">
        <ele>202.02919</ele>
        <time>2019-08-17T12:31:11Z</time>
      </trkpt>
      <trkpt lat="44.42581" lon="1.01066">
        <ele>202.175308</ele>
        <time>2019-08-17T12:31:12Z</time>
      </trkpt>
      <trkpt lat="44.42587" lon="1.01065">
        <ele>202.314865</ele>
        <time>2019-08-17T12:31:13Z</time>
      </trkpt>
      <trkpt lat="44.42592" lon="1.01065">
        <ele>202.451584</ele>
        <time>2019-08-17T12:31:14Z</time>
      </trkpt>
      <trkpt lat="44.42597" lon="1.01063">
        <ele>202.594833</ele>
        <time>2019-08-17T12:31:15Z</time>
      </trkpt>
      <trkpt lat="44.42602" lon="1.01061">
        <ele>202.752396</ele>
        <time>2019-08-17T12:31:16Z</time>
      </trkpt>
      <trkpt lat="44.42606" lon="1.01059">
        <ele>202.922897</ele>
        <time>2019-08-17T12:31:17Z</time>
      </trkpt>
      <trkpt lat="44.42611" lon="1.01056">
        <ele>203.112595</ele>
        <time>2019-08-17T12:31:18Z</time>
      </trkpt>
      <trkpt lat="44.42615" lon="1.01053">
        <ele>203.328171</ele>
        <time>2019-08-17T12:31:19Z</time>
      </trkpt>
      <trkpt lat="44.42619" lon="1.01051">
        <ele>203.570679</ele>
        <time>2019-08-17T12:31:20Z</time>
      </trkpt>
      <trkpt lat="44.42624" lon="1.01048">
        <ele>203.835526</ele>
        <time>2019-08-17T12:31:21Z</time>
      </trkpt>
      <trkpt lat="44.42628" lon="1.01045">
        <ele>204.114059</ele>
        <time>2019-08-17T12:31:22Z</time>
      </trkpt>
      <trkpt lat="44.42632" lon="1.01043">
        <ele>204.405472</ele>
        <time>2019-08-17T12:31:23Z</time>
      </trkpt>
      <trkpt lat="44.42635" lon="1.01041">
        <ele>204.699051</ele>
        <time>2019-08-17T12:31:24Z</time>
      </trkpt>
      <trkpt lat="44.4264" lon="1.01039">
        <ele>204.98468</ele>
        <time>2019-08-17T12:31:25Z</time>
      </trkpt>
      <trkpt lat="44.42644" lon="1.01036">
        <ele>205.257629</ele>
        <time>2019-08-17T12:31:26Z</time>
      </trkpt>
      <trkpt lat="44.42648" lon="1.01033">
        <ele>205.513672</ele>
        <time>2019-08-17T12:31:27Z</time>
      </trkpt>
      <trkpt lat="44.42651" lon="1.01031">
        <ele>205.753922</ele>
        <time>2019-08-17T12:31:28Z</time>
      </trkpt>
      <trkpt lat="44.42656" lon="1.01029">
        <ele>205.753922</ele>
        <time>2019-08-17T12:31:29Z</time>
      </trkpt>
      <trkpt lat="44.4266" lon="1.01027">
        <ele>205.982895</ele>
        <time>2019-08-17T12:31:30Z</time>
      </trkpt>
      <trkpt lat="44.42664" lon="1.01025">
        <ele>206.202316</ele>
        <time>2019-08-17T12:31:31Z</time>
      </trkpt>
      <trkpt lat="44.42668" lon="1.01023">
        <ele>206.440018</ele>
        <time>2019-08-17T12:31:32Z</time>
      </trkpt>
      <trkpt lat="44.42673" lon="1.0102">
        <ele>206.667313</ele>
        <time>2019-08-17T12:31:33Z</time>
      </trkpt>
      <trkpt lat="44.42677" lon="1.01017">
        <ele>206.886368</ele>
        <time>2019-08-17T12:31:34Z</time>
      </trkpt>
      <trkpt lat="44.42682" lon="1.01015">
        <ele>207.093552</ele>
        <time>2019-08-17T12:31:35Z</time>
      </trkpt>
      <trkpt lat="44.42686" lon="1.01014">
        <ele>207.287949</ele>
        <time>2019-08-17T12:31:36Z</time>
      </trkpt>
      <trkpt lat="44.4269" lon="1.01013">
        <ele>207.472</ele>
        <time>2019-08-17T12:31:37Z</time>
      </trkpt>
      <trkpt lat="44.42694" lon="1.01015">
        <ele>207.617569</ele>
        <time>2019-08-17T12:31:38Z</time>
      </trkpt>
      <trkpt lat="44.42698" lon="1.01017">
        <ele>207.753067</ele>
        <time>2019-08-17T12:31:39Z</time>
      </trkpt>
      <trkpt lat="44.42702" lon="1.0102">
        <ele>207.873459</ele>
        <time>2019-08-17T12:31:40Z</time>
      </trkpt>
      <trkpt lat="44.42704" lon="1.01024">
        <ele>207.964523</ele>
        <time>2019-08-17T12:31:41Z</time>
      </trkpt>
      <trkpt lat="44.42707" lon="1.01029">
        <ele>208.020264</ele>
        <time>2019-08-17T12:31:42Z</time>
      </trkpt>
      <trkpt lat="44.4271" lon="1.01033">
        <ele>208.020264</ele>
        <time>2019-08-17T12:31:43Z</time>
      </trkpt>
      <trkpt lat="44.42713" lon="1.01038">
        <ele>208.023193</ele>
        <time>2019-08-17T12:31:44Z</time>
      </trkpt>
      <trkpt lat="44.42716" lon="1.01042">
        <ele>208.023193</ele>
        <time>2019-08-17T12:31:45Z</time>
      </trkpt>
      <trkpt lat="44.42719" lon="1.01045">
        <ele>208.023193</ele>
        <time>2019-08-17T12:31:46Z</time>
      </trkpt>
      <trkpt lat="44.42722" lon="1.01049">
        <ele>207.990402</ele>
        <time>2019-08-17T12:31:47Z</time>
      </trkpt>
      <trkpt lat="44.42725" lon="1.01051">
        <ele>207.990402</ele>
        <time>2019-08-17T12:31:48Z</time>
      </trkpt>
      <trkpt lat="44.42729" lon="1.01052">
        <ele>207.92717</ele>
        <time>2019-08-17T12:31:49Z</time>
      </trkpt>
      <trkpt lat="44.42733" lon="1.01053">
        <ele>207.840652</ele>
        <time>2019-08-17T12:31:50Z</time>
      </trkpt>
      <trkpt lat="44.42736" lon="1.01051">
        <ele>207.760086</ele>
        <time>2019-08-17T12:31:51Z</time>
      </trkpt>
      <trkpt lat="44.42741" lon="1.01048">
        <ele>207.710251</ele>
        <time>2019-08-17T12:31:52Z</time>
      </trkpt>
      <trkpt lat="44.42744" lon="1.01045">
        <ele>207.710251</ele>
        <time>2019-08-17T12:31:53Z</time>
      </trkpt>
      <trkpt lat="44.42748" lon="1.01041">
        <ele>207.710251</ele>
        <time>2019-08-17T12:31:54Z</time>
      </trkpt>
      <trkpt lat="44.42752" lon="1.01038">
        <ele>207.710251</ele>
        <time>2019-08-17T12:31:55Z</time>
      </trkpt>
      <trkpt lat="44.42756" lon="1.01034">
        <ele>207.714661</ele>
        <time>2019-08-17T12:31:56Z</time>
      </trkpt>
      <trkpt lat="44.4276" lon="1.01031">
        <ele>207.784241</ele>
        <time>2019-08-17T12:31:57Z</time>
      </trkpt>
      <trkpt lat="44.42764" lon="1.01028">
        <ele>207.889404</ele>
        <time>2019-08-17T12:31:58Z</time>
      </trkpt>
      <trkpt lat="44.42768" lon="1.01024">
        <ele>208.025833</ele>
        <time>2019-08-17T12:31:59Z</time>
      </trkpt>
      <trkpt lat="44.42772" lon="1.01021">
        <ele>208.180405</ele>
        <time>2019-08-17T12:32:00Z</time>
      </trkpt>
      <trkpt lat="44.42777" lon="1.01017">
        <ele>208.333054</ele>
        <time>2019-08-17T12:32:01Z</time>
      </trkpt>
      <trkpt lat="44.42781" lon="1.01013">
        <ele>208.475586</ele>
        <time>2019-08-17T12:32:02Z</time>
      </trkpt>
      <trkpt lat="44.42785" lon="1.0101">
        <ele>208.475586</ele>
        <time>2019-08-17T12:32:03Z</time>
      </trkpt>
      <trkpt lat="44.42789" lon="1.01006">
        <ele>208.580429</ele>
        <time>2019-08-17T12:32:04Z</time>
      </trkpt>
      <trkpt lat="44.42793" lon="1.01002">
        <ele>208.673462</ele>
        <time>2019-08-17T12:32:05Z</time>
      </trkpt>
      <trkpt lat="44.42797" lon="1.00999">
        <ele>208.762405</ele>
        <time>2019-08-17T12:32:06Z</time>
      </trkpt>
      <trkpt lat="44.42801" lon="1.00996">
        <ele>208.837891</ele>
        <time>2019-08-17T12:32:07Z</time>
      </trkpt>
      <trkpt lat="44.42805" lon="1.00994">
        <ele>208.897781</ele>
        <time>2019-08-17T12:32:08Z</time>
      </trkpt>
      <trkpt lat="44.42809" lon="1.00992">
        <ele>208.94136</ele>
        <time>2019-08-17T12:32:09Z</time>
      </trkpt>
      <trkpt lat="44.42813" lon="1.00991">
        <ele>208.969864</ele>
        <time>2019-08-17T12:32:10Z</time>
      </trkpt>
      <trkpt lat="44.42817" lon="1.00992">
        <ele>208.985275</ele>
        <time>2019-08-17T12:32:11Z</time>
      </trkpt>
      <trkpt lat="44.4282" lon="1.00995">
        <ele>208.985275</ele>
        <time>2019-08-17T12:32:12Z</time>
      </trkpt>
      <trkpt lat="44.42822" lon="1.01">
        <ele>208.985275</ele>
        <time>2019-08-17T12:32:13Z</time>
      </trkpt>
      <trkpt lat="44.42823" lon="1.01005">
        <ele>208.986374</ele>
        <time>2019-08-17T12:32:14Z</time>
      </trkpt>
      <trkpt lat="44.42823" lon="1.01012">
        <ele>208.986618</ele>
        <time>2019-08-17T12:32:15Z</time>
      </trkpt>
      <trkpt lat="44.42823" lon="1.01018">
        <ele>208.986618</ele>
        <time>2019-08-17T12:32:16Z</time>
      </trkpt>
      <trkpt lat="44.42824" lon="1.01025">
        <ele>208.986618</ele>
        <time>2019-08-17T12:32:17Z</time>
      </trkpt>
      <trkpt lat="44.42825" lon="1.01031">
        <ele>208.986618</ele>
        <time>2019-08-17T12:32:18Z</time>
      </trkpt>
      <trkpt lat="44.42825" lon="1.01038">
        <ele>208.994812</ele>
        <time>2019-08-17T12:32:19Z</time>
      </trkpt>
      <trkpt lat="44.42826" lon="1.01044">
        <ele>209.024979</ele>
        <time>2019-08-17T12:32:20Z</time>
      </trkpt>
      <trkpt lat="44.42827" lon="1.01051">
        <ele>209.068481</ele>
        <time>2019-08-17T12:32:21Z</time>
      </trkpt>
      <trkpt lat="44.42828" lon="1.01057">
        <ele>209.126053</ele>
        <time>2019-08-17T12:32:22Z</time>
      </trkpt>
      <trkpt lat="44.42829" lon="1.01063">
        <ele>209.126053</ele>
        <time>2019-08-17T12:32:23Z</time>
      </trkpt>
      <trkpt lat="44.4283" lon="1.01069">
        <ele>209.194168</ele>
        <time>2019-08-17T12:32:24Z</time>
      </trkpt>
      <trkpt lat="44.42832" lon="1.01075">
        <ele>209.271866</ele>
        <time>2019-08-17T12:32:25Z</time>
      </trkpt>
      <trkpt lat="44.42833" lon="1.01081">
        <ele>209.370667</ele>
        <time>2019-08-17T12:32:26Z</time>
      </trkpt>
      <trkpt lat="44.42835" lon="1.01086">
        <ele>209.466354</ele>
        <time>2019-08-17T12:32:27Z</time>
      </trkpt>
      <trkpt lat="44.42837" lon="1.01092">
        <ele>209.574585</ele>
        <time>2019-08-17T12:32:28Z</time>
      </trkpt>
      <trkpt lat="44.42839" lon="1.01097">
        <ele>209.574585</ele>
        <time>2019-08-17T12:32:29Z</time>
      </trkpt>
      <trkpt lat="44.42841" lon="1.01103">
        <ele>209.727951</ele>
        <time>2019-08-17T12:32:30Z</time>
      </trkpt>
      <trkpt lat="44.42843" lon="1.01108">
        <ele>209.924988</ele>
        <time>2019-08-17T12:32:31Z</time>
      </trkpt>
      <trkpt lat="44.42846" lon="1.01113">
        <ele>210.224075</ele>
        <time>2019-08-17T12:32:32Z</time>
      </trkpt>
      <trkpt lat="44.42848" lon="1.01118">
        <ele>210.549179</ele>
        <time>2019-08-17T12:32:33Z</time>
      </trkpt>
      <trkpt lat="44.42851" lon="1.01123">
        <ele>210.914856</ele>
        <time>2019-08-17T12:32:34Z</time>
      </trkpt>
      <trkpt lat="44.42853" lon="1.01128">
        <ele>211.31633</ele>
        <time>2019-08-17T12:32:35Z</time>
      </trkpt>
      <trkpt lat="44.42856" lon="1.01133">
        <ele>211.71991</ele>
        <time>2019-08-17T12:32:36Z</time>
      </trkpt>
      <trkpt lat="44.42858" lon="1.01138">
        <ele>212.127274</ele>
        <time>2019-08-17T12:32:37Z</time>
      </trkpt>
      <trkpt lat="44.4286" lon="1.01143">
        <ele>212.482544</ele>
        <time>2019-08-17T12:32:38Z</time>
      </trkpt>
      <trkpt lat="44.42863" lon="1.01147">
        <ele>212.843033</ele>
        <time>2019-08-17T12:32:39Z</time>
      </trkpt>
      <trkpt lat="44.42865" lon="1.01152">
        <ele>213.20813</ele>
        <time>2019-08-17T12:32:40Z</time>
      </trkpt>
      <trkpt lat="44.42867" lon="1.01157">
        <ele>213.20813</ele>
        <time>2019-08-17T12:32:41Z</time>
      </trkpt>
      <trkpt lat="44.42869" lon="1.01162">
        <ele>213.576965</ele>
        <time>2019-08-17T12:32:42Z</time>
      </trkpt>
      <trkpt lat="44.42872" lon="1.01166">
        <ele>213.95784</ele>
        <time>2019-08-17T12:32:43Z</time>
      </trkpt>
      <trkpt lat="44.42874" lon="1.01171">
        <ele>214.428101</ele>
        <time>2019-08-17T12:32:44Z</time>
      </trkpt>
      <trkpt lat="44.42876" lon="1.01176">
        <ele>214.909546</ele>
        <time>2019-08-17T12:32:45Z</time>
      </trkpt>
      <trkpt lat="44.42879" lon="1.01181">
        <ele>215.404175</ele>
        <time>2019-08-17T12:32:46Z</time>
      </trkpt>
      <trkpt lat="44.42881" lon="1.01185">
        <ele>215.903015</ele>
        <time>2019-08-17T12:32:47Z</time>
      </trkpt>
      <trkpt lat="44.42883" lon="1.0119">
        <ele>216.409561</ele>
        <time>2019-08-17T12:32:48Z</time>
      </trkpt>
      <trkpt lat="44.42886" lon="1.01195">
        <ele>216.91243</ele>
        <time>2019-08-17T12:32:49Z</time>
      </trkpt>
      <trkpt lat="44.42888" lon="1.01199">
        <ele>217.330795</ele>
        <time>2019-08-17T12:32:50Z</time>
      </trkpt>
      <trkpt lat="44.4289" lon="1.01204">
        <ele>217.736435</ele>
        <time>2019-08-17T12:32:51Z</time>
      </trkpt>
      <trkpt lat="44.42892" lon="1.01209">
        <ele>218.128433</ele>
        <time>2019-08-17T12:32:52Z</time>
      </trkpt>
      <trkpt lat="44.42894" lon="1.01214">
        <ele>218.512741</ele>
        <time>2019-08-17T12:32:53Z</time>
      </trkpt>
      <trkpt lat="44.42895" lon="1.01219">
        <ele>218.882996</ele>
        <time>2019-08-17T12:32:54Z</time>
      </trkpt>
      <trkpt lat="44.42897" lon="1.01225">
        <ele>219.244995</ele>
        <time>2019-08-17T12:32:55Z</time>
      </trkpt>
      <trkpt lat="44.42899" lon="1.0123">
        <ele>219.244995</ele>
        <time>2019-08-17T12:32:56Z</time>
      </trkpt>
      <trkpt lat="44.429" lon="1.01236">
        <ele>219.597839</ele>
        <time>2019-08-17T12:32:57Z</time>
      </trkpt>
      <trkpt lat="44.42902" lon="1.01241">
        <ele>219.939896</ele>
        <time>2019-08-17T12:32:58Z</time>
      </trkpt>
      <trkpt lat="44.42903" lon="1.01246">
        <ele>220.322891</ele>
        <time>2019-08-17T12:32:59Z</time>
      </trkpt>
      <trkpt lat="44.42905" lon="1.01252">
        <ele>220.695923</ele>
        <time>2019-08-17T12:33:00Z</time>
      </trkpt>
      <trkpt lat="44.42906" lon="1.01257">
        <ele>220.695923</ele>
        <time>2019-08-17T12:33:01Z</time>
      </trkpt>
      <trkpt lat="44.42908" lon="1.01262">
        <ele>221.060226</ele>
        <time>2019-08-17T12:33:02Z</time>
      </trkpt>
      <trkpt lat="44.4291" lon="1.01268">
        <ele>221.413162</ele>
        <time>2019-08-17T12:33:03Z</time>
      </trkpt>
      <trkpt lat="44.42912" lon="1.01273">
        <ele>221.805008</ele>
        <time>2019-08-17T12:33:04Z</time>
      </trkpt>
      <trkpt lat="44.42913" lon="1.01279">
        <ele>221.805008</ele>
        <time>2019-08-17T12:33:05Z</time>
      </trkpt>
      <trkpt lat="44.42915" lon="1.01284">
        <ele>222.192093</ele>
        <time>2019-08-17T12:33:06Z</time>
      </trkpt>
      <trkpt lat="44.42918" lon="1.01289">
        <ele>222.524368</ele>
        <time>2019-08-17T12:33:07Z</time>
      </trkpt>
      <trkpt lat="44.4292" lon="1.01294">
        <ele>222.524368</ele>
        <time>2019-08-17T12:33:08Z</time>
      </trkpt>
      <trkpt lat="44.42922" lon="1.01299">
        <ele>222.89827</ele>
        <time>2019-08-17T12:33:09Z</time>
      </trkpt>
      <trkpt lat="44.42925" lon="1.01304">
        <ele>223.257202</ele>
        <time>2019-08-17T12:33:10Z</time>
      </trkpt>
      <trkpt lat="44.42927" lon="1.01309">
        <ele>223.257202</ele>
        <time>2019-08-17T12:33:11Z</time>
      </trkpt>
      <trkpt lat="44.4293" lon="1.01314">
        <ele>223.625305</ele>
        <time>2019-08-17T12:33:12Z</time>
      </trkpt>
      <trkpt lat="44.42932" lon="1.01319">
        <ele>223.925598</ele>
        <time>2019-08-17T12:33:13Z</time>
      </trkpt>
      <trkpt lat="44.42934" lon="1.01323">
        <ele>224.229355</ele>
        <time>2019-08-17T12:33:14Z</time>
      </trkpt>
      <trkpt lat="44.42938" lon="1.01328">
        <ele>224.229355</ele>
        <time>2019-08-17T12:33:15Z</time>
      </trkpt>
      <trkpt lat="44.4294" lon="1.01333">
        <ele>224.509506</ele>
        <time>2019-08-17T12:33:16Z</time>
      </trkpt>
      <trkpt lat="44.42942" lon="1.01338">
        <ele>224.72084</ele>
        <time>2019-08-17T12:33:17Z</time>
      </trkpt>
      <trkpt lat="44.42945" lon="1.01342">
        <ele>224.940048</ele>
        <time>2019-08-17T12:33:18Z</time>
      </trkpt>
      <trkpt lat="44.42947" lon="1.01346">
        <ele>225.12059</ele>
        <time>2019-08-17T12:33:19Z</time>
      </trkpt>
      <trkpt lat="44.4295" lon="1.0135">
        <ele>225.280228</ele>
        <time>2019-08-17T12:33:20Z</time>
      </trkpt>
      <trkpt lat="44.42954" lon="1.01352">
        <ele>225.381729</ele>
        <time>2019-08-17T12:33:21Z</time>
      </trkpt>
      <trkpt lat="44.42958" lon="1.01352">
        <ele>225.430405</ele>
        <time>2019-08-17T12:33:22Z</time>
      </trkpt>
      <trkpt lat="44.42962" lon="1.01352">
        <ele>225.430405</ele>
        <time>2019-08-17T12:33:23Z</time>
      </trkpt>
      <trkpt lat="44.42967" lon="1.01352">
        <ele>225.430405</ele>
        <time>2019-08-17T12:33:24Z</time>
      </trkpt>
      <trkpt lat="44.42971" lon="1.01351">
        <ele>225.426575</ele>
        <time>2019-08-17T12:33:25Z</time>
      </trkpt>
      <trkpt lat="44.42975" lon="1.01349">
        <ele>225.352341</ele>
        <time>2019-08-17T12:33:26Z</time>
      </trkpt>
      <trkpt lat="44.42979" lon="1.01346">
        <ele>225.230591</ele>
        <time>2019-08-17T12:33:27Z</time>
      </trkpt>
      <trkpt lat="44.42983" lon="1.01344">
        <ele>225.073715</ele>
        <time>2019-08-17T12:33:28Z</time>
      </trkpt>
      <trkpt lat="44.42987" lon="1.0134">
        <ele>224.896255</ele>
        <time>2019-08-17T12:33:29Z</time>
      </trkpt>
      <trkpt lat="44.42991" lon="1.01337">
        <ele>224.714523</ele>
        <time>2019-08-17T12:33:30Z</time>
      </trkpt>
      <trkpt lat="44.42995" lon="1.01333">
        <ele>224.714523</ele>
        <time>2019-08-17T12:33:31Z</time>
      </trkpt>
      <trkpt lat="44.42999" lon="1.01329">
        <ele>224.529129</ele>
        <time>2019-08-17T12:33:32Z</time>
      </trkpt>
      <trkpt lat="44.43003" lon="1.01323">
        <ele>224.3405</ele>
        <time>2019-08-17T12:33:33Z</time>
      </trkpt>
      <trkpt lat="44.43007" lon="1.01318">
        <ele>224.121628</ele>
        <time>2019-08-17T12:33:34Z</time>
      </trkpt>
      <trkpt lat="44.4301" lon="1.01312">
        <ele>223.90509</ele>
        <time>2019-08-17T12:33:35Z</time>
      </trkpt>
      <trkpt lat="44.43013" lon="1.01305">
        <ele>223.692947</ele>
        <time>2019-08-17T12:33:36Z</time>
      </trkpt>
      <trkpt lat="44.43015" lon="1.01298">
        <ele>223.492981</ele>
        <time>2019-08-17T12:33:37Z</time>
      </trkpt>
      <trkpt lat="44.43016" lon="1.01291">
        <ele>223.492981</ele>
        <time>2019-08-17T12:33:38Z</time>
      </trkpt>
      <trkpt lat="44.43019" lon="1.01283">
        <ele>223.314163</ele>
        <time>2019-08-17T12:33:39Z</time>
      </trkpt>
      <trkpt lat="44.4302" lon="1.01276">
        <ele>223.161728</ele>
        <time>2019-08-17T12:33:40Z</time>
      </trkpt>
      <trkpt lat="44.43021" lon="1.01269">
        <ele>223.161728</ele>
        <time>2019-08-17T12:33:41Z</time>
      </trkpt>
      <trkpt lat="44.43022" lon="1.01261">
        <ele>223.059265</ele>
        <time>2019-08-17T12:33:42Z</time>
      </trkpt>
      <trkpt lat="44.43023" lon="1.01253">
        <ele>222.979355</ele>
        <time>2019-08-17T12:33:43Z</time>
      </trkpt>
      <trkpt lat="44.43023" lon="1.01246">
        <ele>222.979355</ele>
        <time>2019-08-17T12:33:44Z</time>
      </trkpt>
      <trkpt lat="44.43023" lon="1.01238">
        <ele>222.894669</ele>
        <time>2019-08-17T12:33:45Z</time>
      </trkpt>
      <trkpt lat="44.43024" lon="1.0123">
        <ele>222.814804</ele>
        <time>2019-08-17T12:33:46Z</time>
      </trkpt>
      <trkpt lat="44.43024" lon="1.01222">
        <ele>222.717102</ele>
        <time>2019-08-17T12:33:47Z</time>
      </trkpt>
      <trkpt lat="44.43024" lon="1.01213">
        <ele>222.610641</ele>
        <time>2019-08-17T12:33:48Z</time>
      </trkpt>
      <trkpt lat="44.43025" lon="1.01205">
        <ele>222.610641</ele>
        <time>2019-08-17T12:33:49Z</time>
      </trkpt>
      <trkpt lat="44.43026" lon="1.01196">
        <ele>222.498489</ele>
        <time>2019-08-17T12:33:50Z</time>
      </trkpt>
      <trkpt lat="44.43026" lon="1.01188">
        <ele>222.375687</ele>
        <time>2019-08-17T12:33:51Z</time>
      </trkpt>
      <trkpt lat="44.43027" lon="1.01179">
        <ele>222.375687</ele>
        <time>2019-08-17T12:33:52Z</time>
      </trkpt>
      <trkpt lat="44.43028" lon="1.0117">
        <ele>222.238953</ele>
        <time>2019-08-17T12:33:53Z</time>
      </trkpt>
      <trkpt lat="44.43028" lon="1.01162">
        <ele>222.087997</ele>
        <time>2019-08-17T12:33:54Z</time>
      </trkpt>
      <trkpt lat="44.43028" lon="1.01154">
        <ele>221.907913</ele>
        <time>2019-08-17T12:33:55Z</time>
      </trkpt>
      <trkpt lat="44.43028" lon="1.01145">
        <ele>221.71376</ele>
        <time>2019-08-17T12:33:56Z</time>
      </trkpt>
      <trkpt lat="44.43031" lon="1.01137">
        <ele>221.71376</ele>
        <time>2019-08-17T12:33:57Z</time>
      </trkpt>
      <trkpt lat="44.43034" lon="1.0113">
        <ele>221.504959</ele>
        <time>2019-08-17T12:33:58Z</time>
      </trkpt>
      <trkpt lat="44.43038" lon="1.01124">
        <ele>221.281906</ele>
        <time>2019-08-17T12:33:59Z</time>
      </trkpt>
      <trkpt lat="44.43042" lon="1.01117">
        <ele>221.053085</ele>
        <time>2019-08-17T12:34:00Z</time>
      </trkpt>
      <trkpt lat="44.43046" lon="1.0111">
        <ele>221.053085</ele>
        <time>2019-08-17T12:34:01Z</time>
      </trkpt>
      <trkpt lat="44.4305" lon="1.01104">
        <ele>220.838181</ele>
        <time>2019-08-17T12:34:02Z</time>
      </trkpt>
      <trkpt lat="44.43055" lon="1.01097">
        <ele>220.669754</ele>
        <time>2019-08-17T12:34:03Z</time>
      </trkpt>
      <trkpt lat="44.43059" lon="1.01091">
        <ele>220.5047</ele>
        <time>2019-08-17T12:34:04Z</time>
      </trkpt>
      <trkpt lat="44.43064" lon="1.01084">
        <ele>220.358841</ele>
        <time>2019-08-17T12:34:05Z</time>
      </trkpt>
      <trkpt lat="44.43069" lon="1.01078">
        <ele>220.231445</ele>
        <time>2019-08-17T12:34:06Z</time>
      </trkpt>
      <trkpt lat="44.43074" lon="1.01073">
        <ele>220.14241</ele>
        <time>2019-08-17T12:34:07Z</time>
      </trkpt>
      <trkpt lat="44.4308" lon="1.01068">
        <ele>220.061523</ele>
        <time>2019-08-17T12:34:08Z</time>
      </trkpt>
      <trkpt lat="44.43086" lon="1.01066">
        <ele>219.989426</ele>
        <time>2019-08-17T12:34:09Z</time>
      </trkpt>
      <trkpt lat="44.43093" lon="1.01063">
        <ele>219.933914</ele>
        <time>2019-08-17T12:34:10Z</time>
      </trkpt>
      <trkpt lat="44.43099" lon="1.01059">
        <ele>219.861816</ele>
        <time>2019-08-17T12:34:11Z</time>
      </trkpt>
      <trkpt lat="44.43105" lon="1.01054">
        <ele>219.77507</ele>
        <time>2019-08-17T12:34:12Z</time>
      </trkpt>
      <trkpt lat="44.4311" lon="1.01047">
        <ele>219.674805</ele>
        <time>2019-08-17T12:34:13Z</time>
      </trkpt>
      <trkpt lat="44.43114" lon="1.0104">
        <ele>219.548019</ele>
        <time>2019-08-17T12:34:14Z</time>
      </trkpt>
      <trkpt lat="44.43119" lon="1.01033">
        <ele>219.374023</ele>
        <time>2019-08-17T12:34:15Z</time>
      </trkpt>
      <trkpt lat="44.43123" lon="1.01026">
        <ele>219.144852</ele>
        <time>2019-08-17T12:34:16Z</time>
      </trkpt>
      <trkpt lat="44.43127" lon="1.01019">
        <ele>219.144852</ele>
        <time>2019-08-17T12:34:17Z</time>
      </trkpt>
      <trkpt lat="44.4313" lon="1.01011">
        <ele>218.87468</ele>
        <time>2019-08-17T12:34:18Z</time>
      </trkpt>
      <trkpt lat="44.43133" lon="1.01003">
        <ele>218.5625</ele>
        <time>2019-08-17T12:34:19Z</time>
      </trkpt>
      <trkpt lat="44.43134" lon="1.00995">
        <ele>218.132156</ele>
        <time>2019-08-17T12:34:20Z</time>
      </trkpt>
      <trkpt lat="44.43135" lon="1.00987">
        <ele>217.662766</ele>
        <time>2019-08-17T12:34:21Z</time>
      </trkpt>
      <trkpt lat="44.43137" lon="1.0098">
        <ele>217.161377</ele>
        <time>2019-08-17T12:34:22Z</time>
      </trkpt>
      <trkpt lat="44.43139" lon="1.00973">
        <ele>216.625565</ele>
        <time>2019-08-17T12:34:23Z</time>
      </trkpt>
      <trkpt lat="44.43141" lon="1.00966">
        <ele>216.064621</ele>
        <time>2019-08-17T12:34:24Z</time>
      </trkpt>
      <trkpt lat="44.43144" lon="1.0096">
        <ele>215.478516</ele>
        <time>2019-08-17T12:34:25Z</time>
      </trkpt>
      <trkpt lat="44.43148" lon="1.00954">
        <ele>214.952072</ele>
        <time>2019-08-17T12:34:26Z</time>
      </trkpt>
      <trkpt lat="44.43152" lon="1.00948">
        <ele>214.423264</ele>
        <time>2019-08-17T12:34:27Z</time>
      </trkpt>
      <trkpt lat="44.43156" lon="1.00942">
        <ele>213.903641</ele>
        <time>2019-08-17T12:34:28Z</time>
      </trkpt>
      <trkpt lat="44.43161" lon="1.00935">
        <ele>213.374832</ele>
        <time>2019-08-17T12:34:29Z</time>
      </trkpt>
      <trkpt lat="44.43166" lon="1.00929">
        <ele>212.814941</ele>
        <time>2019-08-17T12:34:30Z</time>
      </trkpt>
      <trkpt lat="44.4317" lon="1.00923">
        <ele>212.219498</ele>
        <time>2019-08-17T12:34:31Z</time>
      </trkpt>
      <trkpt lat="44.43174" lon="1.00917">
        <ele>211.574219</ele>
        <time>2019-08-17T12:34:32Z</time>
      </trkpt>
      <trkpt lat="44.43179" lon="1.00911">
        <ele>210.871353</ele>
        <time>2019-08-17T12:34:33Z</time>
      </trkpt>
      <trkpt lat="44.43183" lon="1.00905">
        <ele>210.127151</ele>
        <time>2019-08-17T12:34:34Z</time>
      </trkpt>
      <trkpt lat="44.43187" lon="1.00898">
        <ele>210.127151</ele>
        <time>2019-08-17T12:34:35Z</time>
      </trkpt>
      <trkpt lat="44.43192" lon="1.00892">
        <ele>209.386368</ele>
        <time>2019-08-17T12:34:36Z</time>
      </trkpt>
      <trkpt lat="44.43195" lon="1.00886">
        <ele>208.675705</ele>
        <time>2019-08-17T12:34:37Z</time>
      </trkpt>
      <trkpt lat="44.432" lon="1.00879">
        <ele>207.935226</ele>
        <time>2019-08-17T12:34:38Z</time>
      </trkpt>
      <trkpt lat="44.43203" lon="1.00873">
        <ele>207.264328</ele>
        <time>2019-08-17T12:34:39Z</time>
      </trkpt>
      <trkpt lat="44.43207" lon="1.00866">
        <ele>206.677353</ele>
        <time>2019-08-17T12:34:40Z</time>
      </trkpt>
      <trkpt lat="44.43211" lon="1.00858">
        <ele>206.165024</ele>
        <time>2019-08-17T12:34:41Z</time>
      </trkpt>
      <trkpt lat="44.43215" lon="1.00851">
        <ele>206.165024</ele>
        <time>2019-08-17T12:34:42Z</time>
      </trkpt>
      <trkpt lat="44.43218" lon="1.00843">
        <ele>205.725784</ele>
        <time>2019-08-17T12:34:43Z</time>
      </trkpt>
      <trkpt lat="44.43223" lon="1.00835">
        <ele>205.354309</ele>
        <time>2019-08-17T12:34:44Z</time>
      </trkpt>
      <trkpt lat="44.43227" lon="1.00827">
        <ele>205.087723</ele>
        <time>2019-08-17T12:34:45Z</time>
      </trkpt>
      <trkpt lat="44.43232" lon="1.0082">
        <ele>204.857117</ele>
        <time>2019-08-17T12:34:46Z</time>
      </trkpt>
      <trkpt lat="44.43238" lon="1.00814">
        <ele>204.695496</ele>
        <time>2019-08-17T12:34:47Z</time>
      </trkpt>
      <trkpt lat="44.43245" lon="1.00808">
        <ele>204.622147</ele>
        <time>2019-08-17T12:34:48Z</time>
      </trkpt>
      <trkpt lat="44.43251" lon="1.00803">
        <ele>204.622147</ele>
        <time>2019-08-17T12:34:49Z</time>
      </trkpt>
      <trkpt lat="44.43257" lon="1.00798">
        <ele>204.622147</ele>
        <time>2019-08-17T12:34:50Z</time>
      </trkpt>
      <trkpt lat="44.43263" lon="1.00793">
        <ele>204.647049</ele>
        <time>2019-08-17T12:34:51Z</time>
      </trkpt>
      <trkpt lat="44.43269" lon="1.00788">
        <ele>204.776855</ele>
        <time>2019-08-17T12:34:52Z</time>
      </trkpt>
      <trkpt lat="44.43275" lon="1.00782">
        <ele>205.030701</ele>
        <time>2019-08-17T12:34:53Z</time>
      </trkpt>
      <trkpt lat="44.4328" lon="1.00776">
        <ele>205.346054</ele>
        <time>2019-08-17T12:34:54Z</time>
      </trkpt>
      <trkpt lat="44.43285" lon="1.0077">
        <ele>205.666092</ele>
        <time>2019-08-17T12:34:55Z</time>
      </trkpt>
      <trkpt lat="44.4329" lon="1.00763">
        <ele>205.941284</ele>
        <time>2019-08-17T12:34:56Z</time>
      </trkpt>
      <trkpt lat="44.43293" lon="1.00755">
        <ele>206.11615</ele>
        <time>2019-08-17T12:34:57Z</time>
      </trkpt>
      <trkpt lat="44.43297" lon="1.00748">
        <ele>206.11615</ele>
        <time>2019-08-17T12:34:58Z</time>
      </trkpt>
      <trkpt lat="44.43301" lon="1.0074">
        <ele>206.122665</ele>
        <time>2019-08-17T12:34:59Z</time>
      </trkpt>
      <trkpt lat="44.43307" lon="1.00734">
        <ele>206.122665</ele>
        <time>2019-08-17T12:35:00Z</time>
      </trkpt>
      <trkpt lat="44.43313" lon="1.00728">
        <ele>206.122665</ele>
        <time>2019-08-17T12:35:01Z</time>
      </trkpt>
      <trkpt lat="44.43318" lon="1.00723">
        <ele>206.019775</ele>
        <time>2019-08-17T12:35:02Z</time>
      </trkpt>
      <trkpt lat="44.43324" lon="1.00718">
        <ele>205.854736</ele>
        <time>2019-08-17T12:35:03Z</time>
      </trkpt>
      <trkpt lat="44.4333" lon="1.00713">
        <ele>205.854736</ele>
        <time>2019-08-17T12:35:04Z</time>
      </trkpt>
      <trkpt lat="44.43336" lon="1.00709">
        <ele>205.631516</ele>
        <time>2019-08-17T12:35:05Z</time>
      </trkpt>
      <trkpt lat="44.43342" lon="1.00705">
        <ele>205.355469</ele>
        <time>2019-08-17T12:35:06Z</time>
      </trkpt>
      <trkpt lat="44.43348" lon="1.007">
        <ele>205.036423</ele>
        <time>2019-08-17T12:35:07Z</time>
      </trkpt>
      <trkpt lat="44.43353" lon="1.00694">
        <ele>204.779709</ele>
        <time>2019-08-17T12:35:08Z</time>
      </trkpt>
      <trkpt lat="44.43358" lon="1.00689">
        <ele>204.529739</ele>
        <time>2019-08-17T12:35:09Z</time>
      </trkpt>
      <trkpt lat="44.43362" lon="1.00684">
        <ele>204.259598</ele>
        <time>2019-08-17T12:35:10Z</time>
      </trkpt>
      <trkpt lat="44.43367" lon="1.00679">
        <ele>203.971115</ele>
        <time>2019-08-17T12:35:11Z</time>
      </trkpt>
      <trkpt lat="44.43372" lon="1.00674">
        <ele>203.660812</ele>
        <time>2019-08-17T12:35:12Z</time>
      </trkpt>
      <trkpt lat="44.43377" lon="1.00669">
        <ele>203.354004</ele>
        <time>2019-08-17T12:35:13Z</time>
      </trkpt>
      <trkpt lat="44.43382" lon="1.00663">
        <ele>202.998291</ele>
        <time>2019-08-17T12:35:14Z</time>
      </trkpt>
      <trkpt lat="44.43387" lon="1.00658">
        <ele>202.596024</ele>
        <time>2019-08-17T12:35:15Z</time>
      </trkpt>
      <trkpt lat="44.43391" lon="1.00653">
        <ele>202.162033</ele>
        <time>2019-08-17T12:35:16Z</time>
      </trkpt>
      <trkpt lat="44.43396" lon="1.00647">
        <ele>201.70549</ele>
        <time>2019-08-17T12:35:17Z</time>
      </trkpt>
      <trkpt lat="44.43401" lon="1.00642">
        <ele>201.253296</ele>
        <time>2019-08-17T12:35:18Z</time>
      </trkpt>
      <trkpt lat="44.43405" lon="1.00637">
        <ele>200.809952</ele>
        <time>2019-08-17T12:35:19Z</time>
      </trkpt>
      <trkpt lat="44.4341" lon="1.00632">
        <ele>200.383713</ele>
        <time>2019-08-17T12:35:20Z</time>
      </trkpt>
      <trkpt lat="44.43414" lon="1.00626">
        <ele>199.984451</ele>
        <time>2019-08-17T12:35:21Z</time>
      </trkpt>
      <trkpt lat="44.43419" lon="1.00621">
        <ele>199.612991</ele>
        <time>2019-08-17T12:35:22Z</time>
      </trkpt>
      <trkpt lat="44.43424" lon="1.00615">
        <ele>199.265503</ele>
        <time>2019-08-17T12:35:23Z</time>
      </trkpt>
      <trkpt lat="44.43428" lon="1.0061">
        <ele>198.93573</ele>
        <time>2019-08-17T12:35:24Z</time>
      </trkpt>
      <trkpt lat="44.43432" lon="1.00605">
        <ele>198.62825</ele>
        <time>2019-08-17T12:35:25Z</time>
      </trkpt>
      <trkpt lat="44.43437" lon="1.006">
        <ele>198.334671</ele>
        <time>2019-08-17T12:35:26Z</time>
      </trkpt>
      <trkpt lat="44.43442" lon="1.00595">
        <ele>198.050308</ele>
        <time>2019-08-17T12:35:27Z</time>
      </trkpt>
      <trkpt lat="44.43447" lon="1.0059">
        <ele>197.780884</ele>
        <time>2019-08-17T12:35:28Z</time>
      </trkpt>
      <trkpt lat="44.43453" lon="1.00585">
        <ele>197.542526</ele>
        <time>2019-08-17T12:35:29Z</time>
      </trkpt>
      <trkpt lat="44.43458" lon="1.0058">
        <ele>197.542526</ele>
        <time>2019-08-17T12:35:30Z</time>
      </trkpt>
      <trkpt lat="44.43462" lon="1.00574">
        <ele>197.349625</ele>
        <time>2019-08-17T12:35:31Z</time>
      </trkpt>
      <trkpt lat="44.43467" lon="1.00568">
        <ele>197.200089</ele>
        <time>2019-08-17T12:35:32Z</time>
      </trkpt>
      <trkpt lat="44.43472" lon="1.00562">
        <ele>197.108566</ele>
        <time>2019-08-17T12:35:33Z</time>
      </trkpt>
      <trkpt lat="44.43477" lon="1.00556">
        <ele>197.086014</ele>
        <time>2019-08-17T12:35:34Z</time>
      </trkpt>
      <trkpt lat="44.43482" lon="1.00549">
        <ele>197.086014</ele>
        <time>2019-08-17T12:35:35Z</time>
      </trkpt>
      <trkpt lat="44.43486" lon="1.00542">
        <ele>197.086014</ele>
        <time>2019-08-17T12:35:36Z</time>
      </trkpt>
      <trkpt lat="44.4349" lon="1.00533">
        <ele>197.137131</ele>
        <time>2019-08-17T12:35:37Z</time>
      </trkpt>
      <trkpt lat="44.43493" lon="1.00524">
        <ele>197.246597</ele>
        <time>2019-08-17T12:35:38Z</time>
      </trkpt>
      <trkpt lat="44.43496" lon="1.00514">
        <ele>197.40065</ele>
        <time>2019-08-17T12:35:39Z</time>
      </trkpt>
      <trkpt lat="44.43499" lon="1.00505">
        <ele>197.459396</ele>
        <time>2019-08-17T12:35:40Z</time>
      </trkpt>
      <trkpt lat="44.43502" lon="1.00496">
        <ele>197.459396</ele>
        <time>2019-08-17T12:35:41Z</time>
      </trkpt>
      <trkpt lat="44.43505" lon="1.00487">
        <ele>197.459396</ele>
        <time>2019-08-17T12:35:42Z</time>
      </trkpt>
      <trkpt lat="44.43508" lon="1.00479">
        <ele>197.459396</ele>
        <time>2019-08-17T12:35:43Z</time>
      </trkpt>
      <trkpt lat="44.4351" lon="1.0047">
        <ele>197.380936</ele>
        <time>2019-08-17T12:35:44Z</time>
      </trkpt>
      <trkpt lat="44.43512" lon="1.00462">
        <ele>197.157288</ele>
        <time>2019-08-17T12:35:45Z</time>
      </trkpt>
      <trkpt lat="44.43515" lon="1.00453">
        <ele>196.646301</ele>
        <time>2019-08-17T12:35:46Z</time>
      </trkpt>
      <trkpt lat="44.43518" lon="1.00445">
        <ele>195.967773</ele>
        <time>2019-08-17T12:35:47Z</time>
      </trkpt>
      <trkpt lat="44.43521" lon="1.00437">
        <ele>195.967773</ele>
        <time>2019-08-17T12:35:48Z</time>
      </trkpt>
      <trkpt lat="44.43525" lon="1.00429">
        <ele>195.121811</ele>
        <time>2019-08-17T12:35:49Z</time>
      </trkpt>
      <trkpt lat="44.43529" lon="1.00421">
        <ele>194.214645</ele>
        <time>2019-08-17T12:35:50Z</time>
      </trkpt>
      <trkpt lat="44.43533" lon="1.00413">
        <ele>193.029587</ele>
        <time>2019-08-17T12:35:51Z</time>
      </trkpt>
      <trkpt lat="44.43536" lon="1.00406">
        <ele>191.754517</ele>
        <time>2019-08-17T12:35:52Z</time>
      </trkpt>
      <trkpt lat="44.43539" lon="1.00399">
        <ele>191.754517</ele>
        <time>2019-08-17T12:35:53Z</time>
      </trkpt>
      <trkpt lat="44.4354" lon="1.00392">
        <ele>190.523987</ele>
        <time>2019-08-17T12:35:54Z</time>
      </trkpt>
      <trkpt lat="44.43541" lon="1.00386">
        <ele>189.219742</ele>
        <time>2019-08-17T12:35:55Z</time>
      </trkpt>
      <trkpt lat="44.43541" lon="1.00381">
        <ele>189.219742</ele>
        <time>2019-08-17T12:35:56Z</time>
      </trkpt>
      <trkpt lat="44.43541" lon="1.00377">
        <ele>187.637527</ele>
        <time>2019-08-17T12:35:57Z</time>
      </trkpt>
      <trkpt lat="44.43538" lon="1.00374">
        <ele>186.019516</ele>
        <time>2019-08-17T12:35:58Z</time>
      </trkpt>
      <trkpt lat="44.43536" lon="1.00371">
        <ele>184.507462</ele>
        <time>2019-08-17T12:35:59Z</time>
      </trkpt>
      <trkpt lat="44.43534" lon="1.00367">
        <ele>184.507462</ele>
        <time>2019-08-17T12:36:00Z</time>
      </trkpt>
      <trkpt lat="44.43533" lon="1.00363">
        <ele>183.106949</ele>
        <time>2019-08-17T12:36:01Z</time>
      </trkpt>
      <trkpt lat="44.43535" lon="1.00358">
        <ele>181.850632</ele>
        <time>2019-08-17T12:36:02Z</time>
      </trkpt>
      <trkpt lat="44.43538" lon="1.00355">
        <ele>180.677002</ele>
        <time>2019-08-17T12:36:03Z</time>
      </trkpt>
      <trkpt lat="44.43542" lon="1.00353">
        <ele>179.803482</ele>
        <time>2019-08-17T12:36:04Z</time>
      </trkpt>
      <trkpt lat="44.43546" lon="1.00351">
        <ele>179.803482</ele>
        <time>2019-08-17T12:36:05Z</time>
      </trkpt>
      <trkpt lat="44.43551" lon="1.0035">
        <ele>179.001526</ele>
        <time>2019-08-17T12:36:06Z</time>
      </trkpt>
      <trkpt lat="44.43555" lon="1.00349">
        <ele>178.388962</ele>
        <time>2019-08-17T12:36:07Z</time>
      </trkpt>
      <trkpt lat="44.43559" lon="1.0035">
        <ele>177.699966</ele>
        <time>2019-08-17T12:36:08Z</time>
      </trkpt>
      <trkpt lat="44.43563" lon="1.00351">
        <ele>176.999695</ele>
        <time>2019-08-17T12:36:09Z</time>
      </trkpt>
      <trkpt lat="44.43566" lon="1.00352">
        <ele>176.364456</ele>
        <time>2019-08-17T12:36:10Z</time>
      </trkpt>
      <trkpt lat="44.4357" lon="1.00354">
        <ele>175.806641</ele>
        <time>2019-08-17T12:36:11Z</time>
      </trkpt>
      <trkpt lat="44.43573" lon="1.00354">
        <ele>175.317307</ele>
        <time>2019-08-17T12:36:12Z</time>
      </trkpt>
      <trkpt lat="44.43575" lon="1.00352">
        <ele>174.879822</ele>
        <time>2019-08-17T12:36:13Z</time>
      </trkpt>
      <trkpt lat="44.43576" lon="1.00348">
        <ele>174.560471</ele>
        <time>2019-08-17T12:36:14Z</time>
      </trkpt>
      <trkpt lat="44.43577" lon="1.00343">
        <ele>174.240555</ele>
        <time>2019-08-17T12:36:15Z</time>
      </trkpt>
      <trkpt lat="44.43577" lon="1.00337">
        <ele>173.874939</ele>
        <time>2019-08-17T12:36:16Z</time>
      </trkpt>
      <trkpt lat="44.43576" lon="1.00331">
        <ele>173.874939</ele>
        <time>2019-08-17T12:36:17Z</time>
      </trkpt>
      <trkpt lat="44.43576" lon="1.00325">
        <ele>173.418167</ele>
        <time>2019-08-17T12:36:18Z</time>
      </trkpt>
      <trkpt lat="44.43576" lon="1.00319">
        <ele>172.88765</ele>
        <time>2019-08-17T12:36:19Z</time>
      </trkpt>
      <trkpt lat="44.43575" lon="1.00313">
        <ele>172.147537</ele>
        <time>2019-08-17T12:36:20Z</time>
      </trkpt>
      <trkpt lat="44.43573" lon="1.00308">
        <ele>171.336075</ele>
        <time>2019-08-17T12:36:21Z</time>
      </trkpt>
      <trkpt lat="44.4357" lon="1.00303">
        <ele>171.336075</ele>
        <time>2019-08-17T12:36:22Z</time>
      </trkpt>
      <trkpt lat="44.43566" lon="1.003">
        <ele>170.470535</ele>
        <time>2019-08-17T12:36:23Z</time>
      </trkpt>
      <trkpt lat="44.43562" lon="1.00297">
        <ele>169.624573</ele>
        <time>2019-08-17T12:36:24Z</time>
      </trkpt>
      <trkpt lat="44.43558" lon="1.00295">
        <ele>169.624573</ele>
        <time>2019-08-17T12:36:25Z</time>
      </trkpt>
      <trkpt lat="44.43555" lon="1.00293">
        <ele>168.810226</ele>
        <time>2019-08-17T12:36:26Z</time>
      </trkpt>
      <trkpt lat="44.43552" lon="1.00291">
        <ele>168.124207</ele>
        <time>2019-08-17T12:36:27Z</time>
      </trkpt>
      <trkpt lat="44.43549" lon="1.0029">
        <ele>167.714462</ele>
        <time>2019-08-17T12:36:28Z</time>
      </trkpt>
      <trkpt lat="44.43547" lon="1.00288">
        <ele>167.442947</ele>
        <time>2019-08-17T12:36:29Z</time>
      </trkpt>
      <trkpt lat="44.43546" lon="1.00285">
        <ele>167.293289</ele>
        <time>2019-08-17T12:36:30Z</time>
      </trkpt>
      <trkpt lat="44.43546" lon="1.00281">
        <ele>167.203766</ele>
        <time>2019-08-17T12:36:31Z</time>
      </trkpt>
      <trkpt lat="44.43548" lon="1.00278">
        <ele>167.162231</ele>
        <time>2019-08-17T12:36:32Z</time>
      </trkpt>
      <trkpt lat="44.43551" lon="1.00276">
        <ele>167.111847</ele>
        <time>2019-08-17T12:36:33Z</time>
      </trkpt>
      <trkpt lat="44.43554" lon="1.00274">
        <ele>167.00589</ele>
        <time>2019-08-17T12:36:34Z</time>
      </trkpt>
      <trkpt lat="44.43557" lon="1.00271">
        <ele>167.00589</ele>
        <time>2019-08-17T12:36:35Z</time>
      </trkpt>
      <trkpt lat="44.43562" lon="1.00268">
        <ele>166.828522</ele>
        <time>2019-08-17T12:36:36Z</time>
      </trkpt>
      <trkpt lat="44.43566" lon="1.00265">
        <ele>166.564499</ele>
        <time>2019-08-17T12:36:37Z</time>
      </trkpt>
      <trkpt lat="44.4357" lon="1.00261">
        <ele>166.112869</ele>
        <time>2019-08-17T12:36:38Z</time>
      </trkpt>
      <trkpt lat="44.43575" lon="1.00258">
        <ele>165.545334</ele>
        <time>2019-08-17T12:36:39Z</time>
      </trkpt>
      <trkpt lat="44.43581" lon="1.00254">
        <ele>164.921326</ele>
        <time>2019-08-17T12:36:40Z</time>
      </trkpt>
      <trkpt lat="44.43587" lon="1.0025">
        <ele>164.271057</ele>
        <time>2019-08-17T12:36:41Z</time>
      </trkpt>
      <trkpt lat="44.43593" lon="1.00247">
        <ele>163.601395</ele>
        <time>2019-08-17T12:36:42Z</time>
      </trkpt>
      <trkpt lat="44.43597" lon="1.00244">
        <ele>163.601395</ele>
        <time>2019-08-17T12:36:43Z</time>
      </trkpt>
      <trkpt lat="44.43602" lon="1.00241">
        <ele>162.894638</ele>
        <time>2019-08-17T12:36:44Z</time>
      </trkpt>
      <trkpt lat="44.43607" lon="1.00238">
        <ele>162.273468</ele>
        <time>2019-08-17T12:36:45Z</time>
      </trkpt>
      <trkpt lat="44.43612" lon="1.00235">
        <ele>161.632996</ele>
        <time>2019-08-17T12:36:46Z</time>
      </trkpt>
      <trkpt lat="44.43616" lon="1.00232">
        <ele>161.028427</ele>
        <time>2019-08-17T12:36:47Z</time>
      </trkpt>
      <trkpt lat="44.4362" lon="1.00229">
        <ele>160.459915</ele>
        <time>2019-08-17T12:36:48Z</time>
      </trkpt>
      <trkpt lat="44.43623" lon="1.00227">
        <ele>159.933243</ele>
        <time>2019-08-17T12:36:49Z</time>
      </trkpt>
      <trkpt lat="44.43626" lon="1.00224">
        <ele>159.457764</ele>
        <time>2019-08-17T12:36:50Z</time>
      </trkpt>
      <trkpt lat="44.43629" lon="1.00222">
        <ele>159.024521</ele>
        <time>2019-08-17T12:36:51Z</time>
      </trkpt>
      <trkpt lat="44.43632" lon="1.0022">
        <ele>158.660385</ele>
        <time>2019-08-17T12:36:52Z</time>
      </trkpt>
      <trkpt lat="44.43635" lon="1.00218">
        <ele>158.309311</ele>
        <time>2019-08-17T12:36:53Z</time>
      </trkpt>
      <trkpt lat="44.43638" lon="1.00217">
        <ele>157.984604</ele>
        <time>2019-08-17T12:36:54Z</time>
      </trkpt>
      <trkpt lat="44.43641" lon="1.00215">
        <ele>157.68866</ele>
        <time>2019-08-17T12:36:55Z</time>
      </trkpt>
      <trkpt lat="44.43645" lon="1.00213">
        <ele>157.415298</ele>
        <time>2019-08-17T12:36:56Z</time>
      </trkpt>
      <trkpt lat="44.43649" lon="1.00211">
        <ele>157.165497</ele>
        <time>2019-08-17T12:36:57Z</time>
      </trkpt>
      <trkpt lat="44.43654" lon="1.00209">
        <ele>156.934189</ele>
        <time>2019-08-17T12:36:58Z</time>
      </trkpt>
      <trkpt lat="44.43658" lon="1.00209">
        <ele>156.706696</ele>
        <time>2019-08-17T12:36:59Z</time>
      </trkpt>
      <trkpt lat="44.43663" lon="1.00209">
        <ele>156.706696</ele>
        <time>2019-08-17T12:37:00Z</time>
      </trkpt>
      <trkpt lat="44.43668" lon="1.00209">
        <ele>156.465195</ele>
        <time>2019-08-17T12:37:01Z</time>
      </trkpt>
      <trkpt lat="44.43671" lon="1.00209">
        <ele>156.210052</ele>
        <time>2019-08-17T12:37:02Z</time>
      </trkpt>
      <trkpt lat="44.43675" lon="1.00209">
        <ele>155.914459</ele>
        <time>2019-08-17T12:37:03Z</time>
      </trkpt>
      <trkpt lat="44.43678" lon="1.00208">
        <ele>155.62149</ele>
        <time>2019-08-17T12:37:04Z</time>
      </trkpt>
      <trkpt lat="44.43682" lon="1.00206">
        <ele>155.3452</ele>
        <time>2019-08-17T12:37:05Z</time>
      </trkpt>
      <trkpt lat="44.43686" lon="1.00202">
        <ele>155.098587</ele>
        <time>2019-08-17T12:37:06Z</time>
      </trkpt>
      <trkpt lat="44.43689" lon="1.00198">
        <ele>154.869583</ele>
        <time>2019-08-17T12:37:07Z</time>
      </trkpt>
      <trkpt lat="44.43692" lon="1.00194">
        <ele>154.623123</ele>
        <time>2019-08-17T12:37:08Z</time>
      </trkpt>
      <trkpt lat="44.43695" lon="1.00189">
        <ele>154.371582</ele>
        <time>2019-08-17T12:37:09Z</time>
      </trkpt>
      <trkpt lat="44.43697" lon="1.00186">
        <ele>154.371582</ele>
        <time>2019-08-17T12:37:10Z</time>
      </trkpt>
      <trkpt lat="44.437" lon="1.00182">
        <ele>154.052475</ele>
        <time>2019-08-17T12:37:11Z</time>
      </trkpt>
      <trkpt lat="44.43702" lon="1.00179">
        <ele>153.653763</ele>
        <time>2019-08-17T12:37:12Z</time>
      </trkpt>
      <trkpt lat="44.43705" lon="1.00176">
        <ele>153.110855</ele>
        <time>2019-08-17T12:37:13Z</time>
      </trkpt>
      <trkpt lat="44.43708" lon="1.00173">
        <ele>153.110855</ele>
        <time>2019-08-17T12:37:14Z</time>
      </trkpt>
      <trkpt lat="44.43711" lon="1.0017">
        <ele>152.536865</ele>
        <time>2019-08-17T12:37:15Z</time>
      </trkpt>
      <trkpt lat="44.43715" lon="1.00167">
        <ele>151.979919</ele>
        <time>2019-08-17T12:37:16Z</time>
      </trkpt>
      <trkpt lat="44.43718" lon="1.00165">
        <ele>151.412857</ele>
        <time>2019-08-17T12:37:17Z</time>
      </trkpt>
      <trkpt lat="44.43721" lon="1.00162">
        <ele>150.895981</ele>
        <time>2019-08-17T12:37:18Z</time>
      </trkpt>
      <trkpt lat="44.43723" lon="1.00162">
        <ele>150.436829</ele>
        <time>2019-08-17T12:37:19Z</time>
      </trkpt>
      <trkpt lat="44.43726" lon="1.00164">
        <ele>150.096786</ele>
        <time>2019-08-17T12:37:20Z</time>
      </trkpt>
      <trkpt lat="44.43727" lon="1.00166">
        <ele>149.787735</ele>
        <time>2019-08-17T12:37:21Z</time>
      </trkpt>
      <trkpt lat="44.43727" lon="1.0017">
        <ele>149.559464</ele>
        <time>2019-08-17T12:37:22Z</time>
      </trkpt>
      <trkpt lat="44.43726" lon="1.00173">
        <ele>149.468948</ele>
        <time>2019-08-17T12:37:23Z</time>
      </trkpt>
      <trkpt lat="44.43723" lon="1.00176">
        <ele>149.468948</ele>
        <time>2019-08-17T12:37:24Z</time>
      </trkpt>
      <trkpt lat="44.4372" lon="1.00179">
        <ele>149.468948</ele>
        <time>2019-08-17T12:37:25Z</time>
      </trkpt>
      <trkpt lat="44.43716" lon="1.00182">
        <ele>149.468948</ele>
        <time>2019-08-17T12:37:26Z</time>
      </trkpt>
      <trkpt lat="44.43713" lon="1.00185">
        <ele>149.512711</ele>
        <time>2019-08-17T12:37:27Z</time>
      </trkpt>
      <trkpt lat="44.4371" lon="1.00188">
        <ele>149.645447</ele>
        <time>2019-08-17T12:37:28Z</time>
      </trkpt>
      <trkpt lat="44.43707" lon="1.00192">
        <ele>149.869003</ele>
        <time>2019-08-17T12:37:29Z</time>
      </trkpt>
      <trkpt lat="44.43704" lon="1.00196">
        <ele>150.185852</ele>
        <time>2019-08-17T12:37:30Z</time>
      </trkpt>
      <trkpt lat="44.437" lon="1.00199">
        <ele>150.533875</ele>
        <time>2019-08-17T12:37:31Z</time>
      </trkpt>
      <trkpt lat="44.43698" lon="1.00204">
        <ele>150.905151</ele>
        <time>2019-08-17T12:37:32Z</time>
      </trkpt>
      <trkpt lat="44.43696" lon="1.00208">
        <ele>150.905151</ele>
        <time>2019-08-17T12:37:33Z</time>
      </trkpt>
      <trkpt lat="44.43694" lon="1.00211">
        <ele>151.263931</ele>
        <time>2019-08-17T12:37:34Z</time>
      </trkpt>
      <trkpt lat="44.43692" lon="1.00215">
        <ele>151.648026</ele>
        <time>2019-08-17T12:37:35Z</time>
      </trkpt>
      <trkpt lat="44.4369" lon="1.00218">
        <ele>151.648026</ele>
        <time>2019-08-17T12:37:36Z</time>
      </trkpt>
      <trkpt lat="44.43689" lon="1.00221">
        <ele>152.139328</ele>
        <time>2019-08-17T12:37:37Z</time>
      </trkpt>
      <trkpt lat="44.43687" lon="1.00224">
        <ele>152.644226</ele>
        <time>2019-08-17T12:37:38Z</time>
      </trkpt>
      <trkpt lat="44.43686" lon="1.00226">
        <ele>153.22612</ele>
        <time>2019-08-17T12:37:39Z</time>
      </trkpt>
      <trkpt lat="44.43686" lon="1.00227">
        <ele>153.796265</ele>
        <time>2019-08-17T12:37:40Z</time>
      </trkpt>
      <trkpt lat="44.43687" lon="1.00228">
        <ele>154.338562</ele>
        <time>2019-08-17T12:37:41Z</time>
      </trkpt>
      <trkpt lat="44.4369" lon="1.00227">
        <ele>154.84407</ele>
        <time>2019-08-17T12:37:42Z</time>
      </trkpt>
      <trkpt lat="44.43692" lon="1.00223">
        <ele>155.194397</ele>
        <time>2019-08-17T12:37:43Z</time>
      </trkpt>
      <trkpt lat="44.43694" lon="1.00219">
        <ele>155.194397</ele>
        <time>2019-08-17T12:37:44Z</time>
      </trkpt>
      <trkpt lat="44.43696" lon="1.00214">
        <ele>155.325577</ele>
        <time>2019-08-17T12:37:45Z</time>
      </trkpt>
      <trkpt lat="44.43699" lon="1.00209">
        <ele>155.325577</ele>
        <time>2019-08-17T12:37:46Z</time>
      </trkpt>
      <trkpt lat="44.43701" lon="1.00204">
        <ele>155.325577</ele>
        <time>2019-08-17T12:37:47Z</time>
      </trkpt>
      <trkpt lat="44.43705" lon="1.00199">
        <ele>155.230545</ele>
        <time>2019-08-17T12:37:48Z</time>
      </trkpt>
      <trkpt lat="44.43708" lon="1.00194">
        <ele>154.981552</ele>
        <time>2019-08-17T12:37:49Z</time>
      </trkpt>
      <trkpt lat="44.43713" lon="1.00189">
        <ele>154.981552</ele>
        <time>2019-08-17T12:37:50Z</time>
      </trkpt>
      <trkpt lat="44.43717" lon="1.00184">
        <ele>154.591171</ele>
        <time>2019-08-17T12:37:51Z</time>
      </trkpt>
      <trkpt lat="44.43723" lon="1.0018">
        <ele>154.067276</ele>
        <time>2019-08-17T12:37:52Z</time>
      </trkpt>
      <trkpt lat="44.43728" lon="1.00176">
        <ele>154.067276</ele>
        <time>2019-08-17T12:37:53Z</time>
      </trkpt>
      <trkpt lat="44.43734" lon="1.00173">
        <ele>153.348953</ele>
        <time>2019-08-17T12:37:54Z</time>
      </trkpt>
      <trkpt lat="44.4374" lon="1.00169">
        <ele>152.688675</ele>
        <time>2019-08-17T12:37:55Z</time>
      </trkpt>
      <trkpt lat="44.43746" lon="1.00166">
        <ele>151.978302</ele>
        <time>2019-08-17T12:37:56Z</time>
      </trkpt>
      <trkpt lat="44.4375" lon="1.00163">
        <ele>151.303513</ele>
        <time>2019-08-17T12:37:57Z</time>
      </trkpt>
      <trkpt lat="44.43754" lon="1.00161">
        <ele>150.659531</ele>
        <time>2019-08-17T12:37:58Z</time>
      </trkpt>
      <trkpt lat="44.43758" lon="1.0016">
        <ele>150.659531</ele>
        <time>2019-08-17T12:37:59Z</time>
      </trkpt>
      <trkpt lat="44.4376" lon="1.00161">
        <ele>150.055496</ele>
        <time>2019-08-17T12:38:00Z</time>
      </trkpt>
      <trkpt lat="44.43762" lon="1.00164">
        <ele>149.590622</ele>
        <time>2019-08-17T12:38:01Z</time>
      </trkpt>
      <trkpt lat="44.43762" lon="1.00168">
        <ele>149.186478</ele>
        <time>2019-08-17T12:38:02Z</time>
      </trkpt>
      <trkpt lat="44.43762" lon="1.00172">
        <ele>148.977844</ele>
        <time>2019-08-17T12:38:03Z</time>
      </trkpt>
      <trkpt lat="44.4376" lon="1.00176">
        <ele>148.895004</ele>
        <time>2019-08-17T12:38:04Z</time>
      </trkpt>
      <trkpt lat="44.43758" lon="1.0018">
        <ele>148.895004</ele>
        <time>2019-08-17T12:38:05Z</time>
      </trkpt>
      <trkpt lat="44.43756" lon="1.00184">
        <ele>148.895004</ele>
        <time>2019-08-17T12:38:06Z</time>
      </trkpt>
      <trkpt lat="44.43753" lon="1.00189">
        <ele>148.895004</ele>
        <time>2019-08-17T12:38:07Z</time>
      </trkpt>
      <trkpt lat="44.4375" lon="1.00194">
        <ele>148.937378</ele>
        <time>2019-08-17T12:38:08Z</time>
      </trkpt>
      <trkpt lat="44.43748" lon="1.00199">
        <ele>149.099594</ele>
        <time>2019-08-17T12:38:09Z</time>
      </trkpt>
      <trkpt lat="44.43745" lon="1.00204">
        <ele>149.461288</ele>
        <time>2019-08-17T12:38:10Z</time>
      </trkpt>
      <trkpt lat="44.43743" lon="1.00209">
        <ele>149.935196</ele>
        <time>2019-08-17T12:38:11Z</time>
      </trkpt>
      <trkpt lat="44.4374" lon="1.00215">
        <ele>150.433548</ele>
        <time>2019-08-17T12:38:12Z</time>
      </trkpt>
      <trkpt lat="44.43737" lon="1.00221">
        <ele>150.433548</ele>
        <time>2019-08-17T12:38:13Z</time>
      </trkpt>
      <trkpt lat="44.43735" lon="1.00226">
        <ele>150.953308</ele>
        <time>2019-08-17T12:38:14Z</time>
      </trkpt>
      <trkpt lat="44.43733" lon="1.00232">
        <ele>151.500641</ele>
        <time>2019-08-17T12:38:15Z</time>
      </trkpt>
      <trkpt lat="44.4373" lon="1.00238">
        <ele>152.176651</ele>
        <time>2019-08-17T12:38:16Z</time>
      </trkpt>
      <trkpt lat="44.43728" lon="1.00244">
        <ele>152.807968</ele>
        <time>2019-08-17T12:38:17Z</time>
      </trkpt>
      <trkpt lat="44.43725" lon="1.0025">
        <ele>153.457932</ele>
        <time>2019-08-17T12:38:18Z</time>
      </trkpt>
      <trkpt lat="44.43723" lon="1.00256">
        <ele>154.127182</ele>
        <time>2019-08-17T12:38:19Z</time>
      </trkpt>
      <trkpt lat="44.4372" lon="1.00262">
        <ele>154.812241</ele>
        <time>2019-08-17T12:38:20Z</time>
      </trkpt>
      <trkpt lat="44.43718" lon="1.00267">
        <ele>154.812241</ele>
        <time>2019-08-17T12:38:21Z</time>
      </trkpt>
      <trkpt lat="44.43716" lon="1.00273">
        <ele>155.516098</ele>
        <time>2019-08-17T12:38:22Z</time>
      </trkpt>
      <trkpt lat="44.43713" lon="1.00279">
        <ele>156.058395</ele>
        <time>2019-08-17T12:38:23Z</time>
      </trkpt>
      <trkpt lat="44.43711" lon="1.00284">
        <ele>156.058395</ele>
        <time>2019-08-17T12:38:24Z</time>
      </trkpt>
      <trkpt lat="44.43709" lon="1.0029">
        <ele>156.542648</ele>
        <time>2019-08-17T12:38:25Z</time>
      </trkpt>
      <trkpt lat="44.43707" lon="1.00296">
        <ele>156.94252</ele>
        <time>2019-08-17T12:38:26Z</time>
      </trkpt>
      <trkpt lat="44.43705" lon="1.00302">
        <ele>157.267715</ele>
        <time>2019-08-17T12:38:27Z</time>
      </trkpt>
      <trkpt lat="44.43703" lon="1.00308">
        <ele>157.501984</ele>
        <time>2019-08-17T12:38:28Z</time>
      </trkpt>
      <trkpt lat="44.437" lon="1.00314">
        <ele>157.636414</ele>
        <time>2019-08-17T12:38:29Z</time>
      </trkpt>
      <trkpt lat="44.43698" lon="1.00321">
        <ele>157.636414</ele>
        <time>2019-08-17T12:38:30Z</time>
      </trkpt>
      <trkpt lat="44.43696" lon="1.00327">
        <ele>157.748932</ele>
        <time>2019-08-17T12:38:31Z</time>
      </trkpt>
      <trkpt lat="44.43694" lon="1.00333">
        <ele>157.813568</ele>
        <time>2019-08-17T12:38:32Z</time>
      </trkpt>
      <trkpt lat="44.43693" lon="1.0034">
        <ele>157.813568</ele>
        <time>2019-08-17T12:38:33Z</time>
      </trkpt>
      <trkpt lat="44.43691" lon="1.00346">
        <ele>157.869736</ele>
        <time>2019-08-17T12:38:34Z</time>
      </trkpt>
      <trkpt lat="44.4369" lon="1.00353">
        <ele>157.903595</ele>
        <time>2019-08-17T12:38:35Z</time>
      </trkpt>
      <trkpt lat="44.43689" lon="1.00359">
        <ele>157.928268</ele>
        <time>2019-08-17T12:38:36Z</time>
      </trkpt>
      <trkpt lat="44.43688" lon="1.00365">
        <ele>157.948044</ele>
        <time>2019-08-17T12:38:37Z</time>
      </trkpt>
      <trkpt lat="44.43687" lon="1.00371">
        <ele>157.979904</ele>
        <time>2019-08-17T12:38:38Z</time>
      </trkpt>
      <trkpt lat="44.43687" lon="1.00378">
        <ele>158.016403</ele>
        <time>2019-08-17T12:38:39Z</time>
      </trkpt>
      <trkpt lat="44.43687" lon="1.00385">
        <ele>158.06282</ele>
        <time>2019-08-17T12:38:40Z</time>
      </trkpt>
      <trkpt lat="44.43687" lon="1.00391">
        <ele>158.112915</ele>
        <time>2019-08-17T12:38:41Z</time>
      </trkpt>
      <trkpt lat="44.43686" lon="1.00398">
        <ele>158.112915</ele>
        <time>2019-08-17T12:38:42Z</time>
      </trkpt>
      <trkpt lat="44.43687" lon="1.00405">
        <ele>158.167908</ele>
        <time>2019-08-17T12:38:43Z</time>
      </trkpt>
      <trkpt lat="44.43687" lon="1.00412">
        <ele>158.222137</ele>
        <time>2019-08-17T12:38:44Z</time>
      </trkpt>
      <trkpt lat="44.43687" lon="1.00418">
        <ele>158.319534</ele>
        <time>2019-08-17T12:38:45Z</time>
      </trkpt>
      <trkpt lat="44.43688" lon="1.00425">
        <ele>158.428802</ele>
        <time>2019-08-17T12:38:46Z</time>
      </trkpt>
      <trkpt lat="44.43689" lon="1.00431">
        <ele>158.552078</ele>
        <time>2019-08-17T12:38:47Z</time>
      </trkpt>
      <trkpt lat="44.4369" lon="1.00437">
        <ele>158.552078</ele>
        <time>2019-08-17T12:38:48Z</time>
      </trkpt>
      <trkpt lat="44.43691" lon="1.00443">
        <ele>158.643051</ele>
        <time>2019-08-17T12:38:49Z</time>
      </trkpt>
      <trkpt lat="44.43693" lon="1.00449">
        <ele>158.697159</ele>
        <time>2019-08-17T12:38:50Z</time>
      </trkpt>
      <trkpt lat="44.43694" lon="1.00456">
        <ele>158.713928</ele>
        <time>2019-08-17T12:38:51Z</time>
      </trkpt>
      <trkpt lat="44.43696" lon="1.00462">
        <ele>158.713928</ele>
        <time>2019-08-17T12:38:52Z</time>
      </trkpt>
      <trkpt lat="44.43697" lon="1.00468">
        <ele>158.713928</ele>
        <time>2019-08-17T12:38:53Z</time>
      </trkpt>
      <trkpt lat="44.43699" lon="1.00473">
        <ele>158.641403</ele>
        <time>2019-08-17T12:38:54Z</time>
      </trkpt>
      <trkpt lat="44.43701" lon="1.00479">
        <ele>158.565659</ele>
        <time>2019-08-17T12:38:55Z</time>
      </trkpt>
      <trkpt lat="44.43703" lon="1.00485">
        <ele>158.486893</ele>
        <time>2019-08-17T12:38:56Z</time>
      </trkpt>
      <trkpt lat="44.43705" lon="1.00491">
        <ele>158.45192</ele>
        <time>2019-08-17T12:38:57Z</time>
      </trkpt>
      <trkpt lat="44.43707" lon="1.00497">
        <ele>158.45192</ele>
        <time>2019-08-17T12:38:58Z</time>
      </trkpt>
      <trkpt lat="44.4371" lon="1.00503">
        <ele>158.45192</ele>
        <time>2019-08-17T12:38:59Z</time>
      </trkpt>
      <trkpt lat="44.43712" lon="1.00509">
        <ele>158.45192</ele>
        <time>2019-08-17T12:39:00Z</time>
      </trkpt>
      <trkpt lat="44.43715" lon="1.00514">
        <ele>158.467392</ele>
        <time>2019-08-17T12:39:01Z</time>
      </trkpt>
      <trkpt lat="44.43717" lon="1.0052">
        <ele>158.467392</ele>
        <time>2019-08-17T12:39:02Z</time>
      </trkpt>
      <trkpt lat="44.4372" lon="1.00526">
        <ele>158.555801</ele>
        <time>2019-08-17T12:39:03Z</time>
      </trkpt>
      <trkpt lat="44.43722" lon="1.00531">
        <ele>158.696213</ele>
        <time>2019-08-17T12:39:04Z</time>
      </trkpt>
      <trkpt lat="44.43724" lon="1.00536">
        <ele>158.849533</ele>
        <time>2019-08-17T12:39:05Z</time>
      </trkpt>
      <trkpt lat="44.43727" lon="1.00542">
        <ele>158.849533</ele>
        <time>2019-08-17T12:39:06Z</time>
      </trkpt>
      <trkpt lat="44.43729" lon="1.00547">
        <ele>158.973068</ele>
        <time>2019-08-17T12:39:07Z</time>
      </trkpt>
      <trkpt lat="44.43732" lon="1.00553">
        <ele>159.06781</ele>
        <time>2019-08-17T12:39:08Z</time>
      </trkpt>
      <trkpt lat="44.43734" lon="1.00558">
        <ele>159.134628</ele>
        <time>2019-08-17T12:39:09Z</time>
      </trkpt>
      <trkpt lat="44.43736" lon="1.00562">
        <ele>159.156631</ele>
        <time>2019-08-17T12:39:10Z</time>
      </trkpt>
      <trkpt lat="44.43739" lon="1.00567">
        <ele>159.156631</ele>
        <time>2019-08-17T12:39:11Z</time>
      </trkpt>
      <trkpt lat="44.43741" lon="1.00571">
        <ele>159.156631</ele>
        <time>2019-08-17T12:39:12Z</time>
      </trkpt>
      <trkpt lat="44.43744" lon="1.00574">
        <ele>159.156631</ele>
        <time>2019-08-17T12:39:13Z</time>
      </trkpt>
      <trkpt lat="44.43747" lon="1.00577">
        <ele>159.149216</ele>
        <time>2019-08-17T12:39:14Z</time>
      </trkpt>
      <trkpt lat="44.43749" lon="1.00579">
        <ele>159.104416</ele>
        <time>2019-08-17T12:39:15Z</time>
      </trkpt>
      <trkpt lat="44.43752" lon="1.00581">
        <ele>159.070068</ele>
        <time>2019-08-17T12:39:16Z</time>
      </trkpt>
      <trkpt lat="44.43754" lon="1.00584">
        <ele>159.043777</ele>
        <time>2019-08-17T12:39:17Z</time>
      </trkpt>
      <trkpt lat="44.43756" lon="1.00588">
        <ele>159.023193</ele>
        <time>2019-08-17T12:39:18Z</time>
      </trkpt>
      <trkpt lat="44.43757" lon="1.00592">
        <ele>159.006668</ele>
        <time>2019-08-17T12:39:19Z</time>
      </trkpt>
      <trkpt lat="44.43759" lon="1.00597">
        <ele>159.000565</ele>
        <time>2019-08-17T12:39:20Z</time>
      </trkpt>
      <trkpt lat="44.43759" lon="1.00602">
        <ele>158.99292</ele>
        <time>2019-08-17T12:39:21Z</time>
      </trkpt>
      <trkpt lat="44.4376" lon="1.00607">
        <ele>158.978348</ele>
        <time>2019-08-17T12:39:22Z</time>
      </trkpt>
      <trkpt lat="44.4376" lon="1.00613">
        <ele>158.978348</ele>
        <time>2019-08-17T12:39:23Z</time>
      </trkpt>
      <trkpt lat="44.4376" lon="1.00618">
        <ele>158.951782</ele>
        <time>2019-08-17T12:39:24Z</time>
      </trkpt>
      <trkpt lat="44.4376" lon="1.00624">
        <ele>158.90448</ele>
        <time>2019-08-17T12:39:25Z</time>
      </trkpt>
      <trkpt lat="44.4376" lon="1.0063">
        <ele>158.6866</ele>
        <time>2019-08-17T12:39:26Z</time>
      </trkpt>
      <trkpt lat="44.43759" lon="1.00636">
        <ele>158.6866</ele>
        <time>2019-08-17T12:39:27Z</time>
      </trkpt>
      <trkpt lat="44.43759" lon="1.00643">
        <ele>158.544235</ele>
        <time>2019-08-17T12:39:28Z</time>
      </trkpt>
      <trkpt lat="44.43758" lon="1.00649">
        <ele>158.408798</ele>
        <time>2019-08-17T12:39:29Z</time>
      </trkpt>
      <trkpt lat="44.43758" lon="1.00656">
        <ele>158.233459</ele>
        <time>2019-08-17T12:39:30Z</time>
      </trkpt>
      <trkpt lat="44.43757" lon="1.00663">
        <ele>158.049942</ele>
        <time>2019-08-17T12:39:31Z</time>
      </trkpt>
      <trkpt lat="44.43756" lon="1.00669">
        <ele>157.884338</ele>
        <time>2019-08-17T12:39:32Z</time>
      </trkpt>
      <trkpt lat="44.43755" lon="1.00675">
        <ele>157.713943</ele>
        <time>2019-08-17T12:39:33Z</time>
      </trkpt>
      <trkpt lat="44.43754" lon="1.00681">
        <ele>157.713943</ele>
        <time>2019-08-17T12:39:34Z</time>
      </trkpt>
      <trkpt lat="44.43753" lon="1.00687">
        <ele>157.542694</ele>
        <time>2019-08-17T12:39:35Z</time>
      </trkpt>
      <trkpt lat="44.43753" lon="1.00693">
        <ele>157.347427</ele>
        <time>2019-08-17T12:39:36Z</time>
      </trkpt>
      <trkpt lat="44.43752" lon="1.00699">
        <ele>157.160309</ele>
        <time>2019-08-17T12:39:37Z</time>
      </trkpt>
      <trkpt lat="44.43752" lon="1.00705">
        <ele>156.981339</ele>
        <time>2019-08-17T12:39:38Z</time>
      </trkpt>
      <trkpt lat="44.4375" lon="1.00711">
        <ele>156.981339</ele>
        <time>2019-08-17T12:39:39Z</time>
      </trkpt>
      <trkpt lat="44.43749" lon="1.00717">
        <ele>156.81105</ele>
        <time>2019-08-17T12:39:40Z</time>
      </trkpt>
      <trkpt lat="44.43748" lon="1.00722">
        <ele>156.650803</ele>
        <time>2019-08-17T12:39:41Z</time>
      </trkpt>
      <trkpt lat="44.43747" lon="1.00727">
        <ele>156.477875</ele>
        <time>2019-08-17T12:39:42Z</time>
      </trkpt>
      <trkpt lat="44.43746" lon="1.00731">
        <ele>156.477875</ele>
        <time>2019-08-17T12:39:43Z</time>
      </trkpt>
      <trkpt lat="44.43744" lon="1.00736">
        <ele>156.313553</ele>
        <time>2019-08-17T12:39:44Z</time>
      </trkpt>
      <trkpt lat="44.43744" lon="1.00742">
        <ele>156.189667</ele>
        <time>2019-08-17T12:39:45Z</time>
      </trkpt>
      <trkpt lat="44.43743" lon="1.00749">
        <ele>156.189667</ele>
        <time>2019-08-17T12:39:46Z</time>
      </trkpt>
      <trkpt lat="44.43743" lon="1.00756">
        <ele>156.123886</ele>
        <time>2019-08-17T12:39:47Z</time>
      </trkpt>
      <trkpt lat="44.43743" lon="1.00763">
        <ele>156.095367</ele>
        <time>2019-08-17T12:39:48Z</time>
      </trkpt>
      <trkpt lat="44.43743" lon="1.0077">
        <ele>156.095367</ele>
        <time>2019-08-17T12:39:49Z</time>
      </trkpt>
      <trkpt lat="44.43744" lon="1.00776">
        <ele>156.095367</ele>
        <time>2019-08-17T12:39:50Z</time>
      </trkpt>
      <trkpt lat="44.43745" lon="1.00783">
        <ele>156.095367</ele>
        <time>2019-08-17T12:39:51Z</time>
      </trkpt>
      <trkpt lat="44.43745" lon="1.00789">
        <ele>156.097519</ele>
        <time>2019-08-17T12:39:52Z</time>
      </trkpt>
      <trkpt lat="44.43747" lon="1.00795">
        <ele>156.163116</ele>
        <time>2019-08-17T12:39:53Z</time>
      </trkpt>
      <trkpt lat="44.43749" lon="1.00801">
        <ele>156.163116</ele>
        <time>2019-08-17T12:39:54Z</time>
      </trkpt>
      <trkpt lat="44.4375" lon="1.00806">
        <ele>156.248611</ele>
        <time>2019-08-17T12:39:55Z</time>
      </trkpt>
      <trkpt lat="44.43752" lon="1.00811">
        <ele>156.342041</ele>
        <time>2019-08-17T12:39:56Z</time>
      </trkpt>
      <trkpt lat="44.43754" lon="1.00816">
        <ele>156.400284</ele>
        <time>2019-08-17T12:39:57Z</time>
      </trkpt>
      <trkpt lat="44.43755" lon="1.00821">
        <ele>156.513626</ele>
        <time>2019-08-17T12:39:58Z</time>
      </trkpt>
      <trkpt lat="44.43757" lon="1.00827">
        <ele>156.674316</ele>
        <time>2019-08-17T12:39:59Z</time>
      </trkpt>
      <trkpt lat="44.43759" lon="1.00832">
        <ele>156.674316</ele>
        <time>2019-08-17T12:40:00Z</time>
      </trkpt>
      <trkpt lat="44.4376" lon="1.00837">
        <ele>156.877182</ele>
        <time>2019-08-17T12:40:01Z</time>
      </trkpt>
      <trkpt lat="44.43762" lon="1.00841">
        <ele>157.147018</ele>
        <time>2019-08-17T12:40:02Z</time>
      </trkpt>
      <trkpt lat="44.43764" lon="1.00846">
        <ele>157.549362</ele>
        <time>2019-08-17T12:40:03Z</time>
      </trkpt>
      <trkpt lat="44.43765" lon="1.0085">
        <ele>157.996536</ele>
        <time>2019-08-17T12:40:04Z</time>
      </trkpt>
      <trkpt lat="44.43766" lon="1.00855">
        <ele>158.412048</ele>
        <time>2019-08-17T12:40:05Z</time>
      </trkpt>
      <trkpt lat="44.43767" lon="1.00858">
        <ele>158.816483</ele>
        <time>2019-08-17T12:40:06Z</time>
      </trkpt>
      <trkpt lat="44.43769" lon="1.00861">
        <ele>159.226364</ele>
        <time>2019-08-17T12:40:07Z</time>
      </trkpt>
      <trkpt lat="44.43771" lon="1.00862">
        <ele>159.630554</ele>
        <time>2019-08-17T12:40:08Z</time>
      </trkpt>
      <trkpt lat="44.43773" lon="1.00863">
        <ele>159.630554</ele>
        <time>2019-08-17T12:40:09Z</time>
      </trkpt>
      <trkpt lat="44.43775" lon="1.00863">
        <ele>159.955215</ele>
        <time>2019-08-17T12:40:10Z</time>
      </trkpt>
      <trkpt lat="44.43777" lon="1.00864">
        <ele>160.245178</ele>
        <time>2019-08-17T12:40:11Z</time>
      </trkpt>
      <trkpt lat="44.43779" lon="1.00865">
        <ele>160.488831</ele>
        <time>2019-08-17T12:40:12Z</time>
      </trkpt>
      <trkpt lat="44.43781" lon="1.00867">
        <ele>160.685654</ele>
        <time>2019-08-17T12:40:13Z</time>
      </trkpt>
      <trkpt lat="44.43782" lon="1.0087">
        <ele>160.82251</ele>
        <time>2019-08-17T12:40:14Z</time>
      </trkpt>
      <trkpt lat="44.43784" lon="1.00872">
        <ele>160.90239</ele>
        <time>2019-08-17T12:40:15Z</time>
      </trkpt>
      <trkpt lat="44.43785" lon="1.00875">
        <ele>160.930038</ele>
        <time>2019-08-17T12:40:16Z</time>
      </trkpt>
      <trkpt lat="44.43786" lon="1.00878">
        <ele>160.965637</ele>
        <time>2019-08-17T12:40:17Z</time>
      </trkpt>
      <trkpt lat="44.43788" lon="1.0088">
        <ele>161.021744</ele>
        <time>2019-08-17T12:40:18Z</time>
      </trkpt>
      <trkpt lat="44.43789" lon="1.00882">
        <ele>161.082275</ele>
        <time>2019-08-17T12:40:19Z</time>
      </trkpt>
      <trkpt lat="44.43791" lon="1.00884">
        <ele>161.168335</ele>
        <time>2019-08-17T12:40:20Z</time>
      </trkpt>
      <trkpt lat="44.43793" lon="1.00886">
        <ele>161.289612</ele>
        <time>2019-08-17T12:40:21Z</time>
      </trkpt>
      <trkpt lat="44.43794" lon="1.00888">
        <ele>161.411804</ele>
        <time>2019-08-17T12:40:22Z</time>
      </trkpt>
      <trkpt lat="44.43795" lon="1.0089">
        <ele>161.510605</ele>
        <time>2019-08-17T12:40:23Z</time>
      </trkpt>
      <trkpt lat="44.43797" lon="1.00893">
        <ele>161.590591</ele>
        <time>2019-08-17T12:40:24Z</time>
      </trkpt>
      <trkpt lat="44.43798" lon="1.00895">
        <ele>161.65239</ele>
        <time>2019-08-17T12:40:25Z</time>
      </trkpt>
      <trkpt lat="44.438" lon="1.00897">
        <ele>161.70137</ele>
        <time>2019-08-17T12:40:26Z</time>
      </trkpt>
      <trkpt lat="44.43802" lon="1.00899">
        <ele>161.740982</ele>
        <time>2019-08-17T12:40:27Z</time>
      </trkpt>
      <trkpt lat="44.43803" lon="1.00902">
        <ele>161.778046</ele>
        <time>2019-08-17T12:40:28Z</time>
      </trkpt>
      <trkpt lat="44.43805" lon="1.00904">
        <ele>161.816483</ele>
        <time>2019-08-17T12:40:29Z</time>
      </trkpt>
      <trkpt lat="44.43807" lon="1.00907">
        <ele>161.816483</ele>
        <time>2019-08-17T12:40:30Z</time>
      </trkpt>
      <trkpt lat="44.43808" lon="1.0091">
        <ele>161.852737</ele>
        <time>2019-08-17T12:40:31Z</time>
      </trkpt>
      <trkpt lat="44.43809" lon="1.00912">
        <ele>161.88179</ele>
        <time>2019-08-17T12:40:32Z</time>
      </trkpt>
      <trkpt lat="44.43811" lon="1.00913">
        <ele>161.901138</ele>
        <time>2019-08-17T12:40:33Z</time>
      </trkpt>
      <trkpt lat="44.43813" lon="1.00913">
        <ele>161.901138</ele>
        <time>2019-08-17T12:40:34Z</time>
      </trkpt>
      <trkpt lat="44.43813" lon="1.00911">
        <ele>161.901138</ele>
        <time>2019-08-17T12:40:35Z</time>
      </trkpt>
      <trkpt lat="44.43813" lon="1.00909">
        <ele>161.885727</ele>
        <time>2019-08-17T12:40:36Z</time>
      </trkpt>
      <trkpt lat="44.43813" lon="1.00906">
        <ele>161.828888</ele>
        <time>2019-08-17T12:40:37Z</time>
      </trkpt>
      <trkpt lat="44.43813" lon="1.00904">
        <ele>161.743561</ele>
        <time>2019-08-17T12:40:38Z</time>
      </trkpt>
      <trkpt lat="44.43812" lon="1.00901">
        <ele>161.633606</ele>
        <time>2019-08-17T12:40:39Z</time>
      </trkpt>
      <trkpt lat="44.43811" lon="1.00898">
        <ele>161.506241</ele>
        <time>2019-08-17T12:40:40Z</time>
      </trkpt>
      <trkpt lat="44.43811" lon="1.00895">
        <ele>161.366257</ele>
        <time>2019-08-17T12:40:41Z</time>
      </trkpt>
      <trkpt lat="44.4381" lon="1.00892">
        <ele>161.366257</ele>
        <time>2019-08-17T12:40:42Z</time>
      </trkpt>
      <trkpt lat="44.4381" lon="1.00888">
        <ele>161.233932</ele>
        <time>2019-08-17T12:40:43Z</time>
      </trkpt>
      <trkpt lat="44.4381" lon="1.00884">
        <ele>161.124466</ele>
        <time>2019-08-17T12:40:44Z</time>
      </trkpt>
      <trkpt lat="44.43809" lon="1.00881">
        <ele>161.003281</ele>
        <time>2019-08-17T12:40:45Z</time>
      </trkpt>
      <trkpt lat="44.43808" lon="1.00877">
        <ele>160.868103</ele>
        <time>2019-08-17T12:40:46Z</time>
      </trkpt>
      <trkpt lat="44.43808" lon="1.00873">
        <ele>160.721024</ele>
        <time>2019-08-17T12:40:47Z</time>
      </trkpt>
      <trkpt lat="44.43807" lon="1.00869">
        <ele>160.554489</ele>
        <time>2019-08-17T12:40:48Z</time>
      </trkpt>
      <trkpt lat="44.43807" lon="1.00865">
        <ele>160.372421</ele>
        <time>2019-08-17T12:40:49Z</time>
      </trkpt>
      <trkpt lat="44.43806" lon="1.00861">
        <ele>160.17186</ele>
        <time>2019-08-17T12:40:50Z</time>
      </trkpt>
      <trkpt lat="44.43806" lon="1.00857">
        <ele>159.981979</ele>
        <time>2019-08-17T12:40:51Z</time>
      </trkpt>
      <trkpt lat="44.43805" lon="1.00854">
        <ele>159.804199</ele>
        <time>2019-08-17T12:40:52Z</time>
      </trkpt>
      <trkpt lat="44.43805" lon="1.0085">
        <ele>159.636292</ele>
        <time>2019-08-17T12:40:53Z</time>
      </trkpt>
      <trkpt lat="44.43805" lon="1.00846">
        <ele>159.47731</ele>
        <time>2019-08-17T12:40:54Z</time>
      </trkpt>
      <trkpt lat="44.43805" lon="1.00842">
        <ele>159.324997</ele>
        <time>2019-08-17T12:40:55Z</time>
      </trkpt>
      <trkpt lat="44.43804" lon="1.00839">
        <ele>159.177719</ele>
        <time>2019-08-17T12:40:56Z</time>
      </trkpt>
      <trkpt lat="44.43804" lon="1.00836">
        <ele>159.0392</ele>
        <time>2019-08-17T12:40:57Z</time>
      </trkpt>
      <trkpt lat="44.43804" lon="1.00832">
        <ele>158.899948</ele>
        <time>2019-08-17T12:40:58Z</time>
      </trkpt>
      <trkpt lat="44.43804" lon="1.00828">
        <ele>158.761154</ele>
        <time>2019-08-17T12:40:59Z</time>
      </trkpt>
      <trkpt lat="44.43804" lon="1.00825">
        <ele>158.761154</ele>
        <time>2019-08-17T12:41:00Z</time>
      </trkpt>
      <trkpt lat="44.43804" lon="1.00822">
        <ele>158.620407</ele>
        <time>2019-08-17T12:41:01Z</time>
      </trkpt>
      <trkpt lat="44.43804" lon="1.00818">
        <ele>158.477432</ele>
        <time>2019-08-17T12:41:02Z</time>
      </trkpt>
      <trkpt lat="44.43804" lon="1.00815">
        <ele>158.309341</ele>
        <time>2019-08-17T12:41:03Z</time>
      </trkpt>
      <trkpt lat="44.43804" lon="1.00811">
        <ele>158.141922</ele>
        <time>2019-08-17T12:41:04Z</time>
      </trkpt>
      <trkpt lat="44.43805" lon="1.00808">
        <ele>157.975266</ele>
        <time>2019-08-17T12:41:05Z</time>
      </trkpt>
      <trkpt lat="44.43805" lon="1.00805">
        <ele>157.805344</ele>
        <time>2019-08-17T12:41:06Z</time>
      </trkpt>
      <trkpt lat="44.43805" lon="1.00802">
        <ele>157.63649</ele>
        <time>2019-08-17T12:41:07Z</time>
      </trkpt>
      <trkpt lat="44.43806" lon="1.00799">
        <ele>157.63649</ele>
        <time>2019-08-17T12:41:08Z</time>
      </trkpt>
      <trkpt lat="44.43806" lon="1.00795">
        <ele>157.472382</ele>
        <time>2019-08-17T12:41:09Z</time>
      </trkpt>
      <trkpt lat="44.43807" lon="1.00792">
        <ele>157.339355</ele>
        <time>2019-08-17T12:41:10Z</time>
      </trkpt>
      <trkpt lat="44.43807" lon="1.00789">
        <ele>157.238525</ele>
        <time>2019-08-17T12:41:11Z</time>
      </trkpt>
      <trkpt lat="44.43807" lon="1.00785">
        <ele>157.178207</ele>
        <time>2019-08-17T12:41:12Z</time>
      </trkpt>
      <trkpt lat="44.43807" lon="1.00782">
        <ele>157.157379</ele>
        <time>2019-08-17T12:41:13Z</time>
      </trkpt>
      <trkpt lat="44.43807" lon="1.0078">
        <ele>157.157379</ele>
        <time>2019-08-17T12:41:14Z</time>
      </trkpt>
      <trkpt lat="44.43808" lon="1.00777">
        <ele>157.157379</ele>
        <time>2019-08-17T12:41:15Z</time>
      </trkpt>
      <trkpt lat="44.43808" lon="1.00775">
        <ele>157.173492</ele>
        <time>2019-08-17T12:41:16Z</time>
      </trkpt>
      <trkpt lat="44.4381" lon="1.00775">
        <ele>157.223465</ele>
        <time>2019-08-17T12:41:17Z</time>
      </trkpt>
      <trkpt lat="44.43811" lon="1.00776">
        <ele>157.223465</ele>
        <time>2019-08-17T12:41:18Z</time>
      </trkpt>
      <trkpt lat="44.43813" lon="1.00778">
        <ele>157.31015</ele>
        <time>2019-08-17T12:41:19Z</time>
      </trkpt>
      <trkpt lat="44.43813" lon="1.00781">
        <ele>157.406357</ele>
        <time>2019-08-17T12:41:20Z</time>
      </trkpt>
      <trkpt lat="44.43814" lon="1.00785">
        <ele>157.499878</ele>
        <time>2019-08-17T12:41:21Z</time>
      </trkpt>
      <trkpt lat="44.43815" lon="1.00788">
        <ele>157.567429</ele>
        <time>2019-08-17T12:41:22Z</time>
      </trkpt>
      <trkpt lat="44.43815" lon="1.00791">
        <ele>157.608658</ele>
        <time>2019-08-17T12:41:23Z</time>
      </trkpt>
      <trkpt lat="44.43816" lon="1.00794">
        <ele>157.624908</ele>
        <time>2019-08-17T12:41:24Z</time>
      </trkpt>
      <trkpt lat="44.43817" lon="1.00796">
        <ele>157.624908</ele>
        <time>2019-08-17T12:41:25Z</time>
      </trkpt>
      <trkpt lat="44.43818" lon="1.00799">
        <ele>157.624908</ele>
        <time>2019-08-17T12:41:26Z</time>
      </trkpt>
      <trkpt lat="44.43819" lon="1.00801">
        <ele>157.615067</ele>
        <time>2019-08-17T12:41:27Z</time>
      </trkpt>
      <trkpt lat="44.43819" lon="1.00804">
        <ele>157.5802</ele>
        <time>2019-08-17T12:41:28Z</time>
      </trkpt>
      <trkpt lat="44.4382" lon="1.00806">
        <ele>157.541672</ele>
        <time>2019-08-17T12:41:29Z</time>
      </trkpt>
      <trkpt lat="44.43821" lon="1.00809">
        <ele>157.526581</ele>
        <time>2019-08-17T12:41:30Z</time>
      </trkpt>
      <trkpt lat="44.43821" lon="1.00811">
        <ele>157.526581</ele>
        <time>2019-08-17T12:41:31Z</time>
      </trkpt>
      <trkpt lat="44.43823" lon="1.00812">
        <ele>157.526581</ele>
        <time>2019-08-17T12:41:32Z</time>
      </trkpt>
      <trkpt lat="44.43824" lon="1.00813">
        <ele>157.535019</ele>
        <time>2019-08-17T12:41:33Z</time>
      </trkpt>
      <trkpt lat="44.43825" lon="1.00812">
        <ele>157.535019</ele>
        <time>2019-08-17T12:41:34Z</time>
      </trkpt>
      <trkpt lat="44.43825" lon="1.0081">
        <ele>157.563995</ele>
        <time>2019-08-17T12:41:35Z</time>
      </trkpt>
      <trkpt lat="44.43825" lon="1.00808">
        <ele>157.609818</ele>
        <time>2019-08-17T12:41:36Z</time>
      </trkpt>
      <trkpt lat="44.43825" lon="1.00806">
        <ele>157.666245</ele>
        <time>2019-08-17T12:41:37Z</time>
      </trkpt>
      <trkpt lat="44.43825" lon="1.00803">
        <ele>157.706543</ele>
        <time>2019-08-17T12:41:38Z</time>
      </trkpt>
      <trkpt lat="44.43826" lon="1.008">
        <ele>157.727676</ele>
        <time>2019-08-17T12:41:39Z</time>
      </trkpt>
      <trkpt lat="44.43826" lon="1.00796">
        <ele>157.735641</ele>
        <time>2019-08-17T12:41:40Z</time>
      </trkpt>
      <trkpt lat="44.43827" lon="1.00793">
        <ele>157.751358</ele>
        <time>2019-08-17T12:41:41Z</time>
      </trkpt>
      <trkpt lat="44.43827" lon="1.0079">
        <ele>157.768295</ele>
        <time>2019-08-17T12:41:42Z</time>
      </trkpt>
      <trkpt lat="44.43827" lon="1.00787">
        <ele>157.791794</ele>
        <time>2019-08-17T12:41:43Z</time>
      </trkpt>
      <trkpt lat="44.43827" lon="1.00783">
        <ele>157.83519</ele>
        <time>2019-08-17T12:41:44Z</time>
      </trkpt>
      <trkpt lat="44.43828" lon="1.0078">
        <ele>157.893387</ele>
        <time>2019-08-17T12:41:45Z</time>
      </trkpt>
      <trkpt lat="44.43828" lon="1.00777">
        <ele>157.978607</ele>
        <time>2019-08-17T12:41:46Z</time>
      </trkpt>
      <trkpt lat="44.43829" lon="1.00773">
        <ele>158.090149</ele>
        <time>2019-08-17T12:41:47Z</time>
      </trkpt>
      <trkpt lat="44.43829" lon="1.0077">
        <ele>158.090149</ele>
        <time>2019-08-17T12:41:48Z</time>
      </trkpt>
      <trkpt lat="44.43829" lon="1.00766">
        <ele>158.232132</ele>
        <time>2019-08-17T12:41:49Z</time>
      </trkpt>
      <trkpt lat="44.4383" lon="1.00762">
        <ele>158.382797</ele>
        <time>2019-08-17T12:41:50Z</time>
      </trkpt>
      <trkpt lat="44.4383" lon="1.00759">
        <ele>158.565933</ele>
        <time>2019-08-17T12:41:51Z</time>
      </trkpt>
      <trkpt lat="44.43831" lon="1.00755">
        <ele>158.754059</ele>
        <time>2019-08-17T12:41:52Z</time>
      </trkpt>
      <trkpt lat="44.43831" lon="1.00752">
        <ele>158.945358</ele>
        <time>2019-08-17T12:41:53Z</time>
      </trkpt>
      <trkpt lat="44.43831" lon="1.00749">
        <ele>159.14032</ele>
        <time>2019-08-17T12:41:54Z</time>
      </trkpt>
      <trkpt lat="44.43832" lon="1.00746">
        <ele>159.341431</ele>
        <time>2019-08-17T12:41:55Z</time>
      </trkpt>
      <trkpt lat="44.43832" lon="1.00743">
        <ele>159.545242</ele>
        <time>2019-08-17T12:41:56Z</time>
      </trkpt>
      <trkpt lat="44.43833" lon="1.00739">
        <ele>159.718307</ele>
        <time>2019-08-17T12:41:57Z</time>
      </trkpt>
      <trkpt lat="44.43834" lon="1.00736">
        <ele>159.8918</ele>
        <time>2019-08-17T12:41:58Z</time>
      </trkpt>
      <trkpt lat="44.43834" lon="1.00733">
        <ele>160.072891</ele>
        <time>2019-08-17T12:41:59Z</time>
      </trkpt>
      <trkpt lat="44.43835" lon="1.0073">
        <ele>160.288452</ele>
        <time>2019-08-17T12:42:00Z</time>
      </trkpt>
      <trkpt lat="44.43835" lon="1.00726">
        <ele>160.288452</ele>
        <time>2019-08-17T12:42:01Z</time>
      </trkpt>
      <trkpt lat="44.43835" lon="1.00723">
        <ele>160.527939</ele>
        <time>2019-08-17T12:42:02Z</time>
      </trkpt>
      <trkpt lat="44.43836" lon="1.0072">
        <ele>160.802673</ele>
        <time>2019-08-17T12:42:03Z</time>
      </trkpt>
      <trkpt lat="44.43837" lon="1.00716">
        <ele>160.802673</ele>
        <time>2019-08-17T12:42:04Z</time>
      </trkpt>
      <trkpt lat="44.43837" lon="1.00713">
        <ele>161.145737</ele>
        <time>2019-08-17T12:42:05Z</time>
      </trkpt>
      <trkpt lat="44.43837" lon="1.00709">
        <ele>161.504211</ele>
        <time>2019-08-17T12:42:06Z</time>
      </trkpt>
      <trkpt lat="44.43838" lon="1.00706">
        <ele>161.933853</ele>
        <time>2019-08-17T12:42:07Z</time>
      </trkpt>
      <trkpt lat="44.43838" lon="1.00702">
        <ele>162.354553</ele>
        <time>2019-08-17T12:42:08Z</time>
      </trkpt>
      <trkpt lat="44.43839" lon="1.00699">
        <ele>162.773575</ele>
        <time>2019-08-17T12:42:09Z</time>
      </trkpt>
      <trkpt lat="44.43839" lon="1.00696">
        <ele>163.173859</ele>
        <time>2019-08-17T12:42:10Z</time>
      </trkpt>
      <trkpt lat="44.4384" lon="1.00693">
        <ele>163.530548</ele>
        <time>2019-08-17T12:42:11Z</time>
      </trkpt>
      <trkpt lat="44.4384" lon="1.0069">
        <ele>163.891663</ele>
        <time>2019-08-17T12:42:12Z</time>
      </trkpt>
      <trkpt lat="44.43841" lon="1.00687">
        <ele>163.891663</ele>
        <time>2019-08-17T12:42:13Z</time>
      </trkpt>
      <trkpt lat="44.43841" lon="1.00685">
        <ele>164.196457</ele>
        <time>2019-08-17T12:42:14Z</time>
      </trkpt>
      <trkpt lat="44.43842" lon="1.00682">
        <ele>164.497849</ele>
        <time>2019-08-17T12:42:15Z</time>
      </trkpt>
      <trkpt lat="44.43842" lon="1.00679">
        <ele>164.823029</ele>
        <time>2019-08-17T12:42:16Z</time>
      </trkpt>
      <trkpt lat="44.43842" lon="1.00675">
        <ele>165.149811</ele>
        <time>2019-08-17T12:42:17Z</time>
      </trkpt>
      <trkpt lat="44.43842" lon="1.00672">
        <ele>165.473099</ele>
        <time>2019-08-17T12:42:18Z</time>
      </trkpt>
      <trkpt lat="44.43843" lon="1.00668">
        <ele>165.786011</ele>
        <time>2019-08-17T12:42:19Z</time>
      </trkpt>
      <trkpt lat="44.43844" lon="1.00665">
        <ele>166.079819</ele>
        <time>2019-08-17T12:42:20Z</time>
      </trkpt>
      <trkpt lat="44.43844" lon="1.00662">
        <ele>166.356461</ele>
        <time>2019-08-17T12:42:21Z</time>
      </trkpt>
      <trkpt lat="44.43844" lon="1.00659">
        <ele>166.356461</ele>
        <time>2019-08-17T12:42:22Z</time>
      </trkpt>
      <trkpt lat="44.43844" lon="1.00657">
        <ele>166.605453</ele>
        <time>2019-08-17T12:42:23Z</time>
      </trkpt>
      <trkpt lat="44.43845" lon="1.00654">
        <ele>166.85556</ele>
        <time>2019-08-17T12:42:24Z</time>
      </trkpt>
      <trkpt lat="44.43845" lon="1.00651">
        <ele>167.1577</ele>
        <time>2019-08-17T12:42:25Z</time>
      </trkpt>
      <trkpt lat="44.43845" lon="1.00648">
        <ele>167.460007</ele>
        <time>2019-08-17T12:42:26Z</time>
      </trkpt>
      <trkpt lat="44.43844" lon="1.00645">
        <ele>167.762436</ele>
        <time>2019-08-17T12:42:27Z</time>
      </trkpt>
      <trkpt lat="44.43845" lon="1.00641">
        <ele>168.05632</ele>
        <time>2019-08-17T12:42:28Z</time>
      </trkpt>
      <trkpt lat="44.43845" lon="1.00639">
        <ele>168.32634</ele>
        <time>2019-08-17T12:42:29Z</time>
      </trkpt>
      <trkpt lat="44.43846" lon="1.00636">
        <ele>168.567459</ele>
        <time>2019-08-17T12:42:30Z</time>
      </trkpt>
      <trkpt lat="44.43846" lon="1.00633">
        <ele>168.753891</ele>
        <time>2019-08-17T12:42:31Z</time>
      </trkpt>
      <trkpt lat="44.43846" lon="1.0063">
        <ele>168.942734</ele>
        <time>2019-08-17T12:42:32Z</time>
      </trkpt>
      <trkpt lat="44.43846" lon="1.00627">
        <ele>169.150253</ele>
        <time>2019-08-17T12:42:33Z</time>
      </trkpt>
      <trkpt lat="44.43846" lon="1.00623">
        <ele>169.374863</ele>
        <time>2019-08-17T12:42:34Z</time>
      </trkpt>
      <trkpt lat="44.43846" lon="1.0062">
        <ele>169.608063</ele>
        <time>2019-08-17T12:42:35Z</time>
      </trkpt>
      <trkpt lat="44.43846" lon="1.00618">
        <ele>169.608063</ele>
        <time>2019-08-17T12:42:36Z</time>
      </trkpt>
      <trkpt lat="44.43846" lon="1.00615">
        <ele>169.848404</ele>
        <time>2019-08-17T12:42:37Z</time>
      </trkpt>
      <trkpt lat="44.43846" lon="1.00611">
        <ele>170.060135</ele>
        <time>2019-08-17T12:42:38Z</time>
      </trkpt>
      <trkpt lat="44.43846" lon="1.00608">
        <ele>170.270004</ele>
        <time>2019-08-17T12:42:39Z</time>
      </trkpt>
      <trkpt lat="44.43845" lon="1.00605">
        <ele>170.445618</ele>
        <time>2019-08-17T12:42:40Z</time>
      </trkpt>
      <trkpt lat="44.43845" lon="1.00602">
        <ele>170.606613</ele>
        <time>2019-08-17T12:42:41Z</time>
      </trkpt>
      <trkpt lat="44.43846" lon="1.006">
        <ele>170.757278</ele>
        <time>2019-08-17T12:42:42Z</time>
      </trkpt>
      <trkpt lat="44.43845" lon="1.00597">
        <ele>170.898682</ele>
        <time>2019-08-17T12:42:43Z</time>
      </trkpt>
      <trkpt lat="44.43845" lon="1.00594">
        <ele>171.047287</ele>
        <time>2019-08-17T12:42:44Z</time>
      </trkpt>
      <trkpt lat="44.43845" lon="1.00591">
        <ele>171.188171</ele>
        <time>2019-08-17T12:42:45Z</time>
      </trkpt>
      <trkpt lat="44.43845" lon="1.00588">
        <ele>171.329422</ele>
        <time>2019-08-17T12:42:46Z</time>
      </trkpt>
      <trkpt lat="44.43844" lon="1.00584">
        <ele>171.445511</ele>
        <time>2019-08-17T12:42:47Z</time>
      </trkpt>
      <trkpt lat="44.43844" lon="1.00581">
        <ele>171.533752</ele>
        <time>2019-08-17T12:42:48Z</time>
      </trkpt>
      <trkpt lat="44.43844" lon="1.00578">
        <ele>171.606873</ele>
        <time>2019-08-17T12:42:49Z</time>
      </trkpt>
      <trkpt lat="44.43844" lon="1.00575">
        <ele>171.657547</ele>
        <time>2019-08-17T12:42:50Z</time>
      </trkpt>
      <trkpt lat="44.43844" lon="1.00572">
        <ele>171.669922</ele>
        <time>2019-08-17T12:42:51Z</time>
      </trkpt>
      <trkpt lat="44.43843" lon="1.00569">
        <ele>171.669922</ele>
        <time>2019-08-17T12:42:52Z</time>
      </trkpt>
      <trkpt lat="44.43843" lon="1.00566">
        <ele>171.669922</ele>
        <time>2019-08-17T12:42:53Z</time>
      </trkpt>
      <trkpt lat="44.43843" lon="1.00564">
        <ele>171.669922</ele>
        <time>2019-08-17T12:42:54Z</time>
      </trkpt>
      <trkpt lat="44.43843" lon="1.00561">
        <ele>171.667114</ele>
        <time>2019-08-17T12:42:55Z</time>
      </trkpt>
      <trkpt lat="44.43842" lon="1.00558">
        <ele>171.664993</ele>
        <time>2019-08-17T12:42:56Z</time>
      </trkpt>
      <trkpt lat="44.43842" lon="1.00555">
        <ele>171.652054</ele>
        <time>2019-08-17T12:42:57Z</time>
      </trkpt>
      <trkpt lat="44.43841" lon="1.00552">
        <ele>171.652054</ele>
        <time>2019-08-17T12:42:58Z</time>
      </trkpt>
      <trkpt lat="44.43841" lon="1.0055">
        <ele>171.639709</ele>
        <time>2019-08-17T12:42:59Z</time>
      </trkpt>
      <trkpt lat="44.43842" lon="1.00549">
        <ele>171.639709</ele>
        <time>2019-08-17T12:43:00Z</time>
      </trkpt>
      <trkpt lat="44.43847" lon="1.00537">
        <ele>172.607529</ele>
        <time>2019-08-17T12:43:19Z</time>
      </trkpt>
      <trkpt lat="44.43847" lon="1.00537">
        <ele>172.607529</ele>
        <time>2019-08-17T12:43:21Z</time>
      </trkpt>
      <trkpt lat="44.43848" lon="1.00536">
        <ele>172.687759</ele>
        <time>2019-08-17T12:43:22Z</time>
      </trkpt>
      <trkpt lat="44.43848" lon="1.00535">
        <ele>172.768021</ele>
        <time>2019-08-17T12:43:23Z</time>
      </trkpt>
      <trkpt lat="44.4385" lon="1.00534">
        <ele>173.008102</ele>
        <time>2019-08-17T12:43:25Z</time>
      </trkpt>
      <trkpt lat="44.4385" lon="1.00533">
        <ele>173.144211</ele>
        <time>2019-08-17T12:43:27Z</time>
      </trkpt>
      <trkpt lat="44.4385" lon="1.00532">
        <ele>173.292603</ele>
        <time>2019-08-17T12:43:28Z</time>
      </trkpt>
      <trkpt lat="44.43851" lon="1.00531">
        <ele>173.453918</ele>
        <time>2019-08-17T12:43:29Z</time>
      </trkpt>
      <trkpt lat="44.43857" lon="1.00518">
        <ele>174.325256</ele>
        <time>2019-08-17T12:43:39Z</time>
      </trkpt>
      <trkpt lat="44.43858" lon="1.00515">
        <ele>174.422607</ele>
        <time>2019-08-17T12:43:41Z</time>
      </trkpt>
      <trkpt lat="44.43859" lon="1.00512">
        <ele>174.579529</ele>
        <time>2019-08-17T12:43:42Z</time>
      </trkpt>
      <trkpt lat="44.4386" lon="1.00509">
        <ele>174.760544</ele>
        <time>2019-08-17T12:43:43Z</time>
      </trkpt>
      <trkpt lat="44.43862" lon="1.00507">
        <ele>174.965958</ele>
        <time>2019-08-17T12:43:44Z</time>
      </trkpt>
      <trkpt lat="44.43864" lon="1.00504">
        <ele>175.177597</ele>
        <time>2019-08-17T12:43:45Z</time>
      </trkpt>
      <trkpt lat="44.43866" lon="1.00503">
        <ele>175.378708</ele>
        <time>2019-08-17T12:43:46Z</time>
      </trkpt>
      <trkpt lat="44.43868" lon="1.00503">
        <ele>175.574783</ele>
        <time>2019-08-17T12:43:47Z</time>
      </trkpt>
      <trkpt lat="44.43871" lon="1.00505">
        <ele>175.760086</ele>
        <time>2019-08-17T12:43:48Z</time>
      </trkpt>
      <trkpt lat="44.43873" lon="1.00507">
        <ele>175.989868</ele>
        <time>2019-08-17T12:43:49Z</time>
      </trkpt>
      <trkpt lat="44.43875" lon="1.00509">
        <ele>176.274963</ele>
        <time>2019-08-17T12:43:50Z</time>
      </trkpt>
      <trkpt lat="44.43877" lon="1.00512">
        <ele>176.637924</ele>
        <time>2019-08-17T12:43:51Z</time>
      </trkpt>
      <trkpt lat="44.43879" lon="1.00514">
        <ele>177.080246</ele>
        <time>2019-08-17T12:43:52Z</time>
      </trkpt>
      <trkpt lat="44.43881" lon="1.00516">
        <ele>177.080246</ele>
        <time>2019-08-17T12:43:53Z</time>
      </trkpt>
      <trkpt lat="44.43883" lon="1.00519">
        <ele>177.592697</ele>
        <time>2019-08-17T12:43:54Z</time>
      </trkpt>
      <trkpt lat="44.43885" lon="1.00521">
        <ele>178.147415</ele>
        <time>2019-08-17T12:43:55Z</time>
      </trkpt>
      <trkpt lat="44.43886" lon="1.00524">
        <ele>178.815186</ele>
        <time>2019-08-17T12:43:56Z</time>
      </trkpt>
      <trkpt lat="44.43889" lon="1.00526">
        <ele>179.498703</ele>
        <time>2019-08-17T12:43:57Z</time>
      </trkpt>
      <trkpt lat="44.4389" lon="1.00529">
        <ele>180.185867</ele>
        <time>2019-08-17T12:43:58Z</time>
      </trkpt>
      <trkpt lat="44.43892" lon="1.00533">
        <ele>180.869751</ele>
        <time>2019-08-17T12:43:59Z</time>
      </trkpt>
      <trkpt lat="44.43893" lon="1.00536">
        <ele>181.532181</ele>
        <time>2019-08-17T12:44:00Z</time>
      </trkpt>
      <trkpt lat="44.43894" lon="1.0054">
        <ele>182.178391</ele>
        <time>2019-08-17T12:44:01Z</time>
      </trkpt>
      <trkpt lat="44.43895" lon="1.00543">
        <ele>182.178391</ele>
        <time>2019-08-17T12:44:02Z</time>
      </trkpt>
      <trkpt lat="44.43897" lon="1.00547">
        <ele>182.7061</ele>
        <time>2019-08-17T12:44:03Z</time>
      </trkpt>
      <trkpt lat="44.43898" lon="1.0055">
        <ele>183.204163</ele>
        <time>2019-08-17T12:44:04Z</time>
      </trkpt>
      <trkpt lat="44.43899" lon="1.00554">
        <ele>183.72821</ele>
        <time>2019-08-17T12:44:05Z</time>
      </trkpt>
      <trkpt lat="44.439" lon="1.00558">
        <ele>184.22551</ele>
        <time>2019-08-17T12:44:06Z</time>
      </trkpt>
      <trkpt lat="44.43902" lon="1.00561">
        <ele>184.707138</ele>
        <time>2019-08-17T12:44:07Z</time>
      </trkpt>
      <trkpt lat="44.43903" lon="1.00565">
        <ele>185.1884</ele>
        <time>2019-08-17T12:44:08Z</time>
      </trkpt>
      <trkpt lat="44.43905" lon="1.00568">
        <ele>185.674545</ele>
        <time>2019-08-17T12:44:09Z</time>
      </trkpt>
      <trkpt lat="44.43906" lon="1.00572">
        <ele>186.165512</ele>
        <time>2019-08-17T12:44:10Z</time>
      </trkpt>
      <trkpt lat="44.43907" lon="1.00575">
        <ele>186.587097</ele>
        <time>2019-08-17T12:44:11Z</time>
      </trkpt>
      <trkpt lat="44.43909" lon="1.00579">
        <ele>187.007645</ele>
        <time>2019-08-17T12:44:12Z</time>
      </trkpt>
      <trkpt lat="44.4391" lon="1.00582">
        <ele>187.427872</ele>
        <time>2019-08-17T12:44:13Z</time>
      </trkpt>
      <trkpt lat="44.43911" lon="1.00586">
        <ele>187.851822</ele>
        <time>2019-08-17T12:44:14Z</time>
      </trkpt>
      <trkpt lat="44.43913" lon="1.00589">
        <ele>188.278885</ele>
        <time>2019-08-17T12:44:15Z</time>
      </trkpt>
      <trkpt lat="44.43913" lon="1.00593">
        <ele>188.708939</ele>
        <time>2019-08-17T12:44:16Z</time>
      </trkpt>
      <trkpt lat="44.43915" lon="1.00596">
        <ele>189.140915</ele>
        <time>2019-08-17T12:44:17Z</time>
      </trkpt>
      <trkpt lat="44.43917" lon="1.00598">
        <ele>189.573288</ele>
        <time>2019-08-17T12:44:18Z</time>
      </trkpt>
      <trkpt lat="44.43919" lon="1.006">
        <ele>189.573288</ele>
        <time>2019-08-17T12:44:19Z</time>
      </trkpt>
      <trkpt lat="44.43921" lon="1.00601">
        <ele>189.997147</ele>
        <time>2019-08-17T12:44:20Z</time>
      </trkpt>
      <trkpt lat="44.43923" lon="1.00601">
        <ele>190.400192</ele>
        <time>2019-08-17T12:44:21Z</time>
      </trkpt>
      <trkpt lat="44.43926" lon="1.00602">
        <ele>190.892593</ele>
        <time>2019-08-17T12:44:22Z</time>
      </trkpt>
      <trkpt lat="44.43927" lon="1.00603">
        <ele>191.402054</ele>
        <time>2019-08-17T12:44:23Z</time>
      </trkpt>
      <trkpt lat="44.4393" lon="1.00605">
        <ele>191.941162</ele>
        <time>2019-08-17T12:44:24Z</time>
      </trkpt>
      <trkpt lat="44.43932" lon="1.00608">
        <ele>192.503662</ele>
        <time>2019-08-17T12:44:25Z</time>
      </trkpt>
      <trkpt lat="44.43933" lon="1.00611">
        <ele>193.104416</ele>
        <time>2019-08-17T12:44:26Z</time>
      </trkpt>
      <trkpt lat="44.43934" lon="1.00615">
        <ele>193.743851</ele>
        <time>2019-08-17T12:44:27Z</time>
      </trkpt>
      <trkpt lat="44.43934" lon="1.00618">
        <ele>194.305466</ele>
        <time>2019-08-17T12:44:28Z</time>
      </trkpt>
      <trkpt lat="44.43935" lon="1.00622">
        <ele>194.840866</ele>
        <time>2019-08-17T12:44:29Z</time>
      </trkpt>
      <trkpt lat="44.43936" lon="1.00626">
        <ele>195.328491</ele>
        <time>2019-08-17T12:44:30Z</time>
      </trkpt>
      <trkpt lat="44.43937" lon="1.0063">
        <ele>195.328491</ele>
        <time>2019-08-17T12:44:31Z</time>
      </trkpt>
      <trkpt lat="44.43937" lon="1.00634">
        <ele>195.754959</ele>
        <time>2019-08-17T12:44:32Z</time>
      </trkpt>
      <trkpt lat="44.43938" lon="1.00637">
        <ele>196.127609</ele>
        <time>2019-08-17T12:44:33Z</time>
      </trkpt>
      <trkpt lat="44.43938" lon="1.00641">
        <ele>196.127609</ele>
        <time>2019-08-17T12:44:34Z</time>
      </trkpt>
      <trkpt lat="44.43939" lon="1.00644">
        <ele>196.492203</ele>
        <time>2019-08-17T12:44:35Z</time>
      </trkpt>
      <trkpt lat="44.43939" lon="1.00648">
        <ele>196.799118</ele>
        <time>2019-08-17T12:44:36Z</time>
      </trkpt>
      <trkpt lat="44.4394" lon="1.00652">
        <ele>196.799118</ele>
        <time>2019-08-17T12:44:37Z</time>
      </trkpt>
      <trkpt lat="44.43941" lon="1.00655">
        <ele>197.116714</ele>
        <time>2019-08-17T12:44:38Z</time>
      </trkpt>
      <trkpt lat="44.43941" lon="1.00659">
        <ele>197.432053</ele>
        <time>2019-08-17T12:44:39Z</time>
      </trkpt>
      <trkpt lat="44.43942" lon="1.00663">
        <ele>197.780838</ele>
        <time>2019-08-17T12:44:40Z</time>
      </trkpt>
      <trkpt lat="44.43942" lon="1.00666">
        <ele>198.127319</ele>
        <time>2019-08-17T12:44:41Z</time>
      </trkpt>
      <trkpt lat="44.43942" lon="1.0067">
        <ele>198.127319</ele>
        <time>2019-08-17T12:44:42Z</time>
      </trkpt>
      <trkpt lat="44.43942" lon="1.00673">
        <ele>198.431137</ele>
        <time>2019-08-17T12:44:43Z</time>
      </trkpt>
      <trkpt lat="44.43942" lon="1.00676">
        <ele>198.738571</ele>
        <time>2019-08-17T12:44:44Z</time>
      </trkpt>
      <trkpt lat="44.43942" lon="1.00678">
        <ele>199.021042</ele>
        <time>2019-08-17T12:44:45Z</time>
      </trkpt>
      <trkpt lat="44.43942" lon="1.00681">
        <ele>199.278854</ele>
        <time>2019-08-17T12:44:46Z</time>
      </trkpt>
      <trkpt lat="44.4394" lon="1.00682">
        <ele>199.465759</ele>
        <time>2019-08-17T12:44:47Z</time>
      </trkpt>
      <trkpt lat="44.43938" lon="1.00684">
        <ele>199.465759</ele>
        <time>2019-08-17T12:44:48Z</time>
      </trkpt>
      <trkpt lat="44.43935" lon="1.00686">
        <ele>199.465759</ele>
        <time>2019-08-17T12:44:49Z</time>
      </trkpt>
      <trkpt lat="44.43932" lon="1.00688">
        <ele>199.465759</ele>
        <time>2019-08-17T12:44:50Z</time>
      </trkpt>
      <trkpt lat="44.43929" lon="1.0069">
        <ele>199.429764</ele>
        <time>2019-08-17T12:44:51Z</time>
      </trkpt>
      <trkpt lat="44.43924" lon="1.00692">
        <ele>199.21907</ele>
        <time>2019-08-17T12:44:52Z</time>
      </trkpt>
      <trkpt lat="44.43919" lon="1.00695">
        <ele>199.21907</ele>
        <time>2019-08-17T12:44:53Z</time>
      </trkpt>
      <trkpt lat="44.43914" lon="1.00698">
        <ele>198.810501</ele>
        <time>2019-08-17T12:44:54Z</time>
      </trkpt>
      <trkpt lat="44.43909" lon="1.00702">
        <ele>198.14563</ele>
        <time>2019-08-17T12:44:55Z</time>
      </trkpt>
      <trkpt lat="44.43905" lon="1.00707">
        <ele>196.959793</ele>
        <time>2019-08-17T12:44:56Z</time>
      </trkpt>
      <trkpt lat="44.43901" lon="1.00715">
        <ele>195.475784</ele>
        <time>2019-08-17T12:44:57Z</time>
      </trkpt>
      <trkpt lat="44.439" lon="1.00724">
        <ele>193.884964</ele>
        <time>2019-08-17T12:44:58Z</time>
      </trkpt>
      <trkpt lat="44.439" lon="1.00733">
        <ele>192.159073</ele>
        <time>2019-08-17T12:44:59Z</time>
      </trkpt>
      <trkpt lat="44.43901" lon="1.00742">
        <ele>190.404251</ele>
        <time>2019-08-17T12:45:00Z</time>
      </trkpt>
      <trkpt lat="44.43903" lon="1.0075">
        <ele>188.763794</ele>
        <time>2019-08-17T12:45:01Z</time>
      </trkpt>
      <trkpt lat="44.43904" lon="1.00758">
        <ele>187.65773</ele>
        <time>2019-08-17T12:45:02Z</time>
      </trkpt>
      <trkpt lat="44.43905" lon="1.00765">
        <ele>187.65773</ele>
        <time>2019-08-17T12:45:03Z</time>
      </trkpt>
      <trkpt lat="44.43906" lon="1.00772">
        <ele>186.917542</ele>
        <time>2019-08-17T12:45:04Z</time>
      </trkpt>
      <trkpt lat="44.43906" lon="1.00779">
        <ele>186.484146</ele>
        <time>2019-08-17T12:45:05Z</time>
      </trkpt>
      <trkpt lat="44.43907" lon="1.00785">
        <ele>186.484146</ele>
        <time>2019-08-17T12:45:06Z</time>
      </trkpt>
      <trkpt lat="44.43908" lon="1.00791">
        <ele>186.363022</ele>
        <time>2019-08-17T12:45:07Z</time>
      </trkpt>
      <trkpt lat="44.43909" lon="1.00798">
        <ele>186.363022</ele>
        <time>2019-08-17T12:45:08Z</time>
      </trkpt>
      <trkpt lat="44.4391" lon="1.00803">
        <ele>186.363022</ele>
        <time>2019-08-17T12:45:09Z</time>
      </trkpt>
      <trkpt lat="44.43911" lon="1.0081">
        <ele>186.464539</ele>
        <time>2019-08-17T12:45:10Z</time>
      </trkpt>
      <trkpt lat="44.43912" lon="1.00816">
        <ele>186.674698</ele>
        <time>2019-08-17T12:45:11Z</time>
      </trkpt>
      <trkpt lat="44.43913" lon="1.00822">
        <ele>186.890518</ele>
        <time>2019-08-17T12:45:12Z</time>
      </trkpt>
      <trkpt lat="44.43913" lon="1.00828">
        <ele>187.100418</ele>
        <time>2019-08-17T12:45:13Z</time>
      </trkpt>
      <trkpt lat="44.43914" lon="1.00835">
        <ele>187.339355</ele>
        <time>2019-08-17T12:45:14Z</time>
      </trkpt>
      <trkpt lat="44.43915" lon="1.00841">
        <ele>187.570389</ele>
        <time>2019-08-17T12:45:15Z</time>
      </trkpt>
      <trkpt lat="44.43916" lon="1.00848">
        <ele>187.814865</ele>
        <time>2019-08-17T12:45:16Z</time>
      </trkpt>
      <trkpt lat="44.43917" lon="1.00855">
        <ele>188.07048</ele>
        <time>2019-08-17T12:45:17Z</time>
      </trkpt>
      <trkpt lat="44.43918" lon="1.00862">
        <ele>188.328049</ele>
        <time>2019-08-17T12:45:18Z</time>
      </trkpt>
      <trkpt lat="44.43919" lon="1.0087">
        <ele>188.572998</ele>
        <time>2019-08-17T12:45:19Z</time>
      </trkpt>
      <trkpt lat="44.4392" lon="1.00877">
        <ele>188.804932</ele>
        <time>2019-08-17T12:45:20Z</time>
      </trkpt>
      <trkpt lat="44.43921" lon="1.00884">
        <ele>189.034012</ele>
        <time>2019-08-17T12:45:21Z</time>
      </trkpt>
      <trkpt lat="44.43922" lon="1.00892">
        <ele>189.034012</ele>
        <time>2019-08-17T12:45:22Z</time>
      </trkpt>
      <trkpt lat="44.43923" lon="1.009">
        <ele>189.269226</ele>
        <time>2019-08-17T12:45:23Z</time>
      </trkpt>
      <trkpt lat="44.43924" lon="1.00908">
        <ele>189.500412</ele>
        <time>2019-08-17T12:45:24Z</time>
      </trkpt>
      <trkpt lat="44.43926" lon="1.00916">
        <ele>189.760864</ele>
        <time>2019-08-17T12:45:25Z</time>
      </trkpt>
      <trkpt lat="44.43927" lon="1.00924">
        <ele>189.760864</ele>
        <time>2019-08-17T12:45:26Z</time>
      </trkpt>
      <trkpt lat="44.43927" lon="1.00932">
        <ele>190.002945</ele>
        <time>2019-08-17T12:45:27Z</time>
      </trkpt>
      <trkpt lat="44.43929" lon="1.00941">
        <ele>190.237198</ele>
        <time>2019-08-17T12:45:28Z</time>
      </trkpt>
      <trkpt lat="44.43929" lon="1.00949">
        <ele>190.479935</ele>
        <time>2019-08-17T12:45:29Z</time>
      </trkpt>
      <trkpt lat="44.4393" lon="1.00957">
        <ele>190.694382</ele>
        <time>2019-08-17T12:45:30Z</time>
      </trkpt>
      <trkpt lat="44.43931" lon="1.00964">
        <ele>190.896286</ele>
        <time>2019-08-17T12:45:31Z</time>
      </trkpt>
      <trkpt lat="44.43932" lon="1.00972">
        <ele>191.02095</ele>
        <time>2019-08-17T12:45:32Z</time>
      </trkpt>
      <trkpt lat="44.43932" lon="1.0098">
        <ele>191.100647</ele>
        <time>2019-08-17T12:45:33Z</time>
      </trkpt>
      <trkpt lat="44.43934" lon="1.00988">
        <ele>191.145752</ele>
        <time>2019-08-17T12:45:34Z</time>
      </trkpt>
      <trkpt lat="44.43935" lon="1.00995">
        <ele>191.152481</ele>
        <time>2019-08-17T12:45:35Z</time>
      </trkpt>
      <trkpt lat="44.43935" lon="1.01003">
        <ele>191.164383</ele>
        <time>2019-08-17T12:45:36Z</time>
      </trkpt>
      <trkpt lat="44.43937" lon="1.0101">
        <ele>191.185684</ele>
        <time>2019-08-17T12:45:37Z</time>
      </trkpt>
      <trkpt lat="44.43938" lon="1.01017">
        <ele>191.203537</ele>
        <time>2019-08-17T12:45:38Z</time>
      </trkpt>
      <trkpt lat="44.43939" lon="1.01025">
        <ele>191.211716</ele>
        <time>2019-08-17T12:45:39Z</time>
      </trkpt>
      <trkpt lat="44.4394" lon="1.01032">
        <ele>191.213669</ele>
        <time>2019-08-17T12:45:40Z</time>
      </trkpt>
      <trkpt lat="44.43941" lon="1.01039">
        <ele>191.219467</ele>
        <time>2019-08-17T12:45:41Z</time>
      </trkpt>
      <trkpt lat="44.43942" lon="1.01046">
        <ele>191.219467</ele>
        <time>2019-08-17T12:45:42Z</time>
      </trkpt>
      <trkpt lat="44.43943" lon="1.01054">
        <ele>191.234726</ele>
        <time>2019-08-17T12:45:43Z</time>
      </trkpt>
      <trkpt lat="44.43945" lon="1.01061">
        <ele>191.248917</ele>
        <time>2019-08-17T12:45:44Z</time>
      </trkpt>
      <trkpt lat="44.43947" lon="1.01068">
        <ele>191.271225</ele>
        <time>2019-08-17T12:45:45Z</time>
      </trkpt>
      <trkpt lat="44.4395" lon="1.01073">
        <ele>191.291183</ele>
        <time>2019-08-17T12:45:46Z</time>
      </trkpt>
      <trkpt lat="44.43955" lon="1.01077">
        <ele>191.314835</ele>
        <time>2019-08-17T12:45:47Z</time>
      </trkpt>
      <trkpt lat="44.43959" lon="1.01078">
        <ele>191.314835</ele>
        <time>2019-08-17T12:45:48Z</time>
      </trkpt>
      <trkpt lat="44.43963" lon="1.01077">
        <ele>191.373306</ele>
        <time>2019-08-17T12:45:49Z</time>
      </trkpt>
      <trkpt lat="44.43966" lon="1.01076">
        <ele>191.548721</ele>
        <time>2019-08-17T12:45:50Z</time>
      </trkpt>
      <trkpt lat="44.43969" lon="1.01075">
        <ele>192.090927</ele>
        <time>2019-08-17T12:45:51Z</time>
      </trkpt>
      <trkpt lat="44.43972" lon="1.01074">
        <ele>192.821228</ele>
        <time>2019-08-17T12:45:52Z</time>
      </trkpt>
      <trkpt lat="44.43975" lon="1.01073">
        <ele>193.722122</ele>
        <time>2019-08-17T12:45:53Z</time>
      </trkpt>
      <trkpt lat="44.43978" lon="1.01071">
        <ele>194.805679</ele>
        <time>2019-08-17T12:45:54Z</time>
      </trkpt>
      <trkpt lat="44.43981" lon="1.0107">
        <ele>195.95433</ele>
        <time>2019-08-17T12:45:55Z</time>
      </trkpt>
      <trkpt lat="44.43984" lon="1.01069">
        <ele>197.092941</ele>
        <time>2019-08-17T12:45:56Z</time>
      </trkpt>
      <trkpt lat="44.43987" lon="1.01068">
        <ele>197.970108</ele>
        <time>2019-08-17T12:45:57Z</time>
      </trkpt>
      <trkpt lat="44.4399" lon="1.01067">
        <ele>198.764023</ele>
        <time>2019-08-17T12:45:58Z</time>
      </trkpt>
      <trkpt lat="44.43993" lon="1.01067">
        <ele>199.483231</ele>
        <time>2019-08-17T12:45:59Z</time>
      </trkpt>
      <trkpt lat="44.43996" lon="1.01066">
        <ele>200.12915</ele>
        <time>2019-08-17T12:46:00Z</time>
      </trkpt>
      <trkpt lat="44.43998" lon="1.01066">
        <ele>200.12915</ele>
        <time>2019-08-17T12:46:01Z</time>
      </trkpt>
      <trkpt lat="44.44001" lon="1.01065">
        <ele>200.748978</ele>
        <time>2019-08-17T12:46:02Z</time>
      </trkpt>
      <trkpt lat="44.44004" lon="1.01065">
        <ele>201.356888</ele>
        <time>2019-08-17T12:46:03Z</time>
      </trkpt>
      <trkpt lat="44.44007" lon="1.01065">
        <ele>202.046829</ele>
        <time>2019-08-17T12:46:04Z</time>
      </trkpt>
      <trkpt lat="44.4401" lon="1.01065">
        <ele>202.717361</ele>
        <time>2019-08-17T12:46:05Z</time>
      </trkpt>
      <trkpt lat="44.44013" lon="1.01064">
        <ele>203.374832</ele>
        <time>2019-08-17T12:46:06Z</time>
      </trkpt>
      <trkpt lat="44.44016" lon="1.01064">
        <ele>204.031479</ele>
        <time>2019-08-17T12:46:07Z</time>
      </trkpt>
      <trkpt lat="44.44019" lon="1.01064">
        <ele>204.686264</ele>
        <time>2019-08-17T12:46:08Z</time>
      </trkpt>
      <trkpt lat="44.44022" lon="1.01064">
        <ele>205.330551</ele>
        <time>2019-08-17T12:46:09Z</time>
      </trkpt>
      <trkpt lat="44.44024" lon="1.01064">
        <ele>205.874893</ele>
        <time>2019-08-17T12:46:10Z</time>
      </trkpt>
      <trkpt lat="44.44027" lon="1.01064">
        <ele>206.424683</ele>
        <time>2019-08-17T12:46:11Z</time>
      </trkpt>
      <trkpt lat="44.4403" lon="1.01064">
        <ele>206.970993</ele>
        <time>2019-08-17T12:46:12Z</time>
      </trkpt>
      <trkpt lat="44.44033" lon="1.01064">
        <ele>207.516953</ele>
        <time>2019-08-17T12:46:13Z</time>
      </trkpt>
      <trkpt lat="44.44036" lon="1.01064">
        <ele>208.062561</ele>
        <time>2019-08-17T12:46:14Z</time>
      </trkpt>
      <trkpt lat="44.4404" lon="1.01065">
        <ele>208.062561</ele>
        <time>2019-08-17T12:46:15Z</time>
      </trkpt>
      <trkpt lat="44.44043" lon="1.01066">
        <ele>208.612991</ele>
        <time>2019-08-17T12:46:16Z</time>
      </trkpt>
      <trkpt lat="44.44045" lon="1.01068">
        <ele>209.165726</ele>
        <time>2019-08-17T12:46:17Z</time>
      </trkpt>
      <trkpt lat="44.44048" lon="1.0107">
        <ele>209.794601</ele>
        <time>2019-08-17T12:46:18Z</time>
      </trkpt>
      <trkpt lat="44.4405" lon="1.01073">
        <ele>210.399246</ele>
        <time>2019-08-17T12:46:19Z</time>
      </trkpt>
      <trkpt lat="44.44052" lon="1.01077">
        <ele>210.966614</ele>
        <time>2019-08-17T12:46:20Z</time>
      </trkpt>
      <trkpt lat="44.44054" lon="1.01081">
        <ele>211.479141</ele>
        <time>2019-08-17T12:46:21Z</time>
      </trkpt>
      <trkpt lat="44.44056" lon="1.01085">
        <ele>211.933212</ele>
        <time>2019-08-17T12:46:22Z</time>
      </trkpt>
      <trkpt lat="44.44058" lon="1.01089">
        <ele>211.933212</ele>
        <time>2019-08-17T12:46:23Z</time>
      </trkpt>
      <trkpt lat="44.44059" lon="1.01094">
        <ele>212.311142</ele>
        <time>2019-08-17T12:46:24Z</time>
      </trkpt>
      <trkpt lat="44.44061" lon="1.01099">
        <ele>212.516006</ele>
        <time>2019-08-17T12:46:25Z</time>
      </trkpt>
      <trkpt lat="44.44062" lon="1.01104">
        <ele>212.640396</ele>
        <time>2019-08-17T12:46:26Z</time>
      </trkpt>
      <trkpt lat="44.44064" lon="1.01109">
        <ele>212.691345</ele>
        <time>2019-08-17T12:46:27Z</time>
      </trkpt>
      <trkpt lat="44.44065" lon="1.01115">
        <ele>212.691345</ele>
        <time>2019-08-17T12:46:28Z</time>
      </trkpt>
      <trkpt lat="44.44066" lon="1.0112">
        <ele>212.691345</ele>
        <time>2019-08-17T12:46:29Z</time>
      </trkpt>
      <trkpt lat="44.44067" lon="1.01125">
        <ele>212.691345</ele>
        <time>2019-08-17T12:46:30Z</time>
      </trkpt>
      <trkpt lat="44.44069" lon="1.01131">
        <ele>212.683762</ele>
        <time>2019-08-17T12:46:31Z</time>
      </trkpt>
      <trkpt lat="44.44069" lon="1.01137">
        <ele>212.601761</ele>
        <time>2019-08-17T12:46:32Z</time>
      </trkpt>
      <trkpt lat="44.4407" lon="1.01143">
        <ele>212.482666</ele>
        <time>2019-08-17T12:46:33Z</time>
      </trkpt>
      <trkpt lat="44.44072" lon="1.01149">
        <ele>212.482666</ele>
        <time>2019-08-17T12:46:34Z</time>
      </trkpt>
      <trkpt lat="44.44072" lon="1.01156">
        <ele>212.346024</ele>
        <time>2019-08-17T12:46:35Z</time>
      </trkpt>
      <trkpt lat="44.44073" lon="1.01163">
        <ele>212.192307</ele>
        <time>2019-08-17T12:46:36Z</time>
      </trkpt>
      <trkpt lat="44.44074" lon="1.0117">
        <ele>212.192307</ele>
        <time>2019-08-17T12:46:37Z</time>
      </trkpt>
      <trkpt lat="44.44075" lon="1.01178">
        <ele>211.980301</ele>
        <time>2019-08-17T12:46:38Z</time>
      </trkpt>
      <trkpt lat="44.44076" lon="1.01186">
        <ele>211.736008</ele>
        <time>2019-08-17T12:46:39Z</time>
      </trkpt>
      <trkpt lat="44.44077" lon="1.01194">
        <ele>211.409378</ele>
        <time>2019-08-17T12:46:40Z</time>
      </trkpt>
      <trkpt lat="44.44078" lon="1.01203">
        <ele>211.409378</ele>
        <time>2019-08-17T12:46:41Z</time>
      </trkpt>
      <trkpt lat="44.44078" lon="1.01211">
        <ele>211.035446</ele>
        <time>2019-08-17T12:46:42Z</time>
      </trkpt>
      <trkpt lat="44.44079" lon="1.01218">
        <ele>210.615234</ele>
        <time>2019-08-17T12:46:43Z</time>
      </trkpt>
      <trkpt lat="44.4408" lon="1.01224">
        <ele>210.087891</ele>
        <time>2019-08-17T12:46:44Z</time>
      </trkpt>
      <trkpt lat="44.4408" lon="1.01229">
        <ele>209.56279</ele>
        <time>2019-08-17T12:46:45Z</time>
      </trkpt>
      <trkpt lat="44.44082" lon="1.01233">
        <ele>209.56279</ele>
        <time>2019-08-17T12:46:46Z</time>
      </trkpt>
      <trkpt lat="44.44085" lon="1.01235">
        <ele>209.034164</ele>
        <time>2019-08-17T12:46:47Z</time>
      </trkpt>
      <trkpt lat="44.44089" lon="1.01235">
        <ele>208.675949</ele>
        <time>2019-08-17T12:46:48Z</time>
      </trkpt>
      <trkpt lat="44.44093" lon="1.01234">
        <ele>208.508057</ele>
        <time>2019-08-17T12:46:49Z</time>
      </trkpt>
      <trkpt lat="44.44096" lon="1.01232">
        <ele>208.508057</ele>
        <time>2019-08-17T12:46:50Z</time>
      </trkpt>
      <trkpt lat="44.44101" lon="1.01231">
        <ele>208.508057</ele>
        <time>2019-08-17T12:46:51Z</time>
      </trkpt>
      <trkpt lat="44.44104" lon="1.01229">
        <ele>208.508057</ele>
        <time>2019-08-17T12:46:52Z</time>
      </trkpt>
      <trkpt lat="44.44108" lon="1.01228">
        <ele>208.700684</ele>
        <time>2019-08-17T12:46:53Z</time>
      </trkpt>
      <trkpt lat="44.44112" lon="1.01226">
        <ele>209.183334</ele>
        <time>2019-08-17T12:46:54Z</time>
      </trkpt>
      <trkpt lat="44.44116" lon="1.01225">
        <ele>209.886597</ele>
        <time>2019-08-17T12:46:55Z</time>
      </trkpt>
      <trkpt lat="44.4412" lon="1.01224">
        <ele>210.769958</ele>
        <time>2019-08-17T12:46:56Z</time>
      </trkpt>
      <trkpt lat="44.44123" lon="1.01223">
        <ele>211.677567</ele>
        <time>2019-08-17T12:46:57Z</time>
      </trkpt>
      <trkpt lat="44.44127" lon="1.01223">
        <ele>212.533768</ele>
        <time>2019-08-17T12:46:58Z</time>
      </trkpt>
      <trkpt lat="44.44131" lon="1.01222">
        <ele>213.163162</ele>
        <time>2019-08-17T12:46:59Z</time>
      </trkpt>
      <trkpt lat="44.44134" lon="1.01222">
        <ele>213.703293</ele>
        <time>2019-08-17T12:47:00Z</time>
      </trkpt>
      <trkpt lat="44.44137" lon="1.01222">
        <ele>214.154297</ele>
        <time>2019-08-17T12:47:01Z</time>
      </trkpt>
      <trkpt lat="44.44141" lon="1.01222">
        <ele>214.539383</ele>
        <time>2019-08-17T12:47:02Z</time>
      </trkpt>
      <trkpt lat="44.44144" lon="1.01221">
        <ele>214.905762</ele>
        <time>2019-08-17T12:47:03Z</time>
      </trkpt>
      <trkpt lat="44.44147" lon="1.0122">
        <ele>215.252609</ele>
        <time>2019-08-17T12:47:04Z</time>
      </trkpt>
      <trkpt lat="44.44149" lon="1.01219">
        <ele>215.584305</ele>
        <time>2019-08-17T12:47:05Z</time>
      </trkpt>
      <trkpt lat="44.4415" lon="1.01218">
        <ele>215.90625</ele>
        <time>2019-08-17T12:47:06Z</time>
      </trkpt>
      <trkpt lat="44.44152" lon="1.01218">
        <ele>216.803391</ele>
        <time>2019-08-17T12:47:08Z</time>
      </trkpt>
      <trkpt lat="44.44153" lon="1.0122">
        <ele>217.032715</ele>
        <time>2019-08-17T12:47:10Z</time>
      </trkpt>
      <trkpt lat="44.44154" lon="1.01222">
        <ele>217.216965</ele>
        <time>2019-08-17T12:47:11Z</time>
      </trkpt>
      <trkpt lat="44.44154" lon="1.01225">
        <ele>217.345047</ele>
        <time>2019-08-17T12:47:12Z</time>
      </trkpt>
      <trkpt lat="44.44157" lon="1.01227">
        <ele>217.345047</ele>
        <time>2019-08-17T12:47:13Z</time>
      </trkpt>
      <trkpt lat="44.44159" lon="1.01229">
        <ele>217.414719</ele>
        <time>2019-08-17T12:47:14Z</time>
      </trkpt>
      <trkpt lat="44.44161" lon="1.01231">
        <ele>217.414719</ele>
        <time>2019-08-17T12:47:15Z</time>
      </trkpt>
      <trkpt lat="44.44163" lon="1.01232">
        <ele>217.454102</ele>
        <time>2019-08-17T12:47:16Z</time>
      </trkpt>
      <trkpt lat="44.44164" lon="1.01232">
        <ele>217.471848</ele>
        <time>2019-08-17T12:47:17Z</time>
      </trkpt>
      <trkpt lat="44.44165" lon="1.0123">
        <ele>217.49968</ele>
        <time>2019-08-17T12:47:18Z</time>
      </trkpt>
      <trkpt lat="44.44164" lon="1.01229">
        <ele>217.544113</ele>
        <time>2019-08-17T12:47:19Z</time>
      </trkpt>
      <trkpt lat="44.44163" lon="1.01229">
        <ele>217.606445</ele>
        <time>2019-08-17T12:47:20Z</time>
      </trkpt>
      <trkpt lat="44.44162" lon="1.01229">
        <ele>217.67041</ele>
        <time>2019-08-17T12:47:21Z</time>
      </trkpt>
      <trkpt lat="44.4416" lon="1.01227">
        <ele>217.718918</ele>
        <time>2019-08-17T12:47:22Z</time>
      </trkpt>
      <trkpt lat="44.44158" lon="1.01226">
        <ele>217.758133</ele>
        <time>2019-08-17T12:47:23Z</time>
      </trkpt>
      <trkpt lat="44.44154" lon="1.01222">
        <ele>217.758133</ele>
        <time>2019-08-17T12:47:25Z</time>
      </trkpt>
      <trkpt lat="44.4415" lon="1.01216">
        <ele>217.751785</ele>
        <time>2019-08-17T12:47:27Z</time>
      </trkpt>
      <trkpt lat="44.44149" lon="1.0121">
        <ele>217.689453</ele>
        <time>2019-08-17T12:47:29Z</time>
      </trkpt>
      <trkpt lat="44.4415" lon="1.01206">
        <ele>217.678207</ele>
        <time>2019-08-17T12:47:30Z</time>
      </trkpt>
      <trkpt lat="44.44151" lon="1.01203">
        <ele>217.678207</ele>
        <time>2019-08-17T12:47:31Z</time>
      </trkpt>
      <trkpt lat="44.44151" lon="1.012">
        <ele>217.678207</ele>
        <time>2019-08-17T12:47:32Z</time>
      </trkpt>
      <trkpt lat="44.44152" lon="1.01197">
        <ele>217.717407</ele>
        <time>2019-08-17T12:47:33Z</time>
      </trkpt>
      <trkpt lat="44.44152" lon="1.01194">
        <ele>217.807724</ele>
        <time>2019-08-17T12:47:34Z</time>
      </trkpt>
      <trkpt lat="44.44153" lon="1.01191">
        <ele>217.956665</ele>
        <time>2019-08-17T12:47:35Z</time>
      </trkpt>
      <trkpt lat="44.44153" lon="1.01189">
        <ele>217.956665</ele>
        <time>2019-08-17T12:47:36Z</time>
      </trkpt>
      <trkpt lat="44.44153" lon="1.01187">
        <ele>218.138748</ele>
        <time>2019-08-17T12:47:37Z</time>
      </trkpt>
      <trkpt lat="44.44154" lon="1.01185">
        <ele>218.333923</ele>
        <time>2019-08-17T12:47:38Z</time>
      </trkpt>
      <trkpt lat="44.44154" lon="1.01183">
        <ele>218.551071</ele>
        <time>2019-08-17T12:47:39Z</time>
      </trkpt>
      <trkpt lat="44.44153" lon="1.01196">
        <ele>219.392151</ele>
        <time>2019-08-17T12:47:48Z</time>
      </trkpt>
      <trkpt lat="44.44151" lon="1.01201">
        <ele>219.382263</ele>
        <time>2019-08-17T12:47:50Z</time>
      </trkpt>
      <trkpt lat="44.4415" lon="1.01206">
        <ele>219.337936</ele>
        <time>2019-08-17T12:47:51Z</time>
      </trkpt>
      <trkpt lat="44.44149" lon="1.01212">
        <ele>219.337936</ele>
        <time>2019-08-17T12:47:52Z</time>
      </trkpt>
      <trkpt lat="44.44148" lon="1.01217">
        <ele>219.215652</ele>
        <time>2019-08-17T12:47:53Z</time>
      </trkpt>
      <trkpt lat="44.44148" lon="1.0122">
        <ele>219.03801</ele>
        <time>2019-08-17T12:47:54Z</time>
      </trkpt>
      <trkpt lat="44.44149" lon="1.01223">
        <ele>218.755081</ele>
        <time>2019-08-17T12:47:55Z</time>
      </trkpt>
      <trkpt lat="44.44152" lon="1.01224">
        <ele>218.416992</ele>
        <time>2019-08-17T12:47:56Z</time>
      </trkpt>
      <trkpt lat="44.44155" lon="1.01224">
        <ele>218.066528</ele>
        <time>2019-08-17T12:47:57Z</time>
      </trkpt>
      <trkpt lat="44.44158" lon="1.01226">
        <ele>217.773682</ele>
        <time>2019-08-17T12:47:58Z</time>
      </trkpt>
      <trkpt lat="44.44162" lon="1.01228">
        <ele>217.596558</ele>
        <time>2019-08-17T12:47:59Z</time>
      </trkpt>
      <trkpt lat="44.44165" lon="1.0123">
        <ele>217.508957</ele>
        <time>2019-08-17T12:48:00Z</time>
      </trkpt>
      <trkpt lat="44.44169" lon="1.01232">
        <ele>217.508957</ele>
        <time>2019-08-17T12:48:01Z</time>
      </trkpt>
      <trkpt lat="44.44173" lon="1.01234">
        <ele>217.508957</ele>
        <time>2019-08-17T12:48:02Z</time>
      </trkpt>
      <trkpt lat="44.44177" lon="1.01236">
        <ele>217.508957</ele>
        <time>2019-08-17T12:48:03Z</time>
      </trkpt>
      <trkpt lat="44.44181" lon="1.01239">
        <ele>217.571121</ele>
        <time>2019-08-17T12:48:04Z</time>
      </trkpt>
      <trkpt lat="44.44185" lon="1.01243">
        <ele>217.72966</ele>
        <time>2019-08-17T12:48:05Z</time>
      </trkpt>
      <trkpt lat="44.44188" lon="1.01247">
        <ele>217.946899</ele>
        <time>2019-08-17T12:48:06Z</time>
      </trkpt>
      <trkpt lat="44.44191" lon="1.01251">
        <ele>218.107254</ele>
        <time>2019-08-17T12:48:07Z</time>
      </trkpt>
      <trkpt lat="44.44193" lon="1.01255">
        <ele>218.209961</ele>
        <time>2019-08-17T12:48:08Z</time>
      </trkpt>
      <trkpt lat="44.44196" lon="1.01259">
        <ele>218.258224</ele>
        <time>2019-08-17T12:48:09Z</time>
      </trkpt>
      <trkpt lat="44.44197" lon="1.01261">
        <ele>218.25946</ele>
        <time>2019-08-17T12:48:10Z</time>
      </trkpt>
      <trkpt lat="44.44198" lon="1.01261">
        <ele>218.25946</ele>
        <time>2019-08-17T12:48:11Z</time>
      </trkpt>
      <trkpt lat="44.44199" lon="1.01259">
        <ele>218.25946</ele>
        <time>2019-08-17T12:48:12Z</time>
      </trkpt>
      <trkpt lat="44.44199" lon="1.01257">
        <ele>218.247375</ele>
        <time>2019-08-17T12:48:13Z</time>
      </trkpt>
      <trkpt lat="44.44198" lon="1.01254">
        <ele>218.210159</ele>
        <time>2019-08-17T12:48:14Z</time>
      </trkpt>
      <trkpt lat="44.44196" lon="1.01251">
        <ele>218.205429</ele>
        <time>2019-08-17T12:48:15Z</time>
      </trkpt>
      <trkpt lat="44.44196" lon="1.01247">
        <ele>218.205429</ele>
        <time>2019-08-17T12:48:16Z</time>
      </trkpt>
      <trkpt lat="44.44198" lon="1.01244">
        <ele>218.205429</ele>
        <time>2019-08-17T12:48:17Z</time>
      </trkpt>
      <trkpt lat="44.442" lon="1.01241">
        <ele>218.24324</ele>
        <time>2019-08-17T12:48:18Z</time>
      </trkpt>
      <trkpt lat="44.44202" lon="1.01238">
        <ele>218.336929</ele>
        <time>2019-08-17T12:48:19Z</time>
      </trkpt>
      <trkpt lat="44.44205" lon="1.01234">
        <ele>218.488419</ele>
        <time>2019-08-17T12:48:20Z</time>
      </trkpt>
      <trkpt lat="44.44208" lon="1.0123">
        <ele>218.655716</ele>
        <time>2019-08-17T12:48:21Z</time>
      </trkpt>
      <trkpt lat="44.44211" lon="1.01226">
        <ele>218.655716</ele>
        <time>2019-08-17T12:48:22Z</time>
      </trkpt>
      <trkpt lat="44.44214" lon="1.01222">
        <ele>218.844482</ele>
        <time>2019-08-17T12:48:23Z</time>
      </trkpt>
      <trkpt lat="44.44216" lon="1.01217">
        <ele>219.06575</ele>
        <time>2019-08-17T12:48:24Z</time>
      </trkpt>
      <trkpt lat="44.44219" lon="1.01212">
        <ele>219.362015</ele>
        <time>2019-08-17T12:48:25Z</time>
      </trkpt>
      <trkpt lat="44.44221" lon="1.01206">
        <ele>219.675491</ele>
        <time>2019-08-17T12:48:26Z</time>
      </trkpt>
      <trkpt lat="44.44223" lon="1.01201">
        <ele>220.005859</ele>
        <time>2019-08-17T12:48:27Z</time>
      </trkpt>
      <trkpt lat="44.44225" lon="1.01196">
        <ele>220.356369</ele>
        <time>2019-08-17T12:48:28Z</time>
      </trkpt>
      <trkpt lat="44.44228" lon="1.01192">
        <ele>220.713135</ele>
        <time>2019-08-17T12:48:29Z</time>
      </trkpt>
      <trkpt lat="44.4423" lon="1.01187">
        <ele>221.069702</ele>
        <time>2019-08-17T12:48:30Z</time>
      </trkpt>
      <trkpt lat="44.44233" lon="1.01181">
        <ele>221.069702</ele>
        <time>2019-08-17T12:48:31Z</time>
      </trkpt>
      <trkpt lat="44.44235" lon="1.01177">
        <ele>221.375443</ele>
        <time>2019-08-17T12:48:32Z</time>
      </trkpt>
      <trkpt lat="44.44239" lon="1.01173">
        <ele>221.675858</ele>
        <time>2019-08-17T12:48:33Z</time>
      </trkpt>
      <trkpt lat="44.44242" lon="1.01168">
        <ele>222.020264</ele>
        <time>2019-08-17T12:48:34Z</time>
      </trkpt>
      <trkpt lat="44.44245" lon="1.01164">
        <ele>222.020264</ele>
        <time>2019-08-17T12:48:35Z</time>
      </trkpt>
      <trkpt lat="44.44247" lon="1.0116">
        <ele>222.355789</ele>
        <time>2019-08-17T12:48:36Z</time>
      </trkpt>
      <trkpt lat="44.4425" lon="1.01155">
        <ele>222.687912</ele>
        <time>2019-08-17T12:48:37Z</time>
      </trkpt>
      <trkpt lat="44.44253" lon="1.0115">
        <ele>223.0634</ele>
        <time>2019-08-17T12:48:38Z</time>
      </trkpt>
      <trkpt lat="44.44255" lon="1.01146">
        <ele>223.0634</ele>
        <time>2019-08-17T12:48:39Z</time>
      </trkpt>
      <trkpt lat="44.44259" lon="1.01143">
        <ele>223.437668</ele>
        <time>2019-08-17T12:48:40Z</time>
      </trkpt>
      <trkpt lat="44.44262" lon="1.01139">
        <ele>223.811935</ele>
        <time>2019-08-17T12:48:41Z</time>
      </trkpt>
      <trkpt lat="44.44266" lon="1.01134">
        <ele>224.179688</ele>
        <time>2019-08-17T12:48:42Z</time>
      </trkpt>
      <trkpt lat="44.44269" lon="1.0113">
        <ele>224.539429</ele>
        <time>2019-08-17T12:48:43Z</time>
      </trkpt>
      <trkpt lat="44.44271" lon="1.01125">
        <ele>224.877792</ele>
        <time>2019-08-17T12:48:44Z</time>
      </trkpt>
      <trkpt lat="44.44271" lon="1.01121">
        <ele>225.148376</ele>
        <time>2019-08-17T12:48:45Z</time>
      </trkpt>
      <trkpt lat="44.44269" lon="1.01116">
        <ele>225.393616</ele>
        <time>2019-08-17T12:48:46Z</time>
      </trkpt>
      <trkpt lat="44.44267" lon="1.01112">
        <ele>225.608337</ele>
        <time>2019-08-17T12:48:47Z</time>
      </trkpt>
      <trkpt lat="44.44265" lon="1.01109">
        <ele>225.73616</ele>
        <time>2019-08-17T12:48:48Z</time>
      </trkpt>
      <trkpt lat="44.44262" lon="1.01106">
        <ele>225.82106</ele>
        <time>2019-08-17T12:48:49Z</time>
      </trkpt>
      <trkpt lat="44.44259" lon="1.01102">
        <ele>225.878464</ele>
        <time>2019-08-17T12:48:50Z</time>
      </trkpt>
      <trkpt lat="44.44257" lon="1.01099">
        <ele>225.909912</ele>
        <time>2019-08-17T12:48:51Z</time>
      </trkpt>
      <trkpt lat="44.44255" lon="1.01096">
        <ele>225.9198</ele>
        <time>2019-08-17T12:48:52Z</time>
      </trkpt>
      <trkpt lat="44.44254" lon="1.01093">
        <ele>225.9198</ele>
        <time>2019-08-17T12:48:53Z</time>
      </trkpt>
      <trkpt lat="44.44253" lon="1.0109">
        <ele>225.921158</ele>
        <time>2019-08-17T12:48:54Z</time>
      </trkpt>
      <trkpt lat="44.44254" lon="1.01087">
        <ele>225.925491</ele>
        <time>2019-08-17T12:48:55Z</time>
      </trkpt>
      <trkpt lat="44.44254" lon="1.01085">
        <ele>225.932053</ele>
        <time>2019-08-17T12:48:56Z</time>
      </trkpt>
      <trkpt lat="44.44255" lon="1.01083">
        <ele>225.932053</ele>
        <time>2019-08-17T12:48:57Z</time>
      </trkpt>
      <trkpt lat="44.44258" lon="1.01081">
        <ele>225.932297</ele>
        <time>2019-08-17T12:48:58Z</time>
      </trkpt>
      <trkpt lat="44.44261" lon="1.01079">
        <ele>225.932297</ele>
        <time>2019-08-17T12:48:59Z</time>
      </trkpt>
      <trkpt lat="44.44264" lon="1.01077">
        <ele>225.949997</ele>
        <time>2019-08-17T12:49:00Z</time>
      </trkpt>
      <trkpt lat="44.44267" lon="1.01075">
        <ele>225.981567</ele>
        <time>2019-08-17T12:49:01Z</time>
      </trkpt>
      <trkpt lat="44.4427" lon="1.01072">
        <ele>226.028076</ele>
        <time>2019-08-17T12:49:02Z</time>
      </trkpt>
      <trkpt lat="44.44274" lon="1.01068">
        <ele>226.073975</ele>
        <time>2019-08-17T12:49:03Z</time>
      </trkpt>
      <trkpt lat="44.44277" lon="1.01065">
        <ele>226.085861</ele>
        <time>2019-08-17T12:49:04Z</time>
      </trkpt>
      <trkpt lat="44.44281" lon="1.01061">
        <ele>226.085861</ele>
        <time>2019-08-17T12:49:05Z</time>
      </trkpt>
      <trkpt lat="44.44284" lon="1.01057">
        <ele>226.085861</ele>
        <time>2019-08-17T12:49:06Z</time>
      </trkpt>
      <trkpt lat="44.44288" lon="1.01052">
        <ele>226.085861</ele>
        <time>2019-08-17T12:49:07Z</time>
      </trkpt>
      <trkpt lat="44.44291" lon="1.01047">
        <ele>226.059494</ele>
        <time>2019-08-17T12:49:08Z</time>
      </trkpt>
      <trkpt lat="44.44296" lon="1.01043">
        <ele>225.932861</ele>
        <time>2019-08-17T12:49:09Z</time>
      </trkpt>
      <trkpt lat="44.443" lon="1.0104">
        <ele>225.743362</ele>
        <time>2019-08-17T12:49:10Z</time>
      </trkpt>
      <trkpt lat="44.44304" lon="1.01037">
        <ele>225.495041</ele>
        <time>2019-08-17T12:49:11Z</time>
      </trkpt>
      <trkpt lat="44.44309" lon="1.01035">
        <ele>225.208664</ele>
        <time>2019-08-17T12:49:12Z</time>
      </trkpt>
      <trkpt lat="44.44313" lon="1.01033">
        <ele>224.922607</ele>
        <time>2019-08-17T12:49:13Z</time>
      </trkpt>
      <trkpt lat="44.44317" lon="1.01032">
        <ele>224.646408</ele>
        <time>2019-08-17T12:49:14Z</time>
      </trkpt>
      <trkpt lat="44.44322" lon="1.01032">
        <ele>224.438965</ele>
        <time>2019-08-17T12:49:15Z</time>
      </trkpt>
      <trkpt lat="44.44326" lon="1.01033">
        <ele>224.275467</ele>
        <time>2019-08-17T12:49:16Z</time>
      </trkpt>
      <trkpt lat="44.4433" lon="1.01035">
        <ele>224.148804</ele>
        <time>2019-08-17T12:49:17Z</time>
      </trkpt>
      <trkpt lat="44.44334" lon="1.01037">
        <ele>224.076614</ele>
        <time>2019-08-17T12:49:18Z</time>
      </trkpt>
      <trkpt lat="44.44339" lon="1.01039">
        <ele>224.076614</ele>
        <time>2019-08-17T12:49:19Z</time>
      </trkpt>
      <trkpt lat="44.44344" lon="1.0104">
        <ele>224.065842</ele>
        <time>2019-08-17T12:49:20Z</time>
      </trkpt>
      <trkpt lat="44.44348" lon="1.01042">
        <ele>224.065842</ele>
        <time>2019-08-17T12:49:21Z</time>
      </trkpt>
      <trkpt lat="44.44353" lon="1.01044">
        <ele>224.065842</ele>
        <time>2019-08-17T12:49:22Z</time>
      </trkpt>
      <trkpt lat="44.44357" lon="1.01046">
        <ele>224.092163</ele>
        <time>2019-08-17T12:49:23Z</time>
      </trkpt>
      <trkpt lat="44.44362" lon="1.01048">
        <ele>224.146606</ele>
        <time>2019-08-17T12:49:24Z</time>
      </trkpt>
      <trkpt lat="44.44366" lon="1.0105">
        <ele>224.224442</ele>
        <time>2019-08-17T12:49:25Z</time>
      </trkpt>
      <trkpt lat="44.4437" lon="1.01053">
        <ele>224.324295</ele>
        <time>2019-08-17T12:49:26Z</time>
      </trkpt>
      <trkpt lat="44.44375" lon="1.01055">
        <ele>224.425659</ele>
        <time>2019-08-17T12:49:27Z</time>
      </trkpt>
      <trkpt lat="44.44379" lon="1.01058">
        <ele>224.514267</ele>
        <time>2019-08-17T12:49:28Z</time>
      </trkpt>
      <trkpt lat="44.44383" lon="1.01062">
        <ele>224.606033</ele>
        <time>2019-08-17T12:49:29Z</time>
      </trkpt>
      <trkpt lat="44.44387" lon="1.01066">
        <ele>224.704468</ele>
        <time>2019-08-17T12:49:30Z</time>
      </trkpt>
      <trkpt lat="44.44391" lon="1.0107">
        <ele>224.809891</ele>
        <time>2019-08-17T12:49:31Z</time>
      </trkpt>
      <trkpt lat="44.44395" lon="1.01074">
        <ele>224.928818</ele>
        <time>2019-08-17T12:49:32Z</time>
      </trkpt>
      <trkpt lat="44.44399" lon="1.01078">
        <ele>225.054123</ele>
        <time>2019-08-17T12:49:33Z</time>
      </trkpt>
      <trkpt lat="44.44403" lon="1.01082">
        <ele>225.18129</ele>
        <time>2019-08-17T12:49:34Z</time>
      </trkpt>
      <trkpt lat="44.44407" lon="1.01086">
        <ele>225.269958</ele>
        <time>2019-08-17T12:49:35Z</time>
      </trkpt>
      <trkpt lat="44.44411" lon="1.0109">
        <ele>225.318283</ele>
        <time>2019-08-17T12:49:36Z</time>
      </trkpt>
      <trkpt lat="44.44415" lon="1.01094">
        <ele>225.324203</ele>
        <time>2019-08-17T12:49:37Z</time>
      </trkpt>
      <trkpt lat="44.44419" lon="1.01099">
        <ele>225.324203</ele>
        <time>2019-08-17T12:49:38Z</time>
      </trkpt>
      <trkpt lat="44.44423" lon="1.01104">
        <ele>225.324203</ele>
        <time>2019-08-17T12:49:39Z</time>
      </trkpt>
      <trkpt lat="44.44427" lon="1.01109">
        <ele>225.284805</ele>
        <time>2019-08-17T12:49:40Z</time>
      </trkpt>
      <trkpt lat="44.4443" lon="1.01114">
        <ele>225.205566</ele>
        <time>2019-08-17T12:49:41Z</time>
      </trkpt>
      <trkpt lat="44.44433" lon="1.0112">
        <ele>225.205566</ele>
        <time>2019-08-17T12:49:42Z</time>
      </trkpt>
      <trkpt lat="44.44437" lon="1.01125">
        <ele>225.086594</ele>
        <time>2019-08-17T12:49:43Z</time>
      </trkpt>
      <trkpt lat="44.4444" lon="1.01131">
        <ele>224.970871</ele>
        <time>2019-08-17T12:49:44Z</time>
      </trkpt>
      <trkpt lat="44.44443" lon="1.01137">
        <ele>224.843918</ele>
        <time>2019-08-17T12:49:45Z</time>
      </trkpt>
      <trkpt lat="44.44446" lon="1.01143">
        <ele>224.843918</ele>
        <time>2019-08-17T12:49:46Z</time>
      </trkpt>
      <trkpt lat="44.44449" lon="1.01149">
        <ele>224.720871</ele>
        <time>2019-08-17T12:49:47Z</time>
      </trkpt>
      <trkpt lat="44.44452" lon="1.01155">
        <ele>224.602707</ele>
        <time>2019-08-17T12:49:48Z</time>
      </trkpt>
      <trkpt lat="44.44455" lon="1.01161">
        <ele>224.47168</ele>
        <time>2019-08-17T12:49:49Z</time>
      </trkpt>
      <trkpt lat="44.44458" lon="1.01167">
        <ele>224.47168</ele>
        <time>2019-08-17T12:49:50Z</time>
      </trkpt>
      <trkpt lat="44.44461" lon="1.01173">
        <ele>224.344482</ele>
        <time>2019-08-17T12:49:51Z</time>
      </trkpt>
      <trkpt lat="44.44463" lon="1.0118">
        <ele>224.215408</ele>
        <time>2019-08-17T12:49:52Z</time>
      </trkpt>
      <trkpt lat="44.44466" lon="1.01186">
        <ele>224.077469</ele>
        <time>2019-08-17T12:49:53Z</time>
      </trkpt>
      <trkpt lat="44.44469" lon="1.01192">
        <ele>223.935303</ele>
        <time>2019-08-17T12:49:54Z</time>
      </trkpt>
      <trkpt lat="44.44471" lon="1.01197">
        <ele>223.787674</ele>
        <time>2019-08-17T12:49:55Z</time>
      </trkpt>
      <trkpt lat="44.44474" lon="1.01201">
        <ele>223.652344</ele>
        <time>2019-08-17T12:49:56Z</time>
      </trkpt>
      <trkpt lat="44.44476" lon="1.01203">
        <ele>223.513428</ele>
        <time>2019-08-17T12:49:57Z</time>
      </trkpt>
      <trkpt lat="44.44479" lon="1.01204">
        <ele>223.375</ele>
        <time>2019-08-17T12:49:58Z</time>
      </trkpt>
      <trkpt lat="44.44481" lon="1.01204">
        <ele>223.258545</ele>
        <time>2019-08-17T12:49:59Z</time>
      </trkpt>
      <trkpt lat="44.44484" lon="1.01203">
        <ele>223.145508</ele>
        <time>2019-08-17T12:50:00Z</time>
      </trkpt>
      <trkpt lat="44.44488" lon="1.01199">
        <ele>223.036377</ele>
        <time>2019-08-17T12:50:01Z</time>
      </trkpt>
      <trkpt lat="44.44491" lon="1.01194">
        <ele>222.925781</ele>
        <time>2019-08-17T12:50:02Z</time>
      </trkpt>
      <trkpt lat="44.44494" lon="1.01189">
        <ele>222.810547</ele>
        <time>2019-08-17T12:50:03Z</time>
      </trkpt>
      <trkpt lat="44.44498" lon="1.01184">
        <ele>222.810547</ele>
        <time>2019-08-17T12:50:04Z</time>
      </trkpt>
      <trkpt lat="44.44502" lon="1.01179">
        <ele>222.689209</ele>
        <time>2019-08-17T12:50:05Z</time>
      </trkpt>
      <trkpt lat="44.44506" lon="1.01174">
        <ele>222.564209</ele>
        <time>2019-08-17T12:50:06Z</time>
      </trkpt>
      <trkpt lat="44.44509" lon="1.01169">
        <ele>222.405273</ele>
        <time>2019-08-17T12:50:07Z</time>
      </trkpt>
      <trkpt lat="44.44513" lon="1.01165">
        <ele>222.236572</ele>
        <time>2019-08-17T12:50:08Z</time>
      </trkpt>
      <trkpt lat="44.44518" lon="1.0116">
        <ele>222.060547</ele>
        <time>2019-08-17T12:50:09Z</time>
      </trkpt>
      <trkpt lat="44.44522" lon="1.01156">
        <ele>221.879639</ele>
        <time>2019-08-17T12:50:10Z</time>
      </trkpt>
      <trkpt lat="44.44526" lon="1.01152">
        <ele>221.694092</ele>
        <time>2019-08-17T12:50:11Z</time>
      </trkpt>
      <trkpt lat="44.4453" lon="1.01147">
        <ele>221.502197</ele>
        <time>2019-08-17T12:50:12Z</time>
      </trkpt>
      <trkpt lat="44.44535" lon="1.01143">
        <ele>221.335938</ele>
        <time>2019-08-17T12:50:13Z</time>
      </trkpt>
      <trkpt lat="44.4454" lon="1.01139">
        <ele>221.174316</ele>
        <time>2019-08-17T12:50:14Z</time>
      </trkpt>
      <trkpt lat="44.44545" lon="1.01136">
        <ele>221.020142</ele>
        <time>2019-08-17T12:50:15Z</time>
      </trkpt>
      <trkpt lat="44.44551" lon="1.01132">
        <ele>220.871872</ele>
        <time>2019-08-17T12:50:16Z</time>
      </trkpt>
      <trkpt lat="44.44556" lon="1.0113">
        <ele>220.731125</ele>
        <time>2019-08-17T12:50:17Z</time>
      </trkpt>
      <trkpt lat="44.44561" lon="1.01127">
        <ele>220.731125</ele>
        <time>2019-08-17T12:50:18Z</time>
      </trkpt>
      <trkpt lat="44.44568" lon="1.01124">
        <ele>220.597717</ele>
        <time>2019-08-17T12:50:19Z</time>
      </trkpt>
      <trkpt lat="44.44573" lon="1.01121">
        <ele>220.469849</ele>
        <time>2019-08-17T12:50:20Z</time>
      </trkpt>
      <trkpt lat="44.44579" lon="1.01119">
        <ele>220.322632</ele>
        <time>2019-08-17T12:50:21Z</time>
      </trkpt>
      <trkpt lat="44.44584" lon="1.01116">
        <ele>220.175888</ele>
        <time>2019-08-17T12:50:22Z</time>
      </trkpt>
      <trkpt lat="44.4459" lon="1.01114">
        <ele>220.03302</ele>
        <time>2019-08-17T12:50:23Z</time>
      </trkpt>
      <trkpt lat="44.44596" lon="1.01112">
        <ele>219.893814</ele>
        <time>2019-08-17T12:50:24Z</time>
      </trkpt>
      <trkpt lat="44.44602" lon="1.01109">
        <ele>219.758606</ele>
        <time>2019-08-17T12:50:25Z</time>
      </trkpt>
      <trkpt lat="44.44608" lon="1.01107">
        <ele>219.625916</ele>
        <time>2019-08-17T12:50:26Z</time>
      </trkpt>
      <trkpt lat="44.44614" lon="1.01104">
        <ele>219.518982</ele>
        <time>2019-08-17T12:50:27Z</time>
      </trkpt>
      <trkpt lat="44.4462" lon="1.01101">
        <ele>219.417007</ele>
        <time>2019-08-17T12:50:28Z</time>
      </trkpt>
      <trkpt lat="44.44626" lon="1.01098">
        <ele>219.320175</ele>
        <time>2019-08-17T12:50:29Z</time>
      </trkpt>
      <trkpt lat="44.44633" lon="1.01095">
        <ele>219.228653</ele>
        <time>2019-08-17T12:50:30Z</time>
      </trkpt>
      <trkpt lat="44.44639" lon="1.01092">
        <ele>219.145065</ele>
        <time>2019-08-17T12:50:31Z</time>
      </trkpt>
      <trkpt lat="44.44646" lon="1.01089">
        <ele>219.068787</ele>
        <time>2019-08-17T12:50:32Z</time>
      </trkpt>
      <trkpt lat="44.44653" lon="1.01086">
        <ele>218.998398</ele>
        <time>2019-08-17T12:50:33Z</time>
      </trkpt>
      <trkpt lat="44.4466" lon="1.01083">
        <ele>218.933395</ele>
        <time>2019-08-17T12:50:34Z</time>
      </trkpt>
      <trkpt lat="44.44667" lon="1.0108">
        <ele>218.874405</ele>
        <time>2019-08-17T12:50:35Z</time>
      </trkpt>
      <trkpt lat="44.44675" lon="1.01078">
        <ele>218.821396</ele>
        <time>2019-08-17T12:50:36Z</time>
      </trkpt>
      <trkpt lat="44.44682" lon="1.01075">
        <ele>218.76416</ele>
        <time>2019-08-17T12:50:37Z</time>
      </trkpt>
      <trkpt lat="44.4469" lon="1.01072">
        <ele>218.695663</ele>
        <time>2019-08-17T12:50:38Z</time>
      </trkpt>
      <trkpt lat="44.44698" lon="1.01068">
        <ele>218.61525</ele>
        <time>2019-08-17T12:50:39Z</time>
      </trkpt>
      <trkpt lat="44.44705" lon="1.01065">
        <ele>218.522766</ele>
        <time>2019-08-17T12:50:40Z</time>
      </trkpt>
      <trkpt lat="44.44712" lon="1.01061">
        <ele>218.39592</ele>
        <time>2019-08-17T12:50:41Z</time>
      </trkpt>
      <trkpt lat="44.4472" lon="1.01058">
        <ele>218.229904</ele>
        <time>2019-08-17T12:50:42Z</time>
      </trkpt>
      <trkpt lat="44.44727" lon="1.01056">
        <ele>218.032394</ele>
        <time>2019-08-17T12:50:43Z</time>
      </trkpt>
      <trkpt lat="44.44734" lon="1.01053">
        <ele>217.812851</ele>
        <time>2019-08-17T12:50:44Z</time>
      </trkpt>
      <trkpt lat="44.44742" lon="1.0105">
        <ele>217.573318</ele>
        <time>2019-08-17T12:50:45Z</time>
      </trkpt>
      <trkpt lat="44.44749" lon="1.01048">
        <ele>217.308762</ele>
        <time>2019-08-17T12:50:46Z</time>
      </trkpt>
      <trkpt lat="44.44756" lon="1.01045">
        <ele>217.023926</ele>
        <time>2019-08-17T12:50:47Z</time>
      </trkpt>
      <trkpt lat="44.44764" lon="1.01042">
        <ele>216.72551</ele>
        <time>2019-08-17T12:50:48Z</time>
      </trkpt>
      <trkpt lat="44.44771" lon="1.0104">
        <ele>216.41333</ele>
        <time>2019-08-17T12:50:49Z</time>
      </trkpt>
      <trkpt lat="44.44778" lon="1.01039">
        <ele>216.41333</ele>
        <time>2019-08-17T12:50:50Z</time>
      </trkpt>
      <trkpt lat="44.44786" lon="1.01039">
        <ele>216.08577</ele>
        <time>2019-08-17T12:50:51Z</time>
      </trkpt>
      <trkpt lat="44.44793" lon="1.01039">
        <ele>215.739746</ele>
        <time>2019-08-17T12:50:52Z</time>
      </trkpt>
      <trkpt lat="44.448" lon="1.01039">
        <ele>215.323898</ele>
        <time>2019-08-17T12:50:53Z</time>
      </trkpt>
      <trkpt lat="44.44805" lon="1.0104">
        <ele>214.913254</ele>
        <time>2019-08-17T12:50:54Z</time>
      </trkpt>
      <trkpt lat="44.44809" lon="1.0104">
        <ele>214.509521</ele>
        <time>2019-08-17T12:50:55Z</time>
      </trkpt>
      <trkpt lat="44.44812" lon="1.0104">
        <ele>214.088135</ele>
        <time>2019-08-17T12:50:56Z</time>
      </trkpt>
      <trkpt lat="44.44816" lon="1.0104">
        <ele>213.663651</ele>
        <time>2019-08-17T12:50:57Z</time>
      </trkpt>
      <trkpt lat="44.44819" lon="1.0104">
        <ele>213.251144</ele>
        <time>2019-08-17T12:50:58Z</time>
      </trkpt>
      <trkpt lat="44.44822" lon="1.01039">
        <ele>212.915939</ele>
        <time>2019-08-17T12:50:59Z</time>
      </trkpt>
      <trkpt lat="44.44825" lon="1.01039">
        <ele>212.593918</ele>
        <time>2019-08-17T12:51:00Z</time>
      </trkpt>
      <trkpt lat="44.44829" lon="1.01038">
        <ele>212.283203</ele>
        <time>2019-08-17T12:51:01Z</time>
      </trkpt>
      <trkpt lat="44.44832" lon="1.01038">
        <ele>212.010574</ele>
        <time>2019-08-17T12:51:02Z</time>
      </trkpt>
      <trkpt lat="44.44835" lon="1.01039">
        <ele>211.759521</ele>
        <time>2019-08-17T12:51:03Z</time>
      </trkpt>
      <trkpt lat="44.44839" lon="1.01039">
        <ele>211.51741</ele>
        <time>2019-08-17T12:51:04Z</time>
      </trkpt>
      <trkpt lat="44.44842" lon="1.0104">
        <ele>211.51741</ele>
        <time>2019-08-17T12:51:05Z</time>
      </trkpt>
      <trkpt lat="44.44845" lon="1.01039">
        <ele>211.275711</ele>
        <time>2019-08-17T12:51:06Z</time>
      </trkpt>
      <trkpt lat="44.44848" lon="1.01038">
        <ele>211.035645</ele>
        <time>2019-08-17T12:51:07Z</time>
      </trkpt>
      <trkpt lat="44.4485" lon="1.01036">
        <ele>210.756104</ele>
        <time>2019-08-17T12:51:08Z</time>
      </trkpt>
      <trkpt lat="44.44852" lon="1.01034">
        <ele>210.482254</ele>
        <time>2019-08-17T12:51:09Z</time>
      </trkpt>
      <trkpt lat="44.44854" lon="1.01032">
        <ele>210.215332</ele>
        <time>2019-08-17T12:51:10Z</time>
      </trkpt>
      <trkpt lat="44.44855" lon="1.01029">
        <ele>209.955002</ele>
        <time>2019-08-17T12:51:11Z</time>
      </trkpt>
      <trkpt lat="44.44857" lon="1.01027">
        <ele>209.704422</ele>
        <time>2019-08-17T12:51:12Z</time>
      </trkpt>
      <trkpt lat="44.44859" lon="1.01025">
        <ele>209.465256</ele>
        <time>2019-08-17T12:51:13Z</time>
      </trkpt>
      <trkpt lat="44.4486" lon="1.01024">
        <ele>209.282303</ele>
        <time>2019-08-17T12:51:14Z</time>
      </trkpt>
      <trkpt lat="44.44862" lon="1.01022">
        <ele>209.109131</ele>
        <time>2019-08-17T12:51:15Z</time>
      </trkpt>
      <trkpt lat="44.44864" lon="1.01021">
        <ele>208.944504</ele>
        <time>2019-08-17T12:51:16Z</time>
      </trkpt>
      <trkpt lat="44.44865" lon="1.01021">
        <ele>208.790451</ele>
        <time>2019-08-17T12:51:17Z</time>
      </trkpt>
      <trkpt lat="44.44867" lon="1.01021">
        <ele>208.640457</ele>
        <time>2019-08-17T12:51:18Z</time>
      </trkpt>
      <trkpt lat="44.4487" lon="1.01021">
        <ele>208.493301</ele>
        <time>2019-08-17T12:51:19Z</time>
      </trkpt>
      <trkpt lat="44.44873" lon="1.01021">
        <ele>208.338913</ele>
        <time>2019-08-17T12:51:20Z</time>
      </trkpt>
      <trkpt lat="44.44874" lon="1.01023">
        <ele>208.174576</ele>
        <time>2019-08-17T12:51:21Z</time>
      </trkpt>
      <trkpt lat="44.44876" lon="1.01025">
        <ele>207.994247</ele>
        <time>2019-08-17T12:51:22Z</time>
      </trkpt>
      <trkpt lat="44.44877" lon="1.01028">
        <ele>207.793518</ele>
        <time>2019-08-17T12:51:23Z</time>
      </trkpt>
      <trkpt lat="44.44877" lon="1.01031">
        <ele>207.589828</ele>
        <time>2019-08-17T12:51:24Z</time>
      </trkpt>
      <trkpt lat="44.44875" lon="1.01033">
        <ele>207.403824</ele>
        <time>2019-08-17T12:51:25Z</time>
      </trkpt>
      <trkpt lat="44.44873" lon="1.01035">
        <ele>207.403824</ele>
        <time>2019-08-17T12:51:26Z</time>
      </trkpt>
      <trkpt lat="44.4487" lon="1.01035">
        <ele>207.316345</ele>
        <time>2019-08-17T12:51:27Z</time>
      </trkpt>
      <trkpt lat="44.44866" lon="1.01035">
        <ele>207.31102</ele>
        <time>2019-08-17T12:51:28Z</time>
      </trkpt>
      <trkpt lat="44.44862" lon="1.01035">
        <ele>207.31102</ele>
        <time>2019-08-17T12:51:29Z</time>
      </trkpt>
      <trkpt lat="44.44858" lon="1.01034">
        <ele>207.31102</ele>
        <time>2019-08-17T12:51:30Z</time>
      </trkpt>
      <trkpt lat="44.44854" lon="1.01035">
        <ele>207.410172</ele>
        <time>2019-08-17T12:51:31Z</time>
      </trkpt>
      <trkpt lat="44.44851" lon="1.01036">
        <ele>207.615219</ele>
        <time>2019-08-17T12:51:32Z</time>
      </trkpt>
      <trkpt lat="44.44848" lon="1.01038">
        <ele>207.896866</ele>
        <time>2019-08-17T12:51:33Z</time>
      </trkpt>
      <trkpt lat="44.44846" lon="1.01041">
        <ele>208.238159</ele>
        <time>2019-08-17T12:51:34Z</time>
      </trkpt>
      <trkpt lat="44.44846" lon="1.01045">
        <ele>208.556046</ele>
        <time>2019-08-17T12:51:35Z</time>
      </trkpt>
      <trkpt lat="44.44846" lon="1.01048">
        <ele>208.8647</ele>
        <time>2019-08-17T12:51:36Z</time>
      </trkpt>
      <trkpt lat="44.44848" lon="1.01052">
        <ele>209.13533</ele>
        <time>2019-08-17T12:51:37Z</time>
      </trkpt>
      <trkpt lat="44.44849" lon="1.01055">
        <ele>209.354004</ele>
        <time>2019-08-17T12:51:38Z</time>
      </trkpt>
      <trkpt lat="44.44851" lon="1.01058">
        <ele>209.511551</ele>
        <time>2019-08-17T12:51:39Z</time>
      </trkpt>
      <trkpt lat="44.44853" lon="1.0106">
        <ele>209.604416</ele>
        <time>2019-08-17T12:51:40Z</time>
      </trkpt>
      <trkpt lat="44.44855" lon="1.0106">
        <ele>209.634521</ele>
        <time>2019-08-17T12:51:41Z</time>
      </trkpt>
      <trkpt lat="44.44858" lon="1.0106">
        <ele>209.634521</ele>
        <time>2019-08-17T12:51:42Z</time>
      </trkpt>
      <trkpt lat="44.44861" lon="1.01058">
        <ele>209.634521</ele>
        <time>2019-08-17T12:51:43Z</time>
      </trkpt>
      <trkpt lat="44.44864" lon="1.01056">
        <ele>209.596756</ele>
        <time>2019-08-17T12:51:44Z</time>
      </trkpt>
      <trkpt lat="44.44867" lon="1.01052">
        <ele>209.499588</ele>
        <time>2019-08-17T12:51:45Z</time>
      </trkpt>
      <trkpt lat="44.4487" lon="1.01049">
        <ele>209.354248</ele>
        <time>2019-08-17T12:51:46Z</time>
      </trkpt>
      <trkpt lat="44.44874" lon="1.01045">
        <ele>209.178299</ele>
        <time>2019-08-17T12:51:47Z</time>
      </trkpt>
      <trkpt lat="44.44878" lon="1.0104">
        <ele>208.962967</ele>
        <time>2019-08-17T12:51:48Z</time>
      </trkpt>
      <trkpt lat="44.44882" lon="1.01036">
        <ele>208.703445</ele>
        <time>2019-08-17T12:51:49Z</time>
      </trkpt>
      <trkpt lat="44.44886" lon="1.01031">
        <ele>208.401001</ele>
        <time>2019-08-17T12:51:50Z</time>
      </trkpt>
      <trkpt lat="44.4489" lon="1.01026">
        <ele>208.401001</ele>
        <time>2019-08-17T12:51:51Z</time>
      </trkpt>
      <trkpt lat="44.44895" lon="1.01021">
        <ele>208.054565</ele>
        <time>2019-08-17T12:51:52Z</time>
      </trkpt>
      <trkpt lat="44.44899" lon="1.01016">
        <ele>207.664551</ele>
        <time>2019-08-17T12:51:53Z</time>
      </trkpt>
      <trkpt lat="44.44904" lon="1.01011">
        <ele>207.147827</ele>
        <time>2019-08-17T12:51:54Z</time>
      </trkpt>
      <trkpt lat="44.44909" lon="1.01006">
        <ele>206.597427</ele>
        <time>2019-08-17T12:51:55Z</time>
      </trkpt>
      <trkpt lat="44.44914" lon="1.01001">
        <ele>206.018494</ele>
        <time>2019-08-17T12:51:56Z</time>
      </trkpt>
      <trkpt lat="44.44919" lon="1.00995">
        <ele>205.40834</ele>
        <time>2019-08-17T12:51:57Z</time>
      </trkpt>
      <trkpt lat="44.44923" lon="1.0099">
        <ele>204.774429</ele>
        <time>2019-08-17T12:51:58Z</time>
      </trkpt>
      <trkpt lat="44.44929" lon="1.00984">
        <ele>204.112366</ele>
        <time>2019-08-17T12:51:59Z</time>
      </trkpt>
      <trkpt lat="44.44934" lon="1.00978">
        <ele>203.515244</ele>
        <time>2019-08-17T12:52:00Z</time>
      </trkpt>
      <trkpt lat="44.44939" lon="1.00972">
        <ele>202.898697</ele>
        <time>2019-08-17T12:52:01Z</time>
      </trkpt>
      <trkpt lat="44.44944" lon="1.00965">
        <ele>202.258911</ele>
        <time>2019-08-17T12:52:02Z</time>
      </trkpt>
      <trkpt lat="44.44949" lon="1.00959">
        <ele>201.613327</ele>
        <time>2019-08-17T12:52:03Z</time>
      </trkpt>
      <trkpt lat="44.44955" lon="1.00953">
        <ele>200.967361</ele>
        <time>2019-08-17T12:52:04Z</time>
      </trkpt>
      <trkpt lat="44.4496" lon="1.00947">
        <ele>200.32373</ele>
        <time>2019-08-17T12:52:05Z</time>
      </trkpt>
      <trkpt lat="44.44965" lon="1.0094">
        <ele>199.674316</ele>
        <time>2019-08-17T12:52:06Z</time>
      </trkpt>
      <trkpt lat="44.44971" lon="1.00934">
        <ele>199.674316</ele>
        <time>2019-08-17T12:52:07Z</time>
      </trkpt>
      <trkpt lat="44.44976" lon="1.00927">
        <ele>199.022781</ele>
        <time>2019-08-17T12:52:08Z</time>
      </trkpt>
      <trkpt lat="44.44982" lon="1.00921">
        <ele>198.375168</ele>
        <time>2019-08-17T12:52:09Z</time>
      </trkpt>
      <trkpt lat="44.44986" lon="1.00914">
        <ele>197.611771</ele>
        <time>2019-08-17T12:52:10Z</time>
      </trkpt>
      <trkpt lat="44.44991" lon="1.00907">
        <ele>196.834885</ele>
        <time>2019-08-17T12:52:11Z</time>
      </trkpt>
      <trkpt lat="44.44996" lon="1.009">
        <ele>196.054977</ele>
        <time>2019-08-17T12:52:12Z</time>
      </trkpt>
      <trkpt lat="44.45001" lon="1.00894">
        <ele>195.28334</ele>
        <time>2019-08-17T12:52:13Z</time>
      </trkpt>
      <trkpt lat="44.45007" lon="1.00888">
        <ele>194.519302</ele>
        <time>2019-08-17T12:52:14Z</time>
      </trkpt>
      <trkpt lat="44.45012" lon="1.00882">
        <ele>193.765884</ele>
        <time>2019-08-17T12:52:15Z</time>
      </trkpt>
      <trkpt lat="44.45017" lon="1.00876">
        <ele>193.128403</ele>
        <time>2019-08-17T12:52:16Z</time>
      </trkpt>
      <trkpt lat="44.45021" lon="1.00871">
        <ele>192.488632</ele>
        <time>2019-08-17T12:52:17Z</time>
      </trkpt>
      <trkpt lat="44.45024" lon="1.00867">
        <ele>191.846085</ele>
        <time>2019-08-17T12:52:18Z</time>
      </trkpt>
      <trkpt lat="44.45026" lon="1.00862">
        <ele>191.196579</ele>
        <time>2019-08-17T12:52:19Z</time>
      </trkpt>
      <trkpt lat="44.45027" lon="1.00858">
        <ele>190.547287</ele>
        <time>2019-08-17T12:52:20Z</time>
      </trkpt>
      <trkpt lat="44.45028" lon="1.00854">
        <ele>189.920486</ele>
        <time>2019-08-17T12:52:21Z</time>
      </trkpt>
      <trkpt lat="44.45029" lon="1.0085">
        <ele>189.346756</ele>
        <time>2019-08-17T12:52:22Z</time>
      </trkpt>
      <trkpt lat="44.45028" lon="1.00845">
        <ele>189.346756</ele>
        <time>2019-08-17T12:52:23Z</time>
      </trkpt>
      <trkpt lat="44.45025" lon="1.00841">
        <ele>188.85408</ele>
        <time>2019-08-17T12:52:24Z</time>
      </trkpt>
      <trkpt lat="44.45023" lon="1.00837">
        <ele>188.4375</ele>
        <time>2019-08-17T12:52:25Z</time>
      </trkpt>
      <trkpt lat="44.45021" lon="1.00833">
        <ele>188.138107</ele>
        <time>2019-08-17T12:52:26Z</time>
      </trkpt>
      <trkpt lat="44.45021" lon="1.00828">
        <ele>187.951248</ele>
        <time>2019-08-17T12:52:27Z</time>
      </trkpt>
      <trkpt lat="44.45021" lon="1.00824">
        <ele>187.828125</ele>
        <time>2019-08-17T12:52:28Z</time>
      </trkpt>
      <trkpt lat="44.45023" lon="1.00821">
        <ele>187.738846</ele>
        <time>2019-08-17T12:52:29Z</time>
      </trkpt>
      <trkpt lat="44.45025" lon="1.00818">
        <ele>187.672928</ele>
        <time>2019-08-17T12:52:30Z</time>
      </trkpt>
      <trkpt lat="44.45027" lon="1.00815">
        <ele>187.61824</ele>
        <time>2019-08-17T12:52:31Z</time>
      </trkpt>
      <trkpt lat="44.45029" lon="1.00812">
        <ele>187.539795</ele>
        <time>2019-08-17T12:52:32Z</time>
      </trkpt>
      <trkpt lat="44.45029" lon="1.00808">
        <ele>187.421707</ele>
        <time>2019-08-17T12:52:33Z</time>
      </trkpt>
      <trkpt lat="44.45027" lon="1.00806">
        <ele>187.285812</ele>
        <time>2019-08-17T12:52:34Z</time>
      </trkpt>
      <trkpt lat="44.45025" lon="1.00805">
        <ele>187.08252</ele>
        <time>2019-08-17T12:52:35Z</time>
      </trkpt>
      <trkpt lat="44.45023" lon="1.00805">
        <ele>186.891281</ele>
        <time>2019-08-17T12:52:36Z</time>
      </trkpt>
      <trkpt lat="44.45021" lon="1.00806">
        <ele>186.775558</ele>
        <time>2019-08-17T12:52:37Z</time>
      </trkpt>
      <trkpt lat="44.45019" lon="1.00805">
        <ele>186.738602</ele>
        <time>2019-08-17T12:52:38Z</time>
      </trkpt>
      <trkpt lat="44.45018" lon="1.00803">
        <ele>186.738602</ele>
        <time>2019-08-17T12:52:39Z</time>
      </trkpt>
      <trkpt lat="44.45018" lon="1.008">
        <ele>186.738602</ele>
        <time>2019-08-17T12:52:40Z</time>
      </trkpt>
      <trkpt lat="44.4502" lon="1.00798">
        <ele>186.757645</ele>
        <time>2019-08-17T12:52:41Z</time>
      </trkpt>
      <trkpt lat="44.45021" lon="1.00796">
        <ele>186.757645</ele>
        <time>2019-08-17T12:52:42Z</time>
      </trkpt>
      <trkpt lat="44.45023" lon="1.00794">
        <ele>186.738892</ele>
        <time>2019-08-17T12:52:43Z</time>
      </trkpt>
      <trkpt lat="44.45025" lon="1.00791">
        <ele>186.738892</ele>
        <time>2019-08-17T12:52:44Z</time>
      </trkpt>
      <trkpt lat="44.45027" lon="1.00789">
        <ele>186.738892</ele>
        <time>2019-08-17T12:52:45Z</time>
      </trkpt>
      <trkpt lat="44.45029" lon="1.00786">
        <ele>186.702103</ele>
        <time>2019-08-17T12:52:46Z</time>
      </trkpt>
      <trkpt lat="44.45031" lon="1.00783">
        <ele>186.5625</ele>
        <time>2019-08-17T12:52:47Z</time>
      </trkpt>
      <trkpt lat="44.45033" lon="1.00779">
        <ele>186.309372</ele>
        <time>2019-08-17T12:52:48Z</time>
      </trkpt>
      <trkpt lat="44.45035" lon="1.00775">
        <ele>185.947754</ele>
        <time>2019-08-17T12:52:49Z</time>
      </trkpt>
      <trkpt lat="44.45037" lon="1.00771">
        <ele>185.499161</ele>
        <time>2019-08-17T12:52:50Z</time>
      </trkpt>
      <trkpt lat="44.45039" lon="1.00768">
        <ele>185.046631</ele>
        <time>2019-08-17T12:52:51Z</time>
      </trkpt>
      <trkpt lat="44.45042" lon="1.00765">
        <ele>184.565231</ele>
        <time>2019-08-17T12:52:52Z</time>
      </trkpt>
      <trkpt lat="44.45044" lon="1.00763">
        <ele>184.057297</ele>
        <time>2019-08-17T12:52:53Z</time>
      </trkpt>
      <trkpt lat="44.45046" lon="1.00761">
        <ele>183.526566</ele>
        <time>2019-08-17T12:52:54Z</time>
      </trkpt>
      <trkpt lat="44.45049" lon="1.00759">
        <ele>182.981567</ele>
        <time>2019-08-17T12:52:55Z</time>
      </trkpt>
      <trkpt lat="44.45051" lon="1.00757">
        <ele>182.433411</ele>
        <time>2019-08-17T12:52:56Z</time>
      </trkpt>
      <trkpt lat="44.45054" lon="1.00756">
        <ele>181.907715</ele>
        <time>2019-08-17T12:52:57Z</time>
      </trkpt>
      <trkpt lat="44.45057" lon="1.00755">
        <ele>181.400253</ele>
        <time>2019-08-17T12:52:58Z</time>
      </trkpt>
      <trkpt lat="44.4506" lon="1.00754">
        <ele>180.911621</ele>
        <time>2019-08-17T12:52:59Z</time>
      </trkpt>
      <trkpt lat="44.45062" lon="1.00753">
        <ele>180.437332</ele>
        <time>2019-08-17T12:53:00Z</time>
      </trkpt>
      <trkpt lat="44.45063" lon="1.0075">
        <ele>179.970703</ele>
        <time>2019-08-17T12:53:01Z</time>
      </trkpt>
      <trkpt lat="44.45064" lon="1.00747">
        <ele>179.970703</ele>
        <time>2019-08-17T12:53:02Z</time>
      </trkpt>
      <trkpt lat="44.45066" lon="1.00743">
        <ele>179.515564</ele>
        <time>2019-08-17T12:53:03Z</time>
      </trkpt>
      <trkpt lat="44.45068" lon="1.0074">
        <ele>179.074631</ele>
        <time>2019-08-17T12:53:04Z</time>
      </trkpt>
      <trkpt lat="44.45069" lon="1.00737">
        <ele>178.563126</ele>
        <time>2019-08-17T12:53:05Z</time>
      </trkpt>
      <trkpt lat="44.4507" lon="1.00735">
        <ele>178.03479</ele>
        <time>2019-08-17T12:53:06Z</time>
      </trkpt>
      <trkpt lat="44.45071" lon="1.00732">
        <ele>178.03479</ele>
        <time>2019-08-17T12:53:07Z</time>
      </trkpt>
      <trkpt lat="44.45072" lon="1.00729">
        <ele>177.499008</ele>
        <time>2019-08-17T12:53:08Z</time>
      </trkpt>
      <trkpt lat="44.45073" lon="1.00727">
        <ele>176.958191</ele>
        <time>2019-08-17T12:53:09Z</time>
      </trkpt>
      <trkpt lat="44.45073" lon="1.00725">
        <ele>176.337234</ele>
        <time>2019-08-17T12:53:10Z</time>
      </trkpt>
      <trkpt lat="44.45074" lon="1.00723">
        <ele>175.710648</ele>
        <time>2019-08-17T12:53:11Z</time>
      </trkpt>
      <trkpt lat="44.45075" lon="1.0072">
        <ele>175.182617</ele>
        <time>2019-08-17T12:53:12Z</time>
      </trkpt>
      <trkpt lat="44.45076" lon="1.00718">
        <ele>174.710999</ele>
        <time>2019-08-17T12:53:13Z</time>
      </trkpt>
      <trkpt lat="44.45078" lon="1.00715">
        <ele>174.285446</ele>
        <time>2019-08-17T12:53:14Z</time>
      </trkpt>
      <trkpt lat="44.4508" lon="1.00712">
        <ele>173.879395</ele>
        <time>2019-08-17T12:53:15Z</time>
      </trkpt>
      <trkpt lat="44.45082" lon="1.00709">
        <ele>173.547653</ele>
        <time>2019-08-17T12:53:16Z</time>
      </trkpt>
      <trkpt lat="44.45084" lon="1.00706">
        <ele>173.199173</ele>
        <time>2019-08-17T12:53:17Z</time>
      </trkpt>
      <trkpt lat="44.45085" lon="1.00703">
        <ele>172.812195</ele>
        <time>2019-08-17T12:53:18Z</time>
      </trkpt>
      <trkpt lat="44.45086" lon="1.007">
        <ele>172.379257</ele>
        <time>2019-08-17T12:53:19Z</time>
      </trkpt>
      <trkpt lat="44.45086" lon="1.00697">
        <ele>171.90918</ele>
        <time>2019-08-17T12:53:20Z</time>
      </trkpt>
      <trkpt lat="44.45088" lon="1.00695">
        <ele>171.426086</ele>
        <time>2019-08-17T12:53:21Z</time>
      </trkpt>
      <trkpt lat="44.4509" lon="1.00692">
        <ele>170.966812</ele>
        <time>2019-08-17T12:53:22Z</time>
      </trkpt>
      <trkpt lat="44.45092" lon="1.0069">
        <ele>170.526855</ele>
        <time>2019-08-17T12:53:23Z</time>
      </trkpt>
      <trkpt lat="44.45095" lon="1.00688">
        <ele>170.099564</ele>
        <time>2019-08-17T12:53:24Z</time>
      </trkpt>
      <trkpt lat="44.45097" lon="1.00685">
        <ele>169.659714</ele>
        <time>2019-08-17T12:53:25Z</time>
      </trkpt>
      <trkpt lat="44.45099" lon="1.00683">
        <ele>169.201981</ele>
        <time>2019-08-17T12:53:26Z</time>
      </trkpt>
      <trkpt lat="44.45101" lon="1.0068">
        <ele>168.720688</ele>
        <time>2019-08-17T12:53:27Z</time>
      </trkpt>
      <trkpt lat="44.45103" lon="1.00678">
        <ele>168.204147</ele>
        <time>2019-08-17T12:53:28Z</time>
      </trkpt>
      <trkpt lat="44.45105" lon="1.00675">
        <ele>168.204147</ele>
        <time>2019-08-17T12:53:29Z</time>
      </trkpt>
      <trkpt lat="44.45107" lon="1.00672">
        <ele>167.66716</ele>
        <time>2019-08-17T12:53:30Z</time>
      </trkpt>
      <trkpt lat="44.45109" lon="1.00669">
        <ele>167.107742</ele>
        <time>2019-08-17T12:53:31Z</time>
      </trkpt>
      <trkpt lat="44.45111" lon="1.00667">
        <ele>166.451675</ele>
        <time>2019-08-17T12:53:32Z</time>
      </trkpt>
      <trkpt lat="44.45114" lon="1.00665">
        <ele>165.79512</ele>
        <time>2019-08-17T12:53:33Z</time>
      </trkpt>
      <trkpt lat="44.45117" lon="1.00663">
        <ele>165.1483</ele>
        <time>2019-08-17T12:53:34Z</time>
      </trkpt>
      <trkpt lat="44.4512" lon="1.00661">
        <ele>164.492813</ele>
        <time>2019-08-17T12:53:35Z</time>
      </trkpt>
      <trkpt lat="44.45123" lon="1.00659">
        <ele>163.809402</ele>
        <time>2019-08-17T12:53:36Z</time>
      </trkpt>
      <trkpt lat="44.45127" lon="1.00657">
        <ele>163.111313</ele>
        <time>2019-08-17T12:53:37Z</time>
      </trkpt>
      <trkpt lat="44.45129" lon="1.00654">
        <ele>162.522339</ele>
        <time>2019-08-17T12:53:38Z</time>
      </trkpt>
      <trkpt lat="44.45131" lon="1.00651">
        <ele>161.962479</ele>
        <time>2019-08-17T12:53:39Z</time>
      </trkpt>
      <trkpt lat="44.45132" lon="1.00647">
        <ele>161.410782</ele>
        <time>2019-08-17T12:53:40Z</time>
      </trkpt>
      <trkpt lat="44.45133" lon="1.00643">
        <ele>160.916733</ele>
        <time>2019-08-17T12:53:41Z</time>
      </trkpt>
      <trkpt lat="44.45135" lon="1.00641">
        <ele>160.527206</ele>
        <time>2019-08-17T12:53:42Z</time>
      </trkpt>
      <trkpt lat="44.45137" lon="1.00638">
        <ele>160.243362</ele>
        <time>2019-08-17T12:53:43Z</time>
      </trkpt>
      <trkpt lat="44.4514" lon="1.00635">
        <ele>160.04071</ele>
        <time>2019-08-17T12:53:44Z</time>
      </trkpt>
      <trkpt lat="44.45142" lon="1.00631">
        <ele>160.04071</ele>
        <time>2019-08-17T12:53:45Z</time>
      </trkpt>
      <trkpt lat="44.45145" lon="1.00627">
        <ele>159.888901</ele>
        <time>2019-08-17T12:53:46Z</time>
      </trkpt>
      <trkpt lat="44.45147" lon="1.00624">
        <ele>159.763504</ele>
        <time>2019-08-17T12:53:47Z</time>
      </trkpt>
      <trkpt lat="44.45149" lon="1.00621">
        <ele>159.586868</ele>
        <time>2019-08-17T12:53:48Z</time>
      </trkpt>
      <trkpt lat="44.45152" lon="1.00617">
        <ele>159.383972</ele>
        <time>2019-08-17T12:53:49Z</time>
      </trkpt>
      <trkpt lat="44.45153" lon="1.00614">
        <ele>159.155472</ele>
        <time>2019-08-17T12:53:50Z</time>
      </trkpt>
      <trkpt lat="44.45155" lon="1.00611">
        <ele>158.88002</ele>
        <time>2019-08-17T12:53:51Z</time>
      </trkpt>
      <trkpt lat="44.45158" lon="1.00608">
        <ele>158.88002</ele>
        <time>2019-08-17T12:53:52Z</time>
      </trkpt>
      <trkpt lat="44.4516" lon="1.00606">
        <ele>158.585938</ele>
        <time>2019-08-17T12:53:53Z</time>
      </trkpt>
      <trkpt lat="44.45162" lon="1.00605">
        <ele>158.308105</ele>
        <time>2019-08-17T12:53:54Z</time>
      </trkpt>
      <trkpt lat="44.45165" lon="1.00603">
        <ele>158.040863</ele>
        <time>2019-08-17T12:53:55Z</time>
      </trkpt>
      <trkpt lat="44.45168" lon="1.00602">
        <ele>157.744873</ele>
        <time>2019-08-17T12:53:56Z</time>
      </trkpt>
      <trkpt lat="44.45171" lon="1.00599">
        <ele>157.411484</ele>
        <time>2019-08-17T12:53:57Z</time>
      </trkpt>
      <trkpt lat="44.45172" lon="1.00596">
        <ele>157.033615</ele>
        <time>2019-08-17T12:53:58Z</time>
      </trkpt>
      <trkpt lat="44.45174" lon="1.00592">
        <ele>156.607239</ele>
        <time>2019-08-17T12:53:59Z</time>
      </trkpt>
      <trkpt lat="44.45175" lon="1.00589">
        <ele>156.154465</ele>
        <time>2019-08-17T12:54:00Z</time>
      </trkpt>
      <trkpt lat="44.45178" lon="1.00587">
        <ele>155.747177</ele>
        <time>2019-08-17T12:54:01Z</time>
      </trkpt>
      <trkpt lat="44.45179" lon="1.00586">
        <ele>155.368759</ele>
        <time>2019-08-17T12:54:02Z</time>
      </trkpt>
      <trkpt lat="44.45181" lon="1.00585">
        <ele>155.015305</ele>
        <time>2019-08-17T12:54:03Z</time>
      </trkpt>
      <trkpt lat="44.45182" lon="1.00585">
        <ele>155.015305</ele>
        <time>2019-08-17T12:54:04Z</time>
      </trkpt>
      <trkpt lat="44.45184" lon="1.00587">
        <ele>154.693298</ele>
        <time>2019-08-17T12:54:05Z</time>
      </trkpt>
      <trkpt lat="44.45187" lon="1.00589">
        <ele>154.409744</ele>
        <time>2019-08-17T12:54:06Z</time>
      </trkpt>
      <trkpt lat="44.4519" lon="1.0059">
        <ele>154.409744</ele>
        <time>2019-08-17T12:54:07Z</time>
      </trkpt>
      <trkpt lat="44.45194" lon="1.00589">
        <ele>154.075821</ele>
        <time>2019-08-17T12:54:08Z</time>
      </trkpt>
      <trkpt lat="44.45198" lon="1.00589">
        <ele>153.692215</ele>
        <time>2019-08-17T12:54:09Z</time>
      </trkpt>
      <trkpt lat="44.45203" lon="1.00588">
        <ele>153.143814</ele>
        <time>2019-08-17T12:54:10Z</time>
      </trkpt>
      <trkpt lat="44.4521" lon="1.00588">
        <ele>152.512619</ele>
        <time>2019-08-17T12:54:11Z</time>
      </trkpt>
      <trkpt lat="44.45216" lon="1.00588">
        <ele>151.785843</ele>
        <time>2019-08-17T12:54:12Z</time>
      </trkpt>
      <trkpt lat="44.45222" lon="1.00588">
        <ele>150.924515</ele>
        <time>2019-08-17T12:54:13Z</time>
      </trkpt>
      <trkpt lat="44.45227" lon="1.00588">
        <ele>150.032196</ele>
        <time>2019-08-17T12:54:14Z</time>
      </trkpt>
      <trkpt lat="44.45233" lon="1.00589">
        <ele>149.102539</ele>
        <time>2019-08-17T12:54:15Z</time>
      </trkpt>
      <trkpt lat="44.45238" lon="1.00589">
        <ele>148.248184</ele>
        <time>2019-08-17T12:54:16Z</time>
      </trkpt>
      <trkpt lat="44.45243" lon="1.00589">
        <ele>147.408752</ele>
        <time>2019-08-17T12:54:17Z</time>
      </trkpt>
      <trkpt lat="44.45247" lon="1.00589">
        <ele>146.617233</ele>
        <time>2019-08-17T12:54:18Z</time>
      </trkpt>
      <trkpt lat="44.45252" lon="1.00589">
        <ele>145.907486</ele>
        <time>2019-08-17T12:54:19Z</time>
      </trkpt>
      <trkpt lat="44.45256" lon="1.00589">
        <ele>145.249161</ele>
        <time>2019-08-17T12:54:20Z</time>
      </trkpt>
      <trkpt lat="44.4526" lon="1.00589">
        <ele>144.62262</ele>
        <time>2019-08-17T12:54:21Z</time>
      </trkpt>
      <trkpt lat="44.45263" lon="1.00588">
        <ele>144.032608</ele>
        <time>2019-08-17T12:54:22Z</time>
      </trkpt>
      <trkpt lat="44.45267" lon="1.00587">
        <ele>143.479385</ele>
        <time>2019-08-17T12:54:23Z</time>
      </trkpt>
      <trkpt lat="44.4527" lon="1.00588">
        <ele>142.95372</ele>
        <time>2019-08-17T12:54:24Z</time>
      </trkpt>
      <trkpt lat="44.45272" lon="1.0059">
        <ele>142.454712</ele>
        <time>2019-08-17T12:54:25Z</time>
      </trkpt>
      <trkpt lat="44.45275" lon="1.00592">
        <ele>141.985336</ele>
        <time>2019-08-17T12:54:26Z</time>
      </trkpt>
      <trkpt lat="44.45278" lon="1.00595">
        <ele>141.985336</ele>
        <time>2019-08-17T12:54:27Z</time>
      </trkpt>
      <trkpt lat="44.45281" lon="1.00597">
        <ele>141.548447</ele>
        <time>2019-08-17T12:54:28Z</time>
      </trkpt>
      <trkpt lat="44.45285" lon="1.00598">
        <ele>141.144272</ele>
        <time>2019-08-17T12:54:29Z</time>
      </trkpt>
      <trkpt lat="44.4529" lon="1.00599">
        <ele>140.764511</ele>
        <time>2019-08-17T12:54:30Z</time>
      </trkpt>
      <trkpt lat="44.45295" lon="1.00599">
        <ele>140.45343</ele>
        <time>2019-08-17T12:54:31Z</time>
      </trkpt>
      <trkpt lat="44.45299" lon="1.00598">
        <ele>140.201172</ele>
        <time>2019-08-17T12:54:32Z</time>
      </trkpt>
      <trkpt lat="44.45303" lon="1.00597">
        <ele>139.994873</ele>
        <time>2019-08-17T12:54:33Z</time>
      </trkpt>
      <trkpt lat="44.45308" lon="1.00596">
        <ele>139.822952</ele>
        <time>2019-08-17T12:54:34Z</time>
      </trkpt>
      <trkpt lat="44.45312" lon="1.00595">
        <ele>139.67865</ele>
        <time>2019-08-17T12:54:35Z</time>
      </trkpt>
      <trkpt lat="44.45316" lon="1.00593">
        <ele>139.562119</ele>
        <time>2019-08-17T12:54:36Z</time>
      </trkpt>
      <trkpt lat="44.45321" lon="1.00591">
        <ele>139.431915</ele>
        <time>2019-08-17T12:54:37Z</time>
      </trkpt>
      <trkpt lat="44.45325" lon="1.00589">
        <ele>139.293015</ele>
        <time>2019-08-17T12:54:38Z</time>
      </trkpt>
      <trkpt lat="44.45329" lon="1.00587">
        <ele>139.147797</ele>
        <time>2019-08-17T12:54:39Z</time>
      </trkpt>
      <trkpt lat="44.45333" lon="1.00585">
        <ele>138.999146</ele>
        <time>2019-08-17T12:54:40Z</time>
      </trkpt>
      <trkpt lat="44.45337" lon="1.00583">
        <ele>138.850235</ele>
        <time>2019-08-17T12:54:41Z</time>
      </trkpt>
      <trkpt lat="44.4534" lon="1.00581">
        <ele>138.704468</ele>
        <time>2019-08-17T12:54:42Z</time>
      </trkpt>
      <trkpt lat="44.45344" lon="1.00578">
        <ele>138.558243</ele>
        <time>2019-08-17T12:54:43Z</time>
      </trkpt>
      <trkpt lat="44.45348" lon="1.00575">
        <ele>138.413025</ele>
        <time>2019-08-17T12:54:44Z</time>
      </trkpt>
      <trkpt lat="44.45353" lon="1.00572">
        <ele>138.348434</ele>
        <time>2019-08-17T12:54:45Z</time>
      </trkpt>
      <trkpt lat="44.45356" lon="1.00569">
        <ele>138.348434</ele>
        <time>2019-08-17T12:54:46Z</time>
      </trkpt>
      <trkpt lat="44.4536" lon="1.00566">
        <ele>138.348434</ele>
        <time>2019-08-17T12:54:47Z</time>
      </trkpt>
      <trkpt lat="44.45364" lon="1.00563">
        <ele>138.388351</ele>
        <time>2019-08-17T12:54:48Z</time>
      </trkpt>
      <trkpt lat="44.45368" lon="1.0056">
        <ele>138.529129</ele>
        <time>2019-08-17T12:54:49Z</time>
      </trkpt>
      <trkpt lat="44.45371" lon="1.00556">
        <ele>138.764084</ele>
        <time>2019-08-17T12:54:50Z</time>
      </trkpt>
      <trkpt lat="44.45375" lon="1.00553">
        <ele>139.088547</ele>
        <time>2019-08-17T12:54:51Z</time>
      </trkpt>
      <trkpt lat="44.45379" lon="1.00549">
        <ele>139.505554</ele>
        <time>2019-08-17T12:54:52Z</time>
      </trkpt>
      <trkpt lat="44.45382" lon="1.00546">
        <ele>139.926819</ele>
        <time>2019-08-17T12:54:53Z</time>
      </trkpt>
      <trkpt lat="44.45385" lon="1.00542">
        <ele>140.328491</ele>
        <time>2019-08-17T12:54:54Z</time>
      </trkpt>
      <trkpt lat="44.45389" lon="1.00539">
        <ele>140.716873</ele>
        <time>2019-08-17T12:54:55Z</time>
      </trkpt>
      <trkpt lat="44.45393" lon="1.00535">
        <ele>141.091187</ele>
        <time>2019-08-17T12:54:56Z</time>
      </trkpt>
      <trkpt lat="44.45396" lon="1.00532">
        <ele>141.091187</ele>
        <time>2019-08-17T12:54:57Z</time>
      </trkpt>
      <trkpt lat="44.454" lon="1.00529">
        <ele>141.456314</ele>
        <time>2019-08-17T12:54:58Z</time>
      </trkpt>
      <trkpt lat="44.45403" lon="1.00526">
        <ele>141.809372</ele>
        <time>2019-08-17T12:54:59Z</time>
      </trkpt>
      <trkpt lat="44.45407" lon="1.00522">
        <ele>142.220444</ele>
        <time>2019-08-17T12:55:00Z</time>
      </trkpt>
      <trkpt lat="44.45411" lon="1.00519">
        <ele>142.629669</ele>
        <time>2019-08-17T12:55:01Z</time>
      </trkpt>
      <trkpt lat="44.45415" lon="1.00516">
        <ele>143.028183</ele>
        <time>2019-08-17T12:55:02Z</time>
      </trkpt>
      <trkpt lat="44.45418" lon="1.00513">
        <ele>143.476486</ele>
        <time>2019-08-17T12:55:03Z</time>
      </trkpt>
      <trkpt lat="44.45422" lon="1.0051">
        <ele>143.988815</ele>
        <time>2019-08-17T12:55:04Z</time>
      </trkpt>
      <trkpt lat="44.45425" lon="1.00506">
        <ele>144.577347</ele>
        <time>2019-08-17T12:55:05Z</time>
      </trkpt>
      <trkpt lat="44.45429" lon="1.00503">
        <ele>145.17897</ele>
        <time>2019-08-17T12:55:06Z</time>
      </trkpt>
      <trkpt lat="44.45432" lon="1.00499">
        <ele>145.857773</ele>
        <time>2019-08-17T12:55:07Z</time>
      </trkpt>
      <trkpt lat="44.45436" lon="1.00496">
        <ele>145.857773</ele>
        <time>2019-08-17T12:55:08Z</time>
      </trkpt>
      <trkpt lat="44.4544" lon="1.00493">
        <ele>146.618195</ele>
        <time>2019-08-17T12:55:09Z</time>
      </trkpt>
      <trkpt lat="44.45443" lon="1.0049">
        <ele>147.411346</ele>
        <time>2019-08-17T12:55:10Z</time>
      </trkpt>
      <trkpt lat="44.45447" lon="1.00487">
        <ele>148.35466</ele>
        <time>2019-08-17T12:55:11Z</time>
      </trkpt>
      <trkpt lat="44.45451" lon="1.00484">
        <ele>149.29509</ele>
        <time>2019-08-17T12:55:12Z</time>
      </trkpt>
      <trkpt lat="44.45454" lon="1.0048">
        <ele>150.238449</ele>
        <time>2019-08-17T12:55:13Z</time>
      </trkpt>
      <trkpt lat="44.45458" lon="1.00477">
        <ele>151.174805</ele>
        <time>2019-08-17T12:55:14Z</time>
      </trkpt>
      <trkpt lat="44.45461" lon="1.00474">
        <ele>152.110352</ele>
        <time>2019-08-17T12:55:15Z</time>
      </trkpt>
      <trkpt lat="44.45465" lon="1.0047">
        <ele>153.049149</ele>
        <time>2019-08-17T12:55:16Z</time>
      </trkpt>
      <trkpt lat="44.45469" lon="1.00467">
        <ele>153.853683</ele>
        <time>2019-08-17T12:55:17Z</time>
      </trkpt>
      <trkpt lat="44.45472" lon="1.00464">
        <ele>154.667648</ele>
        <time>2019-08-17T12:55:18Z</time>
      </trkpt>
      <trkpt lat="44.45477" lon="1.00461">
        <ele>155.481934</ele>
        <time>2019-08-17T12:55:19Z</time>
      </trkpt>
      <trkpt lat="44.4548" lon="1.00458">
        <ele>156.303223</ele>
        <time>2019-08-17T12:55:20Z</time>
      </trkpt>
      <trkpt lat="44.45484" lon="1.00455">
        <ele>157.127762</ele>
        <time>2019-08-17T12:55:21Z</time>
      </trkpt>
      <trkpt lat="44.45488" lon="1.00452">
        <ele>157.950195</ele>
        <time>2019-08-17T12:55:22Z</time>
      </trkpt>
      <trkpt lat="44.45492" lon="1.00449">
        <ele>158.772293</ele>
        <time>2019-08-17T12:55:23Z</time>
      </trkpt>
      <trkpt lat="44.45496" lon="1.00447">
        <ele>159.483231</ele>
        <time>2019-08-17T12:55:24Z</time>
      </trkpt>
      <trkpt lat="44.455" lon="1.00445">
        <ele>160.109207</ele>
        <time>2019-08-17T12:55:25Z</time>
      </trkpt>
      <trkpt lat="44.45504" lon="1.00443">
        <ele>160.639648</ele>
        <time>2019-08-17T12:55:26Z</time>
      </trkpt>
      <trkpt lat="44.45508" lon="1.00441">
        <ele>161.065613</ele>
        <time>2019-08-17T12:55:27Z</time>
      </trkpt>
      <trkpt lat="44.45513" lon="1.00439">
        <ele>161.371902</ele>
        <time>2019-08-17T12:55:28Z</time>
      </trkpt>
      <trkpt lat="44.45517" lon="1.00437">
        <ele>161.561127</ele>
        <time>2019-08-17T12:55:29Z</time>
      </trkpt>
      <trkpt lat="44.45522" lon="1.00435">
        <ele>161.73912</ele>
        <time>2019-08-17T12:55:30Z</time>
      </trkpt>
      <trkpt lat="44.45526" lon="1.00433">
        <ele>161.875061</ele>
        <time>2019-08-17T12:55:31Z</time>
      </trkpt>
      <trkpt lat="44.4553" lon="1.00432">
        <ele>161.982193</ele>
        <time>2019-08-17T12:55:32Z</time>
      </trkpt>
      <trkpt lat="44.45535" lon="1.0043">
        <ele>162.06134</ele>
        <time>2019-08-17T12:55:33Z</time>
      </trkpt>
      <trkpt lat="44.45539" lon="1.00428">
        <ele>162.125931</ele>
        <time>2019-08-17T12:55:34Z</time>
      </trkpt>
      <trkpt lat="44.45543" lon="1.00427">
        <ele>162.125931</ele>
        <time>2019-08-17T12:55:35Z</time>
      </trkpt>
      <trkpt lat="44.45548" lon="1.00425">
        <ele>162.176041</ele>
        <time>2019-08-17T12:55:36Z</time>
      </trkpt>
      <trkpt lat="44.45552" lon="1.00423">
        <ele>162.207336</ele>
        <time>2019-08-17T12:55:37Z</time>
      </trkpt>
      <trkpt lat="44.45556" lon="1.00422">
        <ele>162.227341</ele>
        <time>2019-08-17T12:55:38Z</time>
      </trkpt>
      <trkpt lat="44.4556" lon="1.0042">
        <ele>162.227341</ele>
        <time>2019-08-17T12:55:39Z</time>
      </trkpt>
      <trkpt lat="44.45564" lon="1.00418">
        <ele>162.227341</ele>
        <time>2019-08-17T12:55:40Z</time>
      </trkpt>
      <trkpt lat="44.45569" lon="1.00417">
        <ele>162.222824</ele>
        <time>2019-08-17T12:55:41Z</time>
      </trkpt>
      <trkpt lat="44.45572" lon="1.00415">
        <ele>162.199463</ele>
        <time>2019-08-17T12:55:42Z</time>
      </trkpt>
      <trkpt lat="44.45577" lon="1.00414">
        <ele>162.152344</ele>
        <time>2019-08-17T12:55:43Z</time>
      </trkpt>
      <trkpt lat="44.45581" lon="1.00412">
        <ele>162.077408</ele>
        <time>2019-08-17T12:55:44Z</time>
      </trkpt>
      <trkpt lat="44.45585" lon="1.00411">
        <ele>161.981888</ele>
        <time>2019-08-17T12:55:45Z</time>
      </trkpt>
      <trkpt lat="44.4559" lon="1.00409">
        <ele>161.868454</ele>
        <time>2019-08-17T12:55:46Z</time>
      </trkpt>
      <trkpt lat="44.45594" lon="1.00408">
        <ele>161.738235</ele>
        <time>2019-08-17T12:55:47Z</time>
      </trkpt>
      <trkpt lat="44.45599" lon="1.00407">
        <ele>161.590927</ele>
        <time>2019-08-17T12:55:48Z</time>
      </trkpt>
      <trkpt lat="44.45603" lon="1.00406">
        <ele>161.426208</ele>
        <time>2019-08-17T12:55:49Z</time>
      </trkpt>
      <trkpt lat="44.45608" lon="1.00406">
        <ele>161.246765</ele>
        <time>2019-08-17T12:55:50Z</time>
      </trkpt>
      <trkpt lat="44.45612" lon="1.00405">
        <ele>161.050766</ele>
        <time>2019-08-17T12:55:51Z</time>
      </trkpt>
      <trkpt lat="44.45617" lon="1.00406">
        <ele>160.833801</ele>
        <time>2019-08-17T12:55:52Z</time>
      </trkpt>
      <trkpt lat="44.45621" lon="1.00406">
        <ele>160.596024</ele>
        <time>2019-08-17T12:55:53Z</time>
      </trkpt>
      <trkpt lat="44.45625" lon="1.00407">
        <ele>160.339752</ele>
        <time>2019-08-17T12:55:54Z</time>
      </trkpt>
      <trkpt lat="44.45629" lon="1.00408">
        <ele>160.074173</ele>
        <time>2019-08-17T12:55:55Z</time>
      </trkpt>
      <trkpt lat="44.45633" lon="1.00408">
        <ele>159.861862</ele>
        <time>2019-08-17T12:55:56Z</time>
      </trkpt>
      <trkpt lat="44.45637" lon="1.00408">
        <ele>159.710281</ele>
        <time>2019-08-17T12:55:57Z</time>
      </trkpt>
      <trkpt lat="44.45641" lon="1.00406">
        <ele>159.627243</ele>
        <time>2019-08-17T12:55:58Z</time>
      </trkpt>
      <trkpt lat="44.45646" lon="1.00402">
        <ele>159.624588</ele>
        <time>2019-08-17T12:55:59Z</time>
      </trkpt>
      <trkpt lat="44.45649" lon="1.00399">
        <ele>159.624588</ele>
        <time>2019-08-17T12:56:00Z</time>
      </trkpt>
      <trkpt lat="44.45652" lon="1.00394">
        <ele>159.624588</ele>
        <time>2019-08-17T12:56:01Z</time>
      </trkpt>
      <trkpt lat="44.45656" lon="1.0039">
        <ele>159.702835</ele>
        <time>2019-08-17T12:56:02Z</time>
      </trkpt>
      <trkpt lat="44.4566" lon="1.00386">
        <ele>159.851639</ele>
        <time>2019-08-17T12:56:03Z</time>
      </trkpt>
      <trkpt lat="44.45664" lon="1.00382">
        <ele>160.008652</ele>
        <time>2019-08-17T12:56:04Z</time>
      </trkpt>
      <trkpt lat="44.45667" lon="1.00379">
        <ele>160.008652</ele>
        <time>2019-08-17T12:56:05Z</time>
      </trkpt>
      <trkpt lat="44.45671" lon="1.00376">
        <ele>160.164566</ele>
        <time>2019-08-17T12:56:06Z</time>
      </trkpt>
      <trkpt lat="44.45674" lon="1.00372">
        <ele>160.361862</ele>
        <time>2019-08-17T12:56:07Z</time>
      </trkpt>
      <trkpt lat="44.45678" lon="1.00369">
        <ele>160.361862</ele>
        <time>2019-08-17T12:56:08Z</time>
      </trkpt>
      <trkpt lat="44.45681" lon="1.00366">
        <ele>160.747269</ele>
        <time>2019-08-17T12:56:09Z</time>
      </trkpt>
      <trkpt lat="44.45685" lon="1.00362">
        <ele>161.203629</ele>
        <time>2019-08-17T12:56:10Z</time>
      </trkpt>
      <trkpt lat="44.45688" lon="1.00359">
        <ele>161.828232</ele>
        <time>2019-08-17T12:56:11Z</time>
      </trkpt>
      <trkpt lat="44.45692" lon="1.00355">
        <ele>162.519791</ele>
        <time>2019-08-17T12:56:12Z</time>
      </trkpt>
      <trkpt lat="44.45695" lon="1.00352">
        <ele>163.282303</ele>
        <time>2019-08-17T12:56:13Z</time>
      </trkpt>
      <trkpt lat="44.45699" lon="1.00349">
        <ele>164.067596</ele>
        <time>2019-08-17T12:56:14Z</time>
      </trkpt>
      <trkpt lat="44.45702" lon="1.00345">
        <ele>164.724442</ele>
        <time>2019-08-17T12:56:15Z</time>
      </trkpt>
      <trkpt lat="44.45705" lon="1.00342">
        <ele>165.369873</ele>
        <time>2019-08-17T12:56:16Z</time>
      </trkpt>
      <trkpt lat="44.45709" lon="1.00339">
        <ele>165.903275</ele>
        <time>2019-08-17T12:56:17Z</time>
      </trkpt>
      <trkpt lat="44.45713" lon="1.00337">
        <ele>166.424744</ele>
        <time>2019-08-17T12:56:18Z</time>
      </trkpt>
      <trkpt lat="44.45717" lon="1.00334">
        <ele>166.927139</ele>
        <time>2019-08-17T12:56:19Z</time>
      </trkpt>
      <trkpt lat="44.4572" lon="1.00332">
        <ele>167.400574</ele>
        <time>2019-08-17T12:56:20Z</time>
      </trkpt>
      <trkpt lat="44.45724" lon="1.00329">
        <ele>167.839188</ele>
        <time>2019-08-17T12:56:21Z</time>
      </trkpt>
      <trkpt lat="44.45728" lon="1.00326">
        <ele>168.230835</ele>
        <time>2019-08-17T12:56:22Z</time>
      </trkpt>
      <trkpt lat="44.45732" lon="1.00323">
        <ele>168.588181</ele>
        <time>2019-08-17T12:56:23Z</time>
      </trkpt>
      <trkpt lat="44.45736" lon="1.0032">
        <ele>168.914612</ele>
        <time>2019-08-17T12:56:24Z</time>
      </trkpt>
      <trkpt lat="44.4574" lon="1.00318">
        <ele>169.214096</ele>
        <time>2019-08-17T12:56:25Z</time>
      </trkpt>
      <trkpt lat="44.45744" lon="1.00315">
        <ele>169.492722</ele>
        <time>2019-08-17T12:56:26Z</time>
      </trkpt>
      <trkpt lat="44.45748" lon="1.00313">
        <ele>169.756516</ele>
        <time>2019-08-17T12:56:27Z</time>
      </trkpt>
      <trkpt lat="44.45751" lon="1.0031">
        <ele>170.01889</ele>
        <time>2019-08-17T12:56:28Z</time>
      </trkpt>
      <trkpt lat="44.45755" lon="1.00307">
        <ele>170.27652</ele>
        <time>2019-08-17T12:56:29Z</time>
      </trkpt>
      <trkpt lat="44.45759" lon="1.00305">
        <ele>170.531937</ele>
        <time>2019-08-17T12:56:30Z</time>
      </trkpt>
      <trkpt lat="44.45764" lon="1.00302">
        <ele>170.790237</ele>
        <time>2019-08-17T12:56:31Z</time>
      </trkpt>
      <trkpt lat="44.45768" lon="1.00299">
        <ele>171.045914</ele>
        <time>2019-08-17T12:56:32Z</time>
      </trkpt>
      <trkpt lat="44.45772" lon="1.00297">
        <ele>171.27153</ele>
        <time>2019-08-17T12:56:33Z</time>
      </trkpt>
      <trkpt lat="44.45776" lon="1.00295">
        <ele>171.472885</ele>
        <time>2019-08-17T12:56:34Z</time>
      </trkpt>
      <trkpt lat="44.4578" lon="1.00293">
        <ele>171.635147</ele>
        <time>2019-08-17T12:56:35Z</time>
      </trkpt>
      <trkpt lat="44.45784" lon="1.0029">
        <ele>171.743454</ele>
        <time>2019-08-17T12:56:36Z</time>
      </trkpt>
      <trkpt lat="44.45788" lon="1.00288">
        <ele>171.791504</ele>
        <time>2019-08-17T12:56:37Z</time>
      </trkpt>
      <trkpt lat="44.45792" lon="1.00286">
        <ele>171.791504</ele>
        <time>2019-08-17T12:56:38Z</time>
      </trkpt>
      <trkpt lat="44.45796" lon="1.00284">
        <ele>171.791504</ele>
        <time>2019-08-17T12:56:39Z</time>
      </trkpt>
      <trkpt lat="44.458" lon="1.00282">
        <ele>171.789352</ele>
        <time>2019-08-17T12:56:40Z</time>
      </trkpt>
      <trkpt lat="44.45805" lon="1.0028">
        <ele>171.760422</ele>
        <time>2019-08-17T12:56:41Z</time>
      </trkpt>
      <trkpt lat="44.45809" lon="1.00277">
        <ele>171.69426</ele>
        <time>2019-08-17T12:56:42Z</time>
      </trkpt>
      <trkpt lat="44.45813" lon="1.00275">
        <ele>171.595139</ele>
        <time>2019-08-17T12:56:43Z</time>
      </trkpt>
      <trkpt lat="44.45817" lon="1.00273">
        <ele>171.595139</ele>
        <time>2019-08-17T12:56:44Z</time>
      </trkpt>
      <trkpt lat="44.45821" lon="1.0027">
        <ele>171.487411</ele>
        <time>2019-08-17T12:56:45Z</time>
      </trkpt>
      <trkpt lat="44.45826" lon="1.00268">
        <ele>171.372391</ele>
        <time>2019-08-17T12:56:46Z</time>
      </trkpt>
      <trkpt lat="44.45829" lon="1.00266">
        <ele>171.207596</ele>
        <time>2019-08-17T12:56:47Z</time>
      </trkpt>
      <trkpt lat="44.45834" lon="1.00264">
        <ele>171.024948</ele>
        <time>2019-08-17T12:56:48Z</time>
      </trkpt>
      <trkpt lat="44.45838" lon="1.00262">
        <ele>170.833191</ele>
        <time>2019-08-17T12:56:49Z</time>
      </trkpt>
      <trkpt lat="44.45842" lon="1.00259">
        <ele>170.647385</ele>
        <time>2019-08-17T12:56:50Z</time>
      </trkpt>
      <trkpt lat="44.45847" lon="1.00257">
        <ele>170.456833</ele>
        <time>2019-08-17T12:56:51Z</time>
      </trkpt>
      <trkpt lat="44.45851" lon="1.00255">
        <ele>170.260269</ele>
        <time>2019-08-17T12:56:52Z</time>
      </trkpt>
      <trkpt lat="44.45855" lon="1.00252">
        <ele>170.098389</ele>
        <time>2019-08-17T12:56:53Z</time>
      </trkpt>
      <trkpt lat="44.4586" lon="1.0025">
        <ele>169.94133</ele>
        <time>2019-08-17T12:56:54Z</time>
      </trkpt>
      <trkpt lat="44.45865" lon="1.00248">
        <ele>169.779236</ele>
        <time>2019-08-17T12:56:55Z</time>
      </trkpt>
      <trkpt lat="44.45869" lon="1.00245">
        <ele>169.603897</ele>
        <time>2019-08-17T12:56:56Z</time>
      </trkpt>
      <trkpt lat="44.45874" lon="1.00243">
        <ele>169.410843</ele>
        <time>2019-08-17T12:56:57Z</time>
      </trkpt>
      <trkpt lat="44.45878" lon="1.00241">
        <ele>169.199844</ele>
        <time>2019-08-17T12:56:58Z</time>
      </trkpt>
      <trkpt lat="44.45882" lon="1.00239">
        <ele>168.971436</ele>
        <time>2019-08-17T12:56:59Z</time>
      </trkpt>
      <trkpt lat="44.45887" lon="1.00238">
        <ele>168.73201</ele>
        <time>2019-08-17T12:57:00Z</time>
      </trkpt>
      <trkpt lat="44.45891" lon="1.00236">
        <ele>168.480453</ele>
        <time>2019-08-17T12:57:01Z</time>
      </trkpt>
      <trkpt lat="44.45895" lon="1.00234">
        <ele>168.21582</ele>
        <time>2019-08-17T12:57:02Z</time>
      </trkpt>
      <trkpt lat="44.459" lon="1.00232">
        <ele>167.940414</ele>
        <time>2019-08-17T12:57:03Z</time>
      </trkpt>
      <trkpt lat="44.45904" lon="1.00231">
        <ele>167.68428</ele>
        <time>2019-08-17T12:57:04Z</time>
      </trkpt>
      <trkpt lat="44.45908" lon="1.0023">
        <ele>167.487228</ele>
        <time>2019-08-17T12:57:05Z</time>
      </trkpt>
      <trkpt lat="44.45913" lon="1.00228">
        <ele>167.342972</ele>
        <time>2019-08-17T12:57:06Z</time>
      </trkpt>
      <trkpt lat="44.45918" lon="1.00227">
        <ele>167.254944</ele>
        <time>2019-08-17T12:57:07Z</time>
      </trkpt>
      <trkpt lat="44.45922" lon="1.00226">
        <ele>167.225159</ele>
        <time>2019-08-17T12:57:08Z</time>
      </trkpt>
      <trkpt lat="44.45926" lon="1.00225">
        <ele>167.225159</ele>
        <time>2019-08-17T12:57:09Z</time>
      </trkpt>
      <trkpt lat="44.45931" lon="1.00224">
        <ele>167.225159</ele>
        <time>2019-08-17T12:57:10Z</time>
      </trkpt>
      <trkpt lat="44.45935" lon="1.00224">
        <ele>167.251572</ele>
        <time>2019-08-17T12:57:11Z</time>
      </trkpt>
      <trkpt lat="44.4594" lon="1.00223">
        <ele>167.307175</ele>
        <time>2019-08-17T12:57:12Z</time>
      </trkpt>
      <trkpt lat="44.45944" lon="1.00222">
        <ele>167.353226</ele>
        <time>2019-08-17T12:57:13Z</time>
      </trkpt>
      <trkpt lat="44.45949" lon="1.00221">
        <ele>167.390259</ele>
        <time>2019-08-17T12:57:14Z</time>
      </trkpt>
      <trkpt lat="44.45953" lon="1.0022">
        <ele>167.390259</ele>
        <time>2019-08-17T12:57:15Z</time>
      </trkpt>
      <trkpt lat="44.45959" lon="1.0022">
        <ele>167.42009</ele>
        <time>2019-08-17T12:57:16Z</time>
      </trkpt>
      <trkpt lat="44.45963" lon="1.0022">
        <ele>167.437271</ele>
        <time>2019-08-17T12:57:17Z</time>
      </trkpt>
      <trkpt lat="44.45968" lon="1.0022">
        <ele>167.450943</ele>
        <time>2019-08-17T12:57:18Z</time>
      </trkpt>
      <trkpt lat="44.45973" lon="1.0022">
        <ele>167.461212</ele>
        <time>2019-08-17T12:57:19Z</time>
      </trkpt>
      <trkpt lat="44.45978" lon="1.00221">
        <ele>167.473175</ele>
        <time>2019-08-17T12:57:20Z</time>
      </trkpt>
      <trkpt lat="44.45982" lon="1.00221">
        <ele>167.508118</ele>
        <time>2019-08-17T12:57:21Z</time>
      </trkpt>
      <trkpt lat="44.45987" lon="1.00222">
        <ele>167.567261</ele>
        <time>2019-08-17T12:57:22Z</time>
      </trkpt>
      <trkpt lat="44.45992" lon="1.00222">
        <ele>167.648285</ele>
        <time>2019-08-17T12:57:23Z</time>
      </trkpt>
      <trkpt lat="44.45996" lon="1.00222">
        <ele>167.753067</ele>
        <time>2019-08-17T12:57:24Z</time>
      </trkpt>
      <trkpt lat="44.46" lon="1.00223">
        <ele>167.879211</ele>
        <time>2019-08-17T12:57:25Z</time>
      </trkpt>
      <trkpt lat="44.46004" lon="1.00224">
        <ele>168.02356</ele>
        <time>2019-08-17T12:57:26Z</time>
      </trkpt>
      <trkpt lat="44.46008" lon="1.00224">
        <ele>168.165848</ele>
        <time>2019-08-17T12:57:27Z</time>
      </trkpt>
      <trkpt lat="44.46012" lon="1.00226">
        <ele>168.305344</ele>
        <time>2019-08-17T12:57:28Z</time>
      </trkpt>
      <trkpt lat="44.46015" lon="1.00227">
        <ele>168.443008</ele>
        <time>2019-08-17T12:57:29Z</time>
      </trkpt>
      <trkpt lat="44.46019" lon="1.00228">
        <ele>168.578979</ele>
        <time>2019-08-17T12:57:30Z</time>
      </trkpt>
      <trkpt lat="44.46023" lon="1.00229">
        <ele>168.71402</ele>
        <time>2019-08-17T12:57:31Z</time>
      </trkpt>
      <trkpt lat="44.46027" lon="1.0023">
        <ele>168.847641</ele>
        <time>2019-08-17T12:57:32Z</time>
      </trkpt>
      <trkpt lat="44.46031" lon="1.00231">
        <ele>168.981049</ele>
        <time>2019-08-17T12:57:33Z</time>
      </trkpt>
      <trkpt lat="44.46035" lon="1.00232">
        <ele>169.117233</ele>
        <time>2019-08-17T12:57:34Z</time>
      </trkpt>
      <trkpt lat="44.46039" lon="1.00233">
        <ele>169.255173</ele>
        <time>2019-08-17T12:57:35Z</time>
      </trkpt>
      <trkpt lat="44.46043" lon="1.00234">
        <ele>169.398041</ele>
        <time>2019-08-17T12:57:36Z</time>
      </trkpt>
      <trkpt lat="44.46047" lon="1.00235">
        <ele>169.545609</ele>
        <time>2019-08-17T12:57:37Z</time>
      </trkpt>
      <trkpt lat="44.46051" lon="1.00236">
        <ele>169.695984</ele>
        <time>2019-08-17T12:57:38Z</time>
      </trkpt>
      <trkpt lat="44.46054" lon="1.00236">
        <ele>169.849304</ele>
        <time>2019-08-17T12:57:39Z</time>
      </trkpt>
      <trkpt lat="44.46058" lon="1.00237">
        <ele>170.002747</ele>
        <time>2019-08-17T12:57:40Z</time>
      </trkpt>
      <trkpt lat="44.46062" lon="1.00238">
        <ele>170.155167</ele>
        <time>2019-08-17T12:57:41Z</time>
      </trkpt>
      <trkpt lat="44.46066" lon="1.00238">
        <ele>170.303421</ele>
        <time>2019-08-17T12:57:42Z</time>
      </trkpt>
      <trkpt lat="44.4607" lon="1.00239">
        <ele>170.447403</ele>
        <time>2019-08-17T12:57:43Z</time>
      </trkpt>
      <trkpt lat="44.46074" lon="1.0024">
        <ele>170.589737</ele>
        <time>2019-08-17T12:57:44Z</time>
      </trkpt>
      <trkpt lat="44.46077" lon="1.0024">
        <ele>170.728516</ele>
        <time>2019-08-17T12:57:45Z</time>
      </trkpt>
      <trkpt lat="44.46081" lon="1.0024">
        <ele>170.864517</ele>
        <time>2019-08-17T12:57:46Z</time>
      </trkpt>
      <trkpt lat="44.46085" lon="1.0024">
        <ele>170.998306</ele>
        <time>2019-08-17T12:57:47Z</time>
      </trkpt>
      <trkpt lat="44.46089" lon="1.0024">
        <ele>171.13002</ele>
        <time>2019-08-17T12:57:48Z</time>
      </trkpt>
      <trkpt lat="44.46093" lon="1.00239">
        <ele>171.260254</ele>
        <time>2019-08-17T12:57:49Z</time>
      </trkpt>
      <trkpt lat="44.46097" lon="1.00239">
        <ele>171.389343</ele>
        <time>2019-08-17T12:57:50Z</time>
      </trkpt>
      <trkpt lat="44.461" lon="1.00238">
        <ele>171.518356</ele>
        <time>2019-08-17T12:57:51Z</time>
      </trkpt>
      <trkpt lat="44.46104" lon="1.00237">
        <ele>171.648926</ele>
        <time>2019-08-17T12:57:52Z</time>
      </trkpt>
      <trkpt lat="44.46108" lon="1.00236">
        <ele>171.781479</ele>
        <time>2019-08-17T12:57:53Z</time>
      </trkpt>
      <trkpt lat="44.46112" lon="1.00235">
        <ele>171.919937</ele>
        <time>2019-08-17T12:57:54Z</time>
      </trkpt>
      <trkpt lat="44.46115" lon="1.00234">
        <ele>172.071426</ele>
        <time>2019-08-17T12:57:55Z</time>
      </trkpt>
      <trkpt lat="44.46119" lon="1.00233">
        <ele>172.235367</ele>
        <time>2019-08-17T12:57:56Z</time>
      </trkpt>
      <trkpt lat="44.46122" lon="1.00232">
        <ele>172.409866</ele>
        <time>2019-08-17T12:57:57Z</time>
      </trkpt>
      <trkpt lat="44.46126" lon="1.00231">
        <ele>172.594254</ele>
        <time>2019-08-17T12:57:58Z</time>
      </trkpt>
      <trkpt lat="44.4613" lon="1.0023">
        <ele>172.789673</ele>
        <time>2019-08-17T12:57:59Z</time>
      </trkpt>
      <trkpt lat="44.46133" lon="1.0023">
        <ele>172.789673</ele>
        <time>2019-08-17T12:58:00Z</time>
      </trkpt>
      <trkpt lat="44.46137" lon="1.00229">
        <ele>172.992355</ele>
        <time>2019-08-17T12:58:01Z</time>
      </trkpt>
      <trkpt lat="44.46141" lon="1.00229">
        <ele>173.195633</ele>
        <time>2019-08-17T12:58:02Z</time>
      </trkpt>
      <trkpt lat="44.46145" lon="1.00228">
        <ele>173.435776</ele>
        <time>2019-08-17T12:58:03Z</time>
      </trkpt>
      <trkpt lat="44.46149" lon="1.00228">
        <ele>173.67955</ele>
        <time>2019-08-17T12:58:04Z</time>
      </trkpt>
      <trkpt lat="44.46153" lon="1.00227">
        <ele>173.927002</ele>
        <time>2019-08-17T12:58:05Z</time>
      </trkpt>
      <trkpt lat="44.46157" lon="1.00227">
        <ele>174.178589</ele>
        <time>2019-08-17T12:58:06Z</time>
      </trkpt>
      <trkpt lat="44.46161" lon="1.00227">
        <ele>174.432861</ele>
        <time>2019-08-17T12:58:07Z</time>
      </trkpt>
      <trkpt lat="44.46164" lon="1.00227">
        <ele>174.690781</ele>
        <time>2019-08-17T12:58:08Z</time>
      </trkpt>
      <trkpt lat="44.46169" lon="1.00227">
        <ele>174.91333</ele>
        <time>2019-08-17T12:58:09Z</time>
      </trkpt>
      <trkpt lat="44.46172" lon="1.00227">
        <ele>175.136353</ele>
        <time>2019-08-17T12:58:10Z</time>
      </trkpt>
      <trkpt lat="44.46176" lon="1.00227">
        <ele>175.355591</ele>
        <time>2019-08-17T12:58:11Z</time>
      </trkpt>
      <trkpt lat="44.4618" lon="1.00227">
        <ele>175.576859</ele>
        <time>2019-08-17T12:58:12Z</time>
      </trkpt>
      <trkpt lat="44.46183" lon="1.00228">
        <ele>175.813797</ele>
        <time>2019-08-17T12:58:13Z</time>
      </trkpt>
      <trkpt lat="44.46187" lon="1.00228">
        <ele>176.064697</ele>
        <time>2019-08-17T12:58:14Z</time>
      </trkpt>
      <trkpt lat="44.46191" lon="1.00229">
        <ele>176.328934</ele>
        <time>2019-08-17T12:58:15Z</time>
      </trkpt>
      <trkpt lat="44.46195" lon="1.0023">
        <ele>176.603592</ele>
        <time>2019-08-17T12:58:16Z</time>
      </trkpt>
      <trkpt lat="44.46198" lon="1.0023">
        <ele>176.603592</ele>
        <time>2019-08-17T12:58:17Z</time>
      </trkpt>
      <trkpt lat="44.46203" lon="1.00231">
        <ele>176.892166</ele>
        <time>2019-08-17T12:58:18Z</time>
      </trkpt>
      <trkpt lat="44.46206" lon="1.00232">
        <ele>177.189316</ele>
        <time>2019-08-17T12:58:19Z</time>
      </trkpt>
      <trkpt lat="44.4621" lon="1.00233">
        <ele>177.527893</ele>
        <time>2019-08-17T12:58:20Z</time>
      </trkpt>
      <trkpt lat="44.46214" lon="1.00234">
        <ele>177.864914</ele>
        <time>2019-08-17T12:58:21Z</time>
      </trkpt>
      <trkpt lat="44.46218" lon="1.00234">
        <ele>178.200516</ele>
        <time>2019-08-17T12:58:22Z</time>
      </trkpt>
      <trkpt lat="44.46222" lon="1.00235">
        <ele>178.537674</ele>
        <time>2019-08-17T12:58:23Z</time>
      </trkpt>
      <trkpt lat="44.46226" lon="1.00235">
        <ele>178.880661</ele>
        <time>2019-08-17T12:58:24Z</time>
      </trkpt>
      <trkpt lat="44.4623" lon="1.00236">
        <ele>179.227783</ele>
        <time>2019-08-17T12:58:25Z</time>
      </trkpt>
      <trkpt lat="44.46234" lon="1.00236">
        <ele>179.53569</ele>
        <time>2019-08-17T12:58:26Z</time>
      </trkpt>
      <trkpt lat="44.46238" lon="1.00236">
        <ele>179.844543</ele>
        <time>2019-08-17T12:58:27Z</time>
      </trkpt>
      <trkpt lat="44.46242" lon="1.00236">
        <ele>180.1577</ele>
        <time>2019-08-17T12:58:28Z</time>
      </trkpt>
      <trkpt lat="44.46246" lon="1.00235">
        <ele>180.476852</ele>
        <time>2019-08-17T12:58:29Z</time>
      </trkpt>
      <trkpt lat="44.4625" lon="1.00234">
        <ele>180.793991</ele>
        <time>2019-08-17T12:58:30Z</time>
      </trkpt>
      <trkpt lat="44.46253" lon="1.00233">
        <ele>181.106491</ele>
        <time>2019-08-17T12:58:31Z</time>
      </trkpt>
      <trkpt lat="44.46257" lon="1.00232">
        <ele>181.414017</ele>
        <time>2019-08-17T12:58:32Z</time>
      </trkpt>
      <trkpt lat="44.4626" lon="1.0023">
        <ele>181.720947</ele>
        <time>2019-08-17T12:58:33Z</time>
      </trkpt>
      <trkpt lat="44.46263" lon="1.00228">
        <ele>182.0271</ele>
        <time>2019-08-17T12:58:34Z</time>
      </trkpt>
      <trkpt lat="44.46266" lon="1.00226">
        <ele>182.326904</ele>
        <time>2019-08-17T12:58:35Z</time>
      </trkpt>
      <trkpt lat="44.4627" lon="1.00223">
        <ele>182.624191</ele>
        <time>2019-08-17T12:58:36Z</time>
      </trkpt>
      <trkpt lat="44.46273" lon="1.0022">
        <ele>182.624191</ele>
        <time>2019-08-17T12:58:37Z</time>
      </trkpt>
      <trkpt lat="44.46275" lon="1.00217">
        <ele>182.923096</ele>
        <time>2019-08-17T12:58:38Z</time>
      </trkpt>
      <trkpt lat="44.46277" lon="1.00214">
        <ele>183.222</ele>
        <time>2019-08-17T12:58:39Z</time>
      </trkpt>
      <trkpt lat="44.46279" lon="1.00211">
        <ele>183.569992</ele>
        <time>2019-08-17T12:58:40Z</time>
      </trkpt>
      <trkpt lat="44.46281" lon="1.00208">
        <ele>183.914963</ele>
        <time>2019-08-17T12:58:41Z</time>
      </trkpt>
      <trkpt lat="44.46282" lon="1.00206">
        <ele>184.253662</ele>
        <time>2019-08-17T12:58:42Z</time>
      </trkpt>
      <trkpt lat="44.46283" lon="1.00203">
        <ele>184.580734</ele>
        <time>2019-08-17T12:58:43Z</time>
      </trkpt>
      <trkpt lat="44.46286" lon="1.002">
        <ele>184.888107</ele>
        <time>2019-08-17T12:58:44Z</time>
      </trkpt>
      <trkpt lat="44.46288" lon="1.00197">
        <ele>185.174316</ele>
        <time>2019-08-17T12:58:45Z</time>
      </trkpt>
      <trkpt lat="44.46289" lon="1.00193">
        <ele>185.391922</ele>
        <time>2019-08-17T12:58:46Z</time>
      </trkpt>
      <trkpt lat="44.46292" lon="1.00189">
        <ele>185.598953</ele>
        <time>2019-08-17T12:58:47Z</time>
      </trkpt>
      <trkpt lat="44.46294" lon="1.00186">
        <ele>185.804123</ele>
        <time>2019-08-17T12:58:48Z</time>
      </trkpt>
      <trkpt lat="44.46296" lon="1.00182">
        <ele>186.015213</ele>
        <time>2019-08-17T12:58:49Z</time>
      </trkpt>
      <trkpt lat="44.46299" lon="1.00179">
        <ele>186.240967</ele>
        <time>2019-08-17T12:58:50Z</time>
      </trkpt>
      <trkpt lat="44.46301" lon="1.00175">
        <ele>186.482986</ele>
        <time>2019-08-17T12:58:51Z</time>
      </trkpt>
      <trkpt lat="44.46302" lon="1.00172">
        <ele>186.736252</ele>
        <time>2019-08-17T12:58:52Z</time>
      </trkpt>
      <trkpt lat="44.46305" lon="1.00168">
        <ele>187.003098</ele>
        <time>2019-08-17T12:58:53Z</time>
      </trkpt>
      <trkpt lat="44.46307" lon="1.00164">
        <ele>187.280701</ele>
        <time>2019-08-17T12:58:54Z</time>
      </trkpt>
      <trkpt lat="44.46309" lon="1.00161">
        <ele>187.567871</ele>
        <time>2019-08-17T12:58:55Z</time>
      </trkpt>
      <trkpt lat="44.46312" lon="1.00157">
        <ele>187.567871</ele>
        <time>2019-08-17T12:58:56Z</time>
      </trkpt>
      <trkpt lat="44.46314" lon="1.00154">
        <ele>187.859497</ele>
        <time>2019-08-17T12:58:57Z</time>
      </trkpt>
      <trkpt lat="44.46316" lon="1.0015">
        <ele>188.14473</ele>
        <time>2019-08-17T12:58:58Z</time>
      </trkpt>
      <trkpt lat="44.46318" lon="1.00147">
        <ele>188.458145</ele>
        <time>2019-08-17T12:58:59Z</time>
      </trkpt>
      <trkpt lat="44.46322" lon="1.00143">
        <ele>188.752609</ele>
        <time>2019-08-17T12:59:00Z</time>
      </trkpt>
      <trkpt lat="44.46324" lon="1.0014">
        <ele>189.027588</ele>
        <time>2019-08-17T12:59:01Z</time>
      </trkpt>
      <trkpt lat="44.46326" lon="1.00136">
        <ele>189.280518</ele>
        <time>2019-08-17T12:59:02Z</time>
      </trkpt>
      <trkpt lat="44.46329" lon="1.00133">
        <ele>189.513596</ele>
        <time>2019-08-17T12:59:03Z</time>
      </trkpt>
      <trkpt lat="44.46331" lon="1.0013">
        <ele>189.733231</ele>
        <time>2019-08-17T12:59:04Z</time>
      </trkpt>
      <trkpt lat="44.46335" lon="1.00128">
        <ele>189.733231</ele>
        <time>2019-08-17T12:59:05Z</time>
      </trkpt>
      <trkpt lat="44.46337" lon="1.00125">
        <ele>189.905273</ele>
        <time>2019-08-17T12:59:06Z</time>
      </trkpt>
      <trkpt lat="44.4634" lon="1.00123">
        <ele>190.066025</ele>
        <time>2019-08-17T12:59:07Z</time>
      </trkpt>
      <trkpt lat="44.46343" lon="1.0012">
        <ele>190.230087</ele>
        <time>2019-08-17T12:59:08Z</time>
      </trkpt>
      <trkpt lat="44.46345" lon="1.00117">
        <ele>190.378525</ele>
        <time>2019-08-17T12:59:09Z</time>
      </trkpt>
      <trkpt lat="44.46348" lon="1.00115">
        <ele>190.509811</ele>
        <time>2019-08-17T12:59:10Z</time>
      </trkpt>
      <trkpt lat="44.46351" lon="1.00113">
        <ele>190.509811</ele>
        <time>2019-08-17T12:59:11Z</time>
      </trkpt>
      <trkpt lat="44.46353" lon="1.0011">
        <ele>190.627243</ele>
        <time>2019-08-17T12:59:12Z</time>
      </trkpt>
      <trkpt lat="44.46356" lon="1.00108">
        <ele>190.730469</ele>
        <time>2019-08-17T12:59:13Z</time>
      </trkpt>
      <trkpt lat="44.46358" lon="1.00105">
        <ele>190.826248</ele>
        <time>2019-08-17T12:59:14Z</time>
      </trkpt>
      <trkpt lat="44.46361" lon="1.00103">
        <ele>190.892654</ele>
        <time>2019-08-17T12:59:15Z</time>
      </trkpt>
      <trkpt lat="44.46363" lon="1.001">
        <ele>190.948166</ele>
        <time>2019-08-17T12:59:16Z</time>
      </trkpt>
      <trkpt lat="44.46366" lon="1.00098">
        <ele>190.993393</ele>
        <time>2019-08-17T12:59:17Z</time>
      </trkpt>
      <trkpt lat="44.46368" lon="1.00096">
        <ele>191.026733</ele>
        <time>2019-08-17T12:59:18Z</time>
      </trkpt>
      <trkpt lat="44.4637" lon="1.00094">
        <ele>191.047684</ele>
        <time>2019-08-17T12:59:19Z</time>
      </trkpt>
      <trkpt lat="44.46372" lon="1.00093">
        <ele>191.051636</ele>
        <time>2019-08-17T12:59:20Z</time>
      </trkpt>
      <trkpt lat="44.46374" lon="1.00092">
        <ele>191.051636</ele>
        <time>2019-08-17T12:59:21Z</time>
      </trkpt>
      <trkpt lat="44.46376" lon="1.00093">
        <ele>191.051636</ele>
        <time>2019-08-17T12:59:22Z</time>
      </trkpt>
      <trkpt lat="44.46377" lon="1.00094">
        <ele>191.046875</ele>
        <time>2019-08-17T12:59:23Z</time>
      </trkpt>
      <trkpt lat="44.46378" lon="1.00096">
        <ele>191.027817</ele>
        <time>2019-08-17T12:59:24Z</time>
      </trkpt>
      <trkpt lat="44.46378" lon="1.00098">
        <ele>190.995285</ele>
        <time>2019-08-17T12:59:25Z</time>
      </trkpt>
      <trkpt lat="44.46379" lon="1.001">
        <ele>190.9552</ele>
        <time>2019-08-17T12:59:26Z</time>
      </trkpt>
      <trkpt lat="44.46379" lon="1.00103">
        <ele>190.912964</ele>
        <time>2019-08-17T12:59:27Z</time>
      </trkpt>
      <trkpt lat="44.4638" lon="1.00105">
        <ele>190.870239</ele>
        <time>2019-08-17T12:59:28Z</time>
      </trkpt>
      <trkpt lat="44.4638" lon="1.00107">
        <ele>190.829758</ele>
        <time>2019-08-17T12:59:29Z</time>
      </trkpt>
      <trkpt lat="44.4638" lon="1.0011">
        <ele>190.829758</ele>
        <time>2019-08-17T12:59:30Z</time>
      </trkpt>
      <trkpt lat="44.46381" lon="1.00112">
        <ele>190.800858</ele>
        <time>2019-08-17T12:59:31Z</time>
      </trkpt>
      <trkpt lat="44.46383" lon="1.00114">
        <ele>190.782043</ele>
        <time>2019-08-17T12:59:32Z</time>
      </trkpt>
      <trkpt lat="44.46384" lon="1.00116">
        <ele>190.771011</ele>
        <time>2019-08-17T12:59:33Z</time>
      </trkpt>
      <trkpt lat="44.46384" lon="1.00119">
        <ele>190.765137</ele>
        <time>2019-08-17T12:59:34Z</time>
      </trkpt>
      <trkpt lat="44.46385" lon="1.00122">
        <ele>190.757736</ele>
        <time>2019-08-17T12:59:35Z</time>
      </trkpt>
      <trkpt lat="44.46386" lon="1.00125">
        <ele>190.748962</ele>
        <time>2019-08-17T12:59:36Z</time>
      </trkpt>
      <trkpt lat="44.46386" lon="1.00129">
        <ele>190.743698</ele>
        <time>2019-08-17T12:59:37Z</time>
      </trkpt>
      <trkpt lat="44.46387" lon="1.00133">
        <ele>190.741562</ele>
        <time>2019-08-17T12:59:38Z</time>
      </trkpt>
      <trkpt lat="44.46388" lon="1.00137">
        <ele>190.741562</ele>
        <time>2019-08-17T12:59:39Z</time>
      </trkpt>
      <trkpt lat="44.46389" lon="1.00141">
        <ele>190.74321</ele>
        <time>2019-08-17T12:59:40Z</time>
      </trkpt>
      <trkpt lat="44.4639" lon="1.00146">
        <ele>190.74321</ele>
        <time>2019-08-17T12:59:41Z</time>
      </trkpt>
      <trkpt lat="44.46391" lon="1.00151">
        <ele>190.74321</ele>
        <time>2019-08-17T12:59:42Z</time>
      </trkpt>
      <trkpt lat="44.46392" lon="1.00156">
        <ele>190.748489</ele>
        <time>2019-08-17T12:59:43Z</time>
      </trkpt>
      <trkpt lat="44.46392" lon="1.00161">
        <ele>190.763809</ele>
        <time>2019-08-17T12:59:44Z</time>
      </trkpt>
      <trkpt lat="44.46393" lon="1.00167">
        <ele>190.796387</ele>
        <time>2019-08-17T12:59:45Z</time>
      </trkpt>
      <trkpt lat="44.46394" lon="1.00172">
        <ele>190.835754</ele>
        <time>2019-08-17T12:59:46Z</time>
      </trkpt>
      <trkpt lat="44.46394" lon="1.00177">
        <ele>190.882874</ele>
        <time>2019-08-17T12:59:47Z</time>
      </trkpt>
      <trkpt lat="44.46396" lon="1.00182">
        <ele>190.938354</ele>
        <time>2019-08-17T12:59:48Z</time>
      </trkpt>
      <trkpt lat="44.46396" lon="1.00188">
        <ele>191.002243</ele>
        <time>2019-08-17T12:59:49Z</time>
      </trkpt>
      <trkpt lat="44.46397" lon="1.00194">
        <ele>191.073837</ele>
        <time>2019-08-17T12:59:50Z</time>
      </trkpt>
      <trkpt lat="44.46398" lon="1.00199">
        <ele>191.145569</ele>
        <time>2019-08-17T12:59:51Z</time>
      </trkpt>
      <trkpt lat="44.46399" lon="1.00205">
        <ele>191.232925</ele>
        <time>2019-08-17T12:59:52Z</time>
      </trkpt>
      <trkpt lat="44.464" lon="1.00211">
        <ele>191.335464</ele>
        <time>2019-08-17T12:59:53Z</time>
      </trkpt>
      <trkpt lat="44.46401" lon="1.00217">
        <ele>191.453568</ele>
        <time>2019-08-17T12:59:54Z</time>
      </trkpt>
      <trkpt lat="44.46402" lon="1.00224">
        <ele>191.586777</ele>
        <time>2019-08-17T12:59:55Z</time>
      </trkpt>
      <trkpt lat="44.46403" lon="1.0023">
        <ele>191.737488</ele>
        <time>2019-08-17T12:59:56Z</time>
      </trkpt>
      <trkpt lat="44.46404" lon="1.00237">
        <ele>191.905289</ele>
        <time>2019-08-17T12:59:57Z</time>
      </trkpt>
      <trkpt lat="44.46404" lon="1.00243">
        <ele>191.905289</ele>
        <time>2019-08-17T12:59:58Z</time>
      </trkpt>
      <trkpt lat="44.46405" lon="1.0025">
        <ele>192.081161</ele>
        <time>2019-08-17T12:59:59Z</time>
      </trkpt>
      <trkpt lat="44.46405" lon="1.00256">
        <ele>192.265198</ele>
        <time>2019-08-17T13:00:00Z</time>
      </trkpt>
      <trkpt lat="44.46406" lon="1.00262">
        <ele>192.492737</ele>
        <time>2019-08-17T13:00:01Z</time>
      </trkpt>
      <trkpt lat="44.46406" lon="1.00269">
        <ele>192.725479</ele>
        <time>2019-08-17T13:00:02Z</time>
      </trkpt>
      <trkpt lat="44.46405" lon="1.00275">
        <ele>192.955322</ele>
        <time>2019-08-17T13:00:03Z</time>
      </trkpt>
      <trkpt lat="44.46405" lon="1.00282">
        <ele>193.179001</ele>
        <time>2019-08-17T13:00:04Z</time>
      </trkpt>
      <trkpt lat="44.46405" lon="1.00288">
        <ele>193.392944</ele>
        <time>2019-08-17T13:00:05Z</time>
      </trkpt>
      <trkpt lat="44.46405" lon="1.00295">
        <ele>193.596664</ele>
        <time>2019-08-17T13:00:06Z</time>
      </trkpt>
      <trkpt lat="44.46405" lon="1.00302">
        <ele>193.75383</ele>
        <time>2019-08-17T13:00:07Z</time>
      </trkpt>
      <trkpt lat="44.46404" lon="1.00308">
        <ele>193.902451</ele>
        <time>2019-08-17T13:00:08Z</time>
      </trkpt>
      <trkpt lat="44.46403" lon="1.00315">
        <ele>194.047424</ele>
        <time>2019-08-17T13:00:09Z</time>
      </trkpt>
      <trkpt lat="44.46402" lon="1.00322">
        <ele>194.047424</ele>
        <time>2019-08-17T13:00:10Z</time>
      </trkpt>
      <trkpt lat="44.46401" lon="1.00328">
        <ele>194.187393</ele>
        <time>2019-08-17T13:00:11Z</time>
      </trkpt>
      <trkpt lat="44.464" lon="1.00335">
        <ele>194.326126</ele>
        <time>2019-08-17T13:00:12Z</time>
      </trkpt>
      <trkpt lat="44.46399" lon="1.00342">
        <ele>194.326126</ele>
        <time>2019-08-17T13:00:13Z</time>
      </trkpt>
      <trkpt lat="44.46397" lon="1.00349">
        <ele>194.47493</ele>
        <time>2019-08-17T13:00:14Z</time>
      </trkpt>
      <trkpt lat="44.46395" lon="1.00356">
        <ele>194.603653</ele>
        <time>2019-08-17T13:00:15Z</time>
      </trkpt>
      <trkpt lat="44.46393" lon="1.00362">
        <ele>194.719528</ele>
        <time>2019-08-17T13:00:16Z</time>
      </trkpt>
      <trkpt lat="44.46391" lon="1.00369">
        <ele>194.719528</ele>
        <time>2019-08-17T13:00:17Z</time>
      </trkpt>
      <trkpt lat="44.4639" lon="1.00375">
        <ele>194.815857</ele>
        <time>2019-08-17T13:00:18Z</time>
      </trkpt>
      <trkpt lat="44.46388" lon="1.00381">
        <ele>194.894394</ele>
        <time>2019-08-17T13:00:19Z</time>
      </trkpt>
      <trkpt lat="44.46386" lon="1.00387">
        <ele>194.960831</ele>
        <time>2019-08-17T13:00:20Z</time>
      </trkpt>
      <trkpt lat="44.46384" lon="1.00392">
        <ele>194.999573</ele>
        <time>2019-08-17T13:00:21Z</time>
      </trkpt>
      <trkpt lat="44.46386" lon="1.00396">
        <ele>194.999573</ele>
        <time>2019-08-17T13:00:22Z</time>
      </trkpt>
      <trkpt lat="44.46388" lon="1.00399">
        <ele>195.040237</ele>
        <time>2019-08-17T13:00:23Z</time>
      </trkpt>
      <trkpt lat="44.46391" lon="1.00403">
        <ele>195.076416</ele>
        <time>2019-08-17T13:00:24Z</time>
      </trkpt>
      <trkpt lat="44.46394" lon="1.00406">
        <ele>195.076416</ele>
        <time>2019-08-17T13:00:25Z</time>
      </trkpt>
      <trkpt lat="44.46397" lon="1.00409">
        <ele>195.126633</ele>
        <time>2019-08-17T13:00:26Z</time>
      </trkpt>
      <trkpt lat="44.46401" lon="1.00413">
        <ele>195.184769</ele>
        <time>2019-08-17T13:00:27Z</time>
      </trkpt>
      <trkpt lat="44.46404" lon="1.00418">
        <ele>195.256149</ele>
        <time>2019-08-17T13:00:28Z</time>
      </trkpt>
      <trkpt lat="44.46407" lon="1.00422">
        <ele>195.333023</ele>
        <time>2019-08-17T13:00:29Z</time>
      </trkpt>
      <trkpt lat="44.4641" lon="1.00426">
        <ele>195.415176</ele>
        <time>2019-08-17T13:00:30Z</time>
      </trkpt>
      <trkpt lat="44.46413" lon="1.0043">
        <ele>195.501541</ele>
        <time>2019-08-17T13:00:31Z</time>
      </trkpt>
      <trkpt lat="44.46416" lon="1.00435">
        <ele>195.501541</ele>
        <time>2019-08-17T13:00:32Z</time>
      </trkpt>
      <trkpt lat="44.46419" lon="1.00441">
        <ele>195.57933</ele>
        <time>2019-08-17T13:00:33Z</time>
      </trkpt>
      <trkpt lat="44.46422" lon="1.00446">
        <ele>195.653793</ele>
        <time>2019-08-17T13:00:34Z</time>
      </trkpt>
      <trkpt lat="44.46425" lon="1.00452">
        <ele>195.719254</ele>
        <time>2019-08-17T13:00:35Z</time>
      </trkpt>
      <trkpt lat="44.46427" lon="1.00459">
        <ele>195.779709</ele>
        <time>2019-08-17T13:00:36Z</time>
      </trkpt>
      <trkpt lat="44.4643" lon="1.00466">
        <ele>195.834351</ele>
        <time>2019-08-17T13:00:37Z</time>
      </trkpt>
      <trkpt lat="44.46433" lon="1.00473">
        <ele>195.869339</ele>
        <time>2019-08-17T13:00:38Z</time>
      </trkpt>
      <trkpt lat="44.46437" lon="1.0048">
        <ele>195.8797</ele>
        <time>2019-08-17T13:00:39Z</time>
      </trkpt>
      <trkpt lat="44.46441" lon="1.00485">
        <ele>195.8797</ele>
        <time>2019-08-17T13:00:40Z</time>
      </trkpt>
      <trkpt lat="44.46446" lon="1.00489">
        <ele>195.8797</ele>
        <time>2019-08-17T13:00:41Z</time>
      </trkpt>
      <trkpt lat="44.46452" lon="1.00493">
        <ele>195.8797</ele>
        <time>2019-08-17T13:00:42Z</time>
      </trkpt>
      <trkpt lat="44.46457" lon="1.00495">
        <ele>195.863342</ele>
        <time>2019-08-17T13:00:43Z</time>
      </trkpt>
      <trkpt lat="44.46462" lon="1.00498">
        <ele>195.786118</ele>
        <time>2019-08-17T13:00:44Z</time>
      </trkpt>
      <trkpt lat="44.46468" lon="1.00501">
        <ele>195.676224</ele>
        <time>2019-08-17T13:00:45Z</time>
      </trkpt>
      <trkpt lat="44.46473" lon="1.00504">
        <ele>195.535828</ele>
        <time>2019-08-17T13:00:46Z</time>
      </trkpt>
      <trkpt lat="44.46478" lon="1.00507">
        <ele>195.380936</ele>
        <time>2019-08-17T13:00:47Z</time>
      </trkpt>
      <trkpt lat="44.46482" lon="1.0051">
        <ele>195.218811</ele>
        <time>2019-08-17T13:00:48Z</time>
      </trkpt>
      <trkpt lat="44.46487" lon="1.00513">
        <ele>195.054367</ele>
        <time>2019-08-17T13:00:49Z</time>
      </trkpt>
      <trkpt lat="44.46491" lon="1.00517">
        <ele>195.054367</ele>
        <time>2019-08-17T13:00:50Z</time>
      </trkpt>
      <trkpt lat="44.46495" lon="1.00521">
        <ele>194.918137</ele>
        <time>2019-08-17T13:00:51Z</time>
      </trkpt>
      <trkpt lat="44.46501" lon="1.00526">
        <ele>194.790512</ele>
        <time>2019-08-17T13:00:52Z</time>
      </trkpt>
      <trkpt lat="44.46505" lon="1.00531">
        <ele>194.656845</ele>
        <time>2019-08-17T13:00:53Z</time>
      </trkpt>
      <trkpt lat="44.4651" lon="1.00537">
        <ele>194.532425</ele>
        <time>2019-08-17T13:00:54Z</time>
      </trkpt>
      <trkpt lat="44.46514" lon="1.00543">
        <ele>194.409668</ele>
        <time>2019-08-17T13:00:55Z</time>
      </trkpt>
      <trkpt lat="44.46518" lon="1.00549">
        <ele>194.232101</ele>
        <time>2019-08-17T13:00:56Z</time>
      </trkpt>
      <trkpt lat="44.46521" lon="1.00554">
        <ele>193.988724</ele>
        <time>2019-08-17T13:00:57Z</time>
      </trkpt>
      <trkpt lat="44.46525" lon="1.0056">
        <ele>193.637268</ele>
        <time>2019-08-17T13:00:58Z</time>
      </trkpt>
      <trkpt lat="44.46529" lon="1.00566">
        <ele>193.195572</ele>
        <time>2019-08-17T13:00:59Z</time>
      </trkpt>
      <trkpt lat="44.46534" lon="1.00572">
        <ele>192.657776</ele>
        <time>2019-08-17T13:01:00Z</time>
      </trkpt>
      <trkpt lat="44.46538" lon="1.00579">
        <ele>192.025284</ele>
        <time>2019-08-17T13:01:01Z</time>
      </trkpt>
      <trkpt lat="44.46543" lon="1.00585">
        <ele>191.341721</ele>
        <time>2019-08-17T13:01:02Z</time>
      </trkpt>
      <trkpt lat="44.46548" lon="1.0059">
        <ele>190.611893</ele>
        <time>2019-08-17T13:01:03Z</time>
      </trkpt>
      <trkpt lat="44.46553" lon="1.00595">
        <ele>189.873276</ele>
        <time>2019-08-17T13:01:04Z</time>
      </trkpt>
      <trkpt lat="44.46558" lon="1.006">
        <ele>189.128952</ele>
        <time>2019-08-17T13:01:05Z</time>
      </trkpt>
      <trkpt lat="44.46563" lon="1.00605">
        <ele>188.374893</ele>
        <time>2019-08-17T13:01:06Z</time>
      </trkpt>
      <trkpt lat="44.46568" lon="1.00608">
        <ele>187.614029</ele>
        <time>2019-08-17T13:01:07Z</time>
      </trkpt>
      <trkpt lat="44.46573" lon="1.00611">
        <ele>186.846863</ele>
        <time>2019-08-17T13:01:08Z</time>
      </trkpt>
      <trkpt lat="44.46577" lon="1.00613">
        <ele>186.080673</ele>
        <time>2019-08-17T13:01:09Z</time>
      </trkpt>
      <trkpt lat="44.46582" lon="1.00614">
        <ele>185.343643</ele>
        <time>2019-08-17T13:01:10Z</time>
      </trkpt>
      <trkpt lat="44.46586" lon="1.00616">
        <ele>185.343643</ele>
        <time>2019-08-17T13:01:11Z</time>
      </trkpt>
      <trkpt lat="44.4659" lon="1.00617">
        <ele>184.640137</ele>
        <time>2019-08-17T13:01:12Z</time>
      </trkpt>
      <trkpt lat="44.46594" lon="1.00618">
        <ele>183.970947</ele>
        <time>2019-08-17T13:01:13Z</time>
      </trkpt>
      <trkpt lat="44.46599" lon="1.0062">
        <ele>183.12468</ele>
        <time>2019-08-17T13:01:14Z</time>
      </trkpt>
      <trkpt lat="44.46603" lon="1.00622">
        <ele>182.252213</ele>
        <time>2019-08-17T13:01:15Z</time>
      </trkpt>
      <trkpt lat="44.46608" lon="1.00625">
        <ele>181.345093</ele>
        <time>2019-08-17T13:01:16Z</time>
      </trkpt>
      <trkpt lat="44.46612" lon="1.00627">
        <ele>180.367371</ele>
        <time>2019-08-17T13:01:17Z</time>
      </trkpt>
      <trkpt lat="44.46616" lon="1.0063">
        <ele>179.306534</ele>
        <time>2019-08-17T13:01:18Z</time>
      </trkpt>
      <trkpt lat="44.46619" lon="1.00632">
        <ele>178.154709</ele>
        <time>2019-08-17T13:01:19Z</time>
      </trkpt>
      <trkpt lat="44.46623" lon="1.00634">
        <ele>177.136642</ele>
        <time>2019-08-17T13:01:20Z</time>
      </trkpt>
      <trkpt lat="44.46626" lon="1.00636">
        <ele>176.130081</ele>
        <time>2019-08-17T13:01:21Z</time>
      </trkpt>
      <trkpt lat="44.46628" lon="1.00639">
        <ele>175.153275</ele>
        <time>2019-08-17T13:01:22Z</time>
      </trkpt>
      <trkpt lat="44.46631" lon="1.00642">
        <ele>174.223831</ele>
        <time>2019-08-17T13:01:23Z</time>
      </trkpt>
      <trkpt lat="44.46634" lon="1.00646">
        <ele>173.34581</ele>
        <time>2019-08-17T13:01:24Z</time>
      </trkpt>
      <trkpt lat="44.46637" lon="1.0065">
        <ele>172.540955</ele>
        <time>2019-08-17T13:01:25Z</time>
      </trkpt>
      <trkpt lat="44.4664" lon="1.00654">
        <ele>171.799759</ele>
        <time>2019-08-17T13:01:26Z</time>
      </trkpt>
      <trkpt lat="44.46643" lon="1.00658">
        <ele>171.083374</ele>
        <time>2019-08-17T13:01:27Z</time>
      </trkpt>
      <trkpt lat="44.46646" lon="1.00662">
        <ele>170.368515</ele>
        <time>2019-08-17T13:01:28Z</time>
      </trkpt>
      <trkpt lat="44.46649" lon="1.00665">
        <ele>169.648712</ele>
        <time>2019-08-17T13:01:29Z</time>
      </trkpt>
      <trkpt lat="44.46652" lon="1.00669">
        <ele>168.934845</ele>
        <time>2019-08-17T13:01:30Z</time>
      </trkpt>
      <trkpt lat="44.46655" lon="1.00673">
        <ele>168.934845</ele>
        <time>2019-08-17T13:01:31Z</time>
      </trkpt>
      <trkpt lat="44.46658" lon="1.00677">
        <ele>168.209106</ele>
        <time>2019-08-17T13:01:32Z</time>
      </trkpt>
      <trkpt lat="44.46661" lon="1.00681">
        <ele>167.480194</ele>
        <time>2019-08-17T13:01:33Z</time>
      </trkpt>
      <trkpt lat="44.46663" lon="1.00685">
        <ele>166.664215</ele>
        <time>2019-08-17T13:01:34Z</time>
      </trkpt>
      <trkpt lat="44.46664" lon="1.00688">
        <ele>166.664215</ele>
        <time>2019-08-17T13:01:35Z</time>
      </trkpt>
      <trkpt lat="44.46666" lon="1.0069">
        <ele>165.8871</ele>
        <time>2019-08-17T13:01:36Z</time>
      </trkpt>
      <trkpt lat="44.46668" lon="1.00692">
        <ele>165.154922</ele>
        <time>2019-08-17T13:01:37Z</time>
      </trkpt>
      <trkpt lat="44.46671" lon="1.00695">
        <ele>164.418716</ele>
        <time>2019-08-17T13:01:38Z</time>
      </trkpt>
      <trkpt lat="44.46673" lon="1.00699">
        <ele>163.746857</ele>
        <time>2019-08-17T13:01:39Z</time>
      </trkpt>
      <trkpt lat="44.46676" lon="1.00703">
        <ele>163.116241</ele>
        <time>2019-08-17T13:01:40Z</time>
      </trkpt>
      <trkpt lat="44.46679" lon="1.00707">
        <ele>162.624191</ele>
        <time>2019-08-17T13:01:41Z</time>
      </trkpt>
      <trkpt lat="44.46682" lon="1.00712">
        <ele>162.149872</ele>
        <time>2019-08-17T13:01:42Z</time>
      </trkpt>
      <trkpt lat="44.46685" lon="1.00717">
        <ele>161.68161</ele>
        <time>2019-08-17T13:01:43Z</time>
      </trkpt>
      <trkpt lat="44.46689" lon="1.00722">
        <ele>161.68161</ele>
        <time>2019-08-17T13:01:44Z</time>
      </trkpt>
      <trkpt lat="44.46693" lon="1.00728">
        <ele>161.263062</ele>
        <time>2019-08-17T13:01:45Z</time>
      </trkpt>
      <trkpt lat="44.46698" lon="1.00735">
        <ele>160.813232</ele>
        <time>2019-08-17T13:01:46Z</time>
      </trkpt>
      <trkpt lat="44.46703" lon="1.00741">
        <ele>160.251099</ele>
        <time>2019-08-17T13:01:47Z</time>
      </trkpt>
      <trkpt lat="44.46707" lon="1.00747">
        <ele>160.251099</ele>
        <time>2019-08-17T13:01:48Z</time>
      </trkpt>
      <trkpt lat="44.46711" lon="1.00752">
        <ele>159.669205</ele>
        <time>2019-08-17T13:01:49Z</time>
      </trkpt>
      <trkpt lat="44.46716" lon="1.00756">
        <ele>159.093582</ele>
        <time>2019-08-17T13:01:50Z</time>
      </trkpt>
      <trkpt lat="44.46719" lon="1.00758">
        <ele>159.093582</ele>
        <time>2019-08-17T13:01:51Z</time>
      </trkpt>
      <trkpt lat="44.46724" lon="1.00759">
        <ele>158.498718</ele>
        <time>2019-08-17T13:01:52Z</time>
      </trkpt>
      <trkpt lat="44.46729" lon="1.00758">
        <ele>157.946716</ele>
        <time>2019-08-17T13:01:53Z</time>
      </trkpt>
      <trkpt lat="44.46734" lon="1.00757">
        <ele>157.401367</ele>
        <time>2019-08-17T13:01:54Z</time>
      </trkpt>
      <trkpt lat="44.46739" lon="1.00755">
        <ele>156.98085</ele>
        <time>2019-08-17T13:01:55Z</time>
      </trkpt>
      <trkpt lat="44.46745" lon="1.00754">
        <ele>156.584229</ele>
        <time>2019-08-17T13:01:56Z</time>
      </trkpt>
      <trkpt lat="44.46751" lon="1.00754">
        <ele>156.180252</ele>
        <time>2019-08-17T13:01:57Z</time>
      </trkpt>
      <trkpt lat="44.46756" lon="1.00753">
        <ele>155.800247</ele>
        <time>2019-08-17T13:01:58Z</time>
      </trkpt>
      <trkpt lat="44.46762" lon="1.00754">
        <ele>155.374832</ele>
        <time>2019-08-17T13:01:59Z</time>
      </trkpt>
      <trkpt lat="44.46767" lon="1.00755">
        <ele>154.951584</ele>
        <time>2019-08-17T13:02:00Z</time>
      </trkpt>
      <trkpt lat="44.46773" lon="1.00756">
        <ele>154.507568</ele>
        <time>2019-08-17T13:02:01Z</time>
      </trkpt>
      <trkpt lat="44.46779" lon="1.00758">
        <ele>154.068848</ele>
        <time>2019-08-17T13:02:02Z</time>
      </trkpt>
      <trkpt lat="44.46784" lon="1.0076">
        <ele>153.650146</ele>
        <time>2019-08-17T13:02:03Z</time>
      </trkpt>
      <trkpt lat="44.46789" lon="1.00763">
        <ele>153.255051</ele>
        <time>2019-08-17T13:02:04Z</time>
      </trkpt>
      <trkpt lat="44.46794" lon="1.00767">
        <ele>152.887283</ele>
        <time>2019-08-17T13:02:05Z</time>
      </trkpt>
      <trkpt lat="44.46799" lon="1.0077">
        <ele>152.887283</ele>
        <time>2019-08-17T13:02:06Z</time>
      </trkpt>
      <trkpt lat="44.46803" lon="1.00774">
        <ele>152.54924</ele>
        <time>2019-08-17T13:02:07Z</time>
      </trkpt>
      <trkpt lat="44.46808" lon="1.00777">
        <ele>152.256531</ele>
        <time>2019-08-17T13:02:08Z</time>
      </trkpt>
      <trkpt lat="44.46812" lon="1.00781">
        <ele>151.983673</ele>
        <time>2019-08-17T13:02:09Z</time>
      </trkpt>
      <trkpt lat="44.46816" lon="1.00784">
        <ele>151.749832</ele>
        <time>2019-08-17T13:02:10Z</time>
      </trkpt>
      <trkpt lat="44.4682" lon="1.00787">
        <ele>151.549545</ele>
        <time>2019-08-17T13:02:11Z</time>
      </trkpt>
      <trkpt lat="44.46824" lon="1.0079">
        <ele>151.549545</ele>
        <time>2019-08-17T13:02:12Z</time>
      </trkpt>
      <trkpt lat="44.46829" lon="1.00794">
        <ele>151.377686</ele>
        <time>2019-08-17T13:02:13Z</time>
      </trkpt>
      <trkpt lat="44.46833" lon="1.00797">
        <ele>151.23262</ele>
        <time>2019-08-17T13:02:14Z</time>
      </trkpt>
      <trkpt lat="44.46837" lon="1.00801">
        <ele>151.070084</ele>
        <time>2019-08-17T13:02:15Z</time>
      </trkpt>
      <trkpt lat="44.46842" lon="1.00804">
        <ele>150.925415</ele>
        <time>2019-08-17T13:02:16Z</time>
      </trkpt>
      <trkpt lat="44.46846" lon="1.00808">
        <ele>150.777359</ele>
        <time>2019-08-17T13:02:17Z</time>
      </trkpt>
      <trkpt lat="44.46851" lon="1.00811">
        <ele>150.627777</ele>
        <time>2019-08-17T13:02:18Z</time>
      </trkpt>
      <trkpt lat="44.46856" lon="1.00814">
        <ele>150.481216</ele>
        <time>2019-08-17T13:02:19Z</time>
      </trkpt>
      <trkpt lat="44.46862" lon="1.00817">
        <ele>150.327133</ele>
        <time>2019-08-17T13:02:20Z</time>
      </trkpt>
      <trkpt lat="44.46867" lon="1.00819">
        <ele>150.193771</ele>
        <time>2019-08-17T13:02:21Z</time>
      </trkpt>
      <trkpt lat="44.46871" lon="1.00821">
        <ele>150.057037</ele>
        <time>2019-08-17T13:02:22Z</time>
      </trkpt>
      <trkpt lat="44.46874" lon="1.00824">
        <ele>149.910736</ele>
        <time>2019-08-17T13:02:23Z</time>
      </trkpt>
      <trkpt lat="44.46875" lon="1.00828">
        <ele>149.746979</ele>
        <time>2019-08-17T13:02:24Z</time>
      </trkpt>
      <trkpt lat="44.46876" lon="1.00832">
        <ele>149.574234</ele>
        <time>2019-08-17T13:02:25Z</time>
      </trkpt>
      <trkpt lat="44.46877" lon="1.00838">
        <ele>149.45459</ele>
        <time>2019-08-17T13:02:26Z</time>
      </trkpt>
      <trkpt lat="44.46877" lon="1.00843">
        <ele>149.45459</ele>
        <time>2019-08-17T13:02:27Z</time>
      </trkpt>
      <trkpt lat="44.46877" lon="1.00849">
        <ele>149.435532</ele>
        <time>2019-08-17T13:02:28Z</time>
      </trkpt>
      <trkpt lat="44.46877" lon="1.00855">
        <ele>149.435532</ele>
        <time>2019-08-17T13:02:29Z</time>
      </trkpt>
      <trkpt lat="44.46877" lon="1.00862">
        <ele>149.435532</ele>
        <time>2019-08-17T13:02:30Z</time>
      </trkpt>
      <trkpt lat="44.46877" lon="1.00868">
        <ele>149.489639</ele>
        <time>2019-08-17T13:02:31Z</time>
      </trkpt>
      <trkpt lat="44.46877" lon="1.00874">
        <ele>149.62468</ele>
        <time>2019-08-17T13:02:32Z</time>
      </trkpt>
      <trkpt lat="44.46876" lon="1.0088">
        <ele>149.851685</ele>
        <time>2019-08-17T13:02:33Z</time>
      </trkpt>
      <trkpt lat="44.46876" lon="1.00887">
        <ele>150.159866</ele>
        <time>2019-08-17T13:02:34Z</time>
      </trkpt>
      <trkpt lat="44.46875" lon="1.00894">
        <ele>150.491943</ele>
        <time>2019-08-17T13:02:35Z</time>
      </trkpt>
      <trkpt lat="44.46875" lon="1.009">
        <ele>150.804428</ele>
        <time>2019-08-17T13:02:36Z</time>
      </trkpt>
      <trkpt lat="44.46875" lon="1.00907">
        <ele>151.131531</ele>
        <time>2019-08-17T13:02:37Z</time>
      </trkpt>
      <trkpt lat="44.46874" lon="1.00914">
        <ele>151.471237</ele>
        <time>2019-08-17T13:02:38Z</time>
      </trkpt>
      <trkpt lat="44.46874" lon="1.00921">
        <ele>151.82016</ele>
        <time>2019-08-17T13:02:39Z</time>
      </trkpt>
      <trkpt lat="44.46874" lon="1.00927">
        <ele>152.177567</ele>
        <time>2019-08-17T13:02:40Z</time>
      </trkpt>
      <trkpt lat="44.46873" lon="1.00934">
        <ele>152.177567</ele>
        <time>2019-08-17T13:02:41Z</time>
      </trkpt>
      <trkpt lat="44.46872" lon="1.0094">
        <ele>152.544968</ele>
        <time>2019-08-17T13:02:42Z</time>
      </trkpt>
      <trkpt lat="44.46871" lon="1.00946">
        <ele>152.91153</ele>
        <time>2019-08-17T13:02:43Z</time>
      </trkpt>
      <trkpt lat="44.4687" lon="1.00952">
        <ele>153.339798</ele>
        <time>2019-08-17T13:02:44Z</time>
      </trkpt>
      <trkpt lat="44.46869" lon="1.00959">
        <ele>153.774338</ele>
        <time>2019-08-17T13:02:45Z</time>
      </trkpt>
      <trkpt lat="44.46867" lon="1.00965">
        <ele>153.774338</ele>
        <time>2019-08-17T13:02:46Z</time>
      </trkpt>
      <trkpt lat="44.46866" lon="1.00971">
        <ele>154.222275</ele>
        <time>2019-08-17T13:02:47Z</time>
      </trkpt>
      <trkpt lat="44.46865" lon="1.00977">
        <ele>154.682922</ele>
        <time>2019-08-17T13:02:48Z</time>
      </trkpt>
      <trkpt lat="44.46864" lon="1.00983">
        <ele>155.236328</ele>
        <time>2019-08-17T13:02:49Z</time>
      </trkpt>
      <trkpt lat="44.46862" lon="1.00989">
        <ele>155.810989</ele>
        <time>2019-08-17T13:02:50Z</time>
      </trkpt>
      <trkpt lat="44.46861" lon="1.00995">
        <ele>156.343307</ele>
        <time>2019-08-17T13:02:51Z</time>
      </trkpt>
      <trkpt lat="44.46859" lon="1.01001">
        <ele>156.889938</ele>
        <time>2019-08-17T13:02:52Z</time>
      </trkpt>
      <trkpt lat="44.46858" lon="1.01006">
        <ele>157.449692</ele>
        <time>2019-08-17T13:02:53Z</time>
      </trkpt>
      <trkpt lat="44.46856" lon="1.01012">
        <ele>158.014801</ele>
        <time>2019-08-17T13:02:54Z</time>
      </trkpt>
      <trkpt lat="44.46854" lon="1.01018">
        <ele>158.516556</ele>
        <time>2019-08-17T13:02:55Z</time>
      </trkpt>
      <trkpt lat="44.46854" lon="1.01024">
        <ele>159.038925</ele>
        <time>2019-08-17T13:02:56Z</time>
      </trkpt>
      <trkpt lat="44.46854" lon="1.01031">
        <ele>159.571487</ele>
        <time>2019-08-17T13:02:57Z</time>
      </trkpt>
      <trkpt lat="44.46854" lon="1.01037">
        <ele>160.097519</ele>
        <time>2019-08-17T13:02:58Z</time>
      </trkpt>
      <trkpt lat="44.46854" lon="1.01043">
        <ele>160.590561</ele>
        <time>2019-08-17T13:02:59Z</time>
      </trkpt>
      <trkpt lat="44.46855" lon="1.01048">
        <ele>161.053818</ele>
        <time>2019-08-17T13:03:00Z</time>
      </trkpt>
      <trkpt lat="44.46856" lon="1.01052">
        <ele>161.468964</ele>
        <time>2019-08-17T13:03:01Z</time>
      </trkpt>
      <trkpt lat="44.46858" lon="1.01057">
        <ele>161.468964</ele>
        <time>2019-08-17T13:03:02Z</time>
      </trkpt>
      <trkpt lat="44.46861" lon="1.0106">
        <ele>161.806335</ele>
        <time>2019-08-17T13:03:03Z</time>
      </trkpt>
      <trkpt lat="44.46864" lon="1.01064">
        <ele>161.993362</ele>
        <time>2019-08-17T13:03:04Z</time>
      </trkpt>
      <trkpt lat="44.46867" lon="1.01068">
        <ele>162.029739</ele>
        <time>2019-08-17T13:03:05Z</time>
      </trkpt>
      <trkpt lat="44.46871" lon="1.01072">
        <ele>162.029739</ele>
        <time>2019-08-17T13:03:06Z</time>
      </trkpt>
      <trkpt lat="44.46875" lon="1.01076">
        <ele>162.029739</ele>
        <time>2019-08-17T13:03:07Z</time>
      </trkpt>
      <trkpt lat="44.4688" lon="1.0108">
        <ele>161.94014</ele>
        <time>2019-08-17T13:03:08Z</time>
      </trkpt>
      <trkpt lat="44.46886" lon="1.01084">
        <ele>161.716736</ele>
        <time>2019-08-17T13:03:09Z</time>
      </trkpt>
      <trkpt lat="44.46891" lon="1.01089">
        <ele>161.335144</ele>
        <time>2019-08-17T13:03:10Z</time>
      </trkpt>
      <trkpt lat="44.46896" lon="1.01094">
        <ele>160.788864</ele>
        <time>2019-08-17T13:03:11Z</time>
      </trkpt>
      <trkpt lat="44.46901" lon="1.011">
        <ele>160.147537</ele>
        <time>2019-08-17T13:03:12Z</time>
      </trkpt>
      <trkpt lat="44.46906" lon="1.01105">
        <ele>160.147537</ele>
        <time>2019-08-17T13:03:13Z</time>
      </trkpt>
      <trkpt lat="44.46911" lon="1.01111">
        <ele>159.431915</ele>
        <time>2019-08-17T13:03:14Z</time>
      </trkpt>
      <trkpt lat="44.46914" lon="1.01118">
        <ele>158.641693</ele>
        <time>2019-08-17T13:03:15Z</time>
      </trkpt>
      <trkpt lat="44.46918" lon="1.01125">
        <ele>157.656281</ele>
        <time>2019-08-17T13:03:16Z</time>
      </trkpt>
      <trkpt lat="44.46922" lon="1.01132">
        <ele>156.652237</ele>
        <time>2019-08-17T13:03:17Z</time>
      </trkpt>
      <trkpt lat="44.46925" lon="1.01139">
        <ele>155.674637</ele>
        <time>2019-08-17T13:03:18Z</time>
      </trkpt>
      <trkpt lat="44.4693" lon="1.01145">
        <ele>154.745209</ele>
        <time>2019-08-17T13:03:19Z</time>
      </trkpt>
      <trkpt lat="44.46935" lon="1.01149">
        <ele>153.852158</ele>
        <time>2019-08-17T13:03:20Z</time>
      </trkpt>
      <trkpt lat="44.46941" lon="1.01153">
        <ele>152.999069</ele>
        <time>2019-08-17T13:03:21Z</time>
      </trkpt>
      <trkpt lat="44.46945" lon="1.01155">
        <ele>152.999069</ele>
        <time>2019-08-17T13:03:22Z</time>
      </trkpt>
      <trkpt lat="44.46949" lon="1.01157">
        <ele>152.305298</ele>
        <time>2019-08-17T13:03:23Z</time>
      </trkpt>
      <trkpt lat="44.46953" lon="1.01159">
        <ele>151.590805</ele>
        <time>2019-08-17T13:03:24Z</time>
      </trkpt>
      <trkpt lat="44.46955" lon="1.0116">
        <ele>150.675034</ele>
        <time>2019-08-17T13:03:25Z</time>
      </trkpt>
      <trkpt lat="44.46957" lon="1.01161">
        <ele>149.730469</ele>
        <time>2019-08-17T13:03:26Z</time>
      </trkpt>
      <trkpt lat="44.46961" lon="1.01163">
        <ele>148.799072</ele>
        <time>2019-08-17T13:03:27Z</time>
      </trkpt>
      <trkpt lat="44.46965" lon="1.01167">
        <ele>147.899048</ele>
        <time>2019-08-17T13:03:28Z</time>
      </trkpt>
      <trkpt lat="44.4697" lon="1.01171">
        <ele>147.033676</ele>
        <time>2019-08-17T13:03:29Z</time>
      </trkpt>
      <trkpt lat="44.46974" lon="1.01177">
        <ele>146.211182</ele>
        <time>2019-08-17T13:03:30Z</time>
      </trkpt>
      <trkpt lat="44.46978" lon="1.01183">
        <ele>145.576065</ele>
        <time>2019-08-17T13:03:31Z</time>
      </trkpt>
      <trkpt lat="44.46983" lon="1.0119">
        <ele>145.576065</ele>
        <time>2019-08-17T13:03:32Z</time>
      </trkpt>
      <trkpt lat="44.46988" lon="1.01198">
        <ele>144.945923</ele>
        <time>2019-08-17T13:03:33Z</time>
      </trkpt>
      <trkpt lat="44.46993" lon="1.01206">
        <ele>144.27739</ele>
        <time>2019-08-17T13:03:34Z</time>
      </trkpt>
      <trkpt lat="44.46997" lon="1.01212">
        <ele>143.391602</ele>
        <time>2019-08-17T13:03:35Z</time>
      </trkpt>
      <trkpt lat="44.47003" lon="1.01217">
        <ele>142.435257</ele>
        <time>2019-08-17T13:03:36Z</time>
      </trkpt>
      <trkpt lat="44.47009" lon="1.0122">
        <ele>141.447922</ele>
        <time>2019-08-17T13:03:37Z</time>
      </trkpt>
      <trkpt lat="44.47015" lon="1.01222">
        <ele>140.493118</ele>
        <time>2019-08-17T13:03:38Z</time>
      </trkpt>
      <trkpt lat="44.47019" lon="1.01224">
        <ele>140.493118</ele>
        <time>2019-08-17T13:03:39Z</time>
      </trkpt>
      <trkpt lat="44.47023" lon="1.01224">
        <ele>139.544144</ele>
        <time>2019-08-17T13:03:40Z</time>
      </trkpt>
      <trkpt lat="44.47025" lon="1.01226">
        <ele>138.612015</ele>
        <time>2019-08-17T13:03:41Z</time>
      </trkpt>
      <trkpt lat="44.47026" lon="1.01228">
        <ele>137.768494</ele>
        <time>2019-08-17T13:03:42Z</time>
      </trkpt>
      <trkpt lat="44.47026" lon="1.01231">
        <ele>137.009567</ele>
        <time>2019-08-17T13:03:43Z</time>
      </trkpt>
      <trkpt lat="44.47026" lon="1.01234">
        <ele>136.343918</ele>
        <time>2019-08-17T13:03:44Z</time>
      </trkpt>
      <trkpt lat="44.47026" lon="1.01238">
        <ele>135.746017</ele>
        <time>2019-08-17T13:03:45Z</time>
      </trkpt>
      <trkpt lat="44.47025" lon="1.01243">
        <ele>135.746017</ele>
        <time>2019-08-17T13:03:46Z</time>
      </trkpt>
      <trkpt lat="44.47023" lon="1.01248">
        <ele>135.266113</ele>
        <time>2019-08-17T13:03:47Z</time>
      </trkpt>
      <trkpt lat="44.47022" lon="1.01253">
        <ele>134.924393</ele>
        <time>2019-08-17T13:03:48Z</time>
      </trkpt>
      <trkpt lat="44.4702" lon="1.01258">
        <ele>134.805832</ele>
        <time>2019-08-17T13:03:49Z</time>
      </trkpt>
      <trkpt lat="44.47018" lon="1.01263">
        <ele>134.770508</ele>
        <time>2019-08-17T13:03:50Z</time>
      </trkpt>
      <trkpt lat="44.47016" lon="1.01268">
        <ele>134.770508</ele>
        <time>2019-08-17T13:03:51Z</time>
      </trkpt>
      <trkpt lat="44.47014" lon="1.01273">
        <ele>134.770508</ele>
        <time>2019-08-17T13:03:52Z</time>
      </trkpt>
      <trkpt lat="44.47012" lon="1.01278">
        <ele>134.770508</ele>
        <time>2019-08-17T13:03:53Z</time>
      </trkpt>
      <trkpt lat="44.4701" lon="1.01283">
        <ele>134.810303</ele>
        <time>2019-08-17T13:03:54Z</time>
      </trkpt>
      <trkpt lat="44.47008" lon="1.01288">
        <ele>134.93782</ele>
        <time>2019-08-17T13:03:55Z</time>
      </trkpt>
      <trkpt lat="44.47006" lon="1.01293">
        <ele>135.101395</ele>
        <time>2019-08-17T13:03:56Z</time>
      </trkpt>
      <trkpt lat="44.47005" lon="1.01298">
        <ele>135.275223</ele>
        <time>2019-08-17T13:03:57Z</time>
      </trkpt>
      <trkpt lat="44.47003" lon="1.01303">
        <ele>135.452164</ele>
        <time>2019-08-17T13:03:58Z</time>
      </trkpt>
      <trkpt lat="44.47001" lon="1.01308">
        <ele>135.633926</ele>
        <time>2019-08-17T13:03:59Z</time>
      </trkpt>
      <trkpt lat="44.46999" lon="1.01313">
        <ele>135.801498</ele>
        <time>2019-08-17T13:04:00Z</time>
      </trkpt>
      <trkpt lat="44.46996" lon="1.01319">
        <ele>135.935577</ele>
        <time>2019-08-17T13:04:01Z</time>
      </trkpt>
      <trkpt lat="44.46994" lon="1.01324">
        <ele>136.070999</ele>
        <time>2019-08-17T13:04:02Z</time>
      </trkpt>
      <trkpt lat="44.46992" lon="1.0133">
        <ele>136.208679</ele>
        <time>2019-08-17T13:04:03Z</time>
      </trkpt>
      <trkpt lat="44.4699" lon="1.01336">
        <ele>136.208679</ele>
        <time>2019-08-17T13:04:04Z</time>
      </trkpt>
      <trkpt lat="44.46988" lon="1.01342">
        <ele>136.352127</ele>
        <time>2019-08-17T13:04:05Z</time>
      </trkpt>
      <trkpt lat="44.46986" lon="1.01348">
        <ele>136.511215</ele>
        <time>2019-08-17T13:04:06Z</time>
      </trkpt>
      <trkpt lat="44.46983" lon="1.01354">
        <ele>136.744217</ele>
        <time>2019-08-17T13:04:07Z</time>
      </trkpt>
      <trkpt lat="44.46981" lon="1.01359">
        <ele>137.017929</ele>
        <time>2019-08-17T13:04:08Z</time>
      </trkpt>
      <trkpt lat="44.46979" lon="1.01364">
        <ele>137.331314</ele>
        <time>2019-08-17T13:04:09Z</time>
      </trkpt>
      <trkpt lat="44.46977" lon="1.01369">
        <ele>137.666733</ele>
        <time>2019-08-17T13:04:10Z</time>
      </trkpt>
      <trkpt lat="44.46975" lon="1.01375">
        <ele>138.015167</ele>
        <time>2019-08-17T13:04:11Z</time>
      </trkpt>
      <trkpt lat="44.46973" lon="1.0138">
        <ele>138.373001</ele>
        <time>2019-08-17T13:04:12Z</time>
      </trkpt>
      <trkpt lat="44.4697" lon="1.01385">
        <ele>138.373001</ele>
        <time>2019-08-17T13:04:13Z</time>
      </trkpt>
      <trkpt lat="44.46968" lon="1.01389">
        <ele>138.68811</ele>
        <time>2019-08-17T13:04:14Z</time>
      </trkpt>
      <trkpt lat="44.46966" lon="1.01395">
        <ele>138.97406</ele>
        <time>2019-08-17T13:04:15Z</time>
      </trkpt>
      <trkpt lat="44.46964" lon="1.014">
        <ele>139.274368</ele>
        <time>2019-08-17T13:04:16Z</time>
      </trkpt>
      <trkpt lat="44.46961" lon="1.01406">
        <ele>139.57164</ele>
        <time>2019-08-17T13:04:17Z</time>
      </trkpt>
      <trkpt lat="44.46959" lon="1.01412">
        <ele>139.870956</ele>
        <time>2019-08-17T13:04:18Z</time>
      </trkpt>
      <trkpt lat="44.46956" lon="1.01416">
        <ele>140.168427</ele>
        <time>2019-08-17T13:04:19Z</time>
      </trkpt>
      <trkpt lat="44.46954" lon="1.01421">
        <ele>140.459641</ele>
        <time>2019-08-17T13:04:20Z</time>
      </trkpt>
      <trkpt lat="44.46951" lon="1.01426">
        <ele>140.76091</ele>
        <time>2019-08-17T13:04:21Z</time>
      </trkpt>
      <trkpt lat="44.46949" lon="1.0143">
        <ele>141.027893</ele>
        <time>2019-08-17T13:04:22Z</time>
      </trkpt>
      <trkpt lat="44.46947" lon="1.01435">
        <ele>141.278</ele>
        <time>2019-08-17T13:04:23Z</time>
      </trkpt>
      <trkpt lat="44.46944" lon="1.0144">
        <ele>141.510376</ele>
        <time>2019-08-17T13:04:24Z</time>
      </trkpt>
      <trkpt lat="44.46942" lon="1.01445">
        <ele>141.718674</ele>
        <time>2019-08-17T13:04:25Z</time>
      </trkpt>
      <trkpt lat="44.4694" lon="1.01449">
        <ele>141.718674</ele>
        <time>2019-08-17T13:04:26Z</time>
      </trkpt>
      <trkpt lat="44.46936" lon="1.01454">
        <ele>141.917252</ele>
        <time>2019-08-17T13:04:27Z</time>
      </trkpt>
      <trkpt lat="44.46934" lon="1.01459">
        <ele>142.09758</ele>
        <time>2019-08-17T13:04:28Z</time>
      </trkpt>
      <trkpt lat="44.46931" lon="1.01463">
        <ele>142.270309</ele>
        <time>2019-08-17T13:04:29Z</time>
      </trkpt>
      <trkpt lat="44.46928" lon="1.01467">
        <ele>142.443817</ele>
        <time>2019-08-17T13:04:30Z</time>
      </trkpt>
      <trkpt lat="44.46926" lon="1.01471">
        <ele>142.625336</ele>
        <time>2019-08-17T13:04:31Z</time>
      </trkpt>
      <trkpt lat="44.46924" lon="1.01476">
        <ele>142.825333</ele>
        <time>2019-08-17T13:04:32Z</time>
      </trkpt>
      <trkpt lat="44.46921" lon="1.01481">
        <ele>143.0168</ele>
        <time>2019-08-17T13:04:33Z</time>
      </trkpt>
      <trkpt lat="44.46918" lon="1.01486">
        <ele>143.0168</ele>
        <time>2019-08-17T13:04:34Z</time>
      </trkpt>
      <trkpt lat="44.46915" lon="1.0149">
        <ele>143.198441</ele>
        <time>2019-08-17T13:04:35Z</time>
      </trkpt>
      <trkpt lat="44.46912" lon="1.01495">
        <ele>143.352585</ele>
        <time>2019-08-17T13:04:36Z</time>
      </trkpt>
      <trkpt lat="44.46909" lon="1.01499">
        <ele>143.535202</ele>
        <time>2019-08-17T13:04:37Z</time>
      </trkpt>
      <trkpt lat="44.46906" lon="1.01504">
        <ele>143.746262</ele>
        <time>2019-08-17T13:04:38Z</time>
      </trkpt>
      <trkpt lat="44.46904" lon="1.01508">
        <ele>143.746262</ele>
        <time>2019-08-17T13:04:39Z</time>
      </trkpt>
      <trkpt lat="44.46901" lon="1.01513">
        <ele>143.984009</ele>
        <time>2019-08-17T13:04:40Z</time>
      </trkpt>
      <trkpt lat="44.46899" lon="1.01518">
        <ele>144.262985</ele>
        <time>2019-08-17T13:04:41Z</time>
      </trkpt>
      <trkpt lat="44.46896" lon="1.01522">
        <ele>144.642502</ele>
        <time>2019-08-17T13:04:42Z</time>
      </trkpt>
      <trkpt lat="44.46894" lon="1.01527">
        <ele>145.061386</ele>
        <time>2019-08-17T13:04:43Z</time>
      </trkpt>
      <trkpt lat="44.46893" lon="1.01532">
        <ele>145.461609</ele>
        <time>2019-08-17T13:04:44Z</time>
      </trkpt>
      <trkpt lat="44.46892" lon="1.01537">
        <ele>145.830826</ele>
        <time>2019-08-17T13:04:45Z</time>
      </trkpt>
      <trkpt lat="44.4689" lon="1.01543">
        <ele>146.121872</ele>
        <time>2019-08-17T13:04:46Z</time>
      </trkpt>
      <trkpt lat="44.46889" lon="1.01548">
        <ele>146.33429</ele>
        <time>2019-08-17T13:04:47Z</time>
      </trkpt>
      <trkpt lat="44.46887" lon="1.01554">
        <ele>146.422897</ele>
        <time>2019-08-17T13:04:48Z</time>
      </trkpt>
      <trkpt lat="44.46885" lon="1.01559">
        <ele>146.446945</ele>
        <time>2019-08-17T13:04:49Z</time>
      </trkpt>
      <trkpt lat="44.46882" lon="1.01564">
        <ele>146.446945</ele>
        <time>2019-08-17T13:04:50Z</time>
      </trkpt>
      <trkpt lat="44.46879" lon="1.01569">
        <ele>146.48085</ele>
        <time>2019-08-17T13:04:51Z</time>
      </trkpt>
      <trkpt lat="44.46876" lon="1.01574">
        <ele>146.525589</ele>
        <time>2019-08-17T13:04:52Z</time>
      </trkpt>
      <trkpt lat="44.46873" lon="1.01579">
        <ele>146.576035</ele>
        <time>2019-08-17T13:04:53Z</time>
      </trkpt>
      <trkpt lat="44.46869" lon="1.01583">
        <ele>146.597839</ele>
        <time>2019-08-17T13:04:54Z</time>
      </trkpt>
      <trkpt lat="44.46866" lon="1.01588">
        <ele>146.660599</ele>
        <time>2019-08-17T13:04:55Z</time>
      </trkpt>
      <trkpt lat="44.46863" lon="1.01592">
        <ele>146.800003</ele>
        <time>2019-08-17T13:04:56Z</time>
      </trkpt>
      <trkpt lat="44.46859" lon="1.01596">
        <ele>147.011475</ele>
        <time>2019-08-17T13:04:57Z</time>
      </trkpt>
      <trkpt lat="44.46856" lon="1.01602">
        <ele>147.29567</ele>
        <time>2019-08-17T13:04:58Z</time>
      </trkpt>
      <trkpt lat="44.46853" lon="1.01607">
        <ele>147.617416</ele>
        <time>2019-08-17T13:04:59Z</time>
      </trkpt>
      <trkpt lat="44.46849" lon="1.01613">
        <ele>147.617416</ele>
        <time>2019-08-17T13:05:00Z</time>
      </trkpt>
      <trkpt lat="44.46845" lon="1.0162">
        <ele>147.96196</ele>
        <time>2019-08-17T13:05:01Z</time>
      </trkpt>
      <trkpt lat="44.46841" lon="1.01628">
        <ele>148.296326</ele>
        <time>2019-08-17T13:05:02Z</time>
      </trkpt>
      <trkpt lat="44.46837" lon="1.01635">
        <ele>148.647934</ele>
        <time>2019-08-17T13:05:03Z</time>
      </trkpt>
      <trkpt lat="44.46833" lon="1.01642">
        <ele>148.857285</ele>
        <time>2019-08-17T13:05:04Z</time>
      </trkpt>
      <trkpt lat="44.46829" lon="1.01649">
        <ele>148.912399</ele>
        <time>2019-08-17T13:05:05Z</time>
      </trkpt>
      <trkpt lat="44.46824" lon="1.01656">
        <ele>148.912399</ele>
        <time>2019-08-17T13:05:06Z</time>
      </trkpt>
      <trkpt lat="44.46821" lon="1.01662">
        <ele>148.912399</ele>
        <time>2019-08-17T13:05:07Z</time>
      </trkpt>
      <trkpt lat="44.46818" lon="1.01668">
        <ele>148.814957</ele>
        <time>2019-08-17T13:05:08Z</time>
      </trkpt>
      <trkpt lat="44.46814" lon="1.01674">
        <ele>148.544235</ele>
        <time>2019-08-17T13:05:09Z</time>
      </trkpt>
      <trkpt lat="44.46811" lon="1.0168">
        <ele>148.100815</ele>
        <time>2019-08-17T13:05:10Z</time>
      </trkpt>
      <trkpt lat="44.46807" lon="1.01685">
        <ele>147.450378</ele>
        <time>2019-08-17T13:05:11Z</time>
      </trkpt>
      <trkpt lat="44.46803" lon="1.0169">
        <ele>146.771729</ele>
        <time>2019-08-17T13:05:12Z</time>
      </trkpt>
      <trkpt lat="44.468" lon="1.01694">
        <ele>146.076645</ele>
        <time>2019-08-17T13:05:13Z</time>
      </trkpt>
      <trkpt lat="44.46796" lon="1.01698">
        <ele>146.076645</ele>
        <time>2019-08-17T13:05:14Z</time>
      </trkpt>
      <trkpt lat="44.46793" lon="1.01701">
        <ele>145.360352</ele>
        <time>2019-08-17T13:05:15Z</time>
      </trkpt>
      <trkpt lat="44.46789" lon="1.01705">
        <ele>144.652237</ele>
        <time>2019-08-17T13:05:16Z</time>
      </trkpt>
      <trkpt lat="44.46786" lon="1.01708">
        <ele>143.921204</ele>
        <time>2019-08-17T13:05:17Z</time>
      </trkpt>
      <trkpt lat="44.46782" lon="1.01712">
        <ele>143.252014</ele>
        <time>2019-08-17T13:05:18Z</time>
      </trkpt>
      <trkpt lat="44.46779" lon="1.01715">
        <ele>142.636536</ele>
        <time>2019-08-17T13:05:19Z</time>
      </trkpt>
      <trkpt lat="44.46775" lon="1.01719">
        <ele>142.070496</ele>
        <time>2019-08-17T13:05:20Z</time>
      </trkpt>
      <trkpt lat="44.46771" lon="1.01723">
        <ele>141.56015</ele>
        <time>2019-08-17T13:05:21Z</time>
      </trkpt>
      <trkpt lat="44.46766" lon="1.01726">
        <ele>141.56015</ele>
        <time>2019-08-17T13:05:22Z</time>
      </trkpt>
      <trkpt lat="44.46762" lon="1.01729">
        <ele>141.082809</ele>
        <time>2019-08-17T13:05:23Z</time>
      </trkpt>
      <trkpt lat="44.46758" lon="1.01732">
        <ele>140.676392</ele>
        <time>2019-08-17T13:05:24Z</time>
      </trkpt>
      <trkpt lat="44.46755" lon="1.01735">
        <ele>140.181335</ele>
        <time>2019-08-17T13:05:25Z</time>
      </trkpt>
      <trkpt lat="44.46752" lon="1.01738">
        <ele>139.683502</ele>
        <time>2019-08-17T13:05:26Z</time>
      </trkpt>
      <trkpt lat="44.46749" lon="1.0174">
        <ele>139.181778</ele>
        <time>2019-08-17T13:05:27Z</time>
      </trkpt>
      <trkpt lat="44.46746" lon="1.01742">
        <ele>138.670898</ele>
        <time>2019-08-17T13:05:28Z</time>
      </trkpt>
      <trkpt lat="44.46743" lon="1.01745">
        <ele>138.165237</ele>
        <time>2019-08-17T13:05:29Z</time>
      </trkpt>
      <trkpt lat="44.4674" lon="1.01748">
        <ele>137.679428</ele>
        <time>2019-08-17T13:05:30Z</time>
      </trkpt>
      <trkpt lat="44.46738" lon="1.01752">
        <ele>137.270508</ele>
        <time>2019-08-17T13:05:31Z</time>
      </trkpt>
      <trkpt lat="44.46735" lon="1.01756">
        <ele>136.844315</ele>
        <time>2019-08-17T13:05:32Z</time>
      </trkpt>
      <trkpt lat="44.46732" lon="1.01759">
        <ele>136.388779</ele>
        <time>2019-08-17T13:05:33Z</time>
      </trkpt>
      <trkpt lat="44.46731" lon="1.01764">
        <ele>135.883911</ele>
        <time>2019-08-17T13:05:34Z</time>
      </trkpt>
      <trkpt lat="44.4673" lon="1.01768">
        <ele>135.883911</ele>
        <time>2019-08-17T13:05:35Z</time>
      </trkpt>
      <trkpt lat="44.4673" lon="1.01772">
        <ele>135.325943</ele>
        <time>2019-08-17T13:05:36Z</time>
      </trkpt>
      <trkpt lat="44.46729" lon="1.01775">
        <ele>134.688766</ele>
        <time>2019-08-17T13:05:37Z</time>
      </trkpt>
      <trkpt lat="44.46728" lon="1.01779">
        <ele>134.12764</ele>
        <time>2019-08-17T13:05:38Z</time>
      </trkpt>
      <trkpt lat="44.46729" lon="1.01782">
        <ele>133.664703</ele>
        <time>2019-08-17T13:05:39Z</time>
      </trkpt>
      <trkpt lat="44.4673" lon="1.01784">
        <ele>133.308167</ele>
        <time>2019-08-17T13:05:40Z</time>
      </trkpt>
      <trkpt lat="44.4674" lon="1.0178">
        <ele>132.943497</ele>
        <time>2019-08-17T13:06:12Z</time>
      </trkpt>
      <trkpt lat="44.46743" lon="1.01779">
        <ele>132.943497</ele>
        <time>2019-08-17T13:06:14Z</time>
      </trkpt>
      <trkpt lat="44.46746" lon="1.01777">
        <ele>132.916672</ele>
        <time>2019-08-17T13:06:15Z</time>
      </trkpt>
      <trkpt lat="44.46749" lon="1.01775">
        <ele>132.881241</ele>
        <time>2019-08-17T13:06:16Z</time>
      </trkpt>
      <trkpt lat="44.46753" lon="1.01774">
        <ele>132.818054</ele>
        <time>2019-08-17T13:06:17Z</time>
      </trkpt>
      <trkpt lat="44.46756" lon="1.01773">
        <ele>132.736389</ele>
        <time>2019-08-17T13:06:18Z</time>
      </trkpt>
      <trkpt lat="44.4676" lon="1.01771">
        <ele>132.639954</ele>
        <time>2019-08-17T13:06:19Z</time>
      </trkpt>
      <trkpt lat="44.46764" lon="1.0177">
        <ele>132.532364</ele>
        <time>2019-08-17T13:06:20Z</time>
      </trkpt>
      <trkpt lat="44.46767" lon="1.01769">
        <ele>132.414047</ele>
        <time>2019-08-17T13:06:21Z</time>
      </trkpt>
      <trkpt lat="44.46771" lon="1.01767">
        <ele>132.283203</ele>
        <time>2019-08-17T13:06:22Z</time>
      </trkpt>
      <trkpt lat="44.46774" lon="1.01766">
        <ele>132.160385</ele>
        <time>2019-08-17T13:06:23Z</time>
      </trkpt>
      <trkpt lat="44.46777" lon="1.01766">
        <ele>132.035324</ele>
        <time>2019-08-17T13:06:24Z</time>
      </trkpt>
      <trkpt lat="44.4678" lon="1.01766">
        <ele>131.90863</ele>
        <time>2019-08-17T13:06:25Z</time>
      </trkpt>
      <trkpt lat="44.46784" lon="1.01766">
        <ele>131.782242</ele>
        <time>2019-08-17T13:06:26Z</time>
      </trkpt>
      <trkpt lat="44.46788" lon="1.01766">
        <ele>131.658279</ele>
        <time>2019-08-17T13:06:27Z</time>
      </trkpt>
      <trkpt lat="44.46791" lon="1.01766">
        <ele>131.542831</ele>
        <time>2019-08-17T13:06:28Z</time>
      </trkpt>
      <trkpt lat="44.46795" lon="1.01767">
        <ele>131.43309</ele>
        <time>2019-08-17T13:06:29Z</time>
      </trkpt>
      <trkpt lat="44.46798" lon="1.01767">
        <ele>131.333435</ele>
        <time>2019-08-17T13:06:30Z</time>
      </trkpt>
      <trkpt lat="44.46801" lon="1.01767">
        <ele>131.24762</ele>
        <time>2019-08-17T13:06:31Z</time>
      </trkpt>
      <trkpt lat="44.46803" lon="1.01766">
        <ele>131.176987</ele>
        <time>2019-08-17T13:06:32Z</time>
      </trkpt>
      <trkpt lat="44.46806" lon="1.01766">
        <ele>131.118576</ele>
        <time>2019-08-17T13:06:33Z</time>
      </trkpt>
      <trkpt lat="44.46809" lon="1.01765">
        <ele>131.06691</ele>
        <time>2019-08-17T13:06:34Z</time>
      </trkpt>
      <trkpt lat="44.46812" lon="1.01764">
        <ele>131.022339</ele>
        <time>2019-08-17T13:06:35Z</time>
      </trkpt>
      <trkpt lat="44.46814" lon="1.01763">
        <ele>131.022339</ele>
        <time>2019-08-17T13:06:36Z</time>
      </trkpt>
      <trkpt lat="44.46817" lon="1.01762">
        <ele>130.978256</ele>
        <time>2019-08-17T13:06:37Z</time>
      </trkpt>
      <trkpt lat="44.46819" lon="1.01761">
        <ele>130.930954</ele>
        <time>2019-08-17T13:06:38Z</time>
      </trkpt>
      <trkpt lat="44.46829" lon="1.01759">
        <ele>130.543167</ele>
        <time>2019-08-17T13:06:55Z</time>
      </trkpt>
      <trkpt lat="44.46832" lon="1.01758">
        <ele>130.553665</ele>
        <time>2019-08-17T13:06:57Z</time>
      </trkpt>
      <trkpt lat="44.46835" lon="1.01755">
        <ele>130.564606</ele>
        <time>2019-08-17T13:06:58Z</time>
      </trkpt>
      <trkpt lat="44.46837" lon="1.01751">
        <ele>130.579086</ele>
        <time>2019-08-17T13:06:59Z</time>
      </trkpt>
      <trkpt lat="44.4684" lon="1.01748">
        <ele>130.579086</ele>
        <time>2019-08-17T13:07:00Z</time>
      </trkpt>
      <trkpt lat="44.46843" lon="1.01744">
        <ele>130.60817</ele>
        <time>2019-08-17T13:07:01Z</time>
      </trkpt>
      <trkpt lat="44.46845" lon="1.01739">
        <ele>130.695908</ele>
        <time>2019-08-17T13:07:02Z</time>
      </trkpt>
      <trkpt lat="44.46847" lon="1.01734">
        <ele>130.925262</ele>
        <time>2019-08-17T13:07:03Z</time>
      </trkpt>
      <trkpt lat="44.46849" lon="1.01729">
        <ele>131.22731</ele>
        <time>2019-08-17T13:07:04Z</time>
      </trkpt>
      <trkpt lat="44.46852" lon="1.01724">
        <ele>131.606354</ele>
        <time>2019-08-17T13:07:05Z</time>
      </trkpt>
      <trkpt lat="44.46854" lon="1.01718">
        <ele>132.069931</ele>
        <time>2019-08-17T13:07:06Z</time>
      </trkpt>
      <trkpt lat="44.46857" lon="1.01713">
        <ele>132.596405</ele>
        <time>2019-08-17T13:07:07Z</time>
      </trkpt>
      <trkpt lat="44.46861" lon="1.01707">
        <ele>133.157089</ele>
        <time>2019-08-17T13:07:08Z</time>
      </trkpt>
      <trkpt lat="44.46864" lon="1.01702">
        <ele>133.660889</ele>
        <time>2019-08-17T13:07:09Z</time>
      </trkpt>
      <trkpt lat="44.46868" lon="1.01698">
        <ele>134.170532</ele>
        <time>2019-08-17T13:07:10Z</time>
      </trkpt>
      <trkpt lat="44.46872" lon="1.01693">
        <ele>134.66658</ele>
        <time>2019-08-17T13:07:11Z</time>
      </trkpt>
      <trkpt lat="44.46877" lon="1.0169">
        <ele>135.117752</ele>
        <time>2019-08-17T13:07:12Z</time>
      </trkpt>
      <trkpt lat="44.46881" lon="1.01686">
        <ele>135.512131</ele>
        <time>2019-08-17T13:07:13Z</time>
      </trkpt>
      <trkpt lat="44.46885" lon="1.01683">
        <ele>135.81105</ele>
        <time>2019-08-17T13:07:14Z</time>
      </trkpt>
      <trkpt lat="44.46889" lon="1.0168">
        <ele>135.81105</ele>
        <time>2019-08-17T13:07:15Z</time>
      </trkpt>
      <trkpt lat="44.46892" lon="1.01676">
        <ele>135.993164</ele>
        <time>2019-08-17T13:07:16Z</time>
      </trkpt>
      <trkpt lat="44.46896" lon="1.01672">
        <ele>136.08728</ele>
        <time>2019-08-17T13:07:17Z</time>
      </trkpt>
      <trkpt lat="44.46901" lon="1.01666">
        <ele>136.107239</ele>
        <time>2019-08-17T13:07:18Z</time>
      </trkpt>
      <trkpt lat="44.46905" lon="1.01661">
        <ele>136.107239</ele>
        <time>2019-08-17T13:07:19Z</time>
      </trkpt>
      <trkpt lat="44.46909" lon="1.01656">
        <ele>136.107239</ele>
        <time>2019-08-17T13:07:20Z</time>
      </trkpt>
      <trkpt lat="44.46914" lon="1.0165">
        <ele>136.065979</ele>
        <time>2019-08-17T13:07:21Z</time>
      </trkpt>
      <trkpt lat="44.46919" lon="1.01644">
        <ele>136.065979</ele>
        <time>2019-08-17T13:07:22Z</time>
      </trkpt>
      <trkpt lat="44.46925" lon="1.01639">
        <ele>135.961777</ele>
        <time>2019-08-17T13:07:23Z</time>
      </trkpt>
      <trkpt lat="44.46929" lon="1.01635">
        <ele>135.820786</ele>
        <time>2019-08-17T13:07:24Z</time>
      </trkpt>
      <trkpt lat="44.46934" lon="1.01633">
        <ele>135.58136</ele>
        <time>2019-08-17T13:07:25Z</time>
      </trkpt>
      <trkpt lat="44.46938" lon="1.01631">
        <ele>135.248123</ele>
        <time>2019-08-17T13:07:26Z</time>
      </trkpt>
      <trkpt lat="44.46943" lon="1.0163">
        <ele>134.834427</ele>
        <time>2019-08-17T13:07:27Z</time>
      </trkpt>
      <trkpt lat="44.46948" lon="1.01629">
        <ele>134.341873</ele>
        <time>2019-08-17T13:07:28Z</time>
      </trkpt>
      <trkpt lat="44.46952" lon="1.01629">
        <ele>133.775742</ele>
        <time>2019-08-17T13:07:29Z</time>
      </trkpt>
      <trkpt lat="44.46957" lon="1.01628">
        <ele>133.143311</ele>
        <time>2019-08-17T13:07:30Z</time>
      </trkpt>
      <trkpt lat="44.46961" lon="1.01628">
        <ele>132.529404</ele>
        <time>2019-08-17T13:07:31Z</time>
      </trkpt>
      <trkpt lat="44.46966" lon="1.01627">
        <ele>131.895615</ele>
        <time>2019-08-17T13:07:32Z</time>
      </trkpt>
      <trkpt lat="44.4697" lon="1.01626">
        <ele>131.233231</ele>
        <time>2019-08-17T13:07:33Z</time>
      </trkpt>
      <trkpt lat="44.46976" lon="1.01625">
        <ele>130.546677</ele>
        <time>2019-08-17T13:07:34Z</time>
      </trkpt>
      <trkpt lat="44.4698" lon="1.01624">
        <ele>129.844833</ele>
        <time>2019-08-17T13:07:35Z</time>
      </trkpt>
      <trkpt lat="44.46986" lon="1.01623">
        <ele>129.123199</ele>
        <time>2019-08-17T13:07:36Z</time>
      </trkpt>
      <trkpt lat="44.46991" lon="1.01622">
        <ele>128.382767</ele>
        <time>2019-08-17T13:07:37Z</time>
      </trkpt>
      <trkpt lat="44.46996" lon="1.0162">
        <ele>127.632713</ele>
        <time>2019-08-17T13:07:38Z</time>
      </trkpt>
      <trkpt lat="44.47002" lon="1.01619">
        <ele>126.866524</ele>
        <time>2019-08-17T13:07:39Z</time>
      </trkpt>
      <trkpt lat="44.47007" lon="1.01618">
        <ele>126.08358</ele>
        <time>2019-08-17T13:07:40Z</time>
      </trkpt>
      <trkpt lat="44.47012" lon="1.01617">
        <ele>125.325081</ele>
        <time>2019-08-17T13:07:41Z</time>
      </trkpt>
      <trkpt lat="44.47018" lon="1.01615">
        <ele>125.325081</ele>
        <time>2019-08-17T13:07:42Z</time>
      </trkpt>
      <trkpt lat="44.47023" lon="1.01614">
        <ele>124.596397</ele>
        <time>2019-08-17T13:07:43Z</time>
      </trkpt>
      <trkpt lat="44.47028" lon="1.01614">
        <ele>123.896889</ele>
        <time>2019-08-17T13:07:44Z</time>
      </trkpt>
      <trkpt lat="44.47033" lon="1.01613">
        <ele>123.133583</ele>
        <time>2019-08-17T13:07:45Z</time>
      </trkpt>
      <trkpt lat="44.47038" lon="1.01612">
        <ele>122.416107</ele>
        <time>2019-08-17T13:07:46Z</time>
      </trkpt>
      <trkpt lat="44.47043" lon="1.01611">
        <ele>121.743492</ele>
        <time>2019-08-17T13:07:47Z</time>
      </trkpt>
      <trkpt lat="44.47047" lon="1.0161">
        <ele>121.072426</ele>
        <time>2019-08-17T13:07:48Z</time>
      </trkpt>
      <trkpt lat="44.47052" lon="1.01609">
        <ele>120.402992</ele>
        <time>2019-08-17T13:07:49Z</time>
      </trkpt>
      <trkpt lat="44.47058" lon="1.01608">
        <ele>119.744141</ele>
        <time>2019-08-17T13:07:50Z</time>
      </trkpt>
      <trkpt lat="44.47063" lon="1.01607">
        <ele>119.188148</ele>
        <time>2019-08-17T13:07:51Z</time>
      </trkpt>
      <trkpt lat="44.47068" lon="1.01605">
        <ele>118.630531</ele>
        <time>2019-08-17T13:07:52Z</time>
      </trkpt>
      <trkpt lat="44.47073" lon="1.01603">
        <ele>118.071289</ele>
        <time>2019-08-17T13:07:53Z</time>
      </trkpt>
      <trkpt lat="44.47079" lon="1.01602">
        <ele>117.552948</ele>
        <time>2019-08-17T13:07:54Z</time>
      </trkpt>
      <trkpt lat="44.47084" lon="1.01601">
        <ele>117.095177</ele>
        <time>2019-08-17T13:07:55Z</time>
      </trkpt>
      <trkpt lat="44.47089" lon="1.016">
        <ele>116.692909</ele>
        <time>2019-08-17T13:07:56Z</time>
      </trkpt>
      <trkpt lat="44.47094" lon="1.01601">
        <ele>116.344536</ele>
        <time>2019-08-17T13:07:57Z</time>
      </trkpt>
      <trkpt lat="44.47096" lon="1.01603">
        <ele>116.047272</ele>
        <time>2019-08-17T13:07:58Z</time>
      </trkpt>
      <trkpt lat="44.47098" lon="1.01606">
        <ele>115.807426</ele>
        <time>2019-08-17T13:07:59Z</time>
      </trkpt>
      <trkpt lat="44.47098" lon="1.0161">
        <ele>115.5877</ele>
        <time>2019-08-17T13:08:00Z</time>
      </trkpt>
      <trkpt lat="44.47098" lon="1.01615">
        <ele>115.371788</ele>
        <time>2019-08-17T13:08:01Z</time>
      </trkpt>
      <trkpt lat="44.47097" lon="1.0162">
        <ele>115.166237</ele>
        <time>2019-08-17T13:08:02Z</time>
      </trkpt>
      <trkpt lat="44.47097" lon="1.01625">
        <ele>115.166237</ele>
        <time>2019-08-17T13:08:03Z</time>
      </trkpt>
      <trkpt lat="44.47097" lon="1.0163">
        <ele>114.98069</ele>
        <time>2019-08-17T13:08:04Z</time>
      </trkpt>
      <trkpt lat="44.47097" lon="1.01635">
        <ele>114.869873</ele>
        <time>2019-08-17T13:08:05Z</time>
      </trkpt>
      <trkpt lat="44.47096" lon="1.0164">
        <ele>114.850975</ele>
        <time>2019-08-17T13:08:06Z</time>
      </trkpt>
      <trkpt lat="44.47096" lon="1.01645">
        <ele>114.850975</ele>
        <time>2019-08-17T13:08:07Z</time>
      </trkpt>
      <trkpt lat="44.47096" lon="1.0165">
        <ele>114.850975</ele>
        <time>2019-08-17T13:08:08Z</time>
      </trkpt>
      <trkpt lat="44.47096" lon="1.01655">
        <ele>114.850975</ele>
        <time>2019-08-17T13:08:09Z</time>
      </trkpt>
      <trkpt lat="44.47095" lon="1.0166">
        <ele>114.850975</ele>
        <time>2019-08-17T13:08:10Z</time>
      </trkpt>
      <trkpt lat="44.47095" lon="1.01665">
        <ele>114.98246</ele>
        <time>2019-08-17T13:08:11Z</time>
      </trkpt>
      <trkpt lat="44.47094" lon="1.0167">
        <ele>115.196632</ele>
        <time>2019-08-17T13:08:12Z</time>
      </trkpt>
      <trkpt lat="44.47094" lon="1.01675">
        <ele>115.546814</ele>
        <time>2019-08-17T13:08:13Z</time>
      </trkpt>
      <trkpt lat="44.47094" lon="1.0168">
        <ele>115.972939</ele>
        <time>2019-08-17T13:08:14Z</time>
      </trkpt>
      <trkpt lat="44.47094" lon="1.01686">
        <ele>116.424957</ele>
        <time>2019-08-17T13:08:15Z</time>
      </trkpt>
      <trkpt lat="44.47094" lon="1.01692">
        <ele>116.424957</ele>
        <time>2019-08-17T13:08:16Z</time>
      </trkpt>
      <trkpt lat="44.47093" lon="1.01698">
        <ele>116.881584</ele>
        <time>2019-08-17T13:08:17Z</time>
      </trkpt>
      <trkpt lat="44.47093" lon="1.01704">
        <ele>117.282845</ele>
        <time>2019-08-17T13:08:18Z</time>
      </trkpt>
      <trkpt lat="44.47093" lon="1.0171">
        <ele>117.759773</ele>
        <time>2019-08-17T13:08:19Z</time>
      </trkpt>
      <trkpt lat="44.47092" lon="1.01716">
        <ele>118.19912</ele>
        <time>2019-08-17T13:08:20Z</time>
      </trkpt>
      <trkpt lat="44.47092" lon="1.01722">
        <ele>118.653999</ele>
        <time>2019-08-17T13:08:21Z</time>
      </trkpt>
      <trkpt lat="44.47091" lon="1.01728">
        <ele>119.12455</ele>
        <time>2019-08-17T13:08:22Z</time>
      </trkpt>
      <trkpt lat="44.47091" lon="1.01734">
        <ele>119.613037</ele>
        <time>2019-08-17T13:08:23Z</time>
      </trkpt>
      <trkpt lat="44.47091" lon="1.0174">
        <ele>120.117744</ele>
        <time>2019-08-17T13:08:24Z</time>
      </trkpt>
      <trkpt lat="44.4709" lon="1.01746">
        <ele>120.571205</ele>
        <time>2019-08-17T13:08:25Z</time>
      </trkpt>
      <trkpt lat="44.47089" lon="1.01752">
        <ele>120.571205</ele>
        <time>2019-08-17T13:08:26Z</time>
      </trkpt>
      <trkpt lat="44.47089" lon="1.01758">
        <ele>121.028564</ele>
        <time>2019-08-17T13:08:27Z</time>
      </trkpt>
      <trkpt lat="44.47088" lon="1.01764">
        <ele>121.489586</ele>
        <time>2019-08-17T13:08:28Z</time>
      </trkpt>
      <trkpt lat="44.47088" lon="1.0177">
        <ele>122.033607</ele>
        <time>2019-08-17T13:08:29Z</time>
      </trkpt>
      <trkpt lat="44.47087" lon="1.01776">
        <ele>122.581383</ele>
        <time>2019-08-17T13:08:30Z</time>
      </trkpt>
      <trkpt lat="44.47086" lon="1.01783">
        <ele>123.125244</ele>
        <time>2019-08-17T13:08:31Z</time>
      </trkpt>
      <trkpt lat="44.47085" lon="1.01789">
        <ele>123.659424</ele>
        <time>2019-08-17T13:08:32Z</time>
      </trkpt>
      <trkpt lat="44.47084" lon="1.01795">
        <ele>124.183922</ele>
        <time>2019-08-17T13:08:33Z</time>
      </trkpt>
      <trkpt lat="44.47084" lon="1.01801">
        <ele>124.697105</ele>
        <time>2019-08-17T13:08:34Z</time>
      </trkpt>
      <trkpt lat="44.47083" lon="1.01806">
        <ele>125.119225</ele>
        <time>2019-08-17T13:08:35Z</time>
      </trkpt>
      <trkpt lat="44.47082" lon="1.01812">
        <ele>125.525063</ele>
        <time>2019-08-17T13:08:36Z</time>
      </trkpt>
      <trkpt lat="44.47081" lon="1.01818">
        <ele>125.525063</ele>
        <time>2019-08-17T13:08:37Z</time>
      </trkpt>
      <trkpt lat="44.47081" lon="1.01824">
        <ele>125.925133</ele>
        <time>2019-08-17T13:08:38Z</time>
      </trkpt>
      <trkpt lat="44.4708" lon="1.0183">
        <ele>126.319984</ele>
        <time>2019-08-17T13:08:39Z</time>
      </trkpt>
      <trkpt lat="44.47079" lon="1.01837">
        <ele>126.777992</ele>
        <time>2019-08-17T13:08:40Z</time>
      </trkpt>
      <trkpt lat="44.47078" lon="1.01843">
        <ele>126.777992</ele>
        <time>2019-08-17T13:08:41Z</time>
      </trkpt>
      <trkpt lat="44.47077" lon="1.01849">
        <ele>127.237633</ele>
        <time>2019-08-17T13:08:42Z</time>
      </trkpt>
      <trkpt lat="44.47076" lon="1.01855">
        <ele>127.696404</ele>
        <time>2019-08-17T13:08:43Z</time>
      </trkpt>
      <trkpt lat="44.47075" lon="1.01862">
        <ele>127.696404</ele>
        <time>2019-08-17T13:08:44Z</time>
      </trkpt>
      <trkpt lat="44.47075" lon="1.01868">
        <ele>128.220261</ele>
        <time>2019-08-17T13:08:45Z</time>
      </trkpt>
      <trkpt lat="44.47075" lon="1.01875">
        <ele>128.74205</ele>
        <time>2019-08-17T13:08:46Z</time>
      </trkpt>
      <trkpt lat="44.47074" lon="1.01881">
        <ele>128.74205</ele>
        <time>2019-08-17T13:08:47Z</time>
      </trkpt>
      <trkpt lat="44.47073" lon="1.01888">
        <ele>129.330872</ele>
        <time>2019-08-17T13:08:48Z</time>
      </trkpt>
      <trkpt lat="44.47073" lon="1.01894">
        <ele>129.855423</ele>
        <time>2019-08-17T13:08:49Z</time>
      </trkpt>
      <trkpt lat="44.47073" lon="1.019">
        <ele>130.444473</ele>
        <time>2019-08-17T13:08:50Z</time>
      </trkpt>
      <trkpt lat="44.47073" lon="1.01907">
        <ele>130.444473</ele>
        <time>2019-08-17T13:08:51Z</time>
      </trkpt>
      <trkpt lat="44.47073" lon="1.01913">
        <ele>131.030197</ele>
        <time>2019-08-17T13:08:52Z</time>
      </trkpt>
      <trkpt lat="44.47073" lon="1.01919">
        <ele>131.546127</ele>
        <time>2019-08-17T13:08:53Z</time>
      </trkpt>
      <trkpt lat="44.47073" lon="1.01925">
        <ele>132.09523</ele>
        <time>2019-08-17T13:08:54Z</time>
      </trkpt>
      <trkpt lat="44.47072" lon="1.0193">
        <ele>132.09523</ele>
        <time>2019-08-17T13:08:55Z</time>
      </trkpt>
      <trkpt lat="44.47072" lon="1.01933">
        <ele>132.55188</ele>
        <time>2019-08-17T13:08:56Z</time>
      </trkpt>
      <trkpt lat="44.47069" lon="1.01936">
        <ele>132.975571</ele>
        <time>2019-08-17T13:08:57Z</time>
      </trkpt>
      <trkpt lat="44.47067" lon="1.01937">
        <ele>133.33786</ele>
        <time>2019-08-17T13:08:58Z</time>
      </trkpt>
      <trkpt lat="44.47065" lon="1.01937">
        <ele>133.33786</ele>
        <time>2019-08-17T13:08:59Z</time>
      </trkpt>
      <trkpt lat="44.47062" lon="1.01935">
        <ele>133.677292</ele>
        <time>2019-08-17T13:09:00Z</time>
      </trkpt>
      <trkpt lat="44.47061" lon="1.01932">
        <ele>134.002411</ele>
        <time>2019-08-17T13:09:01Z</time>
      </trkpt>
      <trkpt lat="44.4706" lon="1.01928">
        <ele>134.311371</ele>
        <time>2019-08-17T13:09:02Z</time>
      </trkpt>
      <trkpt lat="44.47058" lon="1.01925">
        <ele>134.602661</ele>
        <time>2019-08-17T13:09:03Z</time>
      </trkpt>
      <trkpt lat="44.47057" lon="1.01922">
        <ele>134.860046</ele>
        <time>2019-08-17T13:09:04Z</time>
      </trkpt>
      <trkpt lat="44.47055" lon="1.01918">
        <ele>135.04953</ele>
        <time>2019-08-17T13:09:05Z</time>
      </trkpt>
      <trkpt lat="44.47054" lon="1.01915">
        <ele>135.04953</ele>
        <time>2019-08-17T13:09:06Z</time>
      </trkpt>
      <trkpt lat="44.47053" lon="1.01912">
        <ele>135.209274</ele>
        <time>2019-08-17T13:09:07Z</time>
      </trkpt>
      <trkpt lat="44.47052" lon="1.01908">
        <ele>135.326675</ele>
        <time>2019-08-17T13:09:08Z</time>
      </trkpt>
      <trkpt lat="44.47051" lon="1.01905">
        <ele>135.355484</ele>
        <time>2019-08-17T13:09:09Z</time>
      </trkpt>
      <trkpt lat="44.47049" lon="1.01902">
        <ele>135.361328</ele>
        <time>2019-08-17T13:09:10Z</time>
      </trkpt>
      <trkpt lat="44.47048" lon="1.019">
        <ele>135.375015</ele>
        <time>2019-08-17T13:09:11Z</time>
      </trkpt>
      <trkpt lat="44.47046" lon="1.01897">
        <ele>135.392044</ele>
        <time>2019-08-17T13:09:12Z</time>
      </trkpt>
      <trkpt lat="44.47044" lon="1.01896">
        <ele>135.407959</ele>
        <time>2019-08-17T13:09:13Z</time>
      </trkpt>
      <trkpt lat="44.47042" lon="1.01894">
        <ele>135.423721</ele>
        <time>2019-08-17T13:09:14Z</time>
      </trkpt>
      <trkpt lat="44.4704" lon="1.01892">
        <ele>135.447052</ele>
        <time>2019-08-17T13:09:15Z</time>
      </trkpt>
      <trkpt lat="44.47038" lon="1.0189">
        <ele>135.487885</ele>
        <time>2019-08-17T13:09:16Z</time>
      </trkpt>
      <trkpt lat="44.47036" lon="1.01889">
        <ele>135.546524</ele>
        <time>2019-08-17T13:09:17Z</time>
      </trkpt>
      <trkpt lat="44.47033" lon="1.01887">
        <ele>135.630508</ele>
        <time>2019-08-17T13:09:18Z</time>
      </trkpt>
      <trkpt lat="44.47031" lon="1.01885">
        <ele>135.734604</ele>
        <time>2019-08-17T13:09:19Z</time>
      </trkpt>
      <trkpt lat="44.47029" lon="1.01884">
        <ele>135.852722</ele>
        <time>2019-08-17T13:09:20Z</time>
      </trkpt>
      <trkpt lat="44.47027" lon="1.01882">
        <ele>135.985367</ele>
        <time>2019-08-17T13:09:21Z</time>
      </trkpt>
      <trkpt lat="44.47026" lon="1.0188">
        <ele>135.985367</ele>
        <time>2019-08-17T13:09:22Z</time>
      </trkpt>
      <trkpt lat="44.47024" lon="1.01879">
        <ele>136.11644</ele>
        <time>2019-08-17T13:09:23Z</time>
      </trkpt>
      <trkpt lat="44.47022" lon="1.01877">
        <ele>136.246017</ele>
        <time>2019-08-17T13:09:24Z</time>
      </trkpt>
      <trkpt lat="44.4702" lon="1.01875">
        <ele>136.392319</ele>
        <time>2019-08-17T13:09:25Z</time>
      </trkpt>
      <trkpt lat="44.47018" lon="1.01874">
        <ele>136.536682</ele>
        <time>2019-08-17T13:09:26Z</time>
      </trkpt>
      <trkpt lat="44.47016" lon="1.01872">
        <ele>136.675064</ele>
        <time>2019-08-17T13:09:27Z</time>
      </trkpt>
      <trkpt lat="44.47014" lon="1.01871">
        <ele>136.80809</ele>
        <time>2019-08-17T13:09:28Z</time>
      </trkpt>
      <trkpt lat="44.47012" lon="1.01869">
        <ele>136.939926</ele>
        <time>2019-08-17T13:09:29Z</time>
      </trkpt>
      <trkpt lat="44.4701" lon="1.01868">
        <ele>137.06958</ele>
        <time>2019-08-17T13:09:30Z</time>
      </trkpt>
      <trkpt lat="44.47008" lon="1.01867">
        <ele>137.182129</ele>
        <time>2019-08-17T13:09:31Z</time>
      </trkpt>
      <trkpt lat="44.47006" lon="1.01865">
        <ele>137.299362</ele>
        <time>2019-08-17T13:09:32Z</time>
      </trkpt>
      <trkpt lat="44.47004" lon="1.01864">
        <ele>137.417175</ele>
        <time>2019-08-17T13:09:33Z</time>
      </trkpt>
      <trkpt lat="44.47002" lon="1.01863">
        <ele>137.538376</ele>
        <time>2019-08-17T13:09:34Z</time>
      </trkpt>
      <trkpt lat="44.46999" lon="1.01862">
        <ele>137.658279</ele>
        <time>2019-08-17T13:09:35Z</time>
      </trkpt>
      <trkpt lat="44.46997" lon="1.01861">
        <ele>137.784363</ele>
        <time>2019-08-17T13:09:36Z</time>
      </trkpt>
      <trkpt lat="44.46995" lon="1.0186">
        <ele>137.916153</ele>
        <time>2019-08-17T13:09:37Z</time>
      </trkpt>
      <trkpt lat="44.46993" lon="1.0186">
        <ele>138.056381</ele>
        <time>2019-08-17T13:09:38Z</time>
      </trkpt>
      <trkpt lat="44.46991" lon="1.0186">
        <ele>138.201355</ele>
        <time>2019-08-17T13:09:39Z</time>
      </trkpt>
      <trkpt lat="44.46989" lon="1.0186">
        <ele>138.350204</ele>
        <time>2019-08-17T13:09:40Z</time>
      </trkpt>
      <trkpt lat="44.46987" lon="1.01861">
        <ele>138.512039</ele>
        <time>2019-08-17T13:09:41Z</time>
      </trkpt>
      <trkpt lat="44.46985" lon="1.01862">
        <ele>138.688858</ele>
        <time>2019-08-17T13:09:42Z</time>
      </trkpt>
      <trkpt lat="44.46983" lon="1.01863">
        <ele>138.8414</ele>
        <time>2019-08-17T13:09:43Z</time>
      </trkpt>
      <trkpt lat="44.46982" lon="1.01864">
        <ele>138.966629</ele>
        <time>2019-08-17T13:09:44Z</time>
      </trkpt>
      <trkpt lat="44.4698" lon="1.01866">
        <ele>139.071609</ele>
        <time>2019-08-17T13:09:45Z</time>
      </trkpt>
      <trkpt lat="44.46978" lon="1.01868">
        <ele>139.159241</ele>
        <time>2019-08-17T13:09:46Z</time>
      </trkpt>
      <trkpt lat="44.46977" lon="1.0187">
        <ele>139.225113</ele>
        <time>2019-08-17T13:09:47Z</time>
      </trkpt>
      <trkpt lat="44.46976" lon="1.01872">
        <ele>139.266556</ele>
        <time>2019-08-17T13:09:48Z</time>
      </trkpt>
      <trkpt lat="44.46974" lon="1.01875">
        <ele>139.32225</ele>
        <time>2019-08-17T13:09:49Z</time>
      </trkpt>
      <trkpt lat="44.46973" lon="1.01878">
        <ele>139.398758</ele>
        <time>2019-08-17T13:09:50Z</time>
      </trkpt>
      <trkpt lat="44.46972" lon="1.01881">
        <ele>139.49794</ele>
        <time>2019-08-17T13:09:51Z</time>
      </trkpt>
      <trkpt lat="44.46972" lon="1.01884">
        <ele>139.61853</ele>
        <time>2019-08-17T13:09:52Z</time>
      </trkpt>
      <trkpt lat="44.4697" lon="1.01887">
        <ele>139.759735</ele>
        <time>2019-08-17T13:09:53Z</time>
      </trkpt>
      <trkpt lat="44.4697" lon="1.0189">
        <ele>139.920364</ele>
        <time>2019-08-17T13:09:54Z</time>
      </trkpt>
      <trkpt lat="44.46969" lon="1.01893">
        <ele>140.101456</ele>
        <time>2019-08-17T13:09:55Z</time>
      </trkpt>
      <trkpt lat="44.46969" lon="1.01896">
        <ele>140.296631</ele>
        <time>2019-08-17T13:09:56Z</time>
      </trkpt>
      <trkpt lat="44.46968" lon="1.01899">
        <ele>140.296631</ele>
        <time>2019-08-17T13:09:57Z</time>
      </trkpt>
      <trkpt lat="44.46967" lon="1.01902">
        <ele>140.501007</ele>
        <time>2019-08-17T13:09:58Z</time>
      </trkpt>
      <trkpt lat="44.46966" lon="1.01905">
        <ele>140.710266</ele>
        <time>2019-08-17T13:09:59Z</time>
      </trkpt>
      <trkpt lat="44.46965" lon="1.01908">
        <ele>140.966919</ele>
        <time>2019-08-17T13:10:00Z</time>
      </trkpt>
      <trkpt lat="44.46964" lon="1.01911">
        <ele>141.23645</ele>
        <time>2019-08-17T13:10:01Z</time>
      </trkpt>
      <trkpt lat="44.46964" lon="1.01914">
        <ele>141.517746</ele>
        <time>2019-08-17T13:10:02Z</time>
      </trkpt>
      <trkpt lat="44.46962" lon="1.01917">
        <ele>141.810318</ele>
        <time>2019-08-17T13:10:03Z</time>
      </trkpt>
      <trkpt lat="44.46962" lon="1.0192">
        <ele>142.112244</ele>
        <time>2019-08-17T13:10:04Z</time>
      </trkpt>
      <trkpt lat="44.46961" lon="1.01923">
        <ele>142.42543</ele>
        <time>2019-08-17T13:10:05Z</time>
      </trkpt>
      <trkpt lat="44.46961" lon="1.01926">
        <ele>142.710953</ele>
        <time>2019-08-17T13:10:06Z</time>
      </trkpt>
      <trkpt lat="44.4696" lon="1.01929">
        <ele>143.00264</ele>
        <time>2019-08-17T13:10:07Z</time>
      </trkpt>
      <trkpt lat="44.4696" lon="1.01932">
        <ele>143.295959</ele>
        <time>2019-08-17T13:10:08Z</time>
      </trkpt>
      <trkpt lat="44.46959" lon="1.01936">
        <ele>143.591736</ele>
        <time>2019-08-17T13:10:09Z</time>
      </trkpt>
      <trkpt lat="44.46959" lon="1.01939">
        <ele>143.894638</ele>
        <time>2019-08-17T13:10:10Z</time>
      </trkpt>
      <trkpt lat="44.46958" lon="1.01942">
        <ele>144.200012</ele>
        <time>2019-08-17T13:10:11Z</time>
      </trkpt>
      <trkpt lat="44.46957" lon="1.01945">
        <ele>144.200012</ele>
        <time>2019-08-17T13:10:12Z</time>
      </trkpt>
      <trkpt lat="44.46957" lon="1.01948">
        <ele>144.510254</ele>
        <time>2019-08-17T13:10:13Z</time>
      </trkpt>
      <trkpt lat="44.46957" lon="1.01951">
        <ele>144.819061</ele>
        <time>2019-08-17T13:10:14Z</time>
      </trkpt>
      <trkpt lat="44.46956" lon="1.01954">
        <ele>145.183548</ele>
        <time>2019-08-17T13:10:15Z</time>
      </trkpt>
      <trkpt lat="44.46955" lon="1.01957">
        <ele>145.551682</ele>
        <time>2019-08-17T13:10:16Z</time>
      </trkpt>
      <trkpt lat="44.46955" lon="1.01961">
        <ele>145.924179</ele>
        <time>2019-08-17T13:10:17Z</time>
      </trkpt>
      <trkpt lat="44.46954" lon="1.01964">
        <ele>145.924179</ele>
        <time>2019-08-17T13:10:18Z</time>
      </trkpt>
      <trkpt lat="44.46953" lon="1.01966">
        <ele>146.298706</ele>
        <time>2019-08-17T13:10:19Z</time>
      </trkpt>
      <trkpt lat="44.46951" lon="1.01968">
        <ele>146.669449</ele>
        <time>2019-08-17T13:10:20Z</time>
      </trkpt>
      <trkpt lat="44.4695" lon="1.01971">
        <ele>147.103699</ele>
        <time>2019-08-17T13:10:21Z</time>
      </trkpt>
      <trkpt lat="44.46949" lon="1.01973">
        <ele>147.103699</ele>
        <time>2019-08-17T13:10:22Z</time>
      </trkpt>
      <trkpt lat="44.46948" lon="1.01975">
        <ele>147.476257</ele>
        <time>2019-08-17T13:10:23Z</time>
      </trkpt>
      <trkpt lat="44.46945" lon="1.01976">
        <ele>147.843735</ele>
        <time>2019-08-17T13:10:24Z</time>
      </trkpt>
      <trkpt lat="44.46943" lon="1.01975">
        <ele>147.843735</ele>
        <time>2019-08-17T13:10:25Z</time>
      </trkpt>
      <trkpt lat="44.46941" lon="1.01973">
        <ele>148.261826</ele>
        <time>2019-08-17T13:10:26Z</time>
      </trkpt>
      <trkpt lat="44.46939" lon="1.01971">
        <ele>148.637161</ele>
        <time>2019-08-17T13:10:27Z</time>
      </trkpt>
      <trkpt lat="44.46936" lon="1.01969">
        <ele>148.923828</ele>
        <time>2019-08-17T13:10:28Z</time>
      </trkpt>
      <trkpt lat="44.46935" lon="1.01966">
        <ele>149.059143</ele>
        <time>2019-08-17T13:10:29Z</time>
      </trkpt>
      <trkpt lat="44.46932" lon="1.01964">
        <ele>149.108749</ele>
        <time>2019-08-17T13:10:30Z</time>
      </trkpt>
      <trkpt lat="44.4693" lon="1.01963">
        <ele>149.108749</ele>
        <time>2019-08-17T13:10:31Z</time>
      </trkpt>
      <trkpt lat="44.46927" lon="1.01961">
        <ele>149.108749</ele>
        <time>2019-08-17T13:10:32Z</time>
      </trkpt>
      <trkpt lat="44.46925" lon="1.0196">
        <ele>149.077225</ele>
        <time>2019-08-17T13:10:33Z</time>
      </trkpt>
      <trkpt lat="44.46922" lon="1.01959">
        <ele>148.91217</ele>
        <time>2019-08-17T13:10:34Z</time>
      </trkpt>
      <trkpt lat="44.4692" lon="1.01958">
        <ele>148.718094</ele>
        <time>2019-08-17T13:10:35Z</time>
      </trkpt>
      <trkpt lat="44.46917" lon="1.01957">
        <ele>148.539993</ele>
        <time>2019-08-17T13:10:36Z</time>
      </trkpt>
      <trkpt lat="44.46915" lon="1.01957">
        <ele>148.376343</ele>
        <time>2019-08-17T13:10:37Z</time>
      </trkpt>
      <trkpt lat="44.46913" lon="1.01957">
        <ele>148.229736</ele>
        <time>2019-08-17T13:10:38Z</time>
      </trkpt>
      <trkpt lat="44.46912" lon="1.01958">
        <ele>148.096924</ele>
        <time>2019-08-17T13:10:39Z</time>
      </trkpt>
      <trkpt lat="44.4691" lon="1.0196">
        <ele>147.999191</ele>
        <time>2019-08-17T13:10:40Z</time>
      </trkpt>
      <trkpt lat="44.46909" lon="1.01961">
        <ele>147.999191</ele>
        <time>2019-08-17T13:10:41Z</time>
      </trkpt>
      <trkpt lat="44.46907" lon="1.01963">
        <ele>147.968857</ele>
        <time>2019-08-17T13:10:42Z</time>
      </trkpt>
      <trkpt lat="44.46906" lon="1.01965">
        <ele>147.968857</ele>
        <time>2019-08-17T13:10:43Z</time>
      </trkpt>
      <trkpt lat="44.46905" lon="1.01967">
        <ele>147.968857</ele>
        <time>2019-08-17T13:10:44Z</time>
      </trkpt>
      <trkpt lat="44.46904" lon="1.01969">
        <ele>147.987869</ele>
        <time>2019-08-17T13:10:45Z</time>
      </trkpt>
      <trkpt lat="44.46903" lon="1.01971">
        <ele>147.987869</ele>
        <time>2019-08-17T13:10:46Z</time>
      </trkpt>
      <trkpt lat="44.46902" lon="1.01974">
        <ele>148.065186</ele>
        <time>2019-08-17T13:10:47Z</time>
      </trkpt>
      <trkpt lat="44.46901" lon="1.01976">
        <ele>148.207932</ele>
        <time>2019-08-17T13:10:48Z</time>
      </trkpt>
      <trkpt lat="44.46901" lon="1.01978">
        <ele>148.459396</ele>
        <time>2019-08-17T13:10:49Z</time>
      </trkpt>
      <trkpt lat="44.46899" lon="1.01981">
        <ele>148.459396</ele>
        <time>2019-08-17T13:10:50Z</time>
      </trkpt>
      <trkpt lat="44.46899" lon="1.01984">
        <ele>148.750656</ele>
        <time>2019-08-17T13:10:51Z</time>
      </trkpt>
      <trkpt lat="44.46899" lon="1.01987">
        <ele>149.038651</ele>
        <time>2019-08-17T13:10:52Z</time>
      </trkpt>
      <trkpt lat="44.46898" lon="1.01989">
        <ele>149.40715</ele>
        <time>2019-08-17T13:10:53Z</time>
      </trkpt>
      <trkpt lat="44.46897" lon="1.01992">
        <ele>149.804123</ele>
        <time>2019-08-17T13:10:54Z</time>
      </trkpt>
      <trkpt lat="44.46895" lon="1.01994">
        <ele>150.221191</ele>
        <time>2019-08-17T13:10:55Z</time>
      </trkpt>
      <trkpt lat="44.46895" lon="1.01996">
        <ele>150.601151</ele>
        <time>2019-08-17T13:10:56Z</time>
      </trkpt>
      <trkpt lat="44.46893" lon="1.01998">
        <ele>150.980789</ele>
        <time>2019-08-17T13:10:57Z</time>
      </trkpt>
      <trkpt lat="44.46893" lon="1.02">
        <ele>150.980789</ele>
        <time>2019-08-17T13:10:58Z</time>
      </trkpt>
      <trkpt lat="44.46892" lon="1.02003">
        <ele>151.360352</ele>
        <time>2019-08-17T13:10:59Z</time>
      </trkpt>
      <trkpt lat="44.46891" lon="1.02005">
        <ele>151.671875</ele>
        <time>2019-08-17T13:11:00Z</time>
      </trkpt>
      <trkpt lat="44.4689" lon="1.02008">
        <ele>152.009598</ele>
        <time>2019-08-17T13:11:01Z</time>
      </trkpt>
      <trkpt lat="44.46889" lon="1.02011">
        <ele>152.340256</ele>
        <time>2019-08-17T13:11:02Z</time>
      </trkpt>
      <trkpt lat="44.46888" lon="1.02013">
        <ele>152.67749</ele>
        <time>2019-08-17T13:11:03Z</time>
      </trkpt>
      <trkpt lat="44.46886" lon="1.02016">
        <ele>153.022385</ele>
        <time>2019-08-17T13:11:04Z</time>
      </trkpt>
      <trkpt lat="44.46886" lon="1.02019">
        <ele>153.374268</ele>
        <time>2019-08-17T13:11:05Z</time>
      </trkpt>
      <trkpt lat="44.46885" lon="1.02021">
        <ele>153.737137</ele>
        <time>2019-08-17T13:11:06Z</time>
      </trkpt>
      <trkpt lat="44.46884" lon="1.02024">
        <ele>154.064209</ele>
        <time>2019-08-17T13:11:07Z</time>
      </trkpt>
      <trkpt lat="44.46883" lon="1.02027">
        <ele>154.398193</ele>
        <time>2019-08-17T13:11:08Z</time>
      </trkpt>
      <trkpt lat="44.46882" lon="1.0203">
        <ele>154.73259</ele>
        <time>2019-08-17T13:11:09Z</time>
      </trkpt>
      <trkpt lat="44.46881" lon="1.02032">
        <ele>155.071045</ele>
        <time>2019-08-17T13:11:10Z</time>
      </trkpt>
      <trkpt lat="44.4688" lon="1.02034">
        <ele>155.417236</ele>
        <time>2019-08-17T13:11:11Z</time>
      </trkpt>
      <trkpt lat="44.46879" lon="1.02037">
        <ele>155.767502</ele>
        <time>2019-08-17T13:11:12Z</time>
      </trkpt>
      <trkpt lat="44.46878" lon="1.0204">
        <ele>156.106766</ele>
        <time>2019-08-17T13:11:13Z</time>
      </trkpt>
      <trkpt lat="44.46877" lon="1.02043">
        <ele>156.438309</ele>
        <time>2019-08-17T13:11:14Z</time>
      </trkpt>
      <trkpt lat="44.46875" lon="1.02045">
        <ele>156.438309</ele>
        <time>2019-08-17T13:11:15Z</time>
      </trkpt>
      <trkpt lat="44.46874" lon="1.02048">
        <ele>156.756729</ele>
        <time>2019-08-17T13:11:16Z</time>
      </trkpt>
      <trkpt lat="44.46873" lon="1.0205">
        <ele>157.051346</ele>
        <time>2019-08-17T13:11:17Z</time>
      </trkpt>
      <trkpt lat="44.46872" lon="1.02053">
        <ele>157.051346</ele>
        <time>2019-08-17T13:11:18Z</time>
      </trkpt>
      <trkpt lat="44.4687" lon="1.02055">
        <ele>157.352478</ele>
        <time>2019-08-17T13:11:19Z</time>
      </trkpt>
      <trkpt lat="44.46869" lon="1.02058">
        <ele>157.625122</ele>
        <time>2019-08-17T13:11:20Z</time>
      </trkpt>
      <trkpt lat="44.46867" lon="1.02061">
        <ele>157.912674</ele>
        <time>2019-08-17T13:11:21Z</time>
      </trkpt>
      <trkpt lat="44.46866" lon="1.02064">
        <ele>158.178604</ele>
        <time>2019-08-17T13:11:22Z</time>
      </trkpt>
      <trkpt lat="44.46865" lon="1.02067">
        <ele>158.432449</ele>
        <time>2019-08-17T13:11:23Z</time>
      </trkpt>
      <trkpt lat="44.46864" lon="1.02069">
        <ele>158.684311</ele>
        <time>2019-08-17T13:11:24Z</time>
      </trkpt>
      <trkpt lat="44.46862" lon="1.02071">
        <ele>158.90155</ele>
        <time>2019-08-17T13:11:25Z</time>
      </trkpt>
      <trkpt lat="44.46861" lon="1.02074">
        <ele>159.120209</ele>
        <time>2019-08-17T13:11:26Z</time>
      </trkpt>
      <trkpt lat="44.46859" lon="1.02077">
        <ele>159.304321</ele>
        <time>2019-08-17T13:11:27Z</time>
      </trkpt>
      <trkpt lat="44.46858" lon="1.0208">
        <ele>159.478485</ele>
        <time>2019-08-17T13:11:28Z</time>
      </trkpt>
      <trkpt lat="44.46858" lon="1.02082">
        <ele>159.640961</ele>
        <time>2019-08-17T13:11:29Z</time>
      </trkpt>
      <trkpt lat="44.46858" lon="1.02085">
        <ele>159.797836</ele>
        <time>2019-08-17T13:11:30Z</time>
      </trkpt>
      <trkpt lat="44.46858" lon="1.02088">
        <ele>159.954147</ele>
        <time>2019-08-17T13:11:31Z</time>
      </trkpt>
      <trkpt lat="44.46857" lon="1.02091">
        <ele>160.114044</ele>
        <time>2019-08-17T13:11:32Z</time>
      </trkpt>
      <trkpt lat="44.46856" lon="1.02094">
        <ele>160.28389</ele>
        <time>2019-08-17T13:11:33Z</time>
      </trkpt>
      <trkpt lat="44.46855" lon="1.02096">
        <ele>160.469681</ele>
        <time>2019-08-17T13:11:34Z</time>
      </trkpt>
      <trkpt lat="44.46855" lon="1.02099">
        <ele>160.660019</ele>
        <time>2019-08-17T13:11:35Z</time>
      </trkpt>
      <trkpt lat="44.46854" lon="1.02102">
        <ele>160.849197</ele>
        <time>2019-08-17T13:11:36Z</time>
      </trkpt>
      <trkpt lat="44.46853" lon="1.02105">
        <ele>161.037674</ele>
        <time>2019-08-17T13:11:37Z</time>
      </trkpt>
      <trkpt lat="44.46852" lon="1.02108">
        <ele>161.224915</ele>
        <time>2019-08-17T13:11:38Z</time>
      </trkpt>
      <trkpt lat="44.46851" lon="1.0211">
        <ele>161.40654</ele>
        <time>2019-08-17T13:11:39Z</time>
      </trkpt>
      <trkpt lat="44.4685" lon="1.02113">
        <ele>161.587814</ele>
        <time>2019-08-17T13:11:40Z</time>
      </trkpt>
      <trkpt lat="44.4685" lon="1.02116">
        <ele>161.773331</ele>
        <time>2019-08-17T13:11:41Z</time>
      </trkpt>
      <trkpt lat="44.46849" lon="1.02119">
        <ele>161.959091</ele>
        <time>2019-08-17T13:11:42Z</time>
      </trkpt>
      <trkpt lat="44.46848" lon="1.02123">
        <ele>162.143524</ele>
        <time>2019-08-17T13:11:43Z</time>
      </trkpt>
      <trkpt lat="44.46847" lon="1.02126">
        <ele>162.328522</ele>
        <time>2019-08-17T13:11:44Z</time>
      </trkpt>
      <trkpt lat="44.46846" lon="1.02129">
        <ele>162.520172</ele>
        <time>2019-08-17T13:11:45Z</time>
      </trkpt>
      <trkpt lat="44.46846" lon="1.02132">
        <ele>162.520172</ele>
        <time>2019-08-17T13:11:46Z</time>
      </trkpt>
      <trkpt lat="44.46845" lon="1.02135">
        <ele>162.70845</ele>
        <time>2019-08-17T13:11:47Z</time>
      </trkpt>
      <trkpt lat="44.46845" lon="1.02139">
        <ele>162.896347</ele>
        <time>2019-08-17T13:11:48Z</time>
      </trkpt>
      <trkpt lat="44.46845" lon="1.02142">
        <ele>163.119339</ele>
        <time>2019-08-17T13:11:49Z</time>
      </trkpt>
      <trkpt lat="44.46845" lon="1.02145">
        <ele>163.344208</ele>
        <time>2019-08-17T13:11:50Z</time>
      </trkpt>
      <trkpt lat="44.46845" lon="1.02149">
        <ele>163.567398</ele>
        <time>2019-08-17T13:11:51Z</time>
      </trkpt>
      <trkpt lat="44.46845" lon="1.02152">
        <ele>163.786057</ele>
        <time>2019-08-17T13:11:52Z</time>
      </trkpt>
      <trkpt lat="44.46846" lon="1.02156">
        <ele>164.004227</ele>
        <time>2019-08-17T13:11:53Z</time>
      </trkpt>
      <trkpt lat="44.46846" lon="1.02159">
        <ele>164.22261</ele>
        <time>2019-08-17T13:11:54Z</time>
      </trkpt>
      <trkpt lat="44.46846" lon="1.02162">
        <ele>164.408951</ele>
        <time>2019-08-17T13:11:55Z</time>
      </trkpt>
      <trkpt lat="44.46846" lon="1.02166">
        <ele>164.59227</ele>
        <time>2019-08-17T13:11:56Z</time>
      </trkpt>
      <trkpt lat="44.46846" lon="1.02169">
        <ele>164.775558</ele>
        <time>2019-08-17T13:11:57Z</time>
      </trkpt>
      <trkpt lat="44.46845" lon="1.02173">
        <ele>164.96106</ele>
        <time>2019-08-17T13:11:58Z</time>
      </trkpt>
      <trkpt lat="44.46845" lon="1.02177">
        <ele>165.144714</ele>
        <time>2019-08-17T13:11:59Z</time>
      </trkpt>
      <trkpt lat="44.46846" lon="1.0218">
        <ele>165.327393</ele>
        <time>2019-08-17T13:12:00Z</time>
      </trkpt>
      <trkpt lat="44.46846" lon="1.02183">
        <ele>165.514038</ele>
        <time>2019-08-17T13:12:01Z</time>
      </trkpt>
      <trkpt lat="44.46846" lon="1.02187">
        <ele>165.73378</ele>
        <time>2019-08-17T13:12:02Z</time>
      </trkpt>
      <trkpt lat="44.46845" lon="1.0219">
        <ele>165.979263</ele>
        <time>2019-08-17T13:12:03Z</time>
      </trkpt>
      <trkpt lat="44.46845" lon="1.02194">
        <ele>166.250305</ele>
        <time>2019-08-17T13:12:04Z</time>
      </trkpt>
      <trkpt lat="44.46846" lon="1.02197">
        <ele>166.250305</ele>
        <time>2019-08-17T13:12:05Z</time>
      </trkpt>
      <trkpt lat="44.46846" lon="1.022">
        <ele>166.549698</ele>
        <time>2019-08-17T13:12:06Z</time>
      </trkpt>
      <trkpt lat="44.46846" lon="1.02204">
        <ele>166.876602</ele>
        <time>2019-08-17T13:12:07Z</time>
      </trkpt>
      <trkpt lat="44.46847" lon="1.02207">
        <ele>167.282944</ele>
        <time>2019-08-17T13:12:08Z</time>
      </trkpt>
      <trkpt lat="44.46848" lon="1.02211">
        <ele>167.678513</ele>
        <time>2019-08-17T13:12:09Z</time>
      </trkpt>
      <trkpt lat="44.46849" lon="1.02216">
        <ele>168.074631</ele>
        <time>2019-08-17T13:12:10Z</time>
      </trkpt>
      <trkpt lat="44.46849" lon="1.0222">
        <ele>168.474442</ele>
        <time>2019-08-17T13:12:11Z</time>
      </trkpt>
      <trkpt lat="44.4685" lon="1.02225">
        <ele>168.886414</ele>
        <time>2019-08-17T13:12:12Z</time>
      </trkpt>
      <trkpt lat="44.46849" lon="1.02229">
        <ele>169.314941</ele>
        <time>2019-08-17T13:12:13Z</time>
      </trkpt>
      <trkpt lat="44.46848" lon="1.02234">
        <ele>169.702713</ele>
        <time>2019-08-17T13:12:14Z</time>
      </trkpt>
      <trkpt lat="44.46848" lon="1.02238">
        <ele>169.702713</ele>
        <time>2019-08-17T13:12:15Z</time>
      </trkpt>
      <trkpt lat="44.46847" lon="1.02242">
        <ele>170.116425</ele>
        <time>2019-08-17T13:12:16Z</time>
      </trkpt>
      <trkpt lat="44.46846" lon="1.02247">
        <ele>170.551407</ele>
        <time>2019-08-17T13:12:17Z</time>
      </trkpt>
      <trkpt lat="44.46845" lon="1.02251">
        <ele>171.066772</ele>
        <time>2019-08-17T13:12:18Z</time>
      </trkpt>
      <trkpt lat="44.46845" lon="1.02255">
        <ele>171.066772</ele>
        <time>2019-08-17T13:12:19Z</time>
      </trkpt>
      <trkpt lat="44.46845" lon="1.02259">
        <ele>171.583389</ele>
        <time>2019-08-17T13:12:20Z</time>
      </trkpt>
      <trkpt lat="44.46844" lon="1.02264">
        <ele>172.103745</ele>
        <time>2019-08-17T13:12:21Z</time>
      </trkpt>
      <trkpt lat="44.46843" lon="1.02268">
        <ele>172.704453</ele>
        <time>2019-08-17T13:12:22Z</time>
      </trkpt>
      <trkpt lat="44.46843" lon="1.02272">
        <ele>173.307724</ele>
        <time>2019-08-17T13:12:23Z</time>
      </trkpt>
      <trkpt lat="44.46843" lon="1.02277">
        <ele>173.910538</ele>
        <time>2019-08-17T13:12:24Z</time>
      </trkpt>
      <trkpt lat="44.46842" lon="1.02281">
        <ele>174.447098</ele>
        <time>2019-08-17T13:12:25Z</time>
      </trkpt>
      <trkpt lat="44.46841" lon="1.02285">
        <ele>174.988449</ele>
        <time>2019-08-17T13:12:26Z</time>
      </trkpt>
      <trkpt lat="44.4684" lon="1.02289">
        <ele>175.527344</ele>
        <time>2019-08-17T13:12:27Z</time>
      </trkpt>
      <trkpt lat="44.4684" lon="1.02293">
        <ele>175.983597</ele>
        <time>2019-08-17T13:12:28Z</time>
      </trkpt>
      <trkpt lat="44.46839" lon="1.02298">
        <ele>176.432312</ele>
        <time>2019-08-17T13:12:29Z</time>
      </trkpt>
      <trkpt lat="44.46838" lon="1.02302">
        <ele>176.873123</ele>
        <time>2019-08-17T13:12:30Z</time>
      </trkpt>
      <trkpt lat="44.46838" lon="1.02306">
        <ele>177.30603</ele>
        <time>2019-08-17T13:12:31Z</time>
      </trkpt>
      <trkpt lat="44.46838" lon="1.0231">
        <ele>177.730759</ele>
        <time>2019-08-17T13:12:32Z</time>
      </trkpt>
      <trkpt lat="44.46839" lon="1.02314">
        <ele>178.148361</ele>
        <time>2019-08-17T13:12:33Z</time>
      </trkpt>
      <trkpt lat="44.46839" lon="1.02318">
        <ele>178.568604</ele>
        <time>2019-08-17T13:12:34Z</time>
      </trkpt>
      <trkpt lat="44.46839" lon="1.02323">
        <ele>178.993484</ele>
        <time>2019-08-17T13:12:35Z</time>
      </trkpt>
      <trkpt lat="44.4684" lon="1.02327">
        <ele>179.410522</ele>
        <time>2019-08-17T13:12:36Z</time>
      </trkpt>
      <trkpt lat="44.4684" lon="1.02331">
        <ele>179.410522</ele>
        <time>2019-08-17T13:12:37Z</time>
      </trkpt>
      <trkpt lat="44.4684" lon="1.02335">
        <ele>179.817703</ele>
        <time>2019-08-17T13:12:38Z</time>
      </trkpt>
      <trkpt lat="44.46839" lon="1.02339">
        <ele>180.218094</ele>
        <time>2019-08-17T13:12:39Z</time>
      </trkpt>
      <trkpt lat="44.46838" lon="1.02343">
        <ele>180.670151</ele>
        <time>2019-08-17T13:12:40Z</time>
      </trkpt>
      <trkpt lat="44.46837" lon="1.02347">
        <ele>181.101318</ele>
        <time>2019-08-17T13:12:41Z</time>
      </trkpt>
      <trkpt lat="44.46836" lon="1.02351">
        <ele>181.50499</ele>
        <time>2019-08-17T13:12:42Z</time>
      </trkpt>
      <trkpt lat="44.46835" lon="1.02354">
        <ele>181.890625</ele>
        <time>2019-08-17T13:12:43Z</time>
      </trkpt>
      <trkpt lat="44.46833" lon="1.02357">
        <ele>182.257523</ele>
        <time>2019-08-17T13:12:44Z</time>
      </trkpt>
      <trkpt lat="44.4683" lon="1.02361">
        <ele>182.594482</ele>
        <time>2019-08-17T13:12:45Z</time>
      </trkpt>
      <trkpt lat="44.46829" lon="1.02364">
        <ele>182.838379</ele>
        <time>2019-08-17T13:12:46Z</time>
      </trkpt>
      <trkpt lat="44.46827" lon="1.02367">
        <ele>183.049454</ele>
        <time>2019-08-17T13:12:47Z</time>
      </trkpt>
      <trkpt lat="44.46825" lon="1.0237">
        <ele>183.226929</ele>
        <time>2019-08-17T13:12:48Z</time>
      </trkpt>
      <trkpt lat="44.46824" lon="1.02373">
        <ele>183.377609</ele>
        <time>2019-08-17T13:12:49Z</time>
      </trkpt>
      <trkpt lat="44.46823" lon="1.02377">
        <ele>183.501694</ele>
        <time>2019-08-17T13:12:50Z</time>
      </trkpt>
      <trkpt lat="44.46822" lon="1.0238">
        <ele>183.612808</ele>
        <time>2019-08-17T13:12:51Z</time>
      </trkpt>
      <trkpt lat="44.4682" lon="1.02384">
        <ele>183.612808</ele>
        <time>2019-08-17T13:12:52Z</time>
      </trkpt>
      <trkpt lat="44.46819" lon="1.02388">
        <ele>183.719681</ele>
        <time>2019-08-17T13:12:53Z</time>
      </trkpt>
      <trkpt lat="44.46818" lon="1.02392">
        <ele>183.826721</ele>
        <time>2019-08-17T13:12:54Z</time>
      </trkpt>
      <trkpt lat="44.46817" lon="1.02395">
        <ele>183.963882</ele>
        <time>2019-08-17T13:12:55Z</time>
      </trkpt>
      <trkpt lat="44.46817" lon="1.02399">
        <ele>184.10704</ele>
        <time>2019-08-17T13:12:56Z</time>
      </trkpt>
      <trkpt lat="44.46816" lon="1.02403">
        <ele>184.258545</ele>
        <time>2019-08-17T13:12:57Z</time>
      </trkpt>
      <trkpt lat="44.46815" lon="1.02407">
        <ele>184.414185</ele>
        <time>2019-08-17T13:12:58Z</time>
      </trkpt>
      <trkpt lat="44.46814" lon="1.0241">
        <ele>184.571854</ele>
        <time>2019-08-17T13:12:59Z</time>
      </trkpt>
      <trkpt lat="44.46813" lon="1.02414">
        <ele>184.734055</ele>
        <time>2019-08-17T13:13:00Z</time>
      </trkpt>
      <trkpt lat="44.46811" lon="1.02418">
        <ele>184.871582</ele>
        <time>2019-08-17T13:13:01Z</time>
      </trkpt>
      <trkpt lat="44.4681" lon="1.02422">
        <ele>185.009933</ele>
        <time>2019-08-17T13:13:02Z</time>
      </trkpt>
      <trkpt lat="44.46809" lon="1.02426">
        <ele>185.14534</ele>
        <time>2019-08-17T13:13:03Z</time>
      </trkpt>
      <trkpt lat="44.46808" lon="1.02429">
        <ele>185.275558</ele>
        <time>2019-08-17T13:13:04Z</time>
      </trkpt>
      <trkpt lat="44.46806" lon="1.02433">
        <ele>185.396805</ele>
        <time>2019-08-17T13:13:05Z</time>
      </trkpt>
      <trkpt lat="44.46805" lon="1.02436">
        <ele>185.512375</ele>
        <time>2019-08-17T13:13:06Z</time>
      </trkpt>
      <trkpt lat="44.46804" lon="1.0244">
        <ele>185.512375</ele>
        <time>2019-08-17T13:13:07Z</time>
      </trkpt>
      <trkpt lat="44.46802" lon="1.02444">
        <ele>185.625488</ele>
        <time>2019-08-17T13:13:08Z</time>
      </trkpt>
      <trkpt lat="44.46801" lon="1.02448">
        <ele>185.73259</ele>
        <time>2019-08-17T13:13:09Z</time>
      </trkpt>
      <trkpt lat="44.468" lon="1.02452">
        <ele>185.854324</ele>
        <time>2019-08-17T13:13:10Z</time>
      </trkpt>
      <trkpt lat="44.46799" lon="1.02456">
        <ele>185.977219</ele>
        <time>2019-08-17T13:13:11Z</time>
      </trkpt>
      <trkpt lat="44.46798" lon="1.0246">
        <ele>186.103516</ele>
        <time>2019-08-17T13:13:12Z</time>
      </trkpt>
      <trkpt lat="44.46796" lon="1.02464">
        <ele>186.214401</ele>
        <time>2019-08-17T13:13:13Z</time>
      </trkpt>
      <trkpt lat="44.46795" lon="1.02468">
        <ele>186.314621</ele>
        <time>2019-08-17T13:13:14Z</time>
      </trkpt>
      <trkpt lat="44.46794" lon="1.02472">
        <ele>186.402756</ele>
        <time>2019-08-17T13:13:15Z</time>
      </trkpt>
      <trkpt lat="44.46793" lon="1.02477">
        <ele>186.465591</ele>
        <time>2019-08-17T13:13:16Z</time>
      </trkpt>
      <trkpt lat="44.46793" lon="1.02482">
        <ele>186.519592</ele>
        <time>2019-08-17T13:13:17Z</time>
      </trkpt>
      <trkpt lat="44.46793" lon="1.02487">
        <ele>186.568771</ele>
        <time>2019-08-17T13:13:18Z</time>
      </trkpt>
      <trkpt lat="44.46794" lon="1.02492">
        <ele>186.635941</ele>
        <time>2019-08-17T13:13:19Z</time>
      </trkpt>
      <trkpt lat="44.46794" lon="1.02497">
        <ele>186.635941</ele>
        <time>2019-08-17T13:13:20Z</time>
      </trkpt>
      <trkpt lat="44.46794" lon="1.02502">
        <ele>186.726303</ele>
        <time>2019-08-17T13:13:21Z</time>
      </trkpt>
      <trkpt lat="44.46794" lon="1.02508">
        <ele>186.844971</ele>
        <time>2019-08-17T13:13:22Z</time>
      </trkpt>
      <trkpt lat="44.46794" lon="1.02513">
        <ele>187.024643</ele>
        <time>2019-08-17T13:13:23Z</time>
      </trkpt>
      <trkpt lat="44.46793" lon="1.02519">
        <ele>187.228134</ele>
        <time>2019-08-17T13:13:24Z</time>
      </trkpt>
      <trkpt lat="44.46791" lon="1.02524">
        <ele>187.451523</ele>
        <time>2019-08-17T13:13:25Z</time>
      </trkpt>
      <trkpt lat="44.46789" lon="1.02529">
        <ele>187.684082</ele>
        <time>2019-08-17T13:13:26Z</time>
      </trkpt>
      <trkpt lat="44.46787" lon="1.02534">
        <ele>187.684082</ele>
        <time>2019-08-17T13:13:27Z</time>
      </trkpt>
      <trkpt lat="44.46784" lon="1.02539">
        <ele>187.908798</ele>
        <time>2019-08-17T13:13:28Z</time>
      </trkpt>
      <trkpt lat="44.46781" lon="1.02544">
        <ele>188.108414</ele>
        <time>2019-08-17T13:13:29Z</time>
      </trkpt>
      <trkpt lat="44.46778" lon="1.02548">
        <ele>188.108414</ele>
        <time>2019-08-17T13:13:30Z</time>
      </trkpt>
      <trkpt lat="44.46775" lon="1.02553">
        <ele>188.257629</ele>
        <time>2019-08-17T13:13:31Z</time>
      </trkpt>
      <trkpt lat="44.46772" lon="1.02557">
        <ele>188.382339</ele>
        <time>2019-08-17T13:13:32Z</time>
      </trkpt>
      <trkpt lat="44.4677" lon="1.02562">
        <ele>188.382339</ele>
        <time>2019-08-17T13:13:33Z</time>
      </trkpt>
      <trkpt lat="44.46767" lon="1.02567">
        <ele>188.493149</ele>
        <time>2019-08-17T13:13:34Z</time>
      </trkpt>
      <trkpt lat="44.46765" lon="1.02572">
        <ele>188.586288</ele>
        <time>2019-08-17T13:13:35Z</time>
      </trkpt>
      <trkpt lat="44.46762" lon="1.02577">
        <ele>188.696655</ele>
        <time>2019-08-17T13:13:36Z</time>
      </trkpt>
      <trkpt lat="44.46759" lon="1.02582">
        <ele>188.826599</ele>
        <time>2019-08-17T13:13:37Z</time>
      </trkpt>
      <trkpt lat="44.46756" lon="1.02586">
        <ele>188.970779</ele>
        <time>2019-08-17T13:13:38Z</time>
      </trkpt>
      <trkpt lat="44.46754" lon="1.02591">
        <ele>188.970779</ele>
        <time>2019-08-17T13:13:39Z</time>
      </trkpt>
      <trkpt lat="44.46751" lon="1.02595">
        <ele>189.139389</ele>
        <time>2019-08-17T13:13:40Z</time>
      </trkpt>
      <trkpt lat="44.46748" lon="1.026">
        <ele>189.323746</ele>
        <time>2019-08-17T13:13:41Z</time>
      </trkpt>
      <trkpt lat="44.46745" lon="1.02603">
        <ele>189.562881</ele>
        <time>2019-08-17T13:13:42Z</time>
      </trkpt>
      <trkpt lat="44.46742" lon="1.02605">
        <ele>189.79747</ele>
        <time>2019-08-17T13:13:43Z</time>
      </trkpt>
      <trkpt lat="44.46738" lon="1.02607">
        <ele>189.79747</ele>
        <time>2019-08-17T13:13:44Z</time>
      </trkpt>
      <trkpt lat="44.46734" lon="1.02608">
        <ele>190.040649</ele>
        <time>2019-08-17T13:13:45Z</time>
      </trkpt>
      <trkpt lat="44.4673" lon="1.02608">
        <ele>190.285965</ele>
        <time>2019-08-17T13:13:46Z</time>
      </trkpt>
      <trkpt lat="44.46726" lon="1.02609">
        <ele>190.546158</ele>
        <time>2019-08-17T13:13:47Z</time>
      </trkpt>
      <trkpt lat="44.46723" lon="1.02611">
        <ele>190.790771</ele>
        <time>2019-08-17T13:13:48Z</time>
      </trkpt>
      <trkpt lat="44.46719" lon="1.02613">
        <ele>190.986404</ele>
        <time>2019-08-17T13:13:49Z</time>
      </trkpt>
      <trkpt lat="44.46716" lon="1.02615">
        <ele>191.170517</ele>
        <time>2019-08-17T13:13:50Z</time>
      </trkpt>
      <trkpt lat="44.46713" lon="1.02619">
        <ele>191.347275</ele>
        <time>2019-08-17T13:13:51Z</time>
      </trkpt>
      <trkpt lat="44.46709" lon="1.02623">
        <ele>191.524246</ele>
        <time>2019-08-17T13:13:52Z</time>
      </trkpt>
      <trkpt lat="44.46707" lon="1.02628">
        <ele>191.695663</ele>
        <time>2019-08-17T13:13:53Z</time>
      </trkpt>
      <trkpt lat="44.46705" lon="1.02633">
        <ele>191.890381</ele>
        <time>2019-08-17T13:13:54Z</time>
      </trkpt>
      <trkpt lat="44.46702" lon="1.02638">
        <ele>192.118958</ele>
        <time>2019-08-17T13:13:55Z</time>
      </trkpt>
      <trkpt lat="44.46699" lon="1.02643">
        <ele>192.382675</ele>
        <time>2019-08-17T13:13:56Z</time>
      </trkpt>
      <trkpt lat="44.46697" lon="1.02647">
        <ele>192.677536</ele>
        <time>2019-08-17T13:13:57Z</time>
      </trkpt>
      <trkpt lat="44.46694" lon="1.02652">
        <ele>192.996017</ele>
        <time>2019-08-17T13:13:58Z</time>
      </trkpt>
      <trkpt lat="44.46692" lon="1.02657">
        <ele>193.327637</ele>
        <time>2019-08-17T13:13:59Z</time>
      </trkpt>
      <trkpt lat="44.4669" lon="1.02662">
        <ele>193.669846</ele>
        <time>2019-08-17T13:14:00Z</time>
      </trkpt>
      <trkpt lat="44.46687" lon="1.02666">
        <ele>194.015701</ele>
        <time>2019-08-17T13:14:01Z</time>
      </trkpt>
      <trkpt lat="44.46685" lon="1.02671">
        <ele>194.35321</ele>
        <time>2019-08-17T13:14:02Z</time>
      </trkpt>
      <trkpt lat="44.46683" lon="1.02676">
        <ele>194.673584</ele>
        <time>2019-08-17T13:14:03Z</time>
      </trkpt>
      <trkpt lat="44.46681" lon="1.0268">
        <ele>194.973633</ele>
        <time>2019-08-17T13:14:04Z</time>
      </trkpt>
      <trkpt lat="44.46679" lon="1.02685">
        <ele>195.256241</ele>
        <time>2019-08-17T13:14:05Z</time>
      </trkpt>
      <trkpt lat="44.46677" lon="1.02689">
        <ele>195.522705</ele>
        <time>2019-08-17T13:14:06Z</time>
      </trkpt>
      <trkpt lat="44.46674" lon="1.02693">
        <ele>195.771866</ele>
        <time>2019-08-17T13:14:07Z</time>
      </trkpt>
      <trkpt lat="44.46672" lon="1.02697">
        <ele>195.771866</ele>
        <time>2019-08-17T13:14:08Z</time>
      </trkpt>
      <trkpt lat="44.46669" lon="1.02701">
        <ele>196.005371</ele>
        <time>2019-08-17T13:14:09Z</time>
      </trkpt>
      <trkpt lat="44.46667" lon="1.02705">
        <ele>196.22876</ele>
        <time>2019-08-17T13:14:10Z</time>
      </trkpt>
      <trkpt lat="44.46664" lon="1.02709">
        <ele>196.475449</ele>
        <time>2019-08-17T13:14:11Z</time>
      </trkpt>
      <trkpt lat="44.46661" lon="1.02714">
        <ele>196.711227</ele>
        <time>2019-08-17T13:14:12Z</time>
      </trkpt>
      <trkpt lat="44.46659" lon="1.02718">
        <ele>196.935776</ele>
        <time>2019-08-17T13:14:13Z</time>
      </trkpt>
      <trkpt lat="44.46656" lon="1.02722">
        <ele>197.148087</ele>
        <time>2019-08-17T13:14:14Z</time>
      </trkpt>
      <trkpt lat="44.46654" lon="1.02727">
        <ele>197.352921</ele>
        <time>2019-08-17T13:14:15Z</time>
      </trkpt>
      <trkpt lat="44.46651" lon="1.02732">
        <ele>197.551941</ele>
        <time>2019-08-17T13:14:16Z</time>
      </trkpt>
      <trkpt lat="44.46649" lon="1.02737">
        <ele>197.716995</ele>
        <time>2019-08-17T13:14:17Z</time>
      </trkpt>
      <trkpt lat="44.46647" lon="1.02741">
        <ele>197.856812</ele>
        <time>2019-08-17T13:14:18Z</time>
      </trkpt>
      <trkpt lat="44.46645" lon="1.02746">
        <ele>197.974014</ele>
        <time>2019-08-17T13:14:19Z</time>
      </trkpt>
      <trkpt lat="44.46642" lon="1.02751">
        <ele>197.974014</ele>
        <time>2019-08-17T13:14:20Z</time>
      </trkpt>
      <trkpt lat="44.4664" lon="1.02755">
        <ele>198.071579</ele>
        <time>2019-08-17T13:14:21Z</time>
      </trkpt>
      <trkpt lat="44.46638" lon="1.0276">
        <ele>198.152298</ele>
        <time>2019-08-17T13:14:22Z</time>
      </trkpt>
      <trkpt lat="44.46635" lon="1.02764">
        <ele>198.238113</ele>
        <time>2019-08-17T13:14:23Z</time>
      </trkpt>
      <trkpt lat="44.46633" lon="1.02769">
        <ele>198.314529</ele>
        <time>2019-08-17T13:14:24Z</time>
      </trkpt>
      <trkpt lat="44.46631" lon="1.02773">
        <ele>198.408035</ele>
        <time>2019-08-17T13:14:25Z</time>
      </trkpt>
      <trkpt lat="44.46628" lon="1.02778">
        <ele>198.517654</ele>
        <time>2019-08-17T13:14:26Z</time>
      </trkpt>
      <trkpt lat="44.46626" lon="1.02782">
        <ele>198.642319</ele>
        <time>2019-08-17T13:14:27Z</time>
      </trkpt>
      <trkpt lat="44.46623" lon="1.02786">
        <ele>198.780945</ele>
        <time>2019-08-17T13:14:28Z</time>
      </trkpt>
      <trkpt lat="44.46621" lon="1.0279">
        <ele>198.780945</ele>
        <time>2019-08-17T13:14:29Z</time>
      </trkpt>
      <trkpt lat="44.46618" lon="1.02794">
        <ele>198.912415</ele>
        <time>2019-08-17T13:14:30Z</time>
      </trkpt>
      <trkpt lat="44.46615" lon="1.02798">
        <ele>199.052612</ele>
        <time>2019-08-17T13:14:31Z</time>
      </trkpt>
      <trkpt lat="44.46612" lon="1.02801">
        <ele>199.230164</ele>
        <time>2019-08-17T13:14:32Z</time>
      </trkpt>
      <trkpt lat="44.46609" lon="1.02805">
        <ele>199.412582</ele>
        <time>2019-08-17T13:14:33Z</time>
      </trkpt>
      <trkpt lat="44.46606" lon="1.02808">
        <ele>199.600769</ele>
        <time>2019-08-17T13:14:34Z</time>
      </trkpt>
      <trkpt lat="44.46604" lon="1.02812">
        <ele>199.794296</ele>
        <time>2019-08-17T13:14:35Z</time>
      </trkpt>
      <trkpt lat="44.46602" lon="1.02817">
        <ele>199.993362</ele>
        <time>2019-08-17T13:14:36Z</time>
      </trkpt>
      <trkpt lat="44.46599" lon="1.02821">
        <ele>200.198441</ele>
        <time>2019-08-17T13:14:37Z</time>
      </trkpt>
      <trkpt lat="44.46597" lon="1.02825">
        <ele>200.38092</ele>
        <time>2019-08-17T13:14:38Z</time>
      </trkpt>
      <trkpt lat="44.46595" lon="1.0283">
        <ele>200.574448</ele>
        <time>2019-08-17T13:14:39Z</time>
      </trkpt>
      <trkpt lat="44.46593" lon="1.02834">
        <ele>200.779053</ele>
        <time>2019-08-17T13:14:40Z</time>
      </trkpt>
      <trkpt lat="44.4659" lon="1.02839">
        <ele>200.998703</ele>
        <time>2019-08-17T13:14:41Z</time>
      </trkpt>
      <trkpt lat="44.46589" lon="1.02843">
        <ele>201.229614</ele>
        <time>2019-08-17T13:14:42Z</time>
      </trkpt>
      <trkpt lat="44.46586" lon="1.02848">
        <ele>201.473343</ele>
        <time>2019-08-17T13:14:43Z</time>
      </trkpt>
      <trkpt lat="44.46584" lon="1.02852">
        <ele>201.731216</ele>
        <time>2019-08-17T13:14:44Z</time>
      </trkpt>
      <trkpt lat="44.46581" lon="1.02857">
        <ele>202.000992</ele>
        <time>2019-08-17T13:14:45Z</time>
      </trkpt>
      <trkpt lat="44.46579" lon="1.02861">
        <ele>202.285172</ele>
        <time>2019-08-17T13:14:46Z</time>
      </trkpt>
      <trkpt lat="44.46576" lon="1.02866">
        <ele>202.285172</ele>
        <time>2019-08-17T13:14:47Z</time>
      </trkpt>
      <trkpt lat="44.46574" lon="1.0287">
        <ele>202.579697</ele>
        <time>2019-08-17T13:14:48Z</time>
      </trkpt>
      <trkpt lat="44.46571" lon="1.02874">
        <ele>202.891739</ele>
        <time>2019-08-17T13:14:49Z</time>
      </trkpt>
      <trkpt lat="44.46568" lon="1.02878">
        <ele>203.311523</ele>
        <time>2019-08-17T13:14:50Z</time>
      </trkpt>
      <trkpt lat="44.46566" lon="1.02882">
        <ele>203.772461</ele>
        <time>2019-08-17T13:14:51Z</time>
      </trkpt>
      <trkpt lat="44.46563" lon="1.02886">
        <ele>204.275436</ele>
        <time>2019-08-17T13:14:52Z</time>
      </trkpt>
      <trkpt lat="44.46561" lon="1.02891">
        <ele>204.820358</ele>
        <time>2019-08-17T13:14:53Z</time>
      </trkpt>
      <trkpt lat="44.46559" lon="1.02895">
        <ele>205.39949</ele>
        <time>2019-08-17T13:14:54Z</time>
      </trkpt>
      <trkpt lat="44.46557" lon="1.02899">
        <ele>206.006165</ele>
        <time>2019-08-17T13:14:55Z</time>
      </trkpt>
      <trkpt lat="44.46554" lon="1.02903">
        <ele>206.541641</ele>
        <time>2019-08-17T13:14:56Z</time>
      </trkpt>
      <trkpt lat="44.46552" lon="1.02907">
        <ele>207.065262</ele>
        <time>2019-08-17T13:14:57Z</time>
      </trkpt>
      <trkpt lat="44.46549" lon="1.02911">
        <ele>207.579178</ele>
        <time>2019-08-17T13:14:58Z</time>
      </trkpt>
      <trkpt lat="44.46547" lon="1.02916">
        <ele>208.077744</ele>
        <time>2019-08-17T13:14:59Z</time>
      </trkpt>
      <trkpt lat="44.46544" lon="1.0292">
        <ele>208.573608</ele>
        <time>2019-08-17T13:15:00Z</time>
      </trkpt>
      <trkpt lat="44.46542" lon="1.02924">
        <ele>209.063919</ele>
        <time>2019-08-17T13:15:01Z</time>
      </trkpt>
      <trkpt lat="44.46539" lon="1.02928">
        <ele>209.556808</ele>
        <time>2019-08-17T13:15:02Z</time>
      </trkpt>
      <trkpt lat="44.46537" lon="1.02932">
        <ele>210.047974</ele>
        <time>2019-08-17T13:15:03Z</time>
      </trkpt>
      <trkpt lat="44.46535" lon="1.02936">
        <ele>210.534958</ele>
        <time>2019-08-17T13:15:04Z</time>
      </trkpt>
      <trkpt lat="44.46533" lon="1.0294">
        <ele>211.018875</ele>
        <time>2019-08-17T13:15:05Z</time>
      </trkpt>
      <trkpt lat="44.46531" lon="1.02944">
        <ele>211.491745</ele>
        <time>2019-08-17T13:15:06Z</time>
      </trkpt>
      <trkpt lat="44.46529" lon="1.02948">
        <ele>211.955765</ele>
        <time>2019-08-17T13:15:07Z</time>
      </trkpt>
      <trkpt lat="44.46527" lon="1.02953">
        <ele>212.400024</ele>
        <time>2019-08-17T13:15:08Z</time>
      </trkpt>
      <trkpt lat="44.46525" lon="1.02958">
        <ele>212.832458</ele>
        <time>2019-08-17T13:15:09Z</time>
      </trkpt>
      <trkpt lat="44.46523" lon="1.02962">
        <ele>213.25</ele>
        <time>2019-08-17T13:15:10Z</time>
      </trkpt>
      <trkpt lat="44.46521" lon="1.02966">
        <ele>213.658127</ele>
        <time>2019-08-17T13:15:11Z</time>
      </trkpt>
      <trkpt lat="44.46518" lon="1.02971">
        <ele>213.658127</ele>
        <time>2019-08-17T13:15:12Z</time>
      </trkpt>
      <trkpt lat="44.46517" lon="1.02975">
        <ele>214.057571</ele>
        <time>2019-08-17T13:15:13Z</time>
      </trkpt>
      <trkpt lat="44.46516" lon="1.0298">
        <ele>214.456558</ele>
        <time>2019-08-17T13:15:14Z</time>
      </trkpt>
      <trkpt lat="44.46514" lon="1.02985">
        <ele>214.917313</ele>
        <time>2019-08-17T13:15:15Z</time>
      </trkpt>
      <trkpt lat="44.46513" lon="1.0299">
        <ele>214.917313</ele>
        <time>2019-08-17T13:15:16Z</time>
      </trkpt>
      <trkpt lat="44.46511" lon="1.02995">
        <ele>215.370377</ele>
        <time>2019-08-17T13:15:17Z</time>
      </trkpt>
      <trkpt lat="44.4651" lon="1.03">
        <ele>215.812012</ele>
        <time>2019-08-17T13:15:18Z</time>
      </trkpt>
      <trkpt lat="44.46508" lon="1.03005">
        <ele>216.292297</ele>
        <time>2019-08-17T13:15:19Z</time>
      </trkpt>
      <trkpt lat="44.46507" lon="1.03011">
        <ele>216.759964</ele>
        <time>2019-08-17T13:15:20Z</time>
      </trkpt>
      <trkpt lat="44.46506" lon="1.03017">
        <ele>216.759964</ele>
        <time>2019-08-17T13:15:21Z</time>
      </trkpt>
      <trkpt lat="44.46505" lon="1.03023">
        <ele>217.189957</ele>
        <time>2019-08-17T13:15:22Z</time>
      </trkpt>
      <trkpt lat="44.46505" lon="1.03029">
        <ele>217.509354</ele>
        <time>2019-08-17T13:15:23Z</time>
      </trkpt>
      <trkpt lat="44.46504" lon="1.03036">
        <ele>217.799911</ele>
        <time>2019-08-17T13:15:24Z</time>
      </trkpt>
      <trkpt lat="44.46503" lon="1.03042">
        <ele>218.045837</ele>
        <time>2019-08-17T13:15:25Z</time>
      </trkpt>
      <trkpt lat="44.46502" lon="1.03049">
        <ele>218.191345</ele>
        <time>2019-08-17T13:15:26Z</time>
      </trkpt>
      <trkpt lat="44.46501" lon="1.03056">
        <ele>218.290939</ele>
        <time>2019-08-17T13:15:27Z</time>
      </trkpt>
      <trkpt lat="44.465" lon="1.03062">
        <ele>218.365799</ele>
        <time>2019-08-17T13:15:28Z</time>
      </trkpt>
      <trkpt lat="44.46499" lon="1.03068">
        <ele>218.438644</ele>
        <time>2019-08-17T13:15:29Z</time>
      </trkpt>
      <trkpt lat="44.46497" lon="1.03075">
        <ele>218.495193</ele>
        <time>2019-08-17T13:15:30Z</time>
      </trkpt>
      <trkpt lat="44.46496" lon="1.03081">
        <ele>218.559891</ele>
        <time>2019-08-17T13:15:31Z</time>
      </trkpt>
      <trkpt lat="44.46495" lon="1.03087">
        <ele>218.633667</ele>
        <time>2019-08-17T13:15:32Z</time>
      </trkpt>
      <trkpt lat="44.46494" lon="1.03093">
        <ele>218.71257</ele>
        <time>2019-08-17T13:15:33Z</time>
      </trkpt>
      <trkpt lat="44.46494" lon="1.031">
        <ele>218.71257</ele>
        <time>2019-08-17T13:15:34Z</time>
      </trkpt>
      <trkpt lat="44.46494" lon="1.03105">
        <ele>218.79158</ele>
        <time>2019-08-17T13:15:35Z</time>
      </trkpt>
      <trkpt lat="44.46494" lon="1.03111">
        <ele>218.862732</ele>
        <time>2019-08-17T13:15:36Z</time>
      </trkpt>
      <trkpt lat="44.46493" lon="1.03116">
        <ele>218.923264</ele>
        <time>2019-08-17T13:15:37Z</time>
      </trkpt>
      <trkpt lat="44.46492" lon="1.03121">
        <ele>218.970016</ele>
        <time>2019-08-17T13:15:38Z</time>
      </trkpt>
      <trkpt lat="44.46492" lon="1.03127">
        <ele>219.004395</ele>
        <time>2019-08-17T13:15:39Z</time>
      </trkpt>
      <trkpt lat="44.46492" lon="1.03132">
        <ele>219.028488</ele>
        <time>2019-08-17T13:15:40Z</time>
      </trkpt>
      <trkpt lat="44.46492" lon="1.03138">
        <ele>219.045975</ele>
        <time>2019-08-17T13:15:41Z</time>
      </trkpt>
      <trkpt lat="44.46492" lon="1.03144">
        <ele>219.054398</ele>
        <time>2019-08-17T13:15:42Z</time>
      </trkpt>
      <trkpt lat="44.46492" lon="1.0315">
        <ele>219.054398</ele>
        <time>2019-08-17T13:15:43Z</time>
      </trkpt>
      <trkpt lat="44.46492" lon="1.03156">
        <ele>219.054398</ele>
        <time>2019-08-17T13:15:44Z</time>
      </trkpt>
      <trkpt lat="44.46492" lon="1.03162">
        <ele>219.054398</ele>
        <time>2019-08-17T13:15:45Z</time>
      </trkpt>
      <trkpt lat="44.46492" lon="1.03168">
        <ele>219.054398</ele>
        <time>2019-08-17T13:15:46Z</time>
      </trkpt>
      <trkpt lat="44.46491" lon="1.03174">
        <ele>219.047409</ele>
        <time>2019-08-17T13:15:47Z</time>
      </trkpt>
      <trkpt lat="44.4649" lon="1.0318">
        <ele>219.047409</ele>
        <time>2019-08-17T13:15:48Z</time>
      </trkpt>
      <trkpt lat="44.46489" lon="1.03186">
        <ele>219.038803</ele>
        <time>2019-08-17T13:15:49Z</time>
      </trkpt>
      <trkpt lat="44.46486" lon="1.03191">
        <ele>219.03894</ele>
        <time>2019-08-17T13:15:50Z</time>
      </trkpt>
      <trkpt lat="44.46482" lon="1.03194">
        <ele>219.043823</ele>
        <time>2019-08-17T13:15:51Z</time>
      </trkpt>
      <trkpt lat="44.46479" lon="1.03198">
        <ele>219.045364</ele>
        <time>2019-08-17T13:15:52Z</time>
      </trkpt>
      <trkpt lat="44.46475" lon="1.032">
        <ele>219.045364</ele>
        <time>2019-08-17T13:15:53Z</time>
      </trkpt>
      <trkpt lat="44.46471" lon="1.03203">
        <ele>219.052856</ele>
        <time>2019-08-17T13:15:54Z</time>
      </trkpt>
      <trkpt lat="44.46468" lon="1.03206">
        <ele>219.082748</ele>
        <time>2019-08-17T13:15:55Z</time>
      </trkpt>
      <trkpt lat="44.46463" lon="1.03209">
        <ele>219.162033</ele>
        <time>2019-08-17T13:15:56Z</time>
      </trkpt>
      <trkpt lat="44.46459" lon="1.03212">
        <ele>219.278214</ele>
        <time>2019-08-17T13:15:57Z</time>
      </trkpt>
      <trkpt lat="44.46455" lon="1.03214">
        <ele>219.421127</ele>
        <time>2019-08-17T13:15:58Z</time>
      </trkpt>
      <trkpt lat="44.46452" lon="1.03217">
        <ele>219.576797</ele>
        <time>2019-08-17T13:15:59Z</time>
      </trkpt>
      <trkpt lat="44.46449" lon="1.03219">
        <ele>219.737915</ele>
        <time>2019-08-17T13:16:00Z</time>
      </trkpt>
      <trkpt lat="44.46446" lon="1.03221">
        <ele>219.898376</ele>
        <time>2019-08-17T13:16:01Z</time>
      </trkpt>
      <trkpt lat="44.46443" lon="1.03221">
        <ele>220.032883</ele>
        <time>2019-08-17T13:16:02Z</time>
      </trkpt>
      <trkpt lat="44.4644" lon="1.03222">
        <ele>220.158691</ele>
        <time>2019-08-17T13:16:03Z</time>
      </trkpt>
      <trkpt lat="44.46438" lon="1.03221">
        <ele>220.280594</ele>
        <time>2019-08-17T13:16:04Z</time>
      </trkpt>
      <trkpt lat="44.46435" lon="1.03218">
        <ele>220.399414</ele>
        <time>2019-08-17T13:16:05Z</time>
      </trkpt>
      <trkpt lat="44.46433" lon="1.03214">
        <ele>220.502762</ele>
        <time>2019-08-17T13:16:06Z</time>
      </trkpt>
      <trkpt lat="44.4643" lon="1.03209">
        <ele>220.586838</ele>
        <time>2019-08-17T13:16:07Z</time>
      </trkpt>
      <trkpt lat="44.46428" lon="1.03205">
        <ele>220.586838</ele>
        <time>2019-08-17T13:16:08Z</time>
      </trkpt>
      <trkpt lat="44.46425" lon="1.032">
        <ele>220.656982</ele>
        <time>2019-08-17T13:16:09Z</time>
      </trkpt>
      <trkpt lat="44.46422" lon="1.03195">
        <ele>220.719971</ele>
        <time>2019-08-17T13:16:10Z</time>
      </trkpt>
      <trkpt lat="44.4642" lon="1.0319">
        <ele>220.788498</ele>
        <time>2019-08-17T13:16:11Z</time>
      </trkpt>
      <trkpt lat="44.46416" lon="1.03184">
        <ele>220.848083</ele>
        <time>2019-08-17T13:16:12Z</time>
      </trkpt>
      <trkpt lat="44.46413" lon="1.03179">
        <ele>220.907913</ele>
        <time>2019-08-17T13:16:13Z</time>
      </trkpt>
      <trkpt lat="44.4641" lon="1.03174">
        <ele>220.973099</ele>
        <time>2019-08-17T13:16:14Z</time>
      </trkpt>
      <trkpt lat="44.46407" lon="1.03169">
        <ele>221.039063</ele>
        <time>2019-08-17T13:16:15Z</time>
      </trkpt>
      <trkpt lat="44.46404" lon="1.03165">
        <ele>221.100174</ele>
        <time>2019-08-17T13:16:16Z</time>
      </trkpt>
      <trkpt lat="44.46401" lon="1.0316">
        <ele>221.141922</ele>
        <time>2019-08-17T13:16:17Z</time>
      </trkpt>
      <trkpt lat="44.46397" lon="1.03155">
        <ele>221.176559</ele>
        <time>2019-08-17T13:16:18Z</time>
      </trkpt>
      <trkpt lat="44.46394" lon="1.0315">
        <ele>221.202957</ele>
        <time>2019-08-17T13:16:19Z</time>
      </trkpt>
      <trkpt lat="44.4639" lon="1.03145">
        <ele>221.219925</ele>
        <time>2019-08-17T13:16:20Z</time>
      </trkpt>
      <trkpt lat="44.46387" lon="1.0314">
        <ele>221.227066</ele>
        <time>2019-08-17T13:16:21Z</time>
      </trkpt>
      <trkpt lat="44.46384" lon="1.03134">
        <ele>221.227066</ele>
        <time>2019-08-17T13:16:22Z</time>
      </trkpt>
      <trkpt lat="44.4638" lon="1.03129">
        <ele>221.227066</ele>
        <time>2019-08-17T13:16:23Z</time>
      </trkpt>
      <trkpt lat="44.46376" lon="1.03124">
        <ele>221.227066</ele>
        <time>2019-08-17T13:16:24Z</time>
      </trkpt>
      <trkpt lat="44.46373" lon="1.03119">
        <ele>221.227478</ele>
        <time>2019-08-17T13:16:25Z</time>
      </trkpt>
      <trkpt lat="44.46369" lon="1.03113">
        <ele>221.225403</ele>
        <time>2019-08-17T13:16:26Z</time>
      </trkpt>
      <trkpt lat="44.46365" lon="1.03108">
        <ele>221.216202</ele>
        <time>2019-08-17T13:16:27Z</time>
      </trkpt>
      <trkpt lat="44.46362" lon="1.03103">
        <ele>221.205307</ele>
        <time>2019-08-17T13:16:28Z</time>
      </trkpt>
      <trkpt lat="44.46358" lon="1.03098">
        <ele>221.185776</ele>
        <time>2019-08-17T13:16:29Z</time>
      </trkpt>
      <trkpt lat="44.46354" lon="1.03093">
        <ele>221.15094</ele>
        <time>2019-08-17T13:16:30Z</time>
      </trkpt>
      <trkpt lat="44.46351" lon="1.03088">
        <ele>221.096741</ele>
        <time>2019-08-17T13:16:31Z</time>
      </trkpt>
      <trkpt lat="44.46347" lon="1.03082">
        <ele>221.024597</ele>
        <time>2019-08-17T13:16:32Z</time>
      </trkpt>
      <trkpt lat="44.46343" lon="1.03077">
        <ele>220.932419</ele>
        <time>2019-08-17T13:16:33Z</time>
      </trkpt>
      <trkpt lat="44.46339" lon="1.03072">
        <ele>220.816528</ele>
        <time>2019-08-17T13:16:34Z</time>
      </trkpt>
      <trkpt lat="44.46336" lon="1.03066">
        <ele>220.684708</ele>
        <time>2019-08-17T13:16:35Z</time>
      </trkpt>
      <trkpt lat="44.46332" lon="1.0306">
        <ele>220.543823</ele>
        <time>2019-08-17T13:16:36Z</time>
      </trkpt>
      <trkpt lat="44.46328" lon="1.03055">
        <ele>220.393677</ele>
        <time>2019-08-17T13:16:37Z</time>
      </trkpt>
      <trkpt lat="44.46325" lon="1.03049">
        <ele>220.393677</ele>
        <time>2019-08-17T13:16:38Z</time>
      </trkpt>
      <trkpt lat="44.46322" lon="1.03044">
        <ele>220.23436</ele>
        <time>2019-08-17T13:16:39Z</time>
      </trkpt>
      <trkpt lat="44.46318" lon="1.03038">
        <ele>220.056396</ele>
        <time>2019-08-17T13:16:40Z</time>
      </trkpt>
      <trkpt lat="44.46314" lon="1.03032">
        <ele>219.812241</ele>
        <time>2019-08-17T13:16:41Z</time>
      </trkpt>
      <trkpt lat="44.4631" lon="1.03027">
        <ele>219.548538</ele>
        <time>2019-08-17T13:16:42Z</time>
      </trkpt>
      <trkpt lat="44.46306" lon="1.0302">
        <ele>219.264771</ele>
        <time>2019-08-17T13:16:43Z</time>
      </trkpt>
      <trkpt lat="44.46303" lon="1.03014">
        <ele>218.954941</ele>
        <time>2019-08-17T13:16:44Z</time>
      </trkpt>
      <trkpt lat="44.46299" lon="1.03008">
        <ele>218.620911</ele>
        <time>2019-08-17T13:16:45Z</time>
      </trkpt>
      <trkpt lat="44.46296" lon="1.03001">
        <ele>218.273254</ele>
        <time>2019-08-17T13:16:46Z</time>
      </trkpt>
      <trkpt lat="44.46293" lon="1.02994">
        <ele>217.959473</ele>
        <time>2019-08-17T13:16:47Z</time>
      </trkpt>
      <trkpt lat="44.46289" lon="1.02987">
        <ele>217.632813</ele>
        <time>2019-08-17T13:16:48Z</time>
      </trkpt>
      <trkpt lat="44.46286" lon="1.02979">
        <ele>217.295547</ele>
        <time>2019-08-17T13:16:49Z</time>
      </trkpt>
      <trkpt lat="44.46283" lon="1.02971">
        <ele>216.966385</ele>
        <time>2019-08-17T13:16:50Z</time>
      </trkpt>
      <trkpt lat="44.4628" lon="1.02963">
        <ele>216.649292</ele>
        <time>2019-08-17T13:16:51Z</time>
      </trkpt>
      <trkpt lat="44.46276" lon="1.02955">
        <ele>216.348984</ele>
        <time>2019-08-17T13:16:52Z</time>
      </trkpt>
      <trkpt lat="44.46273" lon="1.02947">
        <ele>216.06572</ele>
        <time>2019-08-17T13:16:53Z</time>
      </trkpt>
      <trkpt lat="44.4627" lon="1.02938">
        <ele>216.06572</ele>
        <time>2019-08-17T13:16:54Z</time>
      </trkpt>
      <trkpt lat="44.46266" lon="1.02928">
        <ele>215.800797</ele>
        <time>2019-08-17T13:16:55Z</time>
      </trkpt>
      <trkpt lat="44.46262" lon="1.02918">
        <ele>215.553879</ele>
        <time>2019-08-17T13:16:56Z</time>
      </trkpt>
      <trkpt lat="44.46257" lon="1.02907">
        <ele>215.272705</ele>
        <time>2019-08-17T13:16:57Z</time>
      </trkpt>
      <trkpt lat="44.46253" lon="1.02897">
        <ele>214.987503</ele>
        <time>2019-08-17T13:16:58Z</time>
      </trkpt>
      <trkpt lat="44.46247" lon="1.02886">
        <ele>214.684494</ele>
        <time>2019-08-17T13:16:59Z</time>
      </trkpt>
      <trkpt lat="44.46242" lon="1.02875">
        <ele>214.360641</ele>
        <time>2019-08-17T13:17:00Z</time>
      </trkpt>
      <trkpt lat="44.46235" lon="1.02864">
        <ele>214.360641</ele>
        <time>2019-08-17T13:17:01Z</time>
      </trkpt>
      <trkpt lat="44.46229" lon="1.02853">
        <ele>214.016037</ele>
        <time>2019-08-17T13:17:02Z</time>
      </trkpt>
      <trkpt lat="44.46222" lon="1.02842">
        <ele>213.648575</ele>
        <time>2019-08-17T13:17:03Z</time>
      </trkpt>
      <trkpt lat="44.46216" lon="1.02831">
        <ele>213.648575</ele>
        <time>2019-08-17T13:17:04Z</time>
      </trkpt>
      <trkpt lat="44.46209" lon="1.0282">
        <ele>213.232483</ele>
        <time>2019-08-17T13:17:05Z</time>
      </trkpt>
      <trkpt lat="44.46202" lon="1.02809">
        <ele>212.717361</ele>
        <time>2019-08-17T13:17:06Z</time>
      </trkpt>
      <trkpt lat="44.46196" lon="1.02797">
        <ele>211.928528</ele>
        <time>2019-08-17T13:17:07Z</time>
      </trkpt>
      <trkpt lat="44.46189" lon="1.02785">
        <ele>211.03389</ele>
        <time>2019-08-17T13:17:08Z</time>
      </trkpt>
      <trkpt lat="44.46182" lon="1.02774">
        <ele>210.030014</ele>
        <time>2019-08-17T13:17:09Z</time>
      </trkpt>
      <trkpt lat="44.46175" lon="1.02764">
        <ele>210.030014</ele>
        <time>2019-08-17T13:17:10Z</time>
      </trkpt>
      <trkpt lat="44.46169" lon="1.02754">
        <ele>208.918625</ele>
        <time>2019-08-17T13:17:11Z</time>
      </trkpt>
      <trkpt lat="44.46164" lon="1.02745">
        <ele>207.774216</ele>
        <time>2019-08-17T13:17:12Z</time>
      </trkpt>
      <trkpt lat="44.46159" lon="1.02737">
        <ele>206.491333</ele>
        <time>2019-08-17T13:17:13Z</time>
      </trkpt>
      <trkpt lat="44.46155" lon="1.02731">
        <ele>205.420456</ele>
        <time>2019-08-17T13:17:14Z</time>
      </trkpt>
      <trkpt lat="44.46152" lon="1.02725">
        <ele>204.382568</ele>
        <time>2019-08-17T13:17:15Z</time>
      </trkpt>
      <trkpt lat="44.46148" lon="1.02721">
        <ele>203.37944</ele>
        <time>2019-08-17T13:17:16Z</time>
      </trkpt>
      <trkpt lat="44.46146" lon="1.02717">
        <ele>203.37944</ele>
        <time>2019-08-17T13:17:17Z</time>
      </trkpt>
      <trkpt lat="44.46144" lon="1.02715">
        <ele>202.430893</ele>
        <time>2019-08-17T13:17:18Z</time>
      </trkpt>
      <trkpt lat="44.46142" lon="1.02716">
        <ele>201.541748</ele>
        <time>2019-08-17T13:17:19Z</time>
      </trkpt>
      <trkpt lat="44.46141" lon="1.02718">
        <ele>200.872864</ele>
        <time>2019-08-17T13:17:20Z</time>
      </trkpt>
      <trkpt lat="44.46142" lon="1.02721">
        <ele>200.302002</ele>
        <time>2019-08-17T13:17:21Z</time>
      </trkpt>
      <trkpt lat="44.46144" lon="1.02723">
        <ele>200.302002</ele>
        <time>2019-08-17T13:17:22Z</time>
      </trkpt>
      <trkpt lat="44.46146" lon="1.02725">
        <ele>199.806396</ele>
        <time>2019-08-17T13:17:23Z</time>
      </trkpt>
      <trkpt lat="44.46149" lon="1.02727">
        <ele>199.460205</ele>
        <time>2019-08-17T13:17:24Z</time>
      </trkpt>
      <trkpt lat="44.46151" lon="1.0273">
        <ele>199.460205</ele>
        <time>2019-08-17T13:17:25Z</time>
      </trkpt>
      <trkpt lat="44.46154" lon="1.02734">
        <ele>199.359451</ele>
        <time>2019-08-17T13:17:26Z</time>
      </trkpt>
      <trkpt lat="44.46156" lon="1.02738">
        <ele>199.359451</ele>
        <time>2019-08-17T13:17:27Z</time>
      </trkpt>
      <trkpt lat="44.46159" lon="1.02743">
        <ele>199.359451</ele>
        <time>2019-08-17T13:17:28Z</time>
      </trkpt>
      <trkpt lat="44.46163" lon="1.02748">
        <ele>199.43013</ele>
        <time>2019-08-17T13:17:29Z</time>
      </trkpt>
      <trkpt lat="44.46167" lon="1.02753">
        <ele>199.637451</ele>
        <time>2019-08-17T13:17:30Z</time>
      </trkpt>
      <trkpt lat="44.46171" lon="1.02758">
        <ele>199.949265</ele>
        <time>2019-08-17T13:17:31Z</time>
      </trkpt>
      <trkpt lat="44.46175" lon="1.02763">
        <ele>200.423874</ele>
        <time>2019-08-17T13:17:32Z</time>
      </trkpt>
      <trkpt lat="44.46178" lon="1.02768">
        <ele>200.999466</ele>
        <time>2019-08-17T13:17:33Z</time>
      </trkpt>
      <trkpt lat="44.46181" lon="1.02772">
        <ele>201.519592</ele>
        <time>2019-08-17T13:17:34Z</time>
      </trkpt>
      <trkpt lat="44.46182" lon="1.02777">
        <ele>202.04866</ele>
        <time>2019-08-17T13:17:35Z</time>
      </trkpt>
      <trkpt lat="44.4618" lon="1.0278">
        <ele>202.572739</ele>
        <time>2019-08-17T13:17:36Z</time>
      </trkpt>
      <trkpt lat="44.46177" lon="1.0278">
        <ele>203.062622</ele>
        <time>2019-08-17T13:17:37Z</time>
      </trkpt>
      <trkpt lat="44.46174" lon="1.02778">
        <ele>203.410477</ele>
        <time>2019-08-17T13:17:38Z</time>
      </trkpt>
      <trkpt lat="44.4617" lon="1.02776">
        <ele>203.580612</ele>
        <time>2019-08-17T13:17:39Z</time>
      </trkpt>
      <trkpt lat="44.46166" lon="1.02772">
        <ele>203.609009</ele>
        <time>2019-08-17T13:17:40Z</time>
      </trkpt>
      <trkpt lat="44.46162" lon="1.02769">
        <ele>203.609009</ele>
        <time>2019-08-17T13:17:41Z</time>
      </trkpt>
      <trkpt lat="44.46158" lon="1.02768">
        <ele>203.609009</ele>
        <time>2019-08-17T13:17:42Z</time>
      </trkpt>
      <trkpt lat="44.46154" lon="1.02769">
        <ele>203.609009</ele>
        <time>2019-08-17T13:17:43Z</time>
      </trkpt>
      <trkpt lat="44.4615" lon="1.02772">
        <ele>203.362305</ele>
        <time>2019-08-17T13:17:44Z</time>
      </trkpt>
      <trkpt lat="44.46146" lon="1.02776">
        <ele>202.923706</ele>
        <time>2019-08-17T13:17:45Z</time>
      </trkpt>
      <trkpt lat="44.46141" lon="1.02779">
        <ele>202.326584</ele>
        <time>2019-08-17T13:17:46Z</time>
      </trkpt>
      <trkpt lat="44.46137" lon="1.02783">
        <ele>201.660889</ele>
        <time>2019-08-17T13:17:47Z</time>
      </trkpt>
      <trkpt lat="44.46132" lon="1.02786">
        <ele>200.940796</ele>
        <time>2019-08-17T13:17:48Z</time>
      </trkpt>
      <trkpt lat="44.46126" lon="1.02788">
        <ele>200.169571</ele>
        <time>2019-08-17T13:17:49Z</time>
      </trkpt>
      <trkpt lat="44.46121" lon="1.0279">
        <ele>199.465286</ele>
        <time>2019-08-17T13:17:50Z</time>
      </trkpt>
      <trkpt lat="44.46116" lon="1.02793">
        <ele>198.735519</ele>
        <time>2019-08-17T13:17:51Z</time>
      </trkpt>
      <trkpt lat="44.46112" lon="1.02797">
        <ele>197.96431</ele>
        <time>2019-08-17T13:17:52Z</time>
      </trkpt>
      <trkpt lat="44.46109" lon="1.02801">
        <ele>197.158371</ele>
        <time>2019-08-17T13:17:53Z</time>
      </trkpt>
      <trkpt lat="44.46105" lon="1.02803">
        <ele>196.33461</ele>
        <time>2019-08-17T13:17:54Z</time>
      </trkpt>
      <trkpt lat="44.46101" lon="1.02804">
        <ele>195.519638</ele>
        <time>2019-08-17T13:17:55Z</time>
      </trkpt>
      <trkpt lat="44.46098" lon="1.02803">
        <ele>194.7397</ele>
        <time>2019-08-17T13:17:56Z</time>
      </trkpt>
      <trkpt lat="44.46094" lon="1.02801">
        <ele>194.009811</ele>
        <time>2019-08-17T13:17:57Z</time>
      </trkpt>
      <trkpt lat="44.4609" lon="1.02799">
        <ele>194.009811</ele>
        <time>2019-08-17T13:17:58Z</time>
      </trkpt>
      <trkpt lat="44.46086" lon="1.02797">
        <ele>193.32341</ele>
        <time>2019-08-17T13:17:59Z</time>
      </trkpt>
      <trkpt lat="44.46081" lon="1.02794">
        <ele>192.668839</ele>
        <time>2019-08-17T13:18:00Z</time>
      </trkpt>
      <trkpt lat="44.46077" lon="1.02792">
        <ele>191.919556</ele>
        <time>2019-08-17T13:18:01Z</time>
      </trkpt>
      <trkpt lat="44.46072" lon="1.02789">
        <ele>191.167465</ele>
        <time>2019-08-17T13:18:02Z</time>
      </trkpt>
      <trkpt lat="44.46067" lon="1.02786">
        <ele>190.390137</ele>
        <time>2019-08-17T13:18:03Z</time>
      </trkpt>
      <trkpt lat="44.46063" lon="1.02782">
        <ele>189.576172</ele>
        <time>2019-08-17T13:18:04Z</time>
      </trkpt>
      <trkpt lat="44.46058" lon="1.02778">
        <ele>188.746078</ele>
        <time>2019-08-17T13:18:05Z</time>
      </trkpt>
      <trkpt lat="44.46054" lon="1.02775">
        <ele>187.913589</ele>
        <time>2019-08-17T13:18:06Z</time>
      </trkpt>
      <trkpt lat="44.46049" lon="1.02772">
        <ele>187.200516</ele>
        <time>2019-08-17T13:18:07Z</time>
      </trkpt>
      <trkpt lat="44.46044" lon="1.02768">
        <ele>186.489746</ele>
        <time>2019-08-17T13:18:08Z</time>
      </trkpt>
      <trkpt lat="44.4604" lon="1.02764">
        <ele>185.779007</ele>
        <time>2019-08-17T13:18:09Z</time>
      </trkpt>
      <trkpt lat="44.46035" lon="1.0276">
        <ele>185.086105</ele>
        <time>2019-08-17T13:18:10Z</time>
      </trkpt>
      <trkpt lat="44.4603" lon="1.02756">
        <ele>184.399414</ele>
        <time>2019-08-17T13:18:11Z</time>
      </trkpt>
      <trkpt lat="44.46026" lon="1.02752">
        <ele>183.71875</ele>
        <time>2019-08-17T13:18:12Z</time>
      </trkpt>
      <trkpt lat="44.46021" lon="1.02748">
        <ele>183.038895</ele>
        <time>2019-08-17T13:18:13Z</time>
      </trkpt>
      <trkpt lat="44.46017" lon="1.02745">
        <ele>182.349609</ele>
        <time>2019-08-17T13:18:14Z</time>
      </trkpt>
      <trkpt lat="44.46013" lon="1.02742">
        <ele>181.667648</ele>
        <time>2019-08-17T13:18:15Z</time>
      </trkpt>
      <trkpt lat="44.46009" lon="1.02739">
        <ele>181.667648</ele>
        <time>2019-08-17T13:18:16Z</time>
      </trkpt>
      <trkpt lat="44.46007" lon="1.02737">
        <ele>181.001877</ele>
        <time>2019-08-17T13:18:17Z</time>
      </trkpt>
      <trkpt lat="44.46005" lon="1.02735">
        <ele>180.35994</ele>
        <time>2019-08-17T13:18:18Z</time>
      </trkpt>
      <trkpt lat="44.46002" lon="1.02733">
        <ele>179.659348</ele>
        <time>2019-08-17T13:18:19Z</time>
      </trkpt>
      <trkpt lat="44.46" lon="1.02731">
        <ele>179.009598</ele>
        <time>2019-08-17T13:18:20Z</time>
      </trkpt>
      <trkpt lat="44.45999" lon="1.0273">
        <ele>178.427902</ele>
        <time>2019-08-17T13:18:21Z</time>
      </trkpt>
      <trkpt lat="44.45997" lon="1.02728">
        <ele>177.912033</ele>
        <time>2019-08-17T13:18:22Z</time>
      </trkpt>
      <trkpt lat="44.45997" lon="1.02726">
        <ele>177.452805</ele>
        <time>2019-08-17T13:18:23Z</time>
      </trkpt>
      <trkpt lat="44.45997" lon="1.02723">
        <ele>177.452805</ele>
        <time>2019-08-17T13:18:24Z</time>
      </trkpt>
      <trkpt lat="44.45998" lon="1.02722">
        <ele>177.04451</ele>
        <time>2019-08-17T13:18:25Z</time>
      </trkpt>
      <trkpt lat="44.46" lon="1.02719">
        <ele>176.810425</ele>
        <time>2019-08-17T13:18:26Z</time>
      </trkpt>
      <trkpt lat="44.46002" lon="1.02717">
        <ele>176.709396</ele>
        <time>2019-08-17T13:18:27Z</time>
      </trkpt>
      <trkpt lat="44.46005" lon="1.02714">
        <ele>176.709396</ele>
        <time>2019-08-17T13:18:28Z</time>
      </trkpt>
      <trkpt lat="44.46008" lon="1.02711">
        <ele>176.709396</ele>
        <time>2019-08-17T13:18:29Z</time>
      </trkpt>
      <trkpt lat="44.46009" lon="1.02707">
        <ele>176.750793</ele>
        <time>2019-08-17T13:18:30Z</time>
      </trkpt>
      <trkpt lat="44.46011" lon="1.02702">
        <ele>176.938187</ele>
        <time>2019-08-17T13:18:31Z</time>
      </trkpt>
      <trkpt lat="44.4601" lon="1.02698">
        <ele>177.280518</ele>
        <time>2019-08-17T13:18:32Z</time>
      </trkpt>
      <trkpt lat="44.46008" lon="1.02696">
        <ele>177.766922</ele>
        <time>2019-08-17T13:18:33Z</time>
      </trkpt>
      <trkpt lat="44.46005" lon="1.02694">
        <ele>178.330734</ele>
        <time>2019-08-17T13:18:34Z</time>
      </trkpt>
      <trkpt lat="44.46001" lon="1.02692">
        <ele>178.781693</ele>
        <time>2019-08-17T13:18:35Z</time>
      </trkpt>
      <trkpt lat="44.45995" lon="1.0269">
        <ele>179.055618</ele>
        <time>2019-08-17T13:18:36Z</time>
      </trkpt>
      <trkpt lat="44.4599" lon="1.0269">
        <ele>179.11145</ele>
        <time>2019-08-17T13:18:37Z</time>
      </trkpt>
      <trkpt lat="44.45984" lon="1.02689">
        <ele>179.11145</ele>
        <time>2019-08-17T13:18:38Z</time>
      </trkpt>
      <trkpt lat="44.45978" lon="1.02689">
        <ele>179.11145</ele>
        <time>2019-08-17T13:18:39Z</time>
      </trkpt>
      <trkpt lat="44.45972" lon="1.0269">
        <ele>178.913498</ele>
        <time>2019-08-17T13:18:40Z</time>
      </trkpt>
      <trkpt lat="44.45966" lon="1.0269">
        <ele>178.461304</ele>
        <time>2019-08-17T13:18:41Z</time>
      </trkpt>
      <trkpt lat="44.4596" lon="1.02691">
        <ele>177.759811</ele>
        <time>2019-08-17T13:18:42Z</time>
      </trkpt>
      <trkpt lat="44.45954" lon="1.0269">
        <ele>176.933838</ele>
        <time>2019-08-17T13:18:43Z</time>
      </trkpt>
      <trkpt lat="44.4595" lon="1.02687">
        <ele>176.028305</ele>
        <time>2019-08-17T13:18:44Z</time>
      </trkpt>
      <trkpt lat="44.45945" lon="1.02685">
        <ele>175.096207</ele>
        <time>2019-08-17T13:18:45Z</time>
      </trkpt>
      <trkpt lat="44.4594" lon="1.02683">
        <ele>174.223984</ele>
        <time>2019-08-17T13:18:46Z</time>
      </trkpt>
      <trkpt lat="44.45937" lon="1.0268">
        <ele>173.436569</ele>
        <time>2019-08-17T13:18:47Z</time>
      </trkpt>
      <trkpt lat="44.45933" lon="1.02677">
        <ele>172.747421</ele>
        <time>2019-08-17T13:18:48Z</time>
      </trkpt>
      <trkpt lat="44.4593" lon="1.02675">
        <ele>172.747421</ele>
        <time>2019-08-17T13:18:49Z</time>
      </trkpt>
      <trkpt lat="44.45926" lon="1.02673">
        <ele>172.170517</ele>
        <time>2019-08-17T13:18:50Z</time>
      </trkpt>
      <trkpt lat="44.45923" lon="1.02672">
        <ele>171.708694</ele>
        <time>2019-08-17T13:18:51Z</time>
      </trkpt>
      <trkpt lat="44.4592" lon="1.02671">
        <ele>171.288223</ele>
        <time>2019-08-17T13:18:52Z</time>
      </trkpt>
      <trkpt lat="44.45918" lon="1.02672">
        <ele>170.897629</ele>
        <time>2019-08-17T13:18:53Z</time>
      </trkpt>
      <trkpt lat="44.45917" lon="1.02675">
        <ele>170.520004</ele>
        <time>2019-08-17T13:18:54Z</time>
      </trkpt>
      <trkpt lat="44.45917" lon="1.02679">
        <ele>170.151413</ele>
        <time>2019-08-17T13:18:55Z</time>
      </trkpt>
      <trkpt lat="44.45916" lon="1.02684">
        <ele>169.785233</ele>
        <time>2019-08-17T13:18:56Z</time>
      </trkpt>
      <trkpt lat="44.45917" lon="1.02691">
        <ele>169.437195</ele>
        <time>2019-08-17T13:18:57Z</time>
      </trkpt>
      <trkpt lat="44.45918" lon="1.02698">
        <ele>169.177216</ele>
        <time>2019-08-17T13:18:58Z</time>
      </trkpt>
      <trkpt lat="44.45918" lon="1.02706">
        <ele>169.177216</ele>
        <time>2019-08-17T13:18:59Z</time>
      </trkpt>
      <trkpt lat="44.45918" lon="1.02713">
        <ele>168.94931</ele>
        <time>2019-08-17T13:19:00Z</time>
      </trkpt>
      <trkpt lat="44.45918" lon="1.02721">
        <ele>168.755539</ele>
        <time>2019-08-17T13:19:01Z</time>
      </trkpt>
      <trkpt lat="44.45918" lon="1.02729">
        <ele>168.755539</ele>
        <time>2019-08-17T13:19:02Z</time>
      </trkpt>
      <trkpt lat="44.45918" lon="1.02737">
        <ele>168.580078</ele>
        <time>2019-08-17T13:19:03Z</time>
      </trkpt>
      <trkpt lat="44.45918" lon="1.02744">
        <ele>168.432571</ele>
        <time>2019-08-17T13:19:04Z</time>
      </trkpt>
      <trkpt lat="44.45916" lon="1.02751">
        <ele>168.257065</ele>
        <time>2019-08-17T13:19:05Z</time>
      </trkpt>
      <trkpt lat="44.45916" lon="1.02757">
        <ele>168.065796</ele>
        <time>2019-08-17T13:19:06Z</time>
      </trkpt>
      <trkpt lat="44.45915" lon="1.02764">
        <ele>167.859558</ele>
        <time>2019-08-17T13:19:07Z</time>
      </trkpt>
      <trkpt lat="44.45914" lon="1.02769">
        <ele>167.859558</ele>
        <time>2019-08-17T13:19:08Z</time>
      </trkpt>
      <trkpt lat="44.45912" lon="1.02773">
        <ele>167.63385</ele>
        <time>2019-08-17T13:19:09Z</time>
      </trkpt>
      <trkpt lat="44.45911" lon="1.02776">
        <ele>167.408188</ele>
        <time>2019-08-17T13:19:10Z</time>
      </trkpt>
      <trkpt lat="44.4591" lon="1.02779">
        <ele>167.132462</ele>
        <time>2019-08-17T13:19:11Z</time>
      </trkpt>
      <trkpt lat="44.4591" lon="1.02781">
        <ele>167.132462</ele>
        <time>2019-08-17T13:19:12Z</time>
      </trkpt>
      <trkpt lat="44.4591" lon="1.02783">
        <ele>166.877213</ele>
        <time>2019-08-17T13:19:13Z</time>
      </trkpt>
      <trkpt lat="44.4591" lon="1.02785">
        <ele>166.6241</ele>
        <time>2019-08-17T13:19:14Z</time>
      </trkpt>
      <trkpt lat="44.4591" lon="1.02786">
        <ele>166.6241</ele>
        <time>2019-08-17T13:19:15Z</time>
      </trkpt>
      <trkpt lat="44.45912" lon="1.02786">
        <ele>166.368866</ele>
        <time>2019-08-17T13:19:16Z</time>
      </trkpt>
      <trkpt lat="44.45914" lon="1.02783">
        <ele>166.167801</ele>
        <time>2019-08-17T13:19:17Z</time>
      </trkpt>
      <trkpt lat="44.45915" lon="1.02779">
        <ele>166.038284</ele>
        <time>2019-08-17T13:19:18Z</time>
      </trkpt>
      <trkpt lat="44.45916" lon="1.02775">
        <ele>166.012436</ele>
        <time>2019-08-17T13:19:19Z</time>
      </trkpt>
      <trkpt lat="44.45916" lon="1.0277">
        <ele>166.012436</ele>
        <time>2019-08-17T13:19:20Z</time>
      </trkpt>
      <trkpt lat="44.45917" lon="1.02764">
        <ele>166.012436</ele>
        <time>2019-08-17T13:19:21Z</time>
      </trkpt>
      <trkpt lat="44.45918" lon="1.02759">
        <ele>166.053665</ele>
        <time>2019-08-17T13:19:22Z</time>
      </trkpt>
      <trkpt lat="44.45919" lon="1.02754">
        <ele>166.053665</ele>
        <time>2019-08-17T13:19:23Z</time>
      </trkpt>
      <trkpt lat="44.4592" lon="1.02749">
        <ele>166.151382</ele>
        <time>2019-08-17T13:19:24Z</time>
      </trkpt>
      <trkpt lat="44.45921" lon="1.02743">
        <ele>166.316696</ele>
        <time>2019-08-17T13:19:25Z</time>
      </trkpt>
      <trkpt lat="44.45922" lon="1.02737">
        <ele>166.540588</ele>
        <time>2019-08-17T13:19:26Z</time>
      </trkpt>
      <trkpt lat="44.45922" lon="1.02732">
        <ele>166.765701</ele>
        <time>2019-08-17T13:19:27Z</time>
      </trkpt>
      <trkpt lat="44.45922" lon="1.02727">
        <ele>166.765701</ele>
        <time>2019-08-17T13:19:28Z</time>
      </trkpt>
      <trkpt lat="44.45922" lon="1.02722">
        <ele>166.990173</ele>
        <time>2019-08-17T13:19:29Z</time>
      </trkpt>
      <trkpt lat="44.45922" lon="1.02718">
        <ele>167.218948</ele>
        <time>2019-08-17T13:19:30Z</time>
      </trkpt>
      <trkpt lat="44.45921" lon="1.02713">
        <ele>167.46373</ele>
        <time>2019-08-17T13:19:31Z</time>
      </trkpt>
      <trkpt lat="44.45921" lon="1.02707">
        <ele>167.46373</ele>
        <time>2019-08-17T13:19:32Z</time>
      </trkpt>
      <trkpt lat="44.45921" lon="1.02702">
        <ele>167.698532</ele>
        <time>2019-08-17T13:19:33Z</time>
      </trkpt>
      <trkpt lat="44.4592" lon="1.02698">
        <ele>167.87738</ele>
        <time>2019-08-17T13:19:34Z</time>
      </trkpt>
      <trkpt lat="44.4592" lon="1.02693">
        <ele>167.87738</ele>
        <time>2019-08-17T13:19:35Z</time>
      </trkpt>
      <trkpt lat="44.45919" lon="1.02689">
        <ele>168.048584</ele>
        <time>2019-08-17T13:19:36Z</time>
      </trkpt>
      <trkpt lat="44.45918" lon="1.02684">
        <ele>168.202637</ele>
        <time>2019-08-17T13:19:37Z</time>
      </trkpt>
      <trkpt lat="44.45917" lon="1.02679">
        <ele>168.352707</ele>
        <time>2019-08-17T13:19:38Z</time>
      </trkpt>
      <trkpt lat="44.45915" lon="1.02674">
        <ele>168.460709</ele>
        <time>2019-08-17T13:19:39Z</time>
      </trkpt>
      <trkpt lat="44.45914" lon="1.0267">
        <ele>168.536392</ele>
        <time>2019-08-17T13:19:40Z</time>
      </trkpt>
      <trkpt lat="44.45911" lon="1.02665">
        <ele>168.573196</ele>
        <time>2019-08-17T13:19:41Z</time>
      </trkpt>
      <trkpt lat="44.45909" lon="1.02662">
        <ele>168.573196</ele>
        <time>2019-08-17T13:19:42Z</time>
      </trkpt>
      <trkpt lat="44.45906" lon="1.02661">
        <ele>168.573196</ele>
        <time>2019-08-17T13:19:43Z</time>
      </trkpt>
      <trkpt lat="44.45904" lon="1.02663">
        <ele>168.550583</ele>
        <time>2019-08-17T13:19:44Z</time>
      </trkpt>
      <trkpt lat="44.45903" lon="1.02667">
        <ele>168.47435</ele>
        <time>2019-08-17T13:19:45Z</time>
      </trkpt>
      <trkpt lat="44.45904" lon="1.02672">
        <ele>168.317444</ele>
        <time>2019-08-17T13:19:46Z</time>
      </trkpt>
      <trkpt lat="44.45904" lon="1.02677">
        <ele>168.109543</ele>
        <time>2019-08-17T13:19:47Z</time>
      </trkpt>
      <trkpt lat="44.45904" lon="1.02683">
        <ele>168.109543</ele>
        <time>2019-08-17T13:19:48Z</time>
      </trkpt>
      <trkpt lat="44.45904" lon="1.02689">
        <ele>167.89447</ele>
        <time>2019-08-17T13:19:49Z</time>
      </trkpt>
      <trkpt lat="44.45903" lon="1.02693">
        <ele>167.698868</ele>
        <time>2019-08-17T13:19:50Z</time>
      </trkpt>
      <trkpt lat="44.45901" lon="1.02697">
        <ele>167.527512</ele>
        <time>2019-08-17T13:19:51Z</time>
      </trkpt>
      <trkpt lat="44.45897" lon="1.02699">
        <ele>167.381851</ele>
        <time>2019-08-17T13:19:52Z</time>
      </trkpt>
      <trkpt lat="44.45892" lon="1.027">
        <ele>167.261459</ele>
        <time>2019-08-17T13:19:53Z</time>
      </trkpt>
      <trkpt lat="44.45887" lon="1.027">
        <ele>167.15065</ele>
        <time>2019-08-17T13:19:54Z</time>
      </trkpt>
      <trkpt lat="44.45881" lon="1.027">
        <ele>166.997849</ele>
        <time>2019-08-17T13:19:55Z</time>
      </trkpt>
      <trkpt lat="44.45875" lon="1.027">
        <ele>166.836502</ele>
        <time>2019-08-17T13:19:56Z</time>
      </trkpt>
      <trkpt lat="44.45869" lon="1.027">
        <ele>166.711548</ele>
        <time>2019-08-17T13:19:57Z</time>
      </trkpt>
      <trkpt lat="44.45864" lon="1.027">
        <ele>166.626892</ele>
        <time>2019-08-17T13:19:58Z</time>
      </trkpt>
      <trkpt lat="44.4586" lon="1.02701">
        <ele>166.594559</ele>
        <time>2019-08-17T13:19:59Z</time>
      </trkpt>
      <trkpt lat="44.45857" lon="1.02705">
        <ele>166.594559</ele>
        <time>2019-08-17T13:20:00Z</time>
      </trkpt>
      <trkpt lat="44.45855" lon="1.0271">
        <ele>166.594559</ele>
        <time>2019-08-17T13:20:01Z</time>
      </trkpt>
      <trkpt lat="44.45855" lon="1.02716">
        <ele>166.594559</ele>
        <time>2019-08-17T13:20:02Z</time>
      </trkpt>
      <trkpt lat="44.45854" lon="1.02721">
        <ele>166.628876</ele>
        <time>2019-08-17T13:20:03Z</time>
      </trkpt>
      <trkpt lat="44.45853" lon="1.02728">
        <ele>166.75264</ele>
        <time>2019-08-17T13:20:04Z</time>
      </trkpt>
      <trkpt lat="44.45853" lon="1.02734">
        <ele>166.946411</ele>
        <time>2019-08-17T13:20:05Z</time>
      </trkpt>
      <trkpt lat="44.45855" lon="1.0274">
        <ele>167.137253</ele>
        <time>2019-08-17T13:20:06Z</time>
      </trkpt>
      <trkpt lat="44.45856" lon="1.02745">
        <ele>167.306351</ele>
        <time>2019-08-17T13:20:07Z</time>
      </trkpt>
      <trkpt lat="44.45858" lon="1.0275">
        <ele>167.306351</ele>
        <time>2019-08-17T13:20:08Z</time>
      </trkpt>
      <trkpt lat="44.4586" lon="1.02755">
        <ele>167.414001</ele>
        <time>2019-08-17T13:20:09Z</time>
      </trkpt>
      <trkpt lat="44.45862" lon="1.0276">
        <ele>167.478714</ele>
        <time>2019-08-17T13:20:10Z</time>
      </trkpt>
      <trkpt lat="44.45864" lon="1.02766">
        <ele>167.488693</ele>
        <time>2019-08-17T13:20:11Z</time>
      </trkpt>
      <trkpt lat="44.45866" lon="1.02772">
        <ele>167.488693</ele>
        <time>2019-08-17T13:20:12Z</time>
      </trkpt>
      <trkpt lat="44.45868" lon="1.02778">
        <ele>167.488693</ele>
        <time>2019-08-17T13:20:13Z</time>
      </trkpt>
      <trkpt lat="44.45871" lon="1.02785">
        <ele>167.406906</ele>
        <time>2019-08-17T13:20:14Z</time>
      </trkpt>
      <trkpt lat="44.45873" lon="1.02793">
        <ele>167.262222</ele>
        <time>2019-08-17T13:20:15Z</time>
      </trkpt>
      <trkpt lat="44.45875" lon="1.028">
        <ele>167.070847</ele>
        <time>2019-08-17T13:20:16Z</time>
      </trkpt>
      <trkpt lat="44.45877" lon="1.02807">
        <ele>166.866455</ele>
        <time>2019-08-17T13:20:17Z</time>
      </trkpt>
      <trkpt lat="44.45879" lon="1.02814">
        <ele>166.632614</ele>
        <time>2019-08-17T13:20:18Z</time>
      </trkpt>
      <trkpt lat="44.45881" lon="1.02822">
        <ele>166.632614</ele>
        <time>2019-08-17T13:20:19Z</time>
      </trkpt>
      <trkpt lat="44.45883" lon="1.02828">
        <ele>166.384476</ele>
        <time>2019-08-17T13:20:20Z</time>
      </trkpt>
      <trkpt lat="44.45885" lon="1.02835">
        <ele>166.125961</ele>
        <time>2019-08-17T13:20:21Z</time>
      </trkpt>
      <trkpt lat="44.45886" lon="1.02842">
        <ele>165.814255</ele>
        <time>2019-08-17T13:20:22Z</time>
      </trkpt>
      <trkpt lat="44.45887" lon="1.02849">
        <ele>165.496567</ele>
        <time>2019-08-17T13:20:23Z</time>
      </trkpt>
      <trkpt lat="44.45888" lon="1.02856">
        <ele>165.179871</ele>
        <time>2019-08-17T13:20:24Z</time>
      </trkpt>
      <trkpt lat="44.4589" lon="1.02863">
        <ele>165.179871</ele>
        <time>2019-08-17T13:20:25Z</time>
      </trkpt>
      <trkpt lat="44.4589" lon="1.02871">
        <ele>164.866318</ele>
        <time>2019-08-17T13:20:26Z</time>
      </trkpt>
      <trkpt lat="44.45891" lon="1.02878">
        <ele>164.555191</ele>
        <time>2019-08-17T13:20:27Z</time>
      </trkpt>
      <trkpt lat="44.45892" lon="1.02885">
        <ele>164.204742</ele>
        <time>2019-08-17T13:20:28Z</time>
      </trkpt>
      <trkpt lat="44.45892" lon="1.02893">
        <ele>163.902451</ele>
        <time>2019-08-17T13:20:29Z</time>
      </trkpt>
      <trkpt lat="44.45892" lon="1.029">
        <ele>163.613037</ele>
        <time>2019-08-17T13:20:30Z</time>
      </trkpt>
      <trkpt lat="44.45892" lon="1.02908">
        <ele>163.338303</ele>
        <time>2019-08-17T13:20:31Z</time>
      </trkpt>
      <trkpt lat="44.45892" lon="1.02915">
        <ele>163.081345</ele>
        <time>2019-08-17T13:20:32Z</time>
      </trkpt>
      <trkpt lat="44.45891" lon="1.02923">
        <ele>162.841141</ele>
        <time>2019-08-17T13:20:33Z</time>
      </trkpt>
      <trkpt lat="44.45891" lon="1.0293">
        <ele>162.664124</ele>
        <time>2019-08-17T13:20:34Z</time>
      </trkpt>
      <trkpt lat="44.45891" lon="1.02938">
        <ele>162.519165</ele>
        <time>2019-08-17T13:20:35Z</time>
      </trkpt>
      <trkpt lat="44.45891" lon="1.02944">
        <ele>162.405319</ele>
        <time>2019-08-17T13:20:36Z</time>
      </trkpt>
      <trkpt lat="44.45891" lon="1.02951">
        <ele>162.313843</ele>
        <time>2019-08-17T13:20:37Z</time>
      </trkpt>
      <trkpt lat="44.4589" lon="1.02958">
        <ele>162.313843</ele>
        <time>2019-08-17T13:20:38Z</time>
      </trkpt>
      <trkpt lat="44.4589" lon="1.02965">
        <ele>162.237625</ele>
        <time>2019-08-17T13:20:39Z</time>
      </trkpt>
      <trkpt lat="44.4589" lon="1.02971">
        <ele>162.172806</ele>
        <time>2019-08-17T13:20:40Z</time>
      </trkpt>
      <trkpt lat="44.4589" lon="1.02978">
        <ele>162.111877</ele>
        <time>2019-08-17T13:20:41Z</time>
      </trkpt>
      <trkpt lat="44.4589" lon="1.02985">
        <ele>162.055893</ele>
        <time>2019-08-17T13:20:42Z</time>
      </trkpt>
      <trkpt lat="44.4589" lon="1.02991">
        <ele>161.993301</ele>
        <time>2019-08-17T13:20:43Z</time>
      </trkpt>
      <trkpt lat="44.45889" lon="1.02997">
        <ele>161.993301</ele>
        <time>2019-08-17T13:20:44Z</time>
      </trkpt>
      <trkpt lat="44.45889" lon="1.03004">
        <ele>161.928284</ele>
        <time>2019-08-17T13:20:45Z</time>
      </trkpt>
      <trkpt lat="44.45889" lon="1.0301">
        <ele>161.898422</ele>
        <time>2019-08-17T13:20:46Z</time>
      </trkpt>
      <trkpt lat="44.45888" lon="1.03016">
        <ele>161.898422</ele>
        <time>2019-08-17T13:20:47Z</time>
      </trkpt>
      <trkpt lat="44.45887" lon="1.03022">
        <ele>161.898422</ele>
        <time>2019-08-17T13:20:48Z</time>
      </trkpt>
      <trkpt lat="44.45887" lon="1.03028">
        <ele>161.92511</ele>
        <time>2019-08-17T13:20:49Z</time>
      </trkpt>
      <trkpt lat="44.45886" lon="1.03032">
        <ele>162.01152</ele>
        <time>2019-08-17T13:20:50Z</time>
      </trkpt>
      <trkpt lat="44.45886" lon="1.03034">
        <ele>162.156067</ele>
        <time>2019-08-17T13:20:51Z</time>
      </trkpt>
      <trkpt lat="44.45887" lon="1.0305">
        <ele>163.322571</ele>
        <time>2019-08-17T13:21:01Z</time>
      </trkpt>
      <trkpt lat="44.45887" lon="1.03055">
        <ele>163.322571</ele>
        <time>2019-08-17T13:21:03Z</time>
      </trkpt>
      <trkpt lat="44.45886" lon="1.03061">
        <ele>163.345062</ele>
        <time>2019-08-17T13:21:04Z</time>
      </trkpt>
      <trkpt lat="44.45885" lon="1.03067">
        <ele>163.370621</ele>
        <time>2019-08-17T13:21:05Z</time>
      </trkpt>
      <trkpt lat="44.45884" lon="1.03073">
        <ele>163.434708</ele>
        <time>2019-08-17T13:21:06Z</time>
      </trkpt>
      <trkpt lat="44.45882" lon="1.0308">
        <ele>163.434708</ele>
        <time>2019-08-17T13:21:07Z</time>
      </trkpt>
      <trkpt lat="44.45881" lon="1.03087">
        <ele>163.555649</ele>
        <time>2019-08-17T13:21:08Z</time>
      </trkpt>
      <trkpt lat="44.4588" lon="1.03094">
        <ele>163.729706</ele>
        <time>2019-08-17T13:21:09Z</time>
      </trkpt>
      <trkpt lat="44.45878" lon="1.03101">
        <ele>164.005951</ele>
        <time>2019-08-17T13:21:10Z</time>
      </trkpt>
      <trkpt lat="44.45877" lon="1.03109">
        <ele>164.339279</ele>
        <time>2019-08-17T13:21:11Z</time>
      </trkpt>
      <trkpt lat="44.45876" lon="1.03116">
        <ele>164.729416</ele>
        <time>2019-08-17T13:21:12Z</time>
      </trkpt>
      <trkpt lat="44.45874" lon="1.03123">
        <ele>164.729416</ele>
        <time>2019-08-17T13:21:13Z</time>
      </trkpt>
      <trkpt lat="44.45873" lon="1.0313">
        <ele>165.15004</ele>
        <time>2019-08-17T13:21:14Z</time>
      </trkpt>
      <trkpt lat="44.45871" lon="1.03137">
        <ele>165.564407</ele>
        <time>2019-08-17T13:21:15Z</time>
      </trkpt>
      <trkpt lat="44.4587" lon="1.03144">
        <ele>166.026611</ele>
        <time>2019-08-17T13:21:16Z</time>
      </trkpt>
      <trkpt lat="44.45868" lon="1.03152">
        <ele>166.432053</ele>
        <time>2019-08-17T13:21:17Z</time>
      </trkpt>
      <trkpt lat="44.45868" lon="1.03159">
        <ele>166.825424</ele>
        <time>2019-08-17T13:21:18Z</time>
      </trkpt>
      <trkpt lat="44.45866" lon="1.03167">
        <ele>167.203583</ele>
        <time>2019-08-17T13:21:19Z</time>
      </trkpt>
      <trkpt lat="44.45865" lon="1.03175">
        <ele>167.550919</ele>
        <time>2019-08-17T13:21:20Z</time>
      </trkpt>
      <trkpt lat="44.45863" lon="1.03182">
        <ele>167.873398</ele>
        <time>2019-08-17T13:21:21Z</time>
      </trkpt>
      <trkpt lat="44.45862" lon="1.0319">
        <ele>168.125214</ele>
        <time>2019-08-17T13:21:22Z</time>
      </trkpt>
      <trkpt lat="44.4586" lon="1.03197">
        <ele>168.359451</ele>
        <time>2019-08-17T13:21:23Z</time>
      </trkpt>
      <trkpt lat="44.45859" lon="1.03205">
        <ele>168.572861</ele>
        <time>2019-08-17T13:21:24Z</time>
      </trkpt>
      <trkpt lat="44.45857" lon="1.03213">
        <ele>168.572861</ele>
        <time>2019-08-17T13:21:25Z</time>
      </trkpt>
      <trkpt lat="44.45856" lon="1.03221">
        <ele>168.765488</ele>
        <time>2019-08-17T13:21:26Z</time>
      </trkpt>
      <trkpt lat="44.45855" lon="1.03229">
        <ele>168.943176</ele>
        <time>2019-08-17T13:21:27Z</time>
      </trkpt>
      <trkpt lat="44.45853" lon="1.03237">
        <ele>169.125351</ele>
        <time>2019-08-17T13:21:28Z</time>
      </trkpt>
      <trkpt lat="44.45852" lon="1.03245">
        <ele>169.125351</ele>
        <time>2019-08-17T13:21:29Z</time>
      </trkpt>
      <trkpt lat="44.4585" lon="1.03253">
        <ele>169.283768</ele>
        <time>2019-08-17T13:21:30Z</time>
      </trkpt>
      <trkpt lat="44.45849" lon="1.03261">
        <ele>169.421936</ele>
        <time>2019-08-17T13:21:31Z</time>
      </trkpt>
      <trkpt lat="44.45848" lon="1.03269">
        <ele>169.550049</ele>
        <time>2019-08-17T13:21:32Z</time>
      </trkpt>
      <trkpt lat="44.45846" lon="1.03277">
        <ele>169.663651</ele>
        <time>2019-08-17T13:21:33Z</time>
      </trkpt>
      <trkpt lat="44.45845" lon="1.03285">
        <ele>169.761948</ele>
        <time>2019-08-17T13:21:34Z</time>
      </trkpt>
      <trkpt lat="44.45843" lon="1.03293">
        <ele>169.829391</ele>
        <time>2019-08-17T13:21:35Z</time>
      </trkpt>
      <trkpt lat="44.45842" lon="1.03301">
        <ele>169.897354</ele>
        <time>2019-08-17T13:21:36Z</time>
      </trkpt>
      <trkpt lat="44.4584" lon="1.03309">
        <ele>169.969345</ele>
        <time>2019-08-17T13:21:37Z</time>
      </trkpt>
      <trkpt lat="44.45839" lon="1.03317">
        <ele>170.037827</ele>
        <time>2019-08-17T13:21:38Z</time>
      </trkpt>
      <trkpt lat="44.45837" lon="1.03325">
        <ele>170.110779</ele>
        <time>2019-08-17T13:21:39Z</time>
      </trkpt>
      <trkpt lat="44.45836" lon="1.03333">
        <ele>170.189835</ele>
        <time>2019-08-17T13:21:40Z</time>
      </trkpt>
      <trkpt lat="44.45834" lon="1.03341">
        <ele>170.276855</ele>
        <time>2019-08-17T13:21:41Z</time>
      </trkpt>
      <trkpt lat="44.45832" lon="1.03349">
        <ele>170.363602</ele>
        <time>2019-08-17T13:21:42Z</time>
      </trkpt>
      <trkpt lat="44.45831" lon="1.03357">
        <ele>170.445236</ele>
        <time>2019-08-17T13:21:43Z</time>
      </trkpt>
      <trkpt lat="44.45829" lon="1.03365">
        <ele>170.445236</ele>
        <time>2019-08-17T13:21:44Z</time>
      </trkpt>
      <trkpt lat="44.45828" lon="1.03373">
        <ele>170.523178</ele>
        <time>2019-08-17T13:21:45Z</time>
      </trkpt>
      <trkpt lat="44.45827" lon="1.03381">
        <ele>170.610977</ele>
        <time>2019-08-17T13:21:46Z</time>
      </trkpt>
      <trkpt lat="44.45825" lon="1.03389">
        <ele>170.610977</ele>
        <time>2019-08-17T13:21:47Z</time>
      </trkpt>
      <trkpt lat="44.45823" lon="1.03397">
        <ele>170.735886</ele>
        <time>2019-08-17T13:21:48Z</time>
      </trkpt>
      <trkpt lat="44.45822" lon="1.03405">
        <ele>170.873535</ele>
        <time>2019-08-17T13:21:49Z</time>
      </trkpt>
      <trkpt lat="44.45821" lon="1.03413">
        <ele>171.054886</ele>
        <time>2019-08-17T13:21:50Z</time>
      </trkpt>
      <trkpt lat="44.45819" lon="1.03421">
        <ele>171.257431</ele>
        <time>2019-08-17T13:21:51Z</time>
      </trkpt>
      <trkpt lat="44.45818" lon="1.0343">
        <ele>171.492859</ele>
        <time>2019-08-17T13:21:52Z</time>
      </trkpt>
      <trkpt lat="44.45816" lon="1.03438">
        <ele>171.753677</ele>
        <time>2019-08-17T13:21:53Z</time>
      </trkpt>
      <trkpt lat="44.45815" lon="1.03446">
        <ele>171.753677</ele>
        <time>2019-08-17T13:21:54Z</time>
      </trkpt>
      <trkpt lat="44.45813" lon="1.03454">
        <ele>172.016983</ele>
        <time>2019-08-17T13:21:55Z</time>
      </trkpt>
      <trkpt lat="44.45812" lon="1.03462">
        <ele>172.304871</ele>
        <time>2019-08-17T13:21:56Z</time>
      </trkpt>
      <trkpt lat="44.4581" lon="1.03469">
        <ele>172.641281</ele>
        <time>2019-08-17T13:21:57Z</time>
      </trkpt>
      <trkpt lat="44.45809" lon="1.03477">
        <ele>173.001709</ele>
        <time>2019-08-17T13:21:58Z</time>
      </trkpt>
      <trkpt lat="44.45808" lon="1.03485">
        <ele>173.36409</ele>
        <time>2019-08-17T13:21:59Z</time>
      </trkpt>
      <trkpt lat="44.45807" lon="1.03493">
        <ele>173.728592</ele>
        <time>2019-08-17T13:22:00Z</time>
      </trkpt>
      <trkpt lat="44.45805" lon="1.03501">
        <ele>174.088272</ele>
        <time>2019-08-17T13:22:01Z</time>
      </trkpt>
      <trkpt lat="44.45803" lon="1.03509">
        <ele>174.088272</ele>
        <time>2019-08-17T13:22:02Z</time>
      </trkpt>
      <trkpt lat="44.45802" lon="1.03517">
        <ele>174.448502</ele>
        <time>2019-08-17T13:22:03Z</time>
      </trkpt>
      <trkpt lat="44.458" lon="1.03525">
        <ele>174.755997</ele>
        <time>2019-08-17T13:22:04Z</time>
      </trkpt>
      <trkpt lat="44.45799" lon="1.03533">
        <ele>175.106827</ele>
        <time>2019-08-17T13:22:05Z</time>
      </trkpt>
      <trkpt lat="44.45798" lon="1.0354">
        <ele>175.462784</ele>
        <time>2019-08-17T13:22:06Z</time>
      </trkpt>
      <trkpt lat="44.45796" lon="1.03548">
        <ele>175.819504</ele>
        <time>2019-08-17T13:22:07Z</time>
      </trkpt>
      <trkpt lat="44.45795" lon="1.03556">
        <ele>176.175461</ele>
        <time>2019-08-17T13:22:08Z</time>
      </trkpt>
      <trkpt lat="44.45794" lon="1.03564">
        <ele>176.527588</ele>
        <time>2019-08-17T13:22:09Z</time>
      </trkpt>
      <trkpt lat="44.45792" lon="1.03572">
        <ele>176.872803</ele>
        <time>2019-08-17T13:22:10Z</time>
      </trkpt>
      <trkpt lat="44.4579" lon="1.0358">
        <ele>177.142822</ele>
        <time>2019-08-17T13:22:11Z</time>
      </trkpt>
      <trkpt lat="44.45789" lon="1.03588">
        <ele>177.38063</ele>
        <time>2019-08-17T13:22:12Z</time>
      </trkpt>
      <trkpt lat="44.45787" lon="1.03596">
        <ele>177.589798</ele>
        <time>2019-08-17T13:22:13Z</time>
      </trkpt>
      <trkpt lat="44.45786" lon="1.03604">
        <ele>177.589798</ele>
        <time>2019-08-17T13:22:14Z</time>
      </trkpt>
      <trkpt lat="44.45784" lon="1.03612">
        <ele>177.773178</ele>
        <time>2019-08-17T13:22:15Z</time>
      </trkpt>
      <trkpt lat="44.45783" lon="1.0362">
        <ele>177.929794</ele>
        <time>2019-08-17T13:22:16Z</time>
      </trkpt>
      <trkpt lat="44.45781" lon="1.03627">
        <ele>178.084167</ele>
        <time>2019-08-17T13:22:17Z</time>
      </trkpt>
      <trkpt lat="44.4578" lon="1.03635">
        <ele>178.232437</ele>
        <time>2019-08-17T13:22:18Z</time>
      </trkpt>
      <trkpt lat="44.45778" lon="1.03643">
        <ele>178.232437</ele>
        <time>2019-08-17T13:22:19Z</time>
      </trkpt>
      <trkpt lat="44.45777" lon="1.03651">
        <ele>178.383728</ele>
        <time>2019-08-17T13:22:20Z</time>
      </trkpt>
      <trkpt lat="44.45776" lon="1.03659">
        <ele>178.53064</ele>
        <time>2019-08-17T13:22:21Z</time>
      </trkpt>
      <trkpt lat="44.45774" lon="1.03667">
        <ele>178.698914</ele>
        <time>2019-08-17T13:22:22Z</time>
      </trkpt>
      <trkpt lat="44.45773" lon="1.03674">
        <ele>178.862671</ele>
        <time>2019-08-17T13:22:23Z</time>
      </trkpt>
      <trkpt lat="44.45772" lon="1.03681">
        <ele>179.009018</ele>
        <time>2019-08-17T13:22:24Z</time>
      </trkpt>
      <trkpt lat="44.45771" lon="1.03688">
        <ele>179.009018</ele>
        <time>2019-08-17T13:22:25Z</time>
      </trkpt>
      <trkpt lat="44.45771" lon="1.03695">
        <ele>179.159683</ele>
        <time>2019-08-17T13:22:26Z</time>
      </trkpt>
      <trkpt lat="44.4577" lon="1.03701">
        <ele>179.307877</ele>
        <time>2019-08-17T13:22:27Z</time>
      </trkpt>
      <trkpt lat="44.4577" lon="1.03707">
        <ele>179.463364</ele>
        <time>2019-08-17T13:22:28Z</time>
      </trkpt>
      <trkpt lat="44.4577" lon="1.03712">
        <ele>179.574524</ele>
        <time>2019-08-17T13:22:29Z</time>
      </trkpt>
      <trkpt lat="44.45771" lon="1.03717">
        <ele>179.655029</ele>
        <time>2019-08-17T13:22:30Z</time>
      </trkpt>
      <trkpt lat="44.45771" lon="1.0372">
        <ele>179.691467</ele>
        <time>2019-08-17T13:22:31Z</time>
      </trkpt>
      <trkpt lat="44.45773" lon="1.03723">
        <ele>179.691467</ele>
        <time>2019-08-17T13:22:32Z</time>
      </trkpt>
      <trkpt lat="44.45776" lon="1.03725">
        <ele>179.691467</ele>
        <time>2019-08-17T13:22:33Z</time>
      </trkpt>
      <trkpt lat="44.4578" lon="1.03726">
        <ele>179.681091</ele>
        <time>2019-08-17T13:22:34Z</time>
      </trkpt>
      <trkpt lat="44.45784" lon="1.03727">
        <ele>179.605331</ele>
        <time>2019-08-17T13:22:35Z</time>
      </trkpt>
      <trkpt lat="44.45789" lon="1.03728">
        <ele>179.437912</ele>
        <time>2019-08-17T13:22:36Z</time>
      </trkpt>
      <trkpt lat="44.45793" lon="1.03729">
        <ele>179.191238</ele>
        <time>2019-08-17T13:22:37Z</time>
      </trkpt>
      <trkpt lat="44.45797" lon="1.0373">
        <ele>178.872269</ele>
        <time>2019-08-17T13:22:38Z</time>
      </trkpt>
      <trkpt lat="44.45801" lon="1.0373">
        <ele>178.482224</ele>
        <time>2019-08-17T13:22:39Z</time>
      </trkpt>
      <trkpt lat="44.45805" lon="1.0373">
        <ele>178.03064</ele>
        <time>2019-08-17T13:22:40Z</time>
      </trkpt>
      <trkpt lat="44.45809" lon="1.03731">
        <ele>177.536179</ele>
        <time>2019-08-17T13:22:41Z</time>
      </trkpt>
      <trkpt lat="44.45813" lon="1.03731">
        <ele>177.022781</ele>
        <time>2019-08-17T13:22:42Z</time>
      </trkpt>
      <trkpt lat="44.45816" lon="1.03731">
        <ele>176.507751</ele>
        <time>2019-08-17T13:22:43Z</time>
      </trkpt>
      <trkpt lat="44.4582" lon="1.0373">
        <ele>175.997971</ele>
        <time>2019-08-17T13:22:44Z</time>
      </trkpt>
      <trkpt lat="44.45822" lon="1.03729">
        <ele>175.500839</ele>
        <time>2019-08-17T13:22:45Z</time>
      </trkpt>
      <trkpt lat="44.45824" lon="1.03727">
        <ele>175.024765</ele>
        <time>2019-08-17T13:22:46Z</time>
      </trkpt>
      <trkpt lat="44.45826" lon="1.03724">
        <ele>175.024765</ele>
        <time>2019-08-17T13:22:47Z</time>
      </trkpt>
      <trkpt lat="44.45828" lon="1.03721">
        <ele>174.576599</ele>
        <time>2019-08-17T13:22:48Z</time>
      </trkpt>
      <trkpt lat="44.45829" lon="1.03718">
        <ele>174.158646</ele>
        <time>2019-08-17T13:22:49Z</time>
      </trkpt>
      <trkpt lat="44.4583" lon="1.03715">
        <ele>173.777603</ele>
        <time>2019-08-17T13:22:50Z</time>
      </trkpt>
      <trkpt lat="44.45831" lon="1.03712">
        <ele>173.471695</ele>
        <time>2019-08-17T13:22:51Z</time>
      </trkpt>
      <trkpt lat="44.45832" lon="1.03709">
        <ele>173.237595</ele>
        <time>2019-08-17T13:22:52Z</time>
      </trkpt>
      <trkpt lat="44.45834" lon="1.03706">
        <ele>173.062912</ele>
        <time>2019-08-17T13:22:53Z</time>
      </trkpt>
      <trkpt lat="44.45836" lon="1.03703">
        <ele>172.943161</ele>
        <time>2019-08-17T13:22:54Z</time>
      </trkpt>
      <trkpt lat="44.45837" lon="1.037">
        <ele>172.871414</ele>
        <time>2019-08-17T13:22:55Z</time>
      </trkpt>
      <trkpt lat="44.45838" lon="1.03697">
        <ele>172.837234</ele>
        <time>2019-08-17T13:22:56Z</time>
      </trkpt>
      <trkpt lat="44.45839" lon="1.03694">
        <ele>172.802109</ele>
        <time>2019-08-17T13:22:57Z</time>
      </trkpt>
      <trkpt lat="44.4584" lon="1.03691">
        <ele>172.764587</ele>
        <time>2019-08-17T13:22:58Z</time>
      </trkpt>
      <trkpt lat="44.45842" lon="1.03688">
        <ele>172.725342</ele>
        <time>2019-08-17T13:22:59Z</time>
      </trkpt>
      <trkpt lat="44.45842" lon="1.03685">
        <ele>172.684464</ele>
        <time>2019-08-17T13:23:00Z</time>
      </trkpt>
      <trkpt lat="44.45844" lon="1.03682">
        <ele>172.643509</ele>
        <time>2019-08-17T13:23:01Z</time>
      </trkpt>
      <trkpt lat="44.45845" lon="1.03679">
        <ele>172.601791</ele>
        <time>2019-08-17T13:23:02Z</time>
      </trkpt>
      <trkpt lat="44.45846" lon="1.03677">
        <ele>172.559204</ele>
        <time>2019-08-17T13:23:03Z</time>
      </trkpt>
      <trkpt lat="44.45847" lon="1.03674">
        <ele>172.519363</ele>
        <time>2019-08-17T13:23:04Z</time>
      </trkpt>
      <trkpt lat="44.45849" lon="1.03671">
        <ele>172.482727</ele>
        <time>2019-08-17T13:23:05Z</time>
      </trkpt>
      <trkpt lat="44.45849" lon="1.03668">
        <ele>172.449905</ele>
        <time>2019-08-17T13:23:06Z</time>
      </trkpt>
      <trkpt lat="44.45851" lon="1.03666">
        <ele>172.420303</ele>
        <time>2019-08-17T13:23:07Z</time>
      </trkpt>
      <trkpt lat="44.45852" lon="1.03664">
        <ele>172.394058</ele>
        <time>2019-08-17T13:23:08Z</time>
      </trkpt>
      <trkpt lat="44.45853" lon="1.03661">
        <ele>172.394058</ele>
        <time>2019-08-17T13:23:09Z</time>
      </trkpt>
      <trkpt lat="44.45855" lon="1.03658">
        <ele>172.369064</ele>
        <time>2019-08-17T13:23:10Z</time>
      </trkpt>
      <trkpt lat="44.45855" lon="1.03655">
        <ele>172.343338</ele>
        <time>2019-08-17T13:23:11Z</time>
      </trkpt>
      <trkpt lat="44.45857" lon="1.03653">
        <ele>172.306473</ele>
        <time>2019-08-17T13:23:12Z</time>
      </trkpt>
      <trkpt lat="44.45858" lon="1.0365">
        <ele>172.265671</ele>
        <time>2019-08-17T13:23:13Z</time>
      </trkpt>
      <trkpt lat="44.45859" lon="1.03647">
        <ele>172.222824</ele>
        <time>2019-08-17T13:23:14Z</time>
      </trkpt>
      <trkpt lat="44.4586" lon="1.03644">
        <ele>172.176743</ele>
        <time>2019-08-17T13:23:15Z</time>
      </trkpt>
      <trkpt lat="44.45861" lon="1.03642">
        <ele>172.128647</ele>
        <time>2019-08-17T13:23:16Z</time>
      </trkpt>
      <trkpt lat="44.45862" lon="1.03639">
        <ele>172.077805</ele>
        <time>2019-08-17T13:23:17Z</time>
      </trkpt>
      <trkpt lat="44.45864" lon="1.03637">
        <ele>172.032364</ele>
        <time>2019-08-17T13:23:18Z</time>
      </trkpt>
      <trkpt lat="44.45865" lon="1.03634">
        <ele>171.983032</ele>
        <time>2019-08-17T13:23:19Z</time>
      </trkpt>
      <trkpt lat="44.45866" lon="1.03631">
        <ele>171.928757</ele>
        <time>2019-08-17T13:23:20Z</time>
      </trkpt>
      <trkpt lat="44.45867" lon="1.03628">
        <ele>171.870728</ele>
        <time>2019-08-17T13:23:21Z</time>
      </trkpt>
      <trkpt lat="44.45868" lon="1.03626">
        <ele>171.808533</ele>
        <time>2019-08-17T13:23:22Z</time>
      </trkpt>
      <trkpt lat="44.4587" lon="1.03624">
        <ele>171.743164</ele>
        <time>2019-08-17T13:23:23Z</time>
      </trkpt>
      <trkpt lat="44.45872" lon="1.03623">
        <ele>171.678085</ele>
        <time>2019-08-17T13:23:24Z</time>
      </trkpt>
      <trkpt lat="44.45875" lon="1.03624">
        <ele>171.678085</ele>
        <time>2019-08-17T13:23:25Z</time>
      </trkpt>
      <trkpt lat="44.45876" lon="1.03625">
        <ele>171.611816</ele>
        <time>2019-08-17T13:23:26Z</time>
      </trkpt>
      <trkpt lat="44.45876" lon="1.03628">
        <ele>171.539185</ele>
        <time>2019-08-17T13:23:27Z</time>
      </trkpt>
      <trkpt lat="44.45877" lon="1.03631">
        <ele>171.436691</ele>
        <time>2019-08-17T13:23:28Z</time>
      </trkpt>
      <trkpt lat="44.45878" lon="1.03634">
        <ele>171.336746</ele>
        <time>2019-08-17T13:23:29Z</time>
      </trkpt>
      <trkpt lat="44.45878" lon="1.03637">
        <ele>171.24675</ele>
        <time>2019-08-17T13:23:30Z</time>
      </trkpt>
      <trkpt lat="44.45878" lon="1.0364">
        <ele>171.168518</ele>
        <time>2019-08-17T13:23:31Z</time>
      </trkpt>
      <trkpt lat="44.45878" lon="1.03643">
        <ele>171.103561</ele>
        <time>2019-08-17T13:23:32Z</time>
      </trkpt>
      <trkpt lat="44.45879" lon="1.03646">
        <ele>171.054993</ele>
        <time>2019-08-17T13:23:33Z</time>
      </trkpt>
      <trkpt lat="44.4588" lon="1.03649">
        <ele>171.046875</ele>
        <time>2019-08-17T13:23:34Z</time>
      </trkpt>
      <trkpt lat="44.45881" lon="1.03651">
        <ele>171.044235</ele>
        <time>2019-08-17T13:23:35Z</time>
      </trkpt>
      <trkpt lat="44.45881" lon="1.03655">
        <ele>171.041</ele>
        <time>2019-08-17T13:23:36Z</time>
      </trkpt>
      <trkpt lat="44.45882" lon="1.03658">
        <ele>171.04097</ele>
        <time>2019-08-17T13:23:37Z</time>
      </trkpt>
      <trkpt lat="44.45882" lon="1.0366">
        <ele>171.044189</ele>
        <time>2019-08-17T13:23:38Z</time>
      </trkpt>
      <trkpt lat="44.45883" lon="1.03663">
        <ele>171.045364</ele>
        <time>2019-08-17T13:23:39Z</time>
      </trkpt>
      <trkpt lat="44.45884" lon="1.03665">
        <ele>171.045364</ele>
        <time>2019-08-17T13:23:40Z</time>
      </trkpt>
      <trkpt lat="44.45885" lon="1.03668">
        <ele>171.046692</ele>
        <time>2019-08-17T13:23:41Z</time>
      </trkpt>
      <trkpt lat="44.45885" lon="1.03671">
        <ele>171.047562</ele>
        <time>2019-08-17T13:23:42Z</time>
      </trkpt>
      <trkpt lat="44.45886" lon="1.03674">
        <ele>171.047562</ele>
        <time>2019-08-17T13:23:43Z</time>
      </trkpt>
      <trkpt lat="44.45886" lon="1.03677">
        <ele>171.047562</ele>
        <time>2019-08-17T13:23:44Z</time>
      </trkpt>
      <trkpt lat="44.45887" lon="1.0368">
        <ele>171.049545</ele>
        <time>2019-08-17T13:23:45Z</time>
      </trkpt>
      <trkpt lat="44.45887" lon="1.03683">
        <ele>171.056152</ele>
        <time>2019-08-17T13:23:46Z</time>
      </trkpt>
      <trkpt lat="44.45888" lon="1.03686">
        <ele>171.06543</ele>
        <time>2019-08-17T13:23:47Z</time>
      </trkpt>
      <trkpt lat="44.45888" lon="1.03689">
        <ele>171.077164</ele>
        <time>2019-08-17T13:23:48Z</time>
      </trkpt>
      <trkpt lat="44.45888" lon="1.03692">
        <ele>171.091125</ele>
        <time>2019-08-17T13:23:49Z</time>
      </trkpt>
      <trkpt lat="44.45889" lon="1.03695">
        <ele>171.108994</ele>
        <time>2019-08-17T13:23:50Z</time>
      </trkpt>
      <trkpt lat="44.4589" lon="1.03698">
        <ele>171.132126</ele>
        <time>2019-08-17T13:23:51Z</time>
      </trkpt>
      <trkpt lat="44.45891" lon="1.037">
        <ele>171.132126</ele>
        <time>2019-08-17T13:23:52Z</time>
      </trkpt>
      <trkpt lat="44.45891" lon="1.03703">
        <ele>171.157654</ele>
        <time>2019-08-17T13:23:53Z</time>
      </trkpt>
      <trkpt lat="44.45892" lon="1.03706">
        <ele>171.182251</ele>
        <time>2019-08-17T13:23:54Z</time>
      </trkpt>
      <trkpt lat="44.45892" lon="1.03709">
        <ele>171.209229</ele>
        <time>2019-08-17T13:23:55Z</time>
      </trkpt>
      <trkpt lat="44.45893" lon="1.03712">
        <ele>171.237305</ele>
        <time>2019-08-17T13:23:56Z</time>
      </trkpt>
      <trkpt lat="44.45894" lon="1.03715">
        <ele>171.266373</ele>
        <time>2019-08-17T13:23:57Z</time>
      </trkpt>
      <trkpt lat="44.45894" lon="1.03718">
        <ele>171.302933</ele>
        <time>2019-08-17T13:23:58Z</time>
      </trkpt>
      <trkpt lat="44.45895" lon="1.03721">
        <ele>171.370712</ele>
        <time>2019-08-17T13:23:59Z</time>
      </trkpt>
      <trkpt lat="44.45895" lon="1.03724">
        <ele>171.465454</ele>
        <time>2019-08-17T13:24:00Z</time>
      </trkpt>
      <trkpt lat="44.45895" lon="1.03727">
        <ele>171.583435</ele>
        <time>2019-08-17T13:24:01Z</time>
      </trkpt>
      <trkpt lat="44.45896" lon="1.03731">
        <ele>171.712891</ele>
        <time>2019-08-17T13:24:02Z</time>
      </trkpt>
      <trkpt lat="44.45897" lon="1.03734">
        <ele>171.858322</ele>
        <time>2019-08-17T13:24:03Z</time>
      </trkpt>
      <trkpt lat="44.45897" lon="1.03737">
        <ele>172.026123</ele>
        <time>2019-08-17T13:24:04Z</time>
      </trkpt>
      <trkpt lat="44.45897" lon="1.0374">
        <ele>172.187424</ele>
        <time>2019-08-17T13:24:05Z</time>
      </trkpt>
      <trkpt lat="44.45898" lon="1.03742">
        <ele>172.187424</ele>
        <time>2019-08-17T13:24:06Z</time>
      </trkpt>
      <trkpt lat="44.45898" lon="1.03745">
        <ele>172.349121</ele>
        <time>2019-08-17T13:24:07Z</time>
      </trkpt>
      <trkpt lat="44.45898" lon="1.03748">
        <ele>172.504715</ele>
        <time>2019-08-17T13:24:08Z</time>
      </trkpt>
      <trkpt lat="44.45899" lon="1.03751">
        <ele>172.694824</ele>
        <time>2019-08-17T13:24:09Z</time>
      </trkpt>
      <trkpt lat="44.45899" lon="1.03753">
        <ele>172.890869</ele>
        <time>2019-08-17T13:24:10Z</time>
      </trkpt>
      <trkpt lat="44.45899" lon="1.03756">
        <ele>173.079102</ele>
        <time>2019-08-17T13:24:11Z</time>
      </trkpt>
      <trkpt lat="44.459" lon="1.03758">
        <ele>173.258057</ele>
        <time>2019-08-17T13:24:12Z</time>
      </trkpt>
      <trkpt lat="44.45901" lon="1.03761">
        <ele>173.418625</ele>
        <time>2019-08-17T13:24:13Z</time>
      </trkpt>
      <trkpt lat="44.45902" lon="1.03763">
        <ele>173.571121</ele>
        <time>2019-08-17T13:24:14Z</time>
      </trkpt>
      <trkpt lat="44.45904" lon="1.03764">
        <ele>173.696045</ele>
        <time>2019-08-17T13:24:15Z</time>
      </trkpt>
      <trkpt lat="44.45906" lon="1.03764">
        <ele>173.837479</ele>
        <time>2019-08-17T13:24:16Z</time>
      </trkpt>
      <trkpt lat="44.45908" lon="1.03763">
        <ele>174.008713</ele>
        <time>2019-08-17T13:24:17Z</time>
      </trkpt>
      <trkpt lat="44.45908" lon="1.03762">
        <ele>174.230957</ele>
        <time>2019-08-17T13:24:18Z</time>
      </trkpt>
      <trkpt lat="44.45909" lon="1.03759">
        <ele>174.522461</ele>
        <time>2019-08-17T13:24:19Z</time>
      </trkpt>
      <trkpt lat="44.4591" lon="1.03756">
        <ele>174.872559</ele>
        <time>2019-08-17T13:24:20Z</time>
      </trkpt>
      <trkpt lat="44.45911" lon="1.03753">
        <ele>175.244629</ele>
        <time>2019-08-17T13:24:21Z</time>
      </trkpt>
      <trkpt lat="44.45911" lon="1.03751">
        <ele>175.602051</ele>
        <time>2019-08-17T13:24:22Z</time>
      </trkpt>
      <trkpt lat="44.45911" lon="1.03748">
        <ele>175.928711</ele>
        <time>2019-08-17T13:24:23Z</time>
      </trkpt>
      <trkpt lat="44.45912" lon="1.03744">
        <ele>176.220215</ele>
        <time>2019-08-17T13:24:24Z</time>
      </trkpt>
      <trkpt lat="44.45913" lon="1.03742">
        <ele>176.220215</ele>
        <time>2019-08-17T13:24:25Z</time>
      </trkpt>
      <trkpt lat="44.45914" lon="1.03739">
        <ele>176.449142</ele>
        <time>2019-08-17T13:24:26Z</time>
      </trkpt>
      <trkpt lat="44.45915" lon="1.03736">
        <ele>176.619461</ele>
        <time>2019-08-17T13:24:27Z</time>
      </trkpt>
      <trkpt lat="44.45915" lon="1.03733">
        <ele>176.789871</ele>
        <time>2019-08-17T13:24:28Z</time>
      </trkpt>
      <trkpt lat="44.45916" lon="1.03731">
        <ele>176.968094</ele>
        <time>2019-08-17T13:24:29Z</time>
      </trkpt>
      <trkpt lat="44.45917" lon="1.03728">
        <ele>177.148605</ele>
        <time>2019-08-17T13:24:30Z</time>
      </trkpt>
      <trkpt lat="44.45918" lon="1.03727">
        <ele>177.313889</ele>
        <time>2019-08-17T13:24:31Z</time>
      </trkpt>
      <trkpt lat="44.4592" lon="1.03726">
        <ele>177.483963</ele>
        <time>2019-08-17T13:24:32Z</time>
      </trkpt>
      <trkpt lat="44.45921" lon="1.03726">
        <ele>177.677322</ele>
        <time>2019-08-17T13:24:33Z</time>
      </trkpt>
      <trkpt lat="44.45923" lon="1.03728">
        <ele>177.88118</ele>
        <time>2019-08-17T13:24:34Z</time>
      </trkpt>
      <trkpt lat="44.45923" lon="1.0373">
        <ele>178.111816</ele>
        <time>2019-08-17T13:24:35Z</time>
      </trkpt>
      <trkpt lat="44.45924" lon="1.03733">
        <ele>178.38533</ele>
        <time>2019-08-17T13:24:36Z</time>
      </trkpt>
      <trkpt lat="44.45925" lon="1.03735">
        <ele>178.691971</ele>
        <time>2019-08-17T13:24:37Z</time>
      </trkpt>
      <trkpt lat="44.45927" lon="1.03737">
        <ele>179.00383</ele>
        <time>2019-08-17T13:24:38Z</time>
      </trkpt>
      <trkpt lat="44.45928" lon="1.03739">
        <ele>179.307053</ele>
        <time>2019-08-17T13:24:39Z</time>
      </trkpt>
      <trkpt lat="44.4593" lon="1.03741">
        <ele>179.307053</ele>
        <time>2019-08-17T13:24:40Z</time>
      </trkpt>
      <trkpt lat="44.45932" lon="1.03743">
        <ele>179.612625</ele>
        <time>2019-08-17T13:24:41Z</time>
      </trkpt>
      <trkpt lat="44.45934" lon="1.03744">
        <ele>179.932053</ele>
        <time>2019-08-17T13:24:42Z</time>
      </trkpt>
      <trkpt lat="44.45935" lon="1.03746">
        <ele>180.332764</ele>
        <time>2019-08-17T13:24:43Z</time>
      </trkpt>
      <trkpt lat="44.45937" lon="1.03748">
        <ele>180.756271</ele>
        <time>2019-08-17T13:24:44Z</time>
      </trkpt>
      <trkpt lat="44.4594" lon="1.03749">
        <ele>180.756271</ele>
        <time>2019-08-17T13:24:45Z</time>
      </trkpt>
      <trkpt lat="44.45942" lon="1.03751">
        <ele>181.23494</ele>
        <time>2019-08-17T13:24:46Z</time>
      </trkpt>
      <trkpt lat="44.45944" lon="1.03753">
        <ele>181.769287</ele>
        <time>2019-08-17T13:24:47Z</time>
      </trkpt>
      <trkpt lat="44.45946" lon="1.03754">
        <ele>182.443039</ele>
        <time>2019-08-17T13:24:48Z</time>
      </trkpt>
      <trkpt lat="44.45948" lon="1.03756">
        <ele>183.131027</ele>
        <time>2019-08-17T13:24:49Z</time>
      </trkpt>
      <trkpt lat="44.4595" lon="1.03758">
        <ele>183.763107</ele>
        <time>2019-08-17T13:24:50Z</time>
      </trkpt>
      <trkpt lat="44.45952" lon="1.03759">
        <ele>184.418945</ele>
        <time>2019-08-17T13:24:51Z</time>
      </trkpt>
      <trkpt lat="44.45955" lon="1.03761">
        <ele>185.072189</ele>
        <time>2019-08-17T13:24:52Z</time>
      </trkpt>
      <trkpt lat="44.45957" lon="1.03762">
        <ele>185.726883</ele>
        <time>2019-08-17T13:24:53Z</time>
      </trkpt>
      <trkpt lat="44.4596" lon="1.03764">
        <ele>186.287842</ele>
        <time>2019-08-17T13:24:54Z</time>
      </trkpt>
      <trkpt lat="44.45961" lon="1.03765">
        <ele>186.859375</ele>
        <time>2019-08-17T13:24:55Z</time>
      </trkpt>
      <trkpt lat="44.45964" lon="1.03767">
        <ele>187.433594</ele>
        <time>2019-08-17T13:24:56Z</time>
      </trkpt>
      <trkpt lat="44.45966" lon="1.03768">
        <ele>188.009277</ele>
        <time>2019-08-17T13:24:57Z</time>
      </trkpt>
      <trkpt lat="44.45969" lon="1.0377">
        <ele>188.599609</ele>
        <time>2019-08-17T13:24:58Z</time>
      </trkpt>
      <trkpt lat="44.45971" lon="1.03772">
        <ele>189.224289</ele>
        <time>2019-08-17T13:24:59Z</time>
      </trkpt>
      <trkpt lat="44.45972" lon="1.03777">
        <ele>189.866959</ele>
        <time>2019-08-17T13:25:00Z</time>
      </trkpt>
      <trkpt lat="44.45974" lon="1.03783">
        <ele>189.866959</ele>
        <time>2019-08-17T13:25:01Z</time>
      </trkpt>
      <trkpt lat="44.45975" lon="1.03789">
        <ele>190.517654</ele>
        <time>2019-08-17T13:25:02Z</time>
      </trkpt>
      <trkpt lat="44.45977" lon="1.03795">
        <ele>191.162766</ele>
        <time>2019-08-17T13:25:03Z</time>
      </trkpt>
      <trkpt lat="44.45979" lon="1.03801">
        <ele>191.84343</ele>
        <time>2019-08-17T13:25:04Z</time>
      </trkpt>
      <trkpt lat="44.45981" lon="1.03807">
        <ele>192.48938</ele>
        <time>2019-08-17T13:25:05Z</time>
      </trkpt>
      <trkpt lat="44.45983" lon="1.03813">
        <ele>193.090454</ele>
        <time>2019-08-17T13:25:06Z</time>
      </trkpt>
      <trkpt lat="44.45985" lon="1.0382">
        <ele>193.090454</ele>
        <time>2019-08-17T13:25:07Z</time>
      </trkpt>
      <trkpt lat="44.45987" lon="1.03825">
        <ele>193.668137</ele>
        <time>2019-08-17T13:25:08Z</time>
      </trkpt>
      <trkpt lat="44.4599" lon="1.03831">
        <ele>194.23291</ele>
        <time>2019-08-17T13:25:09Z</time>
      </trkpt>
      <trkpt lat="44.45992" lon="1.03836">
        <ele>194.893127</ele>
        <time>2019-08-17T13:25:10Z</time>
      </trkpt>
      <trkpt lat="44.45994" lon="1.03842">
        <ele>195.4655</ele>
        <time>2019-08-17T13:25:11Z</time>
      </trkpt>
      <trkpt lat="44.45996" lon="1.03847">
        <ele>196.03363</ele>
        <time>2019-08-17T13:25:12Z</time>
      </trkpt>
      <trkpt lat="44.45998" lon="1.03852">
        <ele>196.580444</ele>
        <time>2019-08-17T13:25:13Z</time>
      </trkpt>
      <trkpt lat="44.46001" lon="1.03857">
        <ele>197.075317</ele>
        <time>2019-08-17T13:25:14Z</time>
      </trkpt>
      <trkpt lat="44.46004" lon="1.03862">
        <ele>197.510437</ele>
        <time>2019-08-17T13:25:15Z</time>
      </trkpt>
      <trkpt lat="44.46008" lon="1.03865">
        <ele>197.789185</ele>
        <time>2019-08-17T13:25:16Z</time>
      </trkpt>
      <trkpt lat="44.46012" lon="1.03868">
        <ele>198.077621</ele>
        <time>2019-08-17T13:25:17Z</time>
      </trkpt>
      <trkpt lat="44.46016" lon="1.03871">
        <ele>198.404129</ele>
        <time>2019-08-17T13:25:18Z</time>
      </trkpt>
      <trkpt lat="44.4602" lon="1.03874">
        <ele>198.805893</ele>
        <time>2019-08-17T13:25:19Z</time>
      </trkpt>
      <trkpt lat="44.46024" lon="1.03877">
        <ele>199.308411</ele>
        <time>2019-08-17T13:25:20Z</time>
      </trkpt>
      <trkpt lat="44.46027" lon="1.0388">
        <ele>199.91008</ele>
        <time>2019-08-17T13:25:21Z</time>
      </trkpt>
      <trkpt lat="44.46031" lon="1.03882">
        <ele>200.612854</ele>
        <time>2019-08-17T13:25:22Z</time>
      </trkpt>
      <trkpt lat="44.46035" lon="1.03884">
        <ele>201.374619</ele>
        <time>2019-08-17T13:25:23Z</time>
      </trkpt>
      <trkpt lat="44.46039" lon="1.03886">
        <ele>202.171371</ele>
        <time>2019-08-17T13:25:24Z</time>
      </trkpt>
      <trkpt lat="44.46043" lon="1.03887">
        <ele>202.919113</ele>
        <time>2019-08-17T13:25:25Z</time>
      </trkpt>
      <trkpt lat="44.46048" lon="1.03888">
        <ele>202.919113</ele>
        <time>2019-08-17T13:25:26Z</time>
      </trkpt>
      <trkpt lat="44.46051" lon="1.03889">
        <ele>203.525223</ele>
        <time>2019-08-17T13:25:27Z</time>
      </trkpt>
      <trkpt lat="44.46055" lon="1.0389">
        <ele>204.002213</ele>
        <time>2019-08-17T13:25:28Z</time>
      </trkpt>
      <trkpt lat="44.46059" lon="1.03892">
        <ele>204.371658</ele>
        <time>2019-08-17T13:25:29Z</time>
      </trkpt>
      <trkpt lat="44.46064" lon="1.03893">
        <ele>204.641983</ele>
        <time>2019-08-17T13:25:30Z</time>
      </trkpt>
      <trkpt lat="44.46067" lon="1.03895">
        <ele>204.798904</ele>
        <time>2019-08-17T13:25:31Z</time>
      </trkpt>
      <trkpt lat="44.46072" lon="1.03896">
        <ele>204.891098</ele>
        <time>2019-08-17T13:25:32Z</time>
      </trkpt>
      <trkpt lat="44.46076" lon="1.03897">
        <ele>204.993774</ele>
        <time>2019-08-17T13:25:33Z</time>
      </trkpt>
      <trkpt lat="44.4608" lon="1.03898">
        <ele>205.104507</ele>
        <time>2019-08-17T13:25:34Z</time>
      </trkpt>
      <trkpt lat="44.46085" lon="1.039">
        <ele>205.206375</ele>
        <time>2019-08-17T13:25:35Z</time>
      </trkpt>
      <trkpt lat="44.46089" lon="1.03901">
        <ele>205.310181</ele>
        <time>2019-08-17T13:25:36Z</time>
      </trkpt>
      <trkpt lat="44.46093" lon="1.03903">
        <ele>205.422256</ele>
        <time>2019-08-17T13:25:37Z</time>
      </trkpt>
      <trkpt lat="44.46098" lon="1.03905">
        <ele>205.539368</ele>
        <time>2019-08-17T13:25:38Z</time>
      </trkpt>
      <trkpt lat="44.46102" lon="1.03906">
        <ele>205.665344</ele>
        <time>2019-08-17T13:25:39Z</time>
      </trkpt>
      <trkpt lat="44.46106" lon="1.03908">
        <ele>205.799683</ele>
        <time>2019-08-17T13:25:40Z</time>
      </trkpt>
      <trkpt lat="44.46111" lon="1.03909">
        <ele>205.939194</ele>
        <time>2019-08-17T13:25:41Z</time>
      </trkpt>
      <trkpt lat="44.46115" lon="1.03911">
        <ele>206.05603</ele>
        <time>2019-08-17T13:25:42Z</time>
      </trkpt>
      <trkpt lat="44.46119" lon="1.03913">
        <ele>206.148209</ele>
        <time>2019-08-17T13:25:43Z</time>
      </trkpt>
      <trkpt lat="44.46124" lon="1.03914">
        <ele>206.220352</ele>
        <time>2019-08-17T13:25:44Z</time>
      </trkpt>
      <trkpt lat="44.46128" lon="1.03916">
        <ele>206.271378</ele>
        <time>2019-08-17T13:25:45Z</time>
      </trkpt>
      <trkpt lat="44.46132" lon="1.03917">
        <ele>206.298141</ele>
        <time>2019-08-17T13:25:46Z</time>
      </trkpt>
      <trkpt lat="44.46136" lon="1.03918">
        <ele>206.302979</ele>
        <time>2019-08-17T13:25:47Z</time>
      </trkpt>
      <trkpt lat="44.4614" lon="1.0392">
        <ele>206.312546</ele>
        <time>2019-08-17T13:25:48Z</time>
      </trkpt>
      <trkpt lat="44.46145" lon="1.03921">
        <ele>206.3255</ele>
        <time>2019-08-17T13:25:49Z</time>
      </trkpt>
      <trkpt lat="44.46149" lon="1.03923">
        <ele>206.346237</ele>
        <time>2019-08-17T13:25:50Z</time>
      </trkpt>
      <trkpt lat="44.46154" lon="1.03924">
        <ele>206.378235</ele>
        <time>2019-08-17T13:25:51Z</time>
      </trkpt>
      <trkpt lat="44.46159" lon="1.03925">
        <ele>206.421524</ele>
        <time>2019-08-17T13:25:52Z</time>
      </trkpt>
      <trkpt lat="44.46164" lon="1.03926">
        <ele>206.474136</ele>
        <time>2019-08-17T13:25:53Z</time>
      </trkpt>
      <trkpt lat="44.46169" lon="1.03927">
        <ele>206.536499</ele>
        <time>2019-08-17T13:25:54Z</time>
      </trkpt>
      <trkpt lat="44.46174" lon="1.03927">
        <ele>206.608887</ele>
        <time>2019-08-17T13:25:55Z</time>
      </trkpt>
      <trkpt lat="44.46179" lon="1.03928">
        <ele>206.691544</ele>
        <time>2019-08-17T13:25:56Z</time>
      </trkpt>
      <trkpt lat="44.46184" lon="1.03929">
        <ele>206.791458</ele>
        <time>2019-08-17T13:25:57Z</time>
      </trkpt>
      <trkpt lat="44.46188" lon="1.0393">
        <ele>206.917099</ele>
        <time>2019-08-17T13:25:58Z</time>
      </trkpt>
      <trkpt lat="44.46193" lon="1.03931">
        <ele>207.064697</ele>
        <time>2019-08-17T13:25:59Z</time>
      </trkpt>
      <trkpt lat="44.46198" lon="1.03933">
        <ele>207.23259</ele>
        <time>2019-08-17T13:26:00Z</time>
      </trkpt>
      <trkpt lat="44.46203" lon="1.03935">
        <ele>207.417786</ele>
        <time>2019-08-17T13:26:01Z</time>
      </trkpt>
      <trkpt lat="44.46207" lon="1.03937">
        <ele>207.620117</ele>
        <time>2019-08-17T13:26:02Z</time>
      </trkpt>
      <trkpt lat="44.46212" lon="1.03939">
        <ele>207.831299</ele>
        <time>2019-08-17T13:26:03Z</time>
      </trkpt>
      <trkpt lat="44.46216" lon="1.03942">
        <ele>208.040039</ele>
        <time>2019-08-17T13:26:04Z</time>
      </trkpt>
      <trkpt lat="44.4622" lon="1.03944">
        <ele>208.247559</ele>
        <time>2019-08-17T13:26:05Z</time>
      </trkpt>
      <trkpt lat="44.46225" lon="1.03947">
        <ele>208.451416</ele>
        <time>2019-08-17T13:26:06Z</time>
      </trkpt>
      <trkpt lat="44.46229" lon="1.03949">
        <ele>208.652832</ele>
        <time>2019-08-17T13:26:07Z</time>
      </trkpt>
      <trkpt lat="44.46233" lon="1.03951">
        <ele>208.850586</ele>
        <time>2019-08-17T13:26:08Z</time>
      </trkpt>
      <trkpt lat="44.46237" lon="1.03954">
        <ele>208.850586</ele>
        <time>2019-08-17T13:26:09Z</time>
      </trkpt>
      <trkpt lat="44.46241" lon="1.03956">
        <ele>209.044922</ele>
        <time>2019-08-17T13:26:10Z</time>
      </trkpt>
      <trkpt lat="44.46246" lon="1.03958">
        <ele>209.237793</ele>
        <time>2019-08-17T13:26:11Z</time>
      </trkpt>
      <trkpt lat="44.4625" lon="1.0396">
        <ele>209.452148</ele>
        <time>2019-08-17T13:26:12Z</time>
      </trkpt>
      <trkpt lat="44.46254" lon="1.03962">
        <ele>209.655197</ele>
        <time>2019-08-17T13:26:13Z</time>
      </trkpt>
      <trkpt lat="44.46259" lon="1.03964">
        <ele>209.847885</ele>
        <time>2019-08-17T13:26:14Z</time>
      </trkpt>
      <trkpt lat="44.46263" lon="1.03965">
        <ele>210.037643</ele>
        <time>2019-08-17T13:26:15Z</time>
      </trkpt>
      <trkpt lat="44.46267" lon="1.03967">
        <ele>210.222672</ele>
        <time>2019-08-17T13:26:16Z</time>
      </trkpt>
      <trkpt lat="44.46271" lon="1.03968">
        <ele>210.399658</ele>
        <time>2019-08-17T13:26:17Z</time>
      </trkpt>
      <trkpt lat="44.46275" lon="1.03969">
        <ele>210.544632</ele>
        <time>2019-08-17T13:26:18Z</time>
      </trkpt>
      <trkpt lat="44.46279" lon="1.0397">
        <ele>210.690796</ele>
        <time>2019-08-17T13:26:19Z</time>
      </trkpt>
      <trkpt lat="44.46283" lon="1.03971">
        <ele>210.836792</ele>
        <time>2019-08-17T13:26:20Z</time>
      </trkpt>
      <trkpt lat="44.46287" lon="1.03972">
        <ele>210.973221</ele>
        <time>2019-08-17T13:26:21Z</time>
      </trkpt>
      <trkpt lat="44.46291" lon="1.03973">
        <ele>211.101364</ele>
        <time>2019-08-17T13:26:22Z</time>
      </trkpt>
      <trkpt lat="44.46295" lon="1.03974">
        <ele>211.222366</ele>
        <time>2019-08-17T13:26:23Z</time>
      </trkpt>
      <trkpt lat="44.46299" lon="1.03975">
        <ele>211.336044</ele>
        <time>2019-08-17T13:26:24Z</time>
      </trkpt>
      <trkpt lat="44.46303" lon="1.03975">
        <ele>211.444565</ele>
        <time>2019-08-17T13:26:25Z</time>
      </trkpt>
      <trkpt lat="44.46307" lon="1.03976">
        <ele>211.547897</ele>
        <time>2019-08-17T13:26:26Z</time>
      </trkpt>
      <trkpt lat="44.46311" lon="1.03977">
        <ele>211.647644</ele>
        <time>2019-08-17T13:26:27Z</time>
      </trkpt>
      <trkpt lat="44.46315" lon="1.03978">
        <ele>211.743484</ele>
        <time>2019-08-17T13:26:28Z</time>
      </trkpt>
      <trkpt lat="44.46318" lon="1.03979">
        <ele>211.825943</ele>
        <time>2019-08-17T13:26:29Z</time>
      </trkpt>
      <trkpt lat="44.46322" lon="1.03979">
        <ele>211.892334</ele>
        <time>2019-08-17T13:26:30Z</time>
      </trkpt>
      <trkpt lat="44.46326" lon="1.0398">
        <ele>211.942505</ele>
        <time>2019-08-17T13:26:31Z</time>
      </trkpt>
      <trkpt lat="44.4633" lon="1.03981">
        <ele>211.976883</ele>
        <time>2019-08-17T13:26:32Z</time>
      </trkpt>
      <trkpt lat="44.46335" lon="1.03981">
        <ele>211.99585</ele>
        <time>2019-08-17T13:26:33Z</time>
      </trkpt>
      <trkpt lat="44.46339" lon="1.03981">
        <ele>212</ele>
        <time>2019-08-17T13:26:34Z</time>
      </trkpt>
      <trkpt lat="44.46344" lon="1.03981">
        <ele>212</ele>
        <time>2019-08-17T13:26:35Z</time>
      </trkpt>
      <trkpt lat="44.46348" lon="1.03982">
        <ele>212</ele>
        <time>2019-08-17T13:26:36Z</time>
      </trkpt>
      <trkpt lat="44.46352" lon="1.03982">
        <ele>212</ele>
        <time>2019-08-17T13:26:37Z</time>
      </trkpt>
      <trkpt lat="44.46356" lon="1.03983">
        <ele>212</ele>
        <time>2019-08-17T13:26:38Z</time>
      </trkpt>
      <trkpt lat="44.4636" lon="1.03984">
        <ele>212</ele>
        <time>2019-08-17T13:26:39Z</time>
      </trkpt>
      <trkpt lat="44.46365" lon="1.03984">
        <ele>212</ele>
        <time>2019-08-17T13:26:40Z</time>
      </trkpt>
      <trkpt lat="44.4637" lon="1.03985">
        <ele>212</ele>
        <time>2019-08-17T13:26:41Z</time>
      </trkpt>
      <trkpt lat="44.46374" lon="1.03986">
        <ele>212</ele>
        <time>2019-08-17T13:26:42Z</time>
      </trkpt>
      <trkpt lat="44.46379" lon="1.03987">
        <ele>212</ele>
        <time>2019-08-17T13:26:43Z</time>
      </trkpt>
      <trkpt lat="44.46384" lon="1.03987">
        <ele>212</ele>
        <time>2019-08-17T13:26:44Z</time>
      </trkpt>
      <trkpt lat="44.46389" lon="1.03988">
        <ele>212.00293</ele>
        <time>2019-08-17T13:26:45Z</time>
      </trkpt>
      <trkpt lat="44.46394" lon="1.03989">
        <ele>212.01799</ele>
        <time>2019-08-17T13:26:46Z</time>
      </trkpt>
      <trkpt lat="44.46399" lon="1.0399">
        <ele>212.044754</ele>
        <time>2019-08-17T13:26:47Z</time>
      </trkpt>
      <trkpt lat="44.46404" lon="1.0399">
        <ele>212.083252</ele>
        <time>2019-08-17T13:26:48Z</time>
      </trkpt>
      <trkpt lat="44.4641" lon="1.03991">
        <ele>212.133865</ele>
        <time>2019-08-17T13:26:49Z</time>
      </trkpt>
      <trkpt lat="44.46415" lon="1.03992">
        <ele>212.197021</ele>
        <time>2019-08-17T13:26:50Z</time>
      </trkpt>
      <trkpt lat="44.4642" lon="1.03993">
        <ele>212.270187</ele>
        <time>2019-08-17T13:26:51Z</time>
      </trkpt>
      <trkpt lat="44.46426" lon="1.03993">
        <ele>212.34465</ele>
        <time>2019-08-17T13:26:52Z</time>
      </trkpt>
      <trkpt lat="44.46431" lon="1.03994">
        <ele>212.420334</ele>
        <time>2019-08-17T13:26:53Z</time>
      </trkpt>
      <trkpt lat="44.46436" lon="1.03995">
        <ele>212.496826</ele>
        <time>2019-08-17T13:26:54Z</time>
      </trkpt>
      <trkpt lat="44.46442" lon="1.03996">
        <ele>212.574142</ele>
        <time>2019-08-17T13:26:55Z</time>
      </trkpt>
      <trkpt lat="44.46447" lon="1.03998">
        <ele>212.651855</ele>
        <time>2019-08-17T13:26:56Z</time>
      </trkpt>
      <trkpt lat="44.46452" lon="1.03999">
        <ele>212.729568</ele>
        <time>2019-08-17T13:26:57Z</time>
      </trkpt>
      <trkpt lat="44.46457" lon="1.04001">
        <ele>212.806396</ele>
        <time>2019-08-17T13:26:58Z</time>
      </trkpt>
      <trkpt lat="44.46462" lon="1.04003">
        <ele>212.89502</ele>
        <time>2019-08-17T13:26:59Z</time>
      </trkpt>
      <trkpt lat="44.46468" lon="1.04005">
        <ele>212.997803</ele>
        <time>2019-08-17T13:27:00Z</time>
      </trkpt>
      <trkpt lat="44.46472" lon="1.04006">
        <ele>213.112717</ele>
        <time>2019-08-17T13:27:01Z</time>
      </trkpt>
      <trkpt lat="44.46477" lon="1.04008">
        <ele>213.239746</ele>
        <time>2019-08-17T13:27:02Z</time>
      </trkpt>
      <trkpt lat="44.46481" lon="1.0401">
        <ele>213.378098</ele>
        <time>2019-08-17T13:27:03Z</time>
      </trkpt>
      <trkpt lat="44.46486" lon="1.04012">
        <ele>213.526688</ele>
        <time>2019-08-17T13:27:04Z</time>
      </trkpt>
      <trkpt lat="44.4649" lon="1.04014">
        <ele>213.672363</ele>
        <time>2019-08-17T13:27:05Z</time>
      </trkpt>
      <trkpt lat="44.46494" lon="1.04015">
        <ele>213.813156</ele>
        <time>2019-08-17T13:27:06Z</time>
      </trkpt>
      <trkpt lat="44.46499" lon="1.04017">
        <ele>213.950684</ele>
        <time>2019-08-17T13:27:07Z</time>
      </trkpt>
      <trkpt lat="44.46503" lon="1.04018">
        <ele>214.085129</ele>
        <time>2019-08-17T13:27:08Z</time>
      </trkpt>
      <trkpt lat="44.46507" lon="1.0402">
        <ele>214.216309</ele>
        <time>2019-08-17T13:27:09Z</time>
      </trkpt>
      <trkpt lat="44.46511" lon="1.04021">
        <ele>214.345703</ele>
        <time>2019-08-17T13:27:10Z</time>
      </trkpt>
      <trkpt lat="44.46515" lon="1.04022">
        <ele>214.472656</ele>
        <time>2019-08-17T13:27:11Z</time>
      </trkpt>
      <trkpt lat="44.46518" lon="1.04023">
        <ele>214.598145</ele>
        <time>2019-08-17T13:27:12Z</time>
      </trkpt>
      <trkpt lat="44.46521" lon="1.04025">
        <ele>214.722855</ele>
        <time>2019-08-17T13:27:13Z</time>
      </trkpt>
      <trkpt lat="44.46524" lon="1.04029">
        <ele>214.862061</ele>
        <time>2019-08-17T13:27:14Z</time>
      </trkpt>
      <trkpt lat="44.46524" lon="1.04033">
        <ele>215.015823</ele>
        <time>2019-08-17T13:27:15Z</time>
      </trkpt>
      <trkpt lat="44.46523" lon="1.04037">
        <ele>215.177994</ele>
        <time>2019-08-17T13:27:16Z</time>
      </trkpt>
      <trkpt lat="44.46521" lon="1.04042">
        <ele>215.177994</ele>
        <time>2019-08-17T13:27:17Z</time>
      </trkpt>
      <trkpt lat="44.46518" lon="1.04047">
        <ele>215.344299</ele>
        <time>2019-08-17T13:27:18Z</time>
      </trkpt>
      <trkpt lat="44.46516" lon="1.04053">
        <ele>215.480118</ele>
        <time>2019-08-17T13:27:19Z</time>
      </trkpt>
      <trkpt lat="44.46514" lon="1.04059">
        <ele>215.58754</ele>
        <time>2019-08-17T13:27:20Z</time>
      </trkpt>
      <trkpt lat="44.46511" lon="1.04065">
        <ele>215.653137</ele>
        <time>2019-08-17T13:27:21Z</time>
      </trkpt>
      <trkpt lat="44.46509" lon="1.04071">
        <ele>215.676636</ele>
        <time>2019-08-17T13:27:22Z</time>
      </trkpt>
      <trkpt lat="44.46506" lon="1.04077">
        <ele>215.676636</ele>
        <time>2019-08-17T13:27:23Z</time>
      </trkpt>
      <trkpt lat="44.46503" lon="1.04083">
        <ele>215.676636</ele>
        <time>2019-08-17T13:27:24Z</time>
      </trkpt>
      <trkpt lat="44.465" lon="1.0409">
        <ele>215.676636</ele>
        <time>2019-08-17T13:27:25Z</time>
      </trkpt>
      <trkpt lat="44.46498" lon="1.04096">
        <ele>215.666824</ele>
        <time>2019-08-17T13:27:26Z</time>
      </trkpt>
      <trkpt lat="44.46496" lon="1.04104">
        <ele>215.623947</ele>
        <time>2019-08-17T13:27:27Z</time>
      </trkpt>
      <trkpt lat="44.46494" lon="1.04111">
        <ele>215.623947</ele>
        <time>2019-08-17T13:27:28Z</time>
      </trkpt>
      <trkpt lat="44.46492" lon="1.04118">
        <ele>215.586182</ele>
        <time>2019-08-17T13:27:29Z</time>
      </trkpt>
      <trkpt lat="44.46491" lon="1.04126">
        <ele>215.550354</ele>
        <time>2019-08-17T13:27:30Z</time>
      </trkpt>
      <trkpt lat="44.46489" lon="1.04133">
        <ele>215.480972</ele>
        <time>2019-08-17T13:27:31Z</time>
      </trkpt>
      <trkpt lat="44.46487" lon="1.04141">
        <ele>215.399094</ele>
        <time>2019-08-17T13:27:32Z</time>
      </trkpt>
      <trkpt lat="44.46486" lon="1.04148">
        <ele>215.302597</ele>
        <time>2019-08-17T13:27:33Z</time>
      </trkpt>
      <trkpt lat="44.46484" lon="1.04155">
        <ele>215.195984</ele>
        <time>2019-08-17T13:27:34Z</time>
      </trkpt>
      <trkpt lat="44.46483" lon="1.04162">
        <ele>215.075241</ele>
        <time>2019-08-17T13:27:35Z</time>
      </trkpt>
      <trkpt lat="44.46481" lon="1.04169">
        <ele>214.938614</ele>
        <time>2019-08-17T13:27:36Z</time>
      </trkpt>
      <trkpt lat="44.4648" lon="1.04176">
        <ele>214.820816</ele>
        <time>2019-08-17T13:27:37Z</time>
      </trkpt>
      <trkpt lat="44.46479" lon="1.04183">
        <ele>214.7043</ele>
        <time>2019-08-17T13:27:38Z</time>
      </trkpt>
      <trkpt lat="44.46477" lon="1.0419">
        <ele>214.591125</ele>
        <time>2019-08-17T13:27:39Z</time>
      </trkpt>
      <trkpt lat="44.46476" lon="1.04197">
        <ele>214.484634</ele>
        <time>2019-08-17T13:27:40Z</time>
      </trkpt>
      <trkpt lat="44.46475" lon="1.04204">
        <ele>214.484634</ele>
        <time>2019-08-17T13:27:41Z</time>
      </trkpt>
      <trkpt lat="44.46473" lon="1.0421">
        <ele>214.38295</ele>
        <time>2019-08-17T13:27:42Z</time>
      </trkpt>
      <trkpt lat="44.46472" lon="1.04217">
        <ele>214.287918</ele>
        <time>2019-08-17T13:27:43Z</time>
      </trkpt>
      <trkpt lat="44.46471" lon="1.04223">
        <ele>214.186966</ele>
        <time>2019-08-17T13:27:44Z</time>
      </trkpt>
      <trkpt lat="44.46472" lon="1.04228">
        <ele>214.091141</ele>
        <time>2019-08-17T13:27:45Z</time>
      </trkpt>
      <trkpt lat="44.46473" lon="1.04233">
        <ele>214.002274</ele>
        <time>2019-08-17T13:27:46Z</time>
      </trkpt>
      <trkpt lat="44.46476" lon="1.04236">
        <ele>213.935715</ele>
        <time>2019-08-17T13:27:47Z</time>
      </trkpt>
      <trkpt lat="44.46479" lon="1.04237">
        <ele>213.890945</ele>
        <time>2019-08-17T13:27:48Z</time>
      </trkpt>
      <trkpt lat="44.46482" lon="1.04237">
        <ele>213.885254</ele>
        <time>2019-08-17T13:27:49Z</time>
      </trkpt>
      <trkpt lat="44.46486" lon="1.04237">
        <ele>213.885254</ele>
        <time>2019-08-17T13:27:50Z</time>
      </trkpt>
      <trkpt lat="44.4649" lon="1.04237">
        <ele>213.885254</ele>
        <time>2019-08-17T13:27:51Z</time>
      </trkpt>
      <trkpt lat="44.46494" lon="1.04237">
        <ele>213.93782</ele>
        <time>2019-08-17T13:27:52Z</time>
      </trkpt>
      <trkpt lat="44.46497" lon="1.04237">
        <ele>214.042648</ele>
        <time>2019-08-17T13:27:53Z</time>
      </trkpt>
      <trkpt lat="44.46501" lon="1.04238">
        <ele>214.193848</ele>
        <time>2019-08-17T13:27:54Z</time>
      </trkpt>
      <trkpt lat="44.46504" lon="1.04238">
        <ele>214.369629</ele>
        <time>2019-08-17T13:27:55Z</time>
      </trkpt>
      <trkpt lat="44.46508" lon="1.04238">
        <ele>214.572586</ele>
        <time>2019-08-17T13:27:56Z</time>
      </trkpt>
      <trkpt lat="44.46513" lon="1.04239">
        <ele>214.785324</ele>
        <time>2019-08-17T13:27:57Z</time>
      </trkpt>
      <trkpt lat="44.46517" lon="1.04239">
        <ele>214.99968</ele>
        <time>2019-08-17T13:27:58Z</time>
      </trkpt>
      <trkpt lat="44.46521" lon="1.04239">
        <ele>214.99968</ele>
        <time>2019-08-17T13:27:59Z</time>
      </trkpt>
      <trkpt lat="44.46524" lon="1.0424">
        <ele>215.211594</ele>
        <time>2019-08-17T13:28:00Z</time>
      </trkpt>
      <trkpt lat="44.46529" lon="1.0424">
        <ele>215.416504</ele>
        <time>2019-08-17T13:28:01Z</time>
      </trkpt>
      <trkpt lat="44.46533" lon="1.0424">
        <ele>215.644455</ele>
        <time>2019-08-17T13:28:02Z</time>
      </trkpt>
      <trkpt lat="44.46537" lon="1.04241">
        <ele>215.864578</ele>
        <time>2019-08-17T13:28:03Z</time>
      </trkpt>
      <trkpt lat="44.46542" lon="1.04241">
        <ele>216.080399</ele>
        <time>2019-08-17T13:28:04Z</time>
      </trkpt>
      <trkpt lat="44.46546" lon="1.04241">
        <ele>216.291016</ele>
        <time>2019-08-17T13:28:05Z</time>
      </trkpt>
      <trkpt lat="44.4655" lon="1.04241">
        <ele>216.495193</ele>
        <time>2019-08-17T13:28:06Z</time>
      </trkpt>
      <trkpt lat="44.46553" lon="1.0424">
        <ele>216.699219</ele>
        <time>2019-08-17T13:28:07Z</time>
      </trkpt>
      <trkpt lat="44.46557" lon="1.0424">
        <ele>216.875412</ele>
        <time>2019-08-17T13:28:08Z</time>
      </trkpt>
      <trkpt lat="44.46561" lon="1.0424">
        <ele>217.053223</ele>
        <time>2019-08-17T13:28:09Z</time>
      </trkpt>
      <trkpt lat="44.46565" lon="1.0424">
        <ele>217.230881</ele>
        <time>2019-08-17T13:28:10Z</time>
      </trkpt>
      <trkpt lat="44.46569" lon="1.04239">
        <ele>217.407715</ele>
        <time>2019-08-17T13:28:11Z</time>
      </trkpt>
      <trkpt lat="44.46573" lon="1.04238">
        <ele>217.581711</ele>
        <time>2019-08-17T13:28:12Z</time>
      </trkpt>
      <trkpt lat="44.46576" lon="1.04236">
        <ele>217.755539</ele>
        <time>2019-08-17T13:28:13Z</time>
      </trkpt>
      <trkpt lat="44.4658" lon="1.04234">
        <ele>217.931396</ele>
        <time>2019-08-17T13:28:14Z</time>
      </trkpt>
      <trkpt lat="44.46584" lon="1.04233">
        <ele>218.111893</ele>
        <time>2019-08-17T13:28:15Z</time>
      </trkpt>
      <trkpt lat="44.46587" lon="1.04231">
        <ele>218.298508</ele>
        <time>2019-08-17T13:28:16Z</time>
      </trkpt>
      <trkpt lat="44.46591" lon="1.04229">
        <ele>218.488571</ele>
        <time>2019-08-17T13:28:17Z</time>
      </trkpt>
      <trkpt lat="44.46594" lon="1.04226">
        <ele>218.67598</ele>
        <time>2019-08-17T13:28:18Z</time>
      </trkpt>
      <trkpt lat="44.46598" lon="1.04224">
        <ele>218.850388</ele>
        <time>2019-08-17T13:28:19Z</time>
      </trkpt>
      <trkpt lat="44.46601" lon="1.04221">
        <ele>219.01062</ele>
        <time>2019-08-17T13:28:20Z</time>
      </trkpt>
      <trkpt lat="44.46604" lon="1.04218">
        <ele>219.154663</ele>
        <time>2019-08-17T13:28:21Z</time>
      </trkpt>
      <trkpt lat="44.46607" lon="1.04216">
        <ele>219.279175</ele>
        <time>2019-08-17T13:28:22Z</time>
      </trkpt>
      <trkpt lat="44.4661" lon="1.04214">
        <ele>219.388504</ele>
        <time>2019-08-17T13:28:23Z</time>
      </trkpt>
      <trkpt lat="44.46614" lon="1.04212">
        <ele>219.388504</ele>
        <time>2019-08-17T13:28:24Z</time>
      </trkpt>
      <trkpt lat="44.46617" lon="1.0421">
        <ele>219.488937</ele>
        <time>2019-08-17T13:28:25Z</time>
      </trkpt>
      <trkpt lat="44.46621" lon="1.04209">
        <ele>219.586746</ele>
        <time>2019-08-17T13:28:26Z</time>
      </trkpt>
      <trkpt lat="44.46625" lon="1.04208">
        <ele>219.697586</ele>
        <time>2019-08-17T13:28:27Z</time>
      </trkpt>
      <trkpt lat="44.46629" lon="1.04207">
        <ele>219.808594</ele>
        <time>2019-08-17T13:28:28Z</time>
      </trkpt>
      <trkpt lat="44.46633" lon="1.04206">
        <ele>219.921066</ele>
        <time>2019-08-17T13:28:29Z</time>
      </trkpt>
      <trkpt lat="44.46637" lon="1.04206">
        <ele>220.036789</ele>
        <time>2019-08-17T13:28:30Z</time>
      </trkpt>
      <trkpt lat="44.46641" lon="1.04205">
        <ele>220.155594</ele>
        <time>2019-08-17T13:28:31Z</time>
      </trkpt>
      <trkpt lat="44.46645" lon="1.04205">
        <ele>220.278641</ele>
        <time>2019-08-17T13:28:32Z</time>
      </trkpt>
      <trkpt lat="44.4665" lon="1.04204">
        <ele>220.391113</ele>
        <time>2019-08-17T13:28:33Z</time>
      </trkpt>
      <trkpt lat="44.46654" lon="1.04204">
        <ele>220.506668</ele>
        <time>2019-08-17T13:28:34Z</time>
      </trkpt>
      <trkpt lat="44.46658" lon="1.04204">
        <ele>220.626465</ele>
        <time>2019-08-17T13:28:35Z</time>
      </trkpt>
      <trkpt lat="44.46663" lon="1.04204">
        <ele>220.74498</ele>
        <time>2019-08-17T13:28:36Z</time>
      </trkpt>
      <trkpt lat="44.46668" lon="1.04204">
        <ele>220.859619</ele>
        <time>2019-08-17T13:28:37Z</time>
      </trkpt>
      <trkpt lat="44.46673" lon="1.04203">
        <ele>220.96965</ele>
        <time>2019-08-17T13:28:38Z</time>
      </trkpt>
      <trkpt lat="44.46677" lon="1.04203">
        <ele>220.96965</ele>
        <time>2019-08-17T13:28:39Z</time>
      </trkpt>
      <trkpt lat="44.46683" lon="1.04202">
        <ele>221.076828</ele>
        <time>2019-08-17T13:28:40Z</time>
      </trkpt>
      <trkpt lat="44.46687" lon="1.04202">
        <ele>221.180801</ele>
        <time>2019-08-17T13:28:41Z</time>
      </trkpt>
      <trkpt lat="44.46692" lon="1.042">
        <ele>221.296799</ele>
        <time>2019-08-17T13:28:42Z</time>
      </trkpt>
      <trkpt lat="44.46697" lon="1.04199">
        <ele>221.411972</ele>
        <time>2019-08-17T13:28:43Z</time>
      </trkpt>
      <trkpt lat="44.46702" lon="1.04199">
        <ele>221.529739</ele>
        <time>2019-08-17T13:28:44Z</time>
      </trkpt>
      <trkpt lat="44.46706" lon="1.04199">
        <ele>221.651505</ele>
        <time>2019-08-17T13:28:45Z</time>
      </trkpt>
      <trkpt lat="44.46711" lon="1.04198">
        <ele>221.775833</ele>
        <time>2019-08-17T13:28:46Z</time>
      </trkpt>
      <trkpt lat="44.46716" lon="1.04198">
        <ele>221.901291</ele>
        <time>2019-08-17T13:28:47Z</time>
      </trkpt>
      <trkpt lat="44.46721" lon="1.04199">
        <ele>222.01088</ele>
        <time>2019-08-17T13:28:48Z</time>
      </trkpt>
      <trkpt lat="44.46726" lon="1.042">
        <ele>222.121323</ele>
        <time>2019-08-17T13:28:49Z</time>
      </trkpt>
      <trkpt lat="44.46731" lon="1.04201">
        <ele>222.231064</ele>
        <time>2019-08-17T13:28:50Z</time>
      </trkpt>
      <trkpt lat="44.46736" lon="1.04201">
        <ele>222.332336</ele>
        <time>2019-08-17T13:28:51Z</time>
      </trkpt>
      <trkpt lat="44.46741" lon="1.04202">
        <ele>222.423477</ele>
        <time>2019-08-17T13:28:52Z</time>
      </trkpt>
      <trkpt lat="44.46745" lon="1.04203">
        <ele>222.506348</ele>
        <time>2019-08-17T13:28:53Z</time>
      </trkpt>
      <trkpt lat="44.4675" lon="1.04204">
        <ele>222.582336</ele>
        <time>2019-08-17T13:28:54Z</time>
      </trkpt>
      <trkpt lat="44.46754" lon="1.04206">
        <ele>222.651169</ele>
        <time>2019-08-17T13:28:55Z</time>
      </trkpt>
      <trkpt lat="44.46758" lon="1.04209">
        <ele>222.712234</ele>
        <time>2019-08-17T13:28:56Z</time>
      </trkpt>
      <trkpt lat="44.46761" lon="1.04213">
        <ele>222.770096</ele>
        <time>2019-08-17T13:28:57Z</time>
      </trkpt>
      <trkpt lat="44.46764" lon="1.04218">
        <ele>222.823898</ele>
        <time>2019-08-17T13:28:58Z</time>
      </trkpt>
      <trkpt lat="44.46766" lon="1.04225">
        <ele>222.861496</ele>
        <time>2019-08-17T13:28:59Z</time>
      </trkpt>
      <trkpt lat="44.46767" lon="1.04232">
        <ele>222.877274</ele>
        <time>2019-08-17T13:29:00Z</time>
      </trkpt>
      <trkpt lat="44.46768" lon="1.04239">
        <ele>222.877274</ele>
        <time>2019-08-17T13:29:01Z</time>
      </trkpt>
      <trkpt lat="44.46769" lon="1.04247">
        <ele>222.877274</ele>
        <time>2019-08-17T13:29:02Z</time>
      </trkpt>
      <trkpt lat="44.46771" lon="1.04255">
        <ele>222.877274</ele>
        <time>2019-08-17T13:29:03Z</time>
      </trkpt>
      <trkpt lat="44.46772" lon="1.04264">
        <ele>222.868332</ele>
        <time>2019-08-17T13:29:04Z</time>
      </trkpt>
      <trkpt lat="44.46772" lon="1.04273">
        <ele>222.817795</ele>
        <time>2019-08-17T13:29:05Z</time>
      </trkpt>
      <trkpt lat="44.46774" lon="1.04283">
        <ele>222.742996</ele>
        <time>2019-08-17T13:29:06Z</time>
      </trkpt>
      <trkpt lat="44.46775" lon="1.04292">
        <ele>222.643555</ele>
        <time>2019-08-17T13:29:07Z</time>
      </trkpt>
      <trkpt lat="44.46775" lon="1.04302">
        <ele>222.531418</ele>
        <time>2019-08-17T13:29:08Z</time>
      </trkpt>
      <trkpt lat="44.46777" lon="1.04312">
        <ele>222.409988</ele>
        <time>2019-08-17T13:29:09Z</time>
      </trkpt>
      <trkpt lat="44.46779" lon="1.04323">
        <ele>222.28215</ele>
        <time>2019-08-17T13:29:10Z</time>
      </trkpt>
      <trkpt lat="44.4678" lon="1.04333">
        <ele>222.28215</ele>
        <time>2019-08-17T13:29:11Z</time>
      </trkpt>
      <trkpt lat="44.46781" lon="1.04344">
        <ele>222.164383</ele>
        <time>2019-08-17T13:29:12Z</time>
      </trkpt>
      <trkpt lat="44.46783" lon="1.04356">
        <ele>222.042236</ele>
        <time>2019-08-17T13:29:13Z</time>
      </trkpt>
      <trkpt lat="44.46784" lon="1.04367">
        <ele>221.895752</ele>
        <time>2019-08-17T13:29:14Z</time>
      </trkpt>
      <trkpt lat="44.46786" lon="1.04379">
        <ele>221.744949</ele>
        <time>2019-08-17T13:29:15Z</time>
      </trkpt>
      <trkpt lat="44.46788" lon="1.04391">
        <ele>221.589676</ele>
        <time>2019-08-17T13:29:16Z</time>
      </trkpt>
      <trkpt lat="44.46789" lon="1.04403">
        <ele>221.430664</ele>
        <time>2019-08-17T13:29:17Z</time>
      </trkpt>
      <trkpt lat="44.46791" lon="1.04415">
        <ele>221.246506</ele>
        <time>2019-08-17T13:29:18Z</time>
      </trkpt>
      <trkpt lat="44.46792" lon="1.04428">
        <ele>221.024658</ele>
        <time>2019-08-17T13:29:19Z</time>
      </trkpt>
      <trkpt lat="44.46794" lon="1.0444">
        <ele>221.024658</ele>
        <time>2019-08-17T13:29:20Z</time>
      </trkpt>
      <trkpt lat="44.46795" lon="1.04452">
        <ele>220.788651</ele>
        <time>2019-08-17T13:29:21Z</time>
      </trkpt>
      <trkpt lat="44.46797" lon="1.04464">
        <ele>220.51619</ele>
        <time>2019-08-17T13:29:22Z</time>
      </trkpt>
      <trkpt lat="44.46798" lon="1.04475">
        <ele>220.146896</ele>
        <time>2019-08-17T13:29:23Z</time>
      </trkpt>
      <trkpt lat="44.468" lon="1.04487">
        <ele>220.146896</ele>
        <time>2019-08-17T13:29:24Z</time>
      </trkpt>
      <trkpt lat="44.468" lon="1.04498">
        <ele>219.714188</ele>
        <time>2019-08-17T13:29:25Z</time>
      </trkpt>
      <trkpt lat="44.46801" lon="1.04509">
        <ele>219.241043</ele>
        <time>2019-08-17T13:29:26Z</time>
      </trkpt>
      <trkpt lat="44.46801" lon="1.04519">
        <ele>218.6595</ele>
        <time>2019-08-17T13:29:27Z</time>
      </trkpt>
      <trkpt lat="44.46801" lon="1.04529">
        <ele>218.054932</ele>
        <time>2019-08-17T13:29:28Z</time>
      </trkpt>
      <trkpt lat="44.468" lon="1.04538">
        <ele>217.435135</ele>
        <time>2019-08-17T13:29:29Z</time>
      </trkpt>
      <trkpt lat="44.46797" lon="1.04546">
        <ele>216.887131</ele>
        <time>2019-08-17T13:29:30Z</time>
      </trkpt>
      <trkpt lat="44.46794" lon="1.04554">
        <ele>216.887131</ele>
        <time>2019-08-17T13:29:31Z</time>
      </trkpt>
      <trkpt lat="44.46791" lon="1.04561">
        <ele>216.37883</ele>
        <time>2019-08-17T13:29:32Z</time>
      </trkpt>
      <trkpt lat="44.46788" lon="1.04568">
        <ele>215.914139</ele>
        <time>2019-08-17T13:29:33Z</time>
      </trkpt>
      <trkpt lat="44.46784" lon="1.04575">
        <ele>215.539307</ele>
        <time>2019-08-17T13:29:34Z</time>
      </trkpt>
      <trkpt lat="44.46781" lon="1.04582">
        <ele>215.539307</ele>
        <time>2019-08-17T13:29:35Z</time>
      </trkpt>
      <trkpt lat="44.46778" lon="1.04589">
        <ele>215.210129</ele>
        <time>2019-08-17T13:29:36Z</time>
      </trkpt>
      <trkpt lat="44.46775" lon="1.04597">
        <ele>214.921219</ele>
        <time>2019-08-17T13:29:37Z</time>
      </trkpt>
      <trkpt lat="44.46772" lon="1.04604">
        <ele>214.604172</ele>
        <time>2019-08-17T13:29:38Z</time>
      </trkpt>
      <trkpt lat="44.46769" lon="1.04611">
        <ele>214.291916</ele>
        <time>2019-08-17T13:29:39Z</time>
      </trkpt>
      <trkpt lat="44.46767" lon="1.04618">
        <ele>214.291916</ele>
        <time>2019-08-17T13:29:40Z</time>
      </trkpt>
      <trkpt lat="44.46765" lon="1.04626">
        <ele>213.980881</ele>
        <time>2019-08-17T13:29:41Z</time>
      </trkpt>
      <trkpt lat="44.46762" lon="1.04633">
        <ele>213.705566</ele>
        <time>2019-08-17T13:29:42Z</time>
      </trkpt>
      <trkpt lat="44.4676" lon="1.04639">
        <ele>213.383224</ele>
        <time>2019-08-17T13:29:43Z</time>
      </trkpt>
      <trkpt lat="44.46758" lon="1.04646">
        <ele>213.383224</ele>
        <time>2019-08-17T13:29:44Z</time>
      </trkpt>
      <trkpt lat="44.46756" lon="1.04652">
        <ele>213.054031</ele>
        <time>2019-08-17T13:29:45Z</time>
      </trkpt>
      <trkpt lat="44.46756" lon="1.04658">
        <ele>212.763184</ele>
        <time>2019-08-17T13:29:46Z</time>
      </trkpt>
      <trkpt lat="44.46756" lon="1.04663">
        <ele>212.763184</ele>
        <time>2019-08-17T13:29:47Z</time>
      </trkpt>
      <trkpt lat="44.46758" lon="1.04668">
        <ele>212.443985</ele>
        <time>2019-08-17T13:29:48Z</time>
      </trkpt>
      <trkpt lat="44.46762" lon="1.04671">
        <ele>212.156937</ele>
        <time>2019-08-17T13:29:49Z</time>
      </trkpt>
      <trkpt lat="44.46766" lon="1.04674">
        <ele>211.912308</ele>
        <time>2019-08-17T13:29:50Z</time>
      </trkpt>
      <trkpt lat="44.4677" lon="1.04675">
        <ele>211.912308</ele>
        <time>2019-08-17T13:29:51Z</time>
      </trkpt>
      <trkpt lat="44.46774" lon="1.04677">
        <ele>211.775269</ele>
        <time>2019-08-17T13:29:52Z</time>
      </trkpt>
      <trkpt lat="44.46778" lon="1.04679">
        <ele>211.693237</ele>
        <time>2019-08-17T13:29:53Z</time>
      </trkpt>
      <trkpt lat="44.46782" lon="1.04681">
        <ele>211.664139</ele>
        <time>2019-08-17T13:29:54Z</time>
      </trkpt>
      <trkpt lat="44.46785" lon="1.04683">
        <ele>211.664139</ele>
        <time>2019-08-17T13:29:55Z</time>
      </trkpt>
      <trkpt lat="44.46789" lon="1.04684">
        <ele>211.664139</ele>
        <time>2019-08-17T13:29:56Z</time>
      </trkpt>
      <trkpt lat="44.46793" lon="1.04685">
        <ele>211.720032</ele>
        <time>2019-08-17T13:29:57Z</time>
      </trkpt>
      <trkpt lat="44.46797" lon="1.04687">
        <ele>211.797989</ele>
        <time>2019-08-17T13:29:58Z</time>
      </trkpt>
      <trkpt lat="44.46801" lon="1.04689">
        <ele>211.880569</ele>
        <time>2019-08-17T13:29:59Z</time>
      </trkpt>
      <trkpt lat="44.46804" lon="1.04691">
        <ele>211.94397</ele>
        <time>2019-08-17T13:30:00Z</time>
      </trkpt>
      <trkpt lat="44.46808" lon="1.04693">
        <ele>212</ele>
        <time>2019-08-17T13:30:01Z</time>
      </trkpt>
      <trkpt lat="44.46812" lon="1.04694">
        <ele>212.048843</ele>
        <time>2019-08-17T13:30:02Z</time>
      </trkpt>
      <trkpt lat="44.46816" lon="1.04696">
        <ele>212.091263</ele>
        <time>2019-08-17T13:30:03Z</time>
      </trkpt>
      <trkpt lat="44.46819" lon="1.04698">
        <ele>212.129959</ele>
        <time>2019-08-17T13:30:04Z</time>
      </trkpt>
      <trkpt lat="44.46823" lon="1.047">
        <ele>212.171036</ele>
        <time>2019-08-17T13:30:05Z</time>
      </trkpt>
      <trkpt lat="44.46826" lon="1.04703">
        <ele>212.214783</ele>
        <time>2019-08-17T13:30:06Z</time>
      </trkpt>
      <trkpt lat="44.46829" lon="1.04706">
        <ele>212.214783</ele>
        <time>2019-08-17T13:30:07Z</time>
      </trkpt>
      <trkpt lat="44.46832" lon="1.04708">
        <ele>212.261276</ele>
        <time>2019-08-17T13:30:08Z</time>
      </trkpt>
      <trkpt lat="44.46836" lon="1.0471">
        <ele>212.310867</ele>
        <time>2019-08-17T13:30:09Z</time>
      </trkpt>
      <trkpt lat="44.4684" lon="1.04711">
        <ele>212.37471</ele>
        <time>2019-08-17T13:30:10Z</time>
      </trkpt>
      <trkpt lat="44.46843" lon="1.04713">
        <ele>212.441711</ele>
        <time>2019-08-17T13:30:11Z</time>
      </trkpt>
      <trkpt lat="44.46846" lon="1.04714">
        <ele>212.512024</ele>
        <time>2019-08-17T13:30:12Z</time>
      </trkpt>
      <trkpt lat="44.46849" lon="1.04716">
        <ele>212.584702</ele>
        <time>2019-08-17T13:30:13Z</time>
      </trkpt>
      <trkpt lat="44.46852" lon="1.04717">
        <ele>212.65834</ele>
        <time>2019-08-17T13:30:14Z</time>
      </trkpt>
      <trkpt lat="44.46855" lon="1.0472">
        <ele>212.732773</ele>
        <time>2019-08-17T13:30:15Z</time>
      </trkpt>
      <trkpt lat="44.46858" lon="1.04723">
        <ele>212.797485</ele>
        <time>2019-08-17T13:30:16Z</time>
      </trkpt>
      <trkpt lat="44.46861" lon="1.04726">
        <ele>212.863052</ele>
        <time>2019-08-17T13:30:17Z</time>
      </trkpt>
      <trkpt lat="44.46864" lon="1.0473">
        <ele>212.935043</ele>
        <time>2019-08-17T13:30:18Z</time>
      </trkpt>
      <trkpt lat="44.46866" lon="1.04734">
        <ele>213.017868</ele>
        <time>2019-08-17T13:30:19Z</time>
      </trkpt>
      <trkpt lat="44.46869" lon="1.04739">
        <ele>213.113113</ele>
        <time>2019-08-17T13:30:20Z</time>
      </trkpt>
      <trkpt lat="44.4687" lon="1.04744">
        <ele>213.113113</ele>
        <time>2019-08-17T13:30:21Z</time>
      </trkpt>
      <trkpt lat="44.46873" lon="1.04749">
        <ele>213.220535</ele>
        <time>2019-08-17T13:30:22Z</time>
      </trkpt>
      <trkpt lat="44.46875" lon="1.04754">
        <ele>213.339539</ele>
        <time>2019-08-17T13:30:23Z</time>
      </trkpt>
      <trkpt lat="44.46877" lon="1.04759">
        <ele>213.489426</ele>
        <time>2019-08-17T13:30:24Z</time>
      </trkpt>
      <trkpt lat="44.4688" lon="1.04764">
        <ele>213.645584</ele>
        <time>2019-08-17T13:30:25Z</time>
      </trkpt>
      <trkpt lat="44.46882" lon="1.04769">
        <ele>213.645584</ele>
        <time>2019-08-17T13:30:26Z</time>
      </trkpt>
      <trkpt lat="44.46885" lon="1.04774">
        <ele>213.803299</ele>
        <time>2019-08-17T13:30:27Z</time>
      </trkpt>
      <trkpt lat="44.46887" lon="1.04779">
        <ele>213.962646</ele>
        <time>2019-08-17T13:30:28Z</time>
      </trkpt>
      <trkpt lat="44.4689" lon="1.04785">
        <ele>214.146652</ele>
        <time>2019-08-17T13:30:29Z</time>
      </trkpt>
      <trkpt lat="44.46892" lon="1.0479">
        <ele>214.146652</ele>
        <time>2019-08-17T13:30:30Z</time>
      </trkpt>
      <trkpt lat="44.46895" lon="1.04796">
        <ele>214.332764</ele>
        <time>2019-08-17T13:30:31Z</time>
      </trkpt>
      <trkpt lat="44.46897" lon="1.04802">
        <ele>214.501221</ele>
        <time>2019-08-17T13:30:32Z</time>
      </trkpt>
      <trkpt lat="44.46899" lon="1.04807">
        <ele>214.717041</ele>
        <time>2019-08-17T13:30:33Z</time>
      </trkpt>
      <trkpt lat="44.46902" lon="1.04813">
        <ele>214.948486</ele>
        <time>2019-08-17T13:30:34Z</time>
      </trkpt>
      <trkpt lat="44.46904" lon="1.04818">
        <ele>215.195068</ele>
        <time>2019-08-17T13:30:35Z</time>
      </trkpt>
      <trkpt lat="44.46907" lon="1.04824">
        <ele>215.433029</ele>
        <time>2019-08-17T13:30:36Z</time>
      </trkpt>
      <trkpt lat="44.46909" lon="1.04829">
        <ele>215.684326</ele>
        <time>2019-08-17T13:30:37Z</time>
      </trkpt>
      <trkpt lat="44.46912" lon="1.04834">
        <ele>215.948563</ele>
        <time>2019-08-17T13:30:38Z</time>
      </trkpt>
      <trkpt lat="44.46914" lon="1.04839">
        <ele>216.179031</ele>
        <time>2019-08-17T13:30:39Z</time>
      </trkpt>
      <trkpt lat="44.46916" lon="1.04844">
        <ele>216.406418</ele>
        <time>2019-08-17T13:30:40Z</time>
      </trkpt>
      <trkpt lat="44.46918" lon="1.04849">
        <ele>216.632004</ele>
        <time>2019-08-17T13:30:41Z</time>
      </trkpt>
      <trkpt lat="44.4692" lon="1.04854">
        <ele>216.855301</ele>
        <time>2019-08-17T13:30:42Z</time>
      </trkpt>
      <trkpt lat="44.46922" lon="1.04859">
        <ele>217.077148</ele>
        <time>2019-08-17T13:30:43Z</time>
      </trkpt>
      <trkpt lat="44.46924" lon="1.04864">
        <ele>217.077148</ele>
        <time>2019-08-17T13:30:44Z</time>
      </trkpt>
      <trkpt lat="44.46927" lon="1.04867">
        <ele>217.293945</ele>
        <time>2019-08-17T13:30:45Z</time>
      </trkpt>
      <trkpt lat="44.46931" lon="1.04871">
        <ele>217.497314</ele>
        <time>2019-08-17T13:30:46Z</time>
      </trkpt>
      <trkpt lat="44.46935" lon="1.04874">
        <ele>217.705276</ele>
        <time>2019-08-17T13:30:47Z</time>
      </trkpt>
      <trkpt lat="44.46938" lon="1.04878">
        <ele>217.895813</ele>
        <time>2019-08-17T13:30:48Z</time>
      </trkpt>
      <trkpt lat="44.46942" lon="1.04881">
        <ele>218.070358</ele>
        <time>2019-08-17T13:30:49Z</time>
      </trkpt>
      <trkpt lat="44.46946" lon="1.04884">
        <ele>218.227844</ele>
        <time>2019-08-17T13:30:50Z</time>
      </trkpt>
      <trkpt lat="44.4695" lon="1.04887">
        <ele>218.374878</ele>
        <time>2019-08-17T13:30:51Z</time>
      </trkpt>
      <trkpt lat="44.46954" lon="1.0489">
        <ele>218.521545</ele>
        <time>2019-08-17T13:30:52Z</time>
      </trkpt>
      <trkpt lat="44.46958" lon="1.04894">
        <ele>218.652817</ele>
        <time>2019-08-17T13:30:53Z</time>
      </trkpt>
      <trkpt lat="44.46962" lon="1.04897">
        <ele>218.790298</ele>
        <time>2019-08-17T13:30:54Z</time>
      </trkpt>
      <trkpt lat="44.46967" lon="1.049">
        <ele>218.932922</ele>
        <time>2019-08-17T13:30:55Z</time>
      </trkpt>
      <trkpt lat="44.46971" lon="1.04903">
        <ele>219.082031</ele>
        <time>2019-08-17T13:30:56Z</time>
      </trkpt>
      <trkpt lat="44.46975" lon="1.04906">
        <ele>219.237061</ele>
        <time>2019-08-17T13:30:57Z</time>
      </trkpt>
      <trkpt lat="44.4698" lon="1.04909">
        <ele>219.398438</ele>
        <time>2019-08-17T13:30:58Z</time>
      </trkpt>
      <trkpt lat="44.46983" lon="1.04913">
        <ele>219.565308</ele>
        <time>2019-08-17T13:30:59Z</time>
      </trkpt>
      <trkpt lat="44.46988" lon="1.04916">
        <ele>219.737717</ele>
        <time>2019-08-17T13:31:00Z</time>
      </trkpt>
      <trkpt lat="44.46992" lon="1.04919">
        <ele>219.918381</ele>
        <time>2019-08-17T13:31:01Z</time>
      </trkpt>
      <trkpt lat="44.46996" lon="1.04922">
        <ele>220.106201</ele>
        <time>2019-08-17T13:31:02Z</time>
      </trkpt>
      <trkpt lat="44.47" lon="1.04925">
        <ele>220.300491</ele>
        <time>2019-08-17T13:31:03Z</time>
      </trkpt>
      <trkpt lat="44.47004" lon="1.04928">
        <ele>220.504639</ele>
        <time>2019-08-17T13:31:04Z</time>
      </trkpt>
      <trkpt lat="44.47008" lon="1.04931">
        <ele>220.742554</ele>
        <time>2019-08-17T13:31:05Z</time>
      </trkpt>
      <trkpt lat="44.47012" lon="1.04934">
        <ele>220.742554</ele>
        <time>2019-08-17T13:31:06Z</time>
      </trkpt>
      <trkpt lat="44.47016" lon="1.04937">
        <ele>221.012009</ele>
        <time>2019-08-17T13:31:07Z</time>
      </trkpt>
      <trkpt lat="44.4702" lon="1.0494">
        <ele>221.30986</ele>
        <time>2019-08-17T13:31:08Z</time>
      </trkpt>
      <trkpt lat="44.47024" lon="1.04944">
        <ele>221.704056</ele>
        <time>2019-08-17T13:31:09Z</time>
      </trkpt>
      <trkpt lat="44.47028" lon="1.04947">
        <ele>222.127075</ele>
        <time>2019-08-17T13:31:10Z</time>
      </trkpt>
      <trkpt lat="44.47032" lon="1.0495">
        <ele>222.573654</ele>
        <time>2019-08-17T13:31:11Z</time>
      </trkpt>
      <trkpt lat="44.47036" lon="1.04954">
        <ele>223.020996</ele>
        <time>2019-08-17T13:31:12Z</time>
      </trkpt>
      <trkpt lat="44.47039" lon="1.04957">
        <ele>223.470139</ele>
        <time>2019-08-17T13:31:13Z</time>
      </trkpt>
      <trkpt lat="44.47043" lon="1.0496">
        <ele>223.91951</ele>
        <time>2019-08-17T13:31:14Z</time>
      </trkpt>
      <trkpt lat="44.47047" lon="1.04964">
        <ele>224.300705</ele>
        <time>2019-08-17T13:31:15Z</time>
      </trkpt>
      <trkpt lat="44.47051" lon="1.04967">
        <ele>224.679443</ele>
        <time>2019-08-17T13:31:16Z</time>
      </trkpt>
      <trkpt lat="44.47055" lon="1.0497">
        <ele>225.055588</ele>
        <time>2019-08-17T13:31:17Z</time>
      </trkpt>
      <trkpt lat="44.47059" lon="1.04973">
        <ele>225.429031</ele>
        <time>2019-08-17T13:31:18Z</time>
      </trkpt>
      <trkpt lat="44.47062" lon="1.04976">
        <ele>225.800705</ele>
        <time>2019-08-17T13:31:19Z</time>
      </trkpt>
      <trkpt lat="44.47066" lon="1.0498">
        <ele>226.174561</ele>
        <time>2019-08-17T13:31:20Z</time>
      </trkpt>
      <trkpt lat="44.47069" lon="1.04983">
        <ele>226.546219</ele>
        <time>2019-08-17T13:31:21Z</time>
      </trkpt>
      <trkpt lat="44.47073" lon="1.04986">
        <ele>226.891678</ele>
        <time>2019-08-17T13:31:22Z</time>
      </trkpt>
      <trkpt lat="44.47077" lon="1.0499">
        <ele>227.20134</ele>
        <time>2019-08-17T13:31:23Z</time>
      </trkpt>
      <trkpt lat="44.47081" lon="1.04993">
        <ele>227.20134</ele>
        <time>2019-08-17T13:31:24Z</time>
      </trkpt>
      <trkpt lat="44.47085" lon="1.04997">
        <ele>227.473709</ele>
        <time>2019-08-17T13:31:25Z</time>
      </trkpt>
      <trkpt lat="44.47089" lon="1.05">
        <ele>227.709152</ele>
        <time>2019-08-17T13:31:26Z</time>
      </trkpt>
      <trkpt lat="44.47094" lon="1.05004">
        <ele>227.907547</ele>
        <time>2019-08-17T13:31:27Z</time>
      </trkpt>
      <trkpt lat="44.47098" lon="1.05008">
        <ele>228.055984</ele>
        <time>2019-08-17T13:31:28Z</time>
      </trkpt>
      <trkpt lat="44.47103" lon="1.05012">
        <ele>228.180252</ele>
        <time>2019-08-17T13:31:29Z</time>
      </trkpt>
      <trkpt lat="44.47108" lon="1.05017">
        <ele>228.290451</ele>
        <time>2019-08-17T13:31:30Z</time>
      </trkpt>
      <trkpt lat="44.47113" lon="1.05021">
        <ele>228.386551</ele>
        <time>2019-08-17T13:31:31Z</time>
      </trkpt>
      <trkpt lat="44.47118" lon="1.05026">
        <ele>228.467606</ele>
        <time>2019-08-17T13:31:32Z</time>
      </trkpt>
      <trkpt lat="44.47124" lon="1.0503">
        <ele>228.533127</ele>
        <time>2019-08-17T13:31:33Z</time>
      </trkpt>
      <trkpt lat="44.47129" lon="1.05035">
        <ele>228.533127</ele>
        <time>2019-08-17T13:31:34Z</time>
      </trkpt>
      <trkpt lat="44.47135" lon="1.0504">
        <ele>228.600662</ele>
        <time>2019-08-17T13:31:35Z</time>
      </trkpt>
      <trkpt lat="44.4714" lon="1.05045">
        <ele>228.600662</ele>
        <time>2019-08-17T13:31:36Z</time>
      </trkpt>
      <trkpt lat="44.47146" lon="1.0505">
        <ele>228.600662</ele>
        <time>2019-08-17T13:31:37Z</time>
      </trkpt>
      <trkpt lat="44.47152" lon="1.05055">
        <ele>228.571121</ele>
        <time>2019-08-17T13:31:38Z</time>
      </trkpt>
      <trkpt lat="44.47158" lon="1.05059">
        <ele>228.430099</ele>
        <time>2019-08-17T13:31:39Z</time>
      </trkpt>
      <trkpt lat="44.47163" lon="1.05063">
        <ele>228.181442</ele>
        <time>2019-08-17T13:31:40Z</time>
      </trkpt>
      <trkpt lat="44.47168" lon="1.05068">
        <ele>227.82991</ele>
        <time>2019-08-17T13:31:41Z</time>
      </trkpt>
      <trkpt lat="44.47173" lon="1.05071">
        <ele>227.82991</ele>
        <time>2019-08-17T13:31:42Z</time>
      </trkpt>
      <trkpt lat="44.47176" lon="1.05075">
        <ele>227.38414</ele>
        <time>2019-08-17T13:31:43Z</time>
      </trkpt>
      <trkpt lat="44.4718" lon="1.05078">
        <ele>226.855515</ele>
        <time>2019-08-17T13:31:44Z</time>
      </trkpt>
      <trkpt lat="44.47183" lon="1.05081">
        <ele>226.316299</ele>
        <time>2019-08-17T13:31:45Z</time>
      </trkpt>
      <trkpt lat="44.47186" lon="1.05084">
        <ele>225.843765</ele>
        <time>2019-08-17T13:31:46Z</time>
      </trkpt>
      <trkpt lat="44.47189" lon="1.05087">
        <ele>225.436569</ele>
        <time>2019-08-17T13:31:47Z</time>
      </trkpt>
      <trkpt lat="44.47192" lon="1.0509">
        <ele>225.100296</ele>
        <time>2019-08-17T13:31:48Z</time>
      </trkpt>
      <trkpt lat="44.47192" lon="1.05092">
        <ele>224.831238</ele>
        <time>2019-08-17T13:31:49Z</time>
      </trkpt>
      <trkpt lat="44.47192" lon="1.05094">
        <ele>224.627579</ele>
        <time>2019-08-17T13:31:50Z</time>
      </trkpt>
      <trkpt lat="44.47192" lon="1.05097">
        <ele>224.538986</ele>
        <time>2019-08-17T13:31:51Z</time>
      </trkpt>
      <trkpt lat="44.47191" lon="1.05099">
        <ele>224.51503</ele>
        <time>2019-08-17T13:31:52Z</time>
      </trkpt>
      <trkpt lat="44.47189" lon="1.05102">
        <ele>224.51503</ele>
        <time>2019-08-17T13:31:53Z</time>
      </trkpt>
      <trkpt lat="44.47186" lon="1.05106">
        <ele>224.51503</ele>
        <time>2019-08-17T13:31:54Z</time>
      </trkpt>
      <trkpt lat="44.47184" lon="1.05109">
        <ele>224.51503</ele>
        <time>2019-08-17T13:31:55Z</time>
      </trkpt>
      <trkpt lat="44.47182" lon="1.05113">
        <ele>224.561035</ele>
        <time>2019-08-17T13:31:56Z</time>
      </trkpt>
      <trkpt lat="44.4718" lon="1.05116">
        <ele>224.675415</ele>
        <time>2019-08-17T13:31:57Z</time>
      </trkpt>
      <trkpt lat="44.47178" lon="1.0512">
        <ele>224.902832</ele>
        <time>2019-08-17T13:31:58Z</time>
      </trkpt>
      <trkpt lat="44.47176" lon="1.05124">
        <ele>225.180161</ele>
        <time>2019-08-17T13:31:59Z</time>
      </trkpt>
      <trkpt lat="44.47175" lon="1.05127">
        <ele>225.484146</ele>
        <time>2019-08-17T13:32:00Z</time>
      </trkpt>
      <trkpt lat="44.47173" lon="1.0513">
        <ele>225.803604</ele>
        <time>2019-08-17T13:32:01Z</time>
      </trkpt>
      <trkpt lat="44.47171" lon="1.05133">
        <ele>226.124252</ele>
        <time>2019-08-17T13:32:02Z</time>
      </trkpt>
      <trkpt lat="44.4717" lon="1.05136">
        <ele>226.426559</ele>
        <time>2019-08-17T13:32:03Z</time>
      </trkpt>
      <trkpt lat="44.47168" lon="1.05139">
        <ele>226.649292</ele>
        <time>2019-08-17T13:32:04Z</time>
      </trkpt>
      <trkpt lat="44.47167" lon="1.05141">
        <ele>226.845108</ele>
        <time>2019-08-17T13:32:05Z</time>
      </trkpt>
      <trkpt lat="44.47166" lon="1.05143">
        <ele>227.011047</ele>
        <time>2019-08-17T13:32:06Z</time>
      </trkpt>
      <trkpt lat="44.47164" lon="1.05145">
        <ele>227.144653</ele>
        <time>2019-08-17T13:32:07Z</time>
      </trkpt>
      <trkpt lat="44.47163" lon="1.05146">
        <ele>227.250168</ele>
        <time>2019-08-17T13:32:08Z</time>
      </trkpt>
      <trkpt lat="44.47161" lon="1.05148">
        <ele>227.338455</ele>
        <time>2019-08-17T13:32:09Z</time>
      </trkpt>
      <trkpt lat="44.4716" lon="1.0515">
        <ele>227.419144</ele>
        <time>2019-08-17T13:32:10Z</time>
      </trkpt>
      <trkpt lat="44.47159" lon="1.05151">
        <ele>227.491623</ele>
        <time>2019-08-17T13:32:11Z</time>
      </trkpt>
      <trkpt lat="44.47158" lon="1.05153">
        <ele>227.557861</ele>
        <time>2019-08-17T13:32:12Z</time>
      </trkpt>
      <trkpt lat="44.47157" lon="1.05154">
        <ele>227.617722</ele>
        <time>2019-08-17T13:32:13Z</time>
      </trkpt>
      <trkpt lat="44.47156" lon="1.05156">
        <ele>227.617722</ele>
        <time>2019-08-17T13:32:14Z</time>
      </trkpt>
      <trkpt lat="44.47156" lon="1.05158">
        <ele>227.671951</ele>
        <time>2019-08-17T13:32:15Z</time>
      </trkpt>
      <trkpt lat="44.47155" lon="1.05159">
        <ele>227.719254</ele>
        <time>2019-08-17T13:32:16Z</time>
      </trkpt>
      <trkpt lat="44.47154" lon="1.05161">
        <ele>227.765366</ele>
        <time>2019-08-17T13:32:17Z</time>
      </trkpt>
      <trkpt lat="44.47153" lon="1.05162">
        <ele>227.805496</ele>
        <time>2019-08-17T13:32:18Z</time>
      </trkpt>
      <trkpt lat="44.47152" lon="1.05162">
        <ele>227.841309</ele>
        <time>2019-08-17T13:32:19Z</time>
      </trkpt>
      <trkpt lat="44.47144" lon="1.05173">
        <ele>227.989975</ele>
        <time>2019-08-17T13:32:52Z</time>
      </trkpt>
      <trkpt lat="44.47142" lon="1.05177">
        <ele>227.996872</ele>
        <time>2019-08-17T13:32:54Z</time>
      </trkpt>
      <trkpt lat="44.4714" lon="1.0518">
        <ele>228.007645</ele>
        <time>2019-08-17T13:32:55Z</time>
      </trkpt>
      <trkpt lat="44.47137" lon="1.05184">
        <ele>228.025772</ele>
        <time>2019-08-17T13:32:56Z</time>
      </trkpt>
      <trkpt lat="44.47135" lon="1.05187">
        <ele>228.043411</ele>
        <time>2019-08-17T13:32:57Z</time>
      </trkpt>
      <trkpt lat="44.47132" lon="1.05191">
        <ele>228.057571</ele>
        <time>2019-08-17T13:32:58Z</time>
      </trkpt>
      <trkpt lat="44.47129" lon="1.05194">
        <ele>228.063889</ele>
        <time>2019-08-17T13:32:59Z</time>
      </trkpt>
      <trkpt lat="44.47127" lon="1.05198">
        <ele>228.063889</ele>
        <time>2019-08-17T13:33:00Z</time>
      </trkpt>
      <trkpt lat="44.47125" lon="1.05202">
        <ele>228.063889</ele>
        <time>2019-08-17T13:33:01Z</time>
      </trkpt>
      <trkpt lat="44.47122" lon="1.05205">
        <ele>228.058823</ele>
        <time>2019-08-17T13:33:02Z</time>
      </trkpt>
      <trkpt lat="44.4712" lon="1.05209">
        <ele>228.02507</ele>
        <time>2019-08-17T13:33:03Z</time>
      </trkpt>
      <trkpt lat="44.47117" lon="1.05213">
        <ele>227.965042</ele>
        <time>2019-08-17T13:33:04Z</time>
      </trkpt>
      <trkpt lat="44.47115" lon="1.05217">
        <ele>227.887085</ele>
        <time>2019-08-17T13:33:05Z</time>
      </trkpt>
      <trkpt lat="44.47113" lon="1.0522">
        <ele>227.793945</ele>
        <time>2019-08-17T13:33:06Z</time>
      </trkpt>
      <trkpt lat="44.4711" lon="1.05224">
        <ele>227.689743</ele>
        <time>2019-08-17T13:33:07Z</time>
      </trkpt>
      <trkpt lat="44.47108" lon="1.05227">
        <ele>227.57933</ele>
        <time>2019-08-17T13:33:08Z</time>
      </trkpt>
      <trkpt lat="44.47106" lon="1.0523">
        <ele>227.481689</ele>
        <time>2019-08-17T13:33:09Z</time>
      </trkpt>
      <trkpt lat="44.47105" lon="1.05233">
        <ele>227.392593</ele>
        <time>2019-08-17T13:33:10Z</time>
      </trkpt>
      <trkpt lat="44.47104" lon="1.05237">
        <ele>227.313354</ele>
        <time>2019-08-17T13:33:11Z</time>
      </trkpt>
      <trkpt lat="44.47102" lon="1.0524">
        <ele>227.242477</ele>
        <time>2019-08-17T13:33:12Z</time>
      </trkpt>
      <trkpt lat="44.47101" lon="1.05241">
        <ele>227.176407</ele>
        <time>2019-08-17T13:33:13Z</time>
      </trkpt>
      <trkpt lat="44.47099" lon="1.05241">
        <ele>227.176407</ele>
        <time>2019-08-17T13:33:14Z</time>
      </trkpt>
      <trkpt lat="44.47096" lon="1.0524">
        <ele>227.115891</ele>
        <time>2019-08-17T13:33:15Z</time>
      </trkpt>
      <trkpt lat="44.47093" lon="1.0524">
        <ele>227.08696</ele>
        <time>2019-08-17T13:33:16Z</time>
      </trkpt>
      <trkpt lat="44.47091" lon="1.05242">
        <ele>227.085129</ele>
        <time>2019-08-17T13:33:17Z</time>
      </trkpt>
      <trkpt lat="44.47088" lon="1.05245">
        <ele>227.085129</ele>
        <time>2019-08-17T13:33:18Z</time>
      </trkpt>
      <trkpt lat="44.47086" lon="1.05248">
        <ele>227.085129</ele>
        <time>2019-08-17T13:33:19Z</time>
      </trkpt>
      <trkpt lat="44.47084" lon="1.05252">
        <ele>227.097839</ele>
        <time>2019-08-17T13:33:20Z</time>
      </trkpt>
      <trkpt lat="44.47081" lon="1.05256">
        <ele>227.12059</ele>
        <time>2019-08-17T13:33:21Z</time>
      </trkpt>
      <trkpt lat="44.47079" lon="1.0526">
        <ele>227.152771</ele>
        <time>2019-08-17T13:33:22Z</time>
      </trkpt>
      <trkpt lat="44.47076" lon="1.05264">
        <ele>227.195862</ele>
        <time>2019-08-17T13:33:23Z</time>
      </trkpt>
      <trkpt lat="44.47074" lon="1.05267">
        <ele>227.219528</ele>
        <time>2019-08-17T13:33:24Z</time>
      </trkpt>
      <trkpt lat="44.47072" lon="1.05271">
        <ele>227.226563</ele>
        <time>2019-08-17T13:33:25Z</time>
      </trkpt>
      <trkpt lat="44.47068" lon="1.05275">
        <ele>227.232178</ele>
        <time>2019-08-17T13:33:26Z</time>
      </trkpt>
      <trkpt lat="44.47065" lon="1.05279">
        <ele>227.240921</ele>
        <time>2019-08-17T13:33:27Z</time>
      </trkpt>
      <trkpt lat="44.47062" lon="1.05283">
        <ele>227.256516</ele>
        <time>2019-08-17T13:33:28Z</time>
      </trkpt>
      <trkpt lat="44.47059" lon="1.05286">
        <ele>227.28215</ele>
        <time>2019-08-17T13:33:29Z</time>
      </trkpt>
      <trkpt lat="44.47056" lon="1.05289">
        <ele>227.320877</ele>
        <time>2019-08-17T13:33:30Z</time>
      </trkpt>
      <trkpt lat="44.47053" lon="1.05293">
        <ele>227.375671</ele>
        <time>2019-08-17T13:33:31Z</time>
      </trkpt>
      <trkpt lat="44.47049" lon="1.05296">
        <ele>227.375671</ele>
        <time>2019-08-17T13:33:32Z</time>
      </trkpt>
      <trkpt lat="44.47046" lon="1.05299">
        <ele>227.44545</ele>
        <time>2019-08-17T13:33:33Z</time>
      </trkpt>
      <trkpt lat="44.47042" lon="1.05303">
        <ele>227.51561</ele>
        <time>2019-08-17T13:33:34Z</time>
      </trkpt>
      <trkpt lat="44.47039" lon="1.05306">
        <ele>227.596313</ele>
        <time>2019-08-17T13:33:35Z</time>
      </trkpt>
      <trkpt lat="44.47035" lon="1.05309">
        <ele>227.678421</ele>
        <time>2019-08-17T13:33:36Z</time>
      </trkpt>
      <trkpt lat="44.47031" lon="1.05313">
        <ele>227.762009</ele>
        <time>2019-08-17T13:33:37Z</time>
      </trkpt>
      <trkpt lat="44.47028" lon="1.05317">
        <ele>227.84668</ele>
        <time>2019-08-17T13:33:38Z</time>
      </trkpt>
      <trkpt lat="44.47024" lon="1.05321">
        <ele>227.92981</ele>
        <time>2019-08-17T13:33:39Z</time>
      </trkpt>
      <trkpt lat="44.4702" lon="1.05326">
        <ele>228.02803</ele>
        <time>2019-08-17T13:33:40Z</time>
      </trkpt>
      <trkpt lat="44.47017" lon="1.05331">
        <ele>228.130051</ele>
        <time>2019-08-17T13:33:41Z</time>
      </trkpt>
      <trkpt lat="44.47014" lon="1.05337">
        <ele>228.243362</ele>
        <time>2019-08-17T13:33:42Z</time>
      </trkpt>
      <trkpt lat="44.47012" lon="1.05343">
        <ele>228.365723</ele>
        <time>2019-08-17T13:33:43Z</time>
      </trkpt>
      <trkpt lat="44.47009" lon="1.05349">
        <ele>228.4953</ele>
        <time>2019-08-17T13:33:44Z</time>
      </trkpt>
      <trkpt lat="44.47007" lon="1.05356">
        <ele>228.630615</ele>
        <time>2019-08-17T13:33:45Z</time>
      </trkpt>
      <trkpt lat="44.47006" lon="1.05362">
        <ele>228.766373</ele>
        <time>2019-08-17T13:33:46Z</time>
      </trkpt>
      <trkpt lat="44.47004" lon="1.05369">
        <ele>228.89772</ele>
        <time>2019-08-17T13:33:47Z</time>
      </trkpt>
      <trkpt lat="44.47003" lon="1.05376">
        <ele>228.89772</ele>
        <time>2019-08-17T13:33:48Z</time>
      </trkpt>
      <trkpt lat="44.47002" lon="1.05383">
        <ele>229.01886</ele>
        <time>2019-08-17T13:33:49Z</time>
      </trkpt>
      <trkpt lat="44.47" lon="1.0539">
        <ele>229.128662</ele>
        <time>2019-08-17T13:33:50Z</time>
      </trkpt>
      <trkpt lat="44.46999" lon="1.05397">
        <ele>229.233398</ele>
        <time>2019-08-17T13:33:51Z</time>
      </trkpt>
      <trkpt lat="44.46998" lon="1.05404">
        <ele>229.324219</ele>
        <time>2019-08-17T13:33:52Z</time>
      </trkpt>
      <trkpt lat="44.46996" lon="1.05411">
        <ele>229.405518</ele>
        <time>2019-08-17T13:33:53Z</time>
      </trkpt>
      <trkpt lat="44.46995" lon="1.05418">
        <ele>229.479492</ele>
        <time>2019-08-17T13:33:54Z</time>
      </trkpt>
      <trkpt lat="44.46994" lon="1.05425">
        <ele>229.540955</ele>
        <time>2019-08-17T13:33:55Z</time>
      </trkpt>
      <trkpt lat="44.46993" lon="1.05432">
        <ele>229.581833</ele>
        <time>2019-08-17T13:33:56Z</time>
      </trkpt>
      <trkpt lat="44.46993" lon="1.05437">
        <ele>229.591797</ele>
        <time>2019-08-17T13:33:57Z</time>
      </trkpt>
      <trkpt lat="44.4699" lon="1.05441">
        <ele>229.591797</ele>
        <time>2019-08-17T13:33:58Z</time>
      </trkpt>
      <trkpt lat="44.46987" lon="1.05442">
        <ele>229.591797</ele>
        <time>2019-08-17T13:33:59Z</time>
      </trkpt>
      <trkpt lat="44.46983" lon="1.05442">
        <ele>229.591797</ele>
        <time>2019-08-17T13:34:00Z</time>
      </trkpt>
      <trkpt lat="44.46978" lon="1.05441">
        <ele>229.582108</ele>
        <time>2019-08-17T13:34:01Z</time>
      </trkpt>
      <trkpt lat="44.46973" lon="1.05441">
        <ele>229.517502</ele>
        <time>2019-08-17T13:34:02Z</time>
      </trkpt>
      <trkpt lat="44.46968" lon="1.0544">
        <ele>229.413254</ele>
        <time>2019-08-17T13:34:03Z</time>
      </trkpt>
      <trkpt lat="44.46962" lon="1.0544">
        <ele>229.27562</ele>
        <time>2019-08-17T13:34:04Z</time>
      </trkpt>
      <trkpt lat="44.46956" lon="1.0544">
        <ele>229.111206</ele>
        <time>2019-08-17T13:34:05Z</time>
      </trkpt>
      <trkpt lat="44.4695" lon="1.0544">
        <ele>228.922195</ele>
        <time>2019-08-17T13:34:06Z</time>
      </trkpt>
      <trkpt lat="44.46944" lon="1.05439">
        <ele>228.704102</ele>
        <time>2019-08-17T13:34:07Z</time>
      </trkpt>
      <trkpt lat="44.46938" lon="1.05439">
        <ele>228.486649</ele>
        <time>2019-08-17T13:34:08Z</time>
      </trkpt>
      <trkpt lat="44.46931" lon="1.05438">
        <ele>228.254562</ele>
        <time>2019-08-17T13:34:09Z</time>
      </trkpt>
      <trkpt lat="44.46925" lon="1.05438">
        <ele>228.012283</ele>
        <time>2019-08-17T13:34:10Z</time>
      </trkpt>
      <trkpt lat="44.46918" lon="1.05437">
        <ele>227.761475</ele>
        <time>2019-08-17T13:34:11Z</time>
      </trkpt>
      <trkpt lat="44.46912" lon="1.05436">
        <ele>227.501709</ele>
        <time>2019-08-17T13:34:12Z</time>
      </trkpt>
      <trkpt lat="44.46905" lon="1.05436">
        <ele>227.235428</ele>
        <time>2019-08-17T13:34:13Z</time>
      </trkpt>
      <trkpt lat="44.46899" lon="1.05435">
        <ele>226.945313</ele>
        <time>2019-08-17T13:34:14Z</time>
      </trkpt>
      <trkpt lat="44.46892" lon="1.05435">
        <ele>226.623001</ele>
        <time>2019-08-17T13:34:15Z</time>
      </trkpt>
      <trkpt lat="44.46885" lon="1.05435">
        <ele>226.26384</ele>
        <time>2019-08-17T13:34:16Z</time>
      </trkpt>
      <trkpt lat="44.46879" lon="1.05435">
        <ele>225.870804</ele>
        <time>2019-08-17T13:34:17Z</time>
      </trkpt>
      <trkpt lat="44.46873" lon="1.05434">
        <ele>225.442307</ele>
        <time>2019-08-17T13:34:18Z</time>
      </trkpt>
      <trkpt lat="44.46867" lon="1.05434">
        <ele>224.98201</ele>
        <time>2019-08-17T13:34:19Z</time>
      </trkpt>
      <trkpt lat="44.46862" lon="1.05434">
        <ele>224.513962</ele>
        <time>2019-08-17T13:34:20Z</time>
      </trkpt>
      <trkpt lat="44.46856" lon="1.05433">
        <ele>224.051468</ele>
        <time>2019-08-17T13:34:21Z</time>
      </trkpt>
      <trkpt lat="44.46851" lon="1.05432">
        <ele>223.59938</ele>
        <time>2019-08-17T13:34:22Z</time>
      </trkpt>
      <trkpt lat="44.46846" lon="1.05431">
        <ele>223.155212</ele>
        <time>2019-08-17T13:34:23Z</time>
      </trkpt>
      <trkpt lat="44.4684" lon="1.05431">
        <ele>222.72493</ele>
        <time>2019-08-17T13:34:24Z</time>
      </trkpt>
      <trkpt lat="44.46835" lon="1.05432">
        <ele>222.319626</ele>
        <time>2019-08-17T13:34:25Z</time>
      </trkpt>
      <trkpt lat="44.46829" lon="1.05432">
        <ele>221.952637</ele>
        <time>2019-08-17T13:34:26Z</time>
      </trkpt>
      <trkpt lat="44.46823" lon="1.05433">
        <ele>221.621506</ele>
        <time>2019-08-17T13:34:27Z</time>
      </trkpt>
      <trkpt lat="44.46817" lon="1.05434">
        <ele>221.323044</ele>
        <time>2019-08-17T13:34:28Z</time>
      </trkpt>
      <trkpt lat="44.46812" lon="1.05436">
        <ele>221.058029</ele>
        <time>2019-08-17T13:34:29Z</time>
      </trkpt>
      <trkpt lat="44.46806" lon="1.05437">
        <ele>220.8293</ele>
        <time>2019-08-17T13:34:30Z</time>
      </trkpt>
      <trkpt lat="44.46801" lon="1.05438">
        <ele>220.8293</ele>
        <time>2019-08-17T13:34:31Z</time>
      </trkpt>
      <trkpt lat="44.46795" lon="1.05439">
        <ele>220.630173</ele>
        <time>2019-08-17T13:34:32Z</time>
      </trkpt>
      <trkpt lat="44.46789" lon="1.0544">
        <ele>220.450394</ele>
        <time>2019-08-17T13:34:33Z</time>
      </trkpt>
      <trkpt lat="44.46783" lon="1.0544">
        <ele>220.269165</ele>
        <time>2019-08-17T13:34:34Z</time>
      </trkpt>
      <trkpt lat="44.46777" lon="1.0544">
        <ele>220.104858</ele>
        <time>2019-08-17T13:34:35Z</time>
      </trkpt>
      <trkpt lat="44.46771" lon="1.0544">
        <ele>219.951416</ele>
        <time>2019-08-17T13:34:36Z</time>
      </trkpt>
      <trkpt lat="44.46765" lon="1.05439">
        <ele>219.802368</ele>
        <time>2019-08-17T13:34:37Z</time>
      </trkpt>
      <trkpt lat="44.46758" lon="1.05438">
        <ele>219.644287</ele>
        <time>2019-08-17T13:34:38Z</time>
      </trkpt>
      <trkpt lat="44.46752" lon="1.05436">
        <ele>219.467041</ele>
        <time>2019-08-17T13:34:39Z</time>
      </trkpt>
      <trkpt lat="44.46745" lon="1.05435">
        <ele>219.278458</ele>
        <time>2019-08-17T13:34:40Z</time>
      </trkpt>
      <trkpt lat="44.46738" lon="1.05434">
        <ele>219.053329</ele>
        <time>2019-08-17T13:34:41Z</time>
      </trkpt>
      <trkpt lat="44.46732" lon="1.05432">
        <ele>218.78981</ele>
        <time>2019-08-17T13:34:42Z</time>
      </trkpt>
      <trkpt lat="44.46726" lon="1.05431">
        <ele>218.487305</ele>
        <time>2019-08-17T13:34:43Z</time>
      </trkpt>
      <trkpt lat="44.46722" lon="1.0543">
        <ele>218.151367</ele>
        <time>2019-08-17T13:34:44Z</time>
      </trkpt>
      <trkpt lat="44.46719" lon="1.05429">
        <ele>217.776688</ele>
        <time>2019-08-17T13:34:45Z</time>
      </trkpt>
      <trkpt lat="44.46714" lon="1.05429">
        <ele>217.384048</ele>
        <time>2019-08-17T13:34:46Z</time>
      </trkpt>
      <trkpt lat="44.4671" lon="1.0543">
        <ele>216.984497</ele>
        <time>2019-08-17T13:34:47Z</time>
      </trkpt>
      <trkpt lat="44.46706" lon="1.05433">
        <ele>216.600098</ele>
        <time>2019-08-17T13:34:48Z</time>
      </trkpt>
      <trkpt lat="44.46703" lon="1.05438">
        <ele>216.302597</ele>
        <time>2019-08-17T13:34:49Z</time>
      </trkpt>
      <trkpt lat="44.467" lon="1.05443">
        <ele>216.171738</ele>
        <time>2019-08-17T13:34:50Z</time>
      </trkpt>
      <trkpt lat="44.46697" lon="1.0545">
        <ele>216.171738</ele>
        <time>2019-08-17T13:34:51Z</time>
      </trkpt>
      <trkpt lat="44.46694" lon="1.05456">
        <ele>216.171738</ele>
        <time>2019-08-17T13:34:52Z</time>
      </trkpt>
      <trkpt lat="44.4669" lon="1.05463">
        <ele>216.171738</ele>
        <time>2019-08-17T13:34:53Z</time>
      </trkpt>
      <trkpt lat="44.46688" lon="1.0547">
        <ele>216.248795</ele>
        <time>2019-08-17T13:34:54Z</time>
      </trkpt>
      <trkpt lat="44.46685" lon="1.05477">
        <ele>216.684128</ele>
        <time>2019-08-17T13:34:55Z</time>
      </trkpt>
      <trkpt lat="44.46684" lon="1.05485">
        <ele>217.337936</ele>
        <time>2019-08-17T13:34:56Z</time>
      </trkpt>
      <trkpt lat="44.46682" lon="1.05492">
        <ele>218.183914</ele>
        <time>2019-08-17T13:34:57Z</time>
      </trkpt>
      <trkpt lat="44.46681" lon="1.055">
        <ele>219.008133</ele>
        <time>2019-08-17T13:34:58Z</time>
      </trkpt>
      <trkpt lat="44.4668" lon="1.05508">
        <ele>219.736008</ele>
        <time>2019-08-17T13:34:59Z</time>
      </trkpt>
      <trkpt lat="44.46679" lon="1.05516">
        <ele>220.337479</ele>
        <time>2019-08-17T13:35:00Z</time>
      </trkpt>
      <trkpt lat="44.46678" lon="1.05524">
        <ele>220.657227</ele>
        <time>2019-08-17T13:35:01Z</time>
      </trkpt>
      <trkpt lat="44.46678" lon="1.05533">
        <ele>220.834061</ele>
        <time>2019-08-17T13:35:02Z</time>
      </trkpt>
      <trkpt lat="44.46678" lon="1.05541">
        <ele>220.880936</ele>
        <time>2019-08-17T13:35:03Z</time>
      </trkpt>
      <trkpt lat="44.46678" lon="1.05549">
        <ele>220.94368</ele>
        <time>2019-08-17T13:35:04Z</time>
      </trkpt>
      <trkpt lat="44.46679" lon="1.05557">
        <ele>221.021408</ele>
        <time>2019-08-17T13:35:05Z</time>
      </trkpt>
      <trkpt lat="44.46679" lon="1.05565">
        <ele>221.119064</ele>
        <time>2019-08-17T13:35:06Z</time>
      </trkpt>
      <trkpt lat="44.4668" lon="1.05573">
        <ele>221.247559</ele>
        <time>2019-08-17T13:35:07Z</time>
      </trkpt>
      <trkpt lat="44.4668" lon="1.05581">
        <ele>221.40593</ele>
        <time>2019-08-17T13:35:08Z</time>
      </trkpt>
      <trkpt lat="44.46681" lon="1.05588">
        <ele>221.40593</ele>
        <time>2019-08-17T13:35:09Z</time>
      </trkpt>
      <trkpt lat="44.46682" lon="1.05596">
        <ele>221.592117</ele>
        <time>2019-08-17T13:35:10Z</time>
      </trkpt>
      <trkpt lat="44.46683" lon="1.05604">
        <ele>221.805984</ele>
        <time>2019-08-17T13:35:11Z</time>
      </trkpt>
      <trkpt lat="44.46684" lon="1.05612">
        <ele>222.085526</ele>
        <time>2019-08-17T13:35:12Z</time>
      </trkpt>
      <trkpt lat="44.46685" lon="1.05619">
        <ele>222.380859</ele>
        <time>2019-08-17T13:35:13Z</time>
      </trkpt>
      <trkpt lat="44.46686" lon="1.05627">
        <ele>222.380859</ele>
        <time>2019-08-17T13:35:14Z</time>
      </trkpt>
      <trkpt lat="44.46687" lon="1.05634">
        <ele>222.680252</ele>
        <time>2019-08-17T13:35:15Z</time>
      </trkpt>
      <trkpt lat="44.46688" lon="1.05642">
        <ele>222.976929</ele>
        <time>2019-08-17T13:35:16Z</time>
      </trkpt>
      <trkpt lat="44.46689" lon="1.05649">
        <ele>223.306396</ele>
        <time>2019-08-17T13:35:17Z</time>
      </trkpt>
      <trkpt lat="44.4669" lon="1.05656">
        <ele>223.629044</ele>
        <time>2019-08-17T13:35:18Z</time>
      </trkpt>
      <trkpt lat="44.4669" lon="1.05663">
        <ele>223.904007</ele>
        <time>2019-08-17T13:35:19Z</time>
      </trkpt>
      <trkpt lat="44.4669" lon="1.0567">
        <ele>224.172501</ele>
        <time>2019-08-17T13:35:20Z</time>
      </trkpt>
      <trkpt lat="44.4669" lon="1.05677">
        <ele>224.430237</ele>
        <time>2019-08-17T13:35:21Z</time>
      </trkpt>
      <trkpt lat="44.4669" lon="1.05684">
        <ele>224.68129</ele>
        <time>2019-08-17T13:35:22Z</time>
      </trkpt>
      <trkpt lat="44.46689" lon="1.05691">
        <ele>224.888443</ele>
        <time>2019-08-17T13:35:23Z</time>
      </trkpt>
      <trkpt lat="44.46688" lon="1.05698">
        <ele>225.083069</ele>
        <time>2019-08-17T13:35:24Z</time>
      </trkpt>
      <trkpt lat="44.46686" lon="1.05705">
        <ele>225.259842</ele>
        <time>2019-08-17T13:35:25Z</time>
      </trkpt>
      <trkpt lat="44.46685" lon="1.05712">
        <ele>225.259842</ele>
        <time>2019-08-17T13:35:26Z</time>
      </trkpt>
      <trkpt lat="44.46683" lon="1.05719">
        <ele>225.416183</ele>
        <time>2019-08-17T13:35:27Z</time>
      </trkpt>
      <trkpt lat="44.46681" lon="1.05726">
        <ele>225.551285</ele>
        <time>2019-08-17T13:35:28Z</time>
      </trkpt>
      <trkpt lat="44.46679" lon="1.05732">
        <ele>225.676193</ele>
        <time>2019-08-17T13:35:29Z</time>
      </trkpt>
      <trkpt lat="44.46677" lon="1.05739">
        <ele>225.779861</ele>
        <time>2019-08-17T13:35:30Z</time>
      </trkpt>
      <trkpt lat="44.46675" lon="1.05745">
        <ele>225.86908</ele>
        <time>2019-08-17T13:35:31Z</time>
      </trkpt>
      <trkpt lat="44.46673" lon="1.05752">
        <ele>225.948242</ele>
        <time>2019-08-17T13:35:32Z</time>
      </trkpt>
      <trkpt lat="44.46671" lon="1.05758">
        <ele>225.948242</ele>
        <time>2019-08-17T13:35:33Z</time>
      </trkpt>
      <trkpt lat="44.46669" lon="1.05765">
        <ele>225.948242</ele>
        <time>2019-08-17T13:35:34Z</time>
      </trkpt>
      <trkpt lat="44.46666" lon="1.05771">
        <ele>225.948242</ele>
        <time>2019-08-17T13:35:35Z</time>
      </trkpt>
      <trkpt lat="44.46664" lon="1.05777">
        <ele>225.935776</ele>
        <time>2019-08-17T13:35:36Z</time>
      </trkpt>
      <trkpt lat="44.46661" lon="1.05784">
        <ele>225.87146</ele>
        <time>2019-08-17T13:35:37Z</time>
      </trkpt>
      <trkpt lat="44.46658" lon="1.0579">
        <ele>225.746567</ele>
        <time>2019-08-17T13:35:38Z</time>
      </trkpt>
      <trkpt lat="44.46654" lon="1.05796">
        <ele>225.574142</ele>
        <time>2019-08-17T13:35:39Z</time>
      </trkpt>
      <trkpt lat="44.46651" lon="1.05802">
        <ele>225.356003</ele>
        <time>2019-08-17T13:35:40Z</time>
      </trkpt>
      <trkpt lat="44.46647" lon="1.05808">
        <ele>225.095825</ele>
        <time>2019-08-17T13:35:41Z</time>
      </trkpt>
      <trkpt lat="44.46644" lon="1.05814">
        <ele>225.095825</ele>
        <time>2019-08-17T13:35:42Z</time>
      </trkpt>
      <trkpt lat="44.4664" lon="1.0582">
        <ele>224.882034</ele>
        <time>2019-08-17T13:35:43Z</time>
      </trkpt>
      <trkpt lat="44.46637" lon="1.05827">
        <ele>224.67836</ele>
        <time>2019-08-17T13:35:44Z</time>
      </trkpt>
      <trkpt lat="44.46634" lon="1.05833">
        <ele>224.432053</ele>
        <time>2019-08-17T13:35:45Z</time>
      </trkpt>
      <trkpt lat="44.4663" lon="1.0584">
        <ele>224.16478</ele>
        <time>2019-08-17T13:35:46Z</time>
      </trkpt>
      <trkpt lat="44.46627" lon="1.05847">
        <ele>224.16478</ele>
        <time>2019-08-17T13:35:47Z</time>
      </trkpt>
      <trkpt lat="44.46624" lon="1.05854">
        <ele>223.878342</ele>
        <time>2019-08-17T13:35:48Z</time>
      </trkpt>
      <trkpt lat="44.46621" lon="1.05861">
        <ele>223.575851</ele>
        <time>2019-08-17T13:35:49Z</time>
      </trkpt>
      <trkpt lat="44.46618" lon="1.05868">
        <ele>223.219711</ele>
        <time>2019-08-17T13:35:50Z</time>
      </trkpt>
      <trkpt lat="44.46615" lon="1.05875">
        <ele>222.8564</ele>
        <time>2019-08-17T13:35:51Z</time>
      </trkpt>
      <trkpt lat="44.46612" lon="1.05882">
        <ele>222.544296</ele>
        <time>2019-08-17T13:35:52Z</time>
      </trkpt>
      <trkpt lat="44.46609" lon="1.05889">
        <ele>222.265518</ele>
        <time>2019-08-17T13:35:53Z</time>
      </trkpt>
      <trkpt lat="44.46606" lon="1.05896">
        <ele>222.021301</ele>
        <time>2019-08-17T13:35:54Z</time>
      </trkpt>
      <trkpt lat="44.46603" lon="1.05903">
        <ele>221.811203</ele>
        <time>2019-08-17T13:35:55Z</time>
      </trkpt>
      <trkpt lat="44.466" lon="1.0591">
        <ele>221.679825</ele>
        <time>2019-08-17T13:35:56Z</time>
      </trkpt>
      <trkpt lat="44.46597" lon="1.05917">
        <ele>221.587143</ele>
        <time>2019-08-17T13:35:57Z</time>
      </trkpt>
      <trkpt lat="44.46594" lon="1.05925">
        <ele>221.531113</ele>
        <time>2019-08-17T13:35:58Z</time>
      </trkpt>
      <trkpt lat="44.46592" lon="1.05932">
        <ele>221.511246</ele>
        <time>2019-08-17T13:35:59Z</time>
      </trkpt>
      <trkpt lat="44.46589" lon="1.05939">
        <ele>221.511246</ele>
        <time>2019-08-17T13:36:00Z</time>
      </trkpt>
      <trkpt lat="44.46586" lon="1.05947">
        <ele>221.511246</ele>
        <time>2019-08-17T13:36:01Z</time>
      </trkpt>
      <trkpt lat="44.46583" lon="1.05954">
        <ele>221.524887</ele>
        <time>2019-08-17T13:36:02Z</time>
      </trkpt>
      <trkpt lat="44.46581" lon="1.05962">
        <ele>221.569901</ele>
        <time>2019-08-17T13:36:03Z</time>
      </trkpt>
      <trkpt lat="44.46578" lon="1.05969">
        <ele>221.569901</ele>
        <time>2019-08-17T13:36:04Z</time>
      </trkpt>
      <trkpt lat="44.46576" lon="1.05976">
        <ele>221.639603</ele>
        <time>2019-08-17T13:36:05Z</time>
      </trkpt>
      <trkpt lat="44.46573" lon="1.05984">
        <ele>221.727493</ele>
        <time>2019-08-17T13:36:06Z</time>
      </trkpt>
      <trkpt lat="44.4657" lon="1.05991">
        <ele>221.849991</ele>
        <time>2019-08-17T13:36:07Z</time>
      </trkpt>
      <trkpt lat="44.46568" lon="1.05998">
        <ele>221.96312</ele>
        <time>2019-08-17T13:36:08Z</time>
      </trkpt>
      <trkpt lat="44.46565" lon="1.06005">
        <ele>222.065125</ele>
        <time>2019-08-17T13:36:09Z</time>
      </trkpt>
      <trkpt lat="44.46563" lon="1.06013">
        <ele>222.153976</ele>
        <time>2019-08-17T13:36:10Z</time>
      </trkpt>
      <trkpt lat="44.4656" lon="1.0602">
        <ele>222.229736</ele>
        <time>2019-08-17T13:36:11Z</time>
      </trkpt>
      <trkpt lat="44.46558" lon="1.06027">
        <ele>222.291733</ele>
        <time>2019-08-17T13:36:12Z</time>
      </trkpt>
      <trkpt lat="44.46555" lon="1.06035">
        <ele>222.320618</ele>
        <time>2019-08-17T13:36:13Z</time>
      </trkpt>
      <trkpt lat="44.46553" lon="1.06042">
        <ele>222.355179</ele>
        <time>2019-08-17T13:36:14Z</time>
      </trkpt>
      <trkpt lat="44.46551" lon="1.06049">
        <ele>222.388382</ele>
        <time>2019-08-17T13:36:15Z</time>
      </trkpt>
      <trkpt lat="44.46549" lon="1.06056">
        <ele>222.420334</ele>
        <time>2019-08-17T13:36:16Z</time>
      </trkpt>
      <trkpt lat="44.46547" lon="1.06063">
        <ele>222.450684</ele>
        <time>2019-08-17T13:36:17Z</time>
      </trkpt>
      <trkpt lat="44.46544" lon="1.0607">
        <ele>222.480637</ele>
        <time>2019-08-17T13:36:18Z</time>
      </trkpt>
      <trkpt lat="44.46542" lon="1.06077">
        <ele>222.510635</ele>
        <time>2019-08-17T13:36:19Z</time>
      </trkpt>
      <trkpt lat="44.4654" lon="1.06084">
        <ele>222.5448</ele>
        <time>2019-08-17T13:36:20Z</time>
      </trkpt>
      <trkpt lat="44.46537" lon="1.06091">
        <ele>222.591797</ele>
        <time>2019-08-17T13:36:21Z</time>
      </trkpt>
      <trkpt lat="44.46536" lon="1.06097">
        <ele>222.653183</ele>
        <time>2019-08-17T13:36:22Z</time>
      </trkpt>
      <trkpt lat="44.46533" lon="1.06104">
        <ele>222.726807</ele>
        <time>2019-08-17T13:36:23Z</time>
      </trkpt>
      <trkpt lat="44.46531" lon="1.06111">
        <ele>222.726807</ele>
        <time>2019-08-17T13:36:24Z</time>
      </trkpt>
      <trkpt lat="44.46529" lon="1.06118">
        <ele>222.807266</ele>
        <time>2019-08-17T13:36:25Z</time>
      </trkpt>
      <trkpt lat="44.46526" lon="1.06125">
        <ele>222.889587</ele>
        <time>2019-08-17T13:36:26Z</time>
      </trkpt>
      <trkpt lat="44.46524" lon="1.06131">
        <ele>222.985947</ele>
        <time>2019-08-17T13:36:27Z</time>
      </trkpt>
      <trkpt lat="44.46522" lon="1.06138">
        <ele>223.083191</ele>
        <time>2019-08-17T13:36:28Z</time>
      </trkpt>
      <trkpt lat="44.4652" lon="1.06145">
        <ele>223.179672</ele>
        <time>2019-08-17T13:36:29Z</time>
      </trkpt>
      <trkpt lat="44.46517" lon="1.06152">
        <ele>223.274841</ele>
        <time>2019-08-17T13:36:30Z</time>
      </trkpt>
      <trkpt lat="44.46515" lon="1.06159">
        <ele>223.37384</ele>
        <time>2019-08-17T13:36:31Z</time>
      </trkpt>
      <trkpt lat="44.46513" lon="1.06166">
        <ele>223.481262</ele>
        <time>2019-08-17T13:36:32Z</time>
      </trkpt>
      <trkpt lat="44.4651" lon="1.06172">
        <ele>223.584091</ele>
        <time>2019-08-17T13:36:33Z</time>
      </trkpt>
      <trkpt lat="44.46508" lon="1.06179">
        <ele>223.584091</ele>
        <time>2019-08-17T13:36:34Z</time>
      </trkpt>
      <trkpt lat="44.46505" lon="1.06185">
        <ele>223.71019</ele>
        <time>2019-08-17T13:36:35Z</time>
      </trkpt>
      <trkpt lat="44.46503" lon="1.06192">
        <ele>223.874161</ele>
        <time>2019-08-17T13:36:36Z</time>
      </trkpt>
      <trkpt lat="44.46501" lon="1.06199">
        <ele>224.123657</ele>
        <time>2019-08-17T13:36:37Z</time>
      </trkpt>
      <trkpt lat="44.46499" lon="1.06205">
        <ele>224.40358</ele>
        <time>2019-08-17T13:36:38Z</time>
      </trkpt>
      <trkpt lat="44.46497" lon="1.06211">
        <ele>224.71312</ele>
        <time>2019-08-17T13:36:39Z</time>
      </trkpt>
      <trkpt lat="44.46494" lon="1.06217">
        <ele>225.049866</ele>
        <time>2019-08-17T13:36:40Z</time>
      </trkpt>
      <trkpt lat="44.46492" lon="1.06223">
        <ele>225.393799</ele>
        <time>2019-08-17T13:36:41Z</time>
      </trkpt>
      <trkpt lat="44.4649" lon="1.06229">
        <ele>225.730713</ele>
        <time>2019-08-17T13:36:42Z</time>
      </trkpt>
      <trkpt lat="44.46488" lon="1.06235">
        <ele>226.009766</ele>
        <time>2019-08-17T13:36:43Z</time>
      </trkpt>
      <trkpt lat="44.46486" lon="1.06241">
        <ele>226.28418</ele>
        <time>2019-08-17T13:36:44Z</time>
      </trkpt>
      <trkpt lat="44.46484" lon="1.06247">
        <ele>226.545242</ele>
        <time>2019-08-17T13:36:45Z</time>
      </trkpt>
      <trkpt lat="44.46482" lon="1.06253">
        <ele>226.793198</ele>
        <time>2019-08-17T13:36:46Z</time>
      </trkpt>
      <trkpt lat="44.46481" lon="1.06259">
        <ele>226.793198</ele>
        <time>2019-08-17T13:36:47Z</time>
      </trkpt>
      <trkpt lat="44.46478" lon="1.06265">
        <ele>227.031296</ele>
        <time>2019-08-17T13:36:48Z</time>
      </trkpt>
      <trkpt lat="44.46476" lon="1.06271">
        <ele>227.259155</ele>
        <time>2019-08-17T13:36:49Z</time>
      </trkpt>
      <trkpt lat="44.46475" lon="1.06277">
        <ele>227.517273</ele>
        <time>2019-08-17T13:36:50Z</time>
      </trkpt>
      <trkpt lat="44.46473" lon="1.06283">
        <ele>227.769821</ele>
        <time>2019-08-17T13:36:51Z</time>
      </trkpt>
      <trkpt lat="44.46471" lon="1.06288">
        <ele>228.02533</ele>
        <time>2019-08-17T13:36:52Z</time>
      </trkpt>
      <trkpt lat="44.46469" lon="1.06294">
        <ele>228.285629</ele>
        <time>2019-08-17T13:36:53Z</time>
      </trkpt>
      <trkpt lat="44.46467" lon="1.063">
        <ele>228.550613</ele>
        <time>2019-08-17T13:36:54Z</time>
      </trkpt>
      <trkpt lat="44.46465" lon="1.06306">
        <ele>228.820053</ele>
        <time>2019-08-17T13:36:55Z</time>
      </trkpt>
      <trkpt lat="44.46463" lon="1.06312">
        <ele>228.820053</ele>
        <time>2019-08-17T13:36:56Z</time>
      </trkpt>
      <trkpt lat="44.46462" lon="1.06318">
        <ele>229.05513</ele>
        <time>2019-08-17T13:36:57Z</time>
      </trkpt>
      <trkpt lat="44.4646" lon="1.06324">
        <ele>229.289017</ele>
        <time>2019-08-17T13:36:58Z</time>
      </trkpt>
      <trkpt lat="44.46458" lon="1.0633">
        <ele>229.563431</ele>
        <time>2019-08-17T13:36:59Z</time>
      </trkpt>
      <trkpt lat="44.46457" lon="1.06336">
        <ele>229.841263</ele>
        <time>2019-08-17T13:37:00Z</time>
      </trkpt>
      <trkpt lat="44.46456" lon="1.06342">
        <ele>230.122116</ele>
        <time>2019-08-17T13:37:01Z</time>
      </trkpt>
      <trkpt lat="44.46455" lon="1.06348">
        <ele>230.40715</ele>
        <time>2019-08-17T13:37:02Z</time>
      </trkpt>
      <trkpt lat="44.46453" lon="1.06355">
        <ele>230.697311</ele>
        <time>2019-08-17T13:37:03Z</time>
      </trkpt>
      <trkpt lat="44.46452" lon="1.06361">
        <ele>230.995407</ele>
        <time>2019-08-17T13:37:04Z</time>
      </trkpt>
      <trkpt lat="44.46451" lon="1.06367">
        <ele>231.261002</ele>
        <time>2019-08-17T13:37:05Z</time>
      </trkpt>
      <trkpt lat="44.4645" lon="1.06373">
        <ele>231.532578</ele>
        <time>2019-08-17T13:37:06Z</time>
      </trkpt>
      <trkpt lat="44.46449" lon="1.06379">
        <ele>231.80864</ele>
        <time>2019-08-17T13:37:07Z</time>
      </trkpt>
      <trkpt lat="44.46447" lon="1.06385">
        <ele>232.086792</ele>
        <time>2019-08-17T13:37:08Z</time>
      </trkpt>
      <trkpt lat="44.46447" lon="1.06391">
        <ele>232.368759</ele>
        <time>2019-08-17T13:37:09Z</time>
      </trkpt>
      <trkpt lat="44.46446" lon="1.06398">
        <ele>232.65773</ele>
        <time>2019-08-17T13:37:10Z</time>
      </trkpt>
      <trkpt lat="44.46446" lon="1.06404">
        <ele>232.953659</ele>
        <time>2019-08-17T13:37:11Z</time>
      </trkpt>
      <trkpt lat="44.46446" lon="1.0641">
        <ele>233.249496</ele>
        <time>2019-08-17T13:37:12Z</time>
      </trkpt>
      <trkpt lat="44.46445" lon="1.06416">
        <ele>233.547226</ele>
        <time>2019-08-17T13:37:13Z</time>
      </trkpt>
      <trkpt lat="44.46445" lon="1.06423">
        <ele>233.845398</ele>
        <time>2019-08-17T13:37:14Z</time>
      </trkpt>
      <trkpt lat="44.46445" lon="1.06429">
        <ele>233.845398</ele>
        <time>2019-08-17T13:37:15Z</time>
      </trkpt>
      <trkpt lat="44.46445" lon="1.06436">
        <ele>234.139465</ele>
        <time>2019-08-17T13:37:16Z</time>
      </trkpt>
      <trkpt lat="44.46446" lon="1.06443">
        <ele>234.428543</ele>
        <time>2019-08-17T13:37:17Z</time>
      </trkpt>
      <trkpt lat="44.46446" lon="1.06449">
        <ele>234.755844</ele>
        <time>2019-08-17T13:37:18Z</time>
      </trkpt>
      <trkpt lat="44.46446" lon="1.06456">
        <ele>235.067688</ele>
        <time>2019-08-17T13:37:19Z</time>
      </trkpt>
      <trkpt lat="44.46447" lon="1.06463">
        <ele>235.359604</ele>
        <time>2019-08-17T13:37:20Z</time>
      </trkpt>
      <trkpt lat="44.46447" lon="1.0647">
        <ele>235.633911</ele>
        <time>2019-08-17T13:37:21Z</time>
      </trkpt>
      <trkpt lat="44.46447" lon="1.06477">
        <ele>235.890884</ele>
        <time>2019-08-17T13:37:22Z</time>
      </trkpt>
      <trkpt lat="44.46447" lon="1.06484">
        <ele>236.129379</ele>
        <time>2019-08-17T13:37:23Z</time>
      </trkpt>
      <trkpt lat="44.46447" lon="1.06491">
        <ele>236.306519</ele>
        <time>2019-08-17T13:37:24Z</time>
      </trkpt>
      <trkpt lat="44.46447" lon="1.06498">
        <ele>236.306519</ele>
        <time>2019-08-17T13:37:25Z</time>
      </trkpt>
      <trkpt lat="44.46446" lon="1.06506">
        <ele>236.485291</ele>
        <time>2019-08-17T13:37:26Z</time>
      </trkpt>
      <trkpt lat="44.46446" lon="1.06513">
        <ele>236.668869</ele>
        <time>2019-08-17T13:37:27Z</time>
      </trkpt>
      <trkpt lat="44.46445" lon="1.0652">
        <ele>236.668869</ele>
        <time>2019-08-17T13:37:28Z</time>
      </trkpt>
      <trkpt lat="44.46444" lon="1.06527">
        <ele>236.900558</ele>
        <time>2019-08-17T13:37:29Z</time>
      </trkpt>
      <trkpt lat="44.46443" lon="1.06535">
        <ele>237.115158</ele>
        <time>2019-08-17T13:37:30Z</time>
      </trkpt>
      <trkpt lat="44.46442" lon="1.06543">
        <ele>237.115158</ele>
        <time>2019-08-17T13:37:31Z</time>
      </trkpt>
      <trkpt lat="44.46441" lon="1.0655">
        <ele>237.322754</ele>
        <time>2019-08-17T13:37:32Z</time>
      </trkpt>
      <trkpt lat="44.46439" lon="1.06558">
        <ele>237.322754</ele>
        <time>2019-08-17T13:37:33Z</time>
      </trkpt>
      <trkpt lat="44.46438" lon="1.06566">
        <ele>237.4991</ele>
        <time>2019-08-17T13:37:34Z</time>
      </trkpt>
      <trkpt lat="44.46437" lon="1.06573">
        <ele>237.621902</ele>
        <time>2019-08-17T13:37:35Z</time>
      </trkpt>
      <trkpt lat="44.46436" lon="1.06581">
        <ele>237.680161</ele>
        <time>2019-08-17T13:37:36Z</time>
      </trkpt>
      <trkpt lat="44.46434" lon="1.06589">
        <ele>237.680161</ele>
        <time>2019-08-17T13:37:37Z</time>
      </trkpt>
      <trkpt lat="44.46433" lon="1.06596">
        <ele>237.680161</ele>
        <time>2019-08-17T13:37:38Z</time>
      </trkpt>
      <trkpt lat="44.46432" lon="1.06603">
        <ele>237.680161</ele>
        <time>2019-08-17T13:37:39Z</time>
      </trkpt>
      <trkpt lat="44.46431" lon="1.0661">
        <ele>237.680161</ele>
        <time>2019-08-17T13:37:40Z</time>
      </trkpt>
      <trkpt lat="44.4643" lon="1.06615">
        <ele>237.594177</ele>
        <time>2019-08-17T13:37:41Z</time>
      </trkpt>
      <trkpt lat="44.46429" lon="1.06619">
        <ele>237.464005</ele>
        <time>2019-08-17T13:37:42Z</time>
      </trkpt>
      <trkpt lat="44.46429" lon="1.06622">
        <ele>237.464005</ele>
        <time>2019-08-17T13:37:43Z</time>
      </trkpt>
      <trkpt lat="44.46429" lon="1.06623">
        <ele>237.254257</ele>
        <time>2019-08-17T13:37:44Z</time>
      </trkpt>
      <trkpt lat="44.46431" lon="1.06623">
        <ele>237.024704</ele>
        <time>2019-08-17T13:37:45Z</time>
      </trkpt>
      <trkpt lat="44.46432" lon="1.06622">
        <ele>236.806152</ele>
        <time>2019-08-17T13:37:46Z</time>
      </trkpt>
      <trkpt lat="44.46432" lon="1.06619">
        <ele>236.634155</ele>
        <time>2019-08-17T13:37:47Z</time>
      </trkpt>
      <trkpt lat="44.46433" lon="1.06615">
        <ele>236.537277</ele>
        <time>2019-08-17T13:37:48Z</time>
      </trkpt>
      <trkpt lat="44.46433" lon="1.06613">
        <ele>236.483597</ele>
        <time>2019-08-17T13:37:49Z</time>
      </trkpt>
      <trkpt lat="44.46434" lon="1.06611">
        <ele>236.483597</ele>
        <time>2019-08-17T13:37:50Z</time>
      </trkpt>
      <trkpt lat="44.46436" lon="1.06612">
        <ele>236.483597</ele>
        <time>2019-08-17T13:37:51Z</time>
      </trkpt>
      <trkpt lat="44.46439" lon="1.06614">
        <ele>236.502075</ele>
        <time>2019-08-17T13:37:52Z</time>
      </trkpt>
      <trkpt lat="44.46441" lon="1.06618">
        <ele>236.565796</ele>
        <time>2019-08-17T13:37:53Z</time>
      </trkpt>
      <trkpt lat="44.46443" lon="1.06622">
        <ele>236.565796</ele>
        <time>2019-08-17T13:37:54Z</time>
      </trkpt>
      <trkpt lat="44.46446" lon="1.06625">
        <ele>236.660034</ele>
        <time>2019-08-17T13:37:55Z</time>
      </trkpt>
      <trkpt lat="44.4645" lon="1.06629">
        <ele>236.739929</ele>
        <time>2019-08-17T13:37:56Z</time>
      </trkpt>
      <trkpt lat="44.46454" lon="1.06632">
        <ele>236.776062</ele>
        <time>2019-08-17T13:37:57Z</time>
      </trkpt>
      <trkpt lat="44.46458" lon="1.06635">
        <ele>236.776062</ele>
        <time>2019-08-17T13:37:58Z</time>
      </trkpt>
      <trkpt lat="44.46463" lon="1.06639">
        <ele>236.776062</ele>
        <time>2019-08-17T13:37:59Z</time>
      </trkpt>
      <trkpt lat="44.46468" lon="1.06643">
        <ele>236.764481</ele>
        <time>2019-08-17T13:38:00Z</time>
      </trkpt>
      <trkpt lat="44.46473" lon="1.06648">
        <ele>236.699173</ele>
        <time>2019-08-17T13:38:01Z</time>
      </trkpt>
      <trkpt lat="44.46477" lon="1.06652">
        <ele>236.565475</ele>
        <time>2019-08-17T13:38:02Z</time>
      </trkpt>
      <trkpt lat="44.46481" lon="1.06656">
        <ele>236.565475</ele>
        <time>2019-08-17T13:38:03Z</time>
      </trkpt>
      <trkpt lat="44.46484" lon="1.06662">
        <ele>236.363831</ele>
        <time>2019-08-17T13:38:04Z</time>
      </trkpt>
      <trkpt lat="44.46487" lon="1.06668">
        <ele>236.116638</ele>
        <time>2019-08-17T13:38:05Z</time>
      </trkpt>
      <trkpt lat="44.4649" lon="1.06674">
        <ele>235.832321</ele>
        <time>2019-08-17T13:38:06Z</time>
      </trkpt>
      <trkpt lat="44.46493" lon="1.06681">
        <ele>235.556885</ele>
        <time>2019-08-17T13:38:07Z</time>
      </trkpt>
      <trkpt lat="44.46495" lon="1.06687">
        <ele>235.556885</ele>
        <time>2019-08-17T13:38:08Z</time>
      </trkpt>
      <trkpt lat="44.46498" lon="1.06694">
        <ele>235.295975</ele>
        <time>2019-08-17T13:38:09Z</time>
      </trkpt>
      <trkpt lat="44.46502" lon="1.06701">
        <ele>235.055893</ele>
        <time>2019-08-17T13:38:10Z</time>
      </trkpt>
      <trkpt lat="44.46505" lon="1.06708">
        <ele>234.821976</ele>
        <time>2019-08-17T13:38:11Z</time>
      </trkpt>
      <trkpt lat="44.46508" lon="1.06715">
        <ele>234.821976</ele>
        <time>2019-08-17T13:38:12Z</time>
      </trkpt>
      <trkpt lat="44.4651" lon="1.06722">
        <ele>234.615799</ele>
        <time>2019-08-17T13:38:13Z</time>
      </trkpt>
      <trkpt lat="44.46513" lon="1.06729">
        <ele>234.467636</ele>
        <time>2019-08-17T13:38:14Z</time>
      </trkpt>
      <trkpt lat="44.46516" lon="1.06736">
        <ele>234.467636</ele>
        <time>2019-08-17T13:38:15Z</time>
      </trkpt>
      <trkpt lat="44.46518" lon="1.06742">
        <ele>234.306152</ele>
        <time>2019-08-17T13:38:16Z</time>
      </trkpt>
      <trkpt lat="44.46522" lon="1.06748">
        <ele>234.148056</ele>
        <time>2019-08-17T13:38:17Z</time>
      </trkpt>
      <trkpt lat="44.46526" lon="1.06754">
        <ele>234.148056</ele>
        <time>2019-08-17T13:38:18Z</time>
      </trkpt>
      <trkpt lat="44.46529" lon="1.06759">
        <ele>233.933594</ele>
        <time>2019-08-17T13:38:19Z</time>
      </trkpt>
      <trkpt lat="44.46532" lon="1.06764">
        <ele>233.721558</ele>
        <time>2019-08-17T13:38:20Z</time>
      </trkpt>
      <trkpt lat="44.46536" lon="1.06768">
        <ele>233.459244</ele>
        <time>2019-08-17T13:38:21Z</time>
      </trkpt>
      <trkpt lat="44.46538" lon="1.06772">
        <ele>233.184692</ele>
        <time>2019-08-17T13:38:22Z</time>
      </trkpt>
      <trkpt lat="44.4654" lon="1.06776">
        <ele>232.932495</ele>
        <time>2019-08-17T13:38:23Z</time>
      </trkpt>
      <trkpt lat="44.46542" lon="1.06779">
        <ele>232.684311</ele>
        <time>2019-08-17T13:38:24Z</time>
      </trkpt>
      <trkpt lat="44.46543" lon="1.06783">
        <ele>232.684311</ele>
        <time>2019-08-17T13:38:25Z</time>
      </trkpt>
      <trkpt lat="44.46543" lon="1.06787">
        <ele>232.503464</ele>
        <time>2019-08-17T13:38:26Z</time>
      </trkpt>
      <trkpt lat="44.46542" lon="1.06791">
        <ele>232.351303</ele>
        <time>2019-08-17T13:38:27Z</time>
      </trkpt>
      <trkpt lat="44.46541" lon="1.06794">
        <ele>232.270386</ele>
        <time>2019-08-17T13:38:28Z</time>
      </trkpt>
      <trkpt lat="44.46538" lon="1.06797">
        <ele>232.223343</ele>
        <time>2019-08-17T13:38:29Z</time>
      </trkpt>
      <trkpt lat="44.46536" lon="1.068">
        <ele>232.205261</ele>
        <time>2019-08-17T13:38:30Z</time>
      </trkpt>
      <trkpt lat="44.46532" lon="1.06803">
        <ele>232.205261</ele>
        <time>2019-08-17T13:38:31Z</time>
      </trkpt>
      <trkpt lat="44.4653" lon="1.06807">
        <ele>232.205261</ele>
        <time>2019-08-17T13:38:32Z</time>
      </trkpt>
      <trkpt lat="44.46529" lon="1.06811">
        <ele>232.205261</ele>
        <time>2019-08-17T13:38:33Z</time>
      </trkpt>
      <trkpt lat="44.46529" lon="1.06816">
        <ele>232.205261</ele>
        <time>2019-08-17T13:38:34Z</time>
      </trkpt>
      <trkpt lat="44.46529" lon="1.06821">
        <ele>232.218262</ele>
        <time>2019-08-17T13:38:35Z</time>
      </trkpt>
      <trkpt lat="44.46529" lon="1.06826">
        <ele>232.241501</ele>
        <time>2019-08-17T13:38:36Z</time>
      </trkpt>
      <trkpt lat="44.46529" lon="1.06832">
        <ele>232.270554</ele>
        <time>2019-08-17T13:38:37Z</time>
      </trkpt>
      <trkpt lat="44.4653" lon="1.06837">
        <ele>232.270554</ele>
        <time>2019-08-17T13:38:38Z</time>
      </trkpt>
      <trkpt lat="44.4653" lon="1.06842">
        <ele>232.291794</ele>
        <time>2019-08-17T13:38:39Z</time>
      </trkpt>
      <trkpt lat="44.46531" lon="1.06847">
        <ele>232.305664</ele>
        <time>2019-08-17T13:38:40Z</time>
      </trkpt>
      <trkpt lat="44.46531" lon="1.06852">
        <ele>232.31636</ele>
        <time>2019-08-17T13:38:41Z</time>
      </trkpt>
      <trkpt lat="44.46532" lon="1.06857">
        <ele>232.324295</ele>
        <time>2019-08-17T13:38:42Z</time>
      </trkpt>
      <trkpt lat="44.46533" lon="1.06862">
        <ele>232.333817</ele>
        <time>2019-08-17T13:38:43Z</time>
      </trkpt>
      <trkpt lat="44.46534" lon="1.06867">
        <ele>232.336227</ele>
        <time>2019-08-17T13:38:44Z</time>
      </trkpt>
      <trkpt lat="44.46535" lon="1.06872">
        <ele>232.336227</ele>
        <time>2019-08-17T13:38:45Z</time>
      </trkpt>
      <trkpt lat="44.46536" lon="1.06877">
        <ele>232.340683</ele>
        <time>2019-08-17T13:38:46Z</time>
      </trkpt>
      <trkpt lat="44.46536" lon="1.06882">
        <ele>232.354187</ele>
        <time>2019-08-17T13:38:47Z</time>
      </trkpt>
      <trkpt lat="44.46537" lon="1.06887">
        <ele>232.3853</ele>
        <time>2019-08-17T13:38:48Z</time>
      </trkpt>
      <trkpt lat="44.46537" lon="1.06892">
        <ele>232.426132</ele>
        <time>2019-08-17T13:38:49Z</time>
      </trkpt>
      <trkpt lat="44.46538" lon="1.06896">
        <ele>232.47139</ele>
        <time>2019-08-17T13:38:50Z</time>
      </trkpt>
      <trkpt lat="44.4654" lon="1.069">
        <ele>232.518631</ele>
        <time>2019-08-17T13:38:51Z</time>
      </trkpt>
      <trkpt lat="44.46543" lon="1.06902">
        <ele>232.567627</ele>
        <time>2019-08-17T13:38:52Z</time>
      </trkpt>
      <trkpt lat="44.46547" lon="1.06904">
        <ele>232.567627</ele>
        <time>2019-08-17T13:38:53Z</time>
      </trkpt>
      <trkpt lat="44.4655" lon="1.06904">
        <ele>232.618149</ele>
        <time>2019-08-17T13:38:54Z</time>
      </trkpt>
      <trkpt lat="44.46554" lon="1.06904">
        <ele>232.665222</ele>
        <time>2019-08-17T13:38:55Z</time>
      </trkpt>
      <trkpt lat="44.46558" lon="1.06905">
        <ele>232.739441</ele>
        <time>2019-08-17T13:38:56Z</time>
      </trkpt>
      <trkpt lat="44.46561" lon="1.06906">
        <ele>232.824951</ele>
        <time>2019-08-17T13:38:57Z</time>
      </trkpt>
      <trkpt lat="44.46564" lon="1.06908">
        <ele>232.919983</ele>
        <time>2019-08-17T13:38:58Z</time>
      </trkpt>
      <trkpt lat="44.46567" lon="1.06912">
        <ele>233.027176</ele>
        <time>2019-08-17T13:38:59Z</time>
      </trkpt>
      <trkpt lat="44.46569" lon="1.06916">
        <ele>233.143723</ele>
        <time>2019-08-17T13:39:00Z</time>
      </trkpt>
      <trkpt lat="44.46571" lon="1.0692">
        <ele>233.267654</ele>
        <time>2019-08-17T13:39:01Z</time>
      </trkpt>
      <trkpt lat="44.46573" lon="1.06925">
        <ele>233.267654</ele>
        <time>2019-08-17T13:39:02Z</time>
      </trkpt>
      <trkpt lat="44.46574" lon="1.06931">
        <ele>233.374405</ele>
        <time>2019-08-17T13:39:03Z</time>
      </trkpt>
      <trkpt lat="44.46576" lon="1.06936">
        <ele>233.472702</ele>
        <time>2019-08-17T13:39:04Z</time>
      </trkpt>
      <trkpt lat="44.46577" lon="1.06942">
        <ele>233.57106</ele>
        <time>2019-08-17T13:39:05Z</time>
      </trkpt>
      <trkpt lat="44.46578" lon="1.06948">
        <ele>233.57106</ele>
        <time>2019-08-17T13:39:06Z</time>
      </trkpt>
      <trkpt lat="44.46579" lon="1.06954">
        <ele>233.657913</ele>
        <time>2019-08-17T13:39:07Z</time>
      </trkpt>
      <trkpt lat="44.4658" lon="1.0696">
        <ele>233.734726</ele>
        <time>2019-08-17T13:39:08Z</time>
      </trkpt>
      <trkpt lat="44.46581" lon="1.06966">
        <ele>233.806381</ele>
        <time>2019-08-17T13:39:09Z</time>
      </trkpt>
      <trkpt lat="44.46581" lon="1.06973">
        <ele>233.862289</ele>
        <time>2019-08-17T13:39:10Z</time>
      </trkpt>
      <trkpt lat="44.46582" lon="1.0698">
        <ele>233.907089</ele>
        <time>2019-08-17T13:39:11Z</time>
      </trkpt>
      <trkpt lat="44.46583" lon="1.06987">
        <ele>233.933472</ele>
        <time>2019-08-17T13:39:12Z</time>
      </trkpt>
      <trkpt lat="44.46586" lon="1.06995">
        <ele>233.94725</ele>
        <time>2019-08-17T13:39:13Z</time>
      </trkpt>
      <trkpt lat="44.46587" lon="1.07003">
        <ele>233.94725</ele>
        <time>2019-08-17T13:39:14Z</time>
      </trkpt>
      <trkpt lat="44.46589" lon="1.07011">
        <ele>233.94725</ele>
        <time>2019-08-17T13:39:15Z</time>
      </trkpt>
      <trkpt lat="44.4659" lon="1.07019">
        <ele>233.94725</ele>
        <time>2019-08-17T13:39:16Z</time>
      </trkpt>
      <trkpt lat="44.46591" lon="1.07027">
        <ele>233.931839</ele>
        <time>2019-08-17T13:39:17Z</time>
      </trkpt>
      <trkpt lat="44.46591" lon="1.07035">
        <ele>233.889282</ele>
        <time>2019-08-17T13:39:18Z</time>
      </trkpt>
      <trkpt lat="44.46591" lon="1.07044">
        <ele>233.833206</ele>
        <time>2019-08-17T13:39:19Z</time>
      </trkpt>
      <trkpt lat="44.4659" lon="1.07052">
        <ele>233.769531</ele>
        <time>2019-08-17T13:39:20Z</time>
      </trkpt>
      <trkpt lat="44.4659" lon="1.0706">
        <ele>233.700119</ele>
        <time>2019-08-17T13:39:21Z</time>
      </trkpt>
      <trkpt lat="44.4659" lon="1.07068">
        <ele>233.700119</ele>
        <time>2019-08-17T13:39:22Z</time>
      </trkpt>
      <trkpt lat="44.46589" lon="1.07077">
        <ele>233.630417</ele>
        <time>2019-08-17T13:39:23Z</time>
      </trkpt>
      <trkpt lat="44.46589" lon="1.07086">
        <ele>233.579269</ele>
        <time>2019-08-17T13:39:24Z</time>
      </trkpt>
      <trkpt lat="44.46589" lon="1.07096">
        <ele>233.540207</ele>
        <time>2019-08-17T13:39:25Z</time>
      </trkpt>
      <trkpt lat="44.46588" lon="1.07105">
        <ele>233.512894</ele>
        <time>2019-08-17T13:39:26Z</time>
      </trkpt>
      <trkpt lat="44.46587" lon="1.07114">
        <ele>233.49614</ele>
        <time>2019-08-17T13:39:27Z</time>
      </trkpt>
      <trkpt lat="44.46587" lon="1.07123">
        <ele>233.49614</ele>
        <time>2019-08-17T13:39:28Z</time>
      </trkpt>
      <trkpt lat="44.46586" lon="1.07132">
        <ele>233.486084</ele>
        <time>2019-08-17T13:39:29Z</time>
      </trkpt>
      <trkpt lat="44.46586" lon="1.0714">
        <ele>233.481323</ele>
        <time>2019-08-17T13:39:30Z</time>
      </trkpt>
      <trkpt lat="44.46584" lon="1.07148">
        <ele>233.472122</ele>
        <time>2019-08-17T13:39:31Z</time>
      </trkpt>
      <trkpt lat="44.46581" lon="1.07156">
        <ele>233.444702</ele>
        <time>2019-08-17T13:39:32Z</time>
      </trkpt>
      <trkpt lat="44.46578" lon="1.07163">
        <ele>233.414017</ele>
        <time>2019-08-17T13:39:33Z</time>
      </trkpt>
      <trkpt lat="44.46574" lon="1.07169">
        <ele>233.375473</ele>
        <time>2019-08-17T13:39:34Z</time>
      </trkpt>
      <trkpt lat="44.46571" lon="1.07176">
        <ele>233.375473</ele>
        <time>2019-08-17T13:39:35Z</time>
      </trkpt>
      <trkpt lat="44.46569" lon="1.07183">
        <ele>233.337341</ele>
        <time>2019-08-17T13:39:36Z</time>
      </trkpt>
      <trkpt lat="44.46568" lon="1.0719">
        <ele>233.295273</ele>
        <time>2019-08-17T13:39:37Z</time>
      </trkpt>
      <trkpt lat="44.46568" lon="1.07198">
        <ele>233.168091</ele>
        <time>2019-08-17T13:39:38Z</time>
      </trkpt>
      <trkpt lat="44.46568" lon="1.07206">
        <ele>233.021164</ele>
        <time>2019-08-17T13:39:39Z</time>
      </trkpt>
      <trkpt lat="44.46568" lon="1.07213">
        <ele>232.849976</ele>
        <time>2019-08-17T13:39:40Z</time>
      </trkpt>
      <trkpt lat="44.46568" lon="1.07221">
        <ele>232.667114</ele>
        <time>2019-08-17T13:39:41Z</time>
      </trkpt>
      <trkpt lat="44.46569" lon="1.07229">
        <ele>232.465378</ele>
        <time>2019-08-17T13:39:42Z</time>
      </trkpt>
      <trkpt lat="44.46569" lon="1.07236">
        <ele>232.465378</ele>
        <time>2019-08-17T13:39:43Z</time>
      </trkpt>
      <trkpt lat="44.4657" lon="1.07243">
        <ele>232.250076</ele>
        <time>2019-08-17T13:39:44Z</time>
      </trkpt>
      <trkpt lat="44.46571" lon="1.07251">
        <ele>232.110764</ele>
        <time>2019-08-17T13:39:45Z</time>
      </trkpt>
      <trkpt lat="44.46573" lon="1.07258">
        <ele>231.989426</ele>
        <time>2019-08-17T13:39:46Z</time>
      </trkpt>
      <trkpt lat="44.46573" lon="1.07265">
        <ele>231.886795</ele>
        <time>2019-08-17T13:39:47Z</time>
      </trkpt>
      <trkpt lat="44.46574" lon="1.07273">
        <ele>231.795654</ele>
        <time>2019-08-17T13:39:48Z</time>
      </trkpt>
      <trkpt lat="44.46574" lon="1.0728">
        <ele>231.706833</ele>
        <time>2019-08-17T13:39:49Z</time>
      </trkpt>
      <trkpt lat="44.46575" lon="1.07287">
        <ele>231.609665</ele>
        <time>2019-08-17T13:39:50Z</time>
      </trkpt>
      <trkpt lat="44.46576" lon="1.07295">
        <ele>231.501511</ele>
        <time>2019-08-17T13:39:51Z</time>
      </trkpt>
      <trkpt lat="44.46576" lon="1.07302">
        <ele>231.385132</ele>
        <time>2019-08-17T13:39:52Z</time>
      </trkpt>
      <trkpt lat="44.46577" lon="1.07309">
        <ele>231.24968</ele>
        <time>2019-08-17T13:39:53Z</time>
      </trkpt>
      <trkpt lat="44.46577" lon="1.07316">
        <ele>231.093399</ele>
        <time>2019-08-17T13:39:54Z</time>
      </trkpt>
      <trkpt lat="44.46578" lon="1.07323">
        <ele>230.921875</ele>
        <time>2019-08-17T13:39:55Z</time>
      </trkpt>
      <trkpt lat="44.46578" lon="1.07331">
        <ele>230.745483</ele>
        <time>2019-08-17T13:39:56Z</time>
      </trkpt>
      <trkpt lat="44.46579" lon="1.07338">
        <ele>230.565002</ele>
        <time>2019-08-17T13:39:57Z</time>
      </trkpt>
      <trkpt lat="44.46579" lon="1.07345">
        <ele>230.392395</ele>
        <time>2019-08-17T13:39:58Z</time>
      </trkpt>
      <trkpt lat="44.46579" lon="1.07352">
        <ele>230.251724</ele>
        <time>2019-08-17T13:39:59Z</time>
      </trkpt>
      <trkpt lat="44.4658" lon="1.07358">
        <ele>230.251724</ele>
        <time>2019-08-17T13:40:00Z</time>
      </trkpt>
      <trkpt lat="44.46581" lon="1.07364">
        <ele>230.133316</ele>
        <time>2019-08-17T13:40:01Z</time>
      </trkpt>
      <trkpt lat="44.46581" lon="1.07371">
        <ele>230.042236</ele>
        <time>2019-08-17T13:40:02Z</time>
      </trkpt>
      <trkpt lat="44.46582" lon="1.07377">
        <ele>229.975784</ele>
        <time>2019-08-17T13:40:03Z</time>
      </trkpt>
      <trkpt lat="44.46582" lon="1.07384">
        <ele>229.93158</ele>
        <time>2019-08-17T13:40:04Z</time>
      </trkpt>
      <trkpt lat="44.46582" lon="1.07391">
        <ele>229.93158</ele>
        <time>2019-08-17T13:40:05Z</time>
      </trkpt>
      <trkpt lat="44.46582" lon="1.07397">
        <ele>229.8974</ele>
        <time>2019-08-17T13:40:06Z</time>
      </trkpt>
      <trkpt lat="44.46583" lon="1.07404">
        <ele>229.863953</ele>
        <time>2019-08-17T13:40:07Z</time>
      </trkpt>
      <trkpt lat="44.46584" lon="1.0741">
        <ele>229.829086</ele>
        <time>2019-08-17T13:40:08Z</time>
      </trkpt>
      <trkpt lat="44.46586" lon="1.07417">
        <ele>229.787796</ele>
        <time>2019-08-17T13:40:09Z</time>
      </trkpt>
      <trkpt lat="44.46587" lon="1.07423">
        <ele>229.787796</ele>
        <time>2019-08-17T13:40:10Z</time>
      </trkpt>
      <trkpt lat="44.46589" lon="1.07429">
        <ele>229.750931</ele>
        <time>2019-08-17T13:40:11Z</time>
      </trkpt>
      <trkpt lat="44.46592" lon="1.07435">
        <ele>229.710739</ele>
        <time>2019-08-17T13:40:12Z</time>
      </trkpt>
      <trkpt lat="44.46594" lon="1.07441">
        <ele>229.63945</ele>
        <time>2019-08-17T13:40:13Z</time>
      </trkpt>
      <trkpt lat="44.46597" lon="1.07446">
        <ele>229.546158</ele>
        <time>2019-08-17T13:40:14Z</time>
      </trkpt>
      <trkpt lat="44.466" lon="1.07451">
        <ele>229.431885</ele>
        <time>2019-08-17T13:40:15Z</time>
      </trkpt>
      <trkpt lat="44.46603" lon="1.07455">
        <ele>229.287415</ele>
        <time>2019-08-17T13:40:16Z</time>
      </trkpt>
      <trkpt lat="44.46606" lon="1.07459">
        <ele>229.118118</ele>
        <time>2019-08-17T13:40:17Z</time>
      </trkpt>
      <trkpt lat="44.4661" lon="1.07463">
        <ele>228.925659</ele>
        <time>2019-08-17T13:40:18Z</time>
      </trkpt>
      <trkpt lat="44.46613" lon="1.07466">
        <ele>228.735718</ele>
        <time>2019-08-17T13:40:19Z</time>
      </trkpt>
      <trkpt lat="44.46617" lon="1.07469">
        <ele>228.53511</ele>
        <time>2019-08-17T13:40:20Z</time>
      </trkpt>
      <trkpt lat="44.46621" lon="1.07473">
        <ele>228.338089</ele>
        <time>2019-08-17T13:40:21Z</time>
      </trkpt>
      <trkpt lat="44.46625" lon="1.07477">
        <ele>228.149338</ele>
        <time>2019-08-17T13:40:22Z</time>
      </trkpt>
      <trkpt lat="44.46628" lon="1.07481">
        <ele>227.967773</ele>
        <time>2019-08-17T13:40:23Z</time>
      </trkpt>
      <trkpt lat="44.46631" lon="1.07485">
        <ele>227.799637</ele>
        <time>2019-08-17T13:40:24Z</time>
      </trkpt>
      <trkpt lat="44.46635" lon="1.07489">
        <ele>227.649353</ele>
        <time>2019-08-17T13:40:25Z</time>
      </trkpt>
      <trkpt lat="44.46638" lon="1.07494">
        <ele>227.520889</ele>
        <time>2019-08-17T13:40:26Z</time>
      </trkpt>
      <trkpt lat="44.46641" lon="1.07498">
        <ele>227.520889</ele>
        <time>2019-08-17T13:40:27Z</time>
      </trkpt>
      <trkpt lat="44.46643" lon="1.07503">
        <ele>227.410767</ele>
        <time>2019-08-17T13:40:28Z</time>
      </trkpt>
      <trkpt lat="44.46646" lon="1.07507">
        <ele>227.317444</ele>
        <time>2019-08-17T13:40:29Z</time>
      </trkpt>
      <trkpt lat="44.46649" lon="1.07512">
        <ele>227.249329</ele>
        <time>2019-08-17T13:40:30Z</time>
      </trkpt>
      <trkpt lat="44.46652" lon="1.07517">
        <ele>227.212967</ele>
        <time>2019-08-17T13:40:31Z</time>
      </trkpt>
      <trkpt lat="44.46654" lon="1.07523">
        <ele>227.212112</ele>
        <time>2019-08-17T13:40:32Z</time>
      </trkpt>
      <trkpt lat="44.46656" lon="1.07528">
        <ele>227.212112</ele>
        <time>2019-08-17T13:40:33Z</time>
      </trkpt>
      <trkpt lat="44.46658" lon="1.07534">
        <ele>227.212112</ele>
        <time>2019-08-17T13:40:34Z</time>
      </trkpt>
      <trkpt lat="44.46661" lon="1.07539">
        <ele>227.244019</ele>
        <time>2019-08-17T13:40:35Z</time>
      </trkpt>
      <trkpt lat="44.46662" lon="1.07545">
        <ele>227.244019</ele>
        <time>2019-08-17T13:40:36Z</time>
      </trkpt>
      <trkpt lat="44.46664" lon="1.0755">
        <ele>227.310181</ele>
        <time>2019-08-17T13:40:37Z</time>
      </trkpt>
      <trkpt lat="44.46665" lon="1.07555">
        <ele>227.411545</ele>
        <time>2019-08-17T13:40:38Z</time>
      </trkpt>
      <trkpt lat="44.46667" lon="1.0756">
        <ele>227.579666</ele>
        <time>2019-08-17T13:40:39Z</time>
      </trkpt>
      <trkpt lat="44.46669" lon="1.07564">
        <ele>227.774719</ele>
        <time>2019-08-17T13:40:40Z</time>
      </trkpt>
      <trkpt lat="44.4667" lon="1.07568">
        <ele>227.98378</ele>
        <time>2019-08-17T13:40:41Z</time>
      </trkpt>
      <trkpt lat="44.46671" lon="1.07572">
        <ele>228.202621</ele>
        <time>2019-08-17T13:40:42Z</time>
      </trkpt>
      <trkpt lat="44.46672" lon="1.07575">
        <ele>228.427109</ele>
        <time>2019-08-17T13:40:43Z</time>
      </trkpt>
      <trkpt lat="44.46674" lon="1.07578">
        <ele>228.653748</ele>
        <time>2019-08-17T13:40:44Z</time>
      </trkpt>
      <trkpt lat="44.46674" lon="1.0758">
        <ele>228.839294</ele>
        <time>2019-08-17T13:40:45Z</time>
      </trkpt>
      <trkpt lat="44.46674" lon="1.07582">
        <ele>229.011353</ele>
        <time>2019-08-17T13:40:46Z</time>
      </trkpt>
      <trkpt lat="44.46675" lon="1.07584">
        <ele>229.172623</ele>
        <time>2019-08-17T13:40:47Z</time>
      </trkpt>
      <trkpt lat="44.46675" lon="1.07586">
        <ele>229.323563</ele>
        <time>2019-08-17T13:40:48Z</time>
      </trkpt>
      <trkpt lat="44.46681" lon="1.07599">
        <ele>229.9814</ele>
        <time>2019-08-17T13:41:13Z</time>
      </trkpt>
      <trkpt lat="44.46682" lon="1.07601">
        <ele>230.021835</ele>
        <time>2019-08-17T13:41:15Z</time>
      </trkpt>
      <trkpt lat="44.46683" lon="1.07604">
        <ele>230.082565</ele>
        <time>2019-08-17T13:41:16Z</time>
      </trkpt>
      <trkpt lat="44.46684" lon="1.07606">
        <ele>230.187973</ele>
        <time>2019-08-17T13:41:17Z</time>
      </trkpt>
      <trkpt lat="44.46685" lon="1.07609">
        <ele>230.305481</ele>
        <time>2019-08-17T13:41:18Z</time>
      </trkpt>
      <trkpt lat="44.46686" lon="1.07611">
        <ele>230.305481</ele>
        <time>2019-08-17T13:41:19Z</time>
      </trkpt>
      <trkpt lat="44.46687" lon="1.07614">
        <ele>230.433472</ele>
        <time>2019-08-17T13:41:20Z</time>
      </trkpt>
      <trkpt lat="44.46689" lon="1.07616">
        <ele>230.565628</ele>
        <time>2019-08-17T13:41:21Z</time>
      </trkpt>
      <trkpt lat="44.4669" lon="1.07619">
        <ele>230.710922</ele>
        <time>2019-08-17T13:41:22Z</time>
      </trkpt>
      <trkpt lat="44.46692" lon="1.07622">
        <ele>230.854477</ele>
        <time>2019-08-17T13:41:23Z</time>
      </trkpt>
      <trkpt lat="44.46693" lon="1.07624">
        <ele>230.972412</ele>
        <time>2019-08-17T13:41:24Z</time>
      </trkpt>
      <trkpt lat="44.46695" lon="1.07627">
        <ele>231.093918</ele>
        <time>2019-08-17T13:41:25Z</time>
      </trkpt>
      <trkpt lat="44.46696" lon="1.07629">
        <ele>231.218277</ele>
        <time>2019-08-17T13:41:26Z</time>
      </trkpt>
      <trkpt lat="44.46698" lon="1.07631">
        <ele>231.343811</ele>
        <time>2019-08-17T13:41:27Z</time>
      </trkpt>
      <trkpt lat="44.46699" lon="1.07634">
        <ele>231.458069</ele>
        <time>2019-08-17T13:41:28Z</time>
      </trkpt>
      <trkpt lat="44.46701" lon="1.07636">
        <ele>231.573776</ele>
        <time>2019-08-17T13:41:29Z</time>
      </trkpt>
      <trkpt lat="44.46703" lon="1.07638">
        <ele>231.689774</ele>
        <time>2019-08-17T13:41:30Z</time>
      </trkpt>
      <trkpt lat="44.46705" lon="1.07641">
        <ele>231.805054</ele>
        <time>2019-08-17T13:41:31Z</time>
      </trkpt>
      <trkpt lat="44.46706" lon="1.07643">
        <ele>231.920547</ele>
        <time>2019-08-17T13:41:32Z</time>
      </trkpt>
      <trkpt lat="44.46708" lon="1.07645">
        <ele>232.03949</ele>
        <time>2019-08-17T13:41:33Z</time>
      </trkpt>
      <trkpt lat="44.46709" lon="1.07647">
        <ele>232.159851</ele>
        <time>2019-08-17T13:41:34Z</time>
      </trkpt>
      <trkpt lat="44.46711" lon="1.07649">
        <ele>232.28093</ele>
        <time>2019-08-17T13:41:35Z</time>
      </trkpt>
      <trkpt lat="44.46713" lon="1.07651">
        <ele>232.403763</ele>
        <time>2019-08-17T13:41:36Z</time>
      </trkpt>
      <trkpt lat="44.46716" lon="1.07653">
        <ele>232.403763</ele>
        <time>2019-08-17T13:41:37Z</time>
      </trkpt>
      <trkpt lat="44.46718" lon="1.07655">
        <ele>232.527725</ele>
        <time>2019-08-17T13:41:38Z</time>
      </trkpt>
      <trkpt lat="44.46719" lon="1.07657">
        <ele>232.652481</ele>
        <time>2019-08-17T13:41:39Z</time>
      </trkpt>
      <trkpt lat="44.46721" lon="1.07659">
        <ele>232.799759</ele>
        <time>2019-08-17T13:41:40Z</time>
      </trkpt>
      <trkpt lat="44.46723" lon="1.07661">
        <ele>232.973038</ele>
        <time>2019-08-17T13:41:41Z</time>
      </trkpt>
      <trkpt lat="44.46725" lon="1.07662">
        <ele>233.198746</ele>
        <time>2019-08-17T13:41:42Z</time>
      </trkpt>
      <trkpt lat="44.46727" lon="1.07664">
        <ele>233.46843</ele>
        <time>2019-08-17T13:41:43Z</time>
      </trkpt>
      <trkpt lat="44.46729" lon="1.07666">
        <ele>233.783813</ele>
        <time>2019-08-17T13:41:44Z</time>
      </trkpt>
      <trkpt lat="44.4673" lon="1.07667">
        <ele>234.139755</ele>
        <time>2019-08-17T13:41:45Z</time>
      </trkpt>
      <trkpt lat="44.46732" lon="1.07669">
        <ele>234.523697</ele>
        <time>2019-08-17T13:41:46Z</time>
      </trkpt>
      <trkpt lat="44.46734" lon="1.0767">
        <ele>234.934021</ele>
        <time>2019-08-17T13:41:47Z</time>
      </trkpt>
      <trkpt lat="44.46737" lon="1.07671">
        <ele>235.333984</ele>
        <time>2019-08-17T13:41:48Z</time>
      </trkpt>
      <trkpt lat="44.46739" lon="1.07673">
        <ele>235.7285</ele>
        <time>2019-08-17T13:41:49Z</time>
      </trkpt>
      <trkpt lat="44.46741" lon="1.07674">
        <ele>236.12207</ele>
        <time>2019-08-17T13:41:50Z</time>
      </trkpt>
      <trkpt lat="44.46742" lon="1.07675">
        <ele>236.522781</ele>
        <time>2019-08-17T13:41:51Z</time>
      </trkpt>
      <trkpt lat="44.46745" lon="1.07677">
        <ele>236.914932</ele>
        <time>2019-08-17T13:41:52Z</time>
      </trkpt>
      <trkpt lat="44.46746" lon="1.07678">
        <ele>237.301346</ele>
        <time>2019-08-17T13:41:53Z</time>
      </trkpt>
      <trkpt lat="44.46748" lon="1.07679">
        <ele>237.683395</ele>
        <time>2019-08-17T13:41:54Z</time>
      </trkpt>
      <trkpt lat="44.4675" lon="1.0768">
        <ele>238.066345</ele>
        <time>2019-08-17T13:41:55Z</time>
      </trkpt>
      <trkpt lat="44.46752" lon="1.07682">
        <ele>238.442978</ele>
        <time>2019-08-17T13:41:56Z</time>
      </trkpt>
      <trkpt lat="44.46753" lon="1.07683">
        <ele>238.80304</ele>
        <time>2019-08-17T13:41:57Z</time>
      </trkpt>
      <trkpt lat="44.46755" lon="1.07684">
        <ele>239.154175</ele>
        <time>2019-08-17T13:41:58Z</time>
      </trkpt>
      <trkpt lat="44.46757" lon="1.07686">
        <ele>239.491196</ele>
        <time>2019-08-17T13:41:59Z</time>
      </trkpt>
      <trkpt lat="44.46758" lon="1.07687">
        <ele>239.827652</ele>
        <time>2019-08-17T13:42:00Z</time>
      </trkpt>
      <trkpt lat="44.4676" lon="1.07689">
        <ele>240.15564</ele>
        <time>2019-08-17T13:42:01Z</time>
      </trkpt>
      <trkpt lat="44.46762" lon="1.0769">
        <ele>240.15564</ele>
        <time>2019-08-17T13:42:02Z</time>
      </trkpt>
      <trkpt lat="44.46763" lon="1.07691">
        <ele>240.475388</ele>
        <time>2019-08-17T13:42:03Z</time>
      </trkpt>
      <trkpt lat="44.46765" lon="1.07692">
        <ele>240.795364</ele>
        <time>2019-08-17T13:42:04Z</time>
      </trkpt>
      <trkpt lat="44.46767" lon="1.07694">
        <ele>241.159378</ele>
        <time>2019-08-17T13:42:05Z</time>
      </trkpt>
      <trkpt lat="44.46768" lon="1.07695">
        <ele>241.520096</ele>
        <time>2019-08-17T13:42:06Z</time>
      </trkpt>
      <trkpt lat="44.4677" lon="1.07696">
        <ele>241.876022</ele>
        <time>2019-08-17T13:42:07Z</time>
      </trkpt>
      <trkpt lat="44.46772" lon="1.07697">
        <ele>242.228928</ele>
        <time>2019-08-17T13:42:08Z</time>
      </trkpt>
      <trkpt lat="44.46773" lon="1.07698">
        <ele>242.581589</ele>
        <time>2019-08-17T13:42:09Z</time>
      </trkpt>
      <trkpt lat="44.46775" lon="1.07699">
        <ele>242.93013</ele>
        <time>2019-08-17T13:42:10Z</time>
      </trkpt>
      <trkpt lat="44.46777" lon="1.07701">
        <ele>243.223526</ele>
        <time>2019-08-17T13:42:11Z</time>
      </trkpt>
      <trkpt lat="44.46778" lon="1.07702">
        <ele>243.512207</ele>
        <time>2019-08-17T13:42:12Z</time>
      </trkpt>
      <trkpt lat="44.4678" lon="1.07703">
        <ele>243.795288</ele>
        <time>2019-08-17T13:42:13Z</time>
      </trkpt>
      <trkpt lat="44.46781" lon="1.07704">
        <ele>244.077408</ele>
        <time>2019-08-17T13:42:14Z</time>
      </trkpt>
      <trkpt lat="44.46783" lon="1.07705">
        <ele>244.353745</ele>
        <time>2019-08-17T13:42:15Z</time>
      </trkpt>
      <trkpt lat="44.46785" lon="1.07706">
        <ele>244.626724</ele>
        <time>2019-08-17T13:42:16Z</time>
      </trkpt>
      <trkpt lat="44.46787" lon="1.07706">
        <ele>244.905334</ele>
        <time>2019-08-17T13:42:17Z</time>
      </trkpt>
      <trkpt lat="44.46789" lon="1.07707">
        <ele>245.183472</ele>
        <time>2019-08-17T13:42:18Z</time>
      </trkpt>
      <trkpt lat="44.46791" lon="1.07708">
        <ele>245.461349</ele>
        <time>2019-08-17T13:42:19Z</time>
      </trkpt>
      <trkpt lat="44.46793" lon="1.0771">
        <ele>245.730545</ele>
        <time>2019-08-17T13:42:20Z</time>
      </trkpt>
      <trkpt lat="44.46795" lon="1.07711">
        <ele>245.993118</ele>
        <time>2019-08-17T13:42:21Z</time>
      </trkpt>
      <trkpt lat="44.46797" lon="1.07713">
        <ele>246.25177</ele>
        <time>2019-08-17T13:42:22Z</time>
      </trkpt>
      <trkpt lat="44.46799" lon="1.07715">
        <ele>246.503906</ele>
        <time>2019-08-17T13:42:23Z</time>
      </trkpt>
      <trkpt lat="44.46801" lon="1.07716">
        <ele>246.754272</ele>
        <time>2019-08-17T13:42:24Z</time>
      </trkpt>
      <trkpt lat="44.46803" lon="1.07718">
        <ele>246.754272</ele>
        <time>2019-08-17T13:42:25Z</time>
      </trkpt>
      <trkpt lat="44.46805" lon="1.0772">
        <ele>246.999329</ele>
        <time>2019-08-17T13:42:26Z</time>
      </trkpt>
      <trkpt lat="44.46807" lon="1.07722">
        <ele>247.250961</ele>
        <time>2019-08-17T13:42:27Z</time>
      </trkpt>
      <trkpt lat="44.46809" lon="1.07725">
        <ele>247.550064</ele>
        <time>2019-08-17T13:42:28Z</time>
      </trkpt>
      <trkpt lat="44.46811" lon="1.07726">
        <ele>247.853333</ele>
        <time>2019-08-17T13:42:29Z</time>
      </trkpt>
      <trkpt lat="44.46813" lon="1.07728">
        <ele>248.157898</ele>
        <time>2019-08-17T13:42:30Z</time>
      </trkpt>
      <trkpt lat="44.46815" lon="1.0773">
        <ele>248.459839</ele>
        <time>2019-08-17T13:42:31Z</time>
      </trkpt>
      <trkpt lat="44.46817" lon="1.07733">
        <ele>248.761353</ele>
        <time>2019-08-17T13:42:32Z</time>
      </trkpt>
      <trkpt lat="44.46817" lon="1.07737">
        <ele>249.060959</ele>
        <time>2019-08-17T13:42:33Z</time>
      </trkpt>
      <trkpt lat="44.46818" lon="1.0774">
        <ele>249.319504</ele>
        <time>2019-08-17T13:42:34Z</time>
      </trkpt>
      <trkpt lat="44.46817" lon="1.07745">
        <ele>249.572144</ele>
        <time>2019-08-17T13:42:35Z</time>
      </trkpt>
      <trkpt lat="44.46817" lon="1.07749">
        <ele>249.806778</ele>
        <time>2019-08-17T13:42:36Z</time>
      </trkpt>
      <trkpt lat="44.46817" lon="1.07754">
        <ele>250.008377</ele>
        <time>2019-08-17T13:42:37Z</time>
      </trkpt>
      <trkpt lat="44.46817" lon="1.07758">
        <ele>250.008377</ele>
        <time>2019-08-17T13:42:38Z</time>
      </trkpt>
      <trkpt lat="44.46817" lon="1.07763">
        <ele>250.171692</ele>
        <time>2019-08-17T13:42:39Z</time>
      </trkpt>
      <trkpt lat="44.46817" lon="1.07768">
        <ele>250.294571</ele>
        <time>2019-08-17T13:42:40Z</time>
      </trkpt>
      <trkpt lat="44.46816" lon="1.07773">
        <ele>250.384537</ele>
        <time>2019-08-17T13:42:41Z</time>
      </trkpt>
      <trkpt lat="44.46816" lon="1.07778">
        <ele>250.439529</ele>
        <time>2019-08-17T13:42:42Z</time>
      </trkpt>
      <trkpt lat="44.46815" lon="1.07783">
        <ele>250.469315</ele>
        <time>2019-08-17T13:42:43Z</time>
      </trkpt>
      <trkpt lat="44.46814" lon="1.07789">
        <ele>250.490646</ele>
        <time>2019-08-17T13:42:44Z</time>
      </trkpt>
      <trkpt lat="44.46814" lon="1.07795">
        <ele>250.510025</ele>
        <time>2019-08-17T13:42:45Z</time>
      </trkpt>
      <trkpt lat="44.46813" lon="1.078">
        <ele>250.526001</ele>
        <time>2019-08-17T13:42:46Z</time>
      </trkpt>
      <trkpt lat="44.46812" lon="1.07806">
        <ele>250.526001</ele>
        <time>2019-08-17T13:42:47Z</time>
      </trkpt>
      <trkpt lat="44.46812" lon="1.07812">
        <ele>250.531616</ele>
        <time>2019-08-17T13:42:48Z</time>
      </trkpt>
      <trkpt lat="44.46811" lon="1.07818">
        <ele>250.536377</ele>
        <time>2019-08-17T13:42:49Z</time>
      </trkpt>
      <trkpt lat="44.46811" lon="1.07824">
        <ele>250.56282</ele>
        <time>2019-08-17T13:42:50Z</time>
      </trkpt>
      <trkpt lat="44.46811" lon="1.0783">
        <ele>250.612549</ele>
        <time>2019-08-17T13:42:51Z</time>
      </trkpt>
      <trkpt lat="44.46811" lon="1.07836">
        <ele>250.685913</ele>
        <time>2019-08-17T13:42:52Z</time>
      </trkpt>
      <trkpt lat="44.46811" lon="1.07841">
        <ele>250.784592</ele>
        <time>2019-08-17T13:42:53Z</time>
      </trkpt>
      <trkpt lat="44.46812" lon="1.07847">
        <ele>250.91188</ele>
        <time>2019-08-17T13:42:54Z</time>
      </trkpt>
      <trkpt lat="44.46812" lon="1.07853">
        <ele>251.061844</ele>
        <time>2019-08-17T13:42:55Z</time>
      </trkpt>
      <trkpt lat="44.46813" lon="1.07859">
        <ele>251.221191</ele>
        <time>2019-08-17T13:42:56Z</time>
      </trkpt>
      <trkpt lat="44.46814" lon="1.07865">
        <ele>251.389481</ele>
        <time>2019-08-17T13:42:57Z</time>
      </trkpt>
      <trkpt lat="44.46814" lon="1.07871">
        <ele>251.568359</ele>
        <time>2019-08-17T13:42:58Z</time>
      </trkpt>
      <trkpt lat="44.46815" lon="1.07877">
        <ele>251.755051</ele>
        <time>2019-08-17T13:42:59Z</time>
      </trkpt>
      <trkpt lat="44.46816" lon="1.07883">
        <ele>251.948898</ele>
        <time>2019-08-17T13:43:00Z</time>
      </trkpt>
      <trkpt lat="44.46816" lon="1.07889">
        <ele>252.150879</ele>
        <time>2019-08-17T13:43:01Z</time>
      </trkpt>
      <trkpt lat="44.46817" lon="1.07895">
        <ele>252.150879</ele>
        <time>2019-08-17T13:43:02Z</time>
      </trkpt>
      <trkpt lat="44.46818" lon="1.07901">
        <ele>252.357742</ele>
        <time>2019-08-17T13:43:03Z</time>
      </trkpt>
      <trkpt lat="44.46819" lon="1.07907">
        <ele>252.567871</ele>
        <time>2019-08-17T13:43:04Z</time>
      </trkpt>
      <trkpt lat="44.4682" lon="1.07912">
        <ele>252.817703</ele>
        <time>2019-08-17T13:43:05Z</time>
      </trkpt>
      <trkpt lat="44.46822" lon="1.07918">
        <ele>253.072754</ele>
        <time>2019-08-17T13:43:06Z</time>
      </trkpt>
      <trkpt lat="44.46823" lon="1.07924">
        <ele>253.330887</ele>
        <time>2019-08-17T13:43:07Z</time>
      </trkpt>
      <trkpt lat="44.46824" lon="1.0793">
        <ele>253.593918</ele>
        <time>2019-08-17T13:43:08Z</time>
      </trkpt>
      <trkpt lat="44.46824" lon="1.07936">
        <ele>253.858566</ele>
        <time>2019-08-17T13:43:09Z</time>
      </trkpt>
      <trkpt lat="44.46825" lon="1.07942">
        <ele>254.126465</ele>
        <time>2019-08-17T13:43:10Z</time>
      </trkpt>
      <trkpt lat="44.46827" lon="1.07947">
        <ele>254.360352</ele>
        <time>2019-08-17T13:43:11Z</time>
      </trkpt>
      <trkpt lat="44.46828" lon="1.07953">
        <ele>254.590652</ele>
        <time>2019-08-17T13:43:12Z</time>
      </trkpt>
      <trkpt lat="44.4683" lon="1.07959">
        <ele>254.823929</ele>
        <time>2019-08-17T13:43:13Z</time>
      </trkpt>
      <trkpt lat="44.46832" lon="1.07965">
        <ele>255.087708</ele>
        <time>2019-08-17T13:43:14Z</time>
      </trkpt>
      <trkpt lat="44.46833" lon="1.07971">
        <ele>255.385544</ele>
        <time>2019-08-17T13:43:15Z</time>
      </trkpt>
      <trkpt lat="44.46835" lon="1.07977">
        <ele>255.385544</ele>
        <time>2019-08-17T13:43:16Z</time>
      </trkpt>
      <trkpt lat="44.46837" lon="1.07983">
        <ele>255.723129</ele>
        <time>2019-08-17T13:43:17Z</time>
      </trkpt>
      <trkpt lat="44.46838" lon="1.0799">
        <ele>256.103546</ele>
        <time>2019-08-17T13:43:18Z</time>
      </trkpt>
      <trkpt lat="44.46841" lon="1.07998">
        <ele>256.103546</ele>
        <time>2019-08-17T13:43:19Z</time>
      </trkpt>
      <trkpt lat="44.46845" lon="1.08005">
        <ele>256.614532</ele>
        <time>2019-08-17T13:43:20Z</time>
      </trkpt>
      <trkpt lat="44.46849" lon="1.08011">
        <ele>257.173248</ele>
        <time>2019-08-17T13:43:21Z</time>
      </trkpt>
      <trkpt lat="44.46853" lon="1.08018">
        <ele>257.887329</ele>
        <time>2019-08-17T13:43:22Z</time>
      </trkpt>
      <trkpt lat="44.46859" lon="1.08024">
        <ele>258.657745</ele>
        <time>2019-08-17T13:43:23Z</time>
      </trkpt>
      <trkpt lat="44.46864" lon="1.08029">
        <ele>258.657745</ele>
        <time>2019-08-17T13:43:24Z</time>
      </trkpt>
      <trkpt lat="44.4687" lon="1.08033">
        <ele>259.487</ele>
        <time>2019-08-17T13:43:25Z</time>
      </trkpt>
      <trkpt lat="44.46875" lon="1.08037">
        <ele>260.175537</ele>
        <time>2019-08-17T13:43:26Z</time>
      </trkpt>
      <trkpt lat="44.4688" lon="1.0804">
        <ele>260.175537</ele>
        <time>2019-08-17T13:43:27Z</time>
      </trkpt>
      <trkpt lat="44.46886" lon="1.08043">
        <ele>260.550659</ele>
        <time>2019-08-17T13:43:28Z</time>
      </trkpt>
      <trkpt lat="44.46891" lon="1.08043">
        <ele>260.751343</ele>
        <time>2019-08-17T13:43:29Z</time>
      </trkpt>
      <trkpt lat="44.46897" lon="1.08043">
        <ele>260.751343</ele>
        <time>2019-08-17T13:43:30Z</time>
      </trkpt>
      <trkpt lat="44.46903" lon="1.08042">
        <ele>260.751343</ele>
        <time>2019-08-17T13:43:31Z</time>
      </trkpt>
      <trkpt lat="44.4691" lon="1.08041">
        <ele>260.617188</ele>
        <time>2019-08-17T13:43:32Z</time>
      </trkpt>
      <trkpt lat="44.46917" lon="1.08041">
        <ele>260.228851</ele>
        <time>2019-08-17T13:43:33Z</time>
      </trkpt>
      <trkpt lat="44.46923" lon="1.0804">
        <ele>259.571289</ele>
        <time>2019-08-17T13:43:34Z</time>
      </trkpt>
      <trkpt lat="44.4693" lon="1.08041">
        <ele>258.826813</ele>
        <time>2019-08-17T13:43:35Z</time>
      </trkpt>
      <trkpt lat="44.46938" lon="1.08041">
        <ele>258.078857</ele>
        <time>2019-08-17T13:43:36Z</time>
      </trkpt>
      <trkpt lat="44.46944" lon="1.08041">
        <ele>257.265717</ele>
        <time>2019-08-17T13:43:37Z</time>
      </trkpt>
      <trkpt lat="44.46952" lon="1.08042">
        <ele>256.380493</ele>
        <time>2019-08-17T13:43:38Z</time>
      </trkpt>
      <trkpt lat="44.4696" lon="1.08043">
        <ele>255.432266</ele>
        <time>2019-08-17T13:43:39Z</time>
      </trkpt>
      <trkpt lat="44.46968" lon="1.08044">
        <ele>254.422791</ele>
        <time>2019-08-17T13:43:40Z</time>
      </trkpt>
      <trkpt lat="44.46977" lon="1.08045">
        <ele>253.368652</ele>
        <time>2019-08-17T13:43:41Z</time>
      </trkpt>
      <trkpt lat="44.46985" lon="1.08046">
        <ele>252.273972</ele>
        <time>2019-08-17T13:43:42Z</time>
      </trkpt>
      <trkpt lat="44.46994" lon="1.08048">
        <ele>251.129715</ele>
        <time>2019-08-17T13:43:43Z</time>
      </trkpt>
      <trkpt lat="44.47002" lon="1.08049">
        <ele>249.959274</ele>
        <time>2019-08-17T13:43:44Z</time>
      </trkpt>
      <trkpt lat="44.47011" lon="1.08051">
        <ele>248.763382</ele>
        <time>2019-08-17T13:43:45Z</time>
      </trkpt>
      <trkpt lat="44.47019" lon="1.08053">
        <ele>247.581589</ele>
        <time>2019-08-17T13:43:46Z</time>
      </trkpt>
      <trkpt lat="44.47026" lon="1.08055">
        <ele>247.581589</ele>
        <time>2019-08-17T13:43:47Z</time>
      </trkpt>
      <trkpt lat="44.47034" lon="1.08058">
        <ele>246.474976</ele>
        <time>2019-08-17T13:43:48Z</time>
      </trkpt>
      <trkpt lat="44.47041" lon="1.08061">
        <ele>245.454544</ele>
        <time>2019-08-17T13:43:49Z</time>
      </trkpt>
      <trkpt lat="44.47049" lon="1.08063">
        <ele>244.453918</ele>
        <time>2019-08-17T13:43:50Z</time>
      </trkpt>
      <trkpt lat="44.47056" lon="1.08066">
        <ele>243.584244</ele>
        <time>2019-08-17T13:43:51Z</time>
      </trkpt>
      <trkpt lat="44.47064" lon="1.08067">
        <ele>242.846756</ele>
        <time>2019-08-17T13:43:52Z</time>
      </trkpt>
      <trkpt lat="44.47072" lon="1.08069">
        <ele>242.205826</ele>
        <time>2019-08-17T13:43:53Z</time>
      </trkpt>
      <trkpt lat="44.47079" lon="1.08071">
        <ele>241.589493</ele>
        <time>2019-08-17T13:43:54Z</time>
      </trkpt>
      <trkpt lat="44.47086" lon="1.08073">
        <ele>241.01947</ele>
        <time>2019-08-17T13:43:55Z</time>
      </trkpt>
      <trkpt lat="44.47094" lon="1.08074">
        <ele>240.599609</ele>
        <time>2019-08-17T13:43:56Z</time>
      </trkpt>
      <trkpt lat="44.47101" lon="1.08076">
        <ele>240.228439</ele>
        <time>2019-08-17T13:43:57Z</time>
      </trkpt>
      <trkpt lat="44.47109" lon="1.08077">
        <ele>239.910751</ele>
        <time>2019-08-17T13:43:58Z</time>
      </trkpt>
      <trkpt lat="44.47117" lon="1.08078">
        <ele>239.641861</ele>
        <time>2019-08-17T13:43:59Z</time>
      </trkpt>
      <trkpt lat="44.47124" lon="1.08079">
        <ele>239.428268</ele>
        <time>2019-08-17T13:44:00Z</time>
      </trkpt>
      <trkpt lat="44.4713" lon="1.0808">
        <ele>239.237564</ele>
        <time>2019-08-17T13:44:01Z</time>
      </trkpt>
      <trkpt lat="44.47137" lon="1.08081">
        <ele>239.037903</ele>
        <time>2019-08-17T13:44:02Z</time>
      </trkpt>
      <trkpt lat="44.47143" lon="1.08081">
        <ele>238.78479</ele>
        <time>2019-08-17T13:44:03Z</time>
      </trkpt>
      <trkpt lat="44.47148" lon="1.08082">
        <ele>238.604263</ele>
        <time>2019-08-17T13:44:04Z</time>
      </trkpt>
      <trkpt lat="44.47153" lon="1.08083">
        <ele>238.484634</ele>
        <time>2019-08-17T13:44:05Z</time>
      </trkpt>
      <trkpt lat="44.47158" lon="1.08085">
        <ele>238.407532</ele>
        <time>2019-08-17T13:44:06Z</time>
      </trkpt>
      <trkpt lat="44.47163" lon="1.08087">
        <ele>238.351944</ele>
        <time>2019-08-17T13:44:07Z</time>
      </trkpt>
      <trkpt lat="44.47168" lon="1.0809">
        <ele>238.297012</ele>
        <time>2019-08-17T13:44:08Z</time>
      </trkpt>
      <trkpt lat="44.47173" lon="1.08094">
        <ele>238.215805</ele>
        <time>2019-08-17T13:44:09Z</time>
      </trkpt>
      <trkpt lat="44.47179" lon="1.08097">
        <ele>238.125961</ele>
        <time>2019-08-17T13:44:10Z</time>
      </trkpt>
      <trkpt lat="44.47185" lon="1.08101">
        <ele>238.078781</ele>
        <time>2019-08-17T13:44:11Z</time>
      </trkpt>
      <trkpt lat="44.47192" lon="1.08105">
        <ele>238.035645</ele>
        <time>2019-08-17T13:44:12Z</time>
      </trkpt>
      <trkpt lat="44.47199" lon="1.08109">
        <ele>237.871582</ele>
        <time>2019-08-17T13:44:13Z</time>
      </trkpt>
      <trkpt lat="44.47205" lon="1.08113">
        <ele>237.586594</ele>
        <time>2019-08-17T13:44:14Z</time>
      </trkpt>
      <trkpt lat="44.47213" lon="1.08116">
        <ele>237.205078</ele>
        <time>2019-08-17T13:44:15Z</time>
      </trkpt>
      <trkpt lat="44.4722" lon="1.0812">
        <ele>236.805008</ele>
        <time>2019-08-17T13:44:16Z</time>
      </trkpt>
      <trkpt lat="44.47228" lon="1.08124">
        <ele>236.805008</ele>
        <time>2019-08-17T13:44:17Z</time>
      </trkpt>
      <trkpt lat="44.47235" lon="1.08128">
        <ele>236.417068</ele>
        <time>2019-08-17T13:44:18Z</time>
      </trkpt>
      <trkpt lat="44.47243" lon="1.08133">
        <ele>236.064865</ele>
        <time>2019-08-17T13:44:19Z</time>
      </trkpt>
      <trkpt lat="44.4725" lon="1.08137">
        <ele>235.715332</ele>
        <time>2019-08-17T13:44:20Z</time>
      </trkpt>
      <trkpt lat="44.47258" lon="1.08142">
        <ele>235.386551</ele>
        <time>2019-08-17T13:44:21Z</time>
      </trkpt>
      <trkpt lat="44.47265" lon="1.08147">
        <ele>235.06575</ele>
        <time>2019-08-17T13:44:22Z</time>
      </trkpt>
      <trkpt lat="44.47273" lon="1.08152">
        <ele>234.734131</ele>
        <time>2019-08-17T13:44:23Z</time>
      </trkpt>
      <trkpt lat="44.47281" lon="1.08157">
        <ele>234.368729</ele>
        <time>2019-08-17T13:44:24Z</time>
      </trkpt>
      <trkpt lat="44.47289" lon="1.08162">
        <ele>233.956375</ele>
        <time>2019-08-17T13:44:25Z</time>
      </trkpt>
      <trkpt lat="44.47297" lon="1.08167">
        <ele>233.408081</ele>
        <time>2019-08-17T13:44:26Z</time>
      </trkpt>
      <trkpt lat="44.47305" lon="1.08172">
        <ele>232.736649</ele>
        <time>2019-08-17T13:44:27Z</time>
      </trkpt>
      <trkpt lat="44.47312" lon="1.08177">
        <ele>232.012451</ele>
        <time>2019-08-17T13:44:28Z</time>
      </trkpt>
      <trkpt lat="44.47319" lon="1.08182">
        <ele>231.286743</ele>
        <time>2019-08-17T13:44:29Z</time>
      </trkpt>
      <trkpt lat="44.47326" lon="1.08187">
        <ele>230.649048</ele>
        <time>2019-08-17T13:44:30Z</time>
      </trkpt>
      <trkpt lat="44.47333" lon="1.08191">
        <ele>230.190384</ele>
        <time>2019-08-17T13:44:31Z</time>
      </trkpt>
      <trkpt lat="44.4734" lon="1.08195">
        <ele>230.066345</ele>
        <time>2019-08-17T13:44:32Z</time>
      </trkpt>
      <trkpt lat="44.47346" lon="1.082">
        <ele>230.002762</ele>
        <time>2019-08-17T13:44:33Z</time>
      </trkpt>
      <trkpt lat="44.47352" lon="1.08204">
        <ele>229.882629</ele>
        <time>2019-08-17T13:44:34Z</time>
      </trkpt>
      <trkpt lat="44.47358" lon="1.08209">
        <ele>229.67218</ele>
        <time>2019-08-17T13:44:35Z</time>
      </trkpt>
      <trkpt lat="44.47364" lon="1.08214">
        <ele>229.565735</ele>
        <time>2019-08-17T13:44:36Z</time>
      </trkpt>
      <trkpt lat="44.47369" lon="1.08221">
        <ele>229.523254</ele>
        <time>2019-08-17T13:44:37Z</time>
      </trkpt>
      <trkpt lat="44.47374" lon="1.08228">
        <ele>229.523254</ele>
        <time>2019-08-17T13:44:38Z</time>
      </trkpt>
      <trkpt lat="44.47379" lon="1.08235">
        <ele>229.406799</ele>
        <time>2019-08-17T13:44:39Z</time>
      </trkpt>
      <trkpt lat="44.47384" lon="1.08242">
        <ele>229.166992</ele>
        <time>2019-08-17T13:44:40Z</time>
      </trkpt>
      <trkpt lat="44.47388" lon="1.08249">
        <ele>228.519638</ele>
        <time>2019-08-17T13:44:41Z</time>
      </trkpt>
      <trkpt lat="44.47393" lon="1.08256">
        <ele>227.627014</ele>
        <time>2019-08-17T13:44:42Z</time>
      </trkpt>
      <trkpt lat="44.47398" lon="1.08262">
        <ele>226.672073</ele>
        <time>2019-08-17T13:44:43Z</time>
      </trkpt>
      <trkpt lat="44.47402" lon="1.08268">
        <ele>225.753036</ele>
        <time>2019-08-17T13:44:44Z</time>
      </trkpt>
      <trkpt lat="44.47407" lon="1.08273">
        <ele>224.938553</ele>
        <time>2019-08-17T13:44:45Z</time>
      </trkpt>
      <trkpt lat="44.47411" lon="1.08277">
        <ele>224.938553</ele>
        <time>2019-08-17T13:44:46Z</time>
      </trkpt>
      <trkpt lat="44.47415" lon="1.08282">
        <ele>224.208359</ele>
        <time>2019-08-17T13:44:47Z</time>
      </trkpt>
      <trkpt lat="44.47419" lon="1.08287">
        <ele>223.833908</ele>
        <time>2019-08-17T13:44:48Z</time>
      </trkpt>
      <trkpt lat="44.47423" lon="1.08291">
        <ele>223.588501</ele>
        <time>2019-08-17T13:44:49Z</time>
      </trkpt>
      <trkpt lat="44.47427" lon="1.08295">
        <ele>223.438766</ele>
        <time>2019-08-17T13:44:50Z</time>
      </trkpt>
      <trkpt lat="44.47432" lon="1.08299">
        <ele>223.33754</ele>
        <time>2019-08-17T13:44:51Z</time>
      </trkpt>
      <trkpt lat="44.47436" lon="1.08303">
        <ele>223.212845</ele>
        <time>2019-08-17T13:44:52Z</time>
      </trkpt>
      <trkpt lat="44.4744" lon="1.08307">
        <ele>223.144424</ele>
        <time>2019-08-17T13:44:53Z</time>
      </trkpt>
      <trkpt lat="44.47445" lon="1.0831">
        <ele>223.116333</ele>
        <time>2019-08-17T13:44:54Z</time>
      </trkpt>
      <trkpt lat="44.4745" lon="1.08314">
        <ele>223.116333</ele>
        <time>2019-08-17T13:44:55Z</time>
      </trkpt>
      <trkpt lat="44.47454" lon="1.08317">
        <ele>223.116333</ele>
        <time>2019-08-17T13:44:56Z</time>
      </trkpt>
      <trkpt lat="44.47459" lon="1.08321">
        <ele>223.164017</ele>
        <time>2019-08-17T13:44:57Z</time>
      </trkpt>
      <trkpt lat="44.47464" lon="1.08325">
        <ele>223.297546</ele>
        <time>2019-08-17T13:44:58Z</time>
      </trkpt>
      <trkpt lat="44.47469" lon="1.08329">
        <ele>223.544235</ele>
        <time>2019-08-17T13:44:59Z</time>
      </trkpt>
      <trkpt lat="44.47474" lon="1.08333">
        <ele>223.930069</ele>
        <time>2019-08-17T13:45:00Z</time>
      </trkpt>
      <trkpt lat="44.47479" lon="1.08338">
        <ele>224.423157</ele>
        <time>2019-08-17T13:45:01Z</time>
      </trkpt>
      <trkpt lat="44.47485" lon="1.08342">
        <ele>225.034546</ele>
        <time>2019-08-17T13:45:02Z</time>
      </trkpt>
      <trkpt lat="44.47491" lon="1.08346">
        <ele>225.537048</ele>
        <time>2019-08-17T13:45:03Z</time>
      </trkpt>
      <trkpt lat="44.47496" lon="1.08351">
        <ele>225.912048</ele>
        <time>2019-08-17T13:45:04Z</time>
      </trkpt>
      <trkpt lat="44.47502" lon="1.08354">
        <ele>226.146133</ele>
        <time>2019-08-17T13:45:05Z</time>
      </trkpt>
      <trkpt lat="44.47509" lon="1.08358">
        <ele>226.155075</ele>
        <time>2019-08-17T13:45:06Z</time>
      </trkpt>
      <trkpt lat="44.47516" lon="1.08361">
        <ele>226.155075</ele>
        <time>2019-08-17T13:45:07Z</time>
      </trkpt>
      <trkpt lat="44.47523" lon="1.08364">
        <ele>226.155075</ele>
        <time>2019-08-17T13:45:08Z</time>
      </trkpt>
      <trkpt lat="44.47531" lon="1.08366">
        <ele>225.850754</ele>
        <time>2019-08-17T13:45:09Z</time>
      </trkpt>
      <trkpt lat="44.47539" lon="1.08367">
        <ele>225.231064</ele>
        <time>2019-08-17T13:45:10Z</time>
      </trkpt>
      <trkpt lat="44.47547" lon="1.08369">
        <ele>225.231064</ele>
        <time>2019-08-17T13:45:11Z</time>
      </trkpt>
      <trkpt lat="44.47556" lon="1.0837">
        <ele>224.530716</ele>
        <time>2019-08-17T13:45:12Z</time>
      </trkpt>
      <trkpt lat="44.47564" lon="1.08371">
        <ele>223.772644</ele>
        <time>2019-08-17T13:45:13Z</time>
      </trkpt>
      <trkpt lat="44.47574" lon="1.08372">
        <ele>222.872009</ele>
        <time>2019-08-17T13:45:14Z</time>
      </trkpt>
      <trkpt lat="44.47582" lon="1.08372">
        <ele>221.990036</ele>
        <time>2019-08-17T13:45:15Z</time>
      </trkpt>
      <trkpt lat="44.47591" lon="1.08373">
        <ele>221.189331</ele>
        <time>2019-08-17T13:45:16Z</time>
      </trkpt>
      <trkpt lat="44.476" lon="1.08372">
        <ele>220.443314</ele>
        <time>2019-08-17T13:45:17Z</time>
      </trkpt>
      <trkpt lat="44.47609" lon="1.08372">
        <ele>220.443314</ele>
        <time>2019-08-17T13:45:18Z</time>
      </trkpt>
      <trkpt lat="44.47616" lon="1.08372">
        <ele>219.728806</ele>
        <time>2019-08-17T13:45:19Z</time>
      </trkpt>
      <trkpt lat="44.47624" lon="1.08371">
        <ele>219.027405</ele>
        <time>2019-08-17T13:45:20Z</time>
      </trkpt>
      <trkpt lat="44.4763" lon="1.08371">
        <ele>218.324356</ele>
        <time>2019-08-17T13:45:21Z</time>
      </trkpt>
      <trkpt lat="44.47637" lon="1.08371">
        <ele>217.597229</ele>
        <time>2019-08-17T13:45:22Z</time>
      </trkpt>
      <trkpt lat="44.47643" lon="1.0837">
        <ele>216.858597</ele>
        <time>2019-08-17T13:45:23Z</time>
      </trkpt>
      <trkpt lat="44.47648" lon="1.08369">
        <ele>216.120117</ele>
        <time>2019-08-17T13:45:24Z</time>
      </trkpt>
      <trkpt lat="44.47653" lon="1.08366">
        <ele>215.390488</ele>
        <time>2019-08-17T13:45:25Z</time>
      </trkpt>
      <trkpt lat="44.47656" lon="1.08363">
        <ele>214.672119</ele>
        <time>2019-08-17T13:45:26Z</time>
      </trkpt>
      <trkpt lat="44.47659" lon="1.08359">
        <ele>214.068069</ele>
        <time>2019-08-17T13:45:27Z</time>
      </trkpt>
      <trkpt lat="44.47661" lon="1.08357">
        <ele>213.509949</ele>
        <time>2019-08-17T13:45:28Z</time>
      </trkpt>
      <trkpt lat="44.47664" lon="1.08355">
        <ele>213.011414</ele>
        <time>2019-08-17T13:45:29Z</time>
      </trkpt>
      <trkpt lat="44.47667" lon="1.08354">
        <ele>212.575516</ele>
        <time>2019-08-17T13:45:30Z</time>
      </trkpt>
      <trkpt lat="44.47669" lon="1.08354">
        <ele>212.194748</ele>
        <time>2019-08-17T13:45:31Z</time>
      </trkpt>
      <trkpt lat="44.47672" lon="1.08354">
        <ele>211.863205</ele>
        <time>2019-08-17T13:45:32Z</time>
      </trkpt>
      <trkpt lat="44.47673" lon="1.08354">
        <ele>211.577148</ele>
        <time>2019-08-17T13:45:33Z</time>
      </trkpt>
      <trkpt lat="44.47675" lon="1.08354">
        <ele>211.327621</ele>
        <time>2019-08-17T13:45:34Z</time>
      </trkpt>
      <trkpt lat="44.47677" lon="1.08355">
        <ele>211.097351</ele>
        <time>2019-08-17T13:45:35Z</time>
      </trkpt>
      <trkpt lat="44.47678" lon="1.08356">
        <ele>210.879395</ele>
        <time>2019-08-17T13:45:36Z</time>
      </trkpt>
      <trkpt lat="44.47678" lon="1.08358">
        <ele>210.675659</ele>
        <time>2019-08-17T13:45:37Z</time>
      </trkpt>
      <trkpt lat="44.47678" lon="1.0836">
        <ele>210.492905</ele>
        <time>2019-08-17T13:45:38Z</time>
      </trkpt>
      <trkpt lat="44.47676" lon="1.08362">
        <ele>210.334641</ele>
        <time>2019-08-17T13:45:39Z</time>
      </trkpt>
      <trkpt lat="44.47675" lon="1.08364">
        <ele>210.334641</ele>
        <time>2019-08-17T13:45:40Z</time>
      </trkpt>
      <trkpt lat="44.47673" lon="1.08366">
        <ele>210.255325</ele>
        <time>2019-08-17T13:45:41Z</time>
      </trkpt>
      <trkpt lat="44.47672" lon="1.08368">
        <ele>210.230148</ele>
        <time>2019-08-17T13:45:42Z</time>
      </trkpt>
      <trkpt lat="44.47672" lon="1.0837">
        <ele>210.230148</ele>
        <time>2019-08-17T13:45:43Z</time>
      </trkpt>
      <trkpt lat="44.47672" lon="1.08372">
        <ele>210.230148</ele>
        <time>2019-08-17T13:45:44Z</time>
      </trkpt>
      <trkpt lat="44.47671" lon="1.08374">
        <ele>210.230148</ele>
        <time>2019-08-17T13:45:45Z</time>
      </trkpt>
      <trkpt lat="44.47672" lon="1.08377">
        <ele>210.244995</ele>
        <time>2019-08-17T13:45:46Z</time>
      </trkpt>
      <trkpt lat="44.47673" lon="1.08379">
        <ele>210.244995</ele>
        <time>2019-08-17T13:45:47Z</time>
      </trkpt>
      <trkpt lat="44.47675" lon="1.08381">
        <ele>210.270584</ele>
        <time>2019-08-17T13:45:48Z</time>
      </trkpt>
      <trkpt lat="44.47677" lon="1.08384">
        <ele>210.289505</ele>
        <time>2019-08-17T13:45:49Z</time>
      </trkpt>
      <trkpt lat="44.47678" lon="1.08387">
        <ele>210.289505</ele>
        <time>2019-08-17T13:45:50Z</time>
      </trkpt>
      <trkpt lat="44.4768" lon="1.08392">
        <ele>210.291092</ele>
        <time>2019-08-17T13:45:51Z</time>
      </trkpt>
      <trkpt lat="44.47682" lon="1.08397">
        <ele>210.30275</ele>
        <time>2019-08-17T13:45:52Z</time>
      </trkpt>
      <trkpt lat="44.47685" lon="1.08403">
        <ele>210.315994</ele>
        <time>2019-08-17T13:45:53Z</time>
      </trkpt>
      <trkpt lat="44.47686" lon="1.08408">
        <ele>210.315994</ele>
        <time>2019-08-17T13:45:54Z</time>
      </trkpt>
      <trkpt lat="44.47688" lon="1.08414">
        <ele>210.330933</ele>
        <time>2019-08-17T13:45:55Z</time>
      </trkpt>
      <trkpt lat="44.47689" lon="1.0842">
        <ele>210.338669</ele>
        <time>2019-08-17T13:45:56Z</time>
      </trkpt>
      <trkpt lat="44.47691" lon="1.08426">
        <ele>210.338669</ele>
        <time>2019-08-17T13:45:57Z</time>
      </trkpt>
      <trkpt lat="44.47692" lon="1.08432">
        <ele>210.313431</ele>
        <time>2019-08-17T13:45:58Z</time>
      </trkpt>
      <trkpt lat="44.47693" lon="1.08438">
        <ele>210.258865</ele>
        <time>2019-08-17T13:45:59Z</time>
      </trkpt>
      <trkpt lat="44.47694" lon="1.08445">
        <ele>210.20105</ele>
        <time>2019-08-17T13:46:00Z</time>
      </trkpt>
      <trkpt lat="44.47694" lon="1.08451">
        <ele>210.135132</ele>
        <time>2019-08-17T13:46:01Z</time>
      </trkpt>
      <trkpt lat="44.47694" lon="1.08458">
        <ele>210.030075</ele>
        <time>2019-08-17T13:46:02Z</time>
      </trkpt>
      <trkpt lat="44.47695" lon="1.08463">
        <ele>209.898071</ele>
        <time>2019-08-17T13:46:03Z</time>
      </trkpt>
      <trkpt lat="44.47696" lon="1.08469">
        <ele>209.690018</ele>
        <time>2019-08-17T13:46:04Z</time>
      </trkpt>
      <trkpt lat="44.47697" lon="1.08477">
        <ele>209.410629</ele>
        <time>2019-08-17T13:46:05Z</time>
      </trkpt>
      <trkpt lat="44.47697" lon="1.08484">
        <ele>209.410629</ele>
        <time>2019-08-17T13:46:06Z</time>
      </trkpt>
      <trkpt lat="44.47697" lon="1.0849">
        <ele>209.055283</ele>
        <time>2019-08-17T13:46:07Z</time>
      </trkpt>
      <trkpt lat="44.47697" lon="1.08496">
        <ele>208.703903</ele>
        <time>2019-08-17T13:46:08Z</time>
      </trkpt>
      <trkpt lat="44.47697" lon="1.08502">
        <ele>208.283981</ele>
        <time>2019-08-17T13:46:09Z</time>
      </trkpt>
      <trkpt lat="44.47697" lon="1.08508">
        <ele>207.867371</ele>
        <time>2019-08-17T13:46:10Z</time>
      </trkpt>
      <trkpt lat="44.47697" lon="1.08514">
        <ele>207.867371</ele>
        <time>2019-08-17T13:46:11Z</time>
      </trkpt>
      <trkpt lat="44.47697" lon="1.0852">
        <ele>207.352982</ele>
        <time>2019-08-17T13:46:12Z</time>
      </trkpt>
      <trkpt lat="44.47697" lon="1.08526">
        <ele>206.727905</ele>
        <time>2019-08-17T13:46:13Z</time>
      </trkpt>
      <trkpt lat="44.47697" lon="1.08532">
        <ele>205.81517</ele>
        <time>2019-08-17T13:46:14Z</time>
      </trkpt>
      <trkpt lat="44.47697" lon="1.08538">
        <ele>204.786057</ele>
        <time>2019-08-17T13:46:15Z</time>
      </trkpt>
      <trkpt lat="44.47697" lon="1.08543">
        <ele>203.708694</ele>
        <time>2019-08-17T13:46:16Z</time>
      </trkpt>
      <trkpt lat="44.47697" lon="1.08549">
        <ele>202.522339</ele>
        <time>2019-08-17T13:46:17Z</time>
      </trkpt>
      <trkpt lat="44.47697" lon="1.08555">
        <ele>202.522339</ele>
        <time>2019-08-17T13:46:18Z</time>
      </trkpt>
      <trkpt lat="44.47696" lon="1.08561">
        <ele>201.343979</ele>
        <time>2019-08-17T13:46:19Z</time>
      </trkpt>
      <trkpt lat="44.47696" lon="1.08567">
        <ele>200.175247</ele>
        <time>2019-08-17T13:46:20Z</time>
      </trkpt>
      <trkpt lat="44.47696" lon="1.08573">
        <ele>199.013351</ele>
        <time>2019-08-17T13:46:21Z</time>
      </trkpt>
      <trkpt lat="44.47696" lon="1.08579">
        <ele>199.013351</ele>
        <time>2019-08-17T13:46:22Z</time>
      </trkpt>
      <trkpt lat="44.47697" lon="1.08586">
        <ele>197.826599</ele>
        <time>2019-08-17T13:46:23Z</time>
      </trkpt>
      <trkpt lat="44.47698" lon="1.08592">
        <ele>196.589432</ele>
        <time>2019-08-17T13:46:24Z</time>
      </trkpt>
      <trkpt lat="44.47699" lon="1.08598">
        <ele>195.051331</ele>
        <time>2019-08-17T13:46:25Z</time>
      </trkpt>
      <trkpt lat="44.47701" lon="1.08604">
        <ele>193.44606</ele>
        <time>2019-08-17T13:46:26Z</time>
      </trkpt>
      <trkpt lat="44.47703" lon="1.0861">
        <ele>193.44606</ele>
        <time>2019-08-17T13:46:27Z</time>
      </trkpt>
      <trkpt lat="44.47705" lon="1.08615">
        <ele>191.803665</ele>
        <time>2019-08-17T13:46:28Z</time>
      </trkpt>
      <trkpt lat="44.47707" lon="1.08621">
        <ele>190.302444</ele>
        <time>2019-08-17T13:46:29Z</time>
      </trkpt>
      <trkpt lat="44.47709" lon="1.08625">
        <ele>190.302444</ele>
        <time>2019-08-17T13:46:30Z</time>
      </trkpt>
      <trkpt lat="44.47711" lon="1.0863">
        <ele>188.707642</ele>
        <time>2019-08-17T13:46:31Z</time>
      </trkpt>
      <trkpt lat="44.47714" lon="1.08635">
        <ele>187.225021</ele>
        <time>2019-08-17T13:46:32Z</time>
      </trkpt>
      <trkpt lat="44.47717" lon="1.0864">
        <ele>187.225021</ele>
        <time>2019-08-17T13:46:33Z</time>
      </trkpt>
      <trkpt lat="44.47719" lon="1.08645">
        <ele>186.038879</ele>
        <time>2019-08-17T13:46:34Z</time>
      </trkpt>
      <trkpt lat="44.47722" lon="1.08649">
        <ele>184.948715</ele>
        <time>2019-08-17T13:46:35Z</time>
      </trkpt>
      <trkpt lat="44.47725" lon="1.08655">
        <ele>183.817795</ele>
        <time>2019-08-17T13:46:36Z</time>
      </trkpt>
      <trkpt lat="44.47728" lon="1.0866">
        <ele>182.772171</ele>
        <time>2019-08-17T13:46:37Z</time>
      </trkpt>
      <trkpt lat="44.47732" lon="1.08666">
        <ele>181.904541</ele>
        <time>2019-08-17T13:46:38Z</time>
      </trkpt>
      <trkpt lat="44.47735" lon="1.08672">
        <ele>181.00676</ele>
        <time>2019-08-17T13:46:39Z</time>
      </trkpt>
      <trkpt lat="44.47738" lon="1.08678">
        <ele>180.147568</ele>
        <time>2019-08-17T13:46:40Z</time>
      </trkpt>
      <trkpt lat="44.47741" lon="1.08685">
        <ele>180.147568</ele>
        <time>2019-08-17T13:46:41Z</time>
      </trkpt>
      <trkpt lat="44.47743" lon="1.08692">
        <ele>179.296005</ele>
        <time>2019-08-17T13:46:42Z</time>
      </trkpt>
      <trkpt lat="44.47746" lon="1.08699">
        <ele>178.532425</ele>
        <time>2019-08-17T13:46:43Z</time>
      </trkpt>
      <trkpt lat="44.47748" lon="1.08705">
        <ele>177.467728</ele>
        <time>2019-08-17T13:46:44Z</time>
      </trkpt>
      <trkpt lat="44.47751" lon="1.08712">
        <ele>177.467728</ele>
        <time>2019-08-17T13:46:45Z</time>
      </trkpt>
      <trkpt lat="44.47754" lon="1.08717">
        <ele>176.253906</ele>
        <time>2019-08-17T13:46:46Z</time>
      </trkpt>
      <trkpt lat="44.47756" lon="1.08723">
        <ele>174.94606</ele>
        <time>2019-08-17T13:46:47Z</time>
      </trkpt>
      <trkpt lat="44.47759" lon="1.08728">
        <ele>173.395767</ele>
        <time>2019-08-17T13:46:48Z</time>
      </trkpt>
      <trkpt lat="44.47761" lon="1.08734">
        <ele>173.395767</ele>
        <time>2019-08-17T13:46:49Z</time>
      </trkpt>
      <trkpt lat="44.47763" lon="1.08739">
        <ele>171.816162</ele>
        <time>2019-08-17T13:46:50Z</time>
      </trkpt>
      <trkpt lat="44.47765" lon="1.08744">
        <ele>170.243179</ele>
        <time>2019-08-17T13:46:51Z</time>
      </trkpt>
      <trkpt lat="44.47768" lon="1.0875">
        <ele>170.243179</ele>
        <time>2019-08-17T13:46:52Z</time>
      </trkpt>
      <trkpt lat="44.47771" lon="1.08756">
        <ele>168.734894</ele>
        <time>2019-08-17T13:46:53Z</time>
      </trkpt>
      <trkpt lat="44.47774" lon="1.08763">
        <ele>167.302795</ele>
        <time>2019-08-17T13:46:54Z</time>
      </trkpt>
      <trkpt lat="44.47777" lon="1.0877">
        <ele>165.771469</ele>
        <time>2019-08-17T13:46:55Z</time>
      </trkpt>
      <trkpt lat="44.4778" lon="1.08777">
        <ele>164.430435</ele>
        <time>2019-08-17T13:46:56Z</time>
      </trkpt>
      <trkpt lat="44.47782" lon="1.08784">
        <ele>163.016586</ele>
        <time>2019-08-17T13:46:57Z</time>
      </trkpt>
      <trkpt lat="44.47784" lon="1.08791">
        <ele>161.602112</ele>
        <time>2019-08-17T13:46:58Z</time>
      </trkpt>
      <trkpt lat="44.47786" lon="1.08798">
        <ele>160.407974</ele>
        <time>2019-08-17T13:46:59Z</time>
      </trkpt>
      <trkpt lat="44.47789" lon="1.08806">
        <ele>159.258591</ele>
        <time>2019-08-17T13:47:00Z</time>
      </trkpt>
      <trkpt lat="44.47791" lon="1.08813">
        <ele>158.291428</ele>
        <time>2019-08-17T13:47:01Z</time>
      </trkpt>
      <trkpt lat="44.47792" lon="1.0882">
        <ele>157.325226</ele>
        <time>2019-08-17T13:47:02Z</time>
      </trkpt>
      <trkpt lat="44.47795" lon="1.08827">
        <ele>157.325226</ele>
        <time>2019-08-17T13:47:03Z</time>
      </trkpt>
      <trkpt lat="44.47797" lon="1.08834">
        <ele>156.39595</ele>
        <time>2019-08-17T13:47:04Z</time>
      </trkpt>
      <trkpt lat="44.47799" lon="1.08841">
        <ele>155.41658</ele>
        <time>2019-08-17T13:47:05Z</time>
      </trkpt>
      <trkpt lat="44.47802" lon="1.08848">
        <ele>154.161102</ele>
        <time>2019-08-17T13:47:06Z</time>
      </trkpt>
      <trkpt lat="44.47804" lon="1.08854">
        <ele>152.837479</ele>
        <time>2019-08-17T13:47:07Z</time>
      </trkpt>
      <trkpt lat="44.47806" lon="1.08861">
        <ele>151.522842</ele>
        <time>2019-08-17T13:47:08Z</time>
      </trkpt>
      <trkpt lat="44.47808" lon="1.08867">
        <ele>150.236877</ele>
        <time>2019-08-17T13:47:09Z</time>
      </trkpt>
      <trkpt lat="44.4781" lon="1.08874">
        <ele>148.968323</ele>
        <time>2019-08-17T13:47:10Z</time>
      </trkpt>
      <trkpt lat="44.47812" lon="1.0888">
        <ele>147.722839</ele>
        <time>2019-08-17T13:47:11Z</time>
      </trkpt>
      <trkpt lat="44.47814" lon="1.08887">
        <ele>146.700577</ele>
        <time>2019-08-17T13:47:12Z</time>
      </trkpt>
      <trkpt lat="44.47816" lon="1.08893">
        <ele>145.702774</ele>
        <time>2019-08-17T13:47:13Z</time>
      </trkpt>
      <trkpt lat="44.47818" lon="1.089">
        <ele>144.660233</ele>
        <time>2019-08-17T13:47:14Z</time>
      </trkpt>
      <trkpt lat="44.4782" lon="1.08906">
        <ele>143.576401</ele>
        <time>2019-08-17T13:47:15Z</time>
      </trkpt>
      <trkpt lat="44.47822" lon="1.08912">
        <ele>142.466599</ele>
        <time>2019-08-17T13:47:16Z</time>
      </trkpt>
      <trkpt lat="44.47824" lon="1.08917">
        <ele>141.346848</ele>
        <time>2019-08-17T13:47:17Z</time>
      </trkpt>
      <trkpt lat="44.47825" lon="1.08922">
        <ele>140.267761</ele>
        <time>2019-08-17T13:47:18Z</time>
      </trkpt>
      <trkpt lat="44.47826" lon="1.08926">
        <ele>139.259903</ele>
        <time>2019-08-17T13:47:19Z</time>
      </trkpt>
      <trkpt lat="44.47828" lon="1.08931">
        <ele>139.259903</ele>
        <time>2019-08-17T13:47:20Z</time>
      </trkpt>
      <trkpt lat="44.47829" lon="1.08935">
        <ele>138.342392</ele>
        <time>2019-08-17T13:47:21Z</time>
      </trkpt>
      <trkpt lat="44.4783" lon="1.0894">
        <ele>137.518494</ele>
        <time>2019-08-17T13:47:22Z</time>
      </trkpt>
      <trkpt lat="44.47831" lon="1.08946">
        <ele>136.707199</ele>
        <time>2019-08-17T13:47:23Z</time>
      </trkpt>
      <trkpt lat="44.47833" lon="1.08952">
        <ele>135.988022</ele>
        <time>2019-08-17T13:47:24Z</time>
      </trkpt>
      <trkpt lat="44.47835" lon="1.08957">
        <ele>135.988022</ele>
        <time>2019-08-17T13:47:25Z</time>
      </trkpt>
      <trkpt lat="44.47837" lon="1.08961">
        <ele>135.294601</ele>
        <time>2019-08-17T13:47:26Z</time>
      </trkpt>
      <trkpt lat="44.47841" lon="1.08964">
        <ele>134.586472</ele>
        <time>2019-08-17T13:47:27Z</time>
      </trkpt>
      <trkpt lat="44.47844" lon="1.08965">
        <ele>133.730698</ele>
        <time>2019-08-17T13:47:28Z</time>
      </trkpt>
      <trkpt lat="44.47849" lon="1.08965">
        <ele>132.875214</ele>
        <time>2019-08-17T13:47:29Z</time>
      </trkpt>
      <trkpt lat="44.47854" lon="1.08964">
        <ele>132.118912</ele>
        <time>2019-08-17T13:47:30Z</time>
      </trkpt>
      <trkpt lat="44.47858" lon="1.08962">
        <ele>131.399384</ele>
        <time>2019-08-17T13:47:31Z</time>
      </trkpt>
      <trkpt lat="44.47862" lon="1.08961">
        <ele>130.813812</ele>
        <time>2019-08-17T13:47:32Z</time>
      </trkpt>
      <trkpt lat="44.47864" lon="1.08961">
        <ele>130.386627</ele>
        <time>2019-08-17T13:47:33Z</time>
      </trkpt>
      <trkpt lat="44.47865" lon="1.08964">
        <ele>130.1931</ele>
        <time>2019-08-17T13:47:34Z</time>
      </trkpt>
      <trkpt lat="44.47866" lon="1.08968">
        <ele>130.055527</ele>
        <time>2019-08-17T13:47:35Z</time>
      </trkpt>
      <trkpt lat="44.47866" lon="1.08974">
        <ele>129.9823</ele>
        <time>2019-08-17T13:47:36Z</time>
      </trkpt>
      <trkpt lat="44.47864" lon="1.0898">
        <ele>129.889633</ele>
        <time>2019-08-17T13:47:37Z</time>
      </trkpt>
      <trkpt lat="44.47863" lon="1.08987">
        <ele>129.686432</ele>
        <time>2019-08-17T13:47:38Z</time>
      </trkpt>
      <trkpt lat="44.47861" lon="1.08993">
        <ele>129.402328</ele>
        <time>2019-08-17T13:47:39Z</time>
      </trkpt>
      <trkpt lat="44.4786" lon="1.08998">
        <ele>129.402328</ele>
        <time>2019-08-17T13:47:40Z</time>
      </trkpt>
      <trkpt lat="44.47858" lon="1.09003">
        <ele>129.035782</ele>
        <time>2019-08-17T13:47:41Z</time>
      </trkpt>
      <trkpt lat="44.47856" lon="1.09006">
        <ele>128.553909</ele>
        <time>2019-08-17T13:47:42Z</time>
      </trkpt>
      <trkpt lat="44.47856" lon="1.0901">
        <ele>127.865532</ele>
        <time>2019-08-17T13:47:43Z</time>
      </trkpt>
      <trkpt lat="44.47856" lon="1.09013">
        <ele>127.865532</ele>
        <time>2019-08-17T13:47:44Z</time>
      </trkpt>
      <trkpt lat="44.47857" lon="1.09015">
        <ele>127.185699</ele>
        <time>2019-08-17T13:47:45Z</time>
      </trkpt>
      <trkpt lat="44.47857" lon="1.09017">
        <ele>126.580544</ele>
        <time>2019-08-17T13:47:46Z</time>
      </trkpt>
      <trkpt lat="44.47856" lon="1.0902">
        <ele>126.580544</ele>
        <time>2019-08-17T13:47:47Z</time>
      </trkpt>
      <trkpt lat="44.47854" lon="1.09023">
        <ele>125.992279</ele>
        <time>2019-08-17T13:47:48Z</time>
      </trkpt>
      <trkpt lat="44.47852" lon="1.09027">
        <ele>125.463905</ele>
        <time>2019-08-17T13:47:49Z</time>
      </trkpt>
      <trkpt lat="44.4785" lon="1.0903">
        <ele>124.965263</ele>
        <time>2019-08-17T13:47:50Z</time>
      </trkpt>
      <trkpt lat="44.47847" lon="1.09034">
        <ele>124.603912</ele>
        <time>2019-08-17T13:47:51Z</time>
      </trkpt>
      <trkpt lat="44.47843" lon="1.09037">
        <ele>124.266624</ele>
        <time>2019-08-17T13:47:52Z</time>
      </trkpt>
      <trkpt lat="44.47839" lon="1.0904">
        <ele>123.948761</ele>
        <time>2019-08-17T13:47:53Z</time>
      </trkpt>
      <trkpt lat="44.47836" lon="1.09043">
        <ele>123.711456</ele>
        <time>2019-08-17T13:47:54Z</time>
      </trkpt>
      <trkpt lat="44.47834" lon="1.09045">
        <ele>123.542259</ele>
        <time>2019-08-17T13:47:55Z</time>
      </trkpt>
      <trkpt lat="44.47834" lon="1.09048">
        <ele>123.459038</ele>
        <time>2019-08-17T13:47:56Z</time>
      </trkpt>
      <trkpt lat="44.47833" lon="1.09052">
        <ele>123.417816</ele>
        <time>2019-08-17T13:47:57Z</time>
      </trkpt>
      <trkpt lat="44.47833" lon="1.09057">
        <ele>123.417816</ele>
        <time>2019-08-17T13:47:58Z</time>
      </trkpt>
      <trkpt lat="44.47834" lon="1.09063">
        <ele>123.387779</ele>
        <time>2019-08-17T13:47:59Z</time>
      </trkpt>
      <trkpt lat="44.47834" lon="1.0907">
        <ele>123.344398</ele>
        <time>2019-08-17T13:48:00Z</time>
      </trkpt>
      <trkpt lat="44.47836" lon="1.09077">
        <ele>123.299652</ele>
        <time>2019-08-17T13:48:01Z</time>
      </trkpt>
      <trkpt lat="44.47837" lon="1.09085">
        <ele>123.26519</ele>
        <time>2019-08-17T13:48:02Z</time>
      </trkpt>
      <trkpt lat="44.47839" lon="1.09094">
        <ele>123.226784</ele>
        <time>2019-08-17T13:48:03Z</time>
      </trkpt>
      <trkpt lat="44.4784" lon="1.09102">
        <ele>123.159157</ele>
        <time>2019-08-17T13:48:04Z</time>
      </trkpt>
      <trkpt lat="44.47841" lon="1.09111">
        <ele>123.0373</ele>
        <time>2019-08-17T13:48:05Z</time>
      </trkpt>
      <trkpt lat="44.47844" lon="1.0912">
        <ele>122.841698</ele>
        <time>2019-08-17T13:48:06Z</time>
      </trkpt>
      <trkpt lat="44.47846" lon="1.0913">
        <ele>122.603996</ele>
        <time>2019-08-17T13:48:07Z</time>
      </trkpt>
      <trkpt lat="44.47849" lon="1.09139">
        <ele>122.346169</ele>
        <time>2019-08-17T13:48:08Z</time>
      </trkpt>
      <trkpt lat="44.47851" lon="1.09148">
        <ele>122.346169</ele>
        <time>2019-08-17T13:48:09Z</time>
      </trkpt>
      <trkpt lat="44.47853" lon="1.09158">
        <ele>122.082489</ele>
        <time>2019-08-17T13:48:10Z</time>
      </trkpt>
      <trkpt lat="44.47855" lon="1.09167">
        <ele>121.811096</ele>
        <time>2019-08-17T13:48:11Z</time>
      </trkpt>
      <trkpt lat="44.47857" lon="1.09177">
        <ele>121.483086</ele>
        <time>2019-08-17T13:48:12Z</time>
      </trkpt>
      <trkpt lat="44.4786" lon="1.09187">
        <ele>121.155342</ele>
        <time>2019-08-17T13:48:13Z</time>
      </trkpt>
      <trkpt lat="44.47862" lon="1.09196">
        <ele>121.155342</ele>
        <time>2019-08-17T13:48:14Z</time>
      </trkpt>
      <trkpt lat="44.47864" lon="1.09206">
        <ele>120.828735</ele>
        <time>2019-08-17T13:48:15Z</time>
      </trkpt>
      <trkpt lat="44.47867" lon="1.09215">
        <ele>120.499634</ele>
        <time>2019-08-17T13:48:16Z</time>
      </trkpt>
      <trkpt lat="44.47869" lon="1.09225">
        <ele>120.499634</ele>
        <time>2019-08-17T13:48:17Z</time>
      </trkpt>
      <trkpt lat="44.47871" lon="1.09234">
        <ele>119.961548</ele>
        <time>2019-08-17T13:48:18Z</time>
      </trkpt>
      <trkpt lat="44.47874" lon="1.09244">
        <ele>119.352783</ele>
        <time>2019-08-17T13:48:19Z</time>
      </trkpt>
      <trkpt lat="44.47876" lon="1.09254">
        <ele>118.612305</ele>
        <time>2019-08-17T13:48:20Z</time>
      </trkpt>
      <trkpt lat="44.47878" lon="1.09264">
        <ele>118.612305</ele>
        <time>2019-08-17T13:48:21Z</time>
      </trkpt>
      <trkpt lat="44.4788" lon="1.09273">
        <ele>117.808495</ele>
        <time>2019-08-17T13:48:22Z</time>
      </trkpt>
      <trkpt lat="44.47882" lon="1.09282">
        <ele>116.94281</ele>
        <time>2019-08-17T13:48:23Z</time>
      </trkpt>
      <trkpt lat="44.47884" lon="1.0929">
        <ele>116.94281</ele>
        <time>2019-08-17T13:48:24Z</time>
      </trkpt>
      <trkpt lat="44.47884" lon="1.09298">
        <ele>115.969818</ele>
        <time>2019-08-17T13:48:25Z</time>
      </trkpt>
      <trkpt lat="44.47882" lon="1.09305">
        <ele>115.175148</ele>
        <time>2019-08-17T13:48:26Z</time>
      </trkpt>
      <trkpt lat="44.47878" lon="1.09311">
        <ele>114.379433</ele>
        <time>2019-08-17T13:48:27Z</time>
      </trkpt>
      <trkpt lat="44.47874" lon="1.09316">
        <ele>113.775108</ele>
        <time>2019-08-17T13:48:28Z</time>
      </trkpt>
      <trkpt lat="44.4787" lon="1.09321">
        <ele>113.775108</ele>
        <time>2019-08-17T13:48:29Z</time>
      </trkpt>
      <trkpt lat="44.47866" lon="1.09326">
        <ele>113.302788</ele>
        <time>2019-08-17T13:48:30Z</time>
      </trkpt>
      <trkpt lat="44.47862" lon="1.09331">
        <ele>112.971519</ele>
        <time>2019-08-17T13:48:31Z</time>
      </trkpt>
      <trkpt lat="44.47857" lon="1.09336">
        <ele>112.833923</ele>
        <time>2019-08-17T13:48:32Z</time>
      </trkpt>
      <trkpt lat="44.47853" lon="1.09341">
        <ele>112.807762</ele>
        <time>2019-08-17T13:48:33Z</time>
      </trkpt>
      <trkpt lat="44.47849" lon="1.09345">
        <ele>112.807762</ele>
        <time>2019-08-17T13:48:34Z</time>
      </trkpt>
      <trkpt lat="44.47844" lon="1.0935">
        <ele>112.807762</ele>
        <time>2019-08-17T13:48:35Z</time>
      </trkpt>
      <trkpt lat="44.47841" lon="1.09356">
        <ele>112.942604</ele>
        <time>2019-08-17T13:48:36Z</time>
      </trkpt>
      <trkpt lat="44.47836" lon="1.09361">
        <ele>113.157143</ele>
        <time>2019-08-17T13:48:37Z</time>
      </trkpt>
      <trkpt lat="44.47832" lon="1.09366">
        <ele>113.157143</ele>
        <time>2019-08-17T13:48:38Z</time>
      </trkpt>
      <trkpt lat="44.47828" lon="1.0937">
        <ele>113.392479</ele>
        <time>2019-08-17T13:48:39Z</time>
      </trkpt>
      <trkpt lat="44.47824" lon="1.09375">
        <ele>113.637917</ele>
        <time>2019-08-17T13:48:40Z</time>
      </trkpt>
      <trkpt lat="44.47819" lon="1.0938">
        <ele>113.937843</ele>
        <time>2019-08-17T13:48:41Z</time>
      </trkpt>
      <trkpt lat="44.47815" lon="1.09385">
        <ele>113.937843</ele>
        <time>2019-08-17T13:48:42Z</time>
      </trkpt>
      <trkpt lat="44.47811" lon="1.09389">
        <ele>114.244843</ele>
        <time>2019-08-17T13:48:43Z</time>
      </trkpt>
      <trkpt lat="44.47807" lon="1.09394">
        <ele>114.560974</ele>
        <time>2019-08-17T13:48:44Z</time>
      </trkpt>
      <trkpt lat="44.47802" lon="1.09398">
        <ele>114.938362</ele>
        <time>2019-08-17T13:48:45Z</time>
      </trkpt>
      <trkpt lat="44.47799" lon="1.09402">
        <ele>115.425499</ele>
        <time>2019-08-17T13:48:46Z</time>
      </trkpt>
      <trkpt lat="44.47794" lon="1.09407">
        <ele>116.00457</ele>
        <time>2019-08-17T13:48:47Z</time>
      </trkpt>
      <trkpt lat="44.4779" lon="1.09411">
        <ele>116.627357</ele>
        <time>2019-08-17T13:48:48Z</time>
      </trkpt>
      <trkpt lat="44.47786" lon="1.09415">
        <ele>117.325829</ele>
        <time>2019-08-17T13:48:49Z</time>
      </trkpt>
      <trkpt lat="44.47782" lon="1.0942">
        <ele>118.100502</ele>
        <time>2019-08-17T13:48:50Z</time>
      </trkpt>
      <trkpt lat="44.47777" lon="1.09424">
        <ele>118.887489</ele>
        <time>2019-08-17T13:48:51Z</time>
      </trkpt>
      <trkpt lat="44.47773" lon="1.09428">
        <ele>119.637451</ele>
        <time>2019-08-17T13:48:52Z</time>
      </trkpt>
      <trkpt lat="44.47769" lon="1.09432">
        <ele>120.353706</ele>
        <time>2019-08-17T13:48:53Z</time>
      </trkpt>
      <trkpt lat="44.47765" lon="1.09437">
        <ele>120.353706</ele>
        <time>2019-08-17T13:48:54Z</time>
      </trkpt>
      <trkpt lat="44.4776" lon="1.09441">
        <ele>121.031158</ele>
        <time>2019-08-17T13:48:55Z</time>
      </trkpt>
      <trkpt lat="44.47756" lon="1.09446">
        <ele>121.675323</ele>
        <time>2019-08-17T13:48:56Z</time>
      </trkpt>
      <trkpt lat="44.47752" lon="1.0945">
        <ele>122.363121</ele>
        <time>2019-08-17T13:48:57Z</time>
      </trkpt>
      <trkpt lat="44.47747" lon="1.09454">
        <ele>123.008667</ele>
        <time>2019-08-17T13:48:58Z</time>
      </trkpt>
      <trkpt lat="44.47743" lon="1.09458">
        <ele>123.603188</ele>
        <time>2019-08-17T13:48:59Z</time>
      </trkpt>
      <trkpt lat="44.47739" lon="1.09462">
        <ele>124.159248</ele>
        <time>2019-08-17T13:49:00Z</time>
      </trkpt>
      <trkpt lat="44.47735" lon="1.09467">
        <ele>124.673241</ele>
        <time>2019-08-17T13:49:01Z</time>
      </trkpt>
      <trkpt lat="44.4773" lon="1.09471">
        <ele>125.14756</ele>
        <time>2019-08-17T13:49:02Z</time>
      </trkpt>
      <trkpt lat="44.47726" lon="1.09474">
        <ele>125.491966</ele>
        <time>2019-08-17T13:49:03Z</time>
      </trkpt>
      <trkpt lat="44.47722" lon="1.09478">
        <ele>125.800301</ele>
        <time>2019-08-17T13:49:04Z</time>
      </trkpt>
      <trkpt lat="44.47717" lon="1.09482">
        <ele>126.074837</ele>
        <time>2019-08-17T13:49:05Z</time>
      </trkpt>
      <trkpt lat="44.47712" lon="1.09485">
        <ele>126.314674</ele>
        <time>2019-08-17T13:49:06Z</time>
      </trkpt>
      <trkpt lat="44.47707" lon="1.09487">
        <ele>126.523804</ele>
        <time>2019-08-17T13:49:07Z</time>
      </trkpt>
      <trkpt lat="44.47702" lon="1.09489">
        <ele>126.70816</ele>
        <time>2019-08-17T13:49:08Z</time>
      </trkpt>
      <trkpt lat="44.47697" lon="1.0949">
        <ele>126.884422</ele>
        <time>2019-08-17T13:49:09Z</time>
      </trkpt>
      <trkpt lat="44.47693" lon="1.0949">
        <ele>127.064575</ele>
        <time>2019-08-17T13:49:10Z</time>
      </trkpt>
      <trkpt lat="44.47688" lon="1.0949">
        <ele>127.26667</ele>
        <time>2019-08-17T13:49:11Z</time>
      </trkpt>
      <trkpt lat="44.47683" lon="1.09489">
        <ele>127.494957</ele>
        <time>2019-08-17T13:49:12Z</time>
      </trkpt>
      <trkpt lat="44.47678" lon="1.09488">
        <ele>127.768311</ele>
        <time>2019-08-17T13:49:13Z</time>
      </trkpt>
      <trkpt lat="44.47673" lon="1.09487">
        <ele>128.095474</ele>
        <time>2019-08-17T13:49:14Z</time>
      </trkpt>
      <trkpt lat="44.47669" lon="1.09486">
        <ele>128.477158</ele>
        <time>2019-08-17T13:49:15Z</time>
      </trkpt>
      <trkpt lat="44.47664" lon="1.09485">
        <ele>128.914108</ele>
        <time>2019-08-17T13:49:16Z</time>
      </trkpt>
      <trkpt lat="44.47659" lon="1.09484">
        <ele>129.314636</ele>
        <time>2019-08-17T13:49:17Z</time>
      </trkpt>
      <trkpt lat="44.47655" lon="1.09483">
        <ele>129.673599</ele>
        <time>2019-08-17T13:49:18Z</time>
      </trkpt>
      <trkpt lat="44.47651" lon="1.09482">
        <ele>129.971085</ele>
        <time>2019-08-17T13:49:19Z</time>
      </trkpt>
      <trkpt lat="44.47645" lon="1.09484">
        <ele>130.204437</ele>
        <time>2019-08-17T13:49:20Z</time>
      </trkpt>
      <trkpt lat="44.47641" lon="1.09487">
        <ele>130.3172</ele>
        <time>2019-08-17T13:49:21Z</time>
      </trkpt>
      <trkpt lat="44.47637" lon="1.09491">
        <ele>130.3172</ele>
        <time>2019-08-17T13:49:22Z</time>
      </trkpt>
      <trkpt lat="44.47633" lon="1.09494">
        <ele>130.3172</ele>
        <time>2019-08-17T13:49:23Z</time>
      </trkpt>
      <trkpt lat="44.47629" lon="1.09497">
        <ele>130.3172</ele>
        <time>2019-08-17T13:49:24Z</time>
      </trkpt>
      <trkpt lat="44.47626" lon="1.09501">
        <ele>130.166916</ele>
        <time>2019-08-17T13:49:25Z</time>
      </trkpt>
      <trkpt lat="44.47622" lon="1.09503">
        <ele>129.919189</ele>
        <time>2019-08-17T13:49:26Z</time>
      </trkpt>
      <trkpt lat="44.47619" lon="1.09505">
        <ele>129.919189</ele>
        <time>2019-08-17T13:49:27Z</time>
      </trkpt>
      <trkpt lat="44.47616" lon="1.09507">
        <ele>129.572098</ele>
        <time>2019-08-17T13:49:28Z</time>
      </trkpt>
      <trkpt lat="44.47614" lon="1.09509">
        <ele>129.140305</ele>
        <time>2019-08-17T13:49:29Z</time>
      </trkpt>
      <trkpt lat="44.47612" lon="1.09511">
        <ele>128.576584</ele>
        <time>2019-08-17T13:49:30Z</time>
      </trkpt>
      <trkpt lat="44.47609" lon="1.09513">
        <ele>127.99276</ele>
        <time>2019-08-17T13:49:31Z</time>
      </trkpt>
      <trkpt lat="44.47607" lon="1.09515">
        <ele>127.526123</ele>
        <time>2019-08-17T13:49:32Z</time>
      </trkpt>
      <trkpt lat="44.47604" lon="1.09518">
        <ele>127.526123</ele>
        <time>2019-08-17T13:49:33Z</time>
      </trkpt>
      <trkpt lat="44.47601" lon="1.09521">
        <ele>127.096519</ele>
        <time>2019-08-17T13:49:34Z</time>
      </trkpt>
      <trkpt lat="44.47598" lon="1.09524">
        <ele>126.710777</ele>
        <time>2019-08-17T13:49:35Z</time>
      </trkpt>
      <trkpt lat="44.47594" lon="1.09527">
        <ele>126.31665</ele>
        <time>2019-08-17T13:49:36Z</time>
      </trkpt>
      <trkpt lat="44.4759" lon="1.0953">
        <ele>125.999916</ele>
        <time>2019-08-17T13:49:37Z</time>
      </trkpt>
      <trkpt lat="44.47586" lon="1.09533">
        <ele>125.732826</ele>
        <time>2019-08-17T13:49:38Z</time>
      </trkpt>
      <trkpt lat="44.47583" lon="1.09536">
        <ele>125.513184</ele>
        <time>2019-08-17T13:49:39Z</time>
      </trkpt>
      <trkpt lat="44.47579" lon="1.09539">
        <ele>125.335693</ele>
        <time>2019-08-17T13:49:40Z</time>
      </trkpt>
      <trkpt lat="44.47575" lon="1.09541">
        <ele>125.197105</ele>
        <time>2019-08-17T13:49:41Z</time>
      </trkpt>
      <trkpt lat="44.47572" lon="1.09543">
        <ele>125.139488</ele>
        <time>2019-08-17T13:49:42Z</time>
      </trkpt>
      <trkpt lat="44.47568" lon="1.09545">
        <ele>125.119957</ele>
        <time>2019-08-17T13:49:43Z</time>
      </trkpt>
      <trkpt lat="44.47565" lon="1.09547">
        <ele>125.105064</ele>
        <time>2019-08-17T13:49:44Z</time>
      </trkpt>
      <trkpt lat="44.47561" lon="1.09549">
        <ele>125.095459</ele>
        <time>2019-08-17T13:49:45Z</time>
      </trkpt>
      <trkpt lat="44.47557" lon="1.09551">
        <ele>125.093346</ele>
        <time>2019-08-17T13:49:46Z</time>
      </trkpt>
      <trkpt lat="44.47553" lon="1.09553">
        <ele>125.093346</ele>
        <time>2019-08-17T13:49:47Z</time>
      </trkpt>
      <trkpt lat="44.47549" lon="1.09555">
        <ele>125.093346</ele>
        <time>2019-08-17T13:49:48Z</time>
      </trkpt>
      <trkpt lat="44.47546" lon="1.09557">
        <ele>125.10083</ele>
        <time>2019-08-17T13:49:49Z</time>
      </trkpt>
      <trkpt lat="44.47542" lon="1.09559">
        <ele>125.117836</ele>
        <time>2019-08-17T13:49:50Z</time>
      </trkpt>
      <trkpt lat="44.47538" lon="1.09561">
        <ele>125.141846</ele>
        <time>2019-08-17T13:49:51Z</time>
      </trkpt>
      <trkpt lat="44.47535" lon="1.09562">
        <ele>125.141846</ele>
        <time>2019-08-17T13:49:52Z</time>
      </trkpt>
      <trkpt lat="44.47531" lon="1.09564">
        <ele>125.168945</ele>
        <time>2019-08-17T13:49:53Z</time>
      </trkpt>
      <trkpt lat="44.47528" lon="1.09566">
        <ele>125.196045</ele>
        <time>2019-08-17T13:49:54Z</time>
      </trkpt>
      <trkpt lat="44.47524" lon="1.09568">
        <ele>125.308739</ele>
        <time>2019-08-17T13:49:55Z</time>
      </trkpt>
      <trkpt lat="44.4752" lon="1.0957">
        <ele>125.471031</ele>
        <time>2019-08-17T13:49:56Z</time>
      </trkpt>
      <trkpt lat="44.47517" lon="1.09572">
        <ele>125.688538</ele>
        <time>2019-08-17T13:49:57Z</time>
      </trkpt>
      <trkpt lat="44.47513" lon="1.09574">
        <ele>125.959801</ele>
        <time>2019-08-17T13:49:58Z</time>
      </trkpt>
      <trkpt lat="44.4751" lon="1.09577">
        <ele>126.285591</ele>
        <time>2019-08-17T13:49:59Z</time>
      </trkpt>
      <trkpt lat="44.47508" lon="1.0958">
        <ele>126.667931</ele>
        <time>2019-08-17T13:50:00Z</time>
      </trkpt>
      <trkpt lat="44.47504" lon="1.09582">
        <ele>127.020721</ele>
        <time>2019-08-17T13:50:01Z</time>
      </trkpt>
      <trkpt lat="44.47501" lon="1.09584">
        <ele>127.371452</ele>
        <time>2019-08-17T13:50:02Z</time>
      </trkpt>
      <trkpt lat="44.47498" lon="1.09587">
        <ele>127.710205</ele>
        <time>2019-08-17T13:50:03Z</time>
      </trkpt>
      <trkpt lat="44.47495" lon="1.09589">
        <ele>128.044754</ele>
        <time>2019-08-17T13:50:04Z</time>
      </trkpt>
      <trkpt lat="44.47491" lon="1.09592">
        <ele>128.383713</ele>
        <time>2019-08-17T13:50:05Z</time>
      </trkpt>
      <trkpt lat="44.47488" lon="1.09595">
        <ele>128.728348</ele>
        <time>2019-08-17T13:50:06Z</time>
      </trkpt>
      <trkpt lat="44.47484" lon="1.09598">
        <ele>129.084976</ele>
        <time>2019-08-17T13:50:07Z</time>
      </trkpt>
      <trkpt lat="44.47481" lon="1.096">
        <ele>129.491913</ele>
        <time>2019-08-17T13:50:08Z</time>
      </trkpt>
      <trkpt lat="44.47477" lon="1.09603">
        <ele>129.955093</ele>
        <time>2019-08-17T13:50:09Z</time>
      </trkpt>
      <trkpt lat="44.47473" lon="1.09605">
        <ele>130.463654</ele>
        <time>2019-08-17T13:50:10Z</time>
      </trkpt>
      <trkpt lat="44.4747" lon="1.09608">
        <ele>131.004669</ele>
        <time>2019-08-17T13:50:11Z</time>
      </trkpt>
      <trkpt lat="44.47466" lon="1.0961">
        <ele>131.569702</ele>
        <time>2019-08-17T13:50:12Z</time>
      </trkpt>
      <trkpt lat="44.47463" lon="1.09612">
        <ele>131.569702</ele>
        <time>2019-08-17T13:50:13Z</time>
      </trkpt>
      <trkpt lat="44.47459" lon="1.09614">
        <ele>132.150223</ele>
        <time>2019-08-17T13:50:14Z</time>
      </trkpt>
      <trkpt lat="44.47456" lon="1.09616">
        <ele>132.693405</ele>
        <time>2019-08-17T13:50:15Z</time>
      </trkpt>
      <trkpt lat="44.47452" lon="1.09618">
        <ele>133.210526</ele>
        <time>2019-08-17T13:50:16Z</time>
      </trkpt>
      <trkpt lat="44.47448" lon="1.0962">
        <ele>133.659134</ele>
        <time>2019-08-17T13:50:17Z</time>
      </trkpt>
      <trkpt lat="44.47445" lon="1.09622">
        <ele>134.04158</ele>
        <time>2019-08-17T13:50:18Z</time>
      </trkpt>
      <trkpt lat="44.47442" lon="1.09625">
        <ele>134.357285</ele>
        <time>2019-08-17T13:50:19Z</time>
      </trkpt>
      <trkpt lat="44.4744" lon="1.09628">
        <ele>134.602951</ele>
        <time>2019-08-17T13:50:20Z</time>
      </trkpt>
      <trkpt lat="44.47437" lon="1.09631">
        <ele>134.795258</ele>
        <time>2019-08-17T13:50:21Z</time>
      </trkpt>
      <trkpt lat="44.47436" lon="1.09634">
        <ele>134.907425</ele>
        <time>2019-08-17T13:50:22Z</time>
      </trkpt>
      <trkpt lat="44.47435" lon="1.09638">
        <ele>134.975113</ele>
        <time>2019-08-17T13:50:23Z</time>
      </trkpt>
      <trkpt lat="44.47433" lon="1.09642">
        <ele>134.998123</ele>
        <time>2019-08-17T13:50:24Z</time>
      </trkpt>
      <trkpt lat="44.47431" lon="1.09644">
        <ele>134.998123</ele>
        <time>2019-08-17T13:50:25Z</time>
      </trkpt>
      <trkpt lat="44.47429" lon="1.09646">
        <ele>134.998123</ele>
        <time>2019-08-17T13:50:26Z</time>
      </trkpt>
      <trkpt lat="44.47427" lon="1.09648">
        <ele>134.978058</ele>
        <time>2019-08-17T13:50:27Z</time>
      </trkpt>
      <trkpt lat="44.47424" lon="1.09649">
        <ele>134.919937</ele>
        <time>2019-08-17T13:50:28Z</time>
      </trkpt>
      <trkpt lat="44.47422" lon="1.09651">
        <ele>134.831512</ele>
        <time>2019-08-17T13:50:29Z</time>
      </trkpt>
      <trkpt lat="44.4742" lon="1.09654">
        <ele>134.726639</ele>
        <time>2019-08-17T13:50:30Z</time>
      </trkpt>
      <trkpt lat="44.47418" lon="1.09656">
        <ele>134.612747</ele>
        <time>2019-08-17T13:50:31Z</time>
      </trkpt>
      <trkpt lat="44.47416" lon="1.09659">
        <ele>134.488052</ele>
        <time>2019-08-17T13:50:32Z</time>
      </trkpt>
      <trkpt lat="44.47413" lon="1.09661">
        <ele>134.350403</ele>
        <time>2019-08-17T13:50:33Z</time>
      </trkpt>
      <trkpt lat="44.47411" lon="1.09664">
        <ele>134.197006</ele>
        <time>2019-08-17T13:50:34Z</time>
      </trkpt>
      <trkpt lat="44.47408" lon="1.09667">
        <ele>134.033066</ele>
        <time>2019-08-17T13:50:35Z</time>
      </trkpt>
      <trkpt lat="44.47406" lon="1.0967">
        <ele>134.033066</ele>
        <time>2019-08-17T13:50:36Z</time>
      </trkpt>
      <trkpt lat="44.47403" lon="1.09672">
        <ele>133.87439</ele>
        <time>2019-08-17T13:50:37Z</time>
      </trkpt>
      <trkpt lat="44.474" lon="1.09675">
        <ele>133.723206</ele>
        <time>2019-08-17T13:50:38Z</time>
      </trkpt>
      <trkpt lat="44.47397" lon="1.09677">
        <ele>133.594666</ele>
        <time>2019-08-17T13:50:39Z</time>
      </trkpt>
      <trkpt lat="44.47394" lon="1.0968">
        <ele>133.559006</ele>
        <time>2019-08-17T13:50:40Z</time>
      </trkpt>
      <trkpt lat="44.47391" lon="1.09683">
        <ele>133.559006</ele>
        <time>2019-08-17T13:50:41Z</time>
      </trkpt>
      <trkpt lat="44.47388" lon="1.09686">
        <ele>133.559006</ele>
        <time>2019-08-17T13:50:42Z</time>
      </trkpt>
      <trkpt lat="44.47384" lon="1.09689">
        <ele>133.600876</ele>
        <time>2019-08-17T13:50:43Z</time>
      </trkpt>
      <trkpt lat="44.47381" lon="1.09693">
        <ele>133.70253</ele>
        <time>2019-08-17T13:50:44Z</time>
      </trkpt>
      <trkpt lat="44.47378" lon="1.09697">
        <ele>133.848587</ele>
        <time>2019-08-17T13:50:45Z</time>
      </trkpt>
      <trkpt lat="44.47375" lon="1.09701">
        <ele>134.020187</ele>
        <time>2019-08-17T13:50:46Z</time>
      </trkpt>
      <trkpt lat="44.47371" lon="1.09705">
        <ele>134.174057</ele>
        <time>2019-08-17T13:50:47Z</time>
      </trkpt>
      <trkpt lat="44.47368" lon="1.09708">
        <ele>134.174057</ele>
        <time>2019-08-17T13:50:48Z</time>
      </trkpt>
      <trkpt lat="44.47365" lon="1.09712">
        <ele>134.185013</ele>
        <time>2019-08-17T13:50:49Z</time>
      </trkpt>
      <trkpt lat="44.47362" lon="1.09716">
        <ele>134.185013</ele>
        <time>2019-08-17T13:50:50Z</time>
      </trkpt>
      <trkpt lat="44.47358" lon="1.09719">
        <ele>134.185013</ele>
        <time>2019-08-17T13:50:51Z</time>
      </trkpt>
      <trkpt lat="44.47355" lon="1.09723">
        <ele>134.098221</ele>
        <time>2019-08-17T13:50:52Z</time>
      </trkpt>
      <trkpt lat="44.47352" lon="1.09726">
        <ele>133.910431</ele>
        <time>2019-08-17T13:50:53Z</time>
      </trkpt>
      <trkpt lat="44.47349" lon="1.0973">
        <ele>133.611588</ele>
        <time>2019-08-17T13:50:54Z</time>
      </trkpt>
      <trkpt lat="44.47346" lon="1.09733">
        <ele>133.210022</ele>
        <time>2019-08-17T13:50:55Z</time>
      </trkpt>
      <trkpt lat="44.47343" lon="1.09737">
        <ele>132.820923</ele>
        <time>2019-08-17T13:50:56Z</time>
      </trkpt>
      <trkpt lat="44.4734" lon="1.0974">
        <ele>132.544846</ele>
        <time>2019-08-17T13:50:57Z</time>
      </trkpt>
      <trkpt lat="44.47337" lon="1.09743">
        <ele>132.348679</ele>
        <time>2019-08-17T13:50:58Z</time>
      </trkpt>
      <trkpt lat="44.47334" lon="1.09746">
        <ele>132.235809</ele>
        <time>2019-08-17T13:50:59Z</time>
      </trkpt>
      <trkpt lat="44.47331" lon="1.09748">
        <ele>132.212311</ele>
        <time>2019-08-17T13:51:00Z</time>
      </trkpt>
      <trkpt lat="44.47329" lon="1.09751">
        <ele>132.212311</ele>
        <time>2019-08-17T13:51:01Z</time>
      </trkpt>
      <trkpt lat="44.47326" lon="1.09753">
        <ele>132.212311</ele>
        <time>2019-08-17T13:51:02Z</time>
      </trkpt>
      <trkpt lat="44.47323" lon="1.09755">
        <ele>132.212311</ele>
        <time>2019-08-17T13:51:03Z</time>
      </trkpt>
      <trkpt lat="44.47319" lon="1.09757">
        <ele>132.33606</ele>
        <time>2019-08-17T13:51:04Z</time>
      </trkpt>
      <trkpt lat="44.47316" lon="1.09759">
        <ele>132.524506</ele>
        <time>2019-08-17T13:51:05Z</time>
      </trkpt>
      <trkpt lat="44.47313" lon="1.09761">
        <ele>132.785172</ele>
        <time>2019-08-17T13:51:06Z</time>
      </trkpt>
      <trkpt lat="44.4731" lon="1.09763">
        <ele>133.072998</ele>
        <time>2019-08-17T13:51:07Z</time>
      </trkpt>
      <trkpt lat="44.47306" lon="1.09765">
        <ele>133.397568</ele>
        <time>2019-08-17T13:51:08Z</time>
      </trkpt>
      <trkpt lat="44.47303" lon="1.09767">
        <ele>133.760559</ele>
        <time>2019-08-17T13:51:09Z</time>
      </trkpt>
      <trkpt lat="44.473" lon="1.09769">
        <ele>134.115524</ele>
        <time>2019-08-17T13:51:10Z</time>
      </trkpt>
      <trkpt lat="44.47298" lon="1.09772">
        <ele>134.465805</ele>
        <time>2019-08-17T13:51:11Z</time>
      </trkpt>
      <trkpt lat="44.47297" lon="1.09775">
        <ele>134.763138</ele>
        <time>2019-08-17T13:51:12Z</time>
      </trkpt>
      <trkpt lat="44.47295" lon="1.09779">
        <ele>135.05986</ele>
        <time>2019-08-17T13:51:13Z</time>
      </trkpt>
      <trkpt lat="44.47293" lon="1.09783">
        <ele>135.353607</ele>
        <time>2019-08-17T13:51:14Z</time>
      </trkpt>
      <trkpt lat="44.47292" lon="1.09786">
        <ele>135.353607</ele>
        <time>2019-08-17T13:51:15Z</time>
      </trkpt>
      <trkpt lat="44.4729" lon="1.0979">
        <ele>135.648346</ele>
        <time>2019-08-17T13:51:16Z</time>
      </trkpt>
      <trkpt lat="44.47288" lon="1.09793">
        <ele>135.94931</ele>
        <time>2019-08-17T13:51:17Z</time>
      </trkpt>
      <trkpt lat="44.47286" lon="1.09794">
        <ele>136.304703</ele>
        <time>2019-08-17T13:51:18Z</time>
      </trkpt>
      <trkpt lat="44.47282" lon="1.09795">
        <ele>136.66272</ele>
        <time>2019-08-17T13:51:19Z</time>
      </trkpt>
      <trkpt lat="44.47279" lon="1.09795">
        <ele>137.011322</ele>
        <time>2019-08-17T13:51:20Z</time>
      </trkpt>
      <trkpt lat="44.47275" lon="1.09795">
        <ele>137.344055</ele>
        <time>2019-08-17T13:51:21Z</time>
      </trkpt>
      <trkpt lat="44.47272" lon="1.09796">
        <ele>137.657791</ele>
        <time>2019-08-17T13:51:22Z</time>
      </trkpt>
      <trkpt lat="44.47268" lon="1.09797">
        <ele>137.949295</ele>
        <time>2019-08-17T13:51:23Z</time>
      </trkpt>
      <trkpt lat="44.47264" lon="1.09798">
        <ele>138.174606</ele>
        <time>2019-08-17T13:51:24Z</time>
      </trkpt>
      <trkpt lat="44.4726" lon="1.09798">
        <ele>138.396957</ele>
        <time>2019-08-17T13:51:25Z</time>
      </trkpt>
      <trkpt lat="44.47257" lon="1.09799">
        <ele>138.625656</ele>
        <time>2019-08-17T13:51:26Z</time>
      </trkpt>
      <trkpt lat="44.47254" lon="1.09801">
        <ele>138.865433</ele>
        <time>2019-08-17T13:51:27Z</time>
      </trkpt>
      <trkpt lat="44.47252" lon="1.09802">
        <ele>139.128311</ele>
        <time>2019-08-17T13:51:28Z</time>
      </trkpt>
      <trkpt lat="44.4725" lon="1.09804">
        <ele>139.417526</ele>
        <time>2019-08-17T13:51:29Z</time>
      </trkpt>
      <trkpt lat="44.47247" lon="1.09804">
        <ele>139.730164</ele>
        <time>2019-08-17T13:51:30Z</time>
      </trkpt>
      <trkpt lat="44.47245" lon="1.09805">
        <ele>140.063004</ele>
        <time>2019-08-17T13:51:31Z</time>
      </trkpt>
      <trkpt lat="44.47243" lon="1.09806">
        <ele>140.406631</ele>
        <time>2019-08-17T13:51:32Z</time>
      </trkpt>
      <trkpt lat="44.47241" lon="1.09807">
        <ele>140.752701</ele>
        <time>2019-08-17T13:51:33Z</time>
      </trkpt>
      <trkpt lat="44.47239" lon="1.09808">
        <ele>141.094467</ele>
        <time>2019-08-17T13:51:34Z</time>
      </trkpt>
      <trkpt lat="44.47238" lon="1.09809">
        <ele>141.420532</ele>
        <time>2019-08-17T13:51:35Z</time>
      </trkpt>
      <trkpt lat="44.47236" lon="1.09811">
        <ele>141.732361</ele>
        <time>2019-08-17T13:51:36Z</time>
      </trkpt>
      <trkpt lat="44.47234" lon="1.09813">
        <ele>142.029465</ele>
        <time>2019-08-17T13:51:37Z</time>
      </trkpt>
      <trkpt lat="44.47232" lon="1.09814">
        <ele>142.329102</ele>
        <time>2019-08-17T13:51:38Z</time>
      </trkpt>
      <trkpt lat="44.47231" lon="1.09815">
        <ele>142.638718</ele>
        <time>2019-08-17T13:51:39Z</time>
      </trkpt>
      <trkpt lat="44.47229" lon="1.09813">
        <ele>142.974609</ele>
        <time>2019-08-17T13:51:40Z</time>
      </trkpt>
      <trkpt lat="44.47228" lon="1.0981">
        <ele>143.3367</ele>
        <time>2019-08-17T13:51:41Z</time>
      </trkpt>
      <trkpt lat="44.47226" lon="1.09807">
        <ele>143.3367</ele>
        <time>2019-08-17T13:51:42Z</time>
      </trkpt>
      <trkpt lat="44.47224" lon="1.09804">
        <ele>143.510818</ele>
        <time>2019-08-17T13:51:43Z</time>
      </trkpt>
      <trkpt lat="44.47221" lon="1.098">
        <ele>143.556656</ele>
        <time>2019-08-17T13:51:44Z</time>
      </trkpt>
      <trkpt lat="44.47218" lon="1.09797">
        <ele>143.556656</ele>
        <time>2019-08-17T13:51:45Z</time>
      </trkpt>
      <trkpt lat="44.47214" lon="1.09795">
        <ele>143.556656</ele>
        <time>2019-08-17T13:51:46Z</time>
      </trkpt>
      <trkpt lat="44.47211" lon="1.09793">
        <ele>143.466049</ele>
        <time>2019-08-17T13:51:47Z</time>
      </trkpt>
      <trkpt lat="44.47208" lon="1.09791">
        <ele>143.258423</ele>
        <time>2019-08-17T13:51:48Z</time>
      </trkpt>
      <trkpt lat="44.47205" lon="1.0979">
        <ele>142.950272</ele>
        <time>2019-08-17T13:51:49Z</time>
      </trkpt>
      <trkpt lat="44.47202" lon="1.09789">
        <ele>142.582748</ele>
        <time>2019-08-17T13:51:50Z</time>
      </trkpt>
      <trkpt lat="44.47199" lon="1.09788">
        <ele>142.357742</ele>
        <time>2019-08-17T13:51:51Z</time>
      </trkpt>
      <trkpt lat="44.47197" lon="1.09787">
        <ele>142.210342</ele>
        <time>2019-08-17T13:51:52Z</time>
      </trkpt>
      <trkpt lat="44.47194" lon="1.09785">
        <ele>142.148056</ele>
        <time>2019-08-17T13:51:53Z</time>
      </trkpt>
      <trkpt lat="44.47192" lon="1.09784">
        <ele>142.148056</ele>
        <time>2019-08-17T13:51:54Z</time>
      </trkpt>
      <trkpt lat="44.47189" lon="1.09782">
        <ele>142.148056</ele>
        <time>2019-08-17T13:51:55Z</time>
      </trkpt>
      <trkpt lat="44.47186" lon="1.09781">
        <ele>142.160141</ele>
        <time>2019-08-17T13:51:56Z</time>
      </trkpt>
      <trkpt lat="44.47184" lon="1.09779">
        <ele>142.198608</ele>
        <time>2019-08-17T13:51:57Z</time>
      </trkpt>
      <trkpt lat="44.47181" lon="1.09778">
        <ele>142.231094</ele>
        <time>2019-08-17T13:51:58Z</time>
      </trkpt>
      <trkpt lat="44.47179" lon="1.09776">
        <ele>142.272476</ele>
        <time>2019-08-17T13:51:59Z</time>
      </trkpt>
      <trkpt lat="44.47176" lon="1.09774">
        <ele>142.317062</ele>
        <time>2019-08-17T13:52:00Z</time>
      </trkpt>
      <trkpt lat="44.47172" lon="1.09773">
        <ele>142.317062</ele>
        <time>2019-08-17T13:52:01Z</time>
      </trkpt>
      <trkpt lat="44.47169" lon="1.09771">
        <ele>142.353928</ele>
        <time>2019-08-17T13:52:02Z</time>
      </trkpt>
      <trkpt lat="44.47165" lon="1.09769">
        <ele>142.379684</ele>
        <time>2019-08-17T13:52:03Z</time>
      </trkpt>
      <trkpt lat="44.47162" lon="1.09767">
        <ele>142.411697</ele>
        <time>2019-08-17T13:52:04Z</time>
      </trkpt>
      <trkpt lat="44.47157" lon="1.09765">
        <ele>142.436249</ele>
        <time>2019-08-17T13:52:05Z</time>
      </trkpt>
      <trkpt lat="44.47154" lon="1.09762">
        <ele>142.437286</ele>
        <time>2019-08-17T13:52:06Z</time>
      </trkpt>
      <trkpt lat="44.4715" lon="1.09759">
        <ele>142.437286</ele>
        <time>2019-08-17T13:52:07Z</time>
      </trkpt>
      <trkpt lat="44.47146" lon="1.09756">
        <ele>142.437286</ele>
        <time>2019-08-17T13:52:08Z</time>
      </trkpt>
      <trkpt lat="44.47141" lon="1.09754">
        <ele>142.414383</ele>
        <time>2019-08-17T13:52:09Z</time>
      </trkpt>
      <trkpt lat="44.47137" lon="1.09751">
        <ele>142.355972</ele>
        <time>2019-08-17T13:52:10Z</time>
      </trkpt>
      <trkpt lat="44.47131" lon="1.09749">
        <ele>142.272781</ele>
        <time>2019-08-17T13:52:11Z</time>
      </trkpt>
      <trkpt lat="44.47127" lon="1.09747">
        <ele>142.146103</ele>
        <time>2019-08-17T13:52:12Z</time>
      </trkpt>
      <trkpt lat="44.47123" lon="1.09746">
        <ele>141.993881</ele>
        <time>2019-08-17T13:52:13Z</time>
      </trkpt>
      <trkpt lat="44.47118" lon="1.09744">
        <ele>141.847198</ele>
        <time>2019-08-17T13:52:14Z</time>
      </trkpt>
      <trkpt lat="44.47115" lon="1.09743">
        <ele>141.71347</ele>
        <time>2019-08-17T13:52:15Z</time>
      </trkpt>
      <trkpt lat="44.4711" lon="1.09742">
        <ele>141.605606</ele>
        <time>2019-08-17T13:52:16Z</time>
      </trkpt>
      <trkpt lat="44.47107" lon="1.09741">
        <ele>141.511063</ele>
        <time>2019-08-17T13:52:17Z</time>
      </trkpt>
      <trkpt lat="44.47104" lon="1.0974">
        <ele>141.440216</ele>
        <time>2019-08-17T13:52:18Z</time>
      </trkpt>
      <trkpt lat="44.471" lon="1.09739">
        <ele>141.398575</ele>
        <time>2019-08-17T13:52:19Z</time>
      </trkpt>
      <trkpt lat="44.47097" lon="1.09738">
        <ele>141.359879</ele>
        <time>2019-08-17T13:52:20Z</time>
      </trkpt>
      <trkpt lat="44.47094" lon="1.09737">
        <ele>141.323013</ele>
        <time>2019-08-17T13:52:21Z</time>
      </trkpt>
      <trkpt lat="44.4709" lon="1.09737">
        <ele>141.29158</ele>
        <time>2019-08-17T13:52:22Z</time>
      </trkpt>
      <trkpt lat="44.47086" lon="1.09736">
        <ele>141.270767</ele>
        <time>2019-08-17T13:52:23Z</time>
      </trkpt>
      <trkpt lat="44.47082" lon="1.09735">
        <ele>141.249146</ele>
        <time>2019-08-17T13:52:24Z</time>
      </trkpt>
      <trkpt lat="44.47078" lon="1.09734">
        <ele>141.227737</ele>
        <time>2019-08-17T13:52:25Z</time>
      </trkpt>
      <trkpt lat="44.47075" lon="1.09733">
        <ele>141.208023</ele>
        <time>2019-08-17T13:52:26Z</time>
      </trkpt>
      <trkpt lat="44.47071" lon="1.09732">
        <ele>141.186707</ele>
        <time>2019-08-17T13:52:27Z</time>
      </trkpt>
      <trkpt lat="44.47067" lon="1.0973">
        <ele>141.152542</ele>
        <time>2019-08-17T13:52:28Z</time>
      </trkpt>
      <trkpt lat="44.47063" lon="1.09729">
        <ele>141.111374</ele>
        <time>2019-08-17T13:52:29Z</time>
      </trkpt>
      <trkpt lat="44.47059" lon="1.09727">
        <ele>141.055359</ele>
        <time>2019-08-17T13:52:30Z</time>
      </trkpt>
      <trkpt lat="44.47055" lon="1.09725">
        <ele>140.967957</ele>
        <time>2019-08-17T13:52:31Z</time>
      </trkpt>
      <trkpt lat="44.47051" lon="1.09724">
        <ele>140.967957</ele>
        <time>2019-08-17T13:52:32Z</time>
      </trkpt>
      <trkpt lat="44.47046" lon="1.09722">
        <ele>140.912277</ele>
        <time>2019-08-17T13:52:33Z</time>
      </trkpt>
      <trkpt lat="44.47042" lon="1.0972">
        <ele>140.912277</ele>
        <time>2019-08-17T13:52:34Z</time>
      </trkpt>
      <trkpt lat="44.47038" lon="1.09718">
        <ele>140.912277</ele>
        <time>2019-08-17T13:52:35Z</time>
      </trkpt>
      <trkpt lat="44.47034" lon="1.09716">
        <ele>140.941055</ele>
        <time>2019-08-17T13:52:36Z</time>
      </trkpt>
      <trkpt lat="44.4703" lon="1.09714">
        <ele>141.060425</ele>
        <time>2019-08-17T13:52:37Z</time>
      </trkpt>
      <trkpt lat="44.47026" lon="1.09712">
        <ele>141.266479</ele>
        <time>2019-08-17T13:52:38Z</time>
      </trkpt>
      <trkpt lat="44.47022" lon="1.0971">
        <ele>141.57901</ele>
        <time>2019-08-17T13:52:39Z</time>
      </trkpt>
      <trkpt lat="44.47017" lon="1.09708">
        <ele>142.009476</ele>
        <time>2019-08-17T13:52:40Z</time>
      </trkpt>
      <trkpt lat="44.47013" lon="1.09706">
        <ele>142.494446</ele>
        <time>2019-08-17T13:52:41Z</time>
      </trkpt>
      <trkpt lat="44.47009" lon="1.09704">
        <ele>142.984924</ele>
        <time>2019-08-17T13:52:42Z</time>
      </trkpt>
      <trkpt lat="44.47006" lon="1.09703">
        <ele>143.472321</ele>
        <time>2019-08-17T13:52:43Z</time>
      </trkpt>
      <trkpt lat="44.47001" lon="1.09701">
        <ele>143.957306</ele>
        <time>2019-08-17T13:52:44Z</time>
      </trkpt>
      <trkpt lat="44.46997" lon="1.097">
        <ele>144.425888</ele>
        <time>2019-08-17T13:52:45Z</time>
      </trkpt>
      <trkpt lat="44.46993" lon="1.09698">
        <ele>144.872589</ele>
        <time>2019-08-17T13:52:46Z</time>
      </trkpt>
      <trkpt lat="44.4699" lon="1.09696">
        <ele>145.295319</ele>
        <time>2019-08-17T13:52:47Z</time>
      </trkpt>
      <trkpt lat="44.46987" lon="1.09695">
        <ele>145.693619</ele>
        <time>2019-08-17T13:52:48Z</time>
      </trkpt>
      <trkpt lat="44.46983" lon="1.09693">
        <ele>146.076859</ele>
        <time>2019-08-17T13:52:49Z</time>
      </trkpt>
      <trkpt lat="44.46979" lon="1.09692">
        <ele>146.449753</ele>
        <time>2019-08-17T13:52:50Z</time>
      </trkpt>
      <trkpt lat="44.46976" lon="1.0969">
        <ele>146.449753</ele>
        <time>2019-08-17T13:52:51Z</time>
      </trkpt>
      <trkpt lat="44.46972" lon="1.09688">
        <ele>146.822144</ele>
        <time>2019-08-17T13:52:52Z</time>
      </trkpt>
      <trkpt lat="44.46969" lon="1.09686">
        <ele>147.188492</ele>
        <time>2019-08-17T13:52:53Z</time>
      </trkpt>
      <trkpt lat="44.46965" lon="1.09685">
        <ele>147.63356</ele>
        <time>2019-08-17T13:52:54Z</time>
      </trkpt>
      <trkpt lat="44.46962" lon="1.09683">
        <ele>148.094467</ele>
        <time>2019-08-17T13:52:55Z</time>
      </trkpt>
      <trkpt lat="44.46958" lon="1.09682">
        <ele>148.564133</ele>
        <time>2019-08-17T13:52:56Z</time>
      </trkpt>
      <trkpt lat="44.46954" lon="1.0968">
        <ele>149.033524</ele>
        <time>2019-08-17T13:52:57Z</time>
      </trkpt>
      <trkpt lat="44.46951" lon="1.09679">
        <ele>149.497391</ele>
        <time>2019-08-17T13:52:58Z</time>
      </trkpt>
      <trkpt lat="44.46948" lon="1.09677">
        <ele>149.960281</ele>
        <time>2019-08-17T13:52:59Z</time>
      </trkpt>
      <trkpt lat="44.46944" lon="1.09676">
        <ele>150.34343</ele>
        <time>2019-08-17T13:53:00Z</time>
      </trkpt>
      <trkpt lat="44.46941" lon="1.09677">
        <ele>150.707687</ele>
        <time>2019-08-17T13:53:01Z</time>
      </trkpt>
      <trkpt lat="44.46938" lon="1.09677">
        <ele>151.071701</ele>
        <time>2019-08-17T13:53:02Z</time>
      </trkpt>
      <trkpt lat="44.46935" lon="1.09678">
        <ele>151.422287</ele>
        <time>2019-08-17T13:53:03Z</time>
      </trkpt>
      <trkpt lat="44.46933" lon="1.09678">
        <ele>151.730789</ele>
        <time>2019-08-17T13:53:04Z</time>
      </trkpt>
      <trkpt lat="44.4693" lon="1.09677">
        <ele>151.986984</ele>
        <time>2019-08-17T13:53:05Z</time>
      </trkpt>
      <trkpt lat="44.46928" lon="1.09677">
        <ele>152.198242</ele>
        <time>2019-08-17T13:53:06Z</time>
      </trkpt>
      <trkpt lat="44.46925" lon="1.09677">
        <ele>152.365311</ele>
        <time>2019-08-17T13:53:07Z</time>
      </trkpt>
      <trkpt lat="44.46922" lon="1.09677">
        <ele>152.488693</ele>
        <time>2019-08-17T13:53:08Z</time>
      </trkpt>
      <trkpt lat="44.46919" lon="1.09677">
        <ele>152.590897</ele>
        <time>2019-08-17T13:53:09Z</time>
      </trkpt>
      <trkpt lat="44.46916" lon="1.09677">
        <ele>152.702469</ele>
        <time>2019-08-17T13:53:10Z</time>
      </trkpt>
      <trkpt lat="44.46913" lon="1.09677">
        <ele>152.83049</ele>
        <time>2019-08-17T13:53:11Z</time>
      </trkpt>
      <trkpt lat="44.4691" lon="1.09677">
        <ele>152.980392</ele>
        <time>2019-08-17T13:53:12Z</time>
      </trkpt>
      <trkpt lat="44.46906" lon="1.09677">
        <ele>153.157364</ele>
        <time>2019-08-17T13:53:13Z</time>
      </trkpt>
      <trkpt lat="44.46902" lon="1.09676">
        <ele>153.354507</ele>
        <time>2019-08-17T13:53:14Z</time>
      </trkpt>
      <trkpt lat="44.46899" lon="1.09677">
        <ele>153.562775</ele>
        <time>2019-08-17T13:53:15Z</time>
      </trkpt>
      <trkpt lat="44.46895" lon="1.09677">
        <ele>153.795441</ele>
        <time>2019-08-17T13:53:16Z</time>
      </trkpt>
      <trkpt lat="44.46892" lon="1.09677">
        <ele>154.057404</ele>
        <time>2019-08-17T13:53:17Z</time>
      </trkpt>
      <trkpt lat="44.46891" lon="1.09678">
        <ele>154.322189</ele>
        <time>2019-08-17T13:53:18Z</time>
      </trkpt>
      <trkpt lat="44.4688" lon="1.0968">
        <ele>155.458466</ele>
        <time>2019-08-17T13:53:27Z</time>
      </trkpt>
      <trkpt lat="44.46876" lon="1.09681">
        <ele>155.490463</ele>
        <time>2019-08-17T13:53:29Z</time>
      </trkpt>
      <trkpt lat="44.46872" lon="1.09682">
        <ele>155.557968</ele>
        <time>2019-08-17T13:53:30Z</time>
      </trkpt>
      <trkpt lat="44.46868" lon="1.09683">
        <ele>155.659515</ele>
        <time>2019-08-17T13:53:31Z</time>
      </trkpt>
      <trkpt lat="44.46864" lon="1.09685">
        <ele>155.788223</ele>
        <time>2019-08-17T13:53:32Z</time>
      </trkpt>
      <trkpt lat="44.4686" lon="1.09686">
        <ele>155.938934</ele>
        <time>2019-08-17T13:53:33Z</time>
      </trkpt>
      <trkpt lat="44.46856" lon="1.09687">
        <ele>156.106583</ele>
        <time>2019-08-17T13:53:34Z</time>
      </trkpt>
      <trkpt lat="44.46852" lon="1.09689">
        <ele>156.271835</ele>
        <time>2019-08-17T13:53:35Z</time>
      </trkpt>
      <trkpt lat="44.46849" lon="1.09691">
        <ele>156.42836</ele>
        <time>2019-08-17T13:53:36Z</time>
      </trkpt>
      <trkpt lat="44.46845" lon="1.09692">
        <ele>156.575363</ele>
        <time>2019-08-17T13:53:37Z</time>
      </trkpt>
      <trkpt lat="44.46841" lon="1.09694">
        <ele>156.728195</ele>
        <time>2019-08-17T13:53:38Z</time>
      </trkpt>
      <trkpt lat="44.46837" lon="1.09697">
        <ele>156.908859</ele>
        <time>2019-08-17T13:53:39Z</time>
      </trkpt>
      <trkpt lat="44.46833" lon="1.097">
        <ele>157.118347</ele>
        <time>2019-08-17T13:53:40Z</time>
      </trkpt>
      <trkpt lat="44.4683" lon="1.09703">
        <ele>157.376877</ele>
        <time>2019-08-17T13:53:41Z</time>
      </trkpt>
      <trkpt lat="44.46827" lon="1.09706">
        <ele>157.66748</ele>
        <time>2019-08-17T13:53:42Z</time>
      </trkpt>
      <trkpt lat="44.46823" lon="1.09709">
        <ele>157.66748</ele>
        <time>2019-08-17T13:53:43Z</time>
      </trkpt>
      <trkpt lat="44.4682" lon="1.09712">
        <ele>157.985016</ele>
        <time>2019-08-17T13:53:44Z</time>
      </trkpt>
      <trkpt lat="44.46816" lon="1.09716">
        <ele>158.324081</ele>
        <time>2019-08-17T13:53:45Z</time>
      </trkpt>
      <trkpt lat="44.46813" lon="1.0972">
        <ele>158.716034</ele>
        <time>2019-08-17T13:53:46Z</time>
      </trkpt>
      <trkpt lat="44.46809" lon="1.09723">
        <ele>159.116165</ele>
        <time>2019-08-17T13:53:47Z</time>
      </trkpt>
      <trkpt lat="44.46807" lon="1.09727">
        <ele>159.504288</ele>
        <time>2019-08-17T13:53:48Z</time>
      </trkpt>
      <trkpt lat="44.46803" lon="1.09731">
        <ele>159.892181</ele>
        <time>2019-08-17T13:53:49Z</time>
      </trkpt>
      <trkpt lat="44.46801" lon="1.09736">
        <ele>160.285797</ele>
        <time>2019-08-17T13:53:50Z</time>
      </trkpt>
      <trkpt lat="44.46798" lon="1.0974">
        <ele>160.697739</ele>
        <time>2019-08-17T13:53:51Z</time>
      </trkpt>
      <trkpt lat="44.46795" lon="1.09745">
        <ele>161.140564</ele>
        <time>2019-08-17T13:53:52Z</time>
      </trkpt>
      <trkpt lat="44.46793" lon="1.09749">
        <ele>161.645935</ele>
        <time>2019-08-17T13:53:53Z</time>
      </trkpt>
      <trkpt lat="44.46791" lon="1.09754">
        <ele>162.215866</ele>
        <time>2019-08-17T13:53:54Z</time>
      </trkpt>
      <trkpt lat="44.46788" lon="1.09759">
        <ele>162.84053</ele>
        <time>2019-08-17T13:53:55Z</time>
      </trkpt>
      <trkpt lat="44.46786" lon="1.09764">
        <ele>163.503479</ele>
        <time>2019-08-17T13:53:56Z</time>
      </trkpt>
      <trkpt lat="44.46784" lon="1.09769">
        <ele>164.188492</ele>
        <time>2019-08-17T13:53:57Z</time>
      </trkpt>
      <trkpt lat="44.46782" lon="1.09774">
        <ele>164.833145</ele>
        <time>2019-08-17T13:53:58Z</time>
      </trkpt>
      <trkpt lat="44.4678" lon="1.09779">
        <ele>165.444656</ele>
        <time>2019-08-17T13:53:59Z</time>
      </trkpt>
      <trkpt lat="44.46778" lon="1.09783">
        <ele>166.037476</ele>
        <time>2019-08-17T13:54:00Z</time>
      </trkpt>
      <trkpt lat="44.46776" lon="1.09788">
        <ele>166.635941</ele>
        <time>2019-08-17T13:54:01Z</time>
      </trkpt>
      <trkpt lat="44.46774" lon="1.09793">
        <ele>167.245438</ele>
        <time>2019-08-17T13:54:02Z</time>
      </trkpt>
      <trkpt lat="44.46772" lon="1.09798">
        <ele>167.857361</ele>
        <time>2019-08-17T13:54:03Z</time>
      </trkpt>
      <trkpt lat="44.46771" lon="1.09804">
        <ele>167.857361</ele>
        <time>2019-08-17T13:54:04Z</time>
      </trkpt>
      <trkpt lat="44.46768" lon="1.09809">
        <ele>168.467819</ele>
        <time>2019-08-17T13:54:05Z</time>
      </trkpt>
      <trkpt lat="44.46767" lon="1.09815">
        <ele>169.08577</ele>
        <time>2019-08-17T13:54:06Z</time>
      </trkpt>
      <trkpt lat="44.46765" lon="1.0982">
        <ele>169.824905</ele>
        <time>2019-08-17T13:54:07Z</time>
      </trkpt>
      <trkpt lat="44.46763" lon="1.09826">
        <ele>170.550705</ele>
        <time>2019-08-17T13:54:08Z</time>
      </trkpt>
      <trkpt lat="44.46762" lon="1.09831">
        <ele>171.266281</ele>
        <time>2019-08-17T13:54:09Z</time>
      </trkpt>
      <trkpt lat="44.4676" lon="1.09836">
        <ele>171.982925</ele>
        <time>2019-08-17T13:54:10Z</time>
      </trkpt>
      <trkpt lat="44.46758" lon="1.09841">
        <ele>172.699875</ele>
        <time>2019-08-17T13:54:11Z</time>
      </trkpt>
      <trkpt lat="44.46757" lon="1.09846">
        <ele>173.41127</ele>
        <time>2019-08-17T13:54:12Z</time>
      </trkpt>
      <trkpt lat="44.46755" lon="1.09852">
        <ele>173.977676</ele>
        <time>2019-08-17T13:54:13Z</time>
      </trkpt>
      <trkpt lat="44.46753" lon="1.09857">
        <ele>174.517151</ele>
        <time>2019-08-17T13:54:14Z</time>
      </trkpt>
      <trkpt lat="44.46752" lon="1.09862">
        <ele>175.043518</ele>
        <time>2019-08-17T13:54:15Z</time>
      </trkpt>
      <trkpt lat="44.4675" lon="1.09867">
        <ele>175.558182</ele>
        <time>2019-08-17T13:54:16Z</time>
      </trkpt>
      <trkpt lat="44.46749" lon="1.09872">
        <ele>176.06012</ele>
        <time>2019-08-17T13:54:17Z</time>
      </trkpt>
      <trkpt lat="44.46747" lon="1.09876">
        <ele>176.482407</ele>
        <time>2019-08-17T13:54:18Z</time>
      </trkpt>
      <trkpt lat="44.46745" lon="1.09881">
        <ele>176.482407</ele>
        <time>2019-08-17T13:54:19Z</time>
      </trkpt>
      <trkpt lat="44.46744" lon="1.09886">
        <ele>176.706192</ele>
        <time>2019-08-17T13:54:20Z</time>
      </trkpt>
      <trkpt lat="44.46742" lon="1.09891">
        <ele>176.784378</ele>
        <time>2019-08-17T13:54:21Z</time>
      </trkpt>
      <trkpt lat="44.4674" lon="1.09896">
        <ele>176.784378</ele>
        <time>2019-08-17T13:54:22Z</time>
      </trkpt>
      <trkpt lat="44.46739" lon="1.09901">
        <ele>176.784378</ele>
        <time>2019-08-17T13:54:23Z</time>
      </trkpt>
      <trkpt lat="44.46737" lon="1.09906">
        <ele>176.706497</ele>
        <time>2019-08-17T13:54:24Z</time>
      </trkpt>
      <trkpt lat="44.46736" lon="1.09911">
        <ele>176.464478</ele>
        <time>2019-08-17T13:54:25Z</time>
      </trkpt>
      <trkpt lat="44.46734" lon="1.09916">
        <ele>176.064499</ele>
        <time>2019-08-17T13:54:26Z</time>
      </trkpt>
      <trkpt lat="44.46733" lon="1.09921">
        <ele>175.560593</ele>
        <time>2019-08-17T13:54:27Z</time>
      </trkpt>
      <trkpt lat="44.46732" lon="1.09926">
        <ele>175.08107</ele>
        <time>2019-08-17T13:54:28Z</time>
      </trkpt>
      <trkpt lat="44.4673" lon="1.09932">
        <ele>174.567825</ele>
        <time>2019-08-17T13:54:29Z</time>
      </trkpt>
      <trkpt lat="44.46729" lon="1.09937">
        <ele>174.017838</ele>
        <time>2019-08-17T13:54:30Z</time>
      </trkpt>
      <trkpt lat="44.46727" lon="1.09942">
        <ele>173.423279</ele>
        <time>2019-08-17T13:54:31Z</time>
      </trkpt>
      <trkpt lat="44.46726" lon="1.09947">
        <ele>172.785934</ele>
        <time>2019-08-17T13:54:32Z</time>
      </trkpt>
      <trkpt lat="44.46725" lon="1.09953">
        <ele>172.116501</ele>
        <time>2019-08-17T13:54:33Z</time>
      </trkpt>
      <trkpt lat="44.46723" lon="1.09958">
        <ele>171.418076</ele>
        <time>2019-08-17T13:54:34Z</time>
      </trkpt>
      <trkpt lat="44.46722" lon="1.09963">
        <ele>170.697617</ele>
        <time>2019-08-17T13:54:35Z</time>
      </trkpt>
      <trkpt lat="44.46721" lon="1.09969">
        <ele>169.954849</ele>
        <time>2019-08-17T13:54:36Z</time>
      </trkpt>
      <trkpt lat="44.4672" lon="1.09975">
        <ele>169.202103</ele>
        <time>2019-08-17T13:54:37Z</time>
      </trkpt>
      <trkpt lat="44.46719" lon="1.0998">
        <ele>168.424622</ele>
        <time>2019-08-17T13:54:38Z</time>
      </trkpt>
      <trkpt lat="44.46718" lon="1.09986">
        <ele>167.60936</ele>
        <time>2019-08-17T13:54:39Z</time>
      </trkpt>
      <trkpt lat="44.46717" lon="1.09992">
        <ele>167.60936</ele>
        <time>2019-08-17T13:54:40Z</time>
      </trkpt>
      <trkpt lat="44.46716" lon="1.09998">
        <ele>166.760788</ele>
        <time>2019-08-17T13:54:41Z</time>
      </trkpt>
      <trkpt lat="44.46716" lon="1.10003">
        <ele>165.879379</ele>
        <time>2019-08-17T13:54:42Z</time>
      </trkpt>
      <trkpt lat="44.46715" lon="1.10009">
        <ele>164.792892</ele>
        <time>2019-08-17T13:54:43Z</time>
      </trkpt>
      <trkpt lat="44.46714" lon="1.10015">
        <ele>163.687912</ele>
        <time>2019-08-17T13:54:44Z</time>
      </trkpt>
      <trkpt lat="44.46713" lon="1.10021">
        <ele>163.687912</ele>
        <time>2019-08-17T13:54:45Z</time>
      </trkpt>
      <trkpt lat="44.46713" lon="1.10027">
        <ele>162.720398</ele>
        <time>2019-08-17T13:54:46Z</time>
      </trkpt>
      <trkpt lat="44.46712" lon="1.10034">
        <ele>161.934677</ele>
        <time>2019-08-17T13:54:47Z</time>
      </trkpt>
      <trkpt lat="44.46711" lon="1.1004">
        <ele>161.335007</ele>
        <time>2019-08-17T13:54:48Z</time>
      </trkpt>
      <trkpt lat="44.46711" lon="1.10046">
        <ele>160.913254</ele>
        <time>2019-08-17T13:54:49Z</time>
      </trkpt>
      <trkpt lat="44.4671" lon="1.10053">
        <ele>160.850845</ele>
        <time>2019-08-17T13:54:50Z</time>
      </trkpt>
      <trkpt lat="44.46711" lon="1.10059">
        <ele>160.850845</ele>
        <time>2019-08-17T13:54:51Z</time>
      </trkpt>
      <trkpt lat="44.46711" lon="1.10064">
        <ele>160.848389</ele>
        <time>2019-08-17T13:54:52Z</time>
      </trkpt>
      <trkpt lat="44.46711" lon="1.1007">
        <ele>160.848389</ele>
        <time>2019-08-17T13:54:53Z</time>
      </trkpt>
      <trkpt lat="44.46711" lon="1.10076">
        <ele>160.9198</ele>
        <time>2019-08-17T13:54:54Z</time>
      </trkpt>
      <trkpt lat="44.46712" lon="1.10081">
        <ele>161.016525</ele>
        <time>2019-08-17T13:54:55Z</time>
      </trkpt>
      <trkpt lat="44.46712" lon="1.10087">
        <ele>161.100357</ele>
        <time>2019-08-17T13:54:56Z</time>
      </trkpt>
      <trkpt lat="44.46712" lon="1.10093">
        <ele>161.172791</ele>
        <time>2019-08-17T13:54:57Z</time>
      </trkpt>
      <trkpt lat="44.46713" lon="1.10098">
        <ele>161.271118</ele>
        <time>2019-08-17T13:54:58Z</time>
      </trkpt>
      <trkpt lat="44.46713" lon="1.10104">
        <ele>161.405106</ele>
        <time>2019-08-17T13:54:59Z</time>
      </trkpt>
      <trkpt lat="44.46713" lon="1.10109">
        <ele>161.575165</ele>
        <time>2019-08-17T13:55:00Z</time>
      </trkpt>
      <trkpt lat="44.46713" lon="1.10114">
        <ele>161.791443</ele>
        <time>2019-08-17T13:55:01Z</time>
      </trkpt>
      <trkpt lat="44.46713" lon="1.10119">
        <ele>162.046829</ele>
        <time>2019-08-17T13:55:02Z</time>
      </trkpt>
      <trkpt lat="44.46713" lon="1.10124">
        <ele>162.334229</ele>
        <time>2019-08-17T13:55:03Z</time>
      </trkpt>
      <trkpt lat="44.46713" lon="1.10129">
        <ele>162.62294</ele>
        <time>2019-08-17T13:55:04Z</time>
      </trkpt>
      <trkpt lat="44.46713" lon="1.10134">
        <ele>162.919754</ele>
        <time>2019-08-17T13:55:05Z</time>
      </trkpt>
      <trkpt lat="44.46713" lon="1.10139">
        <ele>163.207199</ele>
        <time>2019-08-17T13:55:06Z</time>
      </trkpt>
      <trkpt lat="44.46713" lon="1.10144">
        <ele>163.492203</ele>
        <time>2019-08-17T13:55:07Z</time>
      </trkpt>
      <trkpt lat="44.46713" lon="1.10149">
        <ele>163.777237</ele>
        <time>2019-08-17T13:55:08Z</time>
      </trkpt>
      <trkpt lat="44.46713" lon="1.10154">
        <ele>163.777237</ele>
        <time>2019-08-17T13:55:09Z</time>
      </trkpt>
      <trkpt lat="44.46713" lon="1.1016">
        <ele>164.062302</ele>
        <time>2019-08-17T13:55:10Z</time>
      </trkpt>
      <trkpt lat="44.46713" lon="1.10165">
        <ele>164.347061</ele>
        <time>2019-08-17T13:55:11Z</time>
      </trkpt>
      <trkpt lat="44.46712" lon="1.10171">
        <ele>164.664139</ele>
        <time>2019-08-17T13:55:12Z</time>
      </trkpt>
      <trkpt lat="44.46711" lon="1.10175">
        <ele>164.996994</ele>
        <time>2019-08-17T13:55:13Z</time>
      </trkpt>
      <trkpt lat="44.4671" lon="1.1018">
        <ele>165.346603</ele>
        <time>2019-08-17T13:55:14Z</time>
      </trkpt>
      <trkpt lat="44.46709" lon="1.10185">
        <ele>165.713089</ele>
        <time>2019-08-17T13:55:15Z</time>
      </trkpt>
      <trkpt lat="44.46708" lon="1.1019">
        <ele>165.713089</ele>
        <time>2019-08-17T13:55:16Z</time>
      </trkpt>
      <trkpt lat="44.46706" lon="1.10195">
        <ele>166.091507</ele>
        <time>2019-08-17T13:55:17Z</time>
      </trkpt>
      <trkpt lat="44.46704" lon="1.10199">
        <ele>166.503403</ele>
        <time>2019-08-17T13:55:18Z</time>
      </trkpt>
      <trkpt lat="44.46701" lon="1.10202">
        <ele>167.0056</ele>
        <time>2019-08-17T13:55:19Z</time>
      </trkpt>
      <trkpt lat="44.46698" lon="1.10204">
        <ele>167.542953</ele>
        <time>2019-08-17T13:55:20Z</time>
      </trkpt>
      <trkpt lat="44.46695" lon="1.10206">
        <ele>168.119034</ele>
        <time>2019-08-17T13:55:21Z</time>
      </trkpt>
      <trkpt lat="44.46692" lon="1.10209">
        <ele>168.732498</ele>
        <time>2019-08-17T13:55:22Z</time>
      </trkpt>
      <trkpt lat="44.46689" lon="1.10212">
        <ele>169.409058</ele>
        <time>2019-08-17T13:55:23Z</time>
      </trkpt>
      <trkpt lat="44.46687" lon="1.10214">
        <ele>170.116959</ele>
        <time>2019-08-17T13:55:24Z</time>
      </trkpt>
      <trkpt lat="44.46684" lon="1.10217">
        <ele>170.770264</ele>
        <time>2019-08-17T13:55:25Z</time>
      </trkpt>
      <trkpt lat="44.46682" lon="1.10219">
        <ele>171.440781</ele>
        <time>2019-08-17T13:55:26Z</time>
      </trkpt>
      <trkpt lat="44.4668" lon="1.10221">
        <ele>172.120163</ele>
        <time>2019-08-17T13:55:27Z</time>
      </trkpt>
      <trkpt lat="44.46678" lon="1.10222">
        <ele>172.797562</ele>
        <time>2019-08-17T13:55:28Z</time>
      </trkpt>
      <trkpt lat="44.46677" lon="1.10224">
        <ele>173.443192</ele>
        <time>2019-08-17T13:55:29Z</time>
      </trkpt>
      <trkpt lat="44.46671" lon="1.10234">
        <ele>176.256516</ele>
        <time>2019-08-17T13:55:39Z</time>
      </trkpt>
      <trkpt lat="44.46668" lon="1.10236">
        <ele>176.256516</ele>
        <time>2019-08-17T13:55:41Z</time>
      </trkpt>
      <trkpt lat="44.46666" lon="1.10239">
        <ele>176.375473</ele>
        <time>2019-08-17T13:55:42Z</time>
      </trkpt>
      <trkpt lat="44.46663" lon="1.10242">
        <ele>176.562576</ele>
        <time>2019-08-17T13:55:43Z</time>
      </trkpt>
      <trkpt lat="44.46661" lon="1.10245">
        <ele>176.931229</ele>
        <time>2019-08-17T13:55:44Z</time>
      </trkpt>
      <trkpt lat="44.46659" lon="1.10248">
        <ele>177.401077</ele>
        <time>2019-08-17T13:55:45Z</time>
      </trkpt>
      <trkpt lat="44.46656" lon="1.10251">
        <ele>177.401077</ele>
        <time>2019-08-17T13:55:46Z</time>
      </trkpt>
      <trkpt lat="44.46654" lon="1.10255">
        <ele>177.944107</ele>
        <time>2019-08-17T13:55:47Z</time>
      </trkpt>
      <trkpt lat="44.46652" lon="1.10258">
        <ele>178.526474</ele>
        <time>2019-08-17T13:55:48Z</time>
      </trkpt>
      <trkpt lat="44.46649" lon="1.10261">
        <ele>179.254868</ele>
        <time>2019-08-17T13:55:49Z</time>
      </trkpt>
      <trkpt lat="44.46647" lon="1.10264">
        <ele>180.014099</ele>
        <time>2019-08-17T13:55:50Z</time>
      </trkpt>
      <trkpt lat="44.46645" lon="1.10267">
        <ele>180.682755</ele>
        <time>2019-08-17T13:55:51Z</time>
      </trkpt>
      <trkpt lat="44.46643" lon="1.10271">
        <ele>181.337158</ele>
        <time>2019-08-17T13:55:52Z</time>
      </trkpt>
      <trkpt lat="44.46641" lon="1.10274">
        <ele>181.99498</ele>
        <time>2019-08-17T13:55:53Z</time>
      </trkpt>
      <trkpt lat="44.46639" lon="1.10278">
        <ele>182.668594</ele>
        <time>2019-08-17T13:55:54Z</time>
      </trkpt>
      <trkpt lat="44.46638" lon="1.10281">
        <ele>183.242264</ele>
        <time>2019-08-17T13:55:55Z</time>
      </trkpt>
      <trkpt lat="44.46636" lon="1.10285">
        <ele>183.242264</ele>
        <time>2019-08-17T13:55:56Z</time>
      </trkpt>
      <trkpt lat="44.46634" lon="1.10288">
        <ele>183.807129</ele>
        <time>2019-08-17T13:55:57Z</time>
      </trkpt>
      <trkpt lat="44.46632" lon="1.10292">
        <ele>184.355606</ele>
        <time>2019-08-17T13:55:58Z</time>
      </trkpt>
      <trkpt lat="44.46631" lon="1.10296">
        <ele>184.955566</ele>
        <time>2019-08-17T13:55:59Z</time>
      </trkpt>
      <trkpt lat="44.46628" lon="1.10299">
        <ele>185.518997</ele>
        <time>2019-08-17T13:56:00Z</time>
      </trkpt>
      <trkpt lat="44.46627" lon="1.10303">
        <ele>186.049728</ele>
        <time>2019-08-17T13:56:01Z</time>
      </trkpt>
      <trkpt lat="44.46625" lon="1.10306">
        <ele>186.553772</ele>
        <time>2019-08-17T13:56:02Z</time>
      </trkpt>
      <trkpt lat="44.46623" lon="1.10309">
        <ele>187.028244</ele>
        <time>2019-08-17T13:56:03Z</time>
      </trkpt>
      <trkpt lat="44.46621" lon="1.10313">
        <ele>187.487015</ele>
        <time>2019-08-17T13:56:04Z</time>
      </trkpt>
      <trkpt lat="44.46619" lon="1.10316">
        <ele>187.863083</ele>
        <time>2019-08-17T13:56:05Z</time>
      </trkpt>
      <trkpt lat="44.46617" lon="1.1032">
        <ele>188.232742</ele>
        <time>2019-08-17T13:56:06Z</time>
      </trkpt>
      <trkpt lat="44.46615" lon="1.10323">
        <ele>188.58812</ele>
        <time>2019-08-17T13:56:07Z</time>
      </trkpt>
      <trkpt lat="44.46614" lon="1.10327">
        <ele>188.58812</ele>
        <time>2019-08-17T13:56:08Z</time>
      </trkpt>
      <trkpt lat="44.46612" lon="1.10331">
        <ele>188.925903</ele>
        <time>2019-08-17T13:56:09Z</time>
      </trkpt>
      <trkpt lat="44.4661" lon="1.10335">
        <ele>189.247147</ele>
        <time>2019-08-17T13:56:10Z</time>
      </trkpt>
      <trkpt lat="44.46608" lon="1.10338">
        <ele>189.587891</ele>
        <time>2019-08-17T13:56:11Z</time>
      </trkpt>
      <trkpt lat="44.46605" lon="1.10342">
        <ele>189.906326</ele>
        <time>2019-08-17T13:56:12Z</time>
      </trkpt>
      <trkpt lat="44.46603" lon="1.10345">
        <ele>190.206772</ele>
        <time>2019-08-17T13:56:13Z</time>
      </trkpt>
      <trkpt lat="44.46602" lon="1.10349">
        <ele>190.487503</ele>
        <time>2019-08-17T13:56:14Z</time>
      </trkpt>
      <trkpt lat="44.466" lon="1.10353">
        <ele>190.75032</ele>
        <time>2019-08-17T13:56:15Z</time>
      </trkpt>
      <trkpt lat="44.46598" lon="1.10356">
        <ele>191.000534</ele>
        <time>2019-08-17T13:56:16Z</time>
      </trkpt>
      <trkpt lat="44.46595" lon="1.1036">
        <ele>191.199783</ele>
        <time>2019-08-17T13:56:17Z</time>
      </trkpt>
      <trkpt lat="44.46593" lon="1.10363">
        <ele>191.385925</ele>
        <time>2019-08-17T13:56:18Z</time>
      </trkpt>
      <trkpt lat="44.46591" lon="1.10366">
        <ele>191.552567</ele>
        <time>2019-08-17T13:56:19Z</time>
      </trkpt>
      <trkpt lat="44.46589" lon="1.10369">
        <ele>191.704269</ele>
        <time>2019-08-17T13:56:20Z</time>
      </trkpt>
      <trkpt lat="44.46586" lon="1.10372">
        <ele>191.838181</ele>
        <time>2019-08-17T13:56:21Z</time>
      </trkpt>
      <trkpt lat="44.46584" lon="1.10375">
        <ele>191.953659</ele>
        <time>2019-08-17T13:56:22Z</time>
      </trkpt>
      <trkpt lat="44.46581" lon="1.10379">
        <ele>192.053299</ele>
        <time>2019-08-17T13:56:23Z</time>
      </trkpt>
      <trkpt lat="44.46579" lon="1.10382">
        <ele>192.142654</ele>
        <time>2019-08-17T13:56:24Z</time>
      </trkpt>
      <trkpt lat="44.46576" lon="1.10385">
        <ele>192.21875</ele>
        <time>2019-08-17T13:56:25Z</time>
      </trkpt>
      <trkpt lat="44.46573" lon="1.10388">
        <ele>192.277451</ele>
        <time>2019-08-17T13:56:26Z</time>
      </trkpt>
      <trkpt lat="44.4657" lon="1.10391">
        <ele>192.334717</ele>
        <time>2019-08-17T13:56:27Z</time>
      </trkpt>
      <trkpt lat="44.46568" lon="1.10394">
        <ele>192.443375</ele>
        <time>2019-08-17T13:56:28Z</time>
      </trkpt>
      <trkpt lat="44.46566" lon="1.10397">
        <ele>192.605759</ele>
        <time>2019-08-17T13:56:29Z</time>
      </trkpt>
      <trkpt lat="44.46563" lon="1.104">
        <ele>192.811111</ele>
        <time>2019-08-17T13:56:30Z</time>
      </trkpt>
      <trkpt lat="44.4656" lon="1.10403">
        <ele>193.054886</ele>
        <time>2019-08-17T13:56:31Z</time>
      </trkpt>
      <trkpt lat="44.46558" lon="1.10406">
        <ele>193.349045</ele>
        <time>2019-08-17T13:56:32Z</time>
      </trkpt>
      <trkpt lat="44.46555" lon="1.10409">
        <ele>193.688736</ele>
        <time>2019-08-17T13:56:33Z</time>
      </trkpt>
      <trkpt lat="44.46553" lon="1.10412">
        <ele>194.01239</ele>
        <time>2019-08-17T13:56:34Z</time>
      </trkpt>
      <trkpt lat="44.4655" lon="1.10416">
        <ele>194.316788</ele>
        <time>2019-08-17T13:56:35Z</time>
      </trkpt>
      <trkpt lat="44.46548" lon="1.10419">
        <ele>194.612839</ele>
        <time>2019-08-17T13:56:36Z</time>
      </trkpt>
      <trkpt lat="44.46545" lon="1.10422">
        <ele>194.904053</ele>
        <time>2019-08-17T13:56:37Z</time>
      </trkpt>
      <trkpt lat="44.46542" lon="1.10426">
        <ele>194.904053</ele>
        <time>2019-08-17T13:56:38Z</time>
      </trkpt>
      <trkpt lat="44.4654" lon="1.10429">
        <ele>195.230392</ele>
        <time>2019-08-17T13:56:39Z</time>
      </trkpt>
      <trkpt lat="44.46537" lon="1.10432">
        <ele>195.59053</ele>
        <time>2019-08-17T13:56:40Z</time>
      </trkpt>
      <trkpt lat="44.46534" lon="1.10435">
        <ele>196.084061</ele>
        <time>2019-08-17T13:56:41Z</time>
      </trkpt>
      <trkpt lat="44.46532" lon="1.10438">
        <ele>196.617844</ele>
        <time>2019-08-17T13:56:42Z</time>
      </trkpt>
      <trkpt lat="44.46529" lon="1.10441">
        <ele>197.186356</ele>
        <time>2019-08-17T13:56:43Z</time>
      </trkpt>
      <trkpt lat="44.46527" lon="1.10445">
        <ele>197.794754</ele>
        <time>2019-08-17T13:56:44Z</time>
      </trkpt>
      <trkpt lat="44.46524" lon="1.10448">
        <ele>198.395264</ele>
        <time>2019-08-17T13:56:45Z</time>
      </trkpt>
      <trkpt lat="44.46522" lon="1.10451">
        <ele>198.978226</ele>
        <time>2019-08-17T13:56:46Z</time>
      </trkpt>
      <trkpt lat="44.4652" lon="1.10454">
        <ele>199.44603</ele>
        <time>2019-08-17T13:56:47Z</time>
      </trkpt>
      <trkpt lat="44.46517" lon="1.10457">
        <ele>199.899231</ele>
        <time>2019-08-17T13:56:48Z</time>
      </trkpt>
      <trkpt lat="44.46514" lon="1.1046">
        <ele>200.338501</ele>
        <time>2019-08-17T13:56:49Z</time>
      </trkpt>
      <trkpt lat="44.46512" lon="1.10462">
        <ele>200.338501</ele>
        <time>2019-08-17T13:56:50Z</time>
      </trkpt>
      <trkpt lat="44.4651" lon="1.10465">
        <ele>200.756775</ele>
        <time>2019-08-17T13:56:51Z</time>
      </trkpt>
      <trkpt lat="44.46508" lon="1.10468">
        <ele>201.160263</ele>
        <time>2019-08-17T13:56:52Z</time>
      </trkpt>
      <trkpt lat="44.46506" lon="1.10471">
        <ele>201.591843</ele>
        <time>2019-08-17T13:56:53Z</time>
      </trkpt>
      <trkpt lat="44.46504" lon="1.10474">
        <ele>202.006958</ele>
        <time>2019-08-17T13:56:54Z</time>
      </trkpt>
      <trkpt lat="44.46502" lon="1.10478">
        <ele>202.411667</ele>
        <time>2019-08-17T13:56:55Z</time>
      </trkpt>
      <trkpt lat="44.465" lon="1.10481">
        <ele>202.804947</ele>
        <time>2019-08-17T13:56:56Z</time>
      </trkpt>
      <trkpt lat="44.46498" lon="1.10484">
        <ele>203.192627</ele>
        <time>2019-08-17T13:56:57Z</time>
      </trkpt>
      <trkpt lat="44.46496" lon="1.10488">
        <ele>203.567184</ele>
        <time>2019-08-17T13:56:58Z</time>
      </trkpt>
      <trkpt lat="44.46494" lon="1.10492">
        <ele>203.88829</ele>
        <time>2019-08-17T13:56:59Z</time>
      </trkpt>
      <trkpt lat="44.46492" lon="1.10496">
        <ele>204.214737</ele>
        <time>2019-08-17T13:57:00Z</time>
      </trkpt>
      <trkpt lat="44.46491" lon="1.105">
        <ele>204.533249</ele>
        <time>2019-08-17T13:57:01Z</time>
      </trkpt>
      <trkpt lat="44.46489" lon="1.10503">
        <ele>204.841415</ele>
        <time>2019-08-17T13:57:02Z</time>
      </trkpt>
      <trkpt lat="44.46487" lon="1.10507">
        <ele>205.137939</ele>
        <time>2019-08-17T13:57:03Z</time>
      </trkpt>
      <trkpt lat="44.46486" lon="1.1051">
        <ele>205.137939</ele>
        <time>2019-08-17T13:57:04Z</time>
      </trkpt>
      <trkpt lat="44.46485" lon="1.10514">
        <ele>205.427246</ele>
        <time>2019-08-17T13:57:05Z</time>
      </trkpt>
      <trkpt lat="44.46483" lon="1.10518">
        <ele>205.707153</ele>
        <time>2019-08-17T13:57:06Z</time>
      </trkpt>
      <trkpt lat="44.46482" lon="1.10522">
        <ele>205.991943</ele>
        <time>2019-08-17T13:57:07Z</time>
      </trkpt>
      <trkpt lat="44.46481" lon="1.10526">
        <ele>206.245865</ele>
        <time>2019-08-17T13:57:08Z</time>
      </trkpt>
      <trkpt lat="44.46479" lon="1.1053">
        <ele>206.487</ele>
        <time>2019-08-17T13:57:09Z</time>
      </trkpt>
      <trkpt lat="44.46478" lon="1.10534">
        <ele>206.708694</ele>
        <time>2019-08-17T13:57:10Z</time>
      </trkpt>
      <trkpt lat="44.46478" lon="1.10538">
        <ele>206.903931</ele>
        <time>2019-08-17T13:57:11Z</time>
      </trkpt>
      <trkpt lat="44.46477" lon="1.10542">
        <ele>207.07402</ele>
        <time>2019-08-17T13:57:12Z</time>
      </trkpt>
      <trkpt lat="44.46476" lon="1.10547">
        <ele>207.19487</ele>
        <time>2019-08-17T13:57:13Z</time>
      </trkpt>
      <trkpt lat="44.46475" lon="1.10551">
        <ele>207.19487</ele>
        <time>2019-08-17T13:57:14Z</time>
      </trkpt>
      <trkpt lat="44.46475" lon="1.10556">
        <ele>207.297241</ele>
        <time>2019-08-17T13:57:15Z</time>
      </trkpt>
      <trkpt lat="44.46474" lon="1.1056">
        <ele>207.376709</ele>
        <time>2019-08-17T13:57:16Z</time>
      </trkpt>
      <trkpt lat="44.46473" lon="1.10565">
        <ele>207.425659</ele>
        <time>2019-08-17T13:57:17Z</time>
      </trkpt>
      <trkpt lat="44.46472" lon="1.10569">
        <ele>207.450485</ele>
        <time>2019-08-17T13:57:18Z</time>
      </trkpt>
      <trkpt lat="44.46471" lon="1.10574">
        <ele>207.453934</ele>
        <time>2019-08-17T13:57:19Z</time>
      </trkpt>
      <trkpt lat="44.4647" lon="1.10579">
        <ele>207.453934</ele>
        <time>2019-08-17T13:57:20Z</time>
      </trkpt>
      <trkpt lat="44.46469" lon="1.10583">
        <ele>207.453934</ele>
        <time>2019-08-17T13:57:21Z</time>
      </trkpt>
      <trkpt lat="44.46468" lon="1.10587">
        <ele>207.439621</ele>
        <time>2019-08-17T13:57:22Z</time>
      </trkpt>
      <trkpt lat="44.46467" lon="1.10591">
        <ele>207.412216</ele>
        <time>2019-08-17T13:57:23Z</time>
      </trkpt>
      <trkpt lat="44.46466" lon="1.10595">
        <ele>207.366684</ele>
        <time>2019-08-17T13:57:24Z</time>
      </trkpt>
      <trkpt lat="44.46465" lon="1.10599">
        <ele>207.319519</ele>
        <time>2019-08-17T13:57:25Z</time>
      </trkpt>
      <trkpt lat="44.46465" lon="1.10603">
        <ele>207.268173</ele>
        <time>2019-08-17T13:57:26Z</time>
      </trkpt>
      <trkpt lat="44.46463" lon="1.10607">
        <ele>207.20784</ele>
        <time>2019-08-17T13:57:27Z</time>
      </trkpt>
      <trkpt lat="44.46461" lon="1.10611">
        <ele>207.140457</ele>
        <time>2019-08-17T13:57:28Z</time>
      </trkpt>
      <trkpt lat="44.46459" lon="1.10615">
        <ele>207.140457</ele>
        <time>2019-08-17T13:57:29Z</time>
      </trkpt>
      <trkpt lat="44.46457" lon="1.10619">
        <ele>207.067734</ele>
        <time>2019-08-17T13:57:30Z</time>
      </trkpt>
      <trkpt lat="44.46455" lon="1.10623">
        <ele>206.990433</ele>
        <time>2019-08-17T13:57:31Z</time>
      </trkpt>
      <trkpt lat="44.46453" lon="1.10626">
        <ele>206.898193</ele>
        <time>2019-08-17T13:57:32Z</time>
      </trkpt>
      <trkpt lat="44.4645" lon="1.10629">
        <ele>206.815018</ele>
        <time>2019-08-17T13:57:33Z</time>
      </trkpt>
      <trkpt lat="44.46448" lon="1.10632">
        <ele>206.750198</ele>
        <time>2019-08-17T13:57:34Z</time>
      </trkpt>
      <trkpt lat="44.46446" lon="1.10635">
        <ele>206.703003</ele>
        <time>2019-08-17T13:57:35Z</time>
      </trkpt>
      <trkpt lat="44.46444" lon="1.10638">
        <ele>206.672607</ele>
        <time>2019-08-17T13:57:36Z</time>
      </trkpt>
      <trkpt lat="44.46441" lon="1.10641">
        <ele>206.65741</ele>
        <time>2019-08-17T13:57:37Z</time>
      </trkpt>
      <trkpt lat="44.46439" lon="1.10644">
        <ele>206.65741</ele>
        <time>2019-08-17T13:57:38Z</time>
      </trkpt>
      <trkpt lat="44.46436" lon="1.10647">
        <ele>206.65741</ele>
        <time>2019-08-17T13:57:39Z</time>
      </trkpt>
      <trkpt lat="44.46433" lon="1.10649">
        <ele>206.678909</ele>
        <time>2019-08-17T13:57:40Z</time>
      </trkpt>
      <trkpt lat="44.46431" lon="1.10652">
        <ele>206.76709</ele>
        <time>2019-08-17T13:57:41Z</time>
      </trkpt>
      <trkpt lat="44.46429" lon="1.10655">
        <ele>206.922165</ele>
        <time>2019-08-17T13:57:42Z</time>
      </trkpt>
      <trkpt lat="44.46426" lon="1.10658">
        <ele>207.139847</ele>
        <time>2019-08-17T13:57:43Z</time>
      </trkpt>
      <trkpt lat="44.46425" lon="1.10661">
        <ele>207.415588</ele>
        <time>2019-08-17T13:57:44Z</time>
      </trkpt>
      <trkpt lat="44.46422" lon="1.10664">
        <ele>207.74707</ele>
        <time>2019-08-17T13:57:45Z</time>
      </trkpt>
      <trkpt lat="44.4642" lon="1.10667">
        <ele>207.74707</ele>
        <time>2019-08-17T13:57:46Z</time>
      </trkpt>
      <trkpt lat="44.46418" lon="1.1067">
        <ele>208.127274</ele>
        <time>2019-08-17T13:57:47Z</time>
      </trkpt>
      <trkpt lat="44.46416" lon="1.10673">
        <ele>208.503586</ele>
        <time>2019-08-17T13:57:48Z</time>
      </trkpt>
      <trkpt lat="44.46413" lon="1.10676">
        <ele>208.915604</ele>
        <time>2019-08-17T13:57:49Z</time>
      </trkpt>
      <trkpt lat="44.46412" lon="1.10679">
        <ele>209.317383</ele>
        <time>2019-08-17T13:57:50Z</time>
      </trkpt>
      <trkpt lat="44.46409" lon="1.10682">
        <ele>209.71492</ele>
        <time>2019-08-17T13:57:51Z</time>
      </trkpt>
      <trkpt lat="44.46407" lon="1.10685">
        <ele>210.111404</ele>
        <time>2019-08-17T13:57:52Z</time>
      </trkpt>
      <trkpt lat="44.46405" lon="1.10687">
        <ele>210.50325</ele>
        <time>2019-08-17T13:57:53Z</time>
      </trkpt>
      <trkpt lat="44.46402" lon="1.10691">
        <ele>210.894043</ele>
        <time>2019-08-17T13:57:54Z</time>
      </trkpt>
      <trkpt lat="44.464" lon="1.10694">
        <ele>211.239426</ele>
        <time>2019-08-17T13:57:55Z</time>
      </trkpt>
      <trkpt lat="44.46398" lon="1.10698">
        <ele>211.585815</ele>
        <time>2019-08-17T13:57:56Z</time>
      </trkpt>
      <trkpt lat="44.46397" lon="1.10701">
        <ele>211.962967</ele>
        <time>2019-08-17T13:57:57Z</time>
      </trkpt>
      <trkpt lat="44.46394" lon="1.10704">
        <ele>212.362595</ele>
        <time>2019-08-17T13:57:58Z</time>
      </trkpt>
      <trkpt lat="44.46392" lon="1.10707">
        <ele>212.779526</ele>
        <time>2019-08-17T13:57:59Z</time>
      </trkpt>
      <trkpt lat="44.4639" lon="1.1071">
        <ele>213.205582</ele>
        <time>2019-08-17T13:58:00Z</time>
      </trkpt>
      <trkpt lat="44.46388" lon="1.10713">
        <ele>213.640915</ele>
        <time>2019-08-17T13:58:01Z</time>
      </trkpt>
      <trkpt lat="44.46386" lon="1.10716">
        <ele>214.086227</ele>
        <time>2019-08-17T13:58:02Z</time>
      </trkpt>
      <trkpt lat="44.46384" lon="1.10719">
        <ele>214.511124</ele>
        <time>2019-08-17T13:58:03Z</time>
      </trkpt>
      <trkpt lat="44.46381" lon="1.10722">
        <ele>214.917847</ele>
        <time>2019-08-17T13:58:04Z</time>
      </trkpt>
      <trkpt lat="44.46379" lon="1.10726">
        <ele>215.313675</ele>
        <time>2019-08-17T13:58:05Z</time>
      </trkpt>
      <trkpt lat="44.46377" lon="1.10729">
        <ele>215.313675</ele>
        <time>2019-08-17T13:58:06Z</time>
      </trkpt>
      <trkpt lat="44.46374" lon="1.10732">
        <ele>215.692871</ele>
        <time>2019-08-17T13:58:07Z</time>
      </trkpt>
      <trkpt lat="44.46372" lon="1.10735">
        <ele>216.056076</ele>
        <time>2019-08-17T13:58:08Z</time>
      </trkpt>
      <trkpt lat="44.46369" lon="1.10738">
        <ele>216.46167</ele>
        <time>2019-08-17T13:58:09Z</time>
      </trkpt>
      <trkpt lat="44.46367" lon="1.1074">
        <ele>216.848328</ele>
        <time>2019-08-17T13:58:10Z</time>
      </trkpt>
      <trkpt lat="44.46364" lon="1.10743">
        <ele>217.228561</ele>
        <time>2019-08-17T13:58:11Z</time>
      </trkpt>
      <trkpt lat="44.46361" lon="1.10746">
        <ele>217.602036</ele>
        <time>2019-08-17T13:58:12Z</time>
      </trkpt>
      <trkpt lat="44.46358" lon="1.10748">
        <ele>217.976257</ele>
        <time>2019-08-17T13:58:13Z</time>
      </trkpt>
      <trkpt lat="44.46355" lon="1.10751">
        <ele>218.344864</ele>
        <time>2019-08-17T13:58:14Z</time>
      </trkpt>
      <trkpt lat="44.46353" lon="1.10753">
        <ele>218.650101</ele>
        <time>2019-08-17T13:58:15Z</time>
      </trkpt>
      <trkpt lat="44.4635" lon="1.10756">
        <ele>218.953018</ele>
        <time>2019-08-17T13:58:16Z</time>
      </trkpt>
      <trkpt lat="44.46347" lon="1.10758">
        <ele>219.242691</ele>
        <time>2019-08-17T13:58:17Z</time>
      </trkpt>
      <trkpt lat="44.46344" lon="1.1076">
        <ele>219.515976</ele>
        <time>2019-08-17T13:58:18Z</time>
      </trkpt>
      <trkpt lat="44.46341" lon="1.10763">
        <ele>219.774048</ele>
        <time>2019-08-17T13:58:19Z</time>
      </trkpt>
      <trkpt lat="44.46338" lon="1.10765">
        <ele>220.022446</ele>
        <time>2019-08-17T13:58:20Z</time>
      </trkpt>
      <trkpt lat="44.46336" lon="1.10767">
        <ele>220.260025</ele>
        <time>2019-08-17T13:58:21Z</time>
      </trkpt>
      <trkpt lat="44.46333" lon="1.10769">
        <ele>220.484863</ele>
        <time>2019-08-17T13:58:22Z</time>
      </trkpt>
      <trkpt lat="44.4633" lon="1.1077">
        <ele>220.697464</ele>
        <time>2019-08-17T13:58:23Z</time>
      </trkpt>
      <trkpt lat="44.46327" lon="1.10772">
        <ele>220.896591</ele>
        <time>2019-08-17T13:58:24Z</time>
      </trkpt>
      <trkpt lat="44.46325" lon="1.10773">
        <ele>221.084045</ele>
        <time>2019-08-17T13:58:25Z</time>
      </trkpt>
      <trkpt lat="44.46322" lon="1.10774">
        <ele>221.258102</ele>
        <time>2019-08-17T13:58:26Z</time>
      </trkpt>
      <trkpt lat="44.46318" lon="1.10775">
        <ele>221.423355</ele>
        <time>2019-08-17T13:58:27Z</time>
      </trkpt>
      <trkpt lat="44.46315" lon="1.10776">
        <ele>221.580399</ele>
        <time>2019-08-17T13:58:28Z</time>
      </trkpt>
      <trkpt lat="44.46313" lon="1.10777">
        <ele>221.733704</ele>
        <time>2019-08-17T13:58:29Z</time>
      </trkpt>
      <trkpt lat="44.4631" lon="1.10777">
        <ele>221.887146</ele>
        <time>2019-08-17T13:58:30Z</time>
      </trkpt>
      <trkpt lat="44.46307" lon="1.10778">
        <ele>222.041138</ele>
        <time>2019-08-17T13:58:31Z</time>
      </trkpt>
      <trkpt lat="44.46304" lon="1.10778">
        <ele>222.197021</ele>
        <time>2019-08-17T13:58:32Z</time>
      </trkpt>
      <trkpt lat="44.46301" lon="1.10779">
        <ele>222.197021</ele>
        <time>2019-08-17T13:58:33Z</time>
      </trkpt>
      <trkpt lat="44.46298" lon="1.10779">
        <ele>222.353027</ele>
        <time>2019-08-17T13:58:34Z</time>
      </trkpt>
      <trkpt lat="44.46295" lon="1.1078">
        <ele>222.50885</ele>
        <time>2019-08-17T13:58:35Z</time>
      </trkpt>
      <trkpt lat="44.46292" lon="1.1078">
        <ele>222.692932</ele>
        <time>2019-08-17T13:58:36Z</time>
      </trkpt>
      <trkpt lat="44.46289" lon="1.10781">
        <ele>222.872177</ele>
        <time>2019-08-17T13:58:37Z</time>
      </trkpt>
      <trkpt lat="44.46286" lon="1.10782">
        <ele>223.048386</ele>
        <time>2019-08-17T13:58:38Z</time>
      </trkpt>
      <trkpt lat="44.46283" lon="1.10782">
        <ele>223.222641</ele>
        <time>2019-08-17T13:58:39Z</time>
      </trkpt>
      <trkpt lat="44.4628" lon="1.10783">
        <ele>223.391113</ele>
        <time>2019-08-17T13:58:40Z</time>
      </trkpt>
      <trkpt lat="44.46278" lon="1.10785">
        <ele>223.558029</ele>
        <time>2019-08-17T13:58:41Z</time>
      </trkpt>
      <trkpt lat="44.46275" lon="1.10786">
        <ele>223.690292</ele>
        <time>2019-08-17T13:58:42Z</time>
      </trkpt>
      <trkpt lat="44.46272" lon="1.10788">
        <ele>223.812378</ele>
        <time>2019-08-17T13:58:43Z</time>
      </trkpt>
      <trkpt lat="44.46269" lon="1.1079">
        <ele>223.918564</ele>
        <time>2019-08-17T13:58:44Z</time>
      </trkpt>
      <trkpt lat="44.46266" lon="1.10792">
        <ele>223.993652</ele>
        <time>2019-08-17T13:58:45Z</time>
      </trkpt>
      <trkpt lat="44.46264" lon="1.10795">
        <ele>224.033463</ele>
        <time>2019-08-17T13:58:46Z</time>
      </trkpt>
      <trkpt lat="44.46262" lon="1.10797">
        <ele>224.033463</ele>
        <time>2019-08-17T13:58:47Z</time>
      </trkpt>
      <trkpt lat="44.4626" lon="1.108">
        <ele>224.033463</ele>
        <time>2019-08-17T13:58:48Z</time>
      </trkpt>
      <trkpt lat="44.46258" lon="1.10802">
        <ele>224.029663</ele>
        <time>2019-08-17T13:58:49Z</time>
      </trkpt>
      <trkpt lat="44.46256" lon="1.10805">
        <ele>223.989319</ele>
        <time>2019-08-17T13:58:50Z</time>
      </trkpt>
      <trkpt lat="44.46254" lon="1.10808">
        <ele>223.913635</ele>
        <time>2019-08-17T13:58:51Z</time>
      </trkpt>
      <trkpt lat="44.46252" lon="1.10811">
        <ele>223.913635</ele>
        <time>2019-08-17T13:58:52Z</time>
      </trkpt>
      <trkpt lat="44.4625" lon="1.10815">
        <ele>223.800217</ele>
        <time>2019-08-17T13:58:53Z</time>
      </trkpt>
      <trkpt lat="44.46248" lon="1.10818">
        <ele>223.658997</ele>
        <time>2019-08-17T13:58:54Z</time>
      </trkpt>
      <trkpt lat="44.46246" lon="1.10821">
        <ele>223.452515</ele>
        <time>2019-08-17T13:58:55Z</time>
      </trkpt>
      <trkpt lat="44.46244" lon="1.10824">
        <ele>223.22052</ele>
        <time>2019-08-17T13:58:56Z</time>
      </trkpt>
      <trkpt lat="44.46242" lon="1.10827">
        <ele>222.968185</ele>
        <time>2019-08-17T13:58:57Z</time>
      </trkpt>
      <trkpt lat="44.4624" lon="1.10831">
        <ele>222.69487</ele>
        <time>2019-08-17T13:58:58Z</time>
      </trkpt>
      <trkpt lat="44.46238" lon="1.10834">
        <ele>222.448441</ele>
        <time>2019-08-17T13:58:59Z</time>
      </trkpt>
      <trkpt lat="44.46237" lon="1.10837">
        <ele>222.264572</ele>
        <time>2019-08-17T13:59:00Z</time>
      </trkpt>
      <trkpt lat="44.46235" lon="1.10841">
        <ele>222.19072</ele>
        <time>2019-08-17T13:59:01Z</time>
      </trkpt>
      <trkpt lat="44.46233" lon="1.10845">
        <ele>222.19072</ele>
        <time>2019-08-17T13:59:02Z</time>
      </trkpt>
      <trkpt lat="44.46232" lon="1.10848">
        <ele>222.19072</ele>
        <time>2019-08-17T13:59:03Z</time>
      </trkpt>
      <trkpt lat="44.4623" lon="1.10852">
        <ele>222.196533</ele>
        <time>2019-08-17T13:59:04Z</time>
      </trkpt>
      <trkpt lat="44.46228" lon="1.10856">
        <ele>222.277176</ele>
        <time>2019-08-17T13:59:05Z</time>
      </trkpt>
      <trkpt lat="44.46227" lon="1.1086">
        <ele>222.439331</ele>
        <time>2019-08-17T13:59:06Z</time>
      </trkpt>
      <trkpt lat="44.46226" lon="1.10864">
        <ele>222.642136</ele>
        <time>2019-08-17T13:59:07Z</time>
      </trkpt>
      <trkpt lat="44.46224" lon="1.10868">
        <ele>222.850937</ele>
        <time>2019-08-17T13:59:08Z</time>
      </trkpt>
      <trkpt lat="44.46223" lon="1.10872">
        <ele>223.066406</ele>
        <time>2019-08-17T13:59:09Z</time>
      </trkpt>
      <trkpt lat="44.46222" lon="1.10876">
        <ele>223.281998</ele>
        <time>2019-08-17T13:59:10Z</time>
      </trkpt>
      <trkpt lat="44.46221" lon="1.1088">
        <ele>223.496323</ele>
        <time>2019-08-17T13:59:11Z</time>
      </trkpt>
      <trkpt lat="44.4622" lon="1.10884">
        <ele>223.710587</ele>
        <time>2019-08-17T13:59:12Z</time>
      </trkpt>
      <trkpt lat="44.46219" lon="1.10888">
        <ele>223.710587</ele>
        <time>2019-08-17T13:59:13Z</time>
      </trkpt>
      <trkpt lat="44.46218" lon="1.10892">
        <ele>223.919754</ele>
        <time>2019-08-17T13:59:14Z</time>
      </trkpt>
      <trkpt lat="44.46217" lon="1.10896">
        <ele>224.127304</ele>
        <time>2019-08-17T13:59:15Z</time>
      </trkpt>
      <trkpt lat="44.46217" lon="1.109">
        <ele>224.127304</ele>
        <time>2019-08-17T13:59:16Z</time>
      </trkpt>
      <trkpt lat="44.46215" lon="1.10904">
        <ele>224.36351</ele>
        <time>2019-08-17T13:59:17Z</time>
      </trkpt>
      <trkpt lat="44.46214" lon="1.10908">
        <ele>224.600296</ele>
        <time>2019-08-17T13:59:18Z</time>
      </trkpt>
      <trkpt lat="44.46214" lon="1.10912">
        <ele>224.905991</ele>
        <time>2019-08-17T13:59:19Z</time>
      </trkpt>
      <trkpt lat="44.46212" lon="1.10915">
        <ele>224.905991</ele>
        <time>2019-08-17T13:59:20Z</time>
      </trkpt>
      <trkpt lat="44.46211" lon="1.10918">
        <ele>225.230301</ele>
        <time>2019-08-17T13:59:21Z</time>
      </trkpt>
      <trkpt lat="44.46209" lon="1.1092">
        <ele>225.576172</ele>
        <time>2019-08-17T13:59:22Z</time>
      </trkpt>
      <trkpt lat="44.46206" lon="1.10921">
        <ele>225.576172</ele>
        <time>2019-08-17T13:59:23Z</time>
      </trkpt>
      <trkpt lat="44.46204" lon="1.10922">
        <ele>225.996933</ele>
        <time>2019-08-17T13:59:24Z</time>
      </trkpt>
      <trkpt lat="44.46201" lon="1.10921">
        <ele>226.407486</ele>
        <time>2019-08-17T13:59:25Z</time>
      </trkpt>
      <trkpt lat="44.46198" lon="1.10921">
        <ele>226.887573</ele>
        <time>2019-08-17T13:59:26Z</time>
      </trkpt>
      <trkpt lat="44.46195" lon="1.1092">
        <ele>227.307053</ele>
        <time>2019-08-17T13:59:27Z</time>
      </trkpt>
      <trkpt lat="44.46193" lon="1.10919">
        <ele>227.70929</ele>
        <time>2019-08-17T13:59:28Z</time>
      </trkpt>
      <trkpt lat="44.4619" lon="1.10918">
        <ele>228.091248</ele>
        <time>2019-08-17T13:59:29Z</time>
      </trkpt>
      <trkpt lat="44.46188" lon="1.10918">
        <ele>228.395508</ele>
        <time>2019-08-17T13:59:30Z</time>
      </trkpt>
      <trkpt lat="44.46185" lon="1.10918">
        <ele>228.667053</ele>
        <time>2019-08-17T13:59:31Z</time>
      </trkpt>
      <trkpt lat="44.46183" lon="1.10919">
        <ele>228.859024</ele>
        <time>2019-08-17T13:59:32Z</time>
      </trkpt>
      <trkpt lat="44.46182" lon="1.10921">
        <ele>229.037109</ele>
        <time>2019-08-17T13:59:33Z</time>
      </trkpt>
      <trkpt lat="44.46182" lon="1.10923">
        <ele>229.211746</ele>
        <time>2019-08-17T13:59:34Z</time>
      </trkpt>
      <trkpt lat="44.46184" lon="1.10925">
        <ele>229.393921</ele>
        <time>2019-08-17T13:59:35Z</time>
      </trkpt>
      <trkpt lat="44.46187" lon="1.10927">
        <ele>229.590286</ele>
        <time>2019-08-17T13:59:36Z</time>
      </trkpt>
      <trkpt lat="44.46191" lon="1.10927">
        <ele>229.765625</ele>
        <time>2019-08-17T13:59:37Z</time>
      </trkpt>
      <trkpt lat="44.46194" lon="1.10928">
        <ele>229.872375</ele>
        <time>2019-08-17T13:59:38Z</time>
      </trkpt>
      <trkpt lat="44.46198" lon="1.1093">
        <ele>229.917374</ele>
        <time>2019-08-17T13:59:39Z</time>
      </trkpt>
      <trkpt lat="44.46201" lon="1.10931">
        <ele>229.917374</ele>
        <time>2019-08-17T13:59:40Z</time>
      </trkpt>
      <trkpt lat="44.46204" lon="1.10933">
        <ele>229.917374</ele>
        <time>2019-08-17T13:59:41Z</time>
      </trkpt>
      <trkpt lat="44.46208" lon="1.10934">
        <ele>229.895813</ele>
        <time>2019-08-17T13:59:42Z</time>
      </trkpt>
      <trkpt lat="44.46212" lon="1.10935">
        <ele>229.796387</ele>
        <time>2019-08-17T13:59:43Z</time>
      </trkpt>
      <trkpt lat="44.46215" lon="1.10937">
        <ele>229.613266</ele>
        <time>2019-08-17T13:59:44Z</time>
      </trkpt>
      <trkpt lat="44.46219" lon="1.10939">
        <ele>229.38887</ele>
        <time>2019-08-17T13:59:45Z</time>
      </trkpt>
      <trkpt lat="44.46223" lon="1.10941">
        <ele>229.169632</ele>
        <time>2019-08-17T13:59:46Z</time>
      </trkpt>
      <trkpt lat="44.46226" lon="1.10942">
        <ele>228.949387</ele>
        <time>2019-08-17T13:59:47Z</time>
      </trkpt>
      <trkpt lat="44.4623" lon="1.10944">
        <ele>228.949387</ele>
        <time>2019-08-17T13:59:48Z</time>
      </trkpt>
      <trkpt lat="44.46233" lon="1.10945">
        <ele>228.723434</ele>
        <time>2019-08-17T13:59:49Z</time>
      </trkpt>
      <trkpt lat="44.46236" lon="1.10947">
        <ele>228.502548</ele>
        <time>2019-08-17T13:59:50Z</time>
      </trkpt>
      <trkpt lat="44.4624" lon="1.10949">
        <ele>228.243362</ele>
        <time>2019-08-17T13:59:51Z</time>
      </trkpt>
      <trkpt lat="44.46243" lon="1.1095">
        <ele>227.988113</ele>
        <time>2019-08-17T13:59:52Z</time>
      </trkpt>
      <trkpt lat="44.46246" lon="1.10951">
        <ele>227.736694</ele>
        <time>2019-08-17T13:59:53Z</time>
      </trkpt>
      <trkpt lat="44.46249" lon="1.10953">
        <ele>227.487198</ele>
        <time>2019-08-17T13:59:54Z</time>
      </trkpt>
      <trkpt lat="44.46253" lon="1.10955">
        <ele>227.242661</ele>
        <time>2019-08-17T13:59:55Z</time>
      </trkpt>
      <trkpt lat="44.46256" lon="1.10957">
        <ele>226.997391</ele>
        <time>2019-08-17T13:59:56Z</time>
      </trkpt>
      <trkpt lat="44.46259" lon="1.10958">
        <ele>226.796997</ele>
        <time>2019-08-17T13:59:57Z</time>
      </trkpt>
      <trkpt lat="44.46262" lon="1.1096">
        <ele>226.600784</ele>
        <time>2019-08-17T13:59:58Z</time>
      </trkpt>
      <trkpt lat="44.46265" lon="1.10961">
        <ele>226.410355</ele>
        <time>2019-08-17T13:59:59Z</time>
      </trkpt>
      <trkpt lat="44.46269" lon="1.10963">
        <ele>226.220047</ele>
        <time>2019-08-17T14:00:00Z</time>
      </trkpt>
      <trkpt lat="44.46272" lon="1.10964">
        <ele>226.031662</ele>
        <time>2019-08-17T14:00:01Z</time>
      </trkpt>
      <trkpt lat="44.46275" lon="1.10966">
        <ele>225.843674</ele>
        <time>2019-08-17T14:00:02Z</time>
      </trkpt>
      <trkpt lat="44.46278" lon="1.10968">
        <ele>225.655334</ele>
        <time>2019-08-17T14:00:03Z</time>
      </trkpt>
      <trkpt lat="44.46282" lon="1.1097">
        <ele>225.466934</ele>
        <time>2019-08-17T14:00:04Z</time>
      </trkpt>
      <trkpt lat="44.46285" lon="1.10971">
        <ele>225.279724</ele>
        <time>2019-08-17T14:00:05Z</time>
      </trkpt>
      <trkpt lat="44.46288" lon="1.10972">
        <ele>225.094101</ele>
        <time>2019-08-17T14:00:06Z</time>
      </trkpt>
      <trkpt lat="44.46292" lon="1.10973">
        <ele>224.909744</ele>
        <time>2019-08-17T14:00:07Z</time>
      </trkpt>
      <trkpt lat="44.46295" lon="1.10973">
        <ele>224.725449</ele>
        <time>2019-08-17T14:00:08Z</time>
      </trkpt>
      <trkpt lat="44.46299" lon="1.10974">
        <ele>224.534729</ele>
        <time>2019-08-17T14:00:09Z</time>
      </trkpt>
      <trkpt lat="44.46302" lon="1.10975">
        <ele>224.33638</ele>
        <time>2019-08-17T14:00:10Z</time>
      </trkpt>
      <trkpt lat="44.46305" lon="1.10975">
        <ele>224.128769</ele>
        <time>2019-08-17T14:00:11Z</time>
      </trkpt>
      <trkpt lat="44.46309" lon="1.10976">
        <ele>223.91362</ele>
        <time>2019-08-17T14:00:12Z</time>
      </trkpt>
      <trkpt lat="44.46312" lon="1.10976">
        <ele>223.721664</ele>
        <time>2019-08-17T14:00:13Z</time>
      </trkpt>
      <trkpt lat="44.46315" lon="1.10976">
        <ele>223.607346</ele>
        <time>2019-08-17T14:00:14Z</time>
      </trkpt>
      <trkpt lat="44.46318" lon="1.10976">
        <ele>223.574905</ele>
        <time>2019-08-17T14:00:15Z</time>
      </trkpt>
      <trkpt lat="44.46322" lon="1.10975">
        <ele>223.574905</ele>
        <time>2019-08-17T14:00:16Z</time>
      </trkpt>
      <trkpt lat="44.46325" lon="1.10975">
        <ele>223.574905</ele>
        <time>2019-08-17T14:00:17Z</time>
      </trkpt>
      <trkpt lat="44.46328" lon="1.10975">
        <ele>223.627136</ele>
        <time>2019-08-17T14:00:18Z</time>
      </trkpt>
      <trkpt lat="44.46332" lon="1.10974">
        <ele>223.757004</ele>
        <time>2019-08-17T14:00:19Z</time>
      </trkpt>
      <trkpt lat="44.46336" lon="1.10974">
        <ele>223.966202</ele>
        <time>2019-08-17T14:00:20Z</time>
      </trkpt>
      <trkpt lat="44.46339" lon="1.10975">
        <ele>224.221115</ele>
        <time>2019-08-17T14:00:21Z</time>
      </trkpt>
      <trkpt lat="44.46342" lon="1.10974">
        <ele>224.470718</ele>
        <time>2019-08-17T14:00:22Z</time>
      </trkpt>
      <trkpt lat="44.46345" lon="1.10974">
        <ele>224.722183</ele>
        <time>2019-08-17T14:00:23Z</time>
      </trkpt>
      <trkpt lat="44.46349" lon="1.10974">
        <ele>224.974014</ele>
        <time>2019-08-17T14:00:24Z</time>
      </trkpt>
      <trkpt lat="44.46352" lon="1.10974">
        <ele>225.224976</ele>
        <time>2019-08-17T14:00:25Z</time>
      </trkpt>
      <trkpt lat="44.46355" lon="1.10974">
        <ele>225.46875</ele>
        <time>2019-08-17T14:00:26Z</time>
      </trkpt>
      <trkpt lat="44.46359" lon="1.10973">
        <ele>225.713913</ele>
        <time>2019-08-17T14:00:27Z</time>
      </trkpt>
      <trkpt lat="44.46362" lon="1.10973">
        <ele>225.961807</ele>
        <time>2019-08-17T14:00:28Z</time>
      </trkpt>
      <trkpt lat="44.46365" lon="1.10973">
        <ele>226.204727</ele>
        <time>2019-08-17T14:00:29Z</time>
      </trkpt>
      <trkpt lat="44.46369" lon="1.10973">
        <ele>226.439209</ele>
        <time>2019-08-17T14:00:30Z</time>
      </trkpt>
      <trkpt lat="44.46372" lon="1.10973">
        <ele>226.676315</ele>
        <time>2019-08-17T14:00:31Z</time>
      </trkpt>
      <trkpt lat="44.46376" lon="1.10973">
        <ele>226.924606</ele>
        <time>2019-08-17T14:00:32Z</time>
      </trkpt>
      <trkpt lat="44.46379" lon="1.10973">
        <ele>227.177902</ele>
        <time>2019-08-17T14:00:33Z</time>
      </trkpt>
      <trkpt lat="44.46382" lon="1.10973">
        <ele>227.177902</ele>
        <time>2019-08-17T14:00:34Z</time>
      </trkpt>
      <trkpt lat="44.46386" lon="1.10973">
        <ele>227.430649</ele>
        <time>2019-08-17T14:00:35Z</time>
      </trkpt>
      <trkpt lat="44.46389" lon="1.10973">
        <ele>227.702225</ele>
        <time>2019-08-17T14:00:36Z</time>
      </trkpt>
      <trkpt lat="44.46392" lon="1.10972">
        <ele>228.060043</ele>
        <time>2019-08-17T14:00:37Z</time>
      </trkpt>
      <trkpt lat="44.46396" lon="1.10972">
        <ele>228.439316</ele>
        <time>2019-08-17T14:00:38Z</time>
      </trkpt>
      <trkpt lat="44.46399" lon="1.10972">
        <ele>228.841202</ele>
        <time>2019-08-17T14:00:39Z</time>
      </trkpt>
      <trkpt lat="44.46402" lon="1.10971">
        <ele>229.259842</ele>
        <time>2019-08-17T14:00:40Z</time>
      </trkpt>
      <trkpt lat="44.46406" lon="1.10971">
        <ele>229.694336</ele>
        <time>2019-08-17T14:00:41Z</time>
      </trkpt>
      <trkpt lat="44.46409" lon="1.10971">
        <ele>230.128342</ele>
        <time>2019-08-17T14:00:42Z</time>
      </trkpt>
      <trkpt lat="44.46412" lon="1.1097">
        <ele>230.494629</ele>
        <time>2019-08-17T14:00:43Z</time>
      </trkpt>
      <trkpt lat="44.46415" lon="1.1097">
        <ele>230.854736</ele>
        <time>2019-08-17T14:00:44Z</time>
      </trkpt>
      <trkpt lat="44.46419" lon="1.1097">
        <ele>231.206131</ele>
        <time>2019-08-17T14:00:45Z</time>
      </trkpt>
      <trkpt lat="44.46423" lon="1.1097">
        <ele>231.554031</ele>
        <time>2019-08-17T14:00:46Z</time>
      </trkpt>
      <trkpt lat="44.46426" lon="1.10969">
        <ele>231.899338</ele>
        <time>2019-08-17T14:00:47Z</time>
      </trkpt>
      <trkpt lat="44.46429" lon="1.10969">
        <ele>232.247879</ele>
        <time>2019-08-17T14:00:48Z</time>
      </trkpt>
      <trkpt lat="44.46433" lon="1.10968">
        <ele>232.605148</ele>
        <time>2019-08-17T14:00:49Z</time>
      </trkpt>
      <trkpt lat="44.46436" lon="1.10968">
        <ele>232.965332</ele>
        <time>2019-08-17T14:00:50Z</time>
      </trkpt>
      <trkpt lat="44.46439" lon="1.10967">
        <ele>233.328537</ele>
        <time>2019-08-17T14:00:51Z</time>
      </trkpt>
      <trkpt lat="44.46443" lon="1.10968">
        <ele>233.683838</ele>
        <time>2019-08-17T14:00:52Z</time>
      </trkpt>
      <trkpt lat="44.46446" lon="1.10969">
        <ele>234.038895</ele>
        <time>2019-08-17T14:00:53Z</time>
      </trkpt>
      <trkpt lat="44.46449" lon="1.10972">
        <ele>234.40007</ele>
        <time>2019-08-17T14:00:54Z</time>
      </trkpt>
      <trkpt lat="44.46452" lon="1.10975">
        <ele>234.772705</ele>
        <time>2019-08-17T14:00:55Z</time>
      </trkpt>
      <trkpt lat="44.46454" lon="1.10978">
        <ele>235.170975</ele>
        <time>2019-08-17T14:00:56Z</time>
      </trkpt>
      <trkpt lat="44.46457" lon="1.10982">
        <ele>235.170975</ele>
        <time>2019-08-17T14:00:57Z</time>
      </trkpt>
      <trkpt lat="44.46458" lon="1.10985">
        <ele>235.605057</ele>
        <time>2019-08-17T14:00:58Z</time>
      </trkpt>
      <trkpt lat="44.46461" lon="1.10989">
        <ele>236.089706</ele>
        <time>2019-08-17T14:00:59Z</time>
      </trkpt>
      <trkpt lat="44.46463" lon="1.10993">
        <ele>236.089706</ele>
        <time>2019-08-17T14:01:00Z</time>
      </trkpt>
      <trkpt lat="44.46465" lon="1.10997">
        <ele>236.713989</ele>
        <time>2019-08-17T14:01:01Z</time>
      </trkpt>
      <trkpt lat="44.46467" lon="1.11001">
        <ele>237.361465</ele>
        <time>2019-08-17T14:01:02Z</time>
      </trkpt>
      <trkpt lat="44.46469" lon="1.11004">
        <ele>238.122864</ele>
        <time>2019-08-17T14:01:03Z</time>
      </trkpt>
      <trkpt lat="44.46471" lon="1.11008">
        <ele>238.895447</ele>
        <time>2019-08-17T14:01:04Z</time>
      </trkpt>
      <trkpt lat="44.46474" lon="1.11011">
        <ele>239.664963</ele>
        <time>2019-08-17T14:01:05Z</time>
      </trkpt>
      <trkpt lat="44.46476" lon="1.11015">
        <ele>240.424332</ele>
        <time>2019-08-17T14:01:06Z</time>
      </trkpt>
      <trkpt lat="44.46478" lon="1.11018">
        <ele>241.078629</ele>
        <time>2019-08-17T14:01:07Z</time>
      </trkpt>
      <trkpt lat="44.4648" lon="1.11022">
        <ele>241.730164</ele>
        <time>2019-08-17T14:01:08Z</time>
      </trkpt>
      <trkpt lat="44.46482" lon="1.11026">
        <ele>242.277451</ele>
        <time>2019-08-17T14:01:09Z</time>
      </trkpt>
      <trkpt lat="44.46484" lon="1.1103">
        <ele>242.812973</ele>
        <time>2019-08-17T14:01:10Z</time>
      </trkpt>
      <trkpt lat="44.46487" lon="1.11034">
        <ele>243.336777</ele>
        <time>2019-08-17T14:01:11Z</time>
      </trkpt>
      <trkpt lat="44.46489" lon="1.11038">
        <ele>243.858704</ele>
        <time>2019-08-17T14:01:12Z</time>
      </trkpt>
      <trkpt lat="44.46492" lon="1.11041">
        <ele>244.376053</ele>
        <time>2019-08-17T14:01:13Z</time>
      </trkpt>
      <trkpt lat="44.46494" lon="1.11045">
        <ele>244.87471</ele>
        <time>2019-08-17T14:01:14Z</time>
      </trkpt>
      <trkpt lat="44.46496" lon="1.1105">
        <ele>245.352844</ele>
        <time>2019-08-17T14:01:15Z</time>
      </trkpt>
      <trkpt lat="44.46498" lon="1.11055">
        <ele>245.807617</ele>
        <time>2019-08-17T14:01:16Z</time>
      </trkpt>
      <trkpt lat="44.46499" lon="1.1106">
        <ele>246.240921</ele>
        <time>2019-08-17T14:01:17Z</time>
      </trkpt>
      <trkpt lat="44.46499" lon="1.11066">
        <ele>246.639572</ele>
        <time>2019-08-17T14:01:18Z</time>
      </trkpt>
      <trkpt lat="44.465" lon="1.11071">
        <ele>247.003052</ele>
        <time>2019-08-17T14:01:19Z</time>
      </trkpt>
      <trkpt lat="44.46499" lon="1.11077">
        <ele>247.344345</ele>
        <time>2019-08-17T14:01:20Z</time>
      </trkpt>
      <trkpt lat="44.46499" lon="1.11084">
        <ele>247.660049</ele>
        <time>2019-08-17T14:01:21Z</time>
      </trkpt>
      <trkpt lat="44.46499" lon="1.1109">
        <ele>247.954086</ele>
        <time>2019-08-17T14:01:22Z</time>
      </trkpt>
      <trkpt lat="44.46499" lon="1.11096">
        <ele>248.222168</ele>
        <time>2019-08-17T14:01:23Z</time>
      </trkpt>
      <trkpt lat="44.46499" lon="1.11103">
        <ele>248.222168</ele>
        <time>2019-08-17T14:01:24Z</time>
      </trkpt>
      <trkpt lat="44.46498" lon="1.1111">
        <ele>248.475021</ele>
        <time>2019-08-17T14:01:25Z</time>
      </trkpt>
      <trkpt lat="44.46498" lon="1.11118">
        <ele>248.715897</ele>
        <time>2019-08-17T14:01:26Z</time>
      </trkpt>
      <trkpt lat="44.46498" lon="1.11125">
        <ele>248.993271</ele>
        <time>2019-08-17T14:01:27Z</time>
      </trkpt>
      <trkpt lat="44.46497" lon="1.11133">
        <ele>249.272949</ele>
        <time>2019-08-17T14:01:28Z</time>
      </trkpt>
      <trkpt lat="44.46497" lon="1.11141">
        <ele>249.557251</ele>
        <time>2019-08-17T14:01:29Z</time>
      </trkpt>
      <trkpt lat="44.46497" lon="1.11149">
        <ele>249.851486</ele>
        <time>2019-08-17T14:01:30Z</time>
      </trkpt>
      <trkpt lat="44.46497" lon="1.11156">
        <ele>250.155167</ele>
        <time>2019-08-17T14:01:31Z</time>
      </trkpt>
      <trkpt lat="44.46497" lon="1.11164">
        <ele>250.46785</ele>
        <time>2019-08-17T14:01:32Z</time>
      </trkpt>
      <trkpt lat="44.46497" lon="1.11171">
        <ele>250.746582</ele>
        <time>2019-08-17T14:01:33Z</time>
      </trkpt>
      <trkpt lat="44.46497" lon="1.11179">
        <ele>251.031113</ele>
        <time>2019-08-17T14:01:34Z</time>
      </trkpt>
      <trkpt lat="44.46498" lon="1.11186">
        <ele>251.319901</ele>
        <time>2019-08-17T14:01:35Z</time>
      </trkpt>
      <trkpt lat="44.46498" lon="1.11193">
        <ele>251.591064</ele>
        <time>2019-08-17T14:01:36Z</time>
      </trkpt>
      <trkpt lat="44.46499" lon="1.112">
        <ele>251.819092</ele>
        <time>2019-08-17T14:01:37Z</time>
      </trkpt>
      <trkpt lat="44.465" lon="1.11208">
        <ele>252.004822</ele>
        <time>2019-08-17T14:01:38Z</time>
      </trkpt>
      <trkpt lat="44.46501" lon="1.11215">
        <ele>252.004822</ele>
        <time>2019-08-17T14:01:39Z</time>
      </trkpt>
      <trkpt lat="44.46503" lon="1.11222">
        <ele>252.144714</ele>
        <time>2019-08-17T14:01:40Z</time>
      </trkpt>
      <trkpt lat="44.46506" lon="1.11229">
        <ele>252.228394</ele>
        <time>2019-08-17T14:01:41Z</time>
      </trkpt>
      <trkpt lat="44.46509" lon="1.11236">
        <ele>252.249222</ele>
        <time>2019-08-17T14:01:42Z</time>
      </trkpt>
      <trkpt lat="44.46513" lon="1.11242">
        <ele>252.249222</ele>
        <time>2019-08-17T14:01:43Z</time>
      </trkpt>
      <trkpt lat="44.46517" lon="1.11249">
        <ele>252.249222</ele>
        <time>2019-08-17T14:01:44Z</time>
      </trkpt>
      <trkpt lat="44.46521" lon="1.11256">
        <ele>252.249222</ele>
        <time>2019-08-17T14:01:45Z</time>
      </trkpt>
      <trkpt lat="44.46525" lon="1.11264">
        <ele>252.221481</ele>
        <time>2019-08-17T14:01:46Z</time>
      </trkpt>
      <trkpt lat="44.46529" lon="1.11271">
        <ele>252.074234</ele>
        <time>2019-08-17T14:01:47Z</time>
      </trkpt>
      <trkpt lat="44.46534" lon="1.11278">
        <ele>251.858582</ele>
        <time>2019-08-17T14:01:48Z</time>
      </trkpt>
      <trkpt lat="44.46537" lon="1.11286">
        <ele>251.858582</ele>
        <time>2019-08-17T14:01:49Z</time>
      </trkpt>
      <trkpt lat="44.46539" lon="1.11295">
        <ele>251.575119</ele>
        <time>2019-08-17T14:01:50Z</time>
      </trkpt>
      <trkpt lat="44.4654" lon="1.11304">
        <ele>251.240433</ele>
        <time>2019-08-17T14:01:51Z</time>
      </trkpt>
      <trkpt lat="44.4654" lon="1.11314">
        <ele>250.819031</ele>
        <time>2019-08-17T14:01:52Z</time>
      </trkpt>
      <trkpt lat="44.46539" lon="1.11323">
        <ele>250.819031</ele>
        <time>2019-08-17T14:01:53Z</time>
      </trkpt>
      <trkpt lat="44.46539" lon="1.11332">
        <ele>250.381699</ele>
        <time>2019-08-17T14:01:54Z</time>
      </trkpt>
      <trkpt lat="44.46537" lon="1.11342">
        <ele>250.035324</ele>
        <time>2019-08-17T14:01:55Z</time>
      </trkpt>
      <trkpt lat="44.46536" lon="1.11351">
        <ele>250.035324</ele>
        <time>2019-08-17T14:01:56Z</time>
      </trkpt>
      <trkpt lat="44.46534" lon="1.1136">
        <ele>249.661484</ele>
        <time>2019-08-17T14:01:57Z</time>
      </trkpt>
      <trkpt lat="44.46532" lon="1.11368">
        <ele>249.30957</ele>
        <time>2019-08-17T14:01:58Z</time>
      </trkpt>
      <trkpt lat="44.4653" lon="1.11376">
        <ele>249.30957</ele>
        <time>2019-08-17T14:01:59Z</time>
      </trkpt>
      <trkpt lat="44.46529" lon="1.11383">
        <ele>248.941467</ele>
        <time>2019-08-17T14:02:00Z</time>
      </trkpt>
      <trkpt lat="44.46529" lon="1.11388">
        <ele>248.635071</ele>
        <time>2019-08-17T14:02:01Z</time>
      </trkpt>
      <trkpt lat="44.4653" lon="1.11394">
        <ele>248.284363</ele>
        <time>2019-08-17T14:02:02Z</time>
      </trkpt>
      <trkpt lat="44.46532" lon="1.11399">
        <ele>248.284363</ele>
        <time>2019-08-17T14:02:03Z</time>
      </trkpt>
      <trkpt lat="44.46535" lon="1.11403">
        <ele>247.905197</ele>
        <time>2019-08-17T14:02:04Z</time>
      </trkpt>
      <trkpt lat="44.46539" lon="1.11406">
        <ele>247.569107</ele>
        <time>2019-08-17T14:02:05Z</time>
      </trkpt>
      <trkpt lat="44.46543" lon="1.1141">
        <ele>247.176834</ele>
        <time>2019-08-17T14:02:06Z</time>
      </trkpt>
      <trkpt lat="44.46548" lon="1.11412">
        <ele>246.818985</ele>
        <time>2019-08-17T14:02:07Z</time>
      </trkpt>
      <trkpt lat="44.46552" lon="1.11415">
        <ele>246.818985</ele>
        <time>2019-08-17T14:02:08Z</time>
      </trkpt>
      <trkpt lat="44.46557" lon="1.11417">
        <ele>246.463333</ele>
        <time>2019-08-17T14:02:09Z</time>
      </trkpt>
      <trkpt lat="44.4656" lon="1.11419">
        <ele>246.15387</ele>
        <time>2019-08-17T14:02:10Z</time>
      </trkpt>
      <trkpt lat="44.46565" lon="1.11421">
        <ele>245.83876</ele>
        <time>2019-08-17T14:02:11Z</time>
      </trkpt>
      <trkpt lat="44.46569" lon="1.11423">
        <ele>245.548843</ele>
        <time>2019-08-17T14:02:12Z</time>
      </trkpt>
      <trkpt lat="44.46574" lon="1.11425">
        <ele>245.335632</ele>
        <time>2019-08-17T14:02:13Z</time>
      </trkpt>
      <trkpt lat="44.46579" lon="1.11427">
        <ele>245.143845</ele>
        <time>2019-08-17T14:02:14Z</time>
      </trkpt>
      <trkpt lat="44.46584" lon="1.11429">
        <ele>244.971558</ele>
        <time>2019-08-17T14:02:15Z</time>
      </trkpt>
      <trkpt lat="44.46588" lon="1.1143">
        <ele>244.818314</ele>
        <time>2019-08-17T14:02:16Z</time>
      </trkpt>
      <trkpt lat="44.46593" lon="1.1143">
        <ele>244.72644</ele>
        <time>2019-08-17T14:02:17Z</time>
      </trkpt>
      <trkpt lat="44.46598" lon="1.11432">
        <ele>244.6707</ele>
        <time>2019-08-17T14:02:18Z</time>
      </trkpt>
      <trkpt lat="44.46602" lon="1.11433">
        <ele>244.648117</ele>
        <time>2019-08-17T14:02:19Z</time>
      </trkpt>
      <trkpt lat="44.46606" lon="1.11435">
        <ele>244.648117</ele>
        <time>2019-08-17T14:02:20Z</time>
      </trkpt>
      <trkpt lat="44.46611" lon="1.11436">
        <ele>244.648117</ele>
        <time>2019-08-17T14:02:21Z</time>
      </trkpt>
      <trkpt lat="44.46615" lon="1.11438">
        <ele>244.658249</ele>
        <time>2019-08-17T14:02:22Z</time>
      </trkpt>
      <trkpt lat="44.46619" lon="1.1144">
        <ele>244.700668</ele>
        <time>2019-08-17T14:02:23Z</time>
      </trkpt>
      <trkpt lat="44.46624" lon="1.11442">
        <ele>244.773849</ele>
        <time>2019-08-17T14:02:24Z</time>
      </trkpt>
      <trkpt lat="44.46628" lon="1.11444">
        <ele>244.858276</ele>
        <time>2019-08-17T14:02:25Z</time>
      </trkpt>
      <trkpt lat="44.46632" lon="1.11445">
        <ele>244.946457</ele>
        <time>2019-08-17T14:02:26Z</time>
      </trkpt>
      <trkpt lat="44.46636" lon="1.11447">
        <ele>245.041946</ele>
        <time>2019-08-17T14:02:27Z</time>
      </trkpt>
      <trkpt lat="44.4664" lon="1.11448">
        <ele>245.138306</ele>
        <time>2019-08-17T14:02:28Z</time>
      </trkpt>
      <trkpt lat="44.46644" lon="1.1145">
        <ele>245.22876</ele>
        <time>2019-08-17T14:02:29Z</time>
      </trkpt>
      <trkpt lat="44.46648" lon="1.11451">
        <ele>245.312302</ele>
        <time>2019-08-17T14:02:30Z</time>
      </trkpt>
      <trkpt lat="44.46652" lon="1.11452">
        <ele>245.388474</ele>
        <time>2019-08-17T14:02:31Z</time>
      </trkpt>
      <trkpt lat="44.46656" lon="1.11454">
        <ele>245.454269</ele>
        <time>2019-08-17T14:02:32Z</time>
      </trkpt>
      <trkpt lat="44.4666" lon="1.11455">
        <ele>245.509094</ele>
        <time>2019-08-17T14:02:33Z</time>
      </trkpt>
      <trkpt lat="44.46663" lon="1.11457">
        <ele>245.509094</ele>
        <time>2019-08-17T14:02:34Z</time>
      </trkpt>
      <trkpt lat="44.46667" lon="1.11458">
        <ele>245.562256</ele>
        <time>2019-08-17T14:02:35Z</time>
      </trkpt>
      <trkpt lat="44.46671" lon="1.11459">
        <ele>245.616409</ele>
        <time>2019-08-17T14:02:36Z</time>
      </trkpt>
      <trkpt lat="44.46674" lon="1.1146">
        <ele>245.683914</ele>
        <time>2019-08-17T14:02:37Z</time>
      </trkpt>
      <trkpt lat="44.46677" lon="1.1146">
        <ele>245.755051</ele>
        <time>2019-08-17T14:02:38Z</time>
      </trkpt>
      <trkpt lat="44.46681" lon="1.1146">
        <ele>245.830978</ele>
        <time>2019-08-17T14:02:39Z</time>
      </trkpt>
      <trkpt lat="44.46685" lon="1.11461">
        <ele>245.911179</ele>
        <time>2019-08-17T14:02:40Z</time>
      </trkpt>
      <trkpt lat="44.46689" lon="1.11461">
        <ele>245.99614</ele>
        <time>2019-08-17T14:02:41Z</time>
      </trkpt>
      <trkpt lat="44.46692" lon="1.11462">
        <ele>246.0896</ele>
        <time>2019-08-17T14:02:42Z</time>
      </trkpt>
      <trkpt lat="44.46696" lon="1.11463">
        <ele>246.179764</ele>
        <time>2019-08-17T14:02:43Z</time>
      </trkpt>
      <trkpt lat="44.467" lon="1.11463">
        <ele>246.274918</ele>
        <time>2019-08-17T14:02:44Z</time>
      </trkpt>
      <trkpt lat="44.46703" lon="1.11464">
        <ele>246.37532</ele>
        <time>2019-08-17T14:02:45Z</time>
      </trkpt>
      <trkpt lat="44.46707" lon="1.11465">
        <ele>246.477661</ele>
        <time>2019-08-17T14:02:46Z</time>
      </trkpt>
      <trkpt lat="44.46711" lon="1.11465">
        <ele>246.579758</ele>
        <time>2019-08-17T14:02:47Z</time>
      </trkpt>
      <trkpt lat="44.46715" lon="1.11466">
        <ele>246.682693</ele>
        <time>2019-08-17T14:02:48Z</time>
      </trkpt>
      <trkpt lat="44.46719" lon="1.11467">
        <ele>246.783646</ele>
        <time>2019-08-17T14:02:49Z</time>
      </trkpt>
      <trkpt lat="44.46722" lon="1.11468">
        <ele>246.885574</ele>
        <time>2019-08-17T14:02:50Z</time>
      </trkpt>
      <trkpt lat="44.46726" lon="1.11468">
        <ele>246.989822</ele>
        <time>2019-08-17T14:02:51Z</time>
      </trkpt>
      <trkpt lat="44.4673" lon="1.11469">
        <ele>247.103989</ele>
        <time>2019-08-17T14:02:52Z</time>
      </trkpt>
      <trkpt lat="44.46734" lon="1.1147">
        <ele>247.231033</ele>
        <time>2019-08-17T14:02:53Z</time>
      </trkpt>
      <trkpt lat="44.46738" lon="1.1147">
        <ele>247.369751</ele>
        <time>2019-08-17T14:02:54Z</time>
      </trkpt>
      <trkpt lat="44.46741" lon="1.11472">
        <ele>247.369751</ele>
        <time>2019-08-17T14:02:55Z</time>
      </trkpt>
      <trkpt lat="44.46745" lon="1.11473">
        <ele>247.523849</ele>
        <time>2019-08-17T14:02:56Z</time>
      </trkpt>
      <trkpt lat="44.46749" lon="1.11474">
        <ele>247.689102</ele>
        <time>2019-08-17T14:02:57Z</time>
      </trkpt>
      <trkpt lat="44.46753" lon="1.11475">
        <ele>247.886719</ele>
        <time>2019-08-17T14:02:58Z</time>
      </trkpt>
      <trkpt lat="44.46757" lon="1.11476">
        <ele>248.083984</ele>
        <time>2019-08-17T14:02:59Z</time>
      </trkpt>
      <trkpt lat="44.46761" lon="1.11477">
        <ele>248.281357</ele>
        <time>2019-08-17T14:03:00Z</time>
      </trkpt>
      <trkpt lat="44.46765" lon="1.11478">
        <ele>248.476929</ele>
        <time>2019-08-17T14:03:01Z</time>
      </trkpt>
      <trkpt lat="44.46769" lon="1.11479">
        <ele>248.667435</ele>
        <time>2019-08-17T14:03:02Z</time>
      </trkpt>
      <trkpt lat="44.46772" lon="1.11481">
        <ele>248.856522</ele>
        <time>2019-08-17T14:03:03Z</time>
      </trkpt>
      <trkpt lat="44.46776" lon="1.11482">
        <ele>249.020065</ele>
        <time>2019-08-17T14:03:04Z</time>
      </trkpt>
      <trkpt lat="44.4678" lon="1.11483">
        <ele>249.184082</ele>
        <time>2019-08-17T14:03:05Z</time>
      </trkpt>
      <trkpt lat="44.46784" lon="1.11484">
        <ele>249.34137</ele>
        <time>2019-08-17T14:03:06Z</time>
      </trkpt>
      <trkpt lat="44.46788" lon="1.11486">
        <ele>249.492844</ele>
        <time>2019-08-17T14:03:07Z</time>
      </trkpt>
      <trkpt lat="44.46792" lon="1.11487">
        <ele>249.642944</ele>
        <time>2019-08-17T14:03:08Z</time>
      </trkpt>
      <trkpt lat="44.46796" lon="1.11488">
        <ele>249.787064</ele>
        <time>2019-08-17T14:03:09Z</time>
      </trkpt>
      <trkpt lat="44.468" lon="1.1149">
        <ele>249.923203</ele>
        <time>2019-08-17T14:03:10Z</time>
      </trkpt>
      <trkpt lat="44.46804" lon="1.11491">
        <ele>250.050766</ele>
        <time>2019-08-17T14:03:11Z</time>
      </trkpt>
      <trkpt lat="44.46808" lon="1.11492">
        <ele>250.170761</ele>
        <time>2019-08-17T14:03:12Z</time>
      </trkpt>
      <trkpt lat="44.46811" lon="1.11493">
        <ele>250.28302</ele>
        <time>2019-08-17T14:03:13Z</time>
      </trkpt>
      <trkpt lat="44.46815" lon="1.11495">
        <ele>250.385605</ele>
        <time>2019-08-17T14:03:14Z</time>
      </trkpt>
      <trkpt lat="44.46819" lon="1.11496">
        <ele>250.477402</ele>
        <time>2019-08-17T14:03:15Z</time>
      </trkpt>
      <trkpt lat="44.46823" lon="1.11497">
        <ele>250.563965</ele>
        <time>2019-08-17T14:03:16Z</time>
      </trkpt>
      <trkpt lat="44.46827" lon="1.11497">
        <ele>250.644409</ele>
        <time>2019-08-17T14:03:17Z</time>
      </trkpt>
      <trkpt lat="44.46831" lon="1.11498">
        <ele>250.722122</ele>
        <time>2019-08-17T14:03:18Z</time>
      </trkpt>
      <trkpt lat="44.46835" lon="1.11499">
        <ele>250.800293</ele>
        <time>2019-08-17T14:03:19Z</time>
      </trkpt>
      <trkpt lat="44.4684" lon="1.11499">
        <ele>250.882401</ele>
        <time>2019-08-17T14:03:20Z</time>
      </trkpt>
      <trkpt lat="44.46843" lon="1.11499">
        <ele>250.969681</ele>
        <time>2019-08-17T14:03:21Z</time>
      </trkpt>
      <trkpt lat="44.46848" lon="1.115">
        <ele>251.05806</ele>
        <time>2019-08-17T14:03:22Z</time>
      </trkpt>
      <trkpt lat="44.46852" lon="1.115">
        <ele>251.153687</ele>
        <time>2019-08-17T14:03:23Z</time>
      </trkpt>
      <trkpt lat="44.46857" lon="1.115">
        <ele>251.256577</ele>
        <time>2019-08-17T14:03:24Z</time>
      </trkpt>
      <trkpt lat="44.46862" lon="1.115">
        <ele>251.363586</ele>
        <time>2019-08-17T14:03:25Z</time>
      </trkpt>
      <trkpt lat="44.46868" lon="1.11499">
        <ele>251.435287</ele>
        <time>2019-08-17T14:03:26Z</time>
      </trkpt>
      <trkpt lat="44.46874" lon="1.11498">
        <ele>251.470642</ele>
        <time>2019-08-17T14:03:27Z</time>
      </trkpt>
      <trkpt lat="44.4688" lon="1.11496">
        <ele>251.475327</ele>
        <time>2019-08-17T14:03:28Z</time>
      </trkpt>
      <trkpt lat="44.46886" lon="1.11494">
        <ele>251.475327</ele>
        <time>2019-08-17T14:03:29Z</time>
      </trkpt>
      <trkpt lat="44.46893" lon="1.11491">
        <ele>251.475327</ele>
        <time>2019-08-17T14:03:30Z</time>
      </trkpt>
      <trkpt lat="44.46899" lon="1.11488">
        <ele>251.448532</ele>
        <time>2019-08-17T14:03:31Z</time>
      </trkpt>
      <trkpt lat="44.46907" lon="1.11485">
        <ele>251.448532</ele>
        <time>2019-08-17T14:03:32Z</time>
      </trkpt>
      <trkpt lat="44.46914" lon="1.11482">
        <ele>251.392136</ele>
        <time>2019-08-17T14:03:33Z</time>
      </trkpt>
      <trkpt lat="44.46922" lon="1.1148">
        <ele>251.311172</ele>
        <time>2019-08-17T14:03:34Z</time>
      </trkpt>
      <trkpt lat="44.46929" lon="1.11479">
        <ele>251.234253</ele>
        <time>2019-08-17T14:03:35Z</time>
      </trkpt>
      <trkpt lat="44.46938" lon="1.11479">
        <ele>251.164001</ele>
        <time>2019-08-17T14:03:36Z</time>
      </trkpt>
      <trkpt lat="44.46946" lon="1.11479">
        <ele>251.085144</ele>
        <time>2019-08-17T14:03:37Z</time>
      </trkpt>
      <trkpt lat="44.46954" lon="1.1148">
        <ele>250.985886</ele>
        <time>2019-08-17T14:03:38Z</time>
      </trkpt>
      <trkpt lat="44.46962" lon="1.11483">
        <ele>250.847702</ele>
        <time>2019-08-17T14:03:39Z</time>
      </trkpt>
      <trkpt lat="44.4697" lon="1.11485">
        <ele>250.659836</ele>
        <time>2019-08-17T14:03:40Z</time>
      </trkpt>
      <trkpt lat="44.46977" lon="1.11488">
        <ele>250.423401</ele>
        <time>2019-08-17T14:03:41Z</time>
      </trkpt>
      <trkpt lat="44.46984" lon="1.11491">
        <ele>250.135544</ele>
        <time>2019-08-17T14:03:42Z</time>
      </trkpt>
      <trkpt lat="44.46991" lon="1.11494">
        <ele>249.80748</ele>
        <time>2019-08-17T14:03:43Z</time>
      </trkpt>
      <trkpt lat="44.46998" lon="1.11496">
        <ele>249.44838</ele>
        <time>2019-08-17T14:03:44Z</time>
      </trkpt>
      <trkpt lat="44.47004" lon="1.11498">
        <ele>249.07634</ele>
        <time>2019-08-17T14:03:45Z</time>
      </trkpt>
      <trkpt lat="44.4701" lon="1.115">
        <ele>248.701462</ele>
        <time>2019-08-17T14:03:46Z</time>
      </trkpt>
      <trkpt lat="44.47016" lon="1.11502">
        <ele>248.381348</ele>
        <time>2019-08-17T14:03:47Z</time>
      </trkpt>
      <trkpt lat="44.4702" lon="1.11505">
        <ele>248.122803</ele>
        <time>2019-08-17T14:03:48Z</time>
      </trkpt>
      <trkpt lat="44.47025" lon="1.11507">
        <ele>247.927002</ele>
        <time>2019-08-17T14:03:49Z</time>
      </trkpt>
      <trkpt lat="44.4703" lon="1.11509">
        <ele>247.927002</ele>
        <time>2019-08-17T14:03:50Z</time>
      </trkpt>
      <trkpt lat="44.47034" lon="1.1151">
        <ele>247.79541</ele>
        <time>2019-08-17T14:03:51Z</time>
      </trkpt>
      <trkpt lat="44.47038" lon="1.11512">
        <ele>247.722366</ele>
        <time>2019-08-17T14:03:52Z</time>
      </trkpt>
      <trkpt lat="44.47042" lon="1.11513">
        <ele>247.704712</ele>
        <time>2019-08-17T14:03:53Z</time>
      </trkpt>
      <trkpt lat="44.47047" lon="1.11515">
        <ele>247.691772</ele>
        <time>2019-08-17T14:03:54Z</time>
      </trkpt>
      <trkpt lat="44.47051" lon="1.11516">
        <ele>247.681137</ele>
        <time>2019-08-17T14:03:55Z</time>
      </trkpt>
      <trkpt lat="44.47055" lon="1.11518">
        <ele>247.670105</ele>
        <time>2019-08-17T14:03:56Z</time>
      </trkpt>
      <trkpt lat="44.47059" lon="1.1152">
        <ele>247.660522</ele>
        <time>2019-08-17T14:03:57Z</time>
      </trkpt>
      <trkpt lat="44.47062" lon="1.11521">
        <ele>247.652649</ele>
        <time>2019-08-17T14:03:58Z</time>
      </trkpt>
      <trkpt lat="44.47065" lon="1.11523">
        <ele>247.651718</ele>
        <time>2019-08-17T14:03:59Z</time>
      </trkpt>
      <trkpt lat="44.47068" lon="1.11525">
        <ele>247.651718</ele>
        <time>2019-08-17T14:04:00Z</time>
      </trkpt>
      <trkpt lat="44.47072" lon="1.11527">
        <ele>247.653671</ele>
        <time>2019-08-17T14:04:01Z</time>
      </trkpt>
      <trkpt lat="44.47075" lon="1.11529">
        <ele>247.66687</ele>
        <time>2019-08-17T14:04:02Z</time>
      </trkpt>
      <trkpt lat="44.47079" lon="1.11531">
        <ele>247.694107</ele>
        <time>2019-08-17T14:04:03Z</time>
      </trkpt>
      <trkpt lat="44.47082" lon="1.11533">
        <ele>247.740677</ele>
        <time>2019-08-17T14:04:04Z</time>
      </trkpt>
      <trkpt lat="44.47085" lon="1.11535">
        <ele>247.803055</ele>
        <time>2019-08-17T14:04:05Z</time>
      </trkpt>
      <trkpt lat="44.47088" lon="1.11537">
        <ele>247.882996</ele>
        <time>2019-08-17T14:04:06Z</time>
      </trkpt>
      <trkpt lat="44.47091" lon="1.11539">
        <ele>247.974487</ele>
        <time>2019-08-17T14:04:07Z</time>
      </trkpt>
      <trkpt lat="44.47094" lon="1.11541">
        <ele>248.069809</ele>
        <time>2019-08-17T14:04:08Z</time>
      </trkpt>
      <trkpt lat="44.47097" lon="1.11543">
        <ele>248.168396</ele>
        <time>2019-08-17T14:04:09Z</time>
      </trkpt>
      <trkpt lat="44.47099" lon="1.11545">
        <ele>248.168396</ele>
        <time>2019-08-17T14:04:10Z</time>
      </trkpt>
      <trkpt lat="44.47102" lon="1.11547">
        <ele>248.268692</ele>
        <time>2019-08-17T14:04:11Z</time>
      </trkpt>
      <trkpt lat="44.47105" lon="1.11549">
        <ele>248.370239</ele>
        <time>2019-08-17T14:04:12Z</time>
      </trkpt>
      <trkpt lat="44.47108" lon="1.11551">
        <ele>248.485703</ele>
        <time>2019-08-17T14:04:13Z</time>
      </trkpt>
      <trkpt lat="44.47111" lon="1.11553">
        <ele>248.603989</ele>
        <time>2019-08-17T14:04:14Z</time>
      </trkpt>
      <trkpt lat="44.47114" lon="1.11555">
        <ele>248.727417</ele>
        <time>2019-08-17T14:04:15Z</time>
      </trkpt>
      <trkpt lat="44.47116" lon="1.11557">
        <ele>248.855835</ele>
        <time>2019-08-17T14:04:16Z</time>
      </trkpt>
      <trkpt lat="44.47119" lon="1.11558">
        <ele>248.989456</ele>
        <time>2019-08-17T14:04:17Z</time>
      </trkpt>
      <trkpt lat="44.47122" lon="1.1156">
        <ele>249.127319</ele>
        <time>2019-08-17T14:04:18Z</time>
      </trkpt>
      <trkpt lat="44.47124" lon="1.11562">
        <ele>249.254135</ele>
        <time>2019-08-17T14:04:19Z</time>
      </trkpt>
      <trkpt lat="44.47127" lon="1.11564">
        <ele>249.387344</ele>
        <time>2019-08-17T14:04:20Z</time>
      </trkpt>
      <trkpt lat="44.47129" lon="1.11566">
        <ele>249.522995</ele>
        <time>2019-08-17T14:04:21Z</time>
      </trkpt>
      <trkpt lat="44.47132" lon="1.11568">
        <ele>249.656921</ele>
        <time>2019-08-17T14:04:22Z</time>
      </trkpt>
      <trkpt lat="44.47134" lon="1.1157">
        <ele>249.789734</ele>
        <time>2019-08-17T14:04:23Z</time>
      </trkpt>
      <trkpt lat="44.47137" lon="1.11573">
        <ele>249.936539</ele>
        <time>2019-08-17T14:04:24Z</time>
      </trkpt>
      <trkpt lat="44.47139" lon="1.11575">
        <ele>250.123245</ele>
        <time>2019-08-17T14:04:25Z</time>
      </trkpt>
      <trkpt lat="44.47142" lon="1.11577">
        <ele>250.340134</ele>
        <time>2019-08-17T14:04:26Z</time>
      </trkpt>
      <trkpt lat="44.47144" lon="1.1158">
        <ele>250.582687</ele>
        <time>2019-08-17T14:04:27Z</time>
      </trkpt>
      <trkpt lat="44.47146" lon="1.11582">
        <ele>250.855576</ele>
        <time>2019-08-17T14:04:28Z</time>
      </trkpt>
      <trkpt lat="44.47149" lon="1.11585">
        <ele>251.159714</ele>
        <time>2019-08-17T14:04:29Z</time>
      </trkpt>
      <trkpt lat="44.4715" lon="1.11588">
        <ele>251.48291</ele>
        <time>2019-08-17T14:04:30Z</time>
      </trkpt>
      <trkpt lat="44.47153" lon="1.1159">
        <ele>251.798584</ele>
        <time>2019-08-17T14:04:31Z</time>
      </trkpt>
      <trkpt lat="44.47155" lon="1.11593">
        <ele>252.109543</ele>
        <time>2019-08-17T14:04:32Z</time>
      </trkpt>
      <trkpt lat="44.47157" lon="1.11596">
        <ele>252.421555</ele>
        <time>2019-08-17T14:04:33Z</time>
      </trkpt>
      <trkpt lat="44.47159" lon="1.11598">
        <ele>252.737305</ele>
        <time>2019-08-17T14:04:34Z</time>
      </trkpt>
      <trkpt lat="44.47162" lon="1.11601">
        <ele>253.054367</ele>
        <time>2019-08-17T14:04:35Z</time>
      </trkpt>
      <trkpt lat="44.47164" lon="1.11604">
        <ele>253.367874</ele>
        <time>2019-08-17T14:04:36Z</time>
      </trkpt>
      <trkpt lat="44.47166" lon="1.11606">
        <ele>253.681137</ele>
        <time>2019-08-17T14:04:37Z</time>
      </trkpt>
      <trkpt lat="44.47168" lon="1.11608">
        <ele>253.999954</ele>
        <time>2019-08-17T14:04:38Z</time>
      </trkpt>
      <trkpt lat="44.4717" lon="1.1161">
        <ele>254.331543</ele>
        <time>2019-08-17T14:04:39Z</time>
      </trkpt>
      <trkpt lat="44.47173" lon="1.11612">
        <ele>254.668961</ele>
        <time>2019-08-17T14:04:40Z</time>
      </trkpt>
      <trkpt lat="44.47175" lon="1.11615">
        <ele>255.011124</ele>
        <time>2019-08-17T14:04:41Z</time>
      </trkpt>
      <trkpt lat="44.47177" lon="1.11617">
        <ele>255.356857</ele>
        <time>2019-08-17T14:04:42Z</time>
      </trkpt>
      <trkpt lat="44.47179" lon="1.11619">
        <ele>255.356857</ele>
        <time>2019-08-17T14:04:43Z</time>
      </trkpt>
      <trkpt lat="44.47181" lon="1.11622">
        <ele>255.707901</ele>
        <time>2019-08-17T14:04:44Z</time>
      </trkpt>
      <trkpt lat="44.47184" lon="1.11624">
        <ele>256.063202</ele>
        <time>2019-08-17T14:04:45Z</time>
      </trkpt>
      <trkpt lat="44.47186" lon="1.11627">
        <ele>256.484406</ele>
        <time>2019-08-17T14:04:46Z</time>
      </trkpt>
      <trkpt lat="44.47188" lon="1.11629">
        <ele>256.901031</ele>
        <time>2019-08-17T14:04:47Z</time>
      </trkpt>
      <trkpt lat="44.4719" lon="1.11632">
        <ele>257.322754</ele>
        <time>2019-08-17T14:04:48Z</time>
      </trkpt>
      <trkpt lat="44.47192" lon="1.11635">
        <ele>257.755096</ele>
        <time>2019-08-17T14:04:49Z</time>
      </trkpt>
      <trkpt lat="44.47194" lon="1.11637">
        <ele>258.192108</ele>
        <time>2019-08-17T14:04:50Z</time>
      </trkpt>
      <trkpt lat="44.47196" lon="1.1164">
        <ele>258.63504</ele>
        <time>2019-08-17T14:04:51Z</time>
      </trkpt>
      <trkpt lat="44.47199" lon="1.11642">
        <ele>259.009674</ele>
        <time>2019-08-17T14:04:52Z</time>
      </trkpt>
      <trkpt lat="44.472" lon="1.11645">
        <ele>259.393524</ele>
        <time>2019-08-17T14:04:53Z</time>
      </trkpt>
      <trkpt lat="44.47202" lon="1.11648">
        <ele>259.393524</ele>
        <time>2019-08-17T14:04:54Z</time>
      </trkpt>
      <trkpt lat="44.47204" lon="1.11651">
        <ele>260.149139</ele>
        <time>2019-08-17T14:04:55Z</time>
      </trkpt>
      <trkpt lat="44.47206" lon="1.11654">
        <ele>260.149139</ele>
        <time>2019-08-17T14:04:56Z</time>
      </trkpt>
      <trkpt lat="44.47208" lon="1.11658">
        <ele>260.546173</ele>
        <time>2019-08-17T14:04:57Z</time>
      </trkpt>
      <trkpt lat="44.47209" lon="1.11661">
        <ele>260.546173</ele>
        <time>2019-08-17T14:04:58Z</time>
      </trkpt>
      <trkpt lat="44.47211" lon="1.11664">
        <ele>260.877563</ele>
        <time>2019-08-17T14:04:59Z</time>
      </trkpt>
      <trkpt lat="44.47213" lon="1.11668">
        <ele>261.215851</ele>
        <time>2019-08-17T14:05:00Z</time>
      </trkpt>
      <trkpt lat="44.47215" lon="1.11671">
        <ele>261.540649</ele>
        <time>2019-08-17T14:05:01Z</time>
      </trkpt>
      <trkpt lat="44.47216" lon="1.11674">
        <ele>261.831421</ele>
        <time>2019-08-17T14:05:02Z</time>
      </trkpt>
      <trkpt lat="44.47218" lon="1.11678">
        <ele>262.104279</ele>
        <time>2019-08-17T14:05:03Z</time>
      </trkpt>
      <trkpt lat="44.4722" lon="1.11681">
        <ele>262.322205</ele>
        <time>2019-08-17T14:05:04Z</time>
      </trkpt>
      <trkpt lat="44.47222" lon="1.11684">
        <ele>262.574432</ele>
        <time>2019-08-17T14:05:05Z</time>
      </trkpt>
      <trkpt lat="44.47224" lon="1.11688">
        <ele>262.797699</ele>
        <time>2019-08-17T14:05:06Z</time>
      </trkpt>
      <trkpt lat="44.47226" lon="1.11691">
        <ele>263.009125</ele>
        <time>2019-08-17T14:05:07Z</time>
      </trkpt>
      <trkpt lat="44.47228" lon="1.11694">
        <ele>263.228943</ele>
        <time>2019-08-17T14:05:08Z</time>
      </trkpt>
      <trkpt lat="44.4723" lon="1.11697">
        <ele>263.457489</ele>
        <time>2019-08-17T14:05:09Z</time>
      </trkpt>
      <trkpt lat="44.47232" lon="1.117">
        <ele>263.695282</ele>
        <time>2019-08-17T14:05:10Z</time>
      </trkpt>
      <trkpt lat="44.47234" lon="1.11703">
        <ele>263.942352</ele>
        <time>2019-08-17T14:05:11Z</time>
      </trkpt>
      <trkpt lat="44.47235" lon="1.11704">
        <ele>264.194977</ele>
        <time>2019-08-17T14:05:12Z</time>
      </trkpt>
      <trkpt lat="44.47238" lon="1.11704">
        <ele>264.194977</ele>
        <time>2019-08-17T14:05:13Z</time>
      </trkpt>
      <trkpt lat="44.4724" lon="1.11703">
        <ele>264.441559</ele>
        <time>2019-08-17T14:05:14Z</time>
      </trkpt>
      <trkpt lat="44.47242" lon="1.117">
        <ele>264.689209</ele>
        <time>2019-08-17T14:05:15Z</time>
      </trkpt>
      <trkpt lat="44.47244" lon="1.11697">
        <ele>264.99646</ele>
        <time>2019-08-17T14:05:16Z</time>
      </trkpt>
      <trkpt lat="44.47246" lon="1.11693">
        <ele>265.313507</ele>
        <time>2019-08-17T14:05:17Z</time>
      </trkpt>
      <trkpt lat="44.47248" lon="1.11689">
        <ele>265.631622</ele>
        <time>2019-08-17T14:05:18Z</time>
      </trkpt>
      <trkpt lat="44.4725" lon="1.11685">
        <ele>265.947601</ele>
        <time>2019-08-17T14:05:19Z</time>
      </trkpt>
      <trkpt lat="44.47252" lon="1.11681">
        <ele>266.270355</ele>
        <time>2019-08-17T14:05:20Z</time>
      </trkpt>
      <trkpt lat="44.47254" lon="1.11677">
        <ele>266.595703</ele>
        <time>2019-08-17T14:05:21Z</time>
      </trkpt>
      <trkpt lat="44.47257" lon="1.11672">
        <ele>266.857788</ele>
        <time>2019-08-17T14:05:22Z</time>
      </trkpt>
      <trkpt lat="44.47259" lon="1.11668">
        <ele>267.108368</ele>
        <time>2019-08-17T14:05:23Z</time>
      </trkpt>
      <trkpt lat="44.47261" lon="1.11663">
        <ele>267.354523</ele>
        <time>2019-08-17T14:05:24Z</time>
      </trkpt>
      <trkpt lat="44.47264" lon="1.11659">
        <ele>267.354523</ele>
        <time>2019-08-17T14:05:25Z</time>
      </trkpt>
      <trkpt lat="44.47266" lon="1.11655">
        <ele>267.598969</ele>
        <time>2019-08-17T14:05:26Z</time>
      </trkpt>
      <trkpt lat="44.47268" lon="1.1165">
        <ele>267.846588</ele>
        <time>2019-08-17T14:05:27Z</time>
      </trkpt>
      <trkpt lat="44.4727" lon="1.11646">
        <ele>268.133209</ele>
        <time>2019-08-17T14:05:28Z</time>
      </trkpt>
      <trkpt lat="44.47273" lon="1.11642">
        <ele>268.407928</ele>
        <time>2019-08-17T14:05:29Z</time>
      </trkpt>
      <trkpt lat="44.47275" lon="1.1164">
        <ele>268.640778</ele>
        <time>2019-08-17T14:05:30Z</time>
      </trkpt>
      <trkpt lat="44.47278" lon="1.11639">
        <ele>268.837219</ele>
        <time>2019-08-17T14:05:31Z</time>
      </trkpt>
      <trkpt lat="44.47281" lon="1.11641">
        <ele>268.993713</ele>
        <time>2019-08-17T14:05:32Z</time>
      </trkpt>
      <trkpt lat="44.47284" lon="1.11643">
        <ele>269.106934</ele>
        <time>2019-08-17T14:05:33Z</time>
      </trkpt>
      <trkpt lat="44.47287" lon="1.11645">
        <ele>269.156586</ele>
        <time>2019-08-17T14:05:34Z</time>
      </trkpt>
      <trkpt lat="44.4729" lon="1.11648">
        <ele>269.205109</ele>
        <time>2019-08-17T14:05:35Z</time>
      </trkpt>
      <trkpt lat="44.47294" lon="1.11651">
        <ele>269.205109</ele>
        <time>2019-08-17T14:05:36Z</time>
      </trkpt>
      <trkpt lat="44.47297" lon="1.11654">
        <ele>269.286682</ele>
        <time>2019-08-17T14:05:37Z</time>
      </trkpt>
      <trkpt lat="44.473" lon="1.11657">
        <ele>269.401886</ele>
        <time>2019-08-17T14:05:38Z</time>
      </trkpt>
      <trkpt lat="44.47303" lon="1.11661">
        <ele>269.601532</ele>
        <time>2019-08-17T14:05:39Z</time>
      </trkpt>
      <trkpt lat="44.47306" lon="1.11664">
        <ele>269.853302</ele>
        <time>2019-08-17T14:05:40Z</time>
      </trkpt>
      <trkpt lat="44.4731" lon="1.11667">
        <ele>270.146362</ele>
        <time>2019-08-17T14:05:41Z</time>
      </trkpt>
      <trkpt lat="44.47312" lon="1.1167">
        <ele>270.475677</ele>
        <time>2019-08-17T14:05:42Z</time>
      </trkpt>
      <trkpt lat="44.47315" lon="1.11674">
        <ele>270.836243</ele>
        <time>2019-08-17T14:05:43Z</time>
      </trkpt>
      <trkpt lat="44.47318" lon="1.11678">
        <ele>271.225861</ele>
        <time>2019-08-17T14:05:44Z</time>
      </trkpt>
      <trkpt lat="44.47321" lon="1.11682">
        <ele>271.601837</ele>
        <time>2019-08-17T14:05:45Z</time>
      </trkpt>
      <trkpt lat="44.47325" lon="1.11686">
        <ele>272.007019</ele>
        <time>2019-08-17T14:05:46Z</time>
      </trkpt>
      <trkpt lat="44.47329" lon="1.11689">
        <ele>272.449371</ele>
        <time>2019-08-17T14:05:47Z</time>
      </trkpt>
      <trkpt lat="44.47332" lon="1.11693">
        <ele>272.931488</ele>
        <time>2019-08-17T14:05:48Z</time>
      </trkpt>
      <trkpt lat="44.47336" lon="1.11697">
        <ele>273.456482</ele>
        <time>2019-08-17T14:05:49Z</time>
      </trkpt>
      <trkpt lat="44.4734" lon="1.117">
        <ele>274.034363</ele>
        <time>2019-08-17T14:05:50Z</time>
      </trkpt>
      <trkpt lat="44.47344" lon="1.11702">
        <ele>274.656006</ele>
        <time>2019-08-17T14:05:51Z</time>
      </trkpt>
      <trkpt lat="44.47348" lon="1.11704">
        <ele>275.28595</ele>
        <time>2019-08-17T14:05:52Z</time>
      </trkpt>
      <trkpt lat="44.47352" lon="1.11707">
        <ele>275.859833</ele>
        <time>2019-08-17T14:05:53Z</time>
      </trkpt>
      <trkpt lat="44.47356" lon="1.11712">
        <ele>276.36087</ele>
        <time>2019-08-17T14:05:54Z</time>
      </trkpt>
      <trkpt lat="44.47358" lon="1.11716">
        <ele>276.786835</ele>
        <time>2019-08-17T14:05:55Z</time>
      </trkpt>
      <trkpt lat="44.4736" lon="1.11721">
        <ele>277.13443</ele>
        <time>2019-08-17T14:05:56Z</time>
      </trkpt>
      <trkpt lat="44.47361" lon="1.11727">
        <ele>277.429047</ele>
        <time>2019-08-17T14:05:57Z</time>
      </trkpt>
      <trkpt lat="44.47362" lon="1.11732">
        <ele>277.705566</ele>
        <time>2019-08-17T14:05:58Z</time>
      </trkpt>
      <trkpt lat="44.47364" lon="1.11737">
        <ele>278.003082</ele>
        <time>2019-08-17T14:05:59Z</time>
      </trkpt>
      <trkpt lat="44.47366" lon="1.11741">
        <ele>278.333466</ele>
        <time>2019-08-17T14:06:00Z</time>
      </trkpt>
      <trkpt lat="44.47369" lon="1.11745">
        <ele>278.333466</ele>
        <time>2019-08-17T14:06:01Z</time>
      </trkpt>
      <trkpt lat="44.47372" lon="1.11748">
        <ele>278.688293</ele>
        <time>2019-08-17T14:06:02Z</time>
      </trkpt>
      <trkpt lat="44.47376" lon="1.1175">
        <ele>279.047089</ele>
        <time>2019-08-17T14:06:03Z</time>
      </trkpt>
      <trkpt lat="44.4738" lon="1.11752">
        <ele>279.413544</ele>
        <time>2019-08-17T14:06:04Z</time>
      </trkpt>
      <trkpt lat="44.47385" lon="1.11755">
        <ele>279.729401</ele>
        <time>2019-08-17T14:06:05Z</time>
      </trkpt>
      <trkpt lat="44.4739" lon="1.11756">
        <ele>279.995819</ele>
        <time>2019-08-17T14:06:06Z</time>
      </trkpt>
      <trkpt lat="44.47394" lon="1.11758">
        <ele>280.208527</ele>
        <time>2019-08-17T14:06:07Z</time>
      </trkpt>
      <trkpt lat="44.47399" lon="1.1176">
        <ele>280.369659</ele>
        <time>2019-08-17T14:06:08Z</time>
      </trkpt>
      <trkpt lat="44.47404" lon="1.11763">
        <ele>280.487213</ele>
        <time>2019-08-17T14:06:09Z</time>
      </trkpt>
      <trkpt lat="44.47408" lon="1.11766">
        <ele>280.534332</ele>
        <time>2019-08-17T14:06:10Z</time>
      </trkpt>
      <trkpt lat="44.47413" lon="1.11769">
        <ele>280.548126</ele>
        <time>2019-08-17T14:06:11Z</time>
      </trkpt>
      <trkpt lat="44.47416" lon="1.11773">
        <ele>280.548126</ele>
        <time>2019-08-17T14:06:12Z</time>
      </trkpt>
      <trkpt lat="44.4742" lon="1.11778">
        <ele>280.548126</ele>
        <time>2019-08-17T14:06:13Z</time>
      </trkpt>
      <trkpt lat="44.47424" lon="1.11783">
        <ele>280.548431</ele>
        <time>2019-08-17T14:06:14Z</time>
      </trkpt>
      <trkpt lat="44.47427" lon="1.11789">
        <ele>280.555573</ele>
        <time>2019-08-17T14:06:15Z</time>
      </trkpt>
      <trkpt lat="44.4743" lon="1.11795">
        <ele>280.538208</ele>
        <time>2019-08-17T14:06:16Z</time>
      </trkpt>
      <trkpt lat="44.47432" lon="1.11801">
        <ele>280.519196</ele>
        <time>2019-08-17T14:06:17Z</time>
      </trkpt>
      <trkpt lat="44.47435" lon="1.11808">
        <ele>280.494232</ele>
        <time>2019-08-17T14:06:18Z</time>
      </trkpt>
      <trkpt lat="44.47438" lon="1.11814">
        <ele>280.381287</ele>
        <time>2019-08-17T14:06:19Z</time>
      </trkpt>
      <trkpt lat="44.47441" lon="1.1182">
        <ele>280.189789</ele>
        <time>2019-08-17T14:06:20Z</time>
      </trkpt>
      <trkpt lat="44.47444" lon="1.11826">
        <ele>279.912811</ele>
        <time>2019-08-17T14:06:21Z</time>
      </trkpt>
      <trkpt lat="44.47448" lon="1.11831">
        <ele>279.912811</ele>
        <time>2019-08-17T14:06:22Z</time>
      </trkpt>
      <trkpt lat="44.47451" lon="1.11836">
        <ele>279.552948</ele>
        <time>2019-08-17T14:06:23Z</time>
      </trkpt>
      <trkpt lat="44.47455" lon="1.11842">
        <ele>279.11377</ele>
        <time>2019-08-17T14:06:24Z</time>
      </trkpt>
      <trkpt lat="44.47456" lon="1.11848">
        <ele>278.537567</ele>
        <time>2019-08-17T14:06:25Z</time>
      </trkpt>
      <trkpt lat="44.47457" lon="1.11852">
        <ele>277.980377</ele>
        <time>2019-08-17T14:06:26Z</time>
      </trkpt>
      <trkpt lat="44.47457" lon="1.11856">
        <ele>277.442383</ele>
        <time>2019-08-17T14:06:27Z</time>
      </trkpt>
      <trkpt lat="44.47458" lon="1.11859">
        <ele>276.937408</ele>
        <time>2019-08-17T14:06:28Z</time>
      </trkpt>
      <trkpt lat="44.47459" lon="1.11862">
        <ele>276.477509</ele>
        <time>2019-08-17T14:06:29Z</time>
      </trkpt>
      <trkpt lat="44.47463" lon="1.11864">
        <ele>276.050385</ele>
        <time>2019-08-17T14:06:30Z</time>
      </trkpt>
      <trkpt lat="44.47466" lon="1.11866">
        <ele>275.713226</ele>
        <time>2019-08-17T14:06:31Z</time>
      </trkpt>
      <trkpt lat="44.47471" lon="1.11868">
        <ele>275.395905</ele>
        <time>2019-08-17T14:06:32Z</time>
      </trkpt>
      <trkpt lat="44.47476" lon="1.11871">
        <ele>275.100952</ele>
        <time>2019-08-17T14:06:33Z</time>
      </trkpt>
      <trkpt lat="44.47482" lon="1.11875">
        <ele>274.814301</ele>
        <time>2019-08-17T14:06:34Z</time>
      </trkpt>
      <trkpt lat="44.47488" lon="1.11879">
        <ele>274.523163</ele>
        <time>2019-08-17T14:06:35Z</time>
      </trkpt>
      <trkpt lat="44.47495" lon="1.11885">
        <ele>274.523163</ele>
        <time>2019-08-17T14:06:36Z</time>
      </trkpt>
      <trkpt lat="44.47501" lon="1.11892">
        <ele>274.175751</ele>
        <time>2019-08-17T14:06:37Z</time>
      </trkpt>
      <trkpt lat="44.47508" lon="1.11899">
        <ele>273.767853</ele>
        <time>2019-08-17T14:06:38Z</time>
      </trkpt>
      <trkpt lat="44.47514" lon="1.11909">
        <ele>273.167847</ele>
        <time>2019-08-17T14:06:39Z</time>
      </trkpt>
      <trkpt lat="44.47521" lon="1.11919">
        <ele>273.167847</ele>
        <time>2019-08-17T14:06:40Z</time>
      </trkpt>
      <trkpt lat="44.47527" lon="1.11929">
        <ele>272.503143</ele>
        <time>2019-08-17T14:06:41Z</time>
      </trkpt>
      <trkpt lat="44.47533" lon="1.11938">
        <ele>271.790436</ele>
        <time>2019-08-17T14:06:42Z</time>
      </trkpt>
      <trkpt lat="44.47538" lon="1.11946">
        <ele>271.000732</ele>
        <time>2019-08-17T14:06:43Z</time>
      </trkpt>
      <trkpt lat="44.47543" lon="1.11953">
        <ele>271.000732</ele>
        <time>2019-08-17T14:06:44Z</time>
      </trkpt>
      <trkpt lat="44.47546" lon="1.1196">
        <ele>270.240021</ele>
        <time>2019-08-17T14:06:45Z</time>
      </trkpt>
      <trkpt lat="44.47548" lon="1.11966">
        <ele>269.495514</ele>
        <time>2019-08-17T14:06:46Z</time>
      </trkpt>
      <trkpt lat="44.47547" lon="1.11971">
        <ele>268.796906</ele>
        <time>2019-08-17T14:06:47Z</time>
      </trkpt>
      <trkpt lat="44.47544" lon="1.11975">
        <ele>268.092377</ele>
        <time>2019-08-17T14:06:48Z</time>
      </trkpt>
      <trkpt lat="44.47541" lon="1.11979">
        <ele>267.411957</ele>
        <time>2019-08-17T14:06:49Z</time>
      </trkpt>
      <trkpt lat="44.47537" lon="1.11983">
        <ele>267.411957</ele>
        <time>2019-08-17T14:06:50Z</time>
      </trkpt>
      <trkpt lat="44.47534" lon="1.11986">
        <ele>266.830811</ele>
        <time>2019-08-17T14:06:51Z</time>
      </trkpt>
      <trkpt lat="44.4753" lon="1.1199">
        <ele>266.317902</ele>
        <time>2019-08-17T14:06:52Z</time>
      </trkpt>
      <trkpt lat="44.47527" lon="1.11994">
        <ele>266.317902</ele>
        <time>2019-08-17T14:06:53Z</time>
      </trkpt>
      <trkpt lat="44.47524" lon="1.11998">
        <ele>265.869995</ele>
        <time>2019-08-17T14:06:54Z</time>
      </trkpt>
      <trkpt lat="44.4752" lon="1.12002">
        <ele>265.541107</ele>
        <time>2019-08-17T14:06:55Z</time>
      </trkpt>
      <trkpt lat="44.47518" lon="1.12005">
        <ele>265.146088</ele>
        <time>2019-08-17T14:06:56Z</time>
      </trkpt>
      <trkpt lat="44.47515" lon="1.12008">
        <ele>264.713287</ele>
        <time>2019-08-17T14:06:57Z</time>
      </trkpt>
      <trkpt lat="44.47512" lon="1.12011">
        <ele>264.193787</ele>
        <time>2019-08-17T14:06:58Z</time>
      </trkpt>
      <trkpt lat="44.47509" lon="1.12013">
        <ele>263.572113</ele>
        <time>2019-08-17T14:06:59Z</time>
      </trkpt>
      <trkpt lat="44.47508" lon="1.12015">
        <ele>262.874603</ele>
        <time>2019-08-17T14:07:00Z</time>
      </trkpt>
      <trkpt lat="44.47515" lon="1.12027">
        <ele>259.683044</ele>
        <time>2019-08-17T14:07:08Z</time>
      </trkpt>
      <trkpt lat="44.47516" lon="1.12032">
        <ele>259.669037</ele>
        <time>2019-08-17T14:07:10Z</time>
      </trkpt>
      <trkpt lat="44.47517" lon="1.12036">
        <ele>259.63446</ele>
        <time>2019-08-17T14:07:11Z</time>
      </trkpt>
      <trkpt lat="44.47518" lon="1.12039">
        <ele>259.498047</ele>
        <time>2019-08-17T14:07:12Z</time>
      </trkpt>
      <trkpt lat="44.47519" lon="1.12044">
        <ele>259.295654</ele>
        <time>2019-08-17T14:07:13Z</time>
      </trkpt>
      <trkpt lat="44.47521" lon="1.12048">
        <ele>259.047821</ele>
        <time>2019-08-17T14:07:14Z</time>
      </trkpt>
      <trkpt lat="44.47524" lon="1.12052">
        <ele>258.759155</ele>
        <time>2019-08-17T14:07:15Z</time>
      </trkpt>
      <trkpt lat="44.47526" lon="1.12056">
        <ele>258.425751</ele>
        <time>2019-08-17T14:07:16Z</time>
      </trkpt>
      <trkpt lat="44.47528" lon="1.12061">
        <ele>258.425751</ele>
        <time>2019-08-17T14:07:17Z</time>
      </trkpt>
      <trkpt lat="44.47529" lon="1.12065">
        <ele>258.078339</ele>
        <time>2019-08-17T14:07:18Z</time>
      </trkpt>
      <trkpt lat="44.47531" lon="1.12069">
        <ele>257.817596</ele>
        <time>2019-08-17T14:07:19Z</time>
      </trkpt>
      <trkpt lat="44.47532" lon="1.12073">
        <ele>257.559845</ele>
        <time>2019-08-17T14:07:20Z</time>
      </trkpt>
      <trkpt lat="44.47531" lon="1.12077">
        <ele>257.310089</ele>
        <time>2019-08-17T14:07:21Z</time>
      </trkpt>
      <trkpt lat="44.4753" lon="1.12081">
        <ele>257.061615</ele>
        <time>2019-08-17T14:07:22Z</time>
      </trkpt>
      <trkpt lat="44.4753" lon="1.12084">
        <ele>256.801514</ele>
        <time>2019-08-17T14:07:23Z</time>
      </trkpt>
      <trkpt lat="44.47531" lon="1.12088">
        <ele>256.472687</ele>
        <time>2019-08-17T14:07:24Z</time>
      </trkpt>
      <trkpt lat="44.47533" lon="1.12091">
        <ele>256.054199</ele>
        <time>2019-08-17T14:07:25Z</time>
      </trkpt>
      <trkpt lat="44.47533" lon="1.12096">
        <ele>255.62738</ele>
        <time>2019-08-17T14:07:26Z</time>
      </trkpt>
      <trkpt lat="44.47535" lon="1.121">
        <ele>255.216614</ele>
        <time>2019-08-17T14:07:27Z</time>
      </trkpt>
      <trkpt lat="44.47537" lon="1.12105">
        <ele>254.812973</ele>
        <time>2019-08-17T14:07:28Z</time>
      </trkpt>
      <trkpt lat="44.47538" lon="1.12109">
        <ele>254.407455</ele>
        <time>2019-08-17T14:07:29Z</time>
      </trkpt>
      <trkpt lat="44.4754" lon="1.12114">
        <ele>254.051559</ele>
        <time>2019-08-17T14:07:30Z</time>
      </trkpt>
      <trkpt lat="44.4754" lon="1.12118">
        <ele>253.767105</ele>
        <time>2019-08-17T14:07:31Z</time>
      </trkpt>
      <trkpt lat="44.4754" lon="1.12122">
        <ele>253.513245</ele>
        <time>2019-08-17T14:07:32Z</time>
      </trkpt>
      <trkpt lat="44.47538" lon="1.12125">
        <ele>253.255569</ele>
        <time>2019-08-17T14:07:33Z</time>
      </trkpt>
      <trkpt lat="44.47537" lon="1.12128">
        <ele>252.97731</ele>
        <time>2019-08-17T14:07:34Z</time>
      </trkpt>
      <trkpt lat="44.47534" lon="1.12132">
        <ele>252.675049</ele>
        <time>2019-08-17T14:07:35Z</time>
      </trkpt>
      <trkpt lat="44.47532" lon="1.12136">
        <ele>252.301147</ele>
        <time>2019-08-17T14:07:36Z</time>
      </trkpt>
      <trkpt lat="44.4753" lon="1.12139">
        <ele>251.832275</ele>
        <time>2019-08-17T14:07:37Z</time>
      </trkpt>
      <trkpt lat="44.47528" lon="1.12143">
        <ele>251.244797</ele>
        <time>2019-08-17T14:07:38Z</time>
      </trkpt>
      <trkpt lat="44.47525" lon="1.12146">
        <ele>250.539307</ele>
        <time>2019-08-17T14:07:39Z</time>
      </trkpt>
      <trkpt lat="44.47524" lon="1.12149">
        <ele>249.714478</ele>
        <time>2019-08-17T14:07:40Z</time>
      </trkpt>
      <trkpt lat="44.47523" lon="1.12153">
        <ele>248.808533</ele>
        <time>2019-08-17T14:07:41Z</time>
      </trkpt>
      <trkpt lat="44.47522" lon="1.12157">
        <ele>248.808533</ele>
        <time>2019-08-17T14:07:42Z</time>
      </trkpt>
      <trkpt lat="44.47522" lon="1.12161">
        <ele>247.881882</ele>
        <time>2019-08-17T14:07:43Z</time>
      </trkpt>
      <trkpt lat="44.47522" lon="1.12166">
        <ele>246.94342</ele>
        <time>2019-08-17T14:07:44Z</time>
      </trkpt>
      <trkpt lat="44.47521" lon="1.1217">
        <ele>245.930603</ele>
        <time>2019-08-17T14:07:45Z</time>
      </trkpt>
      <trkpt lat="44.47521" lon="1.12175">
        <ele>244.96492</ele>
        <time>2019-08-17T14:07:46Z</time>
      </trkpt>
      <trkpt lat="44.4752" lon="1.1218">
        <ele>244.060165</ele>
        <time>2019-08-17T14:07:47Z</time>
      </trkpt>
      <trkpt lat="44.47518" lon="1.12185">
        <ele>243.202759</ele>
        <time>2019-08-17T14:07:48Z</time>
      </trkpt>
      <trkpt lat="44.47517" lon="1.1219">
        <ele>242.352951</ele>
        <time>2019-08-17T14:07:49Z</time>
      </trkpt>
      <trkpt lat="44.47516" lon="1.12195">
        <ele>241.481689</ele>
        <time>2019-08-17T14:07:50Z</time>
      </trkpt>
      <trkpt lat="44.47514" lon="1.122">
        <ele>240.662979</ele>
        <time>2019-08-17T14:07:51Z</time>
      </trkpt>
      <trkpt lat="44.47512" lon="1.12204">
        <ele>239.768692</ele>
        <time>2019-08-17T14:07:52Z</time>
      </trkpt>
      <trkpt lat="44.47511" lon="1.12207">
        <ele>238.814941</ele>
        <time>2019-08-17T14:07:53Z</time>
      </trkpt>
      <trkpt lat="44.47509" lon="1.12211">
        <ele>237.827698</ele>
        <time>2019-08-17T14:07:54Z</time>
      </trkpt>
      <trkpt lat="44.47509" lon="1.12215">
        <ele>237.827698</ele>
        <time>2019-08-17T14:07:55Z</time>
      </trkpt>
      <trkpt lat="44.47508" lon="1.12218">
        <ele>236.865555</ele>
        <time>2019-08-17T14:07:56Z</time>
      </trkpt>
      <trkpt lat="44.47507" lon="1.12221">
        <ele>235.967896</ele>
        <time>2019-08-17T14:07:57Z</time>
      </trkpt>
      <trkpt lat="44.47505" lon="1.12223">
        <ele>235.125412</ele>
        <time>2019-08-17T14:07:58Z</time>
      </trkpt>
      <trkpt lat="44.47502" lon="1.12226">
        <ele>234.406021</ele>
        <time>2019-08-17T14:07:59Z</time>
      </trkpt>
      <trkpt lat="44.475" lon="1.12228">
        <ele>233.78595</ele>
        <time>2019-08-17T14:08:00Z</time>
      </trkpt>
      <trkpt lat="44.47498" lon="1.1223">
        <ele>233.22551</ele>
        <time>2019-08-17T14:08:01Z</time>
      </trkpt>
      <trkpt lat="44.47495" lon="1.12232">
        <ele>232.678528</ele>
        <time>2019-08-17T14:08:02Z</time>
      </trkpt>
      <trkpt lat="44.47492" lon="1.12234">
        <ele>232.131454</ele>
        <time>2019-08-17T14:08:03Z</time>
      </trkpt>
      <trkpt lat="44.4749" lon="1.12237">
        <ele>231.60585</ele>
        <time>2019-08-17T14:08:04Z</time>
      </trkpt>
      <trkpt lat="44.47488" lon="1.1224">
        <ele>231.038834</ele>
        <time>2019-08-17T14:08:05Z</time>
      </trkpt>
      <trkpt lat="44.47486" lon="1.12243">
        <ele>230.452271</ele>
        <time>2019-08-17T14:08:06Z</time>
      </trkpt>
      <trkpt lat="44.47485" lon="1.12247">
        <ele>229.872635</ele>
        <time>2019-08-17T14:08:07Z</time>
      </trkpt>
      <trkpt lat="44.47483" lon="1.12251">
        <ele>229.317062</ele>
        <time>2019-08-17T14:08:08Z</time>
      </trkpt>
      <trkpt lat="44.47482" lon="1.12256">
        <ele>228.789841</ele>
        <time>2019-08-17T14:08:09Z</time>
      </trkpt>
      <trkpt lat="44.47481" lon="1.12261">
        <ele>228.315323</ele>
        <time>2019-08-17T14:08:10Z</time>
      </trkpt>
      <trkpt lat="44.47479" lon="1.12265">
        <ele>227.882935</ele>
        <time>2019-08-17T14:08:11Z</time>
      </trkpt>
      <trkpt lat="44.47478" lon="1.1227">
        <ele>227.493454</ele>
        <time>2019-08-17T14:08:12Z</time>
      </trkpt>
      <trkpt lat="44.47477" lon="1.12275">
        <ele>227.149094</ele>
        <time>2019-08-17T14:08:13Z</time>
      </trkpt>
      <trkpt lat="44.47476" lon="1.1228">
        <ele>226.834045</ele>
        <time>2019-08-17T14:08:14Z</time>
      </trkpt>
      <trkpt lat="44.47475" lon="1.12284">
        <ele>226.542618</ele>
        <time>2019-08-17T14:08:15Z</time>
      </trkpt>
      <trkpt lat="44.47472" lon="1.12288">
        <ele>226.542618</ele>
        <time>2019-08-17T14:08:16Z</time>
      </trkpt>
      <trkpt lat="44.47469" lon="1.12292">
        <ele>226.26506</ele>
        <time>2019-08-17T14:08:17Z</time>
      </trkpt>
      <trkpt lat="44.47466" lon="1.12295">
        <ele>226.004883</ele>
        <time>2019-08-17T14:08:18Z</time>
      </trkpt>
      <trkpt lat="44.47463" lon="1.12297">
        <ele>225.684738</ele>
        <time>2019-08-17T14:08:19Z</time>
      </trkpt>
      <trkpt lat="44.47459" lon="1.12299">
        <ele>225.261765</ele>
        <time>2019-08-17T14:08:20Z</time>
      </trkpt>
      <trkpt lat="44.47456" lon="1.12301">
        <ele>224.700027</ele>
        <time>2019-08-17T14:08:21Z</time>
      </trkpt>
      <trkpt lat="44.47453" lon="1.12304">
        <ele>223.987106</ele>
        <time>2019-08-17T14:08:22Z</time>
      </trkpt>
      <trkpt lat="44.47451" lon="1.12307">
        <ele>223.107864</ele>
        <time>2019-08-17T14:08:23Z</time>
      </trkpt>
      <trkpt lat="44.4745" lon="1.12311">
        <ele>222.078384</ele>
        <time>2019-08-17T14:08:24Z</time>
      </trkpt>
      <trkpt lat="44.47448" lon="1.12315">
        <ele>220.983643</ele>
        <time>2019-08-17T14:08:25Z</time>
      </trkpt>
      <trkpt lat="44.47446" lon="1.12318">
        <ele>219.886063</ele>
        <time>2019-08-17T14:08:26Z</time>
      </trkpt>
      <trkpt lat="44.47445" lon="1.12322">
        <ele>218.859314</ele>
        <time>2019-08-17T14:08:27Z</time>
      </trkpt>
      <trkpt lat="44.47443" lon="1.12325">
        <ele>217.923218</ele>
        <time>2019-08-17T14:08:28Z</time>
      </trkpt>
      <trkpt lat="44.47442" lon="1.12327">
        <ele>217.084518</ele>
        <time>2019-08-17T14:08:29Z</time>
      </trkpt>
      <trkpt lat="44.4744" lon="1.1233">
        <ele>216.330444</ele>
        <time>2019-08-17T14:08:30Z</time>
      </trkpt>
      <trkpt lat="44.47439" lon="1.12333">
        <ele>215.646805</ele>
        <time>2019-08-17T14:08:31Z</time>
      </trkpt>
      <trkpt lat="44.47437" lon="1.12335">
        <ele>215.004761</ele>
        <time>2019-08-17T14:08:32Z</time>
      </trkpt>
      <trkpt lat="44.47436" lon="1.12338">
        <ele>214.370651</ele>
        <time>2019-08-17T14:08:33Z</time>
      </trkpt>
      <trkpt lat="44.47435" lon="1.1234">
        <ele>213.736771</ele>
        <time>2019-08-17T14:08:34Z</time>
      </trkpt>
      <trkpt lat="44.47434" lon="1.12343">
        <ele>213.736771</ele>
        <time>2019-08-17T14:08:35Z</time>
      </trkpt>
      <trkpt lat="44.47432" lon="1.12346">
        <ele>213.103378</ele>
        <time>2019-08-17T14:08:36Z</time>
      </trkpt>
      <trkpt lat="44.47431" lon="1.12349">
        <ele>212.447708</ele>
        <time>2019-08-17T14:08:37Z</time>
      </trkpt>
      <trkpt lat="44.4743" lon="1.12352">
        <ele>211.644852</ele>
        <time>2019-08-17T14:08:38Z</time>
      </trkpt>
      <trkpt lat="44.47428" lon="1.12354">
        <ele>210.827194</ele>
        <time>2019-08-17T14:08:39Z</time>
      </trkpt>
      <trkpt lat="44.47427" lon="1.12357">
        <ele>209.983826</ele>
        <time>2019-08-17T14:08:40Z</time>
      </trkpt>
      <trkpt lat="44.47425" lon="1.1236">
        <ele>209.11763</ele>
        <time>2019-08-17T14:08:41Z</time>
      </trkpt>
      <trkpt lat="44.47424" lon="1.12362">
        <ele>208.23259</ele>
        <time>2019-08-17T14:08:42Z</time>
      </trkpt>
      <trkpt lat="44.47422" lon="1.12365">
        <ele>207.341995</ele>
        <time>2019-08-17T14:08:43Z</time>
      </trkpt>
      <trkpt lat="44.47421" lon="1.12367">
        <ele>206.573196</ele>
        <time>2019-08-17T14:08:44Z</time>
      </trkpt>
      <trkpt lat="44.4742" lon="1.12369">
        <ele>205.792374</ele>
        <time>2019-08-17T14:08:45Z</time>
      </trkpt>
      <trkpt lat="44.47418" lon="1.12371">
        <ele>205.017197</ele>
        <time>2019-08-17T14:08:46Z</time>
      </trkpt>
      <trkpt lat="44.47417" lon="1.12372">
        <ele>204.264175</ele>
        <time>2019-08-17T14:08:47Z</time>
      </trkpt>
      <trkpt lat="44.47416" lon="1.12374">
        <ele>203.524536</ele>
        <time>2019-08-17T14:08:48Z</time>
      </trkpt>
      <trkpt lat="44.47414" lon="1.12376">
        <ele>202.810791</ele>
        <time>2019-08-17T14:08:49Z</time>
      </trkpt>
      <trkpt lat="44.47413" lon="1.12377">
        <ele>202.119797</ele>
        <time>2019-08-17T14:08:50Z</time>
      </trkpt>
      <trkpt lat="44.47411" lon="1.12378">
        <ele>201.460556</ele>
        <time>2019-08-17T14:08:51Z</time>
      </trkpt>
      <trkpt lat="44.4741" lon="1.12379">
        <ele>200.813965</ele>
        <time>2019-08-17T14:08:52Z</time>
      </trkpt>
      <trkpt lat="44.47409" lon="1.12381">
        <ele>200.170288</ele>
        <time>2019-08-17T14:08:53Z</time>
      </trkpt>
      <trkpt lat="44.47408" lon="1.12383">
        <ele>200.170288</ele>
        <time>2019-08-17T14:08:54Z</time>
      </trkpt>
      <trkpt lat="44.47407" lon="1.12385">
        <ele>199.552719</ele>
        <time>2019-08-17T14:08:55Z</time>
      </trkpt>
      <trkpt lat="44.47406" lon="1.12387">
        <ele>198.947617</ele>
        <time>2019-08-17T14:08:56Z</time>
      </trkpt>
      <trkpt lat="44.47405" lon="1.1239">
        <ele>198.260788</ele>
        <time>2019-08-17T14:08:57Z</time>
      </trkpt>
      <trkpt lat="44.47403" lon="1.12392">
        <ele>197.586304</ele>
        <time>2019-08-17T14:08:58Z</time>
      </trkpt>
      <trkpt lat="44.47402" lon="1.12394">
        <ele>196.935623</ele>
        <time>2019-08-17T14:08:59Z</time>
      </trkpt>
      <trkpt lat="44.47401" lon="1.12395">
        <ele>196.297592</ele>
        <time>2019-08-17T14:09:00Z</time>
      </trkpt>
      <trkpt lat="44.474" lon="1.12397">
        <ele>195.651566</ele>
        <time>2019-08-17T14:09:01Z</time>
      </trkpt>
      <trkpt lat="44.47398" lon="1.12399">
        <ele>194.998917</ele>
        <time>2019-08-17T14:09:02Z</time>
      </trkpt>
      <trkpt lat="44.47397" lon="1.124">
        <ele>194.442505</ele>
        <time>2019-08-17T14:09:03Z</time>
      </trkpt>
      <trkpt lat="44.47395" lon="1.12402">
        <ele>193.864258</ele>
        <time>2019-08-17T14:09:04Z</time>
      </trkpt>
      <trkpt lat="44.47394" lon="1.12403">
        <ele>193.261795</ele>
        <time>2019-08-17T14:09:05Z</time>
      </trkpt>
      <trkpt lat="44.47392" lon="1.12405">
        <ele>192.649918</ele>
        <time>2019-08-17T14:09:06Z</time>
      </trkpt>
      <trkpt lat="44.47391" lon="1.12408">
        <ele>192.024414</ele>
        <time>2019-08-17T14:09:07Z</time>
      </trkpt>
      <trkpt lat="44.47391" lon="1.1241">
        <ele>191.38916</ele>
        <time>2019-08-17T14:09:08Z</time>
      </trkpt>
      <trkpt lat="44.4739" lon="1.12411">
        <ele>190.735458</ele>
        <time>2019-08-17T14:09:09Z</time>
      </trkpt>
      <trkpt lat="44.47389" lon="1.12413">
        <ele>190.1064</ele>
        <time>2019-08-17T14:09:10Z</time>
      </trkpt>
      <trkpt lat="44.47388" lon="1.12415">
        <ele>189.514755</ele>
        <time>2019-08-17T14:09:11Z</time>
      </trkpt>
      <trkpt lat="44.47388" lon="1.12417">
        <ele>188.951355</ele>
        <time>2019-08-17T14:09:12Z</time>
      </trkpt>
      <trkpt lat="44.47388" lon="1.1242">
        <ele>188.951355</ele>
        <time>2019-08-17T14:09:13Z</time>
      </trkpt>
      <trkpt lat="44.47388" lon="1.12422">
        <ele>188.411606</ele>
        <time>2019-08-17T14:09:14Z</time>
      </trkpt>
      <trkpt lat="44.47388" lon="1.12423">
        <ele>187.910202</ele>
        <time>2019-08-17T14:09:15Z</time>
      </trkpt>
      <trkpt lat="44.47383" lon="1.12435">
        <ele>184.427414</ele>
        <time>2019-08-17T14:09:34Z</time>
      </trkpt>
      <trkpt lat="44.47383" lon="1.12436">
        <ele>184.217331</ele>
        <time>2019-08-17T14:09:36Z</time>
      </trkpt>
      <trkpt lat="44.47382" lon="1.12437">
        <ele>184.040695</ele>
        <time>2019-08-17T14:09:37Z</time>
      </trkpt>
      <trkpt lat="44.47375" lon="1.12448">
        <ele>182.806839</ele>
        <time>2019-08-17T14:09:47Z</time>
      </trkpt>
      <trkpt lat="44.47374" lon="1.1245">
        <ele>182.656082</ele>
        <time>2019-08-17T14:09:49Z</time>
      </trkpt>
      <trkpt lat="44.47372" lon="1.12452">
        <ele>182.385056</ele>
        <time>2019-08-17T14:09:50Z</time>
      </trkpt>
      <trkpt lat="44.47371" lon="1.12453">
        <ele>181.846802</ele>
        <time>2019-08-17T14:09:51Z</time>
      </trkpt>
      <trkpt lat="44.47371" lon="1.12455">
        <ele>181.193542</ele>
        <time>2019-08-17T14:09:52Z</time>
      </trkpt>
      <trkpt lat="44.4737" lon="1.12457">
        <ele>180.441849</ele>
        <time>2019-08-17T14:09:53Z</time>
      </trkpt>
      <trkpt lat="44.47369" lon="1.12459">
        <ele>179.665649</ele>
        <time>2019-08-17T14:09:54Z</time>
      </trkpt>
      <trkpt lat="44.47368" lon="1.1246">
        <ele>178.913284</ele>
        <time>2019-08-17T14:09:55Z</time>
      </trkpt>
      <trkpt lat="44.47367" lon="1.12462">
        <ele>178.913284</ele>
        <time>2019-08-17T14:09:56Z</time>
      </trkpt>
      <trkpt lat="44.47366" lon="1.12464">
        <ele>178.22139</ele>
        <time>2019-08-17T14:09:57Z</time>
      </trkpt>
      <trkpt lat="44.47366" lon="1.12466">
        <ele>177.719177</ele>
        <time>2019-08-17T14:09:58Z</time>
      </trkpt>
      <trkpt lat="44.47365" lon="1.12468">
        <ele>177.20459</ele>
        <time>2019-08-17T14:09:59Z</time>
      </trkpt>
      <trkpt lat="44.47364" lon="1.1247">
        <ele>176.736771</ele>
        <time>2019-08-17T14:10:00Z</time>
      </trkpt>
      <trkpt lat="44.47363" lon="1.12472">
        <ele>176.297409</ele>
        <time>2019-08-17T14:10:01Z</time>
      </trkpt>
      <trkpt lat="44.47362" lon="1.12475">
        <ele>175.865189</ele>
        <time>2019-08-17T14:10:02Z</time>
      </trkpt>
      <trkpt lat="44.47362" lon="1.12477">
        <ele>175.416794</ele>
        <time>2019-08-17T14:10:03Z</time>
      </trkpt>
      <trkpt lat="44.47361" lon="1.12479">
        <ele>174.966507</ele>
        <time>2019-08-17T14:10:04Z</time>
      </trkpt>
      <trkpt lat="44.4736" lon="1.12482">
        <ele>174.556931</ele>
        <time>2019-08-17T14:10:05Z</time>
      </trkpt>
      <trkpt lat="44.47359" lon="1.12486">
        <ele>174.140823</ele>
        <time>2019-08-17T14:10:06Z</time>
      </trkpt>
      <trkpt lat="44.47358" lon="1.1249">
        <ele>173.697037</ele>
        <time>2019-08-17T14:10:07Z</time>
      </trkpt>
      <trkpt lat="44.47357" lon="1.12494">
        <ele>173.226685</ele>
        <time>2019-08-17T14:10:08Z</time>
      </trkpt>
      <trkpt lat="44.47355" lon="1.12497">
        <ele>172.732956</ele>
        <time>2019-08-17T14:10:09Z</time>
      </trkpt>
      <trkpt lat="44.47354" lon="1.12501">
        <ele>172.203918</ele>
        <time>2019-08-17T14:10:10Z</time>
      </trkpt>
      <trkpt lat="44.47352" lon="1.12504">
        <ele>171.650345</ele>
        <time>2019-08-17T14:10:11Z</time>
      </trkpt>
      <trkpt lat="44.47351" lon="1.12506">
        <ele>171.650345</ele>
        <time>2019-08-17T14:10:12Z</time>
      </trkpt>
      <trkpt lat="44.47348" lon="1.12508">
        <ele>171.054581</ele>
        <time>2019-08-17T14:10:13Z</time>
      </trkpt>
      <trkpt lat="44.47345" lon="1.12509">
        <ele>170.437668</ele>
        <time>2019-08-17T14:10:14Z</time>
      </trkpt>
      <trkpt lat="44.47343" lon="1.12511">
        <ele>169.682144</ele>
        <time>2019-08-17T14:10:15Z</time>
      </trkpt>
      <trkpt lat="44.4734" lon="1.12511">
        <ele>168.89801</ele>
        <time>2019-08-17T14:10:16Z</time>
      </trkpt>
      <trkpt lat="44.47339" lon="1.12512">
        <ele>168.080887</ele>
        <time>2019-08-17T14:10:17Z</time>
      </trkpt>
      <trkpt lat="44.47337" lon="1.12513">
        <ele>167.242508</ele>
        <time>2019-08-17T14:10:18Z</time>
      </trkpt>
      <trkpt lat="44.47335" lon="1.12515">
        <ele>166.394913</ele>
        <time>2019-08-17T14:10:19Z</time>
      </trkpt>
      <trkpt lat="44.47332" lon="1.12516">
        <ele>165.554428</ele>
        <time>2019-08-17T14:10:20Z</time>
      </trkpt>
      <trkpt lat="44.47331" lon="1.12517">
        <ele>164.844681</ele>
        <time>2019-08-17T14:10:21Z</time>
      </trkpt>
      <trkpt lat="44.4733" lon="1.12519">
        <ele>164.172165</ele>
        <time>2019-08-17T14:10:22Z</time>
      </trkpt>
      <trkpt lat="44.4733" lon="1.12522">
        <ele>163.644638</ele>
        <time>2019-08-17T14:10:23Z</time>
      </trkpt>
      <trkpt lat="44.4733" lon="1.12527">
        <ele>163.243881</ele>
        <time>2019-08-17T14:10:24Z</time>
      </trkpt>
      <trkpt lat="44.47331" lon="1.12532">
        <ele>162.956467</ele>
        <time>2019-08-17T14:10:25Z</time>
      </trkpt>
      <trkpt lat="44.47333" lon="1.12535">
        <ele>162.733948</ele>
        <time>2019-08-17T14:10:26Z</time>
      </trkpt>
      <trkpt lat="44.47334" lon="1.12539">
        <ele>162.55513</ele>
        <time>2019-08-17T14:10:27Z</time>
      </trkpt>
      <trkpt lat="44.47334" lon="1.12543">
        <ele>162.405228</ele>
        <time>2019-08-17T14:10:28Z</time>
      </trkpt>
      <trkpt lat="44.47333" lon="1.12547">
        <ele>162.196655</ele>
        <time>2019-08-17T14:10:29Z</time>
      </trkpt>
      <trkpt lat="44.47332" lon="1.1255">
        <ele>161.941879</ele>
        <time>2019-08-17T14:10:30Z</time>
      </trkpt>
      <trkpt lat="44.47332" lon="1.12554">
        <ele>161.658981</ele>
        <time>2019-08-17T14:10:31Z</time>
      </trkpt>
      <trkpt lat="44.47331" lon="1.12557">
        <ele>161.375488</ele>
        <time>2019-08-17T14:10:32Z</time>
      </trkpt>
      <trkpt lat="44.47332" lon="1.12561">
        <ele>161.116226</ele>
        <time>2019-08-17T14:10:33Z</time>
      </trkpt>
      <trkpt lat="44.47331" lon="1.12564">
        <ele>160.891174</ele>
        <time>2019-08-17T14:10:34Z</time>
      </trkpt>
      <trkpt lat="44.4733" lon="1.12568">
        <ele>160.692413</ele>
        <time>2019-08-17T14:10:35Z</time>
      </trkpt>
      <trkpt lat="44.47329" lon="1.12571">
        <ele>160.505539</ele>
        <time>2019-08-17T14:10:36Z</time>
      </trkpt>
      <trkpt lat="44.47329" lon="1.12574">
        <ele>160.323532</ele>
        <time>2019-08-17T14:10:37Z</time>
      </trkpt>
      <trkpt lat="44.47327" lon="1.12577">
        <ele>160.143188</ele>
        <time>2019-08-17T14:10:38Z</time>
      </trkpt>
      <trkpt lat="44.47326" lon="1.12579">
        <ele>159.962952</ele>
        <time>2019-08-17T14:10:39Z</time>
      </trkpt>
      <trkpt lat="44.47324" lon="1.12582">
        <ele>159.788391</ele>
        <time>2019-08-17T14:10:40Z</time>
      </trkpt>
      <trkpt lat="44.47323" lon="1.12584">
        <ele>159.788391</ele>
        <time>2019-08-17T14:10:41Z</time>
      </trkpt>
      <trkpt lat="44.47322" lon="1.12586">
        <ele>159.628281</ele>
        <time>2019-08-17T14:10:42Z</time>
      </trkpt>
      <trkpt lat="44.47321" lon="1.12588">
        <ele>159.490967</ele>
        <time>2019-08-17T14:10:43Z</time>
      </trkpt>
      <trkpt lat="44.47319" lon="1.12589">
        <ele>159.355835</ele>
        <time>2019-08-17T14:10:44Z</time>
      </trkpt>
      <trkpt lat="44.47318" lon="1.12592">
        <ele>159.23642</ele>
        <time>2019-08-17T14:10:45Z</time>
      </trkpt>
      <trkpt lat="44.47316" lon="1.12595">
        <ele>159.130127</ele>
        <time>2019-08-17T14:10:46Z</time>
      </trkpt>
      <trkpt lat="44.47314" lon="1.12598">
        <ele>159.033447</ele>
        <time>2019-08-17T14:10:47Z</time>
      </trkpt>
      <trkpt lat="44.47312" lon="1.12601">
        <ele>158.934036</ele>
        <time>2019-08-17T14:10:48Z</time>
      </trkpt>
      <trkpt lat="44.4731" lon="1.12604">
        <ele>158.828445</ele>
        <time>2019-08-17T14:10:49Z</time>
      </trkpt>
      <trkpt lat="44.4731" lon="1.12606">
        <ele>158.727921</ele>
        <time>2019-08-17T14:10:50Z</time>
      </trkpt>
      <trkpt lat="44.47308" lon="1.12608">
        <ele>158.613586</ele>
        <time>2019-08-17T14:10:51Z</time>
      </trkpt>
      <trkpt lat="44.47308" lon="1.12609">
        <ele>158.482529</ele>
        <time>2019-08-17T14:10:52Z</time>
      </trkpt>
      <trkpt lat="44.47302" lon="1.12622">
        <ele>157.378784</ele>
        <time>2019-08-17T14:11:10Z</time>
      </trkpt>
      <trkpt lat="44.473" lon="1.12626">
        <ele>157.333298</ele>
        <time>2019-08-17T14:11:12Z</time>
      </trkpt>
      <trkpt lat="44.47299" lon="1.1263">
        <ele>157.237366</ele>
        <time>2019-08-17T14:11:13Z</time>
      </trkpt>
      <trkpt lat="44.47297" lon="1.12634">
        <ele>157.237366</ele>
        <time>2019-08-17T14:11:14Z</time>
      </trkpt>
      <trkpt lat="44.47295" lon="1.12637">
        <ele>157.069809</ele>
        <time>2019-08-17T14:11:15Z</time>
      </trkpt>
      <trkpt lat="44.47293" lon="1.12638">
        <ele>156.816422</ele>
        <time>2019-08-17T14:11:16Z</time>
      </trkpt>
      <trkpt lat="44.4729" lon="1.1264">
        <ele>156.381943</ele>
        <time>2019-08-17T14:11:17Z</time>
      </trkpt>
      <trkpt lat="44.47289" lon="1.12642">
        <ele>155.874191</ele>
        <time>2019-08-17T14:11:18Z</time>
      </trkpt>
      <trkpt lat="44.47287" lon="1.12645">
        <ele>155.33197</ele>
        <time>2019-08-17T14:11:19Z</time>
      </trkpt>
      <trkpt lat="44.47286" lon="1.12649">
        <ele>154.776474</ele>
        <time>2019-08-17T14:11:20Z</time>
      </trkpt>
      <trkpt lat="44.47285" lon="1.12653">
        <ele>154.211975</ele>
        <time>2019-08-17T14:11:21Z</time>
      </trkpt>
      <trkpt lat="44.47284" lon="1.12658">
        <ele>153.632568</ele>
        <time>2019-08-17T14:11:22Z</time>
      </trkpt>
      <trkpt lat="44.47283" lon="1.12662">
        <ele>153.10881</ele>
        <time>2019-08-17T14:11:23Z</time>
      </trkpt>
      <trkpt lat="44.47282" lon="1.12667">
        <ele>152.532516</ele>
        <time>2019-08-17T14:11:24Z</time>
      </trkpt>
      <trkpt lat="44.47282" lon="1.12671">
        <ele>151.88356</ele>
        <time>2019-08-17T14:11:25Z</time>
      </trkpt>
      <trkpt lat="44.4728" lon="1.12676">
        <ele>151.88356</ele>
        <time>2019-08-17T14:11:26Z</time>
      </trkpt>
      <trkpt lat="44.47279" lon="1.1268">
        <ele>151.149704</ele>
        <time>2019-08-17T14:11:27Z</time>
      </trkpt>
      <trkpt lat="44.47278" lon="1.12684">
        <ele>150.342041</ele>
        <time>2019-08-17T14:11:28Z</time>
      </trkpt>
      <trkpt lat="44.47277" lon="1.12689">
        <ele>149.296448</ele>
        <time>2019-08-17T14:11:29Z</time>
      </trkpt>
      <trkpt lat="44.47276" lon="1.12692">
        <ele>148.203979</ele>
        <time>2019-08-17T14:11:30Z</time>
      </trkpt>
      <trkpt lat="44.47274" lon="1.12695">
        <ele>147.059189</ele>
        <time>2019-08-17T14:11:31Z</time>
      </trkpt>
      <trkpt lat="44.47273" lon="1.12697">
        <ele>145.86235</ele>
        <time>2019-08-17T14:11:32Z</time>
      </trkpt>
      <trkpt lat="44.47271" lon="1.127">
        <ele>144.665512</ele>
        <time>2019-08-17T14:11:33Z</time>
      </trkpt>
      <trkpt lat="44.4727" lon="1.12702">
        <ele>143.493927</ele>
        <time>2019-08-17T14:11:34Z</time>
      </trkpt>
      <trkpt lat="44.47269" lon="1.12704">
        <ele>139.916718</ele>
        <time>2019-08-17T14:11:37Z</time>
      </trkpt>
      <trkpt lat="44.47268" lon="1.12705">
        <ele>139.341339</ele>
        <time>2019-08-17T14:11:39Z</time>
      </trkpt>
      <trkpt lat="44.47267" lon="1.12705">
        <ele>138.86496</ele>
        <time>2019-08-17T14:11:40Z</time>
      </trkpt>
      <trkpt lat="44.47267" lon="1.12706">
        <ele>138.486633</ele>
        <time>2019-08-17T14:11:41Z</time>
      </trkpt>
      <trkpt lat="44.47266" lon="1.12707">
        <ele>138.188522</ele>
        <time>2019-08-17T14:11:42Z</time>
      </trkpt>
      <trkpt lat="44.47264" lon="1.1272">
        <ele>135.20932</ele>
        <time>2019-08-17T14:11:56Z</time>
      </trkpt>
      <trkpt lat="44.47265" lon="1.12735">
        <ele>132.528641</ele>
        <time>2019-08-17T14:12:09Z</time>
      </trkpt>
      <trkpt lat="44.47264" lon="1.12737">
        <ele>132.25412</ele>
        <time>2019-08-17T14:12:11Z</time>
      </trkpt>
      <trkpt lat="44.47261" lon="1.12739">
        <ele>131.881744</ele>
        <time>2019-08-17T14:12:12Z</time>
      </trkpt>
      <trkpt lat="44.4726" lon="1.12741">
        <ele>131.881744</ele>
        <time>2019-08-17T14:12:13Z</time>
      </trkpt>
      <trkpt lat="44.47259" lon="1.12742">
        <ele>131.401337</ele>
        <time>2019-08-17T14:12:14Z</time>
      </trkpt>
      <trkpt lat="44.47254" lon="1.12753">
        <ele>127.300636</ele>
        <time>2019-08-17T14:12:34Z</time>
      </trkpt>
      <trkpt lat="44.47251" lon="1.12767">
        <ele>126.506889</ele>
        <time>2019-08-17T14:12:54Z</time>
      </trkpt>
      <trkpt lat="44.47251" lon="1.12769">
        <ele>126.342621</ele>
        <time>2019-08-17T14:12:56Z</time>
      </trkpt>
      <trkpt lat="44.47251" lon="1.12771">
        <ele>126.149834</ele>
        <time>2019-08-17T14:12:57Z</time>
      </trkpt>
      <trkpt lat="44.4725" lon="1.12784">
        <ele>124.847054</ele>
        <time>2019-08-17T14:13:05Z</time>
      </trkpt>
      <trkpt lat="44.47249" lon="1.12787">
        <ele>124.847054</ele>
        <time>2019-08-17T14:13:07Z</time>
      </trkpt>
      <trkpt lat="44.47248" lon="1.1279">
        <ele>124.711273</ele>
        <time>2019-08-17T14:13:08Z</time>
      </trkpt>
      <trkpt lat="44.47247" lon="1.12792">
        <ele>124.522743</ele>
        <time>2019-08-17T14:13:09Z</time>
      </trkpt>
      <trkpt lat="44.47247" lon="1.12795">
        <ele>124.522743</ele>
        <time>2019-08-17T14:13:10Z</time>
      </trkpt>
      <trkpt lat="44.47247" lon="1.12798">
        <ele>124.244957</ele>
        <time>2019-08-17T14:13:11Z</time>
      </trkpt>
      <trkpt lat="44.47246" lon="1.128">
        <ele>123.915405</ele>
        <time>2019-08-17T14:13:12Z</time>
      </trkpt>
      <trkpt lat="44.47245" lon="1.12802">
        <ele>123.522675</ele>
        <time>2019-08-17T14:13:13Z</time>
      </trkpt>
      <trkpt lat="44.47245" lon="1.12805">
        <ele>123.522675</ele>
        <time>2019-08-17T14:13:14Z</time>
      </trkpt>
      <trkpt lat="44.47245" lon="1.12806">
        <ele>123.139954</ele>
        <time>2019-08-17T14:13:15Z</time>
      </trkpt>
      <trkpt lat="44.47244" lon="1.12808">
        <ele>122.040466</ele>
        <time>2019-08-17T14:13:18Z</time>
      </trkpt>
      <trkpt lat="44.47244" lon="1.1281">
        <ele>121.753761</ele>
        <time>2019-08-17T14:13:20Z</time>
      </trkpt>
      <trkpt lat="44.47244" lon="1.12811">
        <ele>121.552147</ele>
        <time>2019-08-17T14:13:21Z</time>
      </trkpt>
      <trkpt lat="44.47243" lon="1.12813">
        <ele>121.376015</ele>
        <time>2019-08-17T14:13:22Z</time>
      </trkpt>
      <trkpt lat="44.47242" lon="1.12814">
        <ele>121.212708</ele>
        <time>2019-08-17T14:13:23Z</time>
      </trkpt>
      <trkpt lat="44.47242" lon="1.12815">
        <ele>121.212708</ele>
        <time>2019-08-17T14:13:24Z</time>
      </trkpt>
      <trkpt lat="44.47242" lon="1.12816">
        <ele>121.105171</ele>
        <time>2019-08-17T14:13:25Z</time>
      </trkpt>
      <trkpt lat="44.47242" lon="1.12817">
        <ele>120.875336</ele>
        <time>2019-08-17T14:13:27Z</time>
      </trkpt>
      <trkpt lat="44.47241" lon="1.12818">
        <ele>120.732269</ele>
        <time>2019-08-17T14:13:29Z</time>
      </trkpt>
      <trkpt lat="44.47234" lon="1.12828">
        <ele>120.403381</ele>
        <time>2019-08-17T14:13:46Z</time>
      </trkpt>
      <trkpt lat="44.47233" lon="1.12828">
        <ele>120.403381</ele>
        <time>2019-08-17T14:13:48Z</time>
      </trkpt>
      <trkpt lat="44.47232" lon="1.12828">
        <ele>120.439293</ele>
        <time>2019-08-17T14:13:49Z</time>
      </trkpt>
      <trkpt lat="44.47231" lon="1.12829">
        <ele>120.497963</ele>
        <time>2019-08-17T14:13:51Z</time>
      </trkpt>
      <trkpt lat="44.47222" lon="1.12825">
        <ele>121.172813</ele>
        <time>2019-08-17T14:14:16Z</time>
      </trkpt>
      <trkpt lat="44.4722" lon="1.12823">
        <ele>121.224426</ele>
        <time>2019-08-17T14:14:18Z</time>
      </trkpt>
      <trkpt lat="44.47218" lon="1.12821">
        <ele>121.26825</ele>
        <time>2019-08-17T14:14:19Z</time>
      </trkpt>
      <trkpt lat="44.47216" lon="1.12818">
        <ele>121.31601</ele>
        <time>2019-08-17T14:14:20Z</time>
      </trkpt>
      <trkpt lat="44.47213" lon="1.12814">
        <ele>121.37252</ele>
        <time>2019-08-17T14:14:21Z</time>
      </trkpt>
      <trkpt lat="44.4721" lon="1.1281">
        <ele>121.452049</ele>
        <time>2019-08-17T14:14:22Z</time>
      </trkpt>
      <trkpt lat="44.47207" lon="1.12808">
        <ele>121.553276</ele>
        <time>2019-08-17T14:14:23Z</time>
      </trkpt>
      <trkpt lat="44.47203" lon="1.12805">
        <ele>121.716644</ele>
        <time>2019-08-17T14:14:24Z</time>
      </trkpt>
      <trkpt lat="44.47199" lon="1.12802">
        <ele>121.716644</ele>
        <time>2019-08-17T14:14:25Z</time>
      </trkpt>
      <trkpt lat="44.47195" lon="1.128">
        <ele>121.960876</ele>
        <time>2019-08-17T14:14:26Z</time>
      </trkpt>
      <trkpt lat="44.47192" lon="1.12798">
        <ele>122.266937</ele>
        <time>2019-08-17T14:14:27Z</time>
      </trkpt>
      <trkpt lat="44.47187" lon="1.12795">
        <ele>122.709679</ele>
        <time>2019-08-17T14:14:28Z</time>
      </trkpt>
      <trkpt lat="44.47184" lon="1.12793">
        <ele>123.212067</ele>
        <time>2019-08-17T14:14:29Z</time>
      </trkpt>
      <trkpt lat="44.47179" lon="1.12791">
        <ele>123.779755</ele>
        <time>2019-08-17T14:14:30Z</time>
      </trkpt>
      <trkpt lat="44.47175" lon="1.1279">
        <ele>124.370903</ele>
        <time>2019-08-17T14:14:31Z</time>
      </trkpt>
      <trkpt lat="44.4717" lon="1.12788">
        <ele>124.951691</ele>
        <time>2019-08-17T14:14:32Z</time>
      </trkpt>
      <trkpt lat="44.47166" lon="1.12786">
        <ele>125.528313</ele>
        <time>2019-08-17T14:14:33Z</time>
      </trkpt>
      <trkpt lat="44.47162" lon="1.12783">
        <ele>126.022621</ele>
        <time>2019-08-17T14:14:34Z</time>
      </trkpt>
      <trkpt lat="44.47158" lon="1.1278">
        <ele>126.511383</ele>
        <time>2019-08-17T14:14:35Z</time>
      </trkpt>
      <trkpt lat="44.47154" lon="1.12778">
        <ele>126.995506</ele>
        <time>2019-08-17T14:14:36Z</time>
      </trkpt>
      <trkpt lat="44.4715" lon="1.12775">
        <ele>127.474541</ele>
        <time>2019-08-17T14:14:37Z</time>
      </trkpt>
      <trkpt lat="44.47146" lon="1.12772">
        <ele>127.953087</ele>
        <time>2019-08-17T14:14:38Z</time>
      </trkpt>
      <trkpt lat="44.47141" lon="1.1277">
        <ele>128.431656</ele>
        <time>2019-08-17T14:14:39Z</time>
      </trkpt>
      <trkpt lat="44.47137" lon="1.12767">
        <ele>128.909744</ele>
        <time>2019-08-17T14:14:40Z</time>
      </trkpt>
      <trkpt lat="44.47133" lon="1.12765">
        <ele>129.380447</ele>
        <time>2019-08-17T14:14:41Z</time>
      </trkpt>
      <trkpt lat="44.47129" lon="1.12762">
        <ele>129.836304</ele>
        <time>2019-08-17T14:14:42Z</time>
      </trkpt>
      <trkpt lat="44.47124" lon="1.12761">
        <ele>130.278687</ele>
        <time>2019-08-17T14:14:43Z</time>
      </trkpt>
      <trkpt lat="44.4712" lon="1.12759">
        <ele>130.704926</ele>
        <time>2019-08-17T14:14:44Z</time>
      </trkpt>
      <trkpt lat="44.47116" lon="1.12757">
        <ele>131.110138</ele>
        <time>2019-08-17T14:14:45Z</time>
      </trkpt>
      <trkpt lat="44.47112" lon="1.12756">
        <ele>131.426743</ele>
        <time>2019-08-17T14:14:46Z</time>
      </trkpt>
      <trkpt lat="44.47107" lon="1.12754">
        <ele>131.661209</ele>
        <time>2019-08-17T14:14:47Z</time>
      </trkpt>
      <trkpt lat="44.47103" lon="1.12753">
        <ele>131.810715</ele>
        <time>2019-08-17T14:14:48Z</time>
      </trkpt>
      <trkpt lat="44.47099" lon="1.12752">
        <ele>131.873093</ele>
        <time>2019-08-17T14:14:49Z</time>
      </trkpt>
      <trkpt lat="44.47094" lon="1.12751">
        <ele>131.873093</ele>
        <time>2019-08-17T14:14:50Z</time>
      </trkpt>
      <trkpt lat="44.4709" lon="1.1275">
        <ele>131.873093</ele>
        <time>2019-08-17T14:14:51Z</time>
      </trkpt>
      <trkpt lat="44.47085" lon="1.1275">
        <ele>131.847015</ele>
        <time>2019-08-17T14:14:52Z</time>
      </trkpt>
      <trkpt lat="44.4708" lon="1.12749">
        <ele>131.740128</ele>
        <time>2019-08-17T14:14:53Z</time>
      </trkpt>
      <trkpt lat="44.47075" lon="1.12749">
        <ele>131.616989</ele>
        <time>2019-08-17T14:14:54Z</time>
      </trkpt>
      <trkpt lat="44.47071" lon="1.12749">
        <ele>131.474686</ele>
        <time>2019-08-17T14:14:55Z</time>
      </trkpt>
      <trkpt lat="44.47066" lon="1.12748">
        <ele>131.316177</ele>
        <time>2019-08-17T14:14:56Z</time>
      </trkpt>
      <trkpt lat="44.47062" lon="1.12748">
        <ele>131.145523</ele>
        <time>2019-08-17T14:14:57Z</time>
      </trkpt>
      <trkpt lat="44.47057" lon="1.12746">
        <ele>130.965561</ele>
        <time>2019-08-17T14:14:58Z</time>
      </trkpt>
      <trkpt lat="44.47052" lon="1.12744">
        <ele>130.777344</ele>
        <time>2019-08-17T14:14:59Z</time>
      </trkpt>
      <trkpt lat="44.47048" lon="1.12742">
        <ele>130.777344</ele>
        <time>2019-08-17T14:15:00Z</time>
      </trkpt>
      <trkpt lat="44.47044" lon="1.12739">
        <ele>130.760071</ele>
        <time>2019-08-17T14:15:01Z</time>
      </trkpt>
      <trkpt lat="44.47039" lon="1.12736">
        <ele>130.760071</ele>
        <time>2019-08-17T14:15:02Z</time>
      </trkpt>
      <trkpt lat="44.47036" lon="1.12732">
        <ele>130.760071</ele>
        <time>2019-08-17T14:15:03Z</time>
      </trkpt>
      <trkpt lat="44.47032" lon="1.12729">
        <ele>130.873352</ele>
        <time>2019-08-17T14:15:04Z</time>
      </trkpt>
      <trkpt lat="44.47028" lon="1.12725">
        <ele>131.143692</ele>
        <time>2019-08-17T14:15:05Z</time>
      </trkpt>
      <trkpt lat="44.47024" lon="1.12721">
        <ele>131.588821</ele>
        <time>2019-08-17T14:15:06Z</time>
      </trkpt>
      <trkpt lat="44.4702" lon="1.12718">
        <ele>132.204224</ele>
        <time>2019-08-17T14:15:07Z</time>
      </trkpt>
      <trkpt lat="44.47016" lon="1.12714">
        <ele>133.00322</ele>
        <time>2019-08-17T14:15:08Z</time>
      </trkpt>
      <trkpt lat="44.47011" lon="1.12711">
        <ele>133.810226</ele>
        <time>2019-08-17T14:15:09Z</time>
      </trkpt>
      <trkpt lat="44.47007" lon="1.12709">
        <ele>134.657837</ele>
        <time>2019-08-17T14:15:10Z</time>
      </trkpt>
      <trkpt lat="44.47002" lon="1.12707">
        <ele>135.504761</ele>
        <time>2019-08-17T14:15:11Z</time>
      </trkpt>
      <trkpt lat="44.46998" lon="1.12705">
        <ele>136.301498</ele>
        <time>2019-08-17T14:15:12Z</time>
      </trkpt>
      <trkpt lat="44.46993" lon="1.12704">
        <ele>137.02626</ele>
        <time>2019-08-17T14:15:13Z</time>
      </trkpt>
      <trkpt lat="44.46989" lon="1.12703">
        <ele>137.647034</ele>
        <time>2019-08-17T14:15:14Z</time>
      </trkpt>
      <trkpt lat="44.46984" lon="1.12702">
        <ele>138.146988</ele>
        <time>2019-08-17T14:15:15Z</time>
      </trkpt>
      <trkpt lat="44.4698" lon="1.12702">
        <ele>138.43988</ele>
        <time>2019-08-17T14:15:16Z</time>
      </trkpt>
      <trkpt lat="44.46975" lon="1.12702">
        <ele>138.516006</ele>
        <time>2019-08-17T14:15:17Z</time>
      </trkpt>
      <trkpt lat="44.4697" lon="1.12703">
        <ele>138.516006</ele>
        <time>2019-08-17T14:15:18Z</time>
      </trkpt>
      <trkpt lat="44.46965" lon="1.12703">
        <ele>138.516006</ele>
        <time>2019-08-17T14:15:19Z</time>
      </trkpt>
      <trkpt lat="44.46961" lon="1.12703">
        <ele>138.406494</ele>
        <time>2019-08-17T14:15:20Z</time>
      </trkpt>
      <trkpt lat="44.46956" lon="1.12704">
        <ele>138.121704</ele>
        <time>2019-08-17T14:15:21Z</time>
      </trkpt>
      <trkpt lat="44.46951" lon="1.12705">
        <ele>137.676712</ele>
        <time>2019-08-17T14:15:22Z</time>
      </trkpt>
      <trkpt lat="44.46946" lon="1.12705">
        <ele>137.093506</ele>
        <time>2019-08-17T14:15:23Z</time>
      </trkpt>
      <trkpt lat="44.46941" lon="1.12705">
        <ele>136.462173</ele>
        <time>2019-08-17T14:15:24Z</time>
      </trkpt>
      <trkpt lat="44.46936" lon="1.12706">
        <ele>135.796219</ele>
        <time>2019-08-17T14:15:25Z</time>
      </trkpt>
      <trkpt lat="44.46932" lon="1.12707">
        <ele>135.108688</ele>
        <time>2019-08-17T14:15:26Z</time>
      </trkpt>
      <trkpt lat="44.46927" lon="1.12708">
        <ele>134.424652</ele>
        <time>2019-08-17T14:15:27Z</time>
      </trkpt>
      <trkpt lat="44.46922" lon="1.12708">
        <ele>133.735428</ele>
        <time>2019-08-17T14:15:28Z</time>
      </trkpt>
      <trkpt lat="44.46918" lon="1.12709">
        <ele>133.038345</ele>
        <time>2019-08-17T14:15:29Z</time>
      </trkpt>
      <trkpt lat="44.46913" lon="1.12709">
        <ele>132.352493</ele>
        <time>2019-08-17T14:15:30Z</time>
      </trkpt>
      <trkpt lat="44.46909" lon="1.1271">
        <ele>132.352493</ele>
        <time>2019-08-17T14:15:31Z</time>
      </trkpt>
      <trkpt lat="44.46904" lon="1.12711">
        <ele>131.696945</ele>
        <time>2019-08-17T14:15:32Z</time>
      </trkpt>
      <trkpt lat="44.46899" lon="1.12711">
        <ele>131.139389</ele>
        <time>2019-08-17T14:15:33Z</time>
      </trkpt>
      <trkpt lat="44.46894" lon="1.12711">
        <ele>130.658157</ele>
        <time>2019-08-17T14:15:34Z</time>
      </trkpt>
      <trkpt lat="44.46889" lon="1.12712">
        <ele>130.27916</ele>
        <time>2019-08-17T14:15:35Z</time>
      </trkpt>
      <trkpt lat="44.46885" lon="1.12712">
        <ele>130.004807</ele>
        <time>2019-08-17T14:15:36Z</time>
      </trkpt>
      <trkpt lat="44.46879" lon="1.12713">
        <ele>129.827637</ele>
        <time>2019-08-17T14:15:37Z</time>
      </trkpt>
      <trkpt lat="44.46875" lon="1.12713">
        <ele>129.740372</ele>
        <time>2019-08-17T14:15:38Z</time>
      </trkpt>
      <trkpt lat="44.4687" lon="1.12712">
        <ele>129.664917</ele>
        <time>2019-08-17T14:15:39Z</time>
      </trkpt>
      <trkpt lat="44.46866" lon="1.1271">
        <ele>129.62001</ele>
        <time>2019-08-17T14:15:40Z</time>
      </trkpt>
      <trkpt lat="44.46861" lon="1.12709">
        <ele>129.596115</ele>
        <time>2019-08-17T14:15:41Z</time>
      </trkpt>
      <trkpt lat="44.46857" lon="1.12707">
        <ele>129.587158</ele>
        <time>2019-08-17T14:15:42Z</time>
      </trkpt>
      <trkpt lat="44.46853" lon="1.12704">
        <ele>129.58699</ele>
        <time>2019-08-17T14:15:43Z</time>
      </trkpt>
      <trkpt lat="44.4685" lon="1.12702">
        <ele>129.58699</ele>
        <time>2019-08-17T14:15:44Z</time>
      </trkpt>
      <trkpt lat="44.46848" lon="1.127">
        <ele>129.58699</ele>
        <time>2019-08-17T14:15:45Z</time>
      </trkpt>
      <trkpt lat="44.46846" lon="1.127">
        <ele>129.61824</ele>
        <time>2019-08-17T14:15:46Z</time>
      </trkpt>
      <trkpt lat="44.46845" lon="1.12702">
        <ele>129.80751</ele>
        <time>2019-08-17T14:15:47Z</time>
      </trkpt>
      <trkpt lat="44.46845" lon="1.12704">
        <ele>130.12468</ele>
        <time>2019-08-17T14:15:48Z</time>
      </trkpt>
      <trkpt lat="44.46847" lon="1.12707">
        <ele>130.533813</ele>
        <time>2019-08-17T14:15:49Z</time>
      </trkpt>
      <trkpt lat="44.4685" lon="1.1271">
        <ele>130.845261</ele>
        <time>2019-08-17T14:15:50Z</time>
      </trkpt>
      <trkpt lat="44.46854" lon="1.12713">
        <ele>130.991165</ele>
        <time>2019-08-17T14:15:51Z</time>
      </trkpt>
      <trkpt lat="44.46858" lon="1.12716">
        <ele>130.991165</ele>
        <time>2019-08-17T14:15:52Z</time>
      </trkpt>
      <trkpt lat="44.46861" lon="1.12718">
        <ele>130.991165</ele>
        <time>2019-08-17T14:15:53Z</time>
      </trkpt>
      <trkpt lat="44.46865" lon="1.1272">
        <ele>130.991165</ele>
        <time>2019-08-17T14:15:54Z</time>
      </trkpt>
      <trkpt lat="44.46869" lon="1.1272">
        <ele>130.94577</ele>
        <time>2019-08-17T14:15:55Z</time>
      </trkpt>
      <trkpt lat="44.46872" lon="1.12718">
        <ele>130.72348</ele>
        <time>2019-08-17T14:15:56Z</time>
      </trkpt>
      <trkpt lat="44.46872" lon="1.12714">
        <ele>130.359726</ele>
        <time>2019-08-17T14:15:57Z</time>
      </trkpt>
      <trkpt lat="44.46872" lon="1.12711">
        <ele>129.923935</ele>
        <time>2019-08-17T14:15:58Z</time>
      </trkpt>
      <trkpt lat="44.4687" lon="1.12709">
        <ele>129.605835</ele>
        <time>2019-08-17T14:15:59Z</time>
      </trkpt>
      <trkpt lat="44.46868" lon="1.12707">
        <ele>129.469055</ele>
        <time>2019-08-17T14:16:00Z</time>
      </trkpt>
      <trkpt lat="44.46865" lon="1.12705">
        <ele>129.469055</ele>
        <time>2019-08-17T14:16:01Z</time>
      </trkpt>
      <trkpt lat="44.46862" lon="1.12703">
        <ele>129.469055</ele>
        <time>2019-08-17T14:16:02Z</time>
      </trkpt>
      <trkpt lat="44.4686" lon="1.12701">
        <ele>129.469055</ele>
        <time>2019-08-17T14:16:03Z</time>
      </trkpt>
      <trkpt lat="44.46858" lon="1.12699">
        <ele>129.511292</ele>
        <time>2019-08-17T14:16:04Z</time>
      </trkpt>
      <trkpt lat="44.46856" lon="1.12696">
        <ele>129.585693</ele>
        <time>2019-08-17T14:16:05Z</time>
      </trkpt>
      <trkpt lat="44.46854" lon="1.12694">
        <ele>129.674866</ele>
        <time>2019-08-17T14:16:06Z</time>
      </trkpt>
      <trkpt lat="44.46851" lon="1.12691">
        <ele>129.732727</ele>
        <time>2019-08-17T14:16:07Z</time>
      </trkpt>
      <trkpt lat="44.46849" lon="1.12688">
        <ele>129.773239</ele>
        <time>2019-08-17T14:16:08Z</time>
      </trkpt>
      <trkpt lat="44.46848" lon="1.12683">
        <ele>129.796326</ele>
        <time>2019-08-17T14:16:09Z</time>
      </trkpt>
      <trkpt lat="44.46847" lon="1.12679">
        <ele>129.93013</ele>
        <time>2019-08-17T14:16:10Z</time>
      </trkpt>
      <trkpt lat="44.46846" lon="1.12674">
        <ele>130.168472</ele>
        <time>2019-08-17T14:16:11Z</time>
      </trkpt>
      <trkpt lat="44.46845" lon="1.12669">
        <ele>130.48465</ele>
        <time>2019-08-17T14:16:12Z</time>
      </trkpt>
      <trkpt lat="44.46844" lon="1.12665">
        <ele>130.836594</ele>
        <time>2019-08-17T14:16:13Z</time>
      </trkpt>
      <trkpt lat="44.46843" lon="1.12661">
        <ele>131.263779</ele>
        <time>2019-08-17T14:16:14Z</time>
      </trkpt>
      <trkpt lat="44.46841" lon="1.12657">
        <ele>131.799896</ele>
        <time>2019-08-17T14:16:15Z</time>
      </trkpt>
      <trkpt lat="44.46839" lon="1.12653">
        <ele>132.337906</ele>
        <time>2019-08-17T14:16:16Z</time>
      </trkpt>
      <trkpt lat="44.46837" lon="1.12649">
        <ele>132.871231</ele>
        <time>2019-08-17T14:16:17Z</time>
      </trkpt>
      <trkpt lat="44.46835" lon="1.12646">
        <ele>133.43309</ele>
        <time>2019-08-17T14:16:18Z</time>
      </trkpt>
      <trkpt lat="44.46833" lon="1.12643">
        <ele>134.080399</ele>
        <time>2019-08-17T14:16:19Z</time>
      </trkpt>
      <trkpt lat="44.46832" lon="1.1264">
        <ele>134.781357</ele>
        <time>2019-08-17T14:16:20Z</time>
      </trkpt>
      <trkpt lat="44.4683" lon="1.12637">
        <ele>135.498276</ele>
        <time>2019-08-17T14:16:21Z</time>
      </trkpt>
      <trkpt lat="44.46829" lon="1.12633">
        <ele>136.209015</ele>
        <time>2019-08-17T14:16:22Z</time>
      </trkpt>
      <trkpt lat="44.46827" lon="1.12629">
        <ele>136.209015</ele>
        <time>2019-08-17T14:16:23Z</time>
      </trkpt>
      <trkpt lat="44.46826" lon="1.12625">
        <ele>136.918564</ele>
        <time>2019-08-17T14:16:24Z</time>
      </trkpt>
      <trkpt lat="44.46824" lon="1.12621">
        <ele>137.609375</ele>
        <time>2019-08-17T14:16:25Z</time>
      </trkpt>
      <trkpt lat="44.46822" lon="1.12617">
        <ele>138.370026</ele>
        <time>2019-08-17T14:16:26Z</time>
      </trkpt>
      <trkpt lat="44.4682" lon="1.12613">
        <ele>139.111038</ele>
        <time>2019-08-17T14:16:27Z</time>
      </trkpt>
      <trkpt lat="44.46817" lon="1.12609">
        <ele>139.844238</ele>
        <time>2019-08-17T14:16:28Z</time>
      </trkpt>
      <trkpt lat="44.46815" lon="1.12605">
        <ele>140.576828</ele>
        <time>2019-08-17T14:16:29Z</time>
      </trkpt>
      <trkpt lat="44.46813" lon="1.12601">
        <ele>141.3358</ele>
        <time>2019-08-17T14:16:30Z</time>
      </trkpt>
      <trkpt lat="44.46811" lon="1.12598">
        <ele>142.141403</ele>
        <time>2019-08-17T14:16:31Z</time>
      </trkpt>
      <trkpt lat="44.4681" lon="1.12594">
        <ele>142.89682</ele>
        <time>2019-08-17T14:16:32Z</time>
      </trkpt>
      <trkpt lat="44.46809" lon="1.12592">
        <ele>143.673416</ele>
        <time>2019-08-17T14:16:33Z</time>
      </trkpt>
      <trkpt lat="44.46809" lon="1.1259">
        <ele>144.434875</ele>
        <time>2019-08-17T14:16:34Z</time>
      </trkpt>
      <trkpt lat="44.46808" lon="1.1259">
        <ele>145.143799</ele>
        <time>2019-08-17T14:16:35Z</time>
      </trkpt>
      <trkpt lat="44.46808" lon="1.12588">
        <ele>145.760178</ele>
        <time>2019-08-17T14:16:36Z</time>
      </trkpt>
      <trkpt lat="44.46808" lon="1.12587">
        <ele>146.268723</ele>
        <time>2019-08-17T14:16:37Z</time>
      </trkpt>
      <trkpt lat="44.46807" lon="1.12585">
        <ele>146.664795</ele>
        <time>2019-08-17T14:16:38Z</time>
      </trkpt>
      <trkpt lat="44.46806" lon="1.12584">
        <ele>146.950638</ele>
        <time>2019-08-17T14:16:39Z</time>
      </trkpt>
      <trkpt lat="44.46806" lon="1.12582">
        <ele>147.156448</ele>
        <time>2019-08-17T14:16:40Z</time>
      </trkpt>
      <trkpt lat="44.46805" lon="1.1258">
        <ele>147.337967</ele>
        <time>2019-08-17T14:16:41Z</time>
      </trkpt>
      <trkpt lat="44.46804" lon="1.12579">
        <ele>147.337967</ele>
        <time>2019-08-17T14:16:42Z</time>
      </trkpt>
      <trkpt lat="44.46804" lon="1.12578">
        <ele>147.515945</ele>
        <time>2019-08-17T14:16:43Z</time>
      </trkpt>
      <trkpt lat="44.46803" lon="1.12576">
        <ele>147.687866</ele>
        <time>2019-08-17T14:16:44Z</time>
      </trkpt>
      <trkpt lat="44.46802" lon="1.12575">
        <ele>147.890366</ele>
        <time>2019-08-17T14:16:45Z</time>
      </trkpt>
      <trkpt lat="44.46801" lon="1.12574">
        <ele>148.115479</ele>
        <time>2019-08-17T14:16:46Z</time>
      </trkpt>
      <trkpt lat="44.46801" lon="1.12573">
        <ele>148.362869</ele>
        <time>2019-08-17T14:16:47Z</time>
      </trkpt>
      <trkpt lat="44.46797" lon="1.1256">
        <ele>149.607773</ele>
        <time>2019-08-17T14:16:58Z</time>
      </trkpt>
      <trkpt lat="44.46796" lon="1.12557">
        <ele>149.67189</ele>
        <time>2019-08-17T14:17:00Z</time>
      </trkpt>
      <trkpt lat="44.46795" lon="1.12553">
        <ele>149.774963</ele>
        <time>2019-08-17T14:17:01Z</time>
      </trkpt>
      <trkpt lat="44.46795" lon="1.1255">
        <ele>149.774963</ele>
        <time>2019-08-17T14:17:02Z</time>
      </trkpt>
      <trkpt lat="44.46794" lon="1.12547">
        <ele>149.944031</ele>
        <time>2019-08-17T14:17:03Z</time>
      </trkpt>
      <trkpt lat="44.46793" lon="1.12544">
        <ele>150.145416</ele>
        <time>2019-08-17T14:17:04Z</time>
      </trkpt>
      <trkpt lat="44.46792" lon="1.1254">
        <ele>150.410187</ele>
        <time>2019-08-17T14:17:05Z</time>
      </trkpt>
      <trkpt lat="44.46791" lon="1.12537">
        <ele>150.68576</ele>
        <time>2019-08-17T14:17:06Z</time>
      </trkpt>
      <trkpt lat="44.4679" lon="1.12533">
        <ele>150.962265</ele>
        <time>2019-08-17T14:17:07Z</time>
      </trkpt>
      <trkpt lat="44.46789" lon="1.12529">
        <ele>151.236389</ele>
        <time>2019-08-17T14:17:08Z</time>
      </trkpt>
      <trkpt lat="44.46788" lon="1.12526">
        <ele>151.465897</ele>
        <time>2019-08-17T14:17:09Z</time>
      </trkpt>
      <trkpt lat="44.46787" lon="1.12523">
        <ele>151.69664</ele>
        <time>2019-08-17T14:17:10Z</time>
      </trkpt>
      <trkpt lat="44.46786" lon="1.1252">
        <ele>151.903198</ele>
        <time>2019-08-17T14:17:11Z</time>
      </trkpt>
      <trkpt lat="44.46785" lon="1.12517">
        <ele>152.104172</ele>
        <time>2019-08-17T14:17:12Z</time>
      </trkpt>
      <trkpt lat="44.46784" lon="1.12515">
        <ele>152.289536</ele>
        <time>2019-08-17T14:17:13Z</time>
      </trkpt>
      <trkpt lat="44.46783" lon="1.12511">
        <ele>152.458969</ele>
        <time>2019-08-17T14:17:14Z</time>
      </trkpt>
      <trkpt lat="44.46782" lon="1.12508">
        <ele>152.625977</ele>
        <time>2019-08-17T14:17:15Z</time>
      </trkpt>
      <trkpt lat="44.46781" lon="1.12504">
        <ele>152.808334</ele>
        <time>2019-08-17T14:17:16Z</time>
      </trkpt>
      <trkpt lat="44.46779" lon="1.12501">
        <ele>153.001785</ele>
        <time>2019-08-17T14:17:17Z</time>
      </trkpt>
      <trkpt lat="44.46778" lon="1.12498">
        <ele>153.212143</ele>
        <time>2019-08-17T14:17:18Z</time>
      </trkpt>
      <trkpt lat="44.46776" lon="1.12495">
        <ele>153.447662</ele>
        <time>2019-08-17T14:17:19Z</time>
      </trkpt>
      <trkpt lat="44.46775" lon="1.12492">
        <ele>153.714981</ele>
        <time>2019-08-17T14:17:20Z</time>
      </trkpt>
      <trkpt lat="44.46774" lon="1.12489">
        <ele>153.714981</ele>
        <time>2019-08-17T14:17:21Z</time>
      </trkpt>
      <trkpt lat="44.46773" lon="1.12486">
        <ele>154.012009</ele>
        <time>2019-08-17T14:17:22Z</time>
      </trkpt>
      <trkpt lat="44.46772" lon="1.12484">
        <ele>154.31456</ele>
        <time>2019-08-17T14:17:23Z</time>
      </trkpt>
      <trkpt lat="44.4677" lon="1.12481">
        <ele>154.656799</ele>
        <time>2019-08-17T14:17:24Z</time>
      </trkpt>
      <trkpt lat="44.46769" lon="1.12479">
        <ele>154.971695</ele>
        <time>2019-08-17T14:17:25Z</time>
      </trkpt>
      <trkpt lat="44.46767" lon="1.12476">
        <ele>155.273056</ele>
        <time>2019-08-17T14:17:26Z</time>
      </trkpt>
      <trkpt lat="44.46766" lon="1.12474">
        <ele>155.568207</ele>
        <time>2019-08-17T14:17:27Z</time>
      </trkpt>
      <trkpt lat="44.46764" lon="1.12473">
        <ele>155.568207</ele>
        <time>2019-08-17T14:17:28Z</time>
      </trkpt>
      <trkpt lat="44.46763" lon="1.12471">
        <ele>155.858902</ele>
        <time>2019-08-17T14:17:29Z</time>
      </trkpt>
      <trkpt lat="44.46762" lon="1.12469">
        <ele>156.135818</ele>
        <time>2019-08-17T14:17:30Z</time>
      </trkpt>
      <trkpt lat="44.46762" lon="1.12467">
        <ele>156.405685</ele>
        <time>2019-08-17T14:17:31Z</time>
      </trkpt>
      <trkpt lat="44.46761" lon="1.12466">
        <ele>156.68631</ele>
        <time>2019-08-17T14:17:32Z</time>
      </trkpt>
      <trkpt lat="44.46761" lon="1.12465">
        <ele>157.317612</ele>
        <time>2019-08-17T14:17:34Z</time>
      </trkpt>
      <trkpt lat="44.4676" lon="1.12464">
        <ele>157.449829</ele>
        <time>2019-08-17T14:17:36Z</time>
      </trkpt>
      <trkpt lat="44.46759" lon="1.12462">
        <ele>157.503326</ele>
        <time>2019-08-17T14:17:37Z</time>
      </trkpt>
      <trkpt lat="44.46759" lon="1.12461">
        <ele>157.532852</ele>
        <time>2019-08-17T14:17:38Z</time>
      </trkpt>
      <trkpt lat="44.46759" lon="1.1246">
        <ele>157.575089</ele>
        <time>2019-08-17T14:17:39Z</time>
      </trkpt>
      <trkpt lat="44.46758" lon="1.12459">
        <ele>157.615585</ele>
        <time>2019-08-17T14:17:40Z</time>
      </trkpt>
      <trkpt lat="44.46758" lon="1.12458">
        <ele>157.64801</ele>
        <time>2019-08-17T14:17:41Z</time>
      </trkpt>
      <trkpt lat="44.46757" lon="1.12457">
        <ele>157.681931</ele>
        <time>2019-08-17T14:17:42Z</time>
      </trkpt>
      <trkpt lat="44.46756" lon="1.12456">
        <ele>157.71759</ele>
        <time>2019-08-17T14:17:43Z</time>
      </trkpt>
      <trkpt lat="44.46756" lon="1.12455">
        <ele>157.71759</ele>
        <time>2019-08-17T14:17:44Z</time>
      </trkpt>
      <trkpt lat="44.46756" lon="1.12453">
        <ele>157.748947</ele>
        <time>2019-08-17T14:17:45Z</time>
      </trkpt>
      <trkpt lat="44.46755" lon="1.12452">
        <ele>157.784546</ele>
        <time>2019-08-17T14:17:46Z</time>
      </trkpt>
      <trkpt lat="44.46755" lon="1.12451">
        <ele>157.784546</ele>
        <time>2019-08-17T14:17:47Z</time>
      </trkpt>
      <trkpt lat="44.46755" lon="1.1245">
        <ele>157.815491</ele>
        <time>2019-08-17T14:17:48Z</time>
      </trkpt>
      <trkpt lat="44.46751" lon="1.12438">
        <ele>157.907974</ele>
        <time>2019-08-17T14:17:57Z</time>
      </trkpt>
      <trkpt lat="44.4675" lon="1.12434">
        <ele>157.897354</ele>
        <time>2019-08-17T14:17:59Z</time>
      </trkpt>
      <trkpt lat="44.46749" lon="1.1243">
        <ele>157.88533</ele>
        <time>2019-08-17T14:18:00Z</time>
      </trkpt>
      <trkpt lat="44.46748" lon="1.12427">
        <ele>157.88533</ele>
        <time>2019-08-17T14:18:01Z</time>
      </trkpt>
      <trkpt lat="44.46748" lon="1.12423">
        <ele>157.871506</ele>
        <time>2019-08-17T14:18:02Z</time>
      </trkpt>
      <trkpt lat="44.46747" lon="1.1242">
        <ele>157.848495</ele>
        <time>2019-08-17T14:18:03Z</time>
      </trkpt>
      <trkpt lat="44.46745" lon="1.12416">
        <ele>157.848495</ele>
        <time>2019-08-17T14:18:04Z</time>
      </trkpt>
      <trkpt lat="44.46745" lon="1.12413">
        <ele>157.809586</ele>
        <time>2019-08-17T14:18:05Z</time>
      </trkpt>
      <trkpt lat="44.46745" lon="1.12409">
        <ele>157.751068</ele>
        <time>2019-08-17T14:18:06Z</time>
      </trkpt>
      <trkpt lat="44.46746" lon="1.12405">
        <ele>157.675766</ele>
        <time>2019-08-17T14:18:07Z</time>
      </trkpt>
      <trkpt lat="44.46746" lon="1.124">
        <ele>157.567734</ele>
        <time>2019-08-17T14:18:08Z</time>
      </trkpt>
      <trkpt lat="44.46746" lon="1.12397">
        <ele>157.41655</ele>
        <time>2019-08-17T14:18:09Z</time>
      </trkpt>
      <trkpt lat="44.46747" lon="1.12393">
        <ele>157.222565</ele>
        <time>2019-08-17T14:18:10Z</time>
      </trkpt>
      <trkpt lat="44.46747" lon="1.1239">
        <ele>157.006912</ele>
        <time>2019-08-17T14:18:11Z</time>
      </trkpt>
      <trkpt lat="44.46748" lon="1.12387">
        <ele>156.78212</ele>
        <time>2019-08-17T14:18:12Z</time>
      </trkpt>
      <trkpt lat="44.46748" lon="1.12383">
        <ele>156.541458</ele>
        <time>2019-08-17T14:18:13Z</time>
      </trkpt>
      <trkpt lat="44.46749" lon="1.1238">
        <ele>156.307678</ele>
        <time>2019-08-17T14:18:14Z</time>
      </trkpt>
      <trkpt lat="44.46749" lon="1.12376">
        <ele>156.090469</ele>
        <time>2019-08-17T14:18:15Z</time>
      </trkpt>
      <trkpt lat="44.4675" lon="1.12373">
        <ele>155.896866</ele>
        <time>2019-08-17T14:18:16Z</time>
      </trkpt>
      <trkpt lat="44.46751" lon="1.12369">
        <ele>155.715347</ele>
        <time>2019-08-17T14:18:17Z</time>
      </trkpt>
      <trkpt lat="44.46751" lon="1.12365">
        <ele>155.539505</ele>
        <time>2019-08-17T14:18:18Z</time>
      </trkpt>
      <trkpt lat="44.46751" lon="1.12361">
        <ele>155.368347</ele>
        <time>2019-08-17T14:18:19Z</time>
      </trkpt>
      <trkpt lat="44.46751" lon="1.12357">
        <ele>155.194077</ele>
        <time>2019-08-17T14:18:20Z</time>
      </trkpt>
      <trkpt lat="44.46751" lon="1.12353">
        <ele>155.017868</ele>
        <time>2019-08-17T14:18:21Z</time>
      </trkpt>
      <trkpt lat="44.4675" lon="1.12349">
        <ele>154.844193</ele>
        <time>2019-08-17T14:18:22Z</time>
      </trkpt>
      <trkpt lat="44.4675" lon="1.12346">
        <ele>154.674744</ele>
        <time>2019-08-17T14:18:23Z</time>
      </trkpt>
      <trkpt lat="44.46749" lon="1.12342">
        <ele>154.674744</ele>
        <time>2019-08-17T14:18:24Z</time>
      </trkpt>
      <trkpt lat="44.46749" lon="1.12337">
        <ele>154.513596</ele>
        <time>2019-08-17T14:18:25Z</time>
      </trkpt>
      <trkpt lat="44.46748" lon="1.12333">
        <ele>154.364258</ele>
        <time>2019-08-17T14:18:26Z</time>
      </trkpt>
      <trkpt lat="44.46748" lon="1.12329">
        <ele>154.199661</ele>
        <time>2019-08-17T14:18:27Z</time>
      </trkpt>
      <trkpt lat="44.46747" lon="1.12325">
        <ele>154.055145</ele>
        <time>2019-08-17T14:18:28Z</time>
      </trkpt>
      <trkpt lat="44.46746" lon="1.1232">
        <ele>153.954895</ele>
        <time>2019-08-17T14:18:29Z</time>
      </trkpt>
      <trkpt lat="44.46745" lon="1.12316">
        <ele>153.896225</ele>
        <time>2019-08-17T14:18:30Z</time>
      </trkpt>
      <trkpt lat="44.46743" lon="1.12312">
        <ele>153.872818</ele>
        <time>2019-08-17T14:18:31Z</time>
      </trkpt>
      <trkpt lat="44.46742" lon="1.12308">
        <ele>153.872818</ele>
        <time>2019-08-17T14:18:32Z</time>
      </trkpt>
      <trkpt lat="44.46741" lon="1.12305">
        <ele>153.872818</ele>
        <time>2019-08-17T14:18:33Z</time>
      </trkpt>
      <trkpt lat="44.4674" lon="1.12301">
        <ele>153.872818</ele>
        <time>2019-08-17T14:18:34Z</time>
      </trkpt>
      <trkpt lat="44.46739" lon="1.12298">
        <ele>153.879227</ele>
        <time>2019-08-17T14:18:35Z</time>
      </trkpt>
      <trkpt lat="44.46737" lon="1.12295">
        <ele>153.940353</ele>
        <time>2019-08-17T14:18:36Z</time>
      </trkpt>
      <trkpt lat="44.46736" lon="1.12292">
        <ele>154.019958</ele>
        <time>2019-08-17T14:18:37Z</time>
      </trkpt>
      <trkpt lat="44.46735" lon="1.12289">
        <ele>154.07814</ele>
        <time>2019-08-17T14:18:38Z</time>
      </trkpt>
      <trkpt lat="44.46732" lon="1.12286">
        <ele>154.113052</ele>
        <time>2019-08-17T14:18:39Z</time>
      </trkpt>
      <trkpt lat="44.4673" lon="1.12283">
        <ele>154.123596</ele>
        <time>2019-08-17T14:18:40Z</time>
      </trkpt>
      <trkpt lat="44.46728" lon="1.1228">
        <ele>154.123596</ele>
        <time>2019-08-17T14:18:41Z</time>
      </trkpt>
      <trkpt lat="44.46726" lon="1.12276">
        <ele>154.123596</ele>
        <time>2019-08-17T14:18:42Z</time>
      </trkpt>
      <trkpt lat="44.46723" lon="1.12274">
        <ele>154.107407</ele>
        <time>2019-08-17T14:18:43Z</time>
      </trkpt>
      <trkpt lat="44.46721" lon="1.12272">
        <ele>154.062057</ele>
        <time>2019-08-17T14:18:44Z</time>
      </trkpt>
      <trkpt lat="44.46718" lon="1.1227">
        <ele>153.985474</ele>
        <time>2019-08-17T14:18:45Z</time>
      </trkpt>
      <trkpt lat="44.46715" lon="1.12269">
        <ele>153.884216</ele>
        <time>2019-08-17T14:18:46Z</time>
      </trkpt>
      <trkpt lat="44.46713" lon="1.12267">
        <ele>153.756714</ele>
        <time>2019-08-17T14:18:47Z</time>
      </trkpt>
      <trkpt lat="44.4671" lon="1.12266">
        <ele>153.685974</ele>
        <time>2019-08-17T14:18:48Z</time>
      </trkpt>
      <trkpt lat="44.46708" lon="1.12264">
        <ele>153.685974</ele>
        <time>2019-08-17T14:18:49Z</time>
      </trkpt>
      <trkpt lat="44.46706" lon="1.12261">
        <ele>153.685974</ele>
        <time>2019-08-17T14:18:50Z</time>
      </trkpt>
      <trkpt lat="44.46704" lon="1.1226">
        <ele>153.702499</ele>
        <time>2019-08-17T14:18:51Z</time>
      </trkpt>
      <trkpt lat="44.46702" lon="1.12258">
        <ele>153.702499</ele>
        <time>2019-08-17T14:18:52Z</time>
      </trkpt>
      <trkpt lat="44.467" lon="1.12256">
        <ele>153.813187</ele>
        <time>2019-08-17T14:18:53Z</time>
      </trkpt>
      <trkpt lat="44.46697" lon="1.12255">
        <ele>154.012375</ele>
        <time>2019-08-17T14:18:54Z</time>
      </trkpt>
      <trkpt lat="44.46695" lon="1.12254">
        <ele>154.349243</ele>
        <time>2019-08-17T14:18:55Z</time>
      </trkpt>
      <trkpt lat="44.46693" lon="1.12252">
        <ele>154.775497</ele>
        <time>2019-08-17T14:18:56Z</time>
      </trkpt>
      <trkpt lat="44.46691" lon="1.1225">
        <ele>155.207932</ele>
        <time>2019-08-17T14:18:57Z</time>
      </trkpt>
      <trkpt lat="44.46689" lon="1.12248">
        <ele>155.616104</ele>
        <time>2019-08-17T14:18:58Z</time>
      </trkpt>
      <trkpt lat="44.46686" lon="1.12245">
        <ele>155.998322</ele>
        <time>2019-08-17T14:18:59Z</time>
      </trkpt>
      <trkpt lat="44.46684" lon="1.12243">
        <ele>156.366898</ele>
        <time>2019-08-17T14:19:00Z</time>
      </trkpt>
      <trkpt lat="44.46682" lon="1.12241">
        <ele>156.681</ele>
        <time>2019-08-17T14:19:01Z</time>
      </trkpt>
      <trkpt lat="44.4668" lon="1.12239">
        <ele>156.983566</ele>
        <time>2019-08-17T14:19:02Z</time>
      </trkpt>
      <trkpt lat="44.46677" lon="1.12237">
        <ele>157.274124</ele>
        <time>2019-08-17T14:19:03Z</time>
      </trkpt>
      <trkpt lat="44.46676" lon="1.12235">
        <ele>157.274124</ele>
        <time>2019-08-17T14:19:04Z</time>
      </trkpt>
      <trkpt lat="44.46674" lon="1.12233">
        <ele>157.548553</ele>
        <time>2019-08-17T14:19:05Z</time>
      </trkpt>
      <trkpt lat="44.46672" lon="1.12232">
        <ele>157.796738</ele>
        <time>2019-08-17T14:19:06Z</time>
      </trkpt>
      <trkpt lat="44.4667" lon="1.1223">
        <ele>158.044571</ele>
        <time>2019-08-17T14:19:07Z</time>
      </trkpt>
      <trkpt lat="44.46668" lon="1.12228">
        <ele>158.253677</ele>
        <time>2019-08-17T14:19:08Z</time>
      </trkpt>
      <trkpt lat="44.46666" lon="1.12226">
        <ele>158.434219</ele>
        <time>2019-08-17T14:19:09Z</time>
      </trkpt>
      <trkpt lat="44.46664" lon="1.12223">
        <ele>158.59584</ele>
        <time>2019-08-17T14:19:10Z</time>
      </trkpt>
      <trkpt lat="44.46663" lon="1.12221">
        <ele>158.739136</ele>
        <time>2019-08-17T14:19:11Z</time>
      </trkpt>
      <trkpt lat="44.46661" lon="1.12218">
        <ele>158.862534</ele>
        <time>2019-08-17T14:19:12Z</time>
      </trkpt>
      <trkpt lat="44.46659" lon="1.12216">
        <ele>158.930664</ele>
        <time>2019-08-17T14:19:13Z</time>
      </trkpt>
      <trkpt lat="44.46657" lon="1.12214">
        <ele>158.976761</ele>
        <time>2019-08-17T14:19:14Z</time>
      </trkpt>
      <trkpt lat="44.46655" lon="1.12211">
        <ele>158.991531</ele>
        <time>2019-08-17T14:19:15Z</time>
      </trkpt>
      <trkpt lat="44.46654" lon="1.12208">
        <ele>158.991531</ele>
        <time>2019-08-17T14:19:16Z</time>
      </trkpt>
      <trkpt lat="44.46652" lon="1.12205">
        <ele>158.991531</ele>
        <time>2019-08-17T14:19:17Z</time>
      </trkpt>
      <trkpt lat="44.4665" lon="1.12202">
        <ele>158.971512</ele>
        <time>2019-08-17T14:19:18Z</time>
      </trkpt>
      <trkpt lat="44.46648" lon="1.12199">
        <ele>158.910263</ele>
        <time>2019-08-17T14:19:19Z</time>
      </trkpt>
      <trkpt lat="44.46645" lon="1.12195">
        <ele>158.816833</ele>
        <time>2019-08-17T14:19:20Z</time>
      </trkpt>
      <trkpt lat="44.46642" lon="1.12192">
        <ele>158.727036</ele>
        <time>2019-08-17T14:19:21Z</time>
      </trkpt>
      <trkpt lat="44.4664" lon="1.12189">
        <ele>158.720444</ele>
        <time>2019-08-17T14:19:22Z</time>
      </trkpt>
      <trkpt lat="44.46639" lon="1.12186">
        <ele>158.720444</ele>
        <time>2019-08-17T14:19:23Z</time>
      </trkpt>
      <trkpt lat="44.46637" lon="1.12183">
        <ele>158.720444</ele>
        <time>2019-08-17T14:19:24Z</time>
      </trkpt>
      <trkpt lat="44.46636" lon="1.12179">
        <ele>158.784241</ele>
        <time>2019-08-17T14:19:25Z</time>
      </trkpt>
      <trkpt lat="44.46634" lon="1.12176">
        <ele>158.903732</ele>
        <time>2019-08-17T14:19:26Z</time>
      </trkpt>
      <trkpt lat="44.46632" lon="1.12172">
        <ele>159.092682</ele>
        <time>2019-08-17T14:19:27Z</time>
      </trkpt>
      <trkpt lat="44.4663" lon="1.12168">
        <ele>159.348984</ele>
        <time>2019-08-17T14:19:28Z</time>
      </trkpt>
      <trkpt lat="44.46628" lon="1.12165">
        <ele>159.643112</ele>
        <time>2019-08-17T14:19:29Z</time>
      </trkpt>
      <trkpt lat="44.46627" lon="1.12161">
        <ele>159.892883</ele>
        <time>2019-08-17T14:19:30Z</time>
      </trkpt>
      <trkpt lat="44.46625" lon="1.12158">
        <ele>160.115982</ele>
        <time>2019-08-17T14:19:31Z</time>
      </trkpt>
      <trkpt lat="44.46624" lon="1.12155">
        <ele>160.115982</ele>
        <time>2019-08-17T14:19:32Z</time>
      </trkpt>
      <trkpt lat="44.46622" lon="1.12151">
        <ele>160.316986</ele>
        <time>2019-08-17T14:19:33Z</time>
      </trkpt>
      <trkpt lat="44.46621" lon="1.12148">
        <ele>160.494049</ele>
        <time>2019-08-17T14:19:34Z</time>
      </trkpt>
      <trkpt lat="44.46619" lon="1.12145">
        <ele>160.649261</ele>
        <time>2019-08-17T14:19:35Z</time>
      </trkpt>
      <trkpt lat="44.46617" lon="1.12141">
        <ele>160.766418</ele>
        <time>2019-08-17T14:19:36Z</time>
      </trkpt>
      <trkpt lat="44.46615" lon="1.12138">
        <ele>160.839752</ele>
        <time>2019-08-17T14:19:37Z</time>
      </trkpt>
      <trkpt lat="44.46614" lon="1.12134">
        <ele>160.868515</ele>
        <time>2019-08-17T14:19:38Z</time>
      </trkpt>
      <trkpt lat="44.46612" lon="1.12131">
        <ele>160.868515</ele>
        <time>2019-08-17T14:19:39Z</time>
      </trkpt>
      <trkpt lat="44.4661" lon="1.12128">
        <ele>160.868515</ele>
        <time>2019-08-17T14:19:40Z</time>
      </trkpt>
      <trkpt lat="44.46608" lon="1.12125">
        <ele>160.857254</ele>
        <time>2019-08-17T14:19:41Z</time>
      </trkpt>
      <trkpt lat="44.46606" lon="1.12122">
        <ele>160.805313</ele>
        <time>2019-08-17T14:19:42Z</time>
      </trkpt>
      <trkpt lat="44.46604" lon="1.12119">
        <ele>160.721664</ele>
        <time>2019-08-17T14:19:43Z</time>
      </trkpt>
      <trkpt lat="44.46602" lon="1.12115">
        <ele>160.630981</ele>
        <time>2019-08-17T14:19:44Z</time>
      </trkpt>
      <trkpt lat="44.466" lon="1.12112">
        <ele>160.538437</ele>
        <time>2019-08-17T14:19:45Z</time>
      </trkpt>
      <trkpt lat="44.46598" lon="1.12109">
        <ele>160.444687</ele>
        <time>2019-08-17T14:19:46Z</time>
      </trkpt>
      <trkpt lat="44.46596" lon="1.12106">
        <ele>160.351654</ele>
        <time>2019-08-17T14:19:47Z</time>
      </trkpt>
      <trkpt lat="44.46594" lon="1.12102">
        <ele>160.257736</ele>
        <time>2019-08-17T14:19:48Z</time>
      </trkpt>
      <trkpt lat="44.46592" lon="1.12098">
        <ele>160.153549</ele>
        <time>2019-08-17T14:19:49Z</time>
      </trkpt>
      <trkpt lat="44.4659" lon="1.12095">
        <ele>160.024338</ele>
        <time>2019-08-17T14:19:50Z</time>
      </trkpt>
      <trkpt lat="44.46587" lon="1.12092">
        <ele>159.868484</ele>
        <time>2019-08-17T14:19:51Z</time>
      </trkpt>
      <trkpt lat="44.46586" lon="1.12088">
        <ele>159.868484</ele>
        <time>2019-08-17T14:19:52Z</time>
      </trkpt>
      <trkpt lat="44.46584" lon="1.12085">
        <ele>159.684387</ele>
        <time>2019-08-17T14:19:53Z</time>
      </trkpt>
      <trkpt lat="44.46582" lon="1.12081">
        <ele>159.471054</ele>
        <time>2019-08-17T14:19:54Z</time>
      </trkpt>
      <trkpt lat="44.4658" lon="1.12078">
        <ele>159.179871</ele>
        <time>2019-08-17T14:19:55Z</time>
      </trkpt>
      <trkpt lat="44.46578" lon="1.12075">
        <ele>158.85704</ele>
        <time>2019-08-17T14:19:56Z</time>
      </trkpt>
      <trkpt lat="44.46576" lon="1.12073">
        <ele>158.504272</ele>
        <time>2019-08-17T14:19:57Z</time>
      </trkpt>
      <trkpt lat="44.46574" lon="1.12069">
        <ele>158.171921</ele>
        <time>2019-08-17T14:19:58Z</time>
      </trkpt>
      <trkpt lat="44.46573" lon="1.12066">
        <ele>157.935089</ele>
        <time>2019-08-17T14:19:59Z</time>
      </trkpt>
      <trkpt lat="44.46571" lon="1.12063">
        <ele>157.7892</ele>
        <time>2019-08-17T14:20:00Z</time>
      </trkpt>
      <trkpt lat="44.46569" lon="1.12059">
        <ele>157.774948</ele>
        <time>2019-08-17T14:20:01Z</time>
      </trkpt>
      <trkpt lat="44.46568" lon="1.12056">
        <ele>157.774948</ele>
        <time>2019-08-17T14:20:02Z</time>
      </trkpt>
      <trkpt lat="44.46567" lon="1.12053">
        <ele>157.774948</ele>
        <time>2019-08-17T14:20:03Z</time>
      </trkpt>
      <trkpt lat="44.46565" lon="1.1205">
        <ele>157.774948</ele>
        <time>2019-08-17T14:20:04Z</time>
      </trkpt>
      <trkpt lat="44.46564" lon="1.12047">
        <ele>157.846588</ele>
        <time>2019-08-17T14:20:05Z</time>
      </trkpt>
      <trkpt lat="44.46563" lon="1.12044">
        <ele>158.017288</ele>
        <time>2019-08-17T14:20:06Z</time>
      </trkpt>
      <trkpt lat="44.46562" lon="1.1204">
        <ele>158.301727</ele>
        <time>2019-08-17T14:20:07Z</time>
      </trkpt>
      <trkpt lat="44.46561" lon="1.12036">
        <ele>158.569077</ele>
        <time>2019-08-17T14:20:08Z</time>
      </trkpt>
      <trkpt lat="44.4656" lon="1.12032">
        <ele>158.807892</ele>
        <time>2019-08-17T14:20:09Z</time>
      </trkpt>
      <trkpt lat="44.46558" lon="1.12028">
        <ele>159.031387</ele>
        <time>2019-08-17T14:20:10Z</time>
      </trkpt>
      <trkpt lat="44.46557" lon="1.12024">
        <ele>159.244095</ele>
        <time>2019-08-17T14:20:11Z</time>
      </trkpt>
      <trkpt lat="44.46555" lon="1.1202">
        <ele>159.440262</ele>
        <time>2019-08-17T14:20:12Z</time>
      </trkpt>
      <trkpt lat="44.46553" lon="1.12017">
        <ele>159.552597</ele>
        <time>2019-08-17T14:20:13Z</time>
      </trkpt>
      <trkpt lat="44.46552" lon="1.12013">
        <ele>159.649963</ele>
        <time>2019-08-17T14:20:14Z</time>
      </trkpt>
      <trkpt lat="44.4655" lon="1.12009">
        <ele>159.758713</ele>
        <time>2019-08-17T14:20:15Z</time>
      </trkpt>
      <trkpt lat="44.46549" lon="1.12004">
        <ele>159.874268</ele>
        <time>2019-08-17T14:20:16Z</time>
      </trkpt>
      <trkpt lat="44.46547" lon="1.12">
        <ele>159.986755</ele>
        <time>2019-08-17T14:20:17Z</time>
      </trkpt>
      <trkpt lat="44.46546" lon="1.11996">
        <ele>160.068375</ele>
        <time>2019-08-17T14:20:18Z</time>
      </trkpt>
      <trkpt lat="44.46544" lon="1.11992">
        <ele>160.123703</ele>
        <time>2019-08-17T14:20:19Z</time>
      </trkpt>
      <trkpt lat="44.46543" lon="1.11988">
        <ele>160.142075</ele>
        <time>2019-08-17T14:20:20Z</time>
      </trkpt>
      <trkpt lat="44.46541" lon="1.11986">
        <ele>160.16243</ele>
        <time>2019-08-17T14:20:21Z</time>
      </trkpt>
      <trkpt lat="44.46539" lon="1.11983">
        <ele>160.198547</ele>
        <time>2019-08-17T14:20:22Z</time>
      </trkpt>
      <trkpt lat="44.46537" lon="1.11981">
        <ele>160.198547</ele>
        <time>2019-08-17T14:20:23Z</time>
      </trkpt>
      <trkpt lat="44.46534" lon="1.11978">
        <ele>160.227661</ele>
        <time>2019-08-17T14:20:24Z</time>
      </trkpt>
      <trkpt lat="44.46532" lon="1.11974">
        <ele>160.249008</ele>
        <time>2019-08-17T14:20:25Z</time>
      </trkpt>
      <trkpt lat="44.4653" lon="1.11969">
        <ele>160.311569</ele>
        <time>2019-08-17T14:20:26Z</time>
      </trkpt>
      <trkpt lat="44.4653" lon="1.11964">
        <ele>160.398102</ele>
        <time>2019-08-17T14:20:27Z</time>
      </trkpt>
      <trkpt lat="44.4653" lon="1.1196">
        <ele>160.478943</ele>
        <time>2019-08-17T14:20:28Z</time>
      </trkpt>
      <trkpt lat="44.4653" lon="1.11955">
        <ele>160.540131</ele>
        <time>2019-08-17T14:20:29Z</time>
      </trkpt>
      <trkpt lat="44.4653" lon="1.11951">
        <ele>160.584534</ele>
        <time>2019-08-17T14:20:30Z</time>
      </trkpt>
      <trkpt lat="44.4653" lon="1.11947">
        <ele>160.584534</ele>
        <time>2019-08-17T14:20:31Z</time>
      </trkpt>
      <trkpt lat="44.46529" lon="1.11944">
        <ele>160.584534</ele>
        <time>2019-08-17T14:20:32Z</time>
      </trkpt>
      <trkpt lat="44.46529" lon="1.1194">
        <ele>160.572769</ele>
        <time>2019-08-17T14:20:33Z</time>
      </trkpt>
      <trkpt lat="44.46528" lon="1.11936">
        <ele>160.486862</ele>
        <time>2019-08-17T14:20:34Z</time>
      </trkpt>
      <trkpt lat="44.46527" lon="1.11932">
        <ele>160.486862</ele>
        <time>2019-08-17T14:20:35Z</time>
      </trkpt>
      <trkpt lat="44.46525" lon="1.11928">
        <ele>160.355194</ele>
        <time>2019-08-17T14:20:36Z</time>
      </trkpt>
      <trkpt lat="44.46523" lon="1.11925">
        <ele>160.211426</ele>
        <time>2019-08-17T14:20:37Z</time>
      </trkpt>
      <trkpt lat="44.46521" lon="1.11921">
        <ele>160.049728</ele>
        <time>2019-08-17T14:20:38Z</time>
      </trkpt>
      <trkpt lat="44.46519" lon="1.11918">
        <ele>159.891678</ele>
        <time>2019-08-17T14:20:39Z</time>
      </trkpt>
      <trkpt lat="44.46517" lon="1.11915">
        <ele>159.830673</ele>
        <time>2019-08-17T14:20:40Z</time>
      </trkpt>
      <trkpt lat="44.46514" lon="1.11912">
        <ele>159.830673</ele>
        <time>2019-08-17T14:20:41Z</time>
      </trkpt>
      <trkpt lat="44.46512" lon="1.11908">
        <ele>159.830673</ele>
        <time>2019-08-17T14:20:42Z</time>
      </trkpt>
      <trkpt lat="44.46509" lon="1.11905">
        <ele>159.862503</ele>
        <time>2019-08-17T14:20:43Z</time>
      </trkpt>
      <trkpt lat="44.46506" lon="1.11902">
        <ele>159.989304</ele>
        <time>2019-08-17T14:20:44Z</time>
      </trkpt>
      <trkpt lat="44.46503" lon="1.11898">
        <ele>160.210709</ele>
        <time>2019-08-17T14:20:45Z</time>
      </trkpt>
      <trkpt lat="44.465" lon="1.11896">
        <ele>160.562607</ele>
        <time>2019-08-17T14:20:46Z</time>
      </trkpt>
      <trkpt lat="44.46497" lon="1.11893">
        <ele>161.026627</ele>
        <time>2019-08-17T14:20:47Z</time>
      </trkpt>
      <trkpt lat="44.46494" lon="1.11891">
        <ele>161.499695</ele>
        <time>2019-08-17T14:20:48Z</time>
      </trkpt>
      <trkpt lat="44.46491" lon="1.1189">
        <ele>161.963364</ele>
        <time>2019-08-17T14:20:49Z</time>
      </trkpt>
      <trkpt lat="44.46488" lon="1.11888">
        <ele>162.40451</ele>
        <time>2019-08-17T14:20:50Z</time>
      </trkpt>
      <trkpt lat="44.46485" lon="1.11887">
        <ele>162.819504</ele>
        <time>2019-08-17T14:20:51Z</time>
      </trkpt>
      <trkpt lat="44.46483" lon="1.11885">
        <ele>162.819504</ele>
        <time>2019-08-17T14:20:52Z</time>
      </trkpt>
      <trkpt lat="44.4648" lon="1.11884">
        <ele>163.188324</ele>
        <time>2019-08-17T14:20:53Z</time>
      </trkpt>
      <trkpt lat="44.46477" lon="1.11881">
        <ele>163.499664</ele>
        <time>2019-08-17T14:20:54Z</time>
      </trkpt>
      <trkpt lat="44.46474" lon="1.11879">
        <ele>163.778702</ele>
        <time>2019-08-17T14:20:55Z</time>
      </trkpt>
      <trkpt lat="44.46471" lon="1.11878">
        <ele>164.021255</ele>
        <time>2019-08-17T14:20:56Z</time>
      </trkpt>
      <trkpt lat="44.46468" lon="1.11876">
        <ele>164.246506</ele>
        <time>2019-08-17T14:20:57Z</time>
      </trkpt>
      <trkpt lat="44.46465" lon="1.11875">
        <ele>164.452316</ele>
        <time>2019-08-17T14:20:58Z</time>
      </trkpt>
      <trkpt lat="44.46462" lon="1.11873">
        <ele>164.640427</ele>
        <time>2019-08-17T14:20:59Z</time>
      </trkpt>
      <trkpt lat="44.46458" lon="1.11871">
        <ele>164.817154</ele>
        <time>2019-08-17T14:21:00Z</time>
      </trkpt>
      <trkpt lat="44.46455" lon="1.11869">
        <ele>164.95787</ele>
        <time>2019-08-17T14:21:01Z</time>
      </trkpt>
      <trkpt lat="44.46452" lon="1.11867">
        <ele>165.089127</ele>
        <time>2019-08-17T14:21:02Z</time>
      </trkpt>
      <trkpt lat="44.46449" lon="1.11864">
        <ele>165.201309</ele>
        <time>2019-08-17T14:21:03Z</time>
      </trkpt>
      <trkpt lat="44.46445" lon="1.11862">
        <ele>165.201309</ele>
        <time>2019-08-17T14:21:04Z</time>
      </trkpt>
      <trkpt lat="44.46441" lon="1.1186">
        <ele>165.298477</ele>
        <time>2019-08-17T14:21:05Z</time>
      </trkpt>
      <trkpt lat="44.46438" lon="1.11858">
        <ele>165.386398</ele>
        <time>2019-08-17T14:21:06Z</time>
      </trkpt>
      <trkpt lat="44.46435" lon="1.11855">
        <ele>165.468491</ele>
        <time>2019-08-17T14:21:07Z</time>
      </trkpt>
      <trkpt lat="44.46433" lon="1.11853">
        <ele>165.548203</ele>
        <time>2019-08-17T14:21:08Z</time>
      </trkpt>
      <trkpt lat="44.46429" lon="1.11851">
        <ele>165.688889</ele>
        <time>2019-08-17T14:21:09Z</time>
      </trkpt>
      <trkpt lat="44.46426" lon="1.11848">
        <ele>165.885208</ele>
        <time>2019-08-17T14:21:10Z</time>
      </trkpt>
      <trkpt lat="44.46424" lon="1.11845">
        <ele>166.166565</ele>
        <time>2019-08-17T14:21:11Z</time>
      </trkpt>
      <trkpt lat="44.46421" lon="1.11843">
        <ele>166.545334</ele>
        <time>2019-08-17T14:21:12Z</time>
      </trkpt>
      <trkpt lat="44.46419" lon="1.11841">
        <ele>167.022049</ele>
        <time>2019-08-17T14:21:13Z</time>
      </trkpt>
      <trkpt lat="44.46416" lon="1.11839">
        <ele>167.601746</ele>
        <time>2019-08-17T14:21:14Z</time>
      </trkpt>
      <trkpt lat="44.46413" lon="1.11836">
        <ele>168.203873</ele>
        <time>2019-08-17T14:21:15Z</time>
      </trkpt>
      <trkpt lat="44.4641" lon="1.11834">
        <ele>168.833603</ele>
        <time>2019-08-17T14:21:16Z</time>
      </trkpt>
      <trkpt lat="44.46408" lon="1.11832">
        <ele>169.470215</ele>
        <time>2019-08-17T14:21:17Z</time>
      </trkpt>
      <trkpt lat="44.46405" lon="1.1183">
        <ele>170.109863</ele>
        <time>2019-08-17T14:21:18Z</time>
      </trkpt>
      <trkpt lat="44.46403" lon="1.11829">
        <ele>170.74147</ele>
        <time>2019-08-17T14:21:19Z</time>
      </trkpt>
      <trkpt lat="44.464" lon="1.11828">
        <ele>171.362534</ele>
        <time>2019-08-17T14:21:20Z</time>
      </trkpt>
      <trkpt lat="44.46398" lon="1.11826">
        <ele>171.972534</ele>
        <time>2019-08-17T14:21:21Z</time>
      </trkpt>
      <trkpt lat="44.46396" lon="1.11825">
        <ele>172.562912</ele>
        <time>2019-08-17T14:21:22Z</time>
      </trkpt>
      <trkpt lat="44.46393" lon="1.11824">
        <ele>173.119507</ele>
        <time>2019-08-17T14:21:23Z</time>
      </trkpt>
      <trkpt lat="44.46391" lon="1.11823">
        <ele>173.644775</ele>
        <time>2019-08-17T14:21:24Z</time>
      </trkpt>
      <trkpt lat="44.46388" lon="1.11822">
        <ele>174.148727</ele>
        <time>2019-08-17T14:21:25Z</time>
      </trkpt>
      <trkpt lat="44.46386" lon="1.11822">
        <ele>174.618271</ele>
        <time>2019-08-17T14:21:26Z</time>
      </trkpt>
      <trkpt lat="44.46383" lon="1.11821">
        <ele>175.05957</ele>
        <time>2019-08-17T14:21:27Z</time>
      </trkpt>
      <trkpt lat="44.4638" lon="1.11821">
        <ele>175.488785</ele>
        <time>2019-08-17T14:21:28Z</time>
      </trkpt>
      <trkpt lat="44.46377" lon="1.11821">
        <ele>175.909241</ele>
        <time>2019-08-17T14:21:29Z</time>
      </trkpt>
      <trkpt lat="44.46373" lon="1.11821">
        <ele>176.311142</ele>
        <time>2019-08-17T14:21:30Z</time>
      </trkpt>
      <trkpt lat="44.4637" lon="1.11821">
        <ele>176.691772</ele>
        <time>2019-08-17T14:21:31Z</time>
      </trkpt>
      <trkpt lat="44.46365" lon="1.11822">
        <ele>177.067627</ele>
        <time>2019-08-17T14:21:32Z</time>
      </trkpt>
      <trkpt lat="44.46361" lon="1.11823">
        <ele>177.067627</ele>
        <time>2019-08-17T14:21:33Z</time>
      </trkpt>
      <trkpt lat="44.46357" lon="1.11824">
        <ele>177.443115</ele>
        <time>2019-08-17T14:21:34Z</time>
      </trkpt>
      <trkpt lat="44.46353" lon="1.11825">
        <ele>177.809326</ele>
        <time>2019-08-17T14:21:35Z</time>
      </trkpt>
      <trkpt lat="44.4635" lon="1.11826">
        <ele>178.230026</ele>
        <time>2019-08-17T14:21:36Z</time>
      </trkpt>
      <trkpt lat="44.46347" lon="1.11827">
        <ele>178.641174</ele>
        <time>2019-08-17T14:21:37Z</time>
      </trkpt>
      <trkpt lat="44.46344" lon="1.11828">
        <ele>179.046021</ele>
        <time>2019-08-17T14:21:38Z</time>
      </trkpt>
      <trkpt lat="44.46341" lon="1.11829">
        <ele>179.438278</ele>
        <time>2019-08-17T14:21:39Z</time>
      </trkpt>
      <trkpt lat="44.46337" lon="1.1183">
        <ele>179.793945</ele>
        <time>2019-08-17T14:21:40Z</time>
      </trkpt>
      <trkpt lat="44.46334" lon="1.11831">
        <ele>180.114182</ele>
        <time>2019-08-17T14:21:41Z</time>
      </trkpt>
      <trkpt lat="44.4633" lon="1.11831">
        <ele>180.357422</ele>
        <time>2019-08-17T14:21:42Z</time>
      </trkpt>
      <trkpt lat="44.46326" lon="1.11833">
        <ele>180.597244</ele>
        <time>2019-08-17T14:21:43Z</time>
      </trkpt>
      <trkpt lat="44.46322" lon="1.11834">
        <ele>180.82869</ele>
        <time>2019-08-17T14:21:44Z</time>
      </trkpt>
      <trkpt lat="44.46318" lon="1.11836">
        <ele>181.05957</ele>
        <time>2019-08-17T14:21:45Z</time>
      </trkpt>
      <trkpt lat="44.46314" lon="1.11837">
        <ele>181.309982</ele>
        <time>2019-08-17T14:21:46Z</time>
      </trkpt>
      <trkpt lat="44.4631" lon="1.11839">
        <ele>181.570313</ele>
        <time>2019-08-17T14:21:47Z</time>
      </trkpt>
      <trkpt lat="44.46306" lon="1.11841">
        <ele>181.832932</ele>
        <time>2019-08-17T14:21:48Z</time>
      </trkpt>
      <trkpt lat="44.46302" lon="1.11842">
        <ele>182.082275</ele>
        <time>2019-08-17T14:21:49Z</time>
      </trkpt>
      <trkpt lat="44.46299" lon="1.11843">
        <ele>182.31575</ele>
        <time>2019-08-17T14:21:50Z</time>
      </trkpt>
      <trkpt lat="44.46295" lon="1.11844">
        <ele>182.485184</ele>
        <time>2019-08-17T14:21:51Z</time>
      </trkpt>
      <trkpt lat="44.46292" lon="1.11845">
        <ele>182.571533</ele>
        <time>2019-08-17T14:21:52Z</time>
      </trkpt>
      <trkpt lat="44.46288" lon="1.11846">
        <ele>182.576859</ele>
        <time>2019-08-17T14:21:53Z</time>
      </trkpt>
      <trkpt lat="44.46285" lon="1.11846">
        <ele>182.576859</ele>
        <time>2019-08-17T14:21:54Z</time>
      </trkpt>
      <trkpt lat="44.46281" lon="1.11846">
        <ele>182.576859</ele>
        <time>2019-08-17T14:21:55Z</time>
      </trkpt>
      <trkpt lat="44.46278" lon="1.11845">
        <ele>182.504715</ele>
        <time>2019-08-17T14:21:56Z</time>
      </trkpt>
      <trkpt lat="44.46275" lon="1.11844">
        <ele>182.41423</ele>
        <time>2019-08-17T14:21:57Z</time>
      </trkpt>
      <trkpt lat="44.46272" lon="1.11843">
        <ele>182.309677</ele>
        <time>2019-08-17T14:21:58Z</time>
      </trkpt>
      <trkpt lat="44.46269" lon="1.11842">
        <ele>182.222092</ele>
        <time>2019-08-17T14:21:59Z</time>
      </trkpt>
      <trkpt lat="44.46266" lon="1.1184">
        <ele>182.191284</ele>
        <time>2019-08-17T14:22:00Z</time>
      </trkpt>
      <trkpt lat="44.46264" lon="1.11838">
        <ele>182.191284</ele>
        <time>2019-08-17T14:22:01Z</time>
      </trkpt>
      <trkpt lat="44.46262" lon="1.11837">
        <ele>182.191284</ele>
        <time>2019-08-17T14:22:02Z</time>
      </trkpt>
      <trkpt lat="44.4626" lon="1.11835">
        <ele>182.247177</ele>
        <time>2019-08-17T14:22:03Z</time>
      </trkpt>
      <trkpt lat="44.46257" lon="1.11834">
        <ele>182.36882</ele>
        <time>2019-08-17T14:22:04Z</time>
      </trkpt>
      <trkpt lat="44.46255" lon="1.11833">
        <ele>182.503403</ele>
        <time>2019-08-17T14:22:05Z</time>
      </trkpt>
      <trkpt lat="44.46252" lon="1.11832">
        <ele>182.654709</ele>
        <time>2019-08-17T14:22:06Z</time>
      </trkpt>
      <trkpt lat="44.4625" lon="1.11831">
        <ele>182.654709</ele>
        <time>2019-08-17T14:22:07Z</time>
      </trkpt>
      <trkpt lat="44.46247" lon="1.1183">
        <ele>182.821594</ele>
        <time>2019-08-17T14:22:08Z</time>
      </trkpt>
      <trkpt lat="44.46244" lon="1.1183">
        <ele>182.976303</ele>
        <time>2019-08-17T14:22:09Z</time>
      </trkpt>
      <trkpt lat="44.46241" lon="1.11829">
        <ele>183.110916</ele>
        <time>2019-08-17T14:22:10Z</time>
      </trkpt>
      <trkpt lat="44.46239" lon="1.11828">
        <ele>183.225037</ele>
        <time>2019-08-17T14:22:11Z</time>
      </trkpt>
      <trkpt lat="44.46236" lon="1.11827">
        <ele>183.313065</ele>
        <time>2019-08-17T14:22:12Z</time>
      </trkpt>
      <trkpt lat="44.46233" lon="1.11826">
        <ele>183.372238</ele>
        <time>2019-08-17T14:22:13Z</time>
      </trkpt>
      <trkpt lat="44.4623" lon="1.11825">
        <ele>183.428238</ele>
        <time>2019-08-17T14:22:14Z</time>
      </trkpt>
      <trkpt lat="44.46228" lon="1.11825">
        <ele>183.480347</ele>
        <time>2019-08-17T14:22:15Z</time>
      </trkpt>
      <trkpt lat="44.46225" lon="1.11824">
        <ele>183.5233</ele>
        <time>2019-08-17T14:22:16Z</time>
      </trkpt>
      <trkpt lat="44.46222" lon="1.11823">
        <ele>183.557007</ele>
        <time>2019-08-17T14:22:17Z</time>
      </trkpt>
      <trkpt lat="44.46219" lon="1.11823">
        <ele>183.587021</ele>
        <time>2019-08-17T14:22:18Z</time>
      </trkpt>
      <trkpt lat="44.46216" lon="1.11821">
        <ele>183.612473</ele>
        <time>2019-08-17T14:22:19Z</time>
      </trkpt>
      <trkpt lat="44.46213" lon="1.11821">
        <ele>183.628036</ele>
        <time>2019-08-17T14:22:20Z</time>
      </trkpt>
      <trkpt lat="44.4621" lon="1.1182">
        <ele>183.637863</ele>
        <time>2019-08-17T14:22:21Z</time>
      </trkpt>
      <trkpt lat="44.46206" lon="1.1182">
        <ele>183.637863</ele>
        <time>2019-08-17T14:22:22Z</time>
      </trkpt>
      <trkpt lat="44.46203" lon="1.11819">
        <ele>183.637863</ele>
        <time>2019-08-17T14:22:23Z</time>
      </trkpt>
      <trkpt lat="44.462" lon="1.11819">
        <ele>183.623581</ele>
        <time>2019-08-17T14:22:24Z</time>
      </trkpt>
      <trkpt lat="44.46196" lon="1.11818">
        <ele>183.600937</ele>
        <time>2019-08-17T14:22:25Z</time>
      </trkpt>
      <trkpt lat="44.46193" lon="1.11817">
        <ele>183.567871</ele>
        <time>2019-08-17T14:22:26Z</time>
      </trkpt>
      <trkpt lat="44.4619" lon="1.11816">
        <ele>183.525574</ele>
        <time>2019-08-17T14:22:27Z</time>
      </trkpt>
      <trkpt lat="44.46188" lon="1.11816">
        <ele>183.478592</ele>
        <time>2019-08-17T14:22:28Z</time>
      </trkpt>
      <trkpt lat="44.46184" lon="1.11815">
        <ele>183.427246</ele>
        <time>2019-08-17T14:22:29Z</time>
      </trkpt>
      <trkpt lat="44.46181" lon="1.11814">
        <ele>183.376053</ele>
        <time>2019-08-17T14:22:30Z</time>
      </trkpt>
      <trkpt lat="44.46178" lon="1.11813">
        <ele>183.325928</ele>
        <time>2019-08-17T14:22:31Z</time>
      </trkpt>
      <trkpt lat="44.46175" lon="1.11813">
        <ele>183.277466</ele>
        <time>2019-08-17T14:22:32Z</time>
      </trkpt>
      <trkpt lat="44.46172" lon="1.11812">
        <ele>183.230103</ele>
        <time>2019-08-17T14:22:33Z</time>
      </trkpt>
      <trkpt lat="44.46169" lon="1.11811">
        <ele>183.178482</ele>
        <time>2019-08-17T14:22:34Z</time>
      </trkpt>
      <trkpt lat="44.46166" lon="1.1181">
        <ele>183.124893</ele>
        <time>2019-08-17T14:22:35Z</time>
      </trkpt>
      <trkpt lat="44.46163" lon="1.11809">
        <ele>183.077103</ele>
        <time>2019-08-17T14:22:36Z</time>
      </trkpt>
      <trkpt lat="44.46161" lon="1.11807">
        <ele>183.042969</ele>
        <time>2019-08-17T14:22:37Z</time>
      </trkpt>
      <trkpt lat="44.46158" lon="1.11806">
        <ele>183.042969</ele>
        <time>2019-08-17T14:22:38Z</time>
      </trkpt>
      <trkpt lat="44.46155" lon="1.11806">
        <ele>183.042969</ele>
        <time>2019-08-17T14:22:39Z</time>
      </trkpt>
      <trkpt lat="44.46152" lon="1.11806">
        <ele>183.042969</ele>
        <time>2019-08-17T14:22:40Z</time>
      </trkpt>
      <trkpt lat="44.46148" lon="1.11806">
        <ele>183.050339</ele>
        <time>2019-08-17T14:22:41Z</time>
      </trkpt>
      <trkpt lat="44.46145" lon="1.11805">
        <ele>183.071732</ele>
        <time>2019-08-17T14:22:42Z</time>
      </trkpt>
      <trkpt lat="44.46142" lon="1.11804">
        <ele>183.103516</ele>
        <time>2019-08-17T14:22:43Z</time>
      </trkpt>
      <trkpt lat="44.46139" lon="1.11803">
        <ele>183.143967</ele>
        <time>2019-08-17T14:22:44Z</time>
      </trkpt>
      <trkpt lat="44.46136" lon="1.11802">
        <ele>183.196609</ele>
        <time>2019-08-17T14:22:45Z</time>
      </trkpt>
      <trkpt lat="44.46133" lon="1.11802">
        <ele>183.247879</ele>
        <time>2019-08-17T14:22:46Z</time>
      </trkpt>
      <trkpt lat="44.46129" lon="1.11801">
        <ele>183.277512</ele>
        <time>2019-08-17T14:22:47Z</time>
      </trkpt>
      <trkpt lat="44.46126" lon="1.118">
        <ele>183.312943</ele>
        <time>2019-08-17T14:22:48Z</time>
      </trkpt>
      <trkpt lat="44.46123" lon="1.11799">
        <ele>183.354263</ele>
        <time>2019-08-17T14:22:49Z</time>
      </trkpt>
      <trkpt lat="44.4612" lon="1.11797">
        <ele>183.40094</ele>
        <time>2019-08-17T14:22:50Z</time>
      </trkpt>
      <trkpt lat="44.46117" lon="1.11796">
        <ele>183.441391</ele>
        <time>2019-08-17T14:22:51Z</time>
      </trkpt>
      <trkpt lat="44.46113" lon="1.11794">
        <ele>183.485168</ele>
        <time>2019-08-17T14:22:52Z</time>
      </trkpt>
      <trkpt lat="44.4611" lon="1.11793">
        <ele>183.533386</ele>
        <time>2019-08-17T14:22:53Z</time>
      </trkpt>
      <trkpt lat="44.46107" lon="1.11792">
        <ele>183.579056</ele>
        <time>2019-08-17T14:22:54Z</time>
      </trkpt>
      <trkpt lat="44.46104" lon="1.1179">
        <ele>183.629517</ele>
        <time>2019-08-17T14:22:55Z</time>
      </trkpt>
      <trkpt lat="44.46102" lon="1.11788">
        <ele>183.682724</ele>
        <time>2019-08-17T14:22:56Z</time>
      </trkpt>
      <trkpt lat="44.461" lon="1.11787">
        <ele>183.738144</ele>
        <time>2019-08-17T14:22:57Z</time>
      </trkpt>
      <trkpt lat="44.46097" lon="1.11785">
        <ele>183.791916</ele>
        <time>2019-08-17T14:22:58Z</time>
      </trkpt>
      <trkpt lat="44.46094" lon="1.11784">
        <ele>183.838928</ele>
        <time>2019-08-17T14:22:59Z</time>
      </trkpt>
      <trkpt lat="44.46092" lon="1.11783">
        <ele>183.884445</ele>
        <time>2019-08-17T14:23:00Z</time>
      </trkpt>
      <trkpt lat="44.46089" lon="1.11782">
        <ele>183.962997</ele>
        <time>2019-08-17T14:23:01Z</time>
      </trkpt>
      <trkpt lat="44.46087" lon="1.11781">
        <ele>184.086868</ele>
        <time>2019-08-17T14:23:02Z</time>
      </trkpt>
      <trkpt lat="44.46084" lon="1.1178">
        <ele>184.231674</ele>
        <time>2019-08-17T14:23:03Z</time>
      </trkpt>
      <trkpt lat="44.46081" lon="1.11779">
        <ele>184.231674</ele>
        <time>2019-08-17T14:23:04Z</time>
      </trkpt>
      <trkpt lat="44.46079" lon="1.11778">
        <ele>184.403381</ele>
        <time>2019-08-17T14:23:05Z</time>
      </trkpt>
      <trkpt lat="44.46076" lon="1.11777">
        <ele>184.618301</ele>
        <time>2019-08-17T14:23:06Z</time>
      </trkpt>
      <trkpt lat="44.46074" lon="1.11777">
        <ele>184.912979</ele>
        <time>2019-08-17T14:23:07Z</time>
      </trkpt>
      <trkpt lat="44.46071" lon="1.11776">
        <ele>185.195679</ele>
        <time>2019-08-17T14:23:08Z</time>
      </trkpt>
      <trkpt lat="44.46067" lon="1.11776">
        <ele>185.450912</ele>
        <time>2019-08-17T14:23:09Z</time>
      </trkpt>
      <trkpt lat="44.46064" lon="1.11775">
        <ele>185.702942</ele>
        <time>2019-08-17T14:23:10Z</time>
      </trkpt>
      <trkpt lat="44.4606" lon="1.11774">
        <ele>185.933838</ele>
        <time>2019-08-17T14:23:11Z</time>
      </trkpt>
      <trkpt lat="44.46056" lon="1.11773">
        <ele>186.13533</ele>
        <time>2019-08-17T14:23:12Z</time>
      </trkpt>
      <trkpt lat="44.46051" lon="1.11773">
        <ele>186.284302</ele>
        <time>2019-08-17T14:23:13Z</time>
      </trkpt>
      <trkpt lat="44.46048" lon="1.11772">
        <ele>186.432495</ele>
        <time>2019-08-17T14:23:14Z</time>
      </trkpt>
      <trkpt lat="44.46044" lon="1.11772">
        <ele>186.585327</ele>
        <time>2019-08-17T14:23:15Z</time>
      </trkpt>
      <trkpt lat="44.46041" lon="1.11771">
        <ele>186.737793</ele>
        <time>2019-08-17T14:23:16Z</time>
      </trkpt>
      <trkpt lat="44.46037" lon="1.11771">
        <ele>186.900696</ele>
        <time>2019-08-17T14:23:17Z</time>
      </trkpt>
      <trkpt lat="44.46034" lon="1.1177">
        <ele>187.066101</ele>
        <time>2019-08-17T14:23:18Z</time>
      </trkpt>
      <trkpt lat="44.4603" lon="1.11769">
        <ele>187.066101</ele>
        <time>2019-08-17T14:23:19Z</time>
      </trkpt>
      <trkpt lat="44.46026" lon="1.11769">
        <ele>187.212173</ele>
        <time>2019-08-17T14:23:20Z</time>
      </trkpt>
      <trkpt lat="44.46022" lon="1.11769">
        <ele>187.348145</ele>
        <time>2019-08-17T14:23:21Z</time>
      </trkpt>
      <trkpt lat="44.46018" lon="1.11768">
        <ele>187.497482</ele>
        <time>2019-08-17T14:23:22Z</time>
      </trkpt>
      <trkpt lat="44.46015" lon="1.11767">
        <ele>187.680099</ele>
        <time>2019-08-17T14:23:23Z</time>
      </trkpt>
      <trkpt lat="44.46011" lon="1.11766">
        <ele>187.887283</ele>
        <time>2019-08-17T14:23:24Z</time>
      </trkpt>
      <trkpt lat="44.46008" lon="1.11765">
        <ele>188.130692</ele>
        <time>2019-08-17T14:23:25Z</time>
      </trkpt>
      <trkpt lat="44.46005" lon="1.11763">
        <ele>188.415939</ele>
        <time>2019-08-17T14:23:26Z</time>
      </trkpt>
      <trkpt lat="44.46001" lon="1.11762">
        <ele>188.747253</ele>
        <time>2019-08-17T14:23:27Z</time>
      </trkpt>
      <trkpt lat="44.45998" lon="1.11761">
        <ele>189.101868</ele>
        <time>2019-08-17T14:23:28Z</time>
      </trkpt>
      <trkpt lat="44.45995" lon="1.11758">
        <ele>189.469849</ele>
        <time>2019-08-17T14:23:29Z</time>
      </trkpt>
      <trkpt lat="44.45992" lon="1.11755">
        <ele>189.849594</ele>
        <time>2019-08-17T14:23:30Z</time>
      </trkpt>
      <trkpt lat="44.4599" lon="1.11753">
        <ele>190.232956</ele>
        <time>2019-08-17T14:23:31Z</time>
      </trkpt>
      <trkpt lat="44.45989" lon="1.11751">
        <ele>190.637329</ele>
        <time>2019-08-17T14:23:32Z</time>
      </trkpt>
      <trkpt lat="44.45987" lon="1.11748">
        <ele>191.055832</ele>
        <time>2019-08-17T14:23:33Z</time>
      </trkpt>
      <trkpt lat="44.45985" lon="1.11746">
        <ele>191.470337</ele>
        <time>2019-08-17T14:23:34Z</time>
      </trkpt>
      <trkpt lat="44.45984" lon="1.11744">
        <ele>191.879654</ele>
        <time>2019-08-17T14:23:35Z</time>
      </trkpt>
      <trkpt lat="44.45982" lon="1.11741">
        <ele>192.286911</ele>
        <time>2019-08-17T14:23:36Z</time>
      </trkpt>
      <trkpt lat="44.4598" lon="1.11739">
        <ele>192.690125</ele>
        <time>2019-08-17T14:23:37Z</time>
      </trkpt>
      <trkpt lat="44.45978" lon="1.11736">
        <ele>193.07164</ele>
        <time>2019-08-17T14:23:38Z</time>
      </trkpt>
      <trkpt lat="44.45976" lon="1.11734">
        <ele>193.42186</ele>
        <time>2019-08-17T14:23:39Z</time>
      </trkpt>
      <trkpt lat="44.45974" lon="1.11732">
        <ele>193.761597</ele>
        <time>2019-08-17T14:23:40Z</time>
      </trkpt>
      <trkpt lat="44.45971" lon="1.1173">
        <ele>194.09816</ele>
        <time>2019-08-17T14:23:41Z</time>
      </trkpt>
      <trkpt lat="44.45968" lon="1.11729">
        <ele>194.427811</ele>
        <time>2019-08-17T14:23:42Z</time>
      </trkpt>
      <trkpt lat="44.45966" lon="1.11726">
        <ele>194.739334</ele>
        <time>2019-08-17T14:23:43Z</time>
      </trkpt>
      <trkpt lat="44.45964" lon="1.11724">
        <ele>195.030289</ele>
        <time>2019-08-17T14:23:44Z</time>
      </trkpt>
      <trkpt lat="44.45961" lon="1.11721">
        <ele>195.303665</ele>
        <time>2019-08-17T14:23:45Z</time>
      </trkpt>
      <trkpt lat="44.4596" lon="1.11719">
        <ele>195.303665</ele>
        <time>2019-08-17T14:23:46Z</time>
      </trkpt>
      <trkpt lat="44.45957" lon="1.11716">
        <ele>195.565186</ele>
        <time>2019-08-17T14:23:47Z</time>
      </trkpt>
      <trkpt lat="44.45955" lon="1.11714">
        <ele>195.81041</ele>
        <time>2019-08-17T14:23:48Z</time>
      </trkpt>
      <trkpt lat="44.45953" lon="1.11711">
        <ele>196.093521</ele>
        <time>2019-08-17T14:23:49Z</time>
      </trkpt>
      <trkpt lat="44.4595" lon="1.11709">
        <ele>196.384903</ele>
        <time>2019-08-17T14:23:50Z</time>
      </trkpt>
      <trkpt lat="44.45948" lon="1.11707">
        <ele>196.714859</ele>
        <time>2019-08-17T14:23:51Z</time>
      </trkpt>
      <trkpt lat="44.45946" lon="1.11706">
        <ele>197.07933</ele>
        <time>2019-08-17T14:23:52Z</time>
      </trkpt>
      <trkpt lat="44.45944" lon="1.11704">
        <ele>197.45813</ele>
        <time>2019-08-17T14:23:53Z</time>
      </trkpt>
      <trkpt lat="44.45942" lon="1.11702">
        <ele>197.837326</ele>
        <time>2019-08-17T14:23:54Z</time>
      </trkpt>
      <trkpt lat="44.4594" lon="1.117">
        <ele>198.16394</ele>
        <time>2019-08-17T14:23:55Z</time>
      </trkpt>
      <trkpt lat="44.45938" lon="1.11699">
        <ele>198.483505</ele>
        <time>2019-08-17T14:23:56Z</time>
      </trkpt>
      <trkpt lat="44.45935" lon="1.11697">
        <ele>198.775452</ele>
        <time>2019-08-17T14:23:57Z</time>
      </trkpt>
      <trkpt lat="44.45933" lon="1.11696">
        <ele>199.035446</ele>
        <time>2019-08-17T14:23:58Z</time>
      </trkpt>
      <trkpt lat="44.45931" lon="1.11694">
        <ele>199.270981</ele>
        <time>2019-08-17T14:23:59Z</time>
      </trkpt>
      <trkpt lat="44.45928" lon="1.11693">
        <ele>199.494629</ele>
        <time>2019-08-17T14:24:00Z</time>
      </trkpt>
      <trkpt lat="44.45926" lon="1.11692">
        <ele>199.709457</ele>
        <time>2019-08-17T14:24:01Z</time>
      </trkpt>
      <trkpt lat="44.45924" lon="1.1169">
        <ele>199.905838</ele>
        <time>2019-08-17T14:24:02Z</time>
      </trkpt>
      <trkpt lat="44.45922" lon="1.11689">
        <ele>200.083618</ele>
        <time>2019-08-17T14:24:03Z</time>
      </trkpt>
      <trkpt lat="44.45919" lon="1.11688">
        <ele>200.24736</ele>
        <time>2019-08-17T14:24:04Z</time>
      </trkpt>
      <trkpt lat="44.45918" lon="1.11686">
        <ele>200.399948</ele>
        <time>2019-08-17T14:24:05Z</time>
      </trkpt>
      <trkpt lat="44.45915" lon="1.11685">
        <ele>200.399948</ele>
        <time>2019-08-17T14:24:06Z</time>
      </trkpt>
      <trkpt lat="44.45913" lon="1.11684">
        <ele>200.535324</ele>
        <time>2019-08-17T14:24:07Z</time>
      </trkpt>
      <trkpt lat="44.45911" lon="1.11682">
        <ele>200.663132</ele>
        <time>2019-08-17T14:24:08Z</time>
      </trkpt>
      <trkpt lat="44.45908" lon="1.11681">
        <ele>200.796829</ele>
        <time>2019-08-17T14:24:09Z</time>
      </trkpt>
      <trkpt lat="44.45906" lon="1.1168">
        <ele>200.920532</ele>
        <time>2019-08-17T14:24:10Z</time>
      </trkpt>
      <trkpt lat="44.45904" lon="1.11678">
        <ele>201.03743</ele>
        <time>2019-08-17T14:24:11Z</time>
      </trkpt>
      <trkpt lat="44.45902" lon="1.11677">
        <ele>201.143448</ele>
        <time>2019-08-17T14:24:12Z</time>
      </trkpt>
      <trkpt lat="44.459" lon="1.11676">
        <ele>201.246872</ele>
        <time>2019-08-17T14:24:13Z</time>
      </trkpt>
      <trkpt lat="44.45898" lon="1.11676">
        <ele>201.340454</ele>
        <time>2019-08-17T14:24:14Z</time>
      </trkpt>
      <trkpt lat="44.45895" lon="1.11675">
        <ele>201.406052</ele>
        <time>2019-08-17T14:24:15Z</time>
      </trkpt>
      <trkpt lat="44.45894" lon="1.11674">
        <ele>201.458939</ele>
        <time>2019-08-17T14:24:16Z</time>
      </trkpt>
      <trkpt lat="44.45891" lon="1.11673">
        <ele>201.498245</ele>
        <time>2019-08-17T14:24:17Z</time>
      </trkpt>
      <trkpt lat="44.45889" lon="1.11672">
        <ele>201.529419</ele>
        <time>2019-08-17T14:24:18Z</time>
      </trkpt>
      <trkpt lat="44.45887" lon="1.11671">
        <ele>201.551346</ele>
        <time>2019-08-17T14:24:19Z</time>
      </trkpt>
      <trkpt lat="44.45885" lon="1.1167">
        <ele>201.568619</ele>
        <time>2019-08-17T14:24:20Z</time>
      </trkpt>
      <trkpt lat="44.45882" lon="1.11668">
        <ele>201.60376</ele>
        <time>2019-08-17T14:24:21Z</time>
      </trkpt>
      <trkpt lat="44.45881" lon="1.11666">
        <ele>201.656601</ele>
        <time>2019-08-17T14:24:22Z</time>
      </trkpt>
      <trkpt lat="44.45878" lon="1.11664">
        <ele>201.728897</ele>
        <time>2019-08-17T14:24:23Z</time>
      </trkpt>
      <trkpt lat="44.45876" lon="1.11663">
        <ele>201.823868</ele>
        <time>2019-08-17T14:24:24Z</time>
      </trkpt>
      <trkpt lat="44.45874" lon="1.11661">
        <ele>201.947754</ele>
        <time>2019-08-17T14:24:25Z</time>
      </trkpt>
      <trkpt lat="44.45872" lon="1.1166">
        <ele>202.093582</ele>
        <time>2019-08-17T14:24:26Z</time>
      </trkpt>
      <trkpt lat="44.45869" lon="1.11658">
        <ele>202.245117</ele>
        <time>2019-08-17T14:24:27Z</time>
      </trkpt>
      <trkpt lat="44.45868" lon="1.11657">
        <ele>202.401855</ele>
        <time>2019-08-17T14:24:28Z</time>
      </trkpt>
      <trkpt lat="44.45866" lon="1.11655">
        <ele>202.56282</ele>
        <time>2019-08-17T14:24:29Z</time>
      </trkpt>
      <trkpt lat="44.45863" lon="1.11653">
        <ele>202.725418</ele>
        <time>2019-08-17T14:24:30Z</time>
      </trkpt>
      <trkpt lat="44.45862" lon="1.11652">
        <ele>202.881836</ele>
        <time>2019-08-17T14:24:31Z</time>
      </trkpt>
      <trkpt lat="44.45859" lon="1.11651">
        <ele>203.034668</ele>
        <time>2019-08-17T14:24:32Z</time>
      </trkpt>
      <trkpt lat="44.45857" lon="1.11651">
        <ele>203.188309</ele>
        <time>2019-08-17T14:24:33Z</time>
      </trkpt>
      <trkpt lat="44.45855" lon="1.1165">
        <ele>203.188309</ele>
        <time>2019-08-17T14:24:34Z</time>
      </trkpt>
      <trkpt lat="44.45852" lon="1.1165">
        <ele>203.339844</ele>
        <time>2019-08-17T14:24:35Z</time>
      </trkpt>
      <trkpt lat="44.45849" lon="1.11649">
        <ele>203.483231</ele>
        <time>2019-08-17T14:24:36Z</time>
      </trkpt>
      <trkpt lat="44.45846" lon="1.11648">
        <ele>203.630539</ele>
        <time>2019-08-17T14:24:37Z</time>
      </trkpt>
      <trkpt lat="44.45842" lon="1.11646">
        <ele>203.774246</ele>
        <time>2019-08-17T14:24:38Z</time>
      </trkpt>
      <trkpt lat="44.4584" lon="1.11645">
        <ele>203.916672</ele>
        <time>2019-08-17T14:24:39Z</time>
      </trkpt>
      <trkpt lat="44.45837" lon="1.11644">
        <ele>204.055496</ele>
        <time>2019-08-17T14:24:40Z</time>
      </trkpt>
      <trkpt lat="44.45836" lon="1.11643">
        <ele>204.207962</ele>
        <time>2019-08-17T14:24:41Z</time>
      </trkpt>
      <trkpt lat="44.45833" lon="1.11642">
        <ele>204.373611</ele>
        <time>2019-08-17T14:24:42Z</time>
      </trkpt>
      <trkpt lat="44.45831" lon="1.11639">
        <ele>204.531113</ele>
        <time>2019-08-17T14:24:43Z</time>
      </trkpt>
      <trkpt lat="44.45828" lon="1.11637">
        <ele>204.69043</ele>
        <time>2019-08-17T14:24:44Z</time>
      </trkpt>
      <trkpt lat="44.45826" lon="1.11635">
        <ele>204.858688</ele>
        <time>2019-08-17T14:24:45Z</time>
      </trkpt>
      <trkpt lat="44.45824" lon="1.11631">
        <ele>205.041382</ele>
        <time>2019-08-17T14:24:46Z</time>
      </trkpt>
      <trkpt lat="44.45822" lon="1.11628">
        <ele>205.222641</ele>
        <time>2019-08-17T14:24:47Z</time>
      </trkpt>
      <trkpt lat="44.4582" lon="1.11624">
        <ele>205.415451</ele>
        <time>2019-08-17T14:24:48Z</time>
      </trkpt>
      <trkpt lat="44.45818" lon="1.11622">
        <ele>205.635193</ele>
        <time>2019-08-17T14:24:49Z</time>
      </trkpt>
      <trkpt lat="44.45816" lon="1.11619">
        <ele>205.885696</ele>
        <time>2019-08-17T14:24:50Z</time>
      </trkpt>
      <trkpt lat="44.45813" lon="1.11616">
        <ele>205.885696</ele>
        <time>2019-08-17T14:24:51Z</time>
      </trkpt>
      <trkpt lat="44.45812" lon="1.11614">
        <ele>206.160645</ele>
        <time>2019-08-17T14:24:52Z</time>
      </trkpt>
      <trkpt lat="44.45809" lon="1.11612">
        <ele>206.448318</ele>
        <time>2019-08-17T14:24:53Z</time>
      </trkpt>
      <trkpt lat="44.45807" lon="1.1161">
        <ele>206.793716</ele>
        <time>2019-08-17T14:24:54Z</time>
      </trkpt>
      <trkpt lat="44.45805" lon="1.11608">
        <ele>207.140991</ele>
        <time>2019-08-17T14:24:55Z</time>
      </trkpt>
      <trkpt lat="44.45803" lon="1.11605">
        <ele>207.481033</ele>
        <time>2019-08-17T14:24:56Z</time>
      </trkpt>
      <trkpt lat="44.45802" lon="1.11602">
        <ele>207.806076</ele>
        <time>2019-08-17T14:24:57Z</time>
      </trkpt>
      <trkpt lat="44.45801" lon="1.116">
        <ele>208.119873</ele>
        <time>2019-08-17T14:24:58Z</time>
      </trkpt>
      <trkpt lat="44.458" lon="1.11597">
        <ele>208.426758</ele>
        <time>2019-08-17T14:24:59Z</time>
      </trkpt>
      <trkpt lat="44.45799" lon="1.11593">
        <ele>208.682205</ele>
        <time>2019-08-17T14:25:00Z</time>
      </trkpt>
      <trkpt lat="44.45798" lon="1.1159">
        <ele>208.933838</ele>
        <time>2019-08-17T14:25:01Z</time>
      </trkpt>
      <trkpt lat="44.45798" lon="1.11587">
        <ele>209.187256</ele>
        <time>2019-08-17T14:25:02Z</time>
      </trkpt>
      <trkpt lat="44.45798" lon="1.11583">
        <ele>209.44841</ele>
        <time>2019-08-17T14:25:03Z</time>
      </trkpt>
      <trkpt lat="44.45797" lon="1.1158">
        <ele>209.710205</ele>
        <time>2019-08-17T14:25:04Z</time>
      </trkpt>
      <trkpt lat="44.45796" lon="1.11578">
        <ele>209.972824</ele>
        <time>2019-08-17T14:25:05Z</time>
      </trkpt>
      <trkpt lat="44.45795" lon="1.11575">
        <ele>210.235031</ele>
        <time>2019-08-17T14:25:06Z</time>
      </trkpt>
      <trkpt lat="44.45794" lon="1.11572">
        <ele>210.235031</ele>
        <time>2019-08-17T14:25:07Z</time>
      </trkpt>
      <trkpt lat="44.45794" lon="1.1157">
        <ele>210.49968</ele>
        <time>2019-08-17T14:25:08Z</time>
      </trkpt>
      <trkpt lat="44.45792" lon="1.11567">
        <ele>210.764389</ele>
        <time>2019-08-17T14:25:09Z</time>
      </trkpt>
      <trkpt lat="44.45791" lon="1.11564">
        <ele>211.067017</ele>
        <time>2019-08-17T14:25:10Z</time>
      </trkpt>
      <trkpt lat="44.45789" lon="1.11562">
        <ele>211.365356</ele>
        <time>2019-08-17T14:25:11Z</time>
      </trkpt>
      <trkpt lat="44.45787" lon="1.11562">
        <ele>211.660812</ele>
        <time>2019-08-17T14:25:12Z</time>
      </trkpt>
      <trkpt lat="44.45784" lon="1.11564">
        <ele>211.957901</ele>
        <time>2019-08-17T14:25:13Z</time>
      </trkpt>
      <trkpt lat="44.45781" lon="1.11567">
        <ele>212.251511</ele>
        <time>2019-08-17T14:25:14Z</time>
      </trkpt>
      <trkpt lat="44.45779" lon="1.1157">
        <ele>212.495056</ele>
        <time>2019-08-17T14:25:15Z</time>
      </trkpt>
      <trkpt lat="44.45778" lon="1.11574">
        <ele>212.623108</ele>
        <time>2019-08-17T14:25:16Z</time>
      </trkpt>
      <trkpt lat="44.45776" lon="1.11578">
        <ele>212.672058</ele>
        <time>2019-08-17T14:25:17Z</time>
      </trkpt>
      <trkpt lat="44.45774" lon="1.11581">
        <ele>212.672058</ele>
        <time>2019-08-17T14:25:18Z</time>
      </trkpt>
      <trkpt lat="44.45771" lon="1.11584">
        <ele>212.672058</ele>
        <time>2019-08-17T14:25:19Z</time>
      </trkpt>
      <trkpt lat="44.4577" lon="1.11587">
        <ele>212.647446</ele>
        <time>2019-08-17T14:25:20Z</time>
      </trkpt>
      <trkpt lat="44.45767" lon="1.1159">
        <ele>212.555252</ele>
        <time>2019-08-17T14:25:21Z</time>
      </trkpt>
      <trkpt lat="44.45764" lon="1.11592">
        <ele>212.402695</ele>
        <time>2019-08-17T14:25:22Z</time>
      </trkpt>
      <trkpt lat="44.45762" lon="1.11594">
        <ele>212.237427</ele>
        <time>2019-08-17T14:25:23Z</time>
      </trkpt>
      <trkpt lat="44.45758" lon="1.11596">
        <ele>212.086288</ele>
        <time>2019-08-17T14:25:24Z</time>
      </trkpt>
      <trkpt lat="44.45755" lon="1.11598">
        <ele>211.963806</ele>
        <time>2019-08-17T14:25:25Z</time>
      </trkpt>
      <trkpt lat="44.45752" lon="1.116">
        <ele>211.872559</ele>
        <time>2019-08-17T14:25:26Z</time>
      </trkpt>
      <trkpt lat="44.45749" lon="1.11601">
        <ele>211.803055</ele>
        <time>2019-08-17T14:25:27Z</time>
      </trkpt>
      <trkpt lat="44.45746" lon="1.11602">
        <ele>211.753098</ele>
        <time>2019-08-17T14:25:28Z</time>
      </trkpt>
      <trkpt lat="44.45744" lon="1.11603">
        <ele>211.723938</ele>
        <time>2019-08-17T14:25:29Z</time>
      </trkpt>
      <trkpt lat="44.45741" lon="1.11604">
        <ele>211.713577</ele>
        <time>2019-08-17T14:25:30Z</time>
      </trkpt>
      <trkpt lat="44.45738" lon="1.11605">
        <ele>211.713364</ele>
        <time>2019-08-17T14:25:31Z</time>
      </trkpt>
      <trkpt lat="44.45735" lon="1.11606">
        <ele>211.713364</ele>
        <time>2019-08-17T14:25:32Z</time>
      </trkpt>
      <trkpt lat="44.45731" lon="1.11607">
        <ele>211.713364</ele>
        <time>2019-08-17T14:25:33Z</time>
      </trkpt>
      <trkpt lat="44.45729" lon="1.11608">
        <ele>211.714172</ele>
        <time>2019-08-17T14:25:34Z</time>
      </trkpt>
      <trkpt lat="44.45726" lon="1.11609">
        <ele>211.728073</ele>
        <time>2019-08-17T14:25:35Z</time>
      </trkpt>
      <trkpt lat="44.45723" lon="1.1161">
        <ele>211.753555</ele>
        <time>2019-08-17T14:25:36Z</time>
      </trkpt>
      <trkpt lat="44.45719" lon="1.11611">
        <ele>211.787109</ele>
        <time>2019-08-17T14:25:37Z</time>
      </trkpt>
      <trkpt lat="44.45716" lon="1.11612">
        <ele>211.823807</ele>
        <time>2019-08-17T14:25:38Z</time>
      </trkpt>
      <trkpt lat="44.45712" lon="1.11612">
        <ele>211.865189</ele>
        <time>2019-08-17T14:25:39Z</time>
      </trkpt>
      <trkpt lat="44.45709" lon="1.11613">
        <ele>211.915405</ele>
        <time>2019-08-17T14:25:40Z</time>
      </trkpt>
      <trkpt lat="44.45706" lon="1.11615">
        <ele>211.964188</ele>
        <time>2019-08-17T14:25:41Z</time>
      </trkpt>
      <trkpt lat="44.45703" lon="1.11615">
        <ele>212.014969</ele>
        <time>2019-08-17T14:25:42Z</time>
      </trkpt>
      <trkpt lat="44.457" lon="1.11616">
        <ele>212.070267</ele>
        <time>2019-08-17T14:25:43Z</time>
      </trkpt>
      <trkpt lat="44.45697" lon="1.11617">
        <ele>212.127808</ele>
        <time>2019-08-17T14:25:44Z</time>
      </trkpt>
      <trkpt lat="44.45694" lon="1.11618">
        <ele>212.189377</ele>
        <time>2019-08-17T14:25:45Z</time>
      </trkpt>
      <trkpt lat="44.45691" lon="1.11619">
        <ele>212.251846</ele>
        <time>2019-08-17T14:25:46Z</time>
      </trkpt>
      <trkpt lat="44.45688" lon="1.11621">
        <ele>212.308899</ele>
        <time>2019-08-17T14:25:47Z</time>
      </trkpt>
      <trkpt lat="44.45686" lon="1.11622">
        <ele>212.360672</ele>
        <time>2019-08-17T14:25:48Z</time>
      </trkpt>
      <trkpt lat="44.45683" lon="1.11624">
        <ele>212.40802</ele>
        <time>2019-08-17T14:25:49Z</time>
      </trkpt>
      <trkpt lat="44.4568" lon="1.11625">
        <ele>212.452408</ele>
        <time>2019-08-17T14:25:50Z</time>
      </trkpt>
      <trkpt lat="44.45677" lon="1.11627">
        <ele>212.493713</ele>
        <time>2019-08-17T14:25:51Z</time>
      </trkpt>
      <trkpt lat="44.45674" lon="1.11628">
        <ele>212.53833</ele>
        <time>2019-08-17T14:25:52Z</time>
      </trkpt>
      <trkpt lat="44.45672" lon="1.1163">
        <ele>212.594559</ele>
        <time>2019-08-17T14:25:53Z</time>
      </trkpt>
      <trkpt lat="44.45668" lon="1.11631">
        <ele>212.662582</ele>
        <time>2019-08-17T14:25:54Z</time>
      </trkpt>
      <trkpt lat="44.45666" lon="1.11633">
        <ele>212.741562</ele>
        <time>2019-08-17T14:25:55Z</time>
      </trkpt>
      <trkpt lat="44.45663" lon="1.11635">
        <ele>212.831955</ele>
        <time>2019-08-17T14:25:56Z</time>
      </trkpt>
      <trkpt lat="44.4566" lon="1.11637">
        <ele>212.933334</ele>
        <time>2019-08-17T14:25:57Z</time>
      </trkpt>
      <trkpt lat="44.45657" lon="1.11639">
        <ele>213.035767</ele>
        <time>2019-08-17T14:25:58Z</time>
      </trkpt>
      <trkpt lat="44.45654" lon="1.11641">
        <ele>213.137695</ele>
        <time>2019-08-17T14:25:59Z</time>
      </trkpt>
      <trkpt lat="44.45651" lon="1.11642">
        <ele>213.241074</ele>
        <time>2019-08-17T14:26:00Z</time>
      </trkpt>
      <trkpt lat="44.45648" lon="1.11644">
        <ele>213.344421</ele>
        <time>2019-08-17T14:26:01Z</time>
      </trkpt>
      <trkpt lat="44.45646" lon="1.11646">
        <ele>213.451721</ele>
        <time>2019-08-17T14:26:02Z</time>
      </trkpt>
      <trkpt lat="44.45643" lon="1.11647">
        <ele>213.563843</ele>
        <time>2019-08-17T14:26:03Z</time>
      </trkpt>
      <trkpt lat="44.4564" lon="1.11648">
        <ele>213.679398</ele>
        <time>2019-08-17T14:26:04Z</time>
      </trkpt>
      <trkpt lat="44.45637" lon="1.1165">
        <ele>213.796951</ele>
        <time>2019-08-17T14:26:05Z</time>
      </trkpt>
      <trkpt lat="44.45634" lon="1.11651">
        <ele>213.91925</ele>
        <time>2019-08-17T14:26:06Z</time>
      </trkpt>
      <trkpt lat="44.4563" lon="1.11653">
        <ele>213.91925</ele>
        <time>2019-08-17T14:26:07Z</time>
      </trkpt>
      <trkpt lat="44.45627" lon="1.11654">
        <ele>214.05217</ele>
        <time>2019-08-17T14:26:08Z</time>
      </trkpt>
      <trkpt lat="44.45624" lon="1.11655">
        <ele>214.192551</ele>
        <time>2019-08-17T14:26:09Z</time>
      </trkpt>
      <trkpt lat="44.45621" lon="1.11657">
        <ele>214.364456</ele>
        <time>2019-08-17T14:26:10Z</time>
      </trkpt>
      <trkpt lat="44.45618" lon="1.11658">
        <ele>214.54364</ele>
        <time>2019-08-17T14:26:11Z</time>
      </trkpt>
      <trkpt lat="44.45615" lon="1.11659">
        <ele>214.731262</ele>
        <time>2019-08-17T14:26:12Z</time>
      </trkpt>
      <trkpt lat="44.45612" lon="1.1166">
        <ele>214.921997</ele>
        <time>2019-08-17T14:26:13Z</time>
      </trkpt>
      <trkpt lat="44.45609" lon="1.11661">
        <ele>215.115158</ele>
        <time>2019-08-17T14:26:14Z</time>
      </trkpt>
      <trkpt lat="44.45606" lon="1.11662">
        <ele>215.305176</ele>
        <time>2019-08-17T14:26:15Z</time>
      </trkpt>
      <trkpt lat="44.45602" lon="1.11663">
        <ele>215.467026</ele>
        <time>2019-08-17T14:26:16Z</time>
      </trkpt>
      <trkpt lat="44.45599" lon="1.11664">
        <ele>215.62677</ele>
        <time>2019-08-17T14:26:17Z</time>
      </trkpt>
      <trkpt lat="44.45596" lon="1.11665">
        <ele>215.782104</ele>
        <time>2019-08-17T14:26:18Z</time>
      </trkpt>
      <trkpt lat="44.45592" lon="1.11666">
        <ele>215.93779</ele>
        <time>2019-08-17T14:26:19Z</time>
      </trkpt>
      <trkpt lat="44.45589" lon="1.11667">
        <ele>216.090622</ele>
        <time>2019-08-17T14:26:20Z</time>
      </trkpt>
      <trkpt lat="44.45586" lon="1.11667">
        <ele>216.247147</ele>
        <time>2019-08-17T14:26:21Z</time>
      </trkpt>
      <trkpt lat="44.45583" lon="1.11668">
        <ele>216.407349</ele>
        <time>2019-08-17T14:26:22Z</time>
      </trkpt>
      <trkpt lat="44.45579" lon="1.11669">
        <ele>216.569702</ele>
        <time>2019-08-17T14:26:23Z</time>
      </trkpt>
      <trkpt lat="44.45576" lon="1.1167">
        <ele>216.735214</ele>
        <time>2019-08-17T14:26:24Z</time>
      </trkpt>
      <trkpt lat="44.45573" lon="1.11671">
        <ele>216.903397</ele>
        <time>2019-08-17T14:26:25Z</time>
      </trkpt>
      <trkpt lat="44.4557" lon="1.11671">
        <ele>217.074875</ele>
        <time>2019-08-17T14:26:26Z</time>
      </trkpt>
      <trkpt lat="44.45566" lon="1.11672">
        <ele>217.249222</ele>
        <time>2019-08-17T14:26:27Z</time>
      </trkpt>
      <trkpt lat="44.45563" lon="1.11672">
        <ele>217.42366</ele>
        <time>2019-08-17T14:26:28Z</time>
      </trkpt>
      <trkpt lat="44.45559" lon="1.11672">
        <ele>217.600876</ele>
        <time>2019-08-17T14:26:29Z</time>
      </trkpt>
      <trkpt lat="44.45554" lon="1.11672">
        <ele>217.783813</ele>
        <time>2019-08-17T14:26:30Z</time>
      </trkpt>
      <trkpt lat="44.45549" lon="1.11673">
        <ele>217.973755</ele>
        <time>2019-08-17T14:26:31Z</time>
      </trkpt>
      <trkpt lat="44.45544" lon="1.11676">
        <ele>218.174606</ele>
        <time>2019-08-17T14:26:32Z</time>
      </trkpt>
      <trkpt lat="44.4554" lon="1.11679">
        <ele>218.3936</ele>
        <time>2019-08-17T14:26:33Z</time>
      </trkpt>
      <trkpt lat="44.45536" lon="1.11683">
        <ele>218.629715</ele>
        <time>2019-08-17T14:26:34Z</time>
      </trkpt>
      <trkpt lat="44.45533" lon="1.11686">
        <ele>218.876465</ele>
        <time>2019-08-17T14:26:35Z</time>
      </trkpt>
      <trkpt lat="44.4553" lon="1.11689">
        <ele>219.119278</ele>
        <time>2019-08-17T14:26:36Z</time>
      </trkpt>
      <trkpt lat="44.45528" lon="1.11691">
        <ele>219.348495</ele>
        <time>2019-08-17T14:26:37Z</time>
      </trkpt>
      <trkpt lat="44.45525" lon="1.11694">
        <ele>219.348495</ele>
        <time>2019-08-17T14:26:38Z</time>
      </trkpt>
      <trkpt lat="44.45522" lon="1.11697">
        <ele>219.553543</ele>
        <time>2019-08-17T14:26:39Z</time>
      </trkpt>
      <trkpt lat="44.4552" lon="1.117">
        <ele>219.72644</ele>
        <time>2019-08-17T14:26:40Z</time>
      </trkpt>
      <trkpt lat="44.45516" lon="1.11702">
        <ele>219.879761</ele>
        <time>2019-08-17T14:26:41Z</time>
      </trkpt>
      <trkpt lat="44.45513" lon="1.11705">
        <ele>220.005615</ele>
        <time>2019-08-17T14:26:42Z</time>
      </trkpt>
      <trkpt lat="44.4551" lon="1.11709">
        <ele>220.114182</ele>
        <time>2019-08-17T14:26:43Z</time>
      </trkpt>
      <trkpt lat="44.45507" lon="1.11712">
        <ele>220.213562</ele>
        <time>2019-08-17T14:26:44Z</time>
      </trkpt>
      <trkpt lat="44.45504" lon="1.11715">
        <ele>220.309097</ele>
        <time>2019-08-17T14:26:45Z</time>
      </trkpt>
      <trkpt lat="44.455" lon="1.11718">
        <ele>220.398239</ele>
        <time>2019-08-17T14:26:46Z</time>
      </trkpt>
      <trkpt lat="44.45497" lon="1.11721">
        <ele>220.469437</ele>
        <time>2019-08-17T14:26:47Z</time>
      </trkpt>
      <trkpt lat="44.45493" lon="1.11723">
        <ele>220.54126</ele>
        <time>2019-08-17T14:26:48Z</time>
      </trkpt>
      <trkpt lat="44.4549" lon="1.11726">
        <ele>220.620117</ele>
        <time>2019-08-17T14:26:49Z</time>
      </trkpt>
      <trkpt lat="44.45487" lon="1.11729">
        <ele>220.713257</ele>
        <time>2019-08-17T14:26:50Z</time>
      </trkpt>
      <trkpt lat="44.45484" lon="1.11731">
        <ele>220.820267</ele>
        <time>2019-08-17T14:26:51Z</time>
      </trkpt>
      <trkpt lat="44.4548" lon="1.11733">
        <ele>220.943802</ele>
        <time>2019-08-17T14:26:52Z</time>
      </trkpt>
      <trkpt lat="44.45478" lon="1.11736">
        <ele>221.08345</ele>
        <time>2019-08-17T14:26:53Z</time>
      </trkpt>
      <trkpt lat="44.45475" lon="1.11738">
        <ele>221.233398</ele>
        <time>2019-08-17T14:26:54Z</time>
      </trkpt>
      <trkpt lat="44.45473" lon="1.1174">
        <ele>221.386063</ele>
        <time>2019-08-17T14:26:55Z</time>
      </trkpt>
      <trkpt lat="44.4547" lon="1.11742">
        <ele>221.529099</ele>
        <time>2019-08-17T14:26:56Z</time>
      </trkpt>
      <trkpt lat="44.45467" lon="1.11743">
        <ele>221.66304</ele>
        <time>2019-08-17T14:26:57Z</time>
      </trkpt>
      <trkpt lat="44.45464" lon="1.11745">
        <ele>221.788467</ele>
        <time>2019-08-17T14:26:58Z</time>
      </trkpt>
      <trkpt lat="44.45462" lon="1.11746">
        <ele>221.906662</ele>
        <time>2019-08-17T14:26:59Z</time>
      </trkpt>
      <trkpt lat="44.45459" lon="1.11747">
        <ele>222.021927</ele>
        <time>2019-08-17T14:27:00Z</time>
      </trkpt>
      <trkpt lat="44.45457" lon="1.11748">
        <ele>222.136475</ele>
        <time>2019-08-17T14:27:01Z</time>
      </trkpt>
      <trkpt lat="44.45454" lon="1.11749">
        <ele>222.252808</ele>
        <time>2019-08-17T14:27:02Z</time>
      </trkpt>
      <trkpt lat="44.45451" lon="1.11748">
        <ele>222.370117</ele>
        <time>2019-08-17T14:27:03Z</time>
      </trkpt>
      <trkpt lat="44.45449" lon="1.11748">
        <ele>222.488937</ele>
        <time>2019-08-17T14:27:04Z</time>
      </trkpt>
      <trkpt lat="44.45447" lon="1.11748">
        <ele>222.610474</ele>
        <time>2019-08-17T14:27:05Z</time>
      </trkpt>
      <trkpt lat="44.45444" lon="1.11748">
        <ele>222.732315</ele>
        <time>2019-08-17T14:27:06Z</time>
      </trkpt>
      <trkpt lat="44.45441" lon="1.11747">
        <ele>222.732315</ele>
        <time>2019-08-17T14:27:07Z</time>
      </trkpt>
      <trkpt lat="44.45438" lon="1.11747">
        <ele>222.854019</ele>
        <time>2019-08-17T14:27:08Z</time>
      </trkpt>
      <trkpt lat="44.45435" lon="1.11746">
        <ele>222.977737</ele>
        <time>2019-08-17T14:27:09Z</time>
      </trkpt>
      <trkpt lat="44.45432" lon="1.11745">
        <ele>223.131241</ele>
        <time>2019-08-17T14:27:10Z</time>
      </trkpt>
      <trkpt lat="44.45429" lon="1.11744">
        <ele>223.293701</ele>
        <time>2019-08-17T14:27:11Z</time>
      </trkpt>
      <trkpt lat="44.45426" lon="1.11743">
        <ele>223.464249</ele>
        <time>2019-08-17T14:27:12Z</time>
      </trkpt>
      <trkpt lat="44.45423" lon="1.11742">
        <ele>223.643753</ele>
        <time>2019-08-17T14:27:13Z</time>
      </trkpt>
      <trkpt lat="44.4542" lon="1.1174">
        <ele>223.833237</ele>
        <time>2019-08-17T14:27:14Z</time>
      </trkpt>
      <trkpt lat="44.45417" lon="1.11739">
        <ele>224.03241</ele>
        <time>2019-08-17T14:27:15Z</time>
      </trkpt>
      <trkpt lat="44.45413" lon="1.11738">
        <ele>224.215652</ele>
        <time>2019-08-17T14:27:16Z</time>
      </trkpt>
      <trkpt lat="44.4541" lon="1.11737">
        <ele>224.404846</ele>
        <time>2019-08-17T14:27:17Z</time>
      </trkpt>
      <trkpt lat="44.45407" lon="1.11737">
        <ele>224.599319</ele>
        <time>2019-08-17T14:27:18Z</time>
      </trkpt>
      <trkpt lat="44.45404" lon="1.11736">
        <ele>224.797745</ele>
        <time>2019-08-17T14:27:19Z</time>
      </trkpt>
      <trkpt lat="44.45401" lon="1.11735">
        <ele>224.998154</ele>
        <time>2019-08-17T14:27:20Z</time>
      </trkpt>
      <trkpt lat="44.45398" lon="1.11735">
        <ele>225.200424</ele>
        <time>2019-08-17T14:27:21Z</time>
      </trkpt>
      <trkpt lat="44.45395" lon="1.11735">
        <ele>225.402939</ele>
        <time>2019-08-17T14:27:22Z</time>
      </trkpt>
      <trkpt lat="44.45392" lon="1.11735">
        <ele>225.6035</ele>
        <time>2019-08-17T14:27:23Z</time>
      </trkpt>
      <trkpt lat="44.45389" lon="1.11734">
        <ele>225.801254</ele>
        <time>2019-08-17T14:27:24Z</time>
      </trkpt>
      <trkpt lat="44.45386" lon="1.11734">
        <ele>225.998367</ele>
        <time>2019-08-17T14:27:25Z</time>
      </trkpt>
      <trkpt lat="44.45382" lon="1.11734">
        <ele>226.192215</ele>
        <time>2019-08-17T14:27:26Z</time>
      </trkpt>
      <trkpt lat="44.45379" lon="1.11733">
        <ele>226.383957</ele>
        <time>2019-08-17T14:27:27Z</time>
      </trkpt>
      <trkpt lat="44.45376" lon="1.11733">
        <ele>226.57373</ele>
        <time>2019-08-17T14:27:28Z</time>
      </trkpt>
      <trkpt lat="44.45373" lon="1.11733">
        <ele>226.763184</ele>
        <time>2019-08-17T14:27:29Z</time>
      </trkpt>
      <trkpt lat="44.4537" lon="1.11732">
        <ele>226.952316</ele>
        <time>2019-08-17T14:27:30Z</time>
      </trkpt>
      <trkpt lat="44.45367" lon="1.11732">
        <ele>227.137695</ele>
        <time>2019-08-17T14:27:31Z</time>
      </trkpt>
      <trkpt lat="44.45364" lon="1.11732">
        <ele>227.323898</ele>
        <time>2019-08-17T14:27:32Z</time>
      </trkpt>
      <trkpt lat="44.45361" lon="1.11732">
        <ele>227.512527</ele>
        <time>2019-08-17T14:27:33Z</time>
      </trkpt>
      <trkpt lat="44.45359" lon="1.11732">
        <ele>227.701172</ele>
        <time>2019-08-17T14:27:34Z</time>
      </trkpt>
      <trkpt lat="44.45356" lon="1.11732">
        <ele>227.886551</ele>
        <time>2019-08-17T14:27:35Z</time>
      </trkpt>
      <trkpt lat="44.45354" lon="1.11733">
        <ele>227.886551</ele>
        <time>2019-08-17T14:27:36Z</time>
      </trkpt>
      <trkpt lat="44.45352" lon="1.11734">
        <ele>228.067062</ele>
        <time>2019-08-17T14:27:37Z</time>
      </trkpt>
      <trkpt lat="44.4535" lon="1.11736">
        <ele>228.242676</ele>
        <time>2019-08-17T14:27:38Z</time>
      </trkpt>
      <trkpt lat="44.45348" lon="1.11739">
        <ele>228.430496</ele>
        <time>2019-08-17T14:27:39Z</time>
      </trkpt>
      <trkpt lat="44.45347" lon="1.11743">
        <ele>228.601242</ele>
        <time>2019-08-17T14:27:40Z</time>
      </trkpt>
      <trkpt lat="44.45347" lon="1.11748">
        <ele>228.739746</ele>
        <time>2019-08-17T14:27:41Z</time>
      </trkpt>
      <trkpt lat="44.45345" lon="1.11752">
        <ele>228.836914</ele>
        <time>2019-08-17T14:27:42Z</time>
      </trkpt>
      <trkpt lat="44.45345" lon="1.11756">
        <ele>228.89502</ele>
        <time>2019-08-17T14:27:43Z</time>
      </trkpt>
      <trkpt lat="44.45344" lon="1.11761">
        <ele>228.915848</ele>
        <time>2019-08-17T14:27:44Z</time>
      </trkpt>
      <trkpt lat="44.45343" lon="1.11765">
        <ele>228.915848</ele>
        <time>2019-08-17T14:27:45Z</time>
      </trkpt>
      <trkpt lat="44.45342" lon="1.1177">
        <ele>228.915848</ele>
        <time>2019-08-17T14:27:46Z</time>
      </trkpt>
      <trkpt lat="44.45341" lon="1.11774">
        <ele>228.879395</ele>
        <time>2019-08-17T14:27:47Z</time>
      </trkpt>
      <trkpt lat="44.4534" lon="1.11778">
        <ele>228.811356</ele>
        <time>2019-08-17T14:27:48Z</time>
      </trkpt>
      <trkpt lat="44.4534" lon="1.11782">
        <ele>228.726379</ele>
        <time>2019-08-17T14:27:49Z</time>
      </trkpt>
      <trkpt lat="44.45338" lon="1.11785">
        <ele>228.726379</ele>
        <time>2019-08-17T14:27:50Z</time>
      </trkpt>
      <trkpt lat="44.45337" lon="1.11789">
        <ele>228.638596</ele>
        <time>2019-08-17T14:27:51Z</time>
      </trkpt>
      <trkpt lat="44.45336" lon="1.11793">
        <ele>228.549789</ele>
        <time>2019-08-17T14:27:52Z</time>
      </trkpt>
      <trkpt lat="44.45334" lon="1.11796">
        <ele>228.445633</ele>
        <time>2019-08-17T14:27:53Z</time>
      </trkpt>
      <trkpt lat="44.45332" lon="1.11799">
        <ele>228.350159</ele>
        <time>2019-08-17T14:27:54Z</time>
      </trkpt>
      <trkpt lat="44.4533" lon="1.11802">
        <ele>228.266098</ele>
        <time>2019-08-17T14:27:55Z</time>
      </trkpt>
      <trkpt lat="44.45328" lon="1.11805">
        <ele>228.201004</ele>
        <time>2019-08-17T14:27:56Z</time>
      </trkpt>
      <trkpt lat="44.45326" lon="1.11807">
        <ele>228.152115</ele>
        <time>2019-08-17T14:27:57Z</time>
      </trkpt>
      <trkpt lat="44.45324" lon="1.1181">
        <ele>228.115982</ele>
        <time>2019-08-17T14:27:58Z</time>
      </trkpt>
      <trkpt lat="44.45322" lon="1.11812">
        <ele>228.107971</ele>
        <time>2019-08-17T14:27:59Z</time>
      </trkpt>
      <trkpt lat="44.45319" lon="1.11814">
        <ele>228.107971</ele>
        <time>2019-08-17T14:28:00Z</time>
      </trkpt>
      <trkpt lat="44.45318" lon="1.11817">
        <ele>228.107971</ele>
        <time>2019-08-17T14:28:01Z</time>
      </trkpt>
      <trkpt lat="44.45315" lon="1.11819">
        <ele>228.108215</ele>
        <time>2019-08-17T14:28:02Z</time>
      </trkpt>
      <trkpt lat="44.45313" lon="1.11822">
        <ele>228.108215</ele>
        <time>2019-08-17T14:28:03Z</time>
      </trkpt>
      <trkpt lat="44.45311" lon="1.11825">
        <ele>228.112442</ele>
        <time>2019-08-17T14:28:04Z</time>
      </trkpt>
      <trkpt lat="44.45309" lon="1.11827">
        <ele>228.113419</ele>
        <time>2019-08-17T14:28:05Z</time>
      </trkpt>
      <trkpt lat="44.45306" lon="1.11829">
        <ele>228.113419</ele>
        <time>2019-08-17T14:28:06Z</time>
      </trkpt>
      <trkpt lat="44.45304" lon="1.11831">
        <ele>228.113785</ele>
        <time>2019-08-17T14:28:07Z</time>
      </trkpt>
      <trkpt lat="44.45301" lon="1.11833">
        <ele>228.113586</ele>
        <time>2019-08-17T14:28:08Z</time>
      </trkpt>
      <trkpt lat="44.45299" lon="1.11836">
        <ele>228.113586</ele>
        <time>2019-08-17T14:28:09Z</time>
      </trkpt>
      <trkpt lat="44.45297" lon="1.11838">
        <ele>228.113571</ele>
        <time>2019-08-17T14:28:10Z</time>
      </trkpt>
      <trkpt lat="44.45294" lon="1.1184">
        <ele>228.113571</ele>
        <time>2019-08-17T14:28:11Z</time>
      </trkpt>
      <trkpt lat="44.45292" lon="1.11842">
        <ele>228.110168</ele>
        <time>2019-08-17T14:28:12Z</time>
      </trkpt>
      <trkpt lat="44.45289" lon="1.11844">
        <ele>228.104248</ele>
        <time>2019-08-17T14:28:13Z</time>
      </trkpt>
      <trkpt lat="44.45287" lon="1.11847">
        <ele>228.100464</ele>
        <time>2019-08-17T14:28:14Z</time>
      </trkpt>
      <trkpt lat="44.45284" lon="1.11849">
        <ele>228.095139</ele>
        <time>2019-08-17T14:28:15Z</time>
      </trkpt>
      <trkpt lat="44.45282" lon="1.11851">
        <ele>228.085693</ele>
        <time>2019-08-17T14:28:16Z</time>
      </trkpt>
      <trkpt lat="44.45279" lon="1.11853">
        <ele>228.073547</ele>
        <time>2019-08-17T14:28:17Z</time>
      </trkpt>
      <trkpt lat="44.45278" lon="1.11855">
        <ele>228.060135</ele>
        <time>2019-08-17T14:28:18Z</time>
      </trkpt>
      <trkpt lat="44.45278" lon="1.11859">
        <ele>228.046387</ele>
        <time>2019-08-17T14:28:19Z</time>
      </trkpt>
      <trkpt lat="44.45279" lon="1.11863">
        <ele>228.028442</ele>
        <time>2019-08-17T14:28:20Z</time>
      </trkpt>
      <trkpt lat="44.45282" lon="1.11866">
        <ele>228.003098</ele>
        <time>2019-08-17T14:28:21Z</time>
      </trkpt>
      <trkpt lat="44.45285" lon="1.1187">
        <ele>228.003098</ele>
        <time>2019-08-17T14:28:22Z</time>
      </trkpt>
      <trkpt lat="44.45288" lon="1.11874">
        <ele>227.9655</ele>
        <time>2019-08-17T14:28:23Z</time>
      </trkpt>
      <trkpt lat="44.45292" lon="1.11878">
        <ele>227.910782</ele>
        <time>2019-08-17T14:28:24Z</time>
      </trkpt>
      <trkpt lat="44.45295" lon="1.11882">
        <ele>227.819168</ele>
        <time>2019-08-17T14:28:25Z</time>
      </trkpt>
      <trkpt lat="44.45299" lon="1.11886">
        <ele>227.819168</ele>
        <time>2019-08-17T14:28:26Z</time>
      </trkpt>
      <trkpt lat="44.45303" lon="1.1189">
        <ele>227.709763</ele>
        <time>2019-08-17T14:28:27Z</time>
      </trkpt>
      <trkpt lat="44.45307" lon="1.11895">
        <ele>227.587646</ele>
        <time>2019-08-17T14:28:28Z</time>
      </trkpt>
      <trkpt lat="44.45311" lon="1.119">
        <ele>227.442383</ele>
        <time>2019-08-17T14:28:29Z</time>
      </trkpt>
      <trkpt lat="44.45316" lon="1.11905">
        <ele>227.300461</ele>
        <time>2019-08-17T14:28:30Z</time>
      </trkpt>
      <trkpt lat="44.45321" lon="1.1191">
        <ele>227.167557</ele>
        <time>2019-08-17T14:28:31Z</time>
      </trkpt>
      <trkpt lat="44.45326" lon="1.11916">
        <ele>227.065002</ele>
        <time>2019-08-17T14:28:32Z</time>
      </trkpt>
      <trkpt lat="44.45331" lon="1.11921">
        <ele>226.976181</ele>
        <time>2019-08-17T14:28:33Z</time>
      </trkpt>
      <trkpt lat="44.45337" lon="1.11927">
        <ele>226.907669</ele>
        <time>2019-08-17T14:28:34Z</time>
      </trkpt>
      <trkpt lat="44.45342" lon="1.11933">
        <ele>226.881165</ele>
        <time>2019-08-17T14:28:35Z</time>
      </trkpt>
      <trkpt lat="44.45347" lon="1.11939">
        <ele>226.881165</ele>
        <time>2019-08-17T14:28:36Z</time>
      </trkpt>
      <trkpt lat="44.45353" lon="1.11944">
        <ele>226.863403</ele>
        <time>2019-08-17T14:28:37Z</time>
      </trkpt>
      <trkpt lat="44.45358" lon="1.11949">
        <ele>226.846725</ele>
        <time>2019-08-17T14:28:38Z</time>
      </trkpt>
      <trkpt lat="44.45363" lon="1.11956">
        <ele>226.846725</ele>
        <time>2019-08-17T14:28:39Z</time>
      </trkpt>
      <trkpt lat="44.45368" lon="1.11962">
        <ele>226.831711</ele>
        <time>2019-08-17T14:28:40Z</time>
      </trkpt>
      <trkpt lat="44.45374" lon="1.11966">
        <ele>226.806747</ele>
        <time>2019-08-17T14:28:41Z</time>
      </trkpt>
      <trkpt lat="44.45379" lon="1.11969">
        <ele>226.740051</ele>
        <time>2019-08-17T14:28:42Z</time>
      </trkpt>
      <trkpt lat="44.45385" lon="1.11971">
        <ele>226.650375</ele>
        <time>2019-08-17T14:28:43Z</time>
      </trkpt>
      <trkpt lat="44.4539" lon="1.11972">
        <ele>226.533585</ele>
        <time>2019-08-17T14:28:44Z</time>
      </trkpt>
      <trkpt lat="44.45395" lon="1.11973">
        <ele>226.384277</ele>
        <time>2019-08-17T14:28:45Z</time>
      </trkpt>
      <trkpt lat="44.45399" lon="1.11973">
        <ele>226.202148</ele>
        <time>2019-08-17T14:28:46Z</time>
      </trkpt>
      <trkpt lat="44.45403" lon="1.11974">
        <ele>226.021652</ele>
        <time>2019-08-17T14:28:47Z</time>
      </trkpt>
      <trkpt lat="44.45407" lon="1.11975">
        <ele>225.86702</ele>
        <time>2019-08-17T14:28:48Z</time>
      </trkpt>
      <trkpt lat="44.45411" lon="1.11976">
        <ele>225.717453</ele>
        <time>2019-08-17T14:28:49Z</time>
      </trkpt>
      <trkpt lat="44.45414" lon="1.11977">
        <ele>225.575851</ele>
        <time>2019-08-17T14:28:50Z</time>
      </trkpt>
      <trkpt lat="44.45418" lon="1.11978">
        <ele>225.443192</ele>
        <time>2019-08-17T14:28:51Z</time>
      </trkpt>
      <trkpt lat="44.45422" lon="1.11979">
        <ele>225.319504</ele>
        <time>2019-08-17T14:28:52Z</time>
      </trkpt>
      <trkpt lat="44.45425" lon="1.1198">
        <ele>225.203354</ele>
        <time>2019-08-17T14:28:53Z</time>
      </trkpt>
      <trkpt lat="44.45429" lon="1.11981">
        <ele>225.089554</ele>
        <time>2019-08-17T14:28:54Z</time>
      </trkpt>
      <trkpt lat="44.45432" lon="1.11982">
        <ele>224.976761</ele>
        <time>2019-08-17T14:28:55Z</time>
      </trkpt>
      <trkpt lat="44.45436" lon="1.11982">
        <ele>224.863647</ele>
        <time>2019-08-17T14:28:56Z</time>
      </trkpt>
      <trkpt lat="44.45439" lon="1.11982">
        <ele>224.751205</ele>
        <time>2019-08-17T14:28:57Z</time>
      </trkpt>
      <trkpt lat="44.45443" lon="1.11983">
        <ele>224.638657</ele>
        <time>2019-08-17T14:28:58Z</time>
      </trkpt>
      <trkpt lat="44.45447" lon="1.11983">
        <ele>224.52562</ele>
        <time>2019-08-17T14:28:59Z</time>
      </trkpt>
      <trkpt lat="44.45451" lon="1.11982">
        <ele>224.414078</ele>
        <time>2019-08-17T14:29:00Z</time>
      </trkpt>
      <trkpt lat="44.45454" lon="1.11982">
        <ele>224.301895</ele>
        <time>2019-08-17T14:29:01Z</time>
      </trkpt>
      <trkpt lat="44.45458" lon="1.11981">
        <ele>224.18895</ele>
        <time>2019-08-17T14:29:02Z</time>
      </trkpt>
      <trkpt lat="44.45461" lon="1.11981">
        <ele>224.074448</ele>
        <time>2019-08-17T14:29:03Z</time>
      </trkpt>
      <trkpt lat="44.45465" lon="1.1198">
        <ele>223.959793</ele>
        <time>2019-08-17T14:29:04Z</time>
      </trkpt>
      <trkpt lat="44.45468" lon="1.1198">
        <ele>223.844986</ele>
        <time>2019-08-17T14:29:05Z</time>
      </trkpt>
      <trkpt lat="44.45472" lon="1.1198">
        <ele>223.728149</ele>
        <time>2019-08-17T14:29:06Z</time>
      </trkpt>
      <trkpt lat="44.45475" lon="1.11981">
        <ele>223.61171</ele>
        <time>2019-08-17T14:29:07Z</time>
      </trkpt>
      <trkpt lat="44.45478" lon="1.11982">
        <ele>223.61171</ele>
        <time>2019-08-17T14:29:08Z</time>
      </trkpt>
      <trkpt lat="44.45482" lon="1.11984">
        <ele>223.496399</ele>
        <time>2019-08-17T14:29:09Z</time>
      </trkpt>
      <trkpt lat="44.45485" lon="1.11985">
        <ele>223.381973</ele>
        <time>2019-08-17T14:29:10Z</time>
      </trkpt>
      <trkpt lat="44.45488" lon="1.11988">
        <ele>223.297714</ele>
        <time>2019-08-17T14:29:11Z</time>
      </trkpt>
      <trkpt lat="44.45491" lon="1.11991">
        <ele>223.268356</ele>
        <time>2019-08-17T14:29:12Z</time>
      </trkpt>
      <trkpt lat="44.45494" lon="1.11995">
        <ele>223.268356</ele>
        <time>2019-08-17T14:29:13Z</time>
      </trkpt>
      <trkpt lat="44.45496" lon="1.11998">
        <ele>223.268356</ele>
        <time>2019-08-17T14:29:14Z</time>
      </trkpt>
      <trkpt lat="44.45499" lon="1.12002">
        <ele>223.296982</ele>
        <time>2019-08-17T14:29:15Z</time>
      </trkpt>
      <trkpt lat="44.45501" lon="1.12006">
        <ele>223.381149</ele>
        <time>2019-08-17T14:29:16Z</time>
      </trkpt>
      <trkpt lat="44.45503" lon="1.1201">
        <ele>223.520935</ele>
        <time>2019-08-17T14:29:17Z</time>
      </trkpt>
      <trkpt lat="44.45506" lon="1.12014">
        <ele>223.716003</ele>
        <time>2019-08-17T14:29:18Z</time>
      </trkpt>
      <trkpt lat="44.45508" lon="1.12018">
        <ele>223.935242</ele>
        <time>2019-08-17T14:29:19Z</time>
      </trkpt>
      <trkpt lat="44.45511" lon="1.12022">
        <ele>224.154907</ele>
        <time>2019-08-17T14:29:20Z</time>
      </trkpt>
      <trkpt lat="44.45513" lon="1.12025">
        <ele>224.374695</ele>
        <time>2019-08-17T14:29:21Z</time>
      </trkpt>
      <trkpt lat="44.45516" lon="1.12028">
        <ele>224.595779</ele>
        <time>2019-08-17T14:29:22Z</time>
      </trkpt>
      <trkpt lat="44.4552" lon="1.12031">
        <ele>224.819458</ele>
        <time>2019-08-17T14:29:23Z</time>
      </trkpt>
      <trkpt lat="44.45523" lon="1.12033">
        <ele>225.046188</ele>
        <time>2019-08-17T14:29:24Z</time>
      </trkpt>
      <trkpt lat="44.45527" lon="1.12035">
        <ele>225.283813</ele>
        <time>2019-08-17T14:29:25Z</time>
      </trkpt>
      <trkpt lat="44.4553" lon="1.12037">
        <ele>225.531662</ele>
        <time>2019-08-17T14:29:26Z</time>
      </trkpt>
      <trkpt lat="44.45533" lon="1.1204">
        <ele>225.787766</ele>
        <time>2019-08-17T14:29:27Z</time>
      </trkpt>
      <trkpt lat="44.45536" lon="1.12042">
        <ele>226.053024</ele>
        <time>2019-08-17T14:29:28Z</time>
      </trkpt>
      <trkpt lat="44.4554" lon="1.12044">
        <ele>226.325012</ele>
        <time>2019-08-17T14:29:29Z</time>
      </trkpt>
      <trkpt lat="44.45543" lon="1.12046">
        <ele>226.605225</ele>
        <time>2019-08-17T14:29:30Z</time>
      </trkpt>
      <trkpt lat="44.45546" lon="1.12048">
        <ele>226.886307</ele>
        <time>2019-08-17T14:29:31Z</time>
      </trkpt>
      <trkpt lat="44.45549" lon="1.1205">
        <ele>227.167664</ele>
        <time>2019-08-17T14:29:32Z</time>
      </trkpt>
      <trkpt lat="44.45552" lon="1.12053">
        <ele>227.448318</ele>
        <time>2019-08-17T14:29:33Z</time>
      </trkpt>
      <trkpt lat="44.45554" lon="1.12056">
        <ele>227.729614</ele>
        <time>2019-08-17T14:29:34Z</time>
      </trkpt>
      <trkpt lat="44.45556" lon="1.12059">
        <ele>228.011185</ele>
        <time>2019-08-17T14:29:35Z</time>
      </trkpt>
      <trkpt lat="44.45558" lon="1.12064">
        <ele>228.295975</ele>
        <time>2019-08-17T14:29:36Z</time>
      </trkpt>
      <trkpt lat="44.45559" lon="1.12069">
        <ele>228.295975</ele>
        <time>2019-08-17T14:29:37Z</time>
      </trkpt>
      <trkpt lat="44.45561" lon="1.12075">
        <ele>228.581558</ele>
        <time>2019-08-17T14:29:38Z</time>
      </trkpt>
      <trkpt lat="44.45562" lon="1.12081">
        <ele>228.869141</ele>
        <time>2019-08-17T14:29:39Z</time>
      </trkpt>
      <trkpt lat="44.45562" lon="1.12088">
        <ele>229.158401</ele>
        <time>2019-08-17T14:29:40Z</time>
      </trkpt>
      <trkpt lat="44.45563" lon="1.12095">
        <ele>229.417236</ele>
        <time>2019-08-17T14:29:41Z</time>
      </trkpt>
      <trkpt lat="44.45564" lon="1.12103">
        <ele>229.63855</ele>
        <time>2019-08-17T14:29:42Z</time>
      </trkpt>
      <trkpt lat="44.45565" lon="1.12112">
        <ele>229.812454</ele>
        <time>2019-08-17T14:29:43Z</time>
      </trkpt>
      <trkpt lat="44.45564" lon="1.1212">
        <ele>229.948242</ele>
        <time>2019-08-17T14:29:44Z</time>
      </trkpt>
      <trkpt lat="44.45563" lon="1.12129">
        <ele>230.035385</ele>
        <time>2019-08-17T14:29:45Z</time>
      </trkpt>
      <trkpt lat="44.45562" lon="1.12138">
        <ele>230.060318</ele>
        <time>2019-08-17T14:29:46Z</time>
      </trkpt>
      <trkpt lat="44.45562" lon="1.12148">
        <ele>230.060318</ele>
        <time>2019-08-17T14:29:47Z</time>
      </trkpt>
      <trkpt lat="44.45561" lon="1.12157">
        <ele>230.060318</ele>
        <time>2019-08-17T14:29:48Z</time>
      </trkpt>
      <trkpt lat="44.45561" lon="1.12167">
        <ele>230.009171</ele>
        <time>2019-08-17T14:29:49Z</time>
      </trkpt>
      <trkpt lat="44.45561" lon="1.12177">
        <ele>230.009171</ele>
        <time>2019-08-17T14:29:50Z</time>
      </trkpt>
      <trkpt lat="44.4556" lon="1.12185">
        <ele>229.886642</ele>
        <time>2019-08-17T14:29:51Z</time>
      </trkpt>
      <trkpt lat="44.45559" lon="1.12195">
        <ele>229.696854</ele>
        <time>2019-08-17T14:29:52Z</time>
      </trkpt>
      <trkpt lat="44.45558" lon="1.12205">
        <ele>229.381607</ele>
        <time>2019-08-17T14:29:53Z</time>
      </trkpt>
      <trkpt lat="44.45557" lon="1.12214">
        <ele>229.013443</ele>
        <time>2019-08-17T14:29:54Z</time>
      </trkpt>
      <trkpt lat="44.45557" lon="1.12223">
        <ele>228.602295</ele>
        <time>2019-08-17T14:29:55Z</time>
      </trkpt>
      <trkpt lat="44.45557" lon="1.12232">
        <ele>228.15448</ele>
        <time>2019-08-17T14:29:56Z</time>
      </trkpt>
      <trkpt lat="44.45557" lon="1.12238">
        <ele>227.660843</ele>
        <time>2019-08-17T14:29:57Z</time>
      </trkpt>
      <trkpt lat="44.45556" lon="1.12244">
        <ele>227.135391</ele>
        <time>2019-08-17T14:29:58Z</time>
      </trkpt>
      <trkpt lat="44.45554" lon="1.12248">
        <ele>226.644394</ele>
        <time>2019-08-17T14:29:59Z</time>
      </trkpt>
      <trkpt lat="44.45552" lon="1.12253">
        <ele>226.136475</ele>
        <time>2019-08-17T14:30:00Z</time>
      </trkpt>
      <trkpt lat="44.45551" lon="1.12259">
        <ele>225.628464</ele>
        <time>2019-08-17T14:30:01Z</time>
      </trkpt>
      <trkpt lat="44.45549" lon="1.12264">
        <ele>225.161987</ele>
        <time>2019-08-17T14:30:02Z</time>
      </trkpt>
      <trkpt lat="44.45548" lon="1.12269">
        <ele>224.747971</ele>
        <time>2019-08-17T14:30:03Z</time>
      </trkpt>
      <trkpt lat="44.45546" lon="1.12274">
        <ele>224.747971</ele>
        <time>2019-08-17T14:30:04Z</time>
      </trkpt>
      <trkpt lat="44.45543" lon="1.12279">
        <ele>224.369919</ele>
        <time>2019-08-17T14:30:05Z</time>
      </trkpt>
      <trkpt lat="44.45541" lon="1.12283">
        <ele>224.01326</ele>
        <time>2019-08-17T14:30:06Z</time>
      </trkpt>
      <trkpt lat="44.45541" lon="1.12288">
        <ele>223.594116</ele>
        <time>2019-08-17T14:30:07Z</time>
      </trkpt>
      <trkpt lat="44.45541" lon="1.12293">
        <ele>223.172119</ele>
        <time>2019-08-17T14:30:08Z</time>
      </trkpt>
      <trkpt lat="44.45543" lon="1.12298">
        <ele>223.172119</ele>
        <time>2019-08-17T14:30:09Z</time>
      </trkpt>
      <trkpt lat="44.45545" lon="1.12304">
        <ele>222.742615</ele>
        <time>2019-08-17T14:30:10Z</time>
      </trkpt>
      <trkpt lat="44.45546" lon="1.12309">
        <ele>222.307556</ele>
        <time>2019-08-17T14:30:11Z</time>
      </trkpt>
      <trkpt lat="44.45548" lon="1.12315">
        <ele>221.822525</ele>
        <time>2019-08-17T14:30:12Z</time>
      </trkpt>
      <trkpt lat="44.45548" lon="1.12322">
        <ele>221.341187</ele>
        <time>2019-08-17T14:30:13Z</time>
      </trkpt>
      <trkpt lat="44.45547" lon="1.12329">
        <ele>221.341187</ele>
        <time>2019-08-17T14:30:14Z</time>
      </trkpt>
      <trkpt lat="44.45547" lon="1.12336">
        <ele>220.927597</ele>
        <time>2019-08-17T14:30:15Z</time>
      </trkpt>
      <trkpt lat="44.45546" lon="1.12343">
        <ele>220.502335</ele>
        <time>2019-08-17T14:30:16Z</time>
      </trkpt>
      <trkpt lat="44.45547" lon="1.1235">
        <ele>219.978699</ele>
        <time>2019-08-17T14:30:17Z</time>
      </trkpt>
      <trkpt lat="44.45547" lon="1.12357">
        <ele>219.431198</ele>
        <time>2019-08-17T14:30:18Z</time>
      </trkpt>
      <trkpt lat="44.45547" lon="1.12364">
        <ele>218.892654</ele>
        <time>2019-08-17T14:30:19Z</time>
      </trkpt>
      <trkpt lat="44.45546" lon="1.1237">
        <ele>218.305054</ele>
        <time>2019-08-17T14:30:20Z</time>
      </trkpt>
      <trkpt lat="44.45545" lon="1.12375">
        <ele>217.671951</ele>
        <time>2019-08-17T14:30:21Z</time>
      </trkpt>
      <trkpt lat="44.45542" lon="1.1238">
        <ele>217.009216</ele>
        <time>2019-08-17T14:30:22Z</time>
      </trkpt>
      <trkpt lat="44.45539" lon="1.12383">
        <ele>217.009216</ele>
        <time>2019-08-17T14:30:23Z</time>
      </trkpt>
      <trkpt lat="44.45538" lon="1.12387">
        <ele>216.416016</ele>
        <time>2019-08-17T14:30:24Z</time>
      </trkpt>
      <trkpt lat="44.4554" lon="1.12391">
        <ele>215.832275</ele>
        <time>2019-08-17T14:30:25Z</time>
      </trkpt>
      <trkpt lat="44.45543" lon="1.12392">
        <ele>215.227859</ele>
        <time>2019-08-17T14:30:26Z</time>
      </trkpt>
      <trkpt lat="44.45548" lon="1.12392">
        <ele>214.672363</ele>
        <time>2019-08-17T14:30:27Z</time>
      </trkpt>
      <trkpt lat="44.45552" lon="1.1239">
        <ele>214.170792</ele>
        <time>2019-08-17T14:30:28Z</time>
      </trkpt>
      <trkpt lat="44.45555" lon="1.1239">
        <ele>213.784729</ele>
        <time>2019-08-17T14:30:29Z</time>
      </trkpt>
      <trkpt lat="44.45557" lon="1.12392">
        <ele>213.489456</ele>
        <time>2019-08-17T14:30:30Z</time>
      </trkpt>
      <trkpt lat="44.45559" lon="1.12394">
        <ele>213.252518</ele>
        <time>2019-08-17T14:30:31Z</time>
      </trkpt>
      <trkpt lat="44.45559" lon="1.12397">
        <ele>213.123459</ele>
        <time>2019-08-17T14:30:32Z</time>
      </trkpt>
      <trkpt lat="44.45557" lon="1.12401">
        <ele>213.047928</ele>
        <time>2019-08-17T14:30:33Z</time>
      </trkpt>
      <trkpt lat="44.45556" lon="1.12405">
        <ele>212.980545</ele>
        <time>2019-08-17T14:30:34Z</time>
      </trkpt>
      <trkpt lat="44.45554" lon="1.1241">
        <ele>212.867188</ele>
        <time>2019-08-17T14:30:35Z</time>
      </trkpt>
      <trkpt lat="44.45552" lon="1.12415">
        <ele>212.712387</ele>
        <time>2019-08-17T14:30:36Z</time>
      </trkpt>
      <trkpt lat="44.4555" lon="1.12421">
        <ele>212.514084</ele>
        <time>2019-08-17T14:30:37Z</time>
      </trkpt>
      <trkpt lat="44.45548" lon="1.12427">
        <ele>212.217453</ele>
        <time>2019-08-17T14:30:38Z</time>
      </trkpt>
      <trkpt lat="44.45545" lon="1.12433">
        <ele>211.828201</ele>
        <time>2019-08-17T14:30:39Z</time>
      </trkpt>
      <trkpt lat="44.45542" lon="1.12438">
        <ele>211.828201</ele>
        <time>2019-08-17T14:30:40Z</time>
      </trkpt>
      <trkpt lat="44.45538" lon="1.12441">
        <ele>211.367432</ele>
        <time>2019-08-17T14:30:41Z</time>
      </trkpt>
      <trkpt lat="44.45535" lon="1.12443">
        <ele>210.83577</ele>
        <time>2019-08-17T14:30:42Z</time>
      </trkpt>
      <trkpt lat="44.45533" lon="1.12444">
        <ele>210.142822</ele>
        <time>2019-08-17T14:30:43Z</time>
      </trkpt>
      <trkpt lat="44.45531" lon="1.12445">
        <ele>209.439621</ele>
        <time>2019-08-17T14:30:44Z</time>
      </trkpt>
      <trkpt lat="44.45531" lon="1.12448">
        <ele>208.779785</ele>
        <time>2019-08-17T14:30:45Z</time>
      </trkpt>
      <trkpt lat="44.45532" lon="1.12449">
        <ele>208.197754</ele>
        <time>2019-08-17T14:30:46Z</time>
      </trkpt>
      <trkpt lat="44.45535" lon="1.1245">
        <ele>207.6875</ele>
        <time>2019-08-17T14:30:47Z</time>
      </trkpt>
      <trkpt lat="44.45539" lon="1.12452">
        <ele>207.250656</ele>
        <time>2019-08-17T14:30:48Z</time>
      </trkpt>
      <trkpt lat="44.45544" lon="1.12453">
        <ele>206.997803</ele>
        <time>2019-08-17T14:30:49Z</time>
      </trkpt>
      <trkpt lat="44.45549" lon="1.12455">
        <ele>206.806717</ele>
        <time>2019-08-17T14:30:50Z</time>
      </trkpt>
      <trkpt lat="44.45553" lon="1.12458">
        <ele>206.635422</ele>
        <time>2019-08-17T14:30:51Z</time>
      </trkpt>
      <trkpt lat="44.45559" lon="1.12459">
        <ele>206.473557</ele>
        <time>2019-08-17T14:30:52Z</time>
      </trkpt>
      <trkpt lat="44.45564" lon="1.1246">
        <ele>206.321213</ele>
        <time>2019-08-17T14:30:53Z</time>
      </trkpt>
      <trkpt lat="44.4557" lon="1.12462">
        <ele>206.161621</ele>
        <time>2019-08-17T14:30:54Z</time>
      </trkpt>
      <trkpt lat="44.45575" lon="1.12463">
        <ele>205.992264</ele>
        <time>2019-08-17T14:30:55Z</time>
      </trkpt>
      <trkpt lat="44.45581" lon="1.12464">
        <ele>205.79509</ele>
        <time>2019-08-17T14:30:56Z</time>
      </trkpt>
      <trkpt lat="44.45587" lon="1.12465">
        <ele>205.57756</ele>
        <time>2019-08-17T14:30:57Z</time>
      </trkpt>
      <trkpt lat="44.45593" lon="1.12466">
        <ele>205.57756</ele>
        <time>2019-08-17T14:30:58Z</time>
      </trkpt>
      <trkpt lat="44.45598" lon="1.12467">
        <ele>205.338623</ele>
        <time>2019-08-17T14:30:59Z</time>
      </trkpt>
      <trkpt lat="44.45604" lon="1.12469">
        <ele>205.096756</ele>
        <time>2019-08-17T14:31:00Z</time>
      </trkpt>
      <trkpt lat="44.4561" lon="1.1247">
        <ele>204.839111</ele>
        <time>2019-08-17T14:31:01Z</time>
      </trkpt>
      <trkpt lat="44.45615" lon="1.12472">
        <ele>204.58667</ele>
        <time>2019-08-17T14:31:02Z</time>
      </trkpt>
      <trkpt lat="44.45621" lon="1.12474">
        <ele>204.327316</ele>
        <time>2019-08-17T14:31:03Z</time>
      </trkpt>
      <trkpt lat="44.45626" lon="1.12476">
        <ele>204.062012</ele>
        <time>2019-08-17T14:31:04Z</time>
      </trkpt>
      <trkpt lat="44.4563" lon="1.12478">
        <ele>203.786942</ele>
        <time>2019-08-17T14:31:05Z</time>
      </trkpt>
      <trkpt lat="44.45635" lon="1.12479">
        <ele>203.426331</ele>
        <time>2019-08-17T14:31:06Z</time>
      </trkpt>
      <trkpt lat="44.45639" lon="1.1248">
        <ele>202.9729</ele>
        <time>2019-08-17T14:31:07Z</time>
      </trkpt>
      <trkpt lat="44.45643" lon="1.12479">
        <ele>202.415451</ele>
        <time>2019-08-17T14:31:08Z</time>
      </trkpt>
      <trkpt lat="44.45646" lon="1.12477">
        <ele>201.800339</ele>
        <time>2019-08-17T14:31:09Z</time>
      </trkpt>
      <trkpt lat="44.45647" lon="1.12474">
        <ele>201.197952</ele>
        <time>2019-08-17T14:31:10Z</time>
      </trkpt>
      <trkpt lat="44.45649" lon="1.12469">
        <ele>200.779709</ele>
        <time>2019-08-17T14:31:11Z</time>
      </trkpt>
      <trkpt lat="44.4565" lon="1.12463">
        <ele>200.578598</ele>
        <time>2019-08-17T14:31:12Z</time>
      </trkpt>
      <trkpt lat="44.45651" lon="1.12458">
        <ele>200.578598</ele>
        <time>2019-08-17T14:31:13Z</time>
      </trkpt>
      <trkpt lat="44.45652" lon="1.12452">
        <ele>200.578598</ele>
        <time>2019-08-17T14:31:14Z</time>
      </trkpt>
      <trkpt lat="44.45653" lon="1.12448">
        <ele>200.644394</ele>
        <time>2019-08-17T14:31:15Z</time>
      </trkpt>
      <trkpt lat="44.45653" lon="1.12442">
        <ele>200.965134</ele>
        <time>2019-08-17T14:31:16Z</time>
      </trkpt>
      <trkpt lat="44.45652" lon="1.12436">
        <ele>201.498795</ele>
        <time>2019-08-17T14:31:17Z</time>
      </trkpt>
      <trkpt lat="44.45651" lon="1.12429">
        <ele>202.164063</ele>
        <time>2019-08-17T14:31:18Z</time>
      </trkpt>
      <trkpt lat="44.45651" lon="1.12422">
        <ele>202.804398</ele>
        <time>2019-08-17T14:31:19Z</time>
      </trkpt>
      <trkpt lat="44.45652" lon="1.12416">
        <ele>203.484726</ele>
        <time>2019-08-17T14:31:20Z</time>
      </trkpt>
      <trkpt lat="44.45652" lon="1.12411">
        <ele>204.214615</ele>
        <time>2019-08-17T14:31:21Z</time>
      </trkpt>
      <trkpt lat="44.45652" lon="1.12407">
        <ele>204.214615</ele>
        <time>2019-08-17T14:31:22Z</time>
      </trkpt>
      <trkpt lat="44.45654" lon="1.12405">
        <ele>204.994019</ele>
        <time>2019-08-17T14:31:23Z</time>
      </trkpt>
      <trkpt lat="44.45655" lon="1.12407">
        <ele>205.799881</ele>
        <time>2019-08-17T14:31:24Z</time>
      </trkpt>
      <trkpt lat="44.45656" lon="1.1241">
        <ele>206.675827</ele>
        <time>2019-08-17T14:31:25Z</time>
      </trkpt>
      <trkpt lat="44.45657" lon="1.12416">
        <ele>207.358688</ele>
        <time>2019-08-17T14:31:26Z</time>
      </trkpt>
      <trkpt lat="44.4566" lon="1.12423">
        <ele>207.754074</ele>
        <time>2019-08-17T14:31:27Z</time>
      </trkpt>
      <trkpt lat="44.45663" lon="1.12429">
        <ele>207.823318</ele>
        <time>2019-08-17T14:31:28Z</time>
      </trkpt>
      <trkpt lat="44.45666" lon="1.12436">
        <ele>207.823318</ele>
        <time>2019-08-17T14:31:29Z</time>
      </trkpt>
      <trkpt lat="44.45668" lon="1.12442">
        <ele>207.823318</ele>
        <time>2019-08-17T14:31:30Z</time>
      </trkpt>
      <trkpt lat="44.45672" lon="1.12448">
        <ele>207.823318</ele>
        <time>2019-08-17T14:31:31Z</time>
      </trkpt>
      <trkpt lat="44.45675" lon="1.12455">
        <ele>207.553635</ele>
        <time>2019-08-17T14:31:32Z</time>
      </trkpt>
      <trkpt lat="44.45678" lon="1.12461">
        <ele>206.981247</ele>
        <time>2019-08-17T14:31:33Z</time>
      </trkpt>
      <trkpt lat="44.45681" lon="1.12466">
        <ele>205.887039</ele>
        <time>2019-08-17T14:31:34Z</time>
      </trkpt>
      <trkpt lat="44.45684" lon="1.12471">
        <ele>204.692993</ele>
        <time>2019-08-17T14:31:35Z</time>
      </trkpt>
      <trkpt lat="44.45686" lon="1.12475">
        <ele>204.692993</ele>
        <time>2019-08-17T14:31:36Z</time>
      </trkpt>
      <trkpt lat="44.45688" lon="1.12479">
        <ele>203.471924</ele>
        <time>2019-08-17T14:31:37Z</time>
      </trkpt>
      <trkpt lat="44.45689" lon="1.12484">
        <ele>202.258835</ele>
        <time>2019-08-17T14:31:38Z</time>
      </trkpt>
      <trkpt lat="44.45691" lon="1.1249">
        <ele>200.921738</ele>
        <time>2019-08-17T14:31:39Z</time>
      </trkpt>
      <trkpt lat="44.45692" lon="1.12496">
        <ele>199.558548</ele>
        <time>2019-08-17T14:31:40Z</time>
      </trkpt>
      <trkpt lat="44.45694" lon="1.12503">
        <ele>198.325607</ele>
        <time>2019-08-17T14:31:41Z</time>
      </trkpt>
      <trkpt lat="44.45696" lon="1.12509">
        <ele>197.013718</ele>
        <time>2019-08-17T14:31:42Z</time>
      </trkpt>
      <trkpt lat="44.45696" lon="1.12513">
        <ele>195.600571</ele>
        <time>2019-08-17T14:31:43Z</time>
      </trkpt>
      <trkpt lat="44.45696" lon="1.12517">
        <ele>194.062119</ele>
        <time>2019-08-17T14:31:44Z</time>
      </trkpt>
      <trkpt lat="44.45694" lon="1.1252">
        <ele>192.590622</ele>
        <time>2019-08-17T14:31:45Z</time>
      </trkpt>
      <trkpt lat="44.45691" lon="1.12525">
        <ele>191.133301</ele>
        <time>2019-08-17T14:31:46Z</time>
      </trkpt>
      <trkpt lat="44.45688" lon="1.12529">
        <ele>189.744797</ele>
        <time>2019-08-17T14:31:47Z</time>
      </trkpt>
      <trkpt lat="44.45685" lon="1.12532">
        <ele>189.744797</ele>
        <time>2019-08-17T14:31:48Z</time>
      </trkpt>
      <trkpt lat="44.45682" lon="1.12535">
        <ele>188.482834</ele>
        <time>2019-08-17T14:31:49Z</time>
      </trkpt>
      <trkpt lat="44.4568" lon="1.12538">
        <ele>187.343613</ele>
        <time>2019-08-17T14:31:50Z</time>
      </trkpt>
      <trkpt lat="44.45678" lon="1.1254">
        <ele>186.219223</ele>
        <time>2019-08-17T14:31:51Z</time>
      </trkpt>
      <trkpt lat="44.45676" lon="1.12542">
        <ele>186.219223</ele>
        <time>2019-08-17T14:31:52Z</time>
      </trkpt>
      <trkpt lat="44.45674" lon="1.12545">
        <ele>185.214676</ele>
        <time>2019-08-17T14:31:53Z</time>
      </trkpt>
      <trkpt lat="44.45673" lon="1.12547">
        <ele>184.296875</ele>
        <time>2019-08-17T14:31:54Z</time>
      </trkpt>
      <trkpt lat="44.45671" lon="1.12549">
        <ele>183.396225</ele>
        <time>2019-08-17T14:31:55Z</time>
      </trkpt>
      <trkpt lat="44.4567" lon="1.12551">
        <ele>183.396225</ele>
        <time>2019-08-17T14:31:56Z</time>
      </trkpt>
      <trkpt lat="44.45668" lon="1.12552">
        <ele>182.560684</ele>
        <time>2019-08-17T14:31:57Z</time>
      </trkpt>
      <trkpt lat="44.45666" lon="1.12554">
        <ele>181.817307</ele>
        <time>2019-08-17T14:31:58Z</time>
      </trkpt>
      <trkpt lat="44.45665" lon="1.12556">
        <ele>181.232407</ele>
        <time>2019-08-17T14:31:59Z</time>
      </trkpt>
      <trkpt lat="44.45667" lon="1.12556">
        <ele>180.720078</ele>
        <time>2019-08-17T14:32:00Z</time>
      </trkpt>
      <trkpt lat="44.4567" lon="1.12555">
        <ele>180.246887</ele>
        <time>2019-08-17T14:32:02Z</time>
      </trkpt>
      <trkpt lat="44.45673" lon="1.12555">
        <ele>179.873276</ele>
        <time>2019-08-17T14:32:03Z</time>
      </trkpt>
      <trkpt lat="44.45676" lon="1.12554">
        <ele>179.562073</ele>
        <time>2019-08-17T14:32:04Z</time>
      </trkpt>
      <trkpt lat="44.45681" lon="1.12553">
        <ele>179.31189</ele>
        <time>2019-08-17T14:32:05Z</time>
      </trkpt>
      <trkpt lat="44.45686" lon="1.12552">
        <ele>179.172806</ele>
        <time>2019-08-17T14:32:06Z</time>
      </trkpt>
      <trkpt lat="44.45691" lon="1.12552">
        <ele>179.067932</ele>
        <time>2019-08-17T14:32:07Z</time>
      </trkpt>
      <trkpt lat="44.45695" lon="1.12553">
        <ele>179.0056</ele>
        <time>2019-08-17T14:32:08Z</time>
      </trkpt>
      <trkpt lat="44.45699" lon="1.12553">
        <ele>178.978867</ele>
        <time>2019-08-17T14:32:09Z</time>
      </trkpt>
      <trkpt lat="44.45702" lon="1.12554">
        <ele>178.978867</ele>
        <time>2019-08-17T14:32:10Z</time>
      </trkpt>
      <trkpt lat="44.45705" lon="1.12554">
        <ele>178.939102</ele>
        <time>2019-08-17T14:32:11Z</time>
      </trkpt>
      <trkpt lat="44.45707" lon="1.12557">
        <ele>178.897537</ele>
        <time>2019-08-17T14:32:12Z</time>
      </trkpt>
      <trkpt lat="44.45707" lon="1.1256">
        <ele>178.785263</ele>
        <time>2019-08-17T14:32:13Z</time>
      </trkpt>
      <trkpt lat="44.45707" lon="1.12563">
        <ele>178.628525</ele>
        <time>2019-08-17T14:32:14Z</time>
      </trkpt>
      <trkpt lat="44.45705" lon="1.12566">
        <ele>178.39917</ele>
        <time>2019-08-17T14:32:15Z</time>
      </trkpt>
      <trkpt lat="44.45704" lon="1.12568">
        <ele>178.39917</ele>
        <time>2019-08-17T14:32:16Z</time>
      </trkpt>
      <trkpt lat="44.45702" lon="1.12569">
        <ele>178.084488</ele>
        <time>2019-08-17T14:32:17Z</time>
      </trkpt>
      <trkpt lat="44.45701" lon="1.12571">
        <ele>177.697128</ele>
        <time>2019-08-17T14:32:18Z</time>
      </trkpt>
      <trkpt lat="44.45699" lon="1.12573">
        <ele>177.194992</ele>
        <time>2019-08-17T14:32:19Z</time>
      </trkpt>
      <trkpt lat="44.45698" lon="1.12574">
        <ele>177.194992</ele>
        <time>2019-08-17T14:32:20Z</time>
      </trkpt>
      <trkpt lat="44.45697" lon="1.12575">
        <ele>176.709854</ele>
        <time>2019-08-17T14:32:21Z</time>
      </trkpt>
      <trkpt lat="44.45696" lon="1.12578">
        <ele>176.22261</ele>
        <time>2019-08-17T14:32:22Z</time>
      </trkpt>
      <trkpt lat="44.45695" lon="1.12581">
        <ele>175.718201</ele>
        <time>2019-08-17T14:32:23Z</time>
      </trkpt>
      <trkpt lat="44.45693" lon="1.12584">
        <ele>175.277573</ele>
        <time>2019-08-17T14:32:24Z</time>
      </trkpt>
      <trkpt lat="44.45691" lon="1.12587">
        <ele>174.867111</ele>
        <time>2019-08-17T14:32:25Z</time>
      </trkpt>
      <trkpt lat="44.45689" lon="1.12588">
        <ele>174.502747</ele>
        <time>2019-08-17T14:32:26Z</time>
      </trkpt>
      <trkpt lat="44.45687" lon="1.1259">
        <ele>174.074142</ele>
        <time>2019-08-17T14:32:27Z</time>
      </trkpt>
      <trkpt lat="44.45684" lon="1.12592">
        <ele>173.605896</ele>
        <time>2019-08-17T14:32:28Z</time>
      </trkpt>
      <trkpt lat="44.45681" lon="1.12594">
        <ele>173.184921</ele>
        <time>2019-08-17T14:32:29Z</time>
      </trkpt>
      <trkpt lat="44.45678" lon="1.12595">
        <ele>173.184921</ele>
        <time>2019-08-17T14:32:30Z</time>
      </trkpt>
      <trkpt lat="44.45675" lon="1.12596">
        <ele>172.74205</ele>
        <time>2019-08-17T14:32:31Z</time>
      </trkpt>
      <trkpt lat="44.45672" lon="1.12597">
        <ele>172.309219</ele>
        <time>2019-08-17T14:32:32Z</time>
      </trkpt>
      <trkpt lat="44.45669" lon="1.12597">
        <ele>171.897522</ele>
        <time>2019-08-17T14:32:33Z</time>
      </trkpt>
      <trkpt lat="44.45665" lon="1.12597">
        <ele>171.564209</ele>
        <time>2019-08-17T14:32:34Z</time>
      </trkpt>
      <trkpt lat="44.4566" lon="1.12599">
        <ele>171.3069</ele>
        <time>2019-08-17T14:32:35Z</time>
      </trkpt>
      <trkpt lat="44.45657" lon="1.126">
        <ele>171.090149</ele>
        <time>2019-08-17T14:32:36Z</time>
      </trkpt>
      <trkpt lat="44.45653" lon="1.12602">
        <ele>170.928024</ele>
        <time>2019-08-17T14:32:37Z</time>
      </trkpt>
      <trkpt lat="44.45649" lon="1.12604">
        <ele>170.796219</ele>
        <time>2019-08-17T14:32:38Z</time>
      </trkpt>
      <trkpt lat="44.45646" lon="1.12605">
        <ele>170.691208</ele>
        <time>2019-08-17T14:32:39Z</time>
      </trkpt>
      <trkpt lat="44.45642" lon="1.12607">
        <ele>170.574265</ele>
        <time>2019-08-17T14:32:40Z</time>
      </trkpt>
      <trkpt lat="44.45638" lon="1.12608">
        <ele>170.415283</ele>
        <time>2019-08-17T14:32:41Z</time>
      </trkpt>
      <trkpt lat="44.45635" lon="1.12608">
        <ele>170.218323</ele>
        <time>2019-08-17T14:32:42Z</time>
      </trkpt>
      <trkpt lat="44.45631" lon="1.12607">
        <ele>169.984329</ele>
        <time>2019-08-17T14:32:43Z</time>
      </trkpt>
      <trkpt lat="44.45627" lon="1.12605">
        <ele>169.785416</ele>
        <time>2019-08-17T14:32:44Z</time>
      </trkpt>
      <trkpt lat="44.45623" lon="1.12604">
        <ele>169.698853</ele>
        <time>2019-08-17T14:32:45Z</time>
      </trkpt>
      <trkpt lat="44.45619" lon="1.12603">
        <ele>169.698853</ele>
        <time>2019-08-17T14:32:46Z</time>
      </trkpt>
      <trkpt lat="44.45615" lon="1.12602">
        <ele>169.698853</ele>
        <time>2019-08-17T14:32:47Z</time>
      </trkpt>
      <trkpt lat="44.45611" lon="1.12601">
        <ele>169.709732</ele>
        <time>2019-08-17T14:32:48Z</time>
      </trkpt>
      <trkpt lat="44.45607" lon="1.12601">
        <ele>169.827499</ele>
        <time>2019-08-17T14:32:49Z</time>
      </trkpt>
      <trkpt lat="44.45603" lon="1.12602">
        <ele>170.046036</ele>
        <time>2019-08-17T14:32:50Z</time>
      </trkpt>
      <trkpt lat="44.45599" lon="1.12602">
        <ele>170.353165</ele>
        <time>2019-08-17T14:32:51Z</time>
      </trkpt>
      <trkpt lat="44.45596" lon="1.12603">
        <ele>170.683975</ele>
        <time>2019-08-17T14:32:52Z</time>
      </trkpt>
      <trkpt lat="44.45591" lon="1.12603">
        <ele>170.953568</ele>
        <time>2019-08-17T14:32:53Z</time>
      </trkpt>
      <trkpt lat="44.45588" lon="1.12603">
        <ele>171.165726</ele>
        <time>2019-08-17T14:32:54Z</time>
      </trkpt>
      <trkpt lat="44.45585" lon="1.12603">
        <ele>171.318359</ele>
        <time>2019-08-17T14:32:55Z</time>
      </trkpt>
      <trkpt lat="44.45581" lon="1.12604">
        <ele>171.438232</ele>
        <time>2019-08-17T14:32:56Z</time>
      </trkpt>
      <trkpt lat="44.45577" lon="1.12603">
        <ele>171.538574</ele>
        <time>2019-08-17T14:32:57Z</time>
      </trkpt>
      <trkpt lat="44.45574" lon="1.12602">
        <ele>171.616943</ele>
        <time>2019-08-17T14:32:58Z</time>
      </trkpt>
      <trkpt lat="44.4557" lon="1.12603">
        <ele>171.694092</ele>
        <time>2019-08-17T14:32:59Z</time>
      </trkpt>
      <trkpt lat="44.45567" lon="1.12604">
        <ele>171.821289</ele>
        <time>2019-08-17T14:33:00Z</time>
      </trkpt>
      <trkpt lat="44.45565" lon="1.12607">
        <ele>171.977539</ele>
        <time>2019-08-17T14:33:01Z</time>
      </trkpt>
      <trkpt lat="44.45562" lon="1.1261">
        <ele>172.016846</ele>
        <time>2019-08-17T14:33:02Z</time>
      </trkpt>
      <trkpt lat="44.45561" lon="1.12613">
        <ele>172.016846</ele>
        <time>2019-08-17T14:33:03Z</time>
      </trkpt>
      <trkpt lat="44.45559" lon="1.12616">
        <ele>172.016846</ele>
        <time>2019-08-17T14:33:04Z</time>
      </trkpt>
      <trkpt lat="44.45556" lon="1.1262">
        <ele>172.017197</ele>
        <time>2019-08-17T14:33:05Z</time>
      </trkpt>
      <trkpt lat="44.45556" lon="1.12625">
        <ele>172.038635</ele>
        <time>2019-08-17T14:33:06Z</time>
      </trkpt>
      <trkpt lat="44.45554" lon="1.12629">
        <ele>172.038635</ele>
        <time>2019-08-17T14:33:07Z</time>
      </trkpt>
      <trkpt lat="44.45553" lon="1.12634">
        <ele>172.114975</ele>
        <time>2019-08-17T14:33:08Z</time>
      </trkpt>
      <trkpt lat="44.45551" lon="1.12637">
        <ele>172.170883</ele>
        <time>2019-08-17T14:33:09Z</time>
      </trkpt>
      <trkpt lat="44.45549" lon="1.12641">
        <ele>172.171127</ele>
        <time>2019-08-17T14:33:10Z</time>
      </trkpt>
      <trkpt lat="44.45547" lon="1.12646">
        <ele>172.171127</ele>
        <time>2019-08-17T14:33:11Z</time>
      </trkpt>
      <trkpt lat="44.45546" lon="1.1265">
        <ele>172.2267</ele>
        <time>2019-08-17T14:33:12Z</time>
      </trkpt>
      <trkpt lat="44.45545" lon="1.12655">
        <ele>172.404678</ele>
        <time>2019-08-17T14:33:13Z</time>
      </trkpt>
      <trkpt lat="44.45544" lon="1.12658">
        <ele>172.627731</ele>
        <time>2019-08-17T14:33:14Z</time>
      </trkpt>
      <trkpt lat="44.45542" lon="1.12661">
        <ele>172.845383</ele>
        <time>2019-08-17T14:33:15Z</time>
      </trkpt>
      <trkpt lat="44.4554" lon="1.12664">
        <ele>172.845383</ele>
        <time>2019-08-17T14:33:16Z</time>
      </trkpt>
      <trkpt lat="44.45538" lon="1.12667">
        <ele>173.028976</ele>
        <time>2019-08-17T14:33:17Z</time>
      </trkpt>
      <trkpt lat="44.45535" lon="1.12671">
        <ele>173.207764</ele>
        <time>2019-08-17T14:33:18Z</time>
      </trkpt>
      <trkpt lat="44.45533" lon="1.12674">
        <ele>173.413254</ele>
        <time>2019-08-17T14:33:19Z</time>
      </trkpt>
      <trkpt lat="44.45532" lon="1.12677">
        <ele>173.617996</ele>
        <time>2019-08-17T14:33:20Z</time>
      </trkpt>
      <trkpt lat="44.45531" lon="1.1268">
        <ele>173.822754</ele>
        <time>2019-08-17T14:33:21Z</time>
      </trkpt>
      <trkpt lat="44.4553" lon="1.12683">
        <ele>174.028564</ele>
        <time>2019-08-17T14:33:22Z</time>
      </trkpt>
      <trkpt lat="44.45529" lon="1.12685">
        <ele>174.233719</ele>
        <time>2019-08-17T14:33:23Z</time>
      </trkpt>
      <trkpt lat="44.45528" lon="1.12686">
        <ele>174.449234</ele>
        <time>2019-08-17T14:33:24Z</time>
      </trkpt>
      <trkpt lat="44.45526" lon="1.12688">
        <ele>174.653976</ele>
        <time>2019-08-17T14:33:25Z</time>
      </trkpt>
      <trkpt lat="44.45525" lon="1.12689">
        <ele>174.865738</ele>
        <time>2019-08-17T14:33:26Z</time>
      </trkpt>
      <trkpt lat="44.45524" lon="1.12689">
        <ele>175.080338</ele>
        <time>2019-08-17T14:33:27Z</time>
      </trkpt>
      <trkpt lat="44.45522" lon="1.12689">
        <ele>175.294632</ele>
        <time>2019-08-17T14:33:28Z</time>
      </trkpt>
      <trkpt lat="44.4553" lon="1.12678">
        <ele>175.313339</ele>
        <time>2019-08-17T14:33:49Z</time>
      </trkpt>
      <trkpt lat="44.45532" lon="1.12676">
        <ele>175.313339</ele>
        <time>2019-08-17T14:33:51Z</time>
      </trkpt>
      <trkpt lat="44.45533" lon="1.12674">
        <ele>175.205978</ele>
        <time>2019-08-17T14:33:52Z</time>
      </trkpt>
      <trkpt lat="44.45535" lon="1.12672">
        <ele>175.133255</ele>
        <time>2019-08-17T14:33:53Z</time>
      </trkpt>
      <trkpt lat="44.45537" lon="1.12669">
        <ele>175.040146</ele>
        <time>2019-08-17T14:33:54Z</time>
      </trkpt>
      <trkpt lat="44.45539" lon="1.12666">
        <ele>175.040146</ele>
        <time>2019-08-17T14:33:55Z</time>
      </trkpt>
      <trkpt lat="44.4554" lon="1.12663">
        <ele>174.924377</ele>
        <time>2019-08-17T14:33:56Z</time>
      </trkpt>
      <trkpt lat="44.45541" lon="1.12661">
        <ele>174.785446</ele>
        <time>2019-08-17T14:33:57Z</time>
      </trkpt>
      <trkpt lat="44.45542" lon="1.12658">
        <ele>174.60437</ele>
        <time>2019-08-17T14:33:58Z</time>
      </trkpt>
      <trkpt lat="44.45543" lon="1.12654">
        <ele>174.430313</ele>
        <time>2019-08-17T14:33:59Z</time>
      </trkpt>
      <trkpt lat="44.45543" lon="1.12651">
        <ele>174.430313</ele>
        <time>2019-08-17T14:34:00Z</time>
      </trkpt>
      <trkpt lat="44.45544" lon="1.12648">
        <ele>174.235519</ele>
        <time>2019-08-17T14:34:01Z</time>
      </trkpt>
      <trkpt lat="44.45546" lon="1.12645">
        <ele>174.073318</ele>
        <time>2019-08-17T14:34:02Z</time>
      </trkpt>
      <trkpt lat="44.45548" lon="1.12643">
        <ele>174.073318</ele>
        <time>2019-08-17T14:34:03Z</time>
      </trkpt>
      <trkpt lat="44.45549" lon="1.1264">
        <ele>173.892822</ele>
        <time>2019-08-17T14:34:04Z</time>
      </trkpt>
      <trkpt lat="44.45549" lon="1.12637">
        <ele>173.710449</ele>
        <time>2019-08-17T14:34:05Z</time>
      </trkpt>
      <trkpt lat="44.4555" lon="1.12633">
        <ele>173.528076</ele>
        <time>2019-08-17T14:34:06Z</time>
      </trkpt>
      <trkpt lat="44.4555" lon="1.12629">
        <ele>173.350952</ele>
        <time>2019-08-17T14:34:07Z</time>
      </trkpt>
      <trkpt lat="44.45551" lon="1.12627">
        <ele>173.177322</ele>
        <time>2019-08-17T14:34:08Z</time>
      </trkpt>
      <trkpt lat="44.45561" lon="1.12618">
        <ele>172.372116</ele>
        <time>2019-08-17T14:34:24Z</time>
      </trkpt>
      <trkpt lat="44.45563" lon="1.12617">
        <ele>172.316574</ele>
        <time>2019-08-17T14:34:26Z</time>
      </trkpt>
      <trkpt lat="44.45564" lon="1.12615">
        <ele>172.316574</ele>
        <time>2019-08-17T14:34:27Z</time>
      </trkpt>
      <trkpt lat="44.45565" lon="1.12612">
        <ele>172.235001</ele>
        <time>2019-08-17T14:34:28Z</time>
      </trkpt>
      <trkpt lat="44.45565" lon="1.12611">
        <ele>172.127808</ele>
        <time>2019-08-17T14:34:29Z</time>
      </trkpt>
      <trkpt lat="44.45577" lon="1.1261">
        <ele>171.304459</ele>
        <time>2019-08-17T14:34:36Z</time>
      </trkpt>
      <trkpt lat="44.45579" lon="1.1261">
        <ele>171.256714</ele>
        <time>2019-08-17T14:34:38Z</time>
      </trkpt>
      <trkpt lat="44.45581" lon="1.1261">
        <ele>171.199814</ele>
        <time>2019-08-17T14:34:39Z</time>
      </trkpt>
      <trkpt lat="44.45582" lon="1.12609">
        <ele>171.118149</ele>
        <time>2019-08-17T14:34:40Z</time>
      </trkpt>
      <trkpt lat="44.45572" lon="1.12607">
        <ele>170.671616</ele>
        <time>2019-08-17T14:34:56Z</time>
      </trkpt>
      <trkpt lat="44.4557" lon="1.12607">
        <ele>170.729248</ele>
        <time>2019-08-17T14:34:58Z</time>
      </trkpt>
      <trkpt lat="44.45567" lon="1.12607">
        <ele>170.832764</ele>
        <time>2019-08-17T14:34:59Z</time>
      </trkpt>
      <trkpt lat="44.45564" lon="1.12608">
        <ele>170.993652</ele>
        <time>2019-08-17T14:35:00Z</time>
      </trkpt>
      <trkpt lat="44.45562" lon="1.1261">
        <ele>171.171143</ele>
        <time>2019-08-17T14:35:01Z</time>
      </trkpt>
      <trkpt lat="44.45561" lon="1.12613">
        <ele>171.2957</ele>
        <time>2019-08-17T14:35:02Z</time>
      </trkpt>
      <trkpt lat="44.45559" lon="1.12616">
        <ele>171.443771</ele>
        <time>2019-08-17T14:35:03Z</time>
      </trkpt>
      <trkpt lat="44.45557" lon="1.12618">
        <ele>171.443771</ele>
        <time>2019-08-17T14:35:04Z</time>
      </trkpt>
      <trkpt lat="44.45556" lon="1.12621">
        <ele>171.581223</ele>
        <time>2019-08-17T14:35:05Z</time>
      </trkpt>
      <trkpt lat="44.45554" lon="1.12624">
        <ele>171.672531</ele>
        <time>2019-08-17T14:35:06Z</time>
      </trkpt>
      <trkpt lat="44.45553" lon="1.12627">
        <ele>171.751785</ele>
        <time>2019-08-17T14:35:07Z</time>
      </trkpt>
      <trkpt lat="44.45552" lon="1.1263">
        <ele>171.827469</ele>
        <time>2019-08-17T14:35:08Z</time>
      </trkpt>
      <trkpt lat="44.45552" lon="1.12634">
        <ele>171.920837</ele>
        <time>2019-08-17T14:35:09Z</time>
      </trkpt>
      <trkpt lat="44.45551" lon="1.12637">
        <ele>172.017776</ele>
        <time>2019-08-17T14:35:10Z</time>
      </trkpt>
      <trkpt lat="44.45549" lon="1.12639">
        <ele>172.121536</ele>
        <time>2019-08-17T14:35:11Z</time>
      </trkpt>
      <trkpt lat="44.45548" lon="1.12642">
        <ele>172.263123</ele>
        <time>2019-08-17T14:35:12Z</time>
      </trkpt>
      <trkpt lat="44.45546" lon="1.12645">
        <ele>172.3974</ele>
        <time>2019-08-17T14:35:13Z</time>
      </trkpt>
      <trkpt lat="44.45544" lon="1.12649">
        <ele>172.3974</ele>
        <time>2019-08-17T14:35:14Z</time>
      </trkpt>
      <trkpt lat="44.45543" lon="1.12653">
        <ele>172.528214</ele>
        <time>2019-08-17T14:35:15Z</time>
      </trkpt>
      <trkpt lat="44.45543" lon="1.12657">
        <ele>172.659409</ele>
        <time>2019-08-17T14:35:16Z</time>
      </trkpt>
      <trkpt lat="44.45542" lon="1.1266">
        <ele>172.828735</ele>
        <time>2019-08-17T14:35:17Z</time>
      </trkpt>
      <trkpt lat="44.4554" lon="1.12664">
        <ele>173.000046</ele>
        <time>2019-08-17T14:35:18Z</time>
      </trkpt>
      <trkpt lat="44.45538" lon="1.12667">
        <ele>173.173889</ele>
        <time>2019-08-17T14:35:19Z</time>
      </trkpt>
      <trkpt lat="44.45535" lon="1.1267">
        <ele>173.355164</ele>
        <time>2019-08-17T14:35:20Z</time>
      </trkpt>
      <trkpt lat="44.45533" lon="1.12673">
        <ele>173.543533</ele>
        <time>2019-08-17T14:35:21Z</time>
      </trkpt>
      <trkpt lat="44.45531" lon="1.12676">
        <ele>173.737305</ele>
        <time>2019-08-17T14:35:22Z</time>
      </trkpt>
      <trkpt lat="44.4553" lon="1.12679">
        <ele>173.902588</ele>
        <time>2019-08-17T14:35:23Z</time>
      </trkpt>
      <trkpt lat="44.45528" lon="1.12683">
        <ele>173.902588</ele>
        <time>2019-08-17T14:35:24Z</time>
      </trkpt>
      <trkpt lat="44.45527" lon="1.12687">
        <ele>174.074951</ele>
        <time>2019-08-17T14:35:25Z</time>
      </trkpt>
      <trkpt lat="44.45525" lon="1.1269">
        <ele>174.255051</ele>
        <time>2019-08-17T14:35:26Z</time>
      </trkpt>
      <trkpt lat="44.45522" lon="1.12692">
        <ele>174.507202</ele>
        <time>2019-08-17T14:35:27Z</time>
      </trkpt>
      <trkpt lat="44.45519" lon="1.12693">
        <ele>174.796692</ele>
        <time>2019-08-17T14:35:28Z</time>
      </trkpt>
      <trkpt lat="44.45516" lon="1.12695">
        <ele>175.115234</ele>
        <time>2019-08-17T14:35:29Z</time>
      </trkpt>
      <trkpt lat="44.45514" lon="1.12699">
        <ele>175.451477</ele>
        <time>2019-08-17T14:35:30Z</time>
      </trkpt>
      <trkpt lat="44.45512" lon="1.12703">
        <ele>175.795273</ele>
        <time>2019-08-17T14:35:31Z</time>
      </trkpt>
      <trkpt lat="44.45511" lon="1.12707">
        <ele>176.160767</ele>
        <time>2019-08-17T14:35:32Z</time>
      </trkpt>
      <trkpt lat="44.45509" lon="1.12711">
        <ele>176.494034</ele>
        <time>2019-08-17T14:35:33Z</time>
      </trkpt>
      <trkpt lat="44.45507" lon="1.12714">
        <ele>176.827087</ele>
        <time>2019-08-17T14:35:34Z</time>
      </trkpt>
      <trkpt lat="44.45506" lon="1.12719">
        <ele>177.160812</ele>
        <time>2019-08-17T14:35:35Z</time>
      </trkpt>
      <trkpt lat="44.45505" lon="1.12723">
        <ele>177.160812</ele>
        <time>2019-08-17T14:35:36Z</time>
      </trkpt>
      <trkpt lat="44.45503" lon="1.12727">
        <ele>177.509689</ele>
        <time>2019-08-17T14:35:37Z</time>
      </trkpt>
      <trkpt lat="44.455" lon="1.12731">
        <ele>177.880997</ele>
        <time>2019-08-17T14:35:38Z</time>
      </trkpt>
      <trkpt lat="44.45498" lon="1.12734">
        <ele>178.334396</ele>
        <time>2019-08-17T14:35:39Z</time>
      </trkpt>
      <trkpt lat="44.45496" lon="1.12738">
        <ele>178.783829</ele>
        <time>2019-08-17T14:35:40Z</time>
      </trkpt>
      <trkpt lat="44.45494" lon="1.12741">
        <ele>179.224991</ele>
        <time>2019-08-17T14:35:41Z</time>
      </trkpt>
      <trkpt lat="44.45491" lon="1.12744">
        <ele>179.665268</ele>
        <time>2019-08-17T14:35:42Z</time>
      </trkpt>
      <trkpt lat="44.45489" lon="1.12748">
        <ele>180.095215</ele>
        <time>2019-08-17T14:35:43Z</time>
      </trkpt>
      <trkpt lat="44.45487" lon="1.12751">
        <ele>180.510254</ele>
        <time>2019-08-17T14:35:44Z</time>
      </trkpt>
      <trkpt lat="44.45484" lon="1.12755">
        <ele>180.838684</ele>
        <time>2019-08-17T14:35:45Z</time>
      </trkpt>
      <trkpt lat="44.45482" lon="1.12758">
        <ele>181.150833</ele>
        <time>2019-08-17T14:35:46Z</time>
      </trkpt>
      <trkpt lat="44.4548" lon="1.12762">
        <ele>181.150833</ele>
        <time>2019-08-17T14:35:47Z</time>
      </trkpt>
      <trkpt lat="44.45478" lon="1.12766">
        <ele>181.415039</ele>
        <time>2019-08-17T14:35:48Z</time>
      </trkpt>
      <trkpt lat="44.45475" lon="1.1277">
        <ele>181.625381</ele>
        <time>2019-08-17T14:35:49Z</time>
      </trkpt>
      <trkpt lat="44.45474" lon="1.12773">
        <ele>181.800842</ele>
        <time>2019-08-17T14:35:50Z</time>
      </trkpt>
      <trkpt lat="44.45472" lon="1.12777">
        <ele>181.998413</ele>
        <time>2019-08-17T14:35:51Z</time>
      </trkpt>
      <trkpt lat="44.4547" lon="1.12781">
        <ele>181.998413</ele>
        <time>2019-08-17T14:35:52Z</time>
      </trkpt>
      <trkpt lat="44.45469" lon="1.12785">
        <ele>182.216843</ele>
        <time>2019-08-17T14:35:53Z</time>
      </trkpt>
      <trkpt lat="44.45469" lon="1.12789">
        <ele>182.452637</ele>
        <time>2019-08-17T14:35:54Z</time>
      </trkpt>
      <trkpt lat="44.45469" lon="1.12794">
        <ele>182.778564</ele>
        <time>2019-08-17T14:35:55Z</time>
      </trkpt>
      <trkpt lat="44.45469" lon="1.12798">
        <ele>183.129883</ele>
        <time>2019-08-17T14:35:56Z</time>
      </trkpt>
      <trkpt lat="44.45467" lon="1.12801">
        <ele>183.461014</ele>
        <time>2019-08-17T14:35:57Z</time>
      </trkpt>
      <trkpt lat="44.45466" lon="1.12805">
        <ele>183.724442</ele>
        <time>2019-08-17T14:35:58Z</time>
      </trkpt>
      <trkpt lat="44.45466" lon="1.12809">
        <ele>183.945557</ele>
        <time>2019-08-17T14:35:59Z</time>
      </trkpt>
      <trkpt lat="44.45465" lon="1.12813">
        <ele>183.945557</ele>
        <time>2019-08-17T14:36:00Z</time>
      </trkpt>
      <trkpt lat="44.45463" lon="1.12816">
        <ele>184.140213</ele>
        <time>2019-08-17T14:36:01Z</time>
      </trkpt>
      <trkpt lat="44.45461" lon="1.12819">
        <ele>184.266113</ele>
        <time>2019-08-17T14:36:02Z</time>
      </trkpt>
      <trkpt lat="44.4546" lon="1.12822">
        <ele>184.413162</ele>
        <time>2019-08-17T14:36:03Z</time>
      </trkpt>
      <trkpt lat="44.45459" lon="1.12825">
        <ele>184.612198</ele>
        <time>2019-08-17T14:36:04Z</time>
      </trkpt>
      <trkpt lat="44.45459" lon="1.12829">
        <ele>184.860657</ele>
        <time>2019-08-17T14:36:05Z</time>
      </trkpt>
      <trkpt lat="44.4546" lon="1.12832">
        <ele>184.860657</ele>
        <time>2019-08-17T14:36:06Z</time>
      </trkpt>
      <trkpt lat="44.4546" lon="1.12836">
        <ele>185.077072</ele>
        <time>2019-08-17T14:36:07Z</time>
      </trkpt>
      <trkpt lat="44.45459" lon="1.1284">
        <ele>185.243362</ele>
        <time>2019-08-17T14:36:08Z</time>
      </trkpt>
      <trkpt lat="44.45458" lon="1.12843">
        <ele>185.403397</ele>
        <time>2019-08-17T14:36:09Z</time>
      </trkpt>
      <trkpt lat="44.45456" lon="1.12847">
        <ele>185.541138</ele>
        <time>2019-08-17T14:36:10Z</time>
      </trkpt>
      <trkpt lat="44.45455" lon="1.12851">
        <ele>185.63295</ele>
        <time>2019-08-17T14:36:11Z</time>
      </trkpt>
      <trkpt lat="44.45455" lon="1.12855">
        <ele>185.699478</ele>
        <time>2019-08-17T14:36:12Z</time>
      </trkpt>
      <trkpt lat="44.45454" lon="1.12859">
        <ele>185.770859</ele>
        <time>2019-08-17T14:36:13Z</time>
      </trkpt>
      <trkpt lat="44.45454" lon="1.12863">
        <ele>185.841537</ele>
        <time>2019-08-17T14:36:14Z</time>
      </trkpt>
      <trkpt lat="44.45453" lon="1.12867">
        <ele>185.841537</ele>
        <time>2019-08-17T14:36:15Z</time>
      </trkpt>
      <trkpt lat="44.45453" lon="1.1287">
        <ele>185.879623</ele>
        <time>2019-08-17T14:36:16Z</time>
      </trkpt>
      <trkpt lat="44.45451" lon="1.12874">
        <ele>185.909729</ele>
        <time>2019-08-17T14:36:17Z</time>
      </trkpt>
      <trkpt lat="44.4545" lon="1.12878">
        <ele>185.988968</ele>
        <time>2019-08-17T14:36:18Z</time>
      </trkpt>
      <trkpt lat="44.45449" lon="1.12882">
        <ele>185.988968</ele>
        <time>2019-08-17T14:36:19Z</time>
      </trkpt>
      <trkpt lat="44.45448" lon="1.12886">
        <ele>186.038528</ele>
        <time>2019-08-17T14:36:20Z</time>
      </trkpt>
      <trkpt lat="44.45447" lon="1.1289">
        <ele>186.092285</ele>
        <time>2019-08-17T14:36:21Z</time>
      </trkpt>
      <trkpt lat="44.45445" lon="1.12894">
        <ele>186.092285</ele>
        <time>2019-08-17T14:36:22Z</time>
      </trkpt>
      <trkpt lat="44.45445" lon="1.12898">
        <ele>186.179428</ele>
        <time>2019-08-17T14:36:23Z</time>
      </trkpt>
      <trkpt lat="44.45445" lon="1.12903">
        <ele>186.292725</ele>
        <time>2019-08-17T14:36:24Z</time>
      </trkpt>
      <trkpt lat="44.45445" lon="1.12907">
        <ele>186.513306</ele>
        <time>2019-08-17T14:36:25Z</time>
      </trkpt>
      <trkpt lat="44.45443" lon="1.1291">
        <ele>186.513306</ele>
        <time>2019-08-17T14:36:26Z</time>
      </trkpt>
      <trkpt lat="44.45441" lon="1.12914">
        <ele>186.769531</ele>
        <time>2019-08-17T14:36:27Z</time>
      </trkpt>
      <trkpt lat="44.4544" lon="1.12917">
        <ele>187.043579</ele>
        <time>2019-08-17T14:36:28Z</time>
      </trkpt>
      <trkpt lat="44.4544" lon="1.12921">
        <ele>187.358841</ele>
        <time>2019-08-17T14:36:29Z</time>
      </trkpt>
      <trkpt lat="44.45438" lon="1.12925">
        <ele>187.358841</ele>
        <time>2019-08-17T14:36:30Z</time>
      </trkpt>
      <trkpt lat="44.45438" lon="1.12929">
        <ele>187.693436</ele>
        <time>2019-08-17T14:36:31Z</time>
      </trkpt>
      <trkpt lat="44.45438" lon="1.12934">
        <ele>188.041519</ele>
        <time>2019-08-17T14:36:32Z</time>
      </trkpt>
      <trkpt lat="44.45438" lon="1.12938">
        <ele>188.041519</ele>
        <time>2019-08-17T14:36:33Z</time>
      </trkpt>
      <trkpt lat="44.45437" lon="1.12942">
        <ele>188.349136</ele>
        <time>2019-08-17T14:36:34Z</time>
      </trkpt>
      <trkpt lat="44.45436" lon="1.12946">
        <ele>188.641434</ele>
        <time>2019-08-17T14:36:35Z</time>
      </trkpt>
      <trkpt lat="44.45436" lon="1.12951">
        <ele>188.957642</ele>
        <time>2019-08-17T14:36:36Z</time>
      </trkpt>
      <trkpt lat="44.45436" lon="1.12955">
        <ele>189.238953</ele>
        <time>2019-08-17T14:36:37Z</time>
      </trkpt>
      <trkpt lat="44.45435" lon="1.12959">
        <ele>189.238953</ele>
        <time>2019-08-17T14:36:38Z</time>
      </trkpt>
      <trkpt lat="44.45434" lon="1.12963">
        <ele>189.488159</ele>
        <time>2019-08-17T14:36:39Z</time>
      </trkpt>
      <trkpt lat="44.45433" lon="1.12967">
        <ele>189.708206</ele>
        <time>2019-08-17T14:36:40Z</time>
      </trkpt>
      <trkpt lat="44.45432" lon="1.12972">
        <ele>189.906204</ele>
        <time>2019-08-17T14:36:41Z</time>
      </trkpt>
      <trkpt lat="44.45431" lon="1.12976">
        <ele>190.114944</ele>
        <time>2019-08-17T14:36:42Z</time>
      </trkpt>
      <trkpt lat="44.4543" lon="1.1298">
        <ele>190.309753</ele>
        <time>2019-08-17T14:36:43Z</time>
      </trkpt>
      <trkpt lat="44.45429" lon="1.12984">
        <ele>190.309753</ele>
        <time>2019-08-17T14:36:44Z</time>
      </trkpt>
      <trkpt lat="44.45427" lon="1.12988">
        <ele>190.506104</ele>
        <time>2019-08-17T14:36:45Z</time>
      </trkpt>
      <trkpt lat="44.45424" lon="1.12991">
        <ele>190.70787</ele>
        <time>2019-08-17T14:36:46Z</time>
      </trkpt>
      <trkpt lat="44.45421" lon="1.12996">
        <ele>190.954712</ele>
        <time>2019-08-17T14:36:47Z</time>
      </trkpt>
      <trkpt lat="44.45419" lon="1.13001">
        <ele>191.190445</ele>
        <time>2019-08-17T14:36:48Z</time>
      </trkpt>
      <trkpt lat="44.45417" lon="1.13005">
        <ele>191.431396</ele>
        <time>2019-08-17T14:36:49Z</time>
      </trkpt>
      <trkpt lat="44.45416" lon="1.13009">
        <ele>191.67952</ele>
        <time>2019-08-17T14:36:50Z</time>
      </trkpt>
      <trkpt lat="44.45415" lon="1.13013">
        <ele>191.922134</ele>
        <time>2019-08-17T14:36:51Z</time>
      </trkpt>
      <trkpt lat="44.45415" lon="1.13018">
        <ele>192.158554</ele>
        <time>2019-08-17T14:36:52Z</time>
      </trkpt>
      <trkpt lat="44.45414" lon="1.13023">
        <ele>192.35408</ele>
        <time>2019-08-17T14:36:53Z</time>
      </trkpt>
      <trkpt lat="44.45414" lon="1.13027">
        <ele>192.522827</ele>
        <time>2019-08-17T14:36:54Z</time>
      </trkpt>
      <trkpt lat="44.45413" lon="1.13032">
        <ele>192.654831</ele>
        <time>2019-08-17T14:36:55Z</time>
      </trkpt>
      <trkpt lat="44.45412" lon="1.13036">
        <ele>192.654831</ele>
        <time>2019-08-17T14:36:56Z</time>
      </trkpt>
      <trkpt lat="44.45412" lon="1.1304">
        <ele>192.752396</ele>
        <time>2019-08-17T14:36:57Z</time>
      </trkpt>
      <trkpt lat="44.45412" lon="1.13045">
        <ele>192.836487</ele>
        <time>2019-08-17T14:36:58Z</time>
      </trkpt>
      <trkpt lat="44.45411" lon="1.1305">
        <ele>192.92366</ele>
        <time>2019-08-17T14:36:59Z</time>
      </trkpt>
      <trkpt lat="44.45411" lon="1.13055">
        <ele>193.005783</ele>
        <time>2019-08-17T14:37:00Z</time>
      </trkpt>
      <trkpt lat="44.4541" lon="1.13059">
        <ele>193.091507</ele>
        <time>2019-08-17T14:37:01Z</time>
      </trkpt>
      <trkpt lat="44.45409" lon="1.13063">
        <ele>193.190475</ele>
        <time>2019-08-17T14:37:02Z</time>
      </trkpt>
      <trkpt lat="44.45408" lon="1.13066">
        <ele>193.300537</ele>
        <time>2019-08-17T14:37:03Z</time>
      </trkpt>
      <trkpt lat="44.45405" lon="1.13069">
        <ele>193.413498</ele>
        <time>2019-08-17T14:37:04Z</time>
      </trkpt>
      <trkpt lat="44.45403" lon="1.13071">
        <ele>193.519363</ele>
        <time>2019-08-17T14:37:05Z</time>
      </trkpt>
      <trkpt lat="44.45402" lon="1.13073">
        <ele>193.638489</ele>
        <time>2019-08-17T14:37:06Z</time>
      </trkpt>
      <trkpt lat="44.454" lon="1.13074">
        <ele>193.77507</ele>
        <time>2019-08-17T14:37:07Z</time>
      </trkpt>
      <trkpt lat="44.45399" lon="1.13075">
        <ele>193.916763</ele>
        <time>2019-08-17T14:37:08Z</time>
      </trkpt>
      <trkpt lat="44.45398" lon="1.13077">
        <ele>194.057602</ele>
        <time>2019-08-17T14:37:09Z</time>
      </trkpt>
      <trkpt lat="44.45399" lon="1.13079">
        <ele>194.194016</ele>
        <time>2019-08-17T14:37:10Z</time>
      </trkpt>
      <trkpt lat="44.454" lon="1.13081">
        <ele>194.323746</ele>
        <time>2019-08-17T14:37:11Z</time>
      </trkpt>
      <trkpt lat="44.45402" lon="1.13084">
        <ele>194.417313</ele>
        <time>2019-08-17T14:37:12Z</time>
      </trkpt>
      <trkpt lat="44.45403" lon="1.13086">
        <ele>194.461441</ele>
        <time>2019-08-17T14:37:13Z</time>
      </trkpt>
      <trkpt lat="44.45404" lon="1.1309">
        <ele>194.461441</ele>
        <time>2019-08-17T14:37:14Z</time>
      </trkpt>
      <trkpt lat="44.45406" lon="1.13093">
        <ele>194.462708</ele>
        <time>2019-08-17T14:37:15Z</time>
      </trkpt>
      <trkpt lat="44.45407" lon="1.13095">
        <ele>194.462708</ele>
        <time>2019-08-17T14:37:16Z</time>
      </trkpt>
      <trkpt lat="44.45408" lon="1.13098">
        <ele>194.464249</ele>
        <time>2019-08-17T14:37:17Z</time>
      </trkpt>
      <trkpt lat="44.45409" lon="1.13102">
        <ele>194.457748</ele>
        <time>2019-08-17T14:37:18Z</time>
      </trkpt>
      <trkpt lat="44.45409" lon="1.13106">
        <ele>194.446793</ele>
        <time>2019-08-17T14:37:19Z</time>
      </trkpt>
      <trkpt lat="44.4541" lon="1.1311">
        <ele>194.435349</ele>
        <time>2019-08-17T14:37:20Z</time>
      </trkpt>
      <trkpt lat="44.45411" lon="1.13113">
        <ele>194.435349</ele>
        <time>2019-08-17T14:37:21Z</time>
      </trkpt>
      <trkpt lat="44.45412" lon="1.13117">
        <ele>194.435349</ele>
        <time>2019-08-17T14:37:22Z</time>
      </trkpt>
      <trkpt lat="44.45412" lon="1.13121">
        <ele>194.446823</ele>
        <time>2019-08-17T14:37:23Z</time>
      </trkpt>
      <trkpt lat="44.45414" lon="1.13124">
        <ele>194.487732</ele>
        <time>2019-08-17T14:37:24Z</time>
      </trkpt>
      <trkpt lat="44.45415" lon="1.13127">
        <ele>194.562988</ele>
        <time>2019-08-17T14:37:25Z</time>
      </trkpt>
      <trkpt lat="44.45417" lon="1.1313">
        <ele>194.651535</ele>
        <time>2019-08-17T14:37:26Z</time>
      </trkpt>
      <trkpt lat="44.45417" lon="1.13134">
        <ele>194.752991</ele>
        <time>2019-08-17T14:37:27Z</time>
      </trkpt>
      <trkpt lat="44.45417" lon="1.13138">
        <ele>194.863541</ele>
        <time>2019-08-17T14:37:28Z</time>
      </trkpt>
      <trkpt lat="44.45417" lon="1.13143">
        <ele>194.987961</ele>
        <time>2019-08-17T14:37:29Z</time>
      </trkpt>
      <trkpt lat="44.45417" lon="1.13147">
        <ele>195.128174</ele>
        <time>2019-08-17T14:37:30Z</time>
      </trkpt>
      <trkpt lat="44.45416" lon="1.13152">
        <ele>195.273743</ele>
        <time>2019-08-17T14:37:31Z</time>
      </trkpt>
      <trkpt lat="44.45416" lon="1.13157">
        <ele>195.419861</ele>
        <time>2019-08-17T14:37:32Z</time>
      </trkpt>
      <trkpt lat="44.45416" lon="1.13161">
        <ele>195.563843</ele>
        <time>2019-08-17T14:37:33Z</time>
      </trkpt>
      <trkpt lat="44.45415" lon="1.13166">
        <ele>195.563843</ele>
        <time>2019-08-17T14:37:34Z</time>
      </trkpt>
      <trkpt lat="44.45415" lon="1.1317">
        <ele>195.706741</ele>
        <time>2019-08-17T14:37:35Z</time>
      </trkpt>
      <trkpt lat="44.45414" lon="1.13174">
        <ele>195.845215</ele>
        <time>2019-08-17T14:37:36Z</time>
      </trkpt>
      <trkpt lat="44.45414" lon="1.13179">
        <ele>196.035629</ele>
        <time>2019-08-17T14:37:37Z</time>
      </trkpt>
      <trkpt lat="44.45414" lon="1.13183">
        <ele>196.250565</ele>
        <time>2019-08-17T14:37:38Z</time>
      </trkpt>
      <trkpt lat="44.45413" lon="1.13188">
        <ele>196.488968</ele>
        <time>2019-08-17T14:37:39Z</time>
      </trkpt>
      <trkpt lat="44.45413" lon="1.13192">
        <ele>196.753616</ele>
        <time>2019-08-17T14:37:40Z</time>
      </trkpt>
      <trkpt lat="44.45413" lon="1.13196">
        <ele>197.050644</ele>
        <time>2019-08-17T14:37:41Z</time>
      </trkpt>
      <trkpt lat="44.45412" lon="1.132">
        <ele>197.377457</ele>
        <time>2019-08-17T14:37:42Z</time>
      </trkpt>
      <trkpt lat="44.45411" lon="1.13204">
        <ele>197.377457</ele>
        <time>2019-08-17T14:37:43Z</time>
      </trkpt>
      <trkpt lat="44.45409" lon="1.13209">
        <ele>197.679764</ele>
        <time>2019-08-17T14:37:44Z</time>
      </trkpt>
      <trkpt lat="44.45408" lon="1.13213">
        <ele>197.982422</ele>
        <time>2019-08-17T14:37:45Z</time>
      </trkpt>
      <trkpt lat="44.45407" lon="1.13216">
        <ele>197.982422</ele>
        <time>2019-08-17T14:37:46Z</time>
      </trkpt>
      <trkpt lat="44.45406" lon="1.1322">
        <ele>198.331528</ele>
        <time>2019-08-17T14:37:47Z</time>
      </trkpt>
      <trkpt lat="44.45406" lon="1.13225">
        <ele>198.688492</ele>
        <time>2019-08-17T14:37:48Z</time>
      </trkpt>
      <trkpt lat="44.45404" lon="1.13229">
        <ele>199.09697</ele>
        <time>2019-08-17T14:37:49Z</time>
      </trkpt>
      <trkpt lat="44.45404" lon="1.13232">
        <ele>199.506165</ele>
        <time>2019-08-17T14:37:50Z</time>
      </trkpt>
      <trkpt lat="44.45403" lon="1.13237">
        <ele>199.918289</ele>
        <time>2019-08-17T14:37:51Z</time>
      </trkpt>
      <trkpt lat="44.45402" lon="1.13241">
        <ele>199.918289</ele>
        <time>2019-08-17T14:37:52Z</time>
      </trkpt>
      <trkpt lat="44.45401" lon="1.13245">
        <ele>200.338608</ele>
        <time>2019-08-17T14:37:53Z</time>
      </trkpt>
      <trkpt lat="44.45401" lon="1.13249">
        <ele>200.738953</ele>
        <time>2019-08-17T14:37:54Z</time>
      </trkpt>
      <trkpt lat="44.454" lon="1.13253">
        <ele>200.738953</ele>
        <time>2019-08-17T14:37:55Z</time>
      </trkpt>
      <trkpt lat="44.454" lon="1.13257">
        <ele>201.248276</ele>
        <time>2019-08-17T14:37:56Z</time>
      </trkpt>
      <trkpt lat="44.454" lon="1.13262">
        <ele>201.728622</ele>
        <time>2019-08-17T14:37:57Z</time>
      </trkpt>
      <trkpt lat="44.45399" lon="1.13266">
        <ele>202.310135</ele>
        <time>2019-08-17T14:37:58Z</time>
      </trkpt>
      <trkpt lat="44.45399" lon="1.1327">
        <ele>202.914063</ele>
        <time>2019-08-17T14:37:59Z</time>
      </trkpt>
      <trkpt lat="44.45398" lon="1.13274">
        <ele>203.544846</ele>
        <time>2019-08-17T14:38:00Z</time>
      </trkpt>
      <trkpt lat="44.45398" lon="1.13278">
        <ele>204.1828</ele>
        <time>2019-08-17T14:38:01Z</time>
      </trkpt>
      <trkpt lat="44.45398" lon="1.13282">
        <ele>204.732849</ele>
        <time>2019-08-17T14:38:02Z</time>
      </trkpt>
      <trkpt lat="44.45398" lon="1.13286">
        <ele>205.27832</ele>
        <time>2019-08-17T14:38:03Z</time>
      </trkpt>
      <trkpt lat="44.45398" lon="1.1329">
        <ele>205.750565</ele>
        <time>2019-08-17T14:38:04Z</time>
      </trkpt>
      <trkpt lat="44.45398" lon="1.13294">
        <ele>206.22168</ele>
        <time>2019-08-17T14:38:05Z</time>
      </trkpt>
      <trkpt lat="44.45398" lon="1.13298">
        <ele>206.685135</ele>
        <time>2019-08-17T14:38:06Z</time>
      </trkpt>
      <trkpt lat="44.45398" lon="1.13302">
        <ele>207.149338</ele>
        <time>2019-08-17T14:38:07Z</time>
      </trkpt>
      <trkpt lat="44.45398" lon="1.13306">
        <ele>207.611557</ele>
        <time>2019-08-17T14:38:08Z</time>
      </trkpt>
      <trkpt lat="44.45398" lon="1.1331">
        <ele>207.611557</ele>
        <time>2019-08-17T14:38:09Z</time>
      </trkpt>
      <trkpt lat="44.45398" lon="1.13314">
        <ele>208.075638</ele>
        <time>2019-08-17T14:38:10Z</time>
      </trkpt>
      <trkpt lat="44.45398" lon="1.13318">
        <ele>208.530472</ele>
        <time>2019-08-17T14:38:11Z</time>
      </trkpt>
      <trkpt lat="44.45398" lon="1.13322">
        <ele>208.530472</ele>
        <time>2019-08-17T14:38:12Z</time>
      </trkpt>
      <trkpt lat="44.45398" lon="1.13326">
        <ele>209.054428</ele>
        <time>2019-08-17T14:38:13Z</time>
      </trkpt>
      <trkpt lat="44.45398" lon="1.1333">
        <ele>209.577393</ele>
        <time>2019-08-17T14:38:14Z</time>
      </trkpt>
      <trkpt lat="44.45399" lon="1.13335">
        <ele>209.577393</ele>
        <time>2019-08-17T14:38:15Z</time>
      </trkpt>
      <trkpt lat="44.45399" lon="1.13339">
        <ele>210.169449</ele>
        <time>2019-08-17T14:38:16Z</time>
      </trkpt>
      <trkpt lat="44.454" lon="1.13343">
        <ele>210.75885</ele>
        <time>2019-08-17T14:38:17Z</time>
      </trkpt>
      <trkpt lat="44.454" lon="1.13347">
        <ele>211.41246</ele>
        <time>2019-08-17T14:38:18Z</time>
      </trkpt>
      <trkpt lat="44.45401" lon="1.13351">
        <ele>211.41246</ele>
        <time>2019-08-17T14:38:19Z</time>
      </trkpt>
      <trkpt lat="44.45401" lon="1.13354">
        <ele>212.05925</ele>
        <time>2019-08-17T14:38:20Z</time>
      </trkpt>
      <trkpt lat="44.45402" lon="1.13358">
        <ele>212.622437</ele>
        <time>2019-08-17T14:38:21Z</time>
      </trkpt>
      <trkpt lat="44.45402" lon="1.13362">
        <ele>212.622437</ele>
        <time>2019-08-17T14:38:22Z</time>
      </trkpt>
      <trkpt lat="44.45403" lon="1.13365">
        <ele>213.239319</ele>
        <time>2019-08-17T14:38:23Z</time>
      </trkpt>
      <trkpt lat="44.45403" lon="1.13369">
        <ele>213.770187</ele>
        <time>2019-08-17T14:38:24Z</time>
      </trkpt>
      <trkpt lat="44.45403" lon="1.13373">
        <ele>214.337021</ele>
        <time>2019-08-17T14:38:25Z</time>
      </trkpt>
      <trkpt lat="44.45403" lon="1.13377">
        <ele>214.337021</ele>
        <time>2019-08-17T14:38:26Z</time>
      </trkpt>
      <trkpt lat="44.45403" lon="1.13381">
        <ele>214.818604</ele>
        <time>2019-08-17T14:38:27Z</time>
      </trkpt>
      <trkpt lat="44.45403" lon="1.13384">
        <ele>215.276184</ele>
        <time>2019-08-17T14:38:28Z</time>
      </trkpt>
      <trkpt lat="44.45404" lon="1.13388">
        <ele>215.771057</ele>
        <time>2019-08-17T14:38:29Z</time>
      </trkpt>
      <trkpt lat="44.45405" lon="1.13391">
        <ele>216.19014</ele>
        <time>2019-08-17T14:38:30Z</time>
      </trkpt>
      <trkpt lat="44.45406" lon="1.13394">
        <ele>216.587769</ele>
        <time>2019-08-17T14:38:31Z</time>
      </trkpt>
      <trkpt lat="44.45409" lon="1.13396">
        <ele>216.908401</ele>
        <time>2019-08-17T14:38:32Z</time>
      </trkpt>
      <trkpt lat="44.45411" lon="1.13397">
        <ele>216.908401</ele>
        <time>2019-08-17T14:38:33Z</time>
      </trkpt>
      <trkpt lat="44.45414" lon="1.13399">
        <ele>217.129532</ele>
        <time>2019-08-17T14:38:34Z</time>
      </trkpt>
      <trkpt lat="44.45416" lon="1.13401">
        <ele>217.285263</ele>
        <time>2019-08-17T14:38:35Z</time>
      </trkpt>
      <trkpt lat="44.45418" lon="1.13403">
        <ele>217.32634</ele>
        <time>2019-08-17T14:38:36Z</time>
      </trkpt>
      <trkpt lat="44.4542" lon="1.13405">
        <ele>217.32634</ele>
        <time>2019-08-17T14:38:37Z</time>
      </trkpt>
      <trkpt lat="44.45422" lon="1.13407">
        <ele>217.32634</ele>
        <time>2019-08-17T14:38:38Z</time>
      </trkpt>
      <trkpt lat="44.45423" lon="1.13409">
        <ele>217.306168</ele>
        <time>2019-08-17T14:38:39Z</time>
      </trkpt>
      <trkpt lat="44.45425" lon="1.1341">
        <ele>217.306168</ele>
        <time>2019-08-17T14:38:40Z</time>
      </trkpt>
      <trkpt lat="44.45427" lon="1.13413">
        <ele>217.238235</ele>
        <time>2019-08-17T14:38:41Z</time>
      </trkpt>
      <trkpt lat="44.45429" lon="1.13415">
        <ele>217.13118</ele>
        <time>2019-08-17T14:38:42Z</time>
      </trkpt>
      <trkpt lat="44.4543" lon="1.13417">
        <ele>217.053207</ele>
        <time>2019-08-17T14:38:43Z</time>
      </trkpt>
      <trkpt lat="44.45432" lon="1.13419">
        <ele>216.996216</ele>
        <time>2019-08-17T14:38:44Z</time>
      </trkpt>
      <trkpt lat="44.45433" lon="1.13421">
        <ele>216.94603</ele>
        <time>2019-08-17T14:38:45Z</time>
      </trkpt>
      <trkpt lat="44.45435" lon="1.13424">
        <ele>216.89888</ele>
        <time>2019-08-17T14:38:46Z</time>
      </trkpt>
      <trkpt lat="44.45437" lon="1.13426">
        <ele>216.844437</ele>
        <time>2019-08-17T14:38:47Z</time>
      </trkpt>
      <trkpt lat="44.45439" lon="1.13428">
        <ele>216.789993</ele>
        <time>2019-08-17T14:38:48Z</time>
      </trkpt>
      <trkpt lat="44.45441" lon="1.13431">
        <ele>216.741531</ele>
        <time>2019-08-17T14:38:49Z</time>
      </trkpt>
      <trkpt lat="44.45443" lon="1.13434">
        <ele>216.686035</ele>
        <time>2019-08-17T14:38:50Z</time>
      </trkpt>
      <trkpt lat="44.45445" lon="1.13437">
        <ele>216.626144</ele>
        <time>2019-08-17T14:38:51Z</time>
      </trkpt>
      <trkpt lat="44.45445" lon="1.13439">
        <ele>216.563965</ele>
        <time>2019-08-17T14:38:52Z</time>
      </trkpt>
      <trkpt lat="44.45447" lon="1.13442">
        <ele>216.507645</ele>
        <time>2019-08-17T14:38:53Z</time>
      </trkpt>
      <trkpt lat="44.45448" lon="1.13445">
        <ele>216.507645</ele>
        <time>2019-08-17T14:38:54Z</time>
      </trkpt>
      <trkpt lat="44.45449" lon="1.13448">
        <ele>216.452393</ele>
        <time>2019-08-17T14:38:55Z</time>
      </trkpt>
      <trkpt lat="44.4545" lon="1.13451">
        <ele>216.40657</ele>
        <time>2019-08-17T14:38:56Z</time>
      </trkpt>
      <trkpt lat="44.45451" lon="1.13454">
        <ele>216.369888</ele>
        <time>2019-08-17T14:38:57Z</time>
      </trkpt>
      <trkpt lat="44.4545" lon="1.13456">
        <ele>216.369888</ele>
        <time>2019-08-17T14:38:58Z</time>
      </trkpt>
      <trkpt lat="44.45449" lon="1.13458">
        <ele>216.369888</ele>
        <time>2019-08-17T14:38:59Z</time>
      </trkpt>
      <trkpt lat="44.45447" lon="1.13459">
        <ele>216.369888</ele>
        <time>2019-08-17T14:39:00Z</time>
      </trkpt>
      <trkpt lat="44.45444" lon="1.13458">
        <ele>216.369888</ele>
        <time>2019-08-17T14:39:01Z</time>
      </trkpt>
      <trkpt lat="44.4544" lon="1.13456">
        <ele>216.374832</ele>
        <time>2019-08-17T14:39:02Z</time>
      </trkpt>
      <trkpt lat="44.45436" lon="1.13455">
        <ele>216.427856</ele>
        <time>2019-08-17T14:39:03Z</time>
      </trkpt>
      <trkpt lat="44.45432" lon="1.13454">
        <ele>216.585526</ele>
        <time>2019-08-17T14:39:04Z</time>
      </trkpt>
      <trkpt lat="44.45427" lon="1.13453">
        <ele>216.804031</ele>
        <time>2019-08-17T14:39:05Z</time>
      </trkpt>
      <trkpt lat="44.45423" lon="1.13452">
        <ele>217.097244</ele>
        <time>2019-08-17T14:39:06Z</time>
      </trkpt>
      <trkpt lat="44.45419" lon="1.13451">
        <ele>217.471436</ele>
        <time>2019-08-17T14:39:07Z</time>
      </trkpt>
      <trkpt lat="44.45415" lon="1.1345">
        <ele>217.895096</ele>
        <time>2019-08-17T14:39:08Z</time>
      </trkpt>
      <trkpt lat="44.45411" lon="1.13449">
        <ele>218.354172</ele>
        <time>2019-08-17T14:39:09Z</time>
      </trkpt>
      <trkpt lat="44.45408" lon="1.13448">
        <ele>218.792648</ele>
        <time>2019-08-17T14:39:10Z</time>
      </trkpt>
      <trkpt lat="44.45405" lon="1.13447">
        <ele>219.246017</ele>
        <time>2019-08-17T14:39:11Z</time>
      </trkpt>
      <trkpt lat="44.45402" lon="1.13446">
        <ele>219.686813</ele>
        <time>2019-08-17T14:39:12Z</time>
      </trkpt>
      <trkpt lat="44.45399" lon="1.13445">
        <ele>220.119003</ele>
        <time>2019-08-17T14:39:13Z</time>
      </trkpt>
      <trkpt lat="44.45396" lon="1.13444">
        <ele>220.54451</ele>
        <time>2019-08-17T14:39:14Z</time>
      </trkpt>
      <trkpt lat="44.45393" lon="1.13443">
        <ele>220.969284</ele>
        <time>2019-08-17T14:39:15Z</time>
      </trkpt>
      <trkpt lat="44.4539" lon="1.13442">
        <ele>221.398758</ele>
        <time>2019-08-17T14:39:16Z</time>
      </trkpt>
      <trkpt lat="44.45388" lon="1.13441">
        <ele>221.835632</ele>
        <time>2019-08-17T14:39:17Z</time>
      </trkpt>
      <trkpt lat="44.45385" lon="1.13441">
        <ele>222.27977</ele>
        <time>2019-08-17T14:39:18Z</time>
      </trkpt>
      <trkpt lat="44.45383" lon="1.1344">
        <ele>222.71344</ele>
        <time>2019-08-17T14:39:19Z</time>
      </trkpt>
      <trkpt lat="44.4538" lon="1.13439">
        <ele>222.71344</ele>
        <time>2019-08-17T14:39:20Z</time>
      </trkpt>
      <trkpt lat="44.45379" lon="1.13437">
        <ele>223.135147</ele>
        <time>2019-08-17T14:39:21Z</time>
      </trkpt>
      <trkpt lat="44.45377" lon="1.13437">
        <ele>223.538223</ele>
        <time>2019-08-17T14:39:22Z</time>
      </trkpt>
      <trkpt lat="44.45375" lon="1.13435">
        <ele>223.972977</ele>
        <time>2019-08-17T14:39:23Z</time>
      </trkpt>
      <trkpt lat="44.45374" lon="1.13435">
        <ele>224.378357</ele>
        <time>2019-08-17T14:39:24Z</time>
      </trkpt>
      <trkpt lat="44.45372" lon="1.13434">
        <ele>224.756912</ele>
        <time>2019-08-17T14:39:25Z</time>
      </trkpt>
      <trkpt lat="44.4537" lon="1.13433">
        <ele>225.109116</ele>
        <time>2019-08-17T14:39:26Z</time>
      </trkpt>
      <trkpt lat="44.45368" lon="1.13432">
        <ele>225.434708</ele>
        <time>2019-08-17T14:39:27Z</time>
      </trkpt>
      <trkpt lat="44.45366" lon="1.13431">
        <ele>225.751221</ele>
        <time>2019-08-17T14:39:28Z</time>
      </trkpt>
      <trkpt lat="44.45365" lon="1.1343">
        <ele>225.991623</ele>
        <time>2019-08-17T14:39:29Z</time>
      </trkpt>
      <trkpt lat="44.45363" lon="1.13429">
        <ele>226.21199</ele>
        <time>2019-08-17T14:39:30Z</time>
      </trkpt>
      <trkpt lat="44.45361" lon="1.13428">
        <ele>226.418213</ele>
        <time>2019-08-17T14:39:31Z</time>
      </trkpt>
      <trkpt lat="44.45359" lon="1.13427">
        <ele>226.624161</ele>
        <time>2019-08-17T14:39:32Z</time>
      </trkpt>
      <trkpt lat="44.45357" lon="1.13425">
        <ele>226.830688</ele>
        <time>2019-08-17T14:39:33Z</time>
      </trkpt>
      <trkpt lat="44.45356" lon="1.13423">
        <ele>227.023911</ele>
        <time>2019-08-17T14:39:34Z</time>
      </trkpt>
      <trkpt lat="44.45353" lon="1.13422">
        <ele>227.205124</ele>
        <time>2019-08-17T14:39:35Z</time>
      </trkpt>
      <trkpt lat="44.45351" lon="1.13421">
        <ele>227.378296</ele>
        <time>2019-08-17T14:39:36Z</time>
      </trkpt>
      <trkpt lat="44.4535" lon="1.13419">
        <ele>227.535172</ele>
        <time>2019-08-17T14:39:37Z</time>
      </trkpt>
      <trkpt lat="44.45348" lon="1.13418">
        <ele>227.684692</ele>
        <time>2019-08-17T14:39:38Z</time>
      </trkpt>
      <trkpt lat="44.45346" lon="1.13416">
        <ele>227.828323</ele>
        <time>2019-08-17T14:39:39Z</time>
      </trkpt>
      <trkpt lat="44.45344" lon="1.13415">
        <ele>227.963272</ele>
        <time>2019-08-17T14:39:40Z</time>
      </trkpt>
      <trkpt lat="44.45342" lon="1.13414">
        <ele>228.09111</ele>
        <time>2019-08-17T14:39:41Z</time>
      </trkpt>
      <trkpt lat="44.4534" lon="1.13412">
        <ele>228.21785</ele>
        <time>2019-08-17T14:39:42Z</time>
      </trkpt>
      <trkpt lat="44.45338" lon="1.13411">
        <ele>228.294312</ele>
        <time>2019-08-17T14:39:43Z</time>
      </trkpt>
      <trkpt lat="44.45337" lon="1.13409">
        <ele>228.303513</ele>
        <time>2019-08-17T14:39:44Z</time>
      </trkpt>
      <trkpt lat="44.45335" lon="1.13408">
        <ele>228.303513</ele>
        <time>2019-08-17T14:39:45Z</time>
      </trkpt>
      <trkpt lat="44.45333" lon="1.13407">
        <ele>228.303513</ele>
        <time>2019-08-17T14:39:46Z</time>
      </trkpt>
      <trkpt lat="44.45331" lon="1.13406">
        <ele>228.246216</ele>
        <time>2019-08-17T14:39:47Z</time>
      </trkpt>
      <trkpt lat="44.45329" lon="1.13405">
        <ele>228.130325</ele>
        <time>2019-08-17T14:39:48Z</time>
      </trkpt>
      <trkpt lat="44.45327" lon="1.13404">
        <ele>227.963455</ele>
        <time>2019-08-17T14:39:49Z</time>
      </trkpt>
      <trkpt lat="44.45325" lon="1.13402">
        <ele>227.741821</ele>
        <time>2019-08-17T14:39:50Z</time>
      </trkpt>
      <trkpt lat="44.45324" lon="1.13401">
        <ele>227.520401</ele>
        <time>2019-08-17T14:39:51Z</time>
      </trkpt>
      <trkpt lat="44.45321" lon="1.13401">
        <ele>227.304626</ele>
        <time>2019-08-17T14:39:52Z</time>
      </trkpt>
      <trkpt lat="44.45319" lon="1.134">
        <ele>227.082718</ele>
        <time>2019-08-17T14:39:53Z</time>
      </trkpt>
      <trkpt lat="44.45318" lon="1.13399">
        <ele>227.082718</ele>
        <time>2019-08-17T14:39:54Z</time>
      </trkpt>
      <trkpt lat="44.45316" lon="1.13398">
        <ele>226.863815</ele>
        <time>2019-08-17T14:39:55Z</time>
      </trkpt>
      <trkpt lat="44.45314" lon="1.13396">
        <ele>226.655594</ele>
        <time>2019-08-17T14:39:56Z</time>
      </trkpt>
      <trkpt lat="44.45312" lon="1.13395">
        <ele>226.425797</ele>
        <time>2019-08-17T14:39:57Z</time>
      </trkpt>
      <trkpt lat="44.4531" lon="1.13394">
        <ele>226.200302</ele>
        <time>2019-08-17T14:39:58Z</time>
      </trkpt>
      <trkpt lat="44.45308" lon="1.13393">
        <ele>225.973022</ele>
        <time>2019-08-17T14:39:59Z</time>
      </trkpt>
      <trkpt lat="44.45306" lon="1.13391">
        <ele>225.756882</ele>
        <time>2019-08-17T14:40:00Z</time>
      </trkpt>
      <trkpt lat="44.45305" lon="1.1339">
        <ele>225.537521</ele>
        <time>2019-08-17T14:40:01Z</time>
      </trkpt>
      <trkpt lat="44.45302" lon="1.13389">
        <ele>225.302841</ele>
        <time>2019-08-17T14:40:02Z</time>
      </trkpt>
      <trkpt lat="44.453" lon="1.13387">
        <ele>225.088303</ele>
        <time>2019-08-17T14:40:03Z</time>
      </trkpt>
      <trkpt lat="44.45298" lon="1.13386">
        <ele>224.878052</ele>
        <time>2019-08-17T14:40:04Z</time>
      </trkpt>
      <trkpt lat="44.45296" lon="1.13385">
        <ele>224.672653</ele>
        <time>2019-08-17T14:40:05Z</time>
      </trkpt>
      <trkpt lat="44.45295" lon="1.13384">
        <ele>224.459839</ele>
        <time>2019-08-17T14:40:06Z</time>
      </trkpt>
      <trkpt lat="44.45292" lon="1.13383">
        <ele>224.248581</ele>
        <time>2019-08-17T14:40:07Z</time>
      </trkpt>
      <trkpt lat="44.4529" lon="1.13381">
        <ele>224.047165</ele>
        <time>2019-08-17T14:40:08Z</time>
      </trkpt>
      <trkpt lat="44.45288" lon="1.1338">
        <ele>223.851761</ele>
        <time>2019-08-17T14:40:09Z</time>
      </trkpt>
      <trkpt lat="44.45286" lon="1.13379">
        <ele>223.654617</ele>
        <time>2019-08-17T14:40:10Z</time>
      </trkpt>
      <trkpt lat="44.45284" lon="1.13377">
        <ele>223.45842</ele>
        <time>2019-08-17T14:40:11Z</time>
      </trkpt>
      <trkpt lat="44.45282" lon="1.13376">
        <ele>223.268784</ele>
        <time>2019-08-17T14:40:12Z</time>
      </trkpt>
      <trkpt lat="44.4528" lon="1.13374">
        <ele>223.079086</ele>
        <time>2019-08-17T14:40:13Z</time>
      </trkpt>
      <trkpt lat="44.45278" lon="1.13373">
        <ele>222.885086</ele>
        <time>2019-08-17T14:40:14Z</time>
      </trkpt>
      <trkpt lat="44.45276" lon="1.13371">
        <ele>222.689041</ele>
        <time>2019-08-17T14:40:15Z</time>
      </trkpt>
      <trkpt lat="44.45273" lon="1.1337">
        <ele>222.689041</ele>
        <time>2019-08-17T14:40:16Z</time>
      </trkpt>
      <trkpt lat="44.45271" lon="1.13368">
        <ele>222.492142</ele>
        <time>2019-08-17T14:40:17Z</time>
      </trkpt>
      <trkpt lat="44.45269" lon="1.13367">
        <ele>222.289963</ele>
        <time>2019-08-17T14:40:18Z</time>
      </trkpt>
      <trkpt lat="44.45267" lon="1.13365">
        <ele>222.051193</ele>
        <time>2019-08-17T14:40:19Z</time>
      </trkpt>
      <trkpt lat="44.45265" lon="1.13364">
        <ele>221.804459</ele>
        <time>2019-08-17T14:40:20Z</time>
      </trkpt>
      <trkpt lat="44.45263" lon="1.13362">
        <ele>221.55011</ele>
        <time>2019-08-17T14:40:21Z</time>
      </trkpt>
      <trkpt lat="44.45262" lon="1.13361">
        <ele>221.290771</ele>
        <time>2019-08-17T14:40:22Z</time>
      </trkpt>
      <trkpt lat="44.45261" lon="1.13359">
        <ele>221.030991</ele>
        <time>2019-08-17T14:40:23Z</time>
      </trkpt>
      <trkpt lat="44.45261" lon="1.13357">
        <ele>220.772034</ele>
        <time>2019-08-17T14:40:24Z</time>
      </trkpt>
      <trkpt lat="44.45261" lon="1.13355">
        <ele>220.772034</ele>
        <time>2019-08-17T14:40:25Z</time>
      </trkpt>
      <trkpt lat="44.45261" lon="1.13353">
        <ele>220.551071</ele>
        <time>2019-08-17T14:40:26Z</time>
      </trkpt>
      <trkpt lat="44.45261" lon="1.13351">
        <ele>220.340561</ele>
        <time>2019-08-17T14:40:27Z</time>
      </trkpt>
      <trkpt lat="44.4526" lon="1.13349">
        <ele>220.340561</ele>
        <time>2019-08-17T14:40:28Z</time>
      </trkpt>
      <trkpt lat="44.45259" lon="1.13348">
        <ele>220.108963</ele>
        <time>2019-08-17T14:40:29Z</time>
      </trkpt>
      <trkpt lat="44.45257" lon="1.13348">
        <ele>219.888046</ele>
        <time>2019-08-17T14:40:30Z</time>
      </trkpt>
      <trkpt lat="44.45256" lon="1.13347">
        <ele>219.633224</ele>
        <time>2019-08-17T14:40:31Z</time>
      </trkpt>
      <trkpt lat="44.45255" lon="1.13346">
        <ele>219.393784</ele>
        <time>2019-08-17T14:40:32Z</time>
      </trkpt>
      <trkpt lat="44.45254" lon="1.13346">
        <ele>219.173172</ele>
        <time>2019-08-17T14:40:33Z</time>
      </trkpt>
      <trkpt lat="44.45253" lon="1.13344">
        <ele>218.969543</ele>
        <time>2019-08-17T14:40:34Z</time>
      </trkpt>
      <trkpt lat="44.45252" lon="1.13343">
        <ele>218.812943</ele>
        <time>2019-08-17T14:40:35Z</time>
      </trkpt>
      <trkpt lat="44.45251" lon="1.13344">
        <ele>218.66925</ele>
        <time>2019-08-17T14:40:36Z</time>
      </trkpt>
      <trkpt lat="44.4525" lon="1.13346">
        <ele>218.570313</ele>
        <time>2019-08-17T14:40:37Z</time>
      </trkpt>
      <trkpt lat="44.4525" lon="1.13347">
        <ele>218.496262</ele>
        <time>2019-08-17T14:40:38Z</time>
      </trkpt>
      <trkpt lat="44.45251" lon="1.13349">
        <ele>218.459671</ele>
        <time>2019-08-17T14:40:39Z</time>
      </trkpt>
      <trkpt lat="44.45252" lon="1.13351">
        <ele>218.459671</ele>
        <time>2019-08-17T14:40:40Z</time>
      </trkpt>
      <trkpt lat="44.45254" lon="1.13353">
        <ele>218.459671</ele>
        <time>2019-08-17T14:40:41Z</time>
      </trkpt>
      <trkpt lat="44.45255" lon="1.13355">
        <ele>218.46521</ele>
        <time>2019-08-17T14:40:42Z</time>
      </trkpt>
      <trkpt lat="44.45256" lon="1.13358">
        <ele>218.513718</ele>
        <time>2019-08-17T14:40:43Z</time>
      </trkpt>
      <trkpt lat="44.45256" lon="1.13361">
        <ele>218.610184</ele>
        <time>2019-08-17T14:40:44Z</time>
      </trkpt>
      <trkpt lat="44.45256" lon="1.13364">
        <ele>218.610184</ele>
        <time>2019-08-17T14:40:45Z</time>
      </trkpt>
      <trkpt lat="44.45255" lon="1.13368">
        <ele>218.770691</ele>
        <time>2019-08-17T14:40:46Z</time>
      </trkpt>
      <trkpt lat="44.45255" lon="1.13372">
        <ele>218.972916</ele>
        <time>2019-08-17T14:40:47Z</time>
      </trkpt>
      <trkpt lat="44.45253" lon="1.13376">
        <ele>218.972916</ele>
        <time>2019-08-17T14:40:48Z</time>
      </trkpt>
      <trkpt lat="44.45252" lon="1.1338">
        <ele>219.245407</ele>
        <time>2019-08-17T14:40:49Z</time>
      </trkpt>
      <trkpt lat="44.45252" lon="1.13384">
        <ele>219.532486</ele>
        <time>2019-08-17T14:40:50Z</time>
      </trkpt>
      <trkpt lat="44.4525" lon="1.13388">
        <ele>219.532486</ele>
        <time>2019-08-17T14:40:51Z</time>
      </trkpt>
      <trkpt lat="44.4525" lon="1.13392">
        <ele>219.876541</ele>
        <time>2019-08-17T14:40:52Z</time>
      </trkpt>
      <trkpt lat="44.45249" lon="1.13396">
        <ele>220.228409</ele>
        <time>2019-08-17T14:40:53Z</time>
      </trkpt>
      <trkpt lat="44.45248" lon="1.134">
        <ele>220.615768</ele>
        <time>2019-08-17T14:40:54Z</time>
      </trkpt>
      <trkpt lat="44.45247" lon="1.13404">
        <ele>220.997879</ele>
        <time>2019-08-17T14:40:55Z</time>
      </trkpt>
      <trkpt lat="44.45246" lon="1.13408">
        <ele>221.321579</ele>
        <time>2019-08-17T14:40:56Z</time>
      </trkpt>
      <trkpt lat="44.45245" lon="1.13413">
        <ele>221.639526</ele>
        <time>2019-08-17T14:40:57Z</time>
      </trkpt>
      <trkpt lat="44.45245" lon="1.13417">
        <ele>221.911545</ele>
        <time>2019-08-17T14:40:58Z</time>
      </trkpt>
      <trkpt lat="44.45244" lon="1.13422">
        <ele>222.18483</ele>
        <time>2019-08-17T14:40:59Z</time>
      </trkpt>
      <trkpt lat="44.45243" lon="1.13426">
        <ele>222.420242</ele>
        <time>2019-08-17T14:41:00Z</time>
      </trkpt>
      <trkpt lat="44.45242" lon="1.13431">
        <ele>222.657043</ele>
        <time>2019-08-17T14:41:01Z</time>
      </trkpt>
      <trkpt lat="44.4524" lon="1.13435">
        <ele>222.657043</ele>
        <time>2019-08-17T14:41:02Z</time>
      </trkpt>
      <trkpt lat="44.45239" lon="1.1344">
        <ele>222.894653</ele>
        <time>2019-08-17T14:41:03Z</time>
      </trkpt>
      <trkpt lat="44.45238" lon="1.13445">
        <ele>223.133804</ele>
        <time>2019-08-17T14:41:04Z</time>
      </trkpt>
      <trkpt lat="44.45237" lon="1.13449">
        <ele>223.397781</ele>
        <time>2019-08-17T14:41:05Z</time>
      </trkpt>
      <trkpt lat="44.45236" lon="1.13454">
        <ele>223.639999</ele>
        <time>2019-08-17T14:41:06Z</time>
      </trkpt>
      <trkpt lat="44.45234" lon="1.13459">
        <ele>223.870193</ele>
        <time>2019-08-17T14:41:07Z</time>
      </trkpt>
      <trkpt lat="44.45233" lon="1.13465">
        <ele>224.08461</ele>
        <time>2019-08-17T14:41:08Z</time>
      </trkpt>
      <trkpt lat="44.45232" lon="1.1347">
        <ele>224.285934</ele>
        <time>2019-08-17T14:41:09Z</time>
      </trkpt>
      <trkpt lat="44.4523" lon="1.13476">
        <ele>224.467819</ele>
        <time>2019-08-17T14:41:10Z</time>
      </trkpt>
      <trkpt lat="44.45229" lon="1.13481">
        <ele>224.611618</ele>
        <time>2019-08-17T14:41:11Z</time>
      </trkpt>
      <trkpt lat="44.45227" lon="1.13486">
        <ele>224.769058</ele>
        <time>2019-08-17T14:41:12Z</time>
      </trkpt>
      <trkpt lat="44.45225" lon="1.13491">
        <ele>224.769058</ele>
        <time>2019-08-17T14:41:13Z</time>
      </trkpt>
      <trkpt lat="44.45223" lon="1.13496">
        <ele>224.932007</ele>
        <time>2019-08-17T14:41:14Z</time>
      </trkpt>
      <trkpt lat="44.4522" lon="1.135">
        <ele>225.093185</ele>
        <time>2019-08-17T14:41:15Z</time>
      </trkpt>
      <trkpt lat="44.45218" lon="1.13504">
        <ele>225.273621</ele>
        <time>2019-08-17T14:41:16Z</time>
      </trkpt>
      <trkpt lat="44.45215" lon="1.13509">
        <ele>225.44751</ele>
        <time>2019-08-17T14:41:17Z</time>
      </trkpt>
      <trkpt lat="44.45211" lon="1.13514">
        <ele>225.600571</ele>
        <time>2019-08-17T14:41:18Z</time>
      </trkpt>
      <trkpt lat="44.45208" lon="1.13518">
        <ele>225.716064</ele>
        <time>2019-08-17T14:41:19Z</time>
      </trkpt>
      <trkpt lat="44.45203" lon="1.13523">
        <ele>225.716064</ele>
        <time>2019-08-17T14:41:20Z</time>
      </trkpt>
      <trkpt lat="44.452" lon="1.13527">
        <ele>225.787674</ele>
        <time>2019-08-17T14:41:21Z</time>
      </trkpt>
      <trkpt lat="44.45195" lon="1.1353">
        <ele>225.837463</ele>
        <time>2019-08-17T14:41:22Z</time>
      </trkpt>
      <trkpt lat="44.45192" lon="1.13535">
        <ele>225.84584</ele>
        <time>2019-08-17T14:41:23Z</time>
      </trkpt>
      <trkpt lat="44.45187" lon="1.13539">
        <ele>225.859253</ele>
        <time>2019-08-17T14:41:24Z</time>
      </trkpt>
      <trkpt lat="44.45184" lon="1.13543">
        <ele>225.875977</ele>
        <time>2019-08-17T14:41:25Z</time>
      </trkpt>
      <trkpt lat="44.45179" lon="1.13547">
        <ele>225.886032</ele>
        <time>2019-08-17T14:41:26Z</time>
      </trkpt>
      <trkpt lat="44.45175" lon="1.13551">
        <ele>225.887939</ele>
        <time>2019-08-17T14:41:27Z</time>
      </trkpt>
      <trkpt lat="44.45171" lon="1.13555">
        <ele>225.897018</ele>
        <time>2019-08-17T14:41:28Z</time>
      </trkpt>
      <trkpt lat="44.45168" lon="1.13559">
        <ele>225.919189</ele>
        <time>2019-08-17T14:41:29Z</time>
      </trkpt>
      <trkpt lat="44.45163" lon="1.13564">
        <ele>225.956894</ele>
        <time>2019-08-17T14:41:30Z</time>
      </trkpt>
      <trkpt lat="44.45159" lon="1.13568">
        <ele>226.011658</ele>
        <time>2019-08-17T14:41:31Z</time>
      </trkpt>
      <trkpt lat="44.45155" lon="1.13573">
        <ele>226.076294</ele>
        <time>2019-08-17T14:41:32Z</time>
      </trkpt>
      <trkpt lat="44.45151" lon="1.13578">
        <ele>226.150711</ele>
        <time>2019-08-17T14:41:33Z</time>
      </trkpt>
      <trkpt lat="44.45147" lon="1.13582">
        <ele>226.235214</ele>
        <time>2019-08-17T14:41:34Z</time>
      </trkpt>
      <trkpt lat="44.45143" lon="1.13587">
        <ele>226.330383</ele>
        <time>2019-08-17T14:41:35Z</time>
      </trkpt>
      <trkpt lat="44.45139" lon="1.13592">
        <ele>226.423401</ele>
        <time>2019-08-17T14:41:36Z</time>
      </trkpt>
      <trkpt lat="44.45135" lon="1.13597">
        <ele>226.423401</ele>
        <time>2019-08-17T14:41:37Z</time>
      </trkpt>
      <trkpt lat="44.45131" lon="1.13602">
        <ele>226.518127</ele>
        <time>2019-08-17T14:41:38Z</time>
      </trkpt>
      <trkpt lat="44.45127" lon="1.13607">
        <ele>226.613907</ele>
        <time>2019-08-17T14:41:39Z</time>
      </trkpt>
      <trkpt lat="44.45123" lon="1.13612">
        <ele>226.736008</ele>
        <time>2019-08-17T14:41:40Z</time>
      </trkpt>
      <trkpt lat="44.45119" lon="1.13617">
        <ele>226.864731</ele>
        <time>2019-08-17T14:41:41Z</time>
      </trkpt>
      <trkpt lat="44.45115" lon="1.13622">
        <ele>227.000961</ele>
        <time>2019-08-17T14:41:42Z</time>
      </trkpt>
      <trkpt lat="44.45111" lon="1.13626">
        <ele>227.153824</ele>
        <time>2019-08-17T14:41:43Z</time>
      </trkpt>
      <trkpt lat="44.45108" lon="1.13631">
        <ele>227.319931</ele>
        <time>2019-08-17T14:41:44Z</time>
      </trkpt>
      <trkpt lat="44.45104" lon="1.13635">
        <ele>227.493164</ele>
        <time>2019-08-17T14:41:45Z</time>
      </trkpt>
      <trkpt lat="44.451" lon="1.1364">
        <ele>227.646484</ele>
        <time>2019-08-17T14:41:46Z</time>
      </trkpt>
      <trkpt lat="44.45097" lon="1.13645">
        <ele>227.798996</ele>
        <time>2019-08-17T14:41:47Z</time>
      </trkpt>
      <trkpt lat="44.45093" lon="1.13649">
        <ele>227.949051</ele>
        <time>2019-08-17T14:41:48Z</time>
      </trkpt>
      <trkpt lat="44.45089" lon="1.13652">
        <ele>228.098587</ele>
        <time>2019-08-17T14:41:49Z</time>
      </trkpt>
      <trkpt lat="44.45084" lon="1.13655">
        <ele>228.098587</ele>
        <time>2019-08-17T14:41:50Z</time>
      </trkpt>
      <trkpt lat="44.45079" lon="1.13657">
        <ele>228.227341</ele>
        <time>2019-08-17T14:41:51Z</time>
      </trkpt>
      <trkpt lat="44.45075" lon="1.13657">
        <ele>228.336014</ele>
        <time>2019-08-17T14:41:52Z</time>
      </trkpt>
      <trkpt lat="44.4507" lon="1.13658">
        <ele>228.424988</ele>
        <time>2019-08-17T14:41:53Z</time>
      </trkpt>
      <trkpt lat="44.45066" lon="1.13657">
        <ele>228.483765</ele>
        <time>2019-08-17T14:41:54Z</time>
      </trkpt>
      <trkpt lat="44.45062" lon="1.13657">
        <ele>228.524536</ele>
        <time>2019-08-17T14:41:55Z</time>
      </trkpt>
      <trkpt lat="44.45057" lon="1.13657">
        <ele>228.541306</ele>
        <time>2019-08-17T14:41:56Z</time>
      </trkpt>
      <trkpt lat="44.45052" lon="1.13657">
        <ele>228.557419</ele>
        <time>2019-08-17T14:41:57Z</time>
      </trkpt>
      <trkpt lat="44.45047" lon="1.13656">
        <ele>228.596024</ele>
        <time>2019-08-17T14:41:58Z</time>
      </trkpt>
      <trkpt lat="44.45042" lon="1.13656">
        <ele>228.661331</ele>
        <time>2019-08-17T14:41:59Z</time>
      </trkpt>
      <trkpt lat="44.45038" lon="1.13655">
        <ele>228.75</ele>
        <time>2019-08-17T14:42:00Z</time>
      </trkpt>
      <trkpt lat="44.45033" lon="1.13654">
        <ele>228.8647</ele>
        <time>2019-08-17T14:42:01Z</time>
      </trkpt>
      <trkpt lat="44.45028" lon="1.13654">
        <ele>229.006027</ele>
        <time>2019-08-17T14:42:02Z</time>
      </trkpt>
      <trkpt lat="44.45024" lon="1.13654">
        <ele>229.170944</ele>
        <time>2019-08-17T14:42:03Z</time>
      </trkpt>
      <trkpt lat="44.4502" lon="1.13654">
        <ele>229.335403</ele>
        <time>2019-08-17T14:42:04Z</time>
      </trkpt>
      <trkpt lat="44.45016" lon="1.13655">
        <ele>229.499817</ele>
        <time>2019-08-17T14:42:05Z</time>
      </trkpt>
      <trkpt lat="44.45011" lon="1.13655">
        <ele>229.66362</ele>
        <time>2019-08-17T14:42:06Z</time>
      </trkpt>
      <trkpt lat="44.45007" lon="1.13653">
        <ele>229.828415</ele>
        <time>2019-08-17T14:42:07Z</time>
      </trkpt>
      <trkpt lat="44.45002" lon="1.13652">
        <ele>229.992798</ele>
        <time>2019-08-17T14:42:08Z</time>
      </trkpt>
      <trkpt lat="44.44998" lon="1.1365">
        <ele>230.155807</ele>
        <time>2019-08-17T14:42:09Z</time>
      </trkpt>
      <trkpt lat="44.44993" lon="1.13648">
        <ele>230.318405</ele>
        <time>2019-08-17T14:42:10Z</time>
      </trkpt>
      <trkpt lat="44.44989" lon="1.13646">
        <ele>230.482376</ele>
        <time>2019-08-17T14:42:11Z</time>
      </trkpt>
      <trkpt lat="44.44984" lon="1.13644">
        <ele>230.648026</ele>
        <time>2019-08-17T14:42:12Z</time>
      </trkpt>
      <trkpt lat="44.44979" lon="1.13642">
        <ele>230.816696</ele>
        <time>2019-08-17T14:42:13Z</time>
      </trkpt>
      <trkpt lat="44.44974" lon="1.1364">
        <ele>230.991501</ele>
        <time>2019-08-17T14:42:14Z</time>
      </trkpt>
      <trkpt lat="44.44969" lon="1.13638">
        <ele>231.174194</ele>
        <time>2019-08-17T14:42:15Z</time>
      </trkpt>
      <trkpt lat="44.44964" lon="1.13635">
        <ele>231.367371</ele>
        <time>2019-08-17T14:42:16Z</time>
      </trkpt>
      <trkpt lat="44.44959" lon="1.13633">
        <ele>231.570801</ele>
        <time>2019-08-17T14:42:17Z</time>
      </trkpt>
      <trkpt lat="44.44953" lon="1.13631">
        <ele>231.774368</ele>
        <time>2019-08-17T14:42:18Z</time>
      </trkpt>
      <trkpt lat="44.44948" lon="1.13629">
        <ele>231.981018</ele>
        <time>2019-08-17T14:42:19Z</time>
      </trkpt>
      <trkpt lat="44.44943" lon="1.13627">
        <ele>232.189926</ele>
        <time>2019-08-17T14:42:20Z</time>
      </trkpt>
      <trkpt lat="44.44937" lon="1.13624">
        <ele>232.403793</ele>
        <time>2019-08-17T14:42:21Z</time>
      </trkpt>
      <trkpt lat="44.44931" lon="1.13621">
        <ele>232.619949</ele>
        <time>2019-08-17T14:42:22Z</time>
      </trkpt>
      <trkpt lat="44.44926" lon="1.13619">
        <ele>232.840103</ele>
        <time>2019-08-17T14:42:23Z</time>
      </trkpt>
      <trkpt lat="44.4492" lon="1.13616">
        <ele>233.073669</ele>
        <time>2019-08-17T14:42:24Z</time>
      </trkpt>
      <trkpt lat="44.44914" lon="1.13613">
        <ele>233.320145</ele>
        <time>2019-08-17T14:42:25Z</time>
      </trkpt>
      <trkpt lat="44.44909" lon="1.13609">
        <ele>233.561142</ele>
        <time>2019-08-17T14:42:26Z</time>
      </trkpt>
      <trkpt lat="44.44903" lon="1.13606">
        <ele>233.790176</ele>
        <time>2019-08-17T14:42:27Z</time>
      </trkpt>
      <trkpt lat="44.44897" lon="1.13603">
        <ele>233.790176</ele>
        <time>2019-08-17T14:42:28Z</time>
      </trkpt>
      <trkpt lat="44.44891" lon="1.136">
        <ele>234.008286</ele>
        <time>2019-08-17T14:42:29Z</time>
      </trkpt>
      <trkpt lat="44.44886" lon="1.13597">
        <ele>234.211426</ele>
        <time>2019-08-17T14:42:30Z</time>
      </trkpt>
      <trkpt lat="44.4488" lon="1.13594">
        <ele>234.428299</ele>
        <time>2019-08-17T14:42:31Z</time>
      </trkpt>
      <trkpt lat="44.44874" lon="1.1359">
        <ele>234.625977</ele>
        <time>2019-08-17T14:42:32Z</time>
      </trkpt>
      <trkpt lat="44.44869" lon="1.13586">
        <ele>234.821609</ele>
        <time>2019-08-17T14:42:33Z</time>
      </trkpt>
      <trkpt lat="44.44864" lon="1.13581">
        <ele>235.01741</ele>
        <time>2019-08-17T14:42:34Z</time>
      </trkpt>
      <trkpt lat="44.4486" lon="1.13576">
        <ele>235.211594</ele>
        <time>2019-08-17T14:42:35Z</time>
      </trkpt>
      <trkpt lat="44.44856" lon="1.1357">
        <ele>235.40332</ele>
        <time>2019-08-17T14:42:36Z</time>
      </trkpt>
      <trkpt lat="44.44851" lon="1.13564">
        <ele>235.552124</ele>
        <time>2019-08-17T14:42:37Z</time>
      </trkpt>
      <trkpt lat="44.44848" lon="1.13558">
        <ele>235.650345</ele>
        <time>2019-08-17T14:42:38Z</time>
      </trkpt>
      <trkpt lat="44.44844" lon="1.13551">
        <ele>235.701065</ele>
        <time>2019-08-17T14:42:39Z</time>
      </trkpt>
      <trkpt lat="44.4484" lon="1.13544">
        <ele>235.705444</ele>
        <time>2019-08-17T14:42:40Z</time>
      </trkpt>
      <trkpt lat="44.44837" lon="1.13538">
        <ele>235.705444</ele>
        <time>2019-08-17T14:42:41Z</time>
      </trkpt>
      <trkpt lat="44.44834" lon="1.13531">
        <ele>235.705444</ele>
        <time>2019-08-17T14:42:42Z</time>
      </trkpt>
      <trkpt lat="44.44831" lon="1.13525">
        <ele>235.665817</ele>
        <time>2019-08-17T14:42:43Z</time>
      </trkpt>
      <trkpt lat="44.44827" lon="1.13518">
        <ele>235.585983</ele>
        <time>2019-08-17T14:42:44Z</time>
      </trkpt>
      <trkpt lat="44.44824" lon="1.13512">
        <ele>235.47905</ele>
        <time>2019-08-17T14:42:45Z</time>
      </trkpt>
      <trkpt lat="44.44821" lon="1.13505">
        <ele>235.382706</ele>
        <time>2019-08-17T14:42:46Z</time>
      </trkpt>
      <trkpt lat="44.44818" lon="1.13499">
        <ele>235.296219</ele>
        <time>2019-08-17T14:42:47Z</time>
      </trkpt>
      <trkpt lat="44.44815" lon="1.13492">
        <ele>235.296219</ele>
        <time>2019-08-17T14:42:48Z</time>
      </trkpt>
      <trkpt lat="44.44812" lon="1.13485">
        <ele>235.219788</ele>
        <time>2019-08-17T14:42:49Z</time>
      </trkpt>
      <trkpt lat="44.4481" lon="1.13478">
        <ele>235.153397</ele>
        <time>2019-08-17T14:42:50Z</time>
      </trkpt>
      <trkpt lat="44.44808" lon="1.13471">
        <ele>235.081772</ele>
        <time>2019-08-17T14:42:51Z</time>
      </trkpt>
      <trkpt lat="44.44806" lon="1.13464">
        <ele>235.010666</ele>
        <time>2019-08-17T14:42:52Z</time>
      </trkpt>
      <trkpt lat="44.44804" lon="1.13457">
        <ele>234.937012</ele>
        <time>2019-08-17T14:42:53Z</time>
      </trkpt>
      <trkpt lat="44.44803" lon="1.1345">
        <ele>234.858322</ele>
        <time>2019-08-17T14:42:54Z</time>
      </trkpt>
      <trkpt lat="44.44803" lon="1.13443">
        <ele>234.772202</ele>
        <time>2019-08-17T14:42:55Z</time>
      </trkpt>
      <trkpt lat="44.44802" lon="1.13436">
        <ele>234.676636</ele>
        <time>2019-08-17T14:42:56Z</time>
      </trkpt>
      <trkpt lat="44.44802" lon="1.13429">
        <ele>234.584976</ele>
        <time>2019-08-17T14:42:57Z</time>
      </trkpt>
      <trkpt lat="44.44802" lon="1.13422">
        <ele>234.489273</ele>
        <time>2019-08-17T14:42:58Z</time>
      </trkpt>
      <trkpt lat="44.44802" lon="1.13415">
        <ele>234.391251</ele>
        <time>2019-08-17T14:42:59Z</time>
      </trkpt>
      <trkpt lat="44.44802" lon="1.13408">
        <ele>234.309692</ele>
        <time>2019-08-17T14:43:00Z</time>
      </trkpt>
      <trkpt lat="44.44803" lon="1.13401">
        <ele>234.246704</ele>
        <time>2019-08-17T14:43:01Z</time>
      </trkpt>
      <trkpt lat="44.44803" lon="1.13394">
        <ele>234.204239</ele>
        <time>2019-08-17T14:43:02Z</time>
      </trkpt>
      <trkpt lat="44.44803" lon="1.13387">
        <ele>234.18158</ele>
        <time>2019-08-17T14:43:03Z</time>
      </trkpt>
      <trkpt lat="44.44803" lon="1.13381">
        <ele>234.179489</ele>
        <time>2019-08-17T14:43:04Z</time>
      </trkpt>
      <trkpt lat="44.44804" lon="1.13375">
        <ele>234.179489</ele>
        <time>2019-08-17T14:43:05Z</time>
      </trkpt>
      <trkpt lat="44.44804" lon="1.13368">
        <ele>234.179489</ele>
        <time>2019-08-17T14:43:06Z</time>
      </trkpt>
      <trkpt lat="44.44804" lon="1.13362">
        <ele>234.179489</ele>
        <time>2019-08-17T14:43:07Z</time>
      </trkpt>
      <trkpt lat="44.44804" lon="1.13356">
        <ele>234.197342</ele>
        <time>2019-08-17T14:43:08Z</time>
      </trkpt>
      <trkpt lat="44.44804" lon="1.13349">
        <ele>234.208984</ele>
        <time>2019-08-17T14:43:09Z</time>
      </trkpt>
      <trkpt lat="44.44805" lon="1.13343">
        <ele>234.208984</ele>
        <time>2019-08-17T14:43:10Z</time>
      </trkpt>
      <trkpt lat="44.44805" lon="1.13337">
        <ele>234.208984</ele>
        <time>2019-08-17T14:43:11Z</time>
      </trkpt>
      <trkpt lat="44.44805" lon="1.13331">
        <ele>234.207565</ele>
        <time>2019-08-17T14:43:12Z</time>
      </trkpt>
      <trkpt lat="44.44804" lon="1.13325">
        <ele>234.193161</ele>
        <time>2019-08-17T14:43:13Z</time>
      </trkpt>
      <trkpt lat="44.44804" lon="1.13318">
        <ele>234.193161</ele>
        <time>2019-08-17T14:43:14Z</time>
      </trkpt>
      <trkpt lat="44.44803" lon="1.13313">
        <ele>234.167526</ele>
        <time>2019-08-17T14:43:15Z</time>
      </trkpt>
      <trkpt lat="44.44801" lon="1.13307">
        <ele>234.127197</ele>
        <time>2019-08-17T14:43:16Z</time>
      </trkpt>
      <trkpt lat="44.44798" lon="1.13302">
        <ele>234.053543</ele>
        <time>2019-08-17T14:43:17Z</time>
      </trkpt>
      <trkpt lat="44.44795" lon="1.13297">
        <ele>233.964798</ele>
        <time>2019-08-17T14:43:18Z</time>
      </trkpt>
      <trkpt lat="44.44791" lon="1.13292">
        <ele>233.964798</ele>
        <time>2019-08-17T14:43:19Z</time>
      </trkpt>
      <trkpt lat="44.44788" lon="1.13287">
        <ele>233.858643</ele>
        <time>2019-08-17T14:43:20Z</time>
      </trkpt>
      <trkpt lat="44.44783" lon="1.13281">
        <ele>233.728806</ele>
        <time>2019-08-17T14:43:21Z</time>
      </trkpt>
      <trkpt lat="44.44779" lon="1.13275">
        <ele>233.486038</ele>
        <time>2019-08-17T14:43:22Z</time>
      </trkpt>
      <trkpt lat="44.44774" lon="1.13268">
        <ele>233.157837</ele>
        <time>2019-08-17T14:43:23Z</time>
      </trkpt>
      <trkpt lat="44.44768" lon="1.13262">
        <ele>232.757141</ele>
        <time>2019-08-17T14:43:24Z</time>
      </trkpt>
      <trkpt lat="44.44762" lon="1.13254">
        <ele>232.261154</ele>
        <time>2019-08-17T14:43:25Z</time>
      </trkpt>
      <trkpt lat="44.44756" lon="1.13247">
        <ele>231.666016</ele>
        <time>2019-08-17T14:43:26Z</time>
      </trkpt>
      <trkpt lat="44.4475" lon="1.13239">
        <ele>230.975464</ele>
        <time>2019-08-17T14:43:27Z</time>
      </trkpt>
      <trkpt lat="44.44744" lon="1.1323">
        <ele>230.975464</ele>
        <time>2019-08-17T14:43:28Z</time>
      </trkpt>
      <trkpt lat="44.44737" lon="1.13222">
        <ele>230.275223</ele>
        <time>2019-08-17T14:43:29Z</time>
      </trkpt>
      <trkpt lat="44.44729" lon="1.13213">
        <ele>229.537125</ele>
        <time>2019-08-17T14:43:30Z</time>
      </trkpt>
      <trkpt lat="44.44722" lon="1.13203">
        <ele>228.626663</ele>
        <time>2019-08-17T14:43:31Z</time>
      </trkpt>
      <trkpt lat="44.44714" lon="1.13192">
        <ele>227.700684</ele>
        <time>2019-08-17T14:43:32Z</time>
      </trkpt>
      <trkpt lat="44.44708" lon="1.13181">
        <ele>226.775513</ele>
        <time>2019-08-17T14:43:33Z</time>
      </trkpt>
      <trkpt lat="44.44701" lon="1.13169">
        <ele>225.848587</ele>
        <time>2019-08-17T14:43:34Z</time>
      </trkpt>
      <trkpt lat="44.44695" lon="1.13156">
        <ele>225.848587</ele>
        <time>2019-08-17T14:43:35Z</time>
      </trkpt>
      <trkpt lat="44.44688" lon="1.13144">
        <ele>224.90947</ele>
        <time>2019-08-17T14:43:36Z</time>
      </trkpt>
      <trkpt lat="44.44683" lon="1.13132">
        <ele>223.983887</ele>
        <time>2019-08-17T14:43:37Z</time>
      </trkpt>
      <trkpt lat="44.44677" lon="1.1312">
        <ele>223.983887</ele>
        <time>2019-08-17T14:43:38Z</time>
      </trkpt>
      <trkpt lat="44.44672" lon="1.13108">
        <ele>223.149094</ele>
        <time>2019-08-17T14:43:39Z</time>
      </trkpt>
      <trkpt lat="44.44666" lon="1.13097">
        <ele>222.393188</ele>
        <time>2019-08-17T14:43:40Z</time>
      </trkpt>
      <trkpt lat="44.44661" lon="1.13086">
        <ele>222.393188</ele>
        <time>2019-08-17T14:43:41Z</time>
      </trkpt>
      <trkpt lat="44.44657" lon="1.13076">
        <ele>221.748123</ele>
        <time>2019-08-17T14:43:42Z</time>
      </trkpt>
      <trkpt lat="44.44653" lon="1.13066">
        <ele>221.291855</ele>
        <time>2019-08-17T14:43:43Z</time>
      </trkpt>
      <trkpt lat="44.44648" lon="1.13056">
        <ele>221.040283</ele>
        <time>2019-08-17T14:43:44Z</time>
      </trkpt>
      <trkpt lat="44.44644" lon="1.13047">
        <ele>221.040283</ele>
        <time>2019-08-17T14:43:45Z</time>
      </trkpt>
      <trkpt lat="44.44641" lon="1.13039">
        <ele>221.040283</ele>
        <time>2019-08-17T14:43:46Z</time>
      </trkpt>
      <trkpt lat="44.44637" lon="1.13031">
        <ele>221.040283</ele>
        <time>2019-08-17T14:43:47Z</time>
      </trkpt>
      <trkpt lat="44.44635" lon="1.13024">
        <ele>221.049866</ele>
        <time>2019-08-17T14:43:48Z</time>
      </trkpt>
      <trkpt lat="44.44632" lon="1.13017">
        <ele>221.320847</ele>
        <time>2019-08-17T14:43:49Z</time>
      </trkpt>
      <trkpt lat="44.4463" lon="1.13011">
        <ele>221.723679</ele>
        <time>2019-08-17T14:43:50Z</time>
      </trkpt>
      <trkpt lat="44.44627" lon="1.13005">
        <ele>222.222092</ele>
        <time>2019-08-17T14:43:51Z</time>
      </trkpt>
      <trkpt lat="44.44625" lon="1.12998">
        <ele>222.749771</ele>
        <time>2019-08-17T14:43:52Z</time>
      </trkpt>
      <trkpt lat="44.44623" lon="1.12991">
        <ele>223.305664</ele>
        <time>2019-08-17T14:43:53Z</time>
      </trkpt>
      <trkpt lat="44.44621" lon="1.12984">
        <ele>223.817505</ele>
        <time>2019-08-17T14:43:54Z</time>
      </trkpt>
      <trkpt lat="44.44619" lon="1.12977">
        <ele>224.350906</ele>
        <time>2019-08-17T14:43:55Z</time>
      </trkpt>
      <trkpt lat="44.44617" lon="1.12971">
        <ele>224.914597</ele>
        <time>2019-08-17T14:43:56Z</time>
      </trkpt>
      <trkpt lat="44.44616" lon="1.12964">
        <ele>225.510376</ele>
        <time>2019-08-17T14:43:57Z</time>
      </trkpt>
      <trkpt lat="44.44613" lon="1.12957">
        <ele>226.13118</ele>
        <time>2019-08-17T14:43:58Z</time>
      </trkpt>
      <trkpt lat="44.44611" lon="1.12951">
        <ele>226.772415</ele>
        <time>2019-08-17T14:43:59Z</time>
      </trkpt>
      <trkpt lat="44.4461" lon="1.12944">
        <ele>227.433182</ele>
        <time>2019-08-17T14:44:00Z</time>
      </trkpt>
      <trkpt lat="44.44608" lon="1.12937">
        <ele>228.115555</ele>
        <time>2019-08-17T14:44:01Z</time>
      </trkpt>
      <trkpt lat="44.44606" lon="1.1293">
        <ele>228.809509</ele>
        <time>2019-08-17T14:44:02Z</time>
      </trkpt>
      <trkpt lat="44.44604" lon="1.12923">
        <ele>229.514175</ele>
        <time>2019-08-17T14:44:03Z</time>
      </trkpt>
      <trkpt lat="44.44602" lon="1.12917">
        <ele>230.23851</ele>
        <time>2019-08-17T14:44:04Z</time>
      </trkpt>
      <trkpt lat="44.446" lon="1.12911">
        <ele>230.988159</ele>
        <time>2019-08-17T14:44:05Z</time>
      </trkpt>
      <trkpt lat="44.44598" lon="1.12904">
        <ele>231.753967</ele>
        <time>2019-08-17T14:44:06Z</time>
      </trkpt>
      <trkpt lat="44.44596" lon="1.12898">
        <ele>232.526932</ele>
        <time>2019-08-17T14:44:07Z</time>
      </trkpt>
      <trkpt lat="44.44594" lon="1.12892">
        <ele>233.309006</ele>
        <time>2019-08-17T14:44:08Z</time>
      </trkpt>
      <trkpt lat="44.44592" lon="1.12886">
        <ele>234.101639</ele>
        <time>2019-08-17T14:44:09Z</time>
      </trkpt>
      <trkpt lat="44.4459" lon="1.12879">
        <ele>234.895706</ele>
        <time>2019-08-17T14:44:10Z</time>
      </trkpt>
      <trkpt lat="44.44588" lon="1.12873">
        <ele>235.690369</ele>
        <time>2019-08-17T14:44:11Z</time>
      </trkpt>
      <trkpt lat="44.44585" lon="1.12867">
        <ele>236.49794</ele>
        <time>2019-08-17T14:44:12Z</time>
      </trkpt>
      <trkpt lat="44.44584" lon="1.12861">
        <ele>236.49794</ele>
        <time>2019-08-17T14:44:13Z</time>
      </trkpt>
      <trkpt lat="44.44581" lon="1.12854">
        <ele>237.251541</ele>
        <time>2019-08-17T14:44:14Z</time>
      </trkpt>
      <trkpt lat="44.4458" lon="1.12848">
        <ele>237.928574</ele>
        <time>2019-08-17T14:44:15Z</time>
      </trkpt>
      <trkpt lat="44.44577" lon="1.12842">
        <ele>238.539307</ele>
        <time>2019-08-17T14:44:16Z</time>
      </trkpt>
      <trkpt lat="44.44576" lon="1.12836">
        <ele>239.048401</ele>
        <time>2019-08-17T14:44:17Z</time>
      </trkpt>
      <trkpt lat="44.44574" lon="1.1283">
        <ele>239.451035</ele>
        <time>2019-08-17T14:44:18Z</time>
      </trkpt>
      <trkpt lat="44.44571" lon="1.12824">
        <ele>239.739807</ele>
        <time>2019-08-17T14:44:19Z</time>
      </trkpt>
      <trkpt lat="44.44569" lon="1.12817">
        <ele>239.739807</ele>
        <time>2019-08-17T14:44:20Z</time>
      </trkpt>
      <trkpt lat="44.44568" lon="1.12811">
        <ele>239.983704</ele>
        <time>2019-08-17T14:44:21Z</time>
      </trkpt>
      <trkpt lat="44.44566" lon="1.12804">
        <ele>240.201721</ele>
        <time>2019-08-17T14:44:22Z</time>
      </trkpt>
      <trkpt lat="44.44564" lon="1.12797">
        <ele>240.405533</ele>
        <time>2019-08-17T14:44:23Z</time>
      </trkpt>
      <trkpt lat="44.44561" lon="1.12791">
        <ele>240.580399</ele>
        <time>2019-08-17T14:44:24Z</time>
      </trkpt>
      <trkpt lat="44.4456" lon="1.12784">
        <ele>240.719528</ele>
        <time>2019-08-17T14:44:25Z</time>
      </trkpt>
      <trkpt lat="44.44558" lon="1.12778">
        <ele>240.819412</ele>
        <time>2019-08-17T14:44:26Z</time>
      </trkpt>
      <trkpt lat="44.44556" lon="1.12771">
        <ele>240.87915</ele>
        <time>2019-08-17T14:44:27Z</time>
      </trkpt>
      <trkpt lat="44.44555" lon="1.12765">
        <ele>240.89801</ele>
        <time>2019-08-17T14:44:28Z</time>
      </trkpt>
      <trkpt lat="44.44553" lon="1.12758">
        <ele>240.89801</ele>
        <time>2019-08-17T14:44:29Z</time>
      </trkpt>
      <trkpt lat="44.44551" lon="1.12752">
        <ele>240.89801</ele>
        <time>2019-08-17T14:44:30Z</time>
      </trkpt>
      <trkpt lat="44.44548" lon="1.12745">
        <ele>240.89801</ele>
        <time>2019-08-17T14:44:31Z</time>
      </trkpt>
      <trkpt lat="44.44547" lon="1.12739">
        <ele>240.82988</ele>
        <time>2019-08-17T14:44:32Z</time>
      </trkpt>
      <trkpt lat="44.44545" lon="1.12733">
        <ele>240.736526</ele>
        <time>2019-08-17T14:44:33Z</time>
      </trkpt>
      <trkpt lat="44.44542" lon="1.12727">
        <ele>240.619614</ele>
        <time>2019-08-17T14:44:34Z</time>
      </trkpt>
      <trkpt lat="44.4454" lon="1.1272">
        <ele>240.475601</ele>
        <time>2019-08-17T14:44:35Z</time>
      </trkpt>
      <trkpt lat="44.44538" lon="1.12714">
        <ele>240.307129</ele>
        <time>2019-08-17T14:44:36Z</time>
      </trkpt>
      <trkpt lat="44.44536" lon="1.12707">
        <ele>240.115417</ele>
        <time>2019-08-17T14:44:37Z</time>
      </trkpt>
      <trkpt lat="44.44534" lon="1.127">
        <ele>239.922958</ele>
        <time>2019-08-17T14:44:38Z</time>
      </trkpt>
      <trkpt lat="44.44532" lon="1.12693">
        <ele>239.71936</ele>
        <time>2019-08-17T14:44:39Z</time>
      </trkpt>
      <trkpt lat="44.44529" lon="1.12685">
        <ele>239.511124</ele>
        <time>2019-08-17T14:44:40Z</time>
      </trkpt>
      <trkpt lat="44.44527" lon="1.12678">
        <ele>239.305191</ele>
        <time>2019-08-17T14:44:41Z</time>
      </trkpt>
      <trkpt lat="44.44524" lon="1.1267">
        <ele>239.305191</ele>
        <time>2019-08-17T14:44:42Z</time>
      </trkpt>
      <trkpt lat="44.44522" lon="1.12663">
        <ele>239.101974</ele>
        <time>2019-08-17T14:44:43Z</time>
      </trkpt>
      <trkpt lat="44.44519" lon="1.12655">
        <ele>238.901733</ele>
        <time>2019-08-17T14:44:44Z</time>
      </trkpt>
      <trkpt lat="44.44516" lon="1.12647">
        <ele>238.690445</ele>
        <time>2019-08-17T14:44:45Z</time>
      </trkpt>
      <trkpt lat="44.44514" lon="1.12639">
        <ele>238.499832</ele>
        <time>2019-08-17T14:44:46Z</time>
      </trkpt>
      <trkpt lat="44.44511" lon="1.12631">
        <ele>238.33374</ele>
        <time>2019-08-17T14:44:47Z</time>
      </trkpt>
      <trkpt lat="44.44509" lon="1.12623">
        <ele>238.139359</ele>
        <time>2019-08-17T14:44:48Z</time>
      </trkpt>
      <trkpt lat="44.44506" lon="1.12615">
        <ele>237.912674</ele>
        <time>2019-08-17T14:44:49Z</time>
      </trkpt>
      <trkpt lat="44.44503" lon="1.12607">
        <ele>237.654602</ele>
        <time>2019-08-17T14:44:50Z</time>
      </trkpt>
      <trkpt lat="44.44501" lon="1.12599">
        <ele>237.377136</ele>
        <time>2019-08-17T14:44:51Z</time>
      </trkpt>
      <trkpt lat="44.44499" lon="1.12591">
        <ele>237.05072</ele>
        <time>2019-08-17T14:44:52Z</time>
      </trkpt>
      <trkpt lat="44.44497" lon="1.12583">
        <ele>236.689987</ele>
        <time>2019-08-17T14:44:53Z</time>
      </trkpt>
      <trkpt lat="44.44496" lon="1.12575">
        <ele>236.377762</ele>
        <time>2019-08-17T14:44:54Z</time>
      </trkpt>
      <trkpt lat="44.44494" lon="1.12567">
        <ele>236.131851</ele>
        <time>2019-08-17T14:44:55Z</time>
      </trkpt>
      <trkpt lat="44.44493" lon="1.12559">
        <ele>235.964127</ele>
        <time>2019-08-17T14:44:56Z</time>
      </trkpt>
      <trkpt lat="44.44492" lon="1.12551">
        <ele>235.881088</ele>
        <time>2019-08-17T14:44:57Z</time>
      </trkpt>
      <trkpt lat="44.44491" lon="1.12543">
        <ele>235.881088</ele>
        <time>2019-08-17T14:44:58Z</time>
      </trkpt>
      <trkpt lat="44.4449" lon="1.12535">
        <ele>235.881088</ele>
        <time>2019-08-17T14:44:59Z</time>
      </trkpt>
      <trkpt lat="44.44489" lon="1.12527">
        <ele>235.881088</ele>
        <time>2019-08-17T14:45:00Z</time>
      </trkpt>
      <trkpt lat="44.44489" lon="1.12519">
        <ele>235.881821</ele>
        <time>2019-08-17T14:45:01Z</time>
      </trkpt>
      <trkpt lat="44.44489" lon="1.12512">
        <ele>235.951782</ele>
        <time>2019-08-17T14:45:02Z</time>
      </trkpt>
      <trkpt lat="44.44488" lon="1.12504">
        <ele>236.109482</ele>
        <time>2019-08-17T14:45:03Z</time>
      </trkpt>
      <trkpt lat="44.44488" lon="1.12496">
        <ele>236.314804</ele>
        <time>2019-08-17T14:45:04Z</time>
      </trkpt>
      <trkpt lat="44.44487" lon="1.12488">
        <ele>236.55072</ele>
        <time>2019-08-17T14:45:05Z</time>
      </trkpt>
      <trkpt lat="44.44487" lon="1.1248">
        <ele>236.814194</ele>
        <time>2019-08-17T14:45:06Z</time>
      </trkpt>
      <trkpt lat="44.44487" lon="1.12472">
        <ele>237.101883</ele>
        <time>2019-08-17T14:45:07Z</time>
      </trkpt>
      <trkpt lat="44.44487" lon="1.12465">
        <ele>237.414474</ele>
        <time>2019-08-17T14:45:08Z</time>
      </trkpt>
      <trkpt lat="44.44487" lon="1.12457">
        <ele>237.703812</ele>
        <time>2019-08-17T14:45:09Z</time>
      </trkpt>
      <trkpt lat="44.44487" lon="1.12449">
        <ele>237.99736</ele>
        <time>2019-08-17T14:45:10Z</time>
      </trkpt>
      <trkpt lat="44.44487" lon="1.12441">
        <ele>238.273666</ele>
        <time>2019-08-17T14:45:11Z</time>
      </trkpt>
      <trkpt lat="44.44488" lon="1.12434">
        <ele>238.529556</ele>
        <time>2019-08-17T14:45:12Z</time>
      </trkpt>
      <trkpt lat="44.44488" lon="1.12426">
        <ele>238.766174</ele>
        <time>2019-08-17T14:45:13Z</time>
      </trkpt>
      <trkpt lat="44.44489" lon="1.12419">
        <ele>238.766174</ele>
        <time>2019-08-17T14:45:14Z</time>
      </trkpt>
      <trkpt lat="44.4449" lon="1.12411">
        <ele>238.983017</ele>
        <time>2019-08-17T14:45:15Z</time>
      </trkpt>
      <trkpt lat="44.44491" lon="1.12404">
        <ele>239.181335</ele>
        <time>2019-08-17T14:45:16Z</time>
      </trkpt>
      <trkpt lat="44.44493" lon="1.12397">
        <ele>239.396835</ele>
        <time>2019-08-17T14:45:17Z</time>
      </trkpt>
      <trkpt lat="44.44494" lon="1.12389">
        <ele>239.628113</ele>
        <time>2019-08-17T14:45:18Z</time>
      </trkpt>
      <trkpt lat="44.44495" lon="1.12382">
        <ele>239.877029</ele>
        <time>2019-08-17T14:45:19Z</time>
      </trkpt>
      <trkpt lat="44.44496" lon="1.12374">
        <ele>239.877029</ele>
        <time>2019-08-17T14:45:20Z</time>
      </trkpt>
      <trkpt lat="44.44497" lon="1.12367">
        <ele>240.160751</ele>
        <time>2019-08-17T14:45:21Z</time>
      </trkpt>
      <trkpt lat="44.44498" lon="1.1236">
        <ele>240.47522</ele>
        <time>2019-08-17T14:45:22Z</time>
      </trkpt>
      <trkpt lat="44.44498" lon="1.12353">
        <ele>240.47522</ele>
        <time>2019-08-17T14:45:23Z</time>
      </trkpt>
      <trkpt lat="44.44498" lon="1.12346">
        <ele>240.872971</ele>
        <time>2019-08-17T14:45:24Z</time>
      </trkpt>
      <trkpt lat="44.44498" lon="1.1234">
        <ele>241.254456</ele>
        <time>2019-08-17T14:45:25Z</time>
      </trkpt>
      <trkpt lat="44.44496" lon="1.12333">
        <ele>241.688522</ele>
        <time>2019-08-17T14:45:26Z</time>
      </trkpt>
      <trkpt lat="44.44494" lon="1.12327">
        <ele>242.114334</ele>
        <time>2019-08-17T14:45:27Z</time>
      </trkpt>
      <trkpt lat="44.44492" lon="1.12322">
        <ele>242.503464</ele>
        <time>2019-08-17T14:45:28Z</time>
      </trkpt>
      <trkpt lat="44.44489" lon="1.12316">
        <ele>242.855774</ele>
        <time>2019-08-17T14:45:29Z</time>
      </trkpt>
      <trkpt lat="44.44486" lon="1.12312">
        <ele>243.125732</ele>
        <time>2019-08-17T14:45:30Z</time>
      </trkpt>
      <trkpt lat="44.44483" lon="1.12307">
        <ele>243.125732</ele>
        <time>2019-08-17T14:45:31Z</time>
      </trkpt>
      <trkpt lat="44.4448" lon="1.12303">
        <ele>243.364822</ele>
        <time>2019-08-17T14:45:32Z</time>
      </trkpt>
      <trkpt lat="44.44476" lon="1.12299">
        <ele>243.528427</ele>
        <time>2019-08-17T14:45:33Z</time>
      </trkpt>
      <trkpt lat="44.44473" lon="1.12294">
        <ele>243.528427</ele>
        <time>2019-08-17T14:45:34Z</time>
      </trkpt>
      <trkpt lat="44.4447" lon="1.1229">
        <ele>243.678329</ele>
        <time>2019-08-17T14:45:35Z</time>
      </trkpt>
      <trkpt lat="44.44468" lon="1.12285">
        <ele>243.811905</ele>
        <time>2019-08-17T14:45:36Z</time>
      </trkpt>
      <trkpt lat="44.44466" lon="1.12279">
        <ele>243.949875</ele>
        <time>2019-08-17T14:45:37Z</time>
      </trkpt>
      <trkpt lat="44.44464" lon="1.12274">
        <ele>244.077805</ele>
        <time>2019-08-17T14:45:38Z</time>
      </trkpt>
      <trkpt lat="44.44462" lon="1.12268">
        <ele>244.211411</ele>
        <time>2019-08-17T14:45:39Z</time>
      </trkpt>
      <trkpt lat="44.4446" lon="1.12262">
        <ele>244.365158</ele>
        <time>2019-08-17T14:45:40Z</time>
      </trkpt>
      <trkpt lat="44.4446" lon="1.12256">
        <ele>244.543213</ele>
        <time>2019-08-17T14:45:41Z</time>
      </trkpt>
      <trkpt lat="44.44458" lon="1.12251">
        <ele>244.763351</ele>
        <time>2019-08-17T14:45:42Z</time>
      </trkpt>
      <trkpt lat="44.44457" lon="1.12245">
        <ele>245.002563</ele>
        <time>2019-08-17T14:45:43Z</time>
      </trkpt>
      <trkpt lat="44.44456" lon="1.12239">
        <ele>245.002563</ele>
        <time>2019-08-17T14:45:44Z</time>
      </trkpt>
      <trkpt lat="44.44454" lon="1.12233">
        <ele>245.262939</ele>
        <time>2019-08-17T14:45:45Z</time>
      </trkpt>
      <trkpt lat="44.44453" lon="1.12226">
        <ele>245.54039</ele>
        <time>2019-08-17T14:45:46Z</time>
      </trkpt>
      <trkpt lat="44.4445" lon="1.1222">
        <ele>245.54039</ele>
        <time>2019-08-17T14:45:47Z</time>
      </trkpt>
      <trkpt lat="44.44448" lon="1.12215">
        <ele>245.874451</ele>
        <time>2019-08-17T14:45:48Z</time>
      </trkpt>
      <trkpt lat="44.44445" lon="1.12209">
        <ele>246.211426</ele>
        <time>2019-08-17T14:45:49Z</time>
      </trkpt>
      <trkpt lat="44.44443" lon="1.12204">
        <ele>246.592667</ele>
        <time>2019-08-17T14:45:50Z</time>
      </trkpt>
      <trkpt lat="44.4444" lon="1.12199">
        <ele>246.592667</ele>
        <time>2019-08-17T14:45:51Z</time>
      </trkpt>
      <trkpt lat="44.44436" lon="1.12194">
        <ele>246.96199</ele>
        <time>2019-08-17T14:45:52Z</time>
      </trkpt>
      <trkpt lat="44.44433" lon="1.12189">
        <ele>247.320236</ele>
        <time>2019-08-17T14:45:53Z</time>
      </trkpt>
      <trkpt lat="44.4443" lon="1.12184">
        <ele>247.320236</ele>
        <time>2019-08-17T14:45:54Z</time>
      </trkpt>
      <trkpt lat="44.44427" lon="1.1218">
        <ele>247.694229</ele>
        <time>2019-08-17T14:45:55Z</time>
      </trkpt>
      <trkpt lat="44.44424" lon="1.12175">
        <ele>247.99437</ele>
        <time>2019-08-17T14:45:56Z</time>
      </trkpt>
      <trkpt lat="44.44421" lon="1.1217">
        <ele>248.300308</ele>
        <time>2019-08-17T14:45:57Z</time>
      </trkpt>
      <trkpt lat="44.44418" lon="1.12165">
        <ele>248.537094</ele>
        <time>2019-08-17T14:45:58Z</time>
      </trkpt>
      <trkpt lat="44.44415" lon="1.1216">
        <ele>248.764786</ele>
        <time>2019-08-17T14:45:59Z</time>
      </trkpt>
      <trkpt lat="44.44412" lon="1.12155">
        <ele>248.991653</ele>
        <time>2019-08-17T14:46:00Z</time>
      </trkpt>
      <trkpt lat="44.4441" lon="1.12149">
        <ele>249.197189</ele>
        <time>2019-08-17T14:46:01Z</time>
      </trkpt>
      <trkpt lat="44.44407" lon="1.12144">
        <ele>249.418884</ele>
        <time>2019-08-17T14:46:02Z</time>
      </trkpt>
      <trkpt lat="44.44405" lon="1.12139">
        <ele>249.418884</ele>
        <time>2019-08-17T14:46:03Z</time>
      </trkpt>
      <trkpt lat="44.44402" lon="1.12134">
        <ele>249.626572</ele>
        <time>2019-08-17T14:46:04Z</time>
      </trkpt>
      <trkpt lat="44.444" lon="1.12129">
        <ele>249.855362</ele>
        <time>2019-08-17T14:46:05Z</time>
      </trkpt>
      <trkpt lat="44.44398" lon="1.12124">
        <ele>250.14296</ele>
        <time>2019-08-17T14:46:06Z</time>
      </trkpt>
      <trkpt lat="44.44395" lon="1.1212">
        <ele>250.441528</ele>
        <time>2019-08-17T14:46:07Z</time>
      </trkpt>
      <trkpt lat="44.44393" lon="1.12116">
        <ele>250.744919</ele>
        <time>2019-08-17T14:46:08Z</time>
      </trkpt>
      <trkpt lat="44.44391" lon="1.12112">
        <ele>251.040405</ele>
        <time>2019-08-17T14:46:09Z</time>
      </trkpt>
      <trkpt lat="44.44389" lon="1.12109">
        <ele>251.324295</ele>
        <time>2019-08-17T14:46:10Z</time>
      </trkpt>
      <trkpt lat="44.44388" lon="1.12106">
        <ele>251.589493</ele>
        <time>2019-08-17T14:46:11Z</time>
      </trkpt>
      <trkpt lat="44.44387" lon="1.12104">
        <ele>251.795959</ele>
        <time>2019-08-17T14:46:12Z</time>
      </trkpt>
      <trkpt lat="44.44387" lon="1.12102">
        <ele>251.981949</ele>
        <time>2019-08-17T14:46:13Z</time>
      </trkpt>
      <trkpt lat="44.44386" lon="1.121">
        <ele>251.981949</ele>
        <time>2019-08-17T14:46:14Z</time>
      </trkpt>
      <trkpt lat="44.44384" lon="1.12099">
        <ele>252.142105</ele>
        <time>2019-08-17T14:46:15Z</time>
      </trkpt>
      <trkpt lat="44.44382" lon="1.12099">
        <ele>252.292542</ele>
        <time>2019-08-17T14:46:16Z</time>
      </trkpt>
      <trkpt lat="44.44379" lon="1.12098">
        <ele>252.437637</ele>
        <time>2019-08-17T14:46:17Z</time>
      </trkpt>
      <trkpt lat="44.44377" lon="1.12098">
        <ele>252.544144</ele>
        <time>2019-08-17T14:46:18Z</time>
      </trkpt>
      <trkpt lat="44.44374" lon="1.12097">
        <ele>252.609238</ele>
        <time>2019-08-17T14:46:19Z</time>
      </trkpt>
      <trkpt lat="44.44371" lon="1.12098">
        <ele>252.630325</ele>
        <time>2019-08-17T14:46:20Z</time>
      </trkpt>
      <trkpt lat="44.44368" lon="1.12099">
        <ele>252.630325</ele>
        <time>2019-08-17T14:46:21Z</time>
      </trkpt>
      <trkpt lat="44.44365" lon="1.121">
        <ele>252.630325</ele>
        <time>2019-08-17T14:46:22Z</time>
      </trkpt>
      <trkpt lat="44.44362" lon="1.121">
        <ele>252.603943</ele>
        <time>2019-08-17T14:46:23Z</time>
      </trkpt>
      <trkpt lat="44.44358" lon="1.12101">
        <ele>252.524597</ele>
        <time>2019-08-17T14:46:24Z</time>
      </trkpt>
      <trkpt lat="44.44354" lon="1.12101">
        <ele>252.393723</ele>
        <time>2019-08-17T14:46:25Z</time>
      </trkpt>
      <trkpt lat="44.4435" lon="1.12101">
        <ele>252.244461</ele>
        <time>2019-08-17T14:46:26Z</time>
      </trkpt>
      <trkpt lat="44.44345" lon="1.12102">
        <ele>252.077881</ele>
        <time>2019-08-17T14:46:27Z</time>
      </trkpt>
      <trkpt lat="44.4434" lon="1.12102">
        <ele>251.900955</ele>
        <time>2019-08-17T14:46:28Z</time>
      </trkpt>
      <trkpt lat="44.44335" lon="1.12102">
        <ele>251.716309</ele>
        <time>2019-08-17T14:46:29Z</time>
      </trkpt>
      <trkpt lat="44.44329" lon="1.12103">
        <ele>251.716309</ele>
        <time>2019-08-17T14:46:30Z</time>
      </trkpt>
      <trkpt lat="44.44323" lon="1.12104">
        <ele>251.526855</ele>
        <time>2019-08-17T14:46:31Z</time>
      </trkpt>
      <trkpt lat="44.44316" lon="1.12106">
        <ele>251.326416</ele>
        <time>2019-08-17T14:46:32Z</time>
      </trkpt>
      <trkpt lat="44.44309" lon="1.12108">
        <ele>251.060303</ele>
        <time>2019-08-17T14:46:33Z</time>
      </trkpt>
      <trkpt lat="44.44302" lon="1.1211">
        <ele>250.76799</ele>
        <time>2019-08-17T14:46:34Z</time>
      </trkpt>
      <trkpt lat="44.44294" lon="1.12113">
        <ele>250.443283</ele>
        <time>2019-08-17T14:46:35Z</time>
      </trkpt>
      <trkpt lat="44.44285" lon="1.12116">
        <ele>250.077286</ele>
        <time>2019-08-17T14:46:36Z</time>
      </trkpt>
      <trkpt lat="44.44277" lon="1.1212">
        <ele>249.655212</ele>
        <time>2019-08-17T14:46:37Z</time>
      </trkpt>
      <trkpt lat="44.44268" lon="1.12124">
        <ele>249.167358</ele>
        <time>2019-08-17T14:46:38Z</time>
      </trkpt>
      <trkpt lat="44.4426" lon="1.12128">
        <ele>248.663315</ele>
        <time>2019-08-17T14:46:39Z</time>
      </trkpt>
      <trkpt lat="44.44251" lon="1.12134">
        <ele>248.103104</ele>
        <time>2019-08-17T14:46:40Z</time>
      </trkpt>
      <trkpt lat="44.44243" lon="1.12139">
        <ele>247.481461</ele>
        <time>2019-08-17T14:46:41Z</time>
      </trkpt>
      <trkpt lat="44.44234" lon="1.12145">
        <ele>246.802048</ele>
        <time>2019-08-17T14:46:42Z</time>
      </trkpt>
      <trkpt lat="44.44225" lon="1.12151">
        <ele>246.802048</ele>
        <time>2019-08-17T14:46:43Z</time>
      </trkpt>
      <trkpt lat="44.44217" lon="1.12158">
        <ele>246.04808</ele>
        <time>2019-08-17T14:46:44Z</time>
      </trkpt>
      <trkpt lat="44.44209" lon="1.12166">
        <ele>245.232956</ele>
        <time>2019-08-17T14:46:45Z</time>
      </trkpt>
      <trkpt lat="44.44201" lon="1.12174">
        <ele>244.232925</ele>
        <time>2019-08-17T14:46:46Z</time>
      </trkpt>
      <trkpt lat="44.44193" lon="1.12182">
        <ele>243.185959</ele>
        <time>2019-08-17T14:46:47Z</time>
      </trkpt>
      <trkpt lat="44.44186" lon="1.12189">
        <ele>242.094162</ele>
        <time>2019-08-17T14:46:48Z</time>
      </trkpt>
      <trkpt lat="44.44178" lon="1.12195">
        <ele>240.965897</ele>
        <time>2019-08-17T14:46:49Z</time>
      </trkpt>
      <trkpt lat="44.44172" lon="1.12199">
        <ele>239.833908</ele>
        <time>2019-08-17T14:46:50Z</time>
      </trkpt>
      <trkpt lat="44.44165" lon="1.122">
        <ele>238.709305</ele>
        <time>2019-08-17T14:46:51Z</time>
      </trkpt>
      <trkpt lat="44.44159" lon="1.122">
        <ele>237.74617</ele>
        <time>2019-08-17T14:46:52Z</time>
      </trkpt>
      <trkpt lat="44.44152" lon="1.122">
        <ele>236.844803</ele>
        <time>2019-08-17T14:46:53Z</time>
      </trkpt>
      <trkpt lat="44.44144" lon="1.12201">
        <ele>236.059143</ele>
        <time>2019-08-17T14:46:54Z</time>
      </trkpt>
      <trkpt lat="44.44137" lon="1.12201">
        <ele>235.412338</ele>
        <time>2019-08-17T14:46:55Z</time>
      </trkpt>
      <trkpt lat="44.44128" lon="1.12201">
        <ele>234.903427</ele>
        <time>2019-08-17T14:46:56Z</time>
      </trkpt>
      <trkpt lat="44.4412" lon="1.12202">
        <ele>234.512512</ele>
        <time>2019-08-17T14:46:57Z</time>
      </trkpt>
      <trkpt lat="44.44111" lon="1.12202">
        <ele>234.213913</ele>
        <time>2019-08-17T14:46:58Z</time>
      </trkpt>
      <trkpt lat="44.44103" lon="1.12203">
        <ele>233.968445</ele>
        <time>2019-08-17T14:46:59Z</time>
      </trkpt>
      <trkpt lat="44.44095" lon="1.12205">
        <ele>233.735168</ele>
        <time>2019-08-17T14:47:00Z</time>
      </trkpt>
      <trkpt lat="44.44087" lon="1.12208">
        <ele>233.487305</ele>
        <time>2019-08-17T14:47:01Z</time>
      </trkpt>
      <trkpt lat="44.44079" lon="1.12213">
        <ele>233.212891</ele>
        <time>2019-08-17T14:47:02Z</time>
      </trkpt>
      <trkpt lat="44.44072" lon="1.12216">
        <ele>232.904114</ele>
        <time>2019-08-17T14:47:03Z</time>
      </trkpt>
      <trkpt lat="44.44064" lon="1.12218">
        <ele>232.553406</ele>
        <time>2019-08-17T14:47:04Z</time>
      </trkpt>
      <trkpt lat="44.44056" lon="1.1222">
        <ele>232.167435</ele>
        <time>2019-08-17T14:47:05Z</time>
      </trkpt>
      <trkpt lat="44.44051" lon="1.12219">
        <ele>231.75856</ele>
        <time>2019-08-17T14:47:06Z</time>
      </trkpt>
      <trkpt lat="44.44046" lon="1.12219">
        <ele>231.348221</ele>
        <time>2019-08-17T14:47:07Z</time>
      </trkpt>
      <trkpt lat="44.44041" lon="1.12218">
        <ele>230.960754</ele>
        <time>2019-08-17T14:47:08Z</time>
      </trkpt>
      <trkpt lat="44.44037" lon="1.12218">
        <ele>230.622543</ele>
        <time>2019-08-17T14:47:09Z</time>
      </trkpt>
      <trkpt lat="44.44033" lon="1.12218">
        <ele>230.622543</ele>
        <time>2019-08-17T14:47:10Z</time>
      </trkpt>
      <trkpt lat="44.44029" lon="1.12218">
        <ele>230.34935</ele>
        <time>2019-08-17T14:47:11Z</time>
      </trkpt>
      <trkpt lat="44.44024" lon="1.12219">
        <ele>230.139648</ele>
        <time>2019-08-17T14:47:12Z</time>
      </trkpt>
      <trkpt lat="44.4402" lon="1.12219">
        <ele>229.938965</ele>
        <time>2019-08-17T14:47:13Z</time>
      </trkpt>
      <trkpt lat="44.44016" lon="1.12219">
        <ele>229.755905</ele>
        <time>2019-08-17T14:47:14Z</time>
      </trkpt>
      <trkpt lat="44.44012" lon="1.12219">
        <ele>229.577133</ele>
        <time>2019-08-17T14:47:15Z</time>
      </trkpt>
      <trkpt lat="44.44007" lon="1.12219">
        <ele>229.390427</ele>
        <time>2019-08-17T14:47:16Z</time>
      </trkpt>
      <trkpt lat="44.44003" lon="1.1222">
        <ele>229.191528</ele>
        <time>2019-08-17T14:47:17Z</time>
      </trkpt>
      <trkpt lat="44.43998" lon="1.12221">
        <ele>228.977921</ele>
        <time>2019-08-17T14:47:18Z</time>
      </trkpt>
      <trkpt lat="44.43994" lon="1.12222">
        <ele>228.783936</ele>
        <time>2019-08-17T14:47:19Z</time>
      </trkpt>
      <trkpt lat="44.43989" lon="1.12223">
        <ele>228.587326</ele>
        <time>2019-08-17T14:47:20Z</time>
      </trkpt>
      <trkpt lat="44.43985" lon="1.12225">
        <ele>228.391129</ele>
        <time>2019-08-17T14:47:21Z</time>
      </trkpt>
      <trkpt lat="44.4398" lon="1.12226">
        <ele>228.198837</ele>
        <time>2019-08-17T14:47:22Z</time>
      </trkpt>
      <trkpt lat="44.43976" lon="1.12228">
        <ele>228.008606</ele>
        <time>2019-08-17T14:47:23Z</time>
      </trkpt>
      <trkpt lat="44.43971" lon="1.1223">
        <ele>227.823746</ele>
        <time>2019-08-17T14:47:24Z</time>
      </trkpt>
      <trkpt lat="44.43967" lon="1.12232">
        <ele>227.649246</ele>
        <time>2019-08-17T14:47:25Z</time>
      </trkpt>
      <trkpt lat="44.43964" lon="1.12234">
        <ele>227.486435</ele>
        <time>2019-08-17T14:47:26Z</time>
      </trkpt>
      <trkpt lat="44.4396" lon="1.12236">
        <ele>227.33519</ele>
        <time>2019-08-17T14:47:27Z</time>
      </trkpt>
      <trkpt lat="44.43957" lon="1.12237">
        <ele>227.171143</ele>
        <time>2019-08-17T14:47:28Z</time>
      </trkpt>
      <trkpt lat="44.43954" lon="1.12238">
        <ele>226.981308</ele>
        <time>2019-08-17T14:47:29Z</time>
      </trkpt>
      <trkpt lat="44.43951" lon="1.12238">
        <ele>226.76825</ele>
        <time>2019-08-17T14:47:30Z</time>
      </trkpt>
      <trkpt lat="44.43948" lon="1.12237">
        <ele>226.540665</ele>
        <time>2019-08-17T14:47:31Z</time>
      </trkpt>
      <trkpt lat="44.43946" lon="1.12235">
        <ele>226.293228</ele>
        <time>2019-08-17T14:47:32Z</time>
      </trkpt>
      <trkpt lat="44.43944" lon="1.12232">
        <ele>226.013626</ele>
        <time>2019-08-17T14:47:33Z</time>
      </trkpt>
      <trkpt lat="44.43944" lon="1.12227">
        <ele>226.013626</ele>
        <time>2019-08-17T14:47:34Z</time>
      </trkpt>
      <trkpt lat="44.43945" lon="1.12223">
        <ele>225.723434</ele>
        <time>2019-08-17T14:47:35Z</time>
      </trkpt>
      <trkpt lat="44.43947" lon="1.12218">
        <ele>225.430954</ele>
        <time>2019-08-17T14:47:36Z</time>
      </trkpt>
      <trkpt lat="44.4395" lon="1.12213">
        <ele>225.096985</ele>
        <time>2019-08-17T14:47:37Z</time>
      </trkpt>
      <trkpt lat="44.43952" lon="1.1221">
        <ele>224.800659</ele>
        <time>2019-08-17T14:47:38Z</time>
      </trkpt>
      <trkpt lat="44.43955" lon="1.12207">
        <ele>224.570007</ele>
        <time>2019-08-17T14:47:39Z</time>
      </trkpt>
      <trkpt lat="44.43958" lon="1.12204">
        <ele>224.425369</ele>
        <time>2019-08-17T14:47:40Z</time>
      </trkpt>
      <trkpt lat="44.43959" lon="1.12202">
        <ele>224.363449</ele>
        <time>2019-08-17T14:47:41Z</time>
      </trkpt>
      <trkpt lat="44.43961" lon="1.122">
        <ele>224.363449</ele>
        <time>2019-08-17T14:47:42Z</time>
      </trkpt>
      <trkpt lat="44.43963" lon="1.12198">
        <ele>224.363449</ele>
        <time>2019-08-17T14:47:43Z</time>
      </trkpt>
      <trkpt lat="44.43964" lon="1.12196">
        <ele>224.386887</ele>
        <time>2019-08-17T14:47:44Z</time>
      </trkpt>
      <trkpt lat="44.43966" lon="1.12194">
        <ele>224.532913</ele>
        <time>2019-08-17T14:47:45Z</time>
      </trkpt>
      <trkpt lat="44.43967" lon="1.12193">
        <ele>224.710495</ele>
        <time>2019-08-17T14:47:46Z</time>
      </trkpt>
      <trkpt lat="44.43969" lon="1.12192">
        <ele>224.884155</ele>
        <time>2019-08-17T14:47:47Z</time>
      </trkpt>
      <trkpt lat="44.43969" lon="1.1219">
        <ele>225.033325</ele>
        <time>2019-08-17T14:47:48Z</time>
      </trkpt>
      <trkpt lat="44.43969" lon="1.12189">
        <ele>225.177872</ele>
        <time>2019-08-17T14:47:49Z</time>
      </trkpt>
      <trkpt lat="44.43968" lon="1.12188">
        <ele>225.318588</ele>
        <time>2019-08-17T14:47:50Z</time>
      </trkpt>
      <trkpt lat="44.43966" lon="1.12188">
        <ele>225.397263</ele>
        <time>2019-08-17T14:47:51Z</time>
      </trkpt>
      <trkpt lat="44.43964" lon="1.12191">
        <ele>225.402847</ele>
        <time>2019-08-17T14:47:52Z</time>
      </trkpt>
      <trkpt lat="44.43964" lon="1.12194">
        <ele>225.402847</ele>
        <time>2019-08-17T14:47:53Z</time>
      </trkpt>
      <trkpt lat="44.43962" lon="1.12197">
        <ele>225.402847</ele>
        <time>2019-08-17T14:47:54Z</time>
      </trkpt>
      <trkpt lat="44.43959" lon="1.122">
        <ele>225.402847</ele>
        <time>2019-08-17T14:47:55Z</time>
      </trkpt>
      <trkpt lat="44.43957" lon="1.12204">
        <ele>225.360901</ele>
        <time>2019-08-17T14:47:56Z</time>
      </trkpt>
      <trkpt lat="44.43954" lon="1.12209">
        <ele>225.360901</ele>
        <time>2019-08-17T14:47:57Z</time>
      </trkpt>
      <trkpt lat="44.4395" lon="1.12215">
        <ele>225.291321</ele>
        <time>2019-08-17T14:47:58Z</time>
      </trkpt>
      <trkpt lat="44.43947" lon="1.1222">
        <ele>225.167648</ele>
        <time>2019-08-17T14:47:59Z</time>
      </trkpt>
      <trkpt lat="44.43943" lon="1.12224">
        <ele>224.957092</ele>
        <time>2019-08-17T14:48:00Z</time>
      </trkpt>
      <trkpt lat="44.43939" lon="1.12228">
        <ele>224.75116</ele>
        <time>2019-08-17T14:48:01Z</time>
      </trkpt>
      <trkpt lat="44.43935" lon="1.12229">
        <ele>224.556686</ele>
        <time>2019-08-17T14:48:02Z</time>
      </trkpt>
      <trkpt lat="44.4393" lon="1.12228">
        <ele>224.355408</ele>
        <time>2019-08-17T14:48:03Z</time>
      </trkpt>
      <trkpt lat="44.43926" lon="1.12227">
        <ele>224.138199</ele>
        <time>2019-08-17T14:48:04Z</time>
      </trkpt>
      <trkpt lat="44.4392" lon="1.12226">
        <ele>223.885971</ele>
        <time>2019-08-17T14:48:05Z</time>
      </trkpt>
      <trkpt lat="44.43915" lon="1.12224">
        <ele>223.605057</ele>
        <time>2019-08-17T14:48:06Z</time>
      </trkpt>
      <trkpt lat="44.43909" lon="1.12222">
        <ele>223.258255</ele>
        <time>2019-08-17T14:48:07Z</time>
      </trkpt>
      <trkpt lat="44.43903" lon="1.12221">
        <ele>222.8405</ele>
        <time>2019-08-17T14:48:08Z</time>
      </trkpt>
      <trkpt lat="44.43897" lon="1.12218">
        <ele>222.335083</ele>
        <time>2019-08-17T14:48:09Z</time>
      </trkpt>
      <trkpt lat="44.43891" lon="1.12216">
        <ele>221.724976</ele>
        <time>2019-08-17T14:48:10Z</time>
      </trkpt>
      <trkpt lat="44.43886" lon="1.12213">
        <ele>221.044312</ele>
        <time>2019-08-17T14:48:11Z</time>
      </trkpt>
      <trkpt lat="44.43881" lon="1.12211">
        <ele>220.288818</ele>
        <time>2019-08-17T14:48:12Z</time>
      </trkpt>
      <trkpt lat="44.43877" lon="1.12209">
        <ele>219.440811</ele>
        <time>2019-08-17T14:48:13Z</time>
      </trkpt>
      <trkpt lat="44.43873" lon="1.12208">
        <ele>218.530701</ele>
        <time>2019-08-17T14:48:14Z</time>
      </trkpt>
      <trkpt lat="44.4387" lon="1.12207">
        <ele>217.582458</ele>
        <time>2019-08-17T14:48:15Z</time>
      </trkpt>
      <trkpt lat="44.43867" lon="1.12205">
        <ele>216.636307</ele>
        <time>2019-08-17T14:48:16Z</time>
      </trkpt>
      <trkpt lat="44.43865" lon="1.12204">
        <ele>215.709213</ele>
        <time>2019-08-17T14:48:17Z</time>
      </trkpt>
      <trkpt lat="44.43863" lon="1.12202">
        <ele>215.709213</ele>
        <time>2019-08-17T14:48:18Z</time>
      </trkpt>
      <trkpt lat="44.4386" lon="1.12201">
        <ele>214.839905</ele>
        <time>2019-08-17T14:48:19Z</time>
      </trkpt>
      <trkpt lat="44.43858" lon="1.12199">
        <ele>214.059982</ele>
        <time>2019-08-17T14:48:20Z</time>
      </trkpt>
      <trkpt lat="44.43856" lon="1.12198">
        <ele>213.268188</ele>
        <time>2019-08-17T14:48:21Z</time>
      </trkpt>
      <trkpt lat="44.43854" lon="1.12198">
        <ele>212.554932</ele>
        <time>2019-08-17T14:48:22Z</time>
      </trkpt>
      <trkpt lat="44.43852" lon="1.12198">
        <ele>211.89534</ele>
        <time>2019-08-17T14:48:23Z</time>
      </trkpt>
      <trkpt lat="44.4385" lon="1.12197">
        <ele>211.273071</ele>
        <time>2019-08-17T14:48:24Z</time>
      </trkpt>
      <trkpt lat="44.43848" lon="1.12197">
        <ele>210.695328</ele>
        <time>2019-08-17T14:48:25Z</time>
      </trkpt>
      <trkpt lat="44.43846" lon="1.12196">
        <ele>210.155075</ele>
        <time>2019-08-17T14:48:26Z</time>
      </trkpt>
      <trkpt lat="44.43844" lon="1.12195">
        <ele>209.721069</ele>
        <time>2019-08-17T14:48:27Z</time>
      </trkpt>
      <trkpt lat="44.43842" lon="1.12195">
        <ele>209.300964</ele>
        <time>2019-08-17T14:48:28Z</time>
      </trkpt>
      <trkpt lat="44.4384" lon="1.12195">
        <ele>208.893295</ele>
        <time>2019-08-17T14:48:29Z</time>
      </trkpt>
      <trkpt lat="44.43837" lon="1.12194">
        <ele>208.498245</ele>
        <time>2019-08-17T14:48:30Z</time>
      </trkpt>
      <trkpt lat="44.43836" lon="1.12194">
        <ele>208.107193</ele>
        <time>2019-08-17T14:48:31Z</time>
      </trkpt>
      <trkpt lat="44.43834" lon="1.12194">
        <ele>208.107193</ele>
        <time>2019-08-17T14:48:32Z</time>
      </trkpt>
      <trkpt lat="44.43832" lon="1.12194">
        <ele>207.709549</ele>
        <time>2019-08-17T14:48:33Z</time>
      </trkpt>
      <trkpt lat="44.4383" lon="1.12193">
        <ele>207.323502</ele>
        <time>2019-08-17T14:48:34Z</time>
      </trkpt>
      <trkpt lat="44.43828" lon="1.12193">
        <ele>206.910294</ele>
        <time>2019-08-17T14:48:35Z</time>
      </trkpt>
      <trkpt lat="44.43826" lon="1.12193">
        <ele>206.502625</ele>
        <time>2019-08-17T14:48:36Z</time>
      </trkpt>
      <trkpt lat="44.43824" lon="1.12192">
        <ele>206.11702</ele>
        <time>2019-08-17T14:48:37Z</time>
      </trkpt>
      <trkpt lat="44.43822" lon="1.12192">
        <ele>205.750977</ele>
        <time>2019-08-17T14:48:38Z</time>
      </trkpt>
      <trkpt lat="44.43819" lon="1.12192">
        <ele>205.40184</ele>
        <time>2019-08-17T14:48:39Z</time>
      </trkpt>
      <trkpt lat="44.43817" lon="1.12191">
        <ele>205.063614</ele>
        <time>2019-08-17T14:48:40Z</time>
      </trkpt>
      <trkpt lat="44.43815" lon="1.1219">
        <ele>204.775375</ele>
        <time>2019-08-17T14:48:41Z</time>
      </trkpt>
      <trkpt lat="44.43812" lon="1.12189">
        <ele>204.509628</ele>
        <time>2019-08-17T14:48:42Z</time>
      </trkpt>
      <trkpt lat="44.4381" lon="1.12189">
        <ele>204.228165</ele>
        <time>2019-08-17T14:48:43Z</time>
      </trkpt>
      <trkpt lat="44.43808" lon="1.12188">
        <ele>203.917358</ele>
        <time>2019-08-17T14:48:44Z</time>
      </trkpt>
      <trkpt lat="44.43808" lon="1.12187">
        <ele>203.601669</ele>
        <time>2019-08-17T14:48:45Z</time>
      </trkpt>
      <trkpt lat="44.43806" lon="1.12186">
        <ele>203.292175</ele>
        <time>2019-08-17T14:48:46Z</time>
      </trkpt>
      <trkpt lat="44.43805" lon="1.12186">
        <ele>202.983093</ele>
        <time>2019-08-17T14:48:47Z</time>
      </trkpt>
      <trkpt lat="44.43803" lon="1.12185">
        <ele>202.674377</ele>
        <time>2019-08-17T14:48:48Z</time>
      </trkpt>
      <trkpt lat="44.43802" lon="1.12184">
        <ele>202.381577</ele>
        <time>2019-08-17T14:48:49Z</time>
      </trkpt>
      <trkpt lat="44.438" lon="1.12183">
        <ele>202.11853</ele>
        <time>2019-08-17T14:48:50Z</time>
      </trkpt>
      <trkpt lat="44.43798" lon="1.12183">
        <ele>201.869217</ele>
        <time>2019-08-17T14:48:51Z</time>
      </trkpt>
      <trkpt lat="44.43797" lon="1.12183">
        <ele>201.613693</ele>
        <time>2019-08-17T14:48:52Z</time>
      </trkpt>
      <trkpt lat="44.43796" lon="1.12183">
        <ele>201.361862</ele>
        <time>2019-08-17T14:48:53Z</time>
      </trkpt>
      <trkpt lat="44.43795" lon="1.12183">
        <ele>201.115234</ele>
        <time>2019-08-17T14:48:54Z</time>
      </trkpt>
      <trkpt lat="44.43794" lon="1.12182">
        <ele>200.876511</ele>
        <time>2019-08-17T14:48:55Z</time>
      </trkpt>
      <trkpt lat="44.43792" lon="1.12182">
        <ele>200.658752</ele>
        <time>2019-08-17T14:48:56Z</time>
      </trkpt>
      <trkpt lat="44.43791" lon="1.12182">
        <ele>200.459473</ele>
        <time>2019-08-17T14:48:57Z</time>
      </trkpt>
      <trkpt lat="44.4379" lon="1.12181">
        <ele>200.278458</ele>
        <time>2019-08-17T14:48:58Z</time>
      </trkpt>
      <trkpt lat="44.43789" lon="1.1218">
        <ele>200.278458</ele>
        <time>2019-08-17T14:48:59Z</time>
      </trkpt>
      <trkpt lat="44.43787" lon="1.12179">
        <ele>200.111465</ele>
        <time>2019-08-17T14:49:00Z</time>
      </trkpt>
      <trkpt lat="44.43786" lon="1.12179">
        <ele>199.950241</ele>
        <time>2019-08-17T14:49:01Z</time>
      </trkpt>
      <trkpt lat="44.43783" lon="1.12178">
        <ele>199.743042</ele>
        <time>2019-08-17T14:49:02Z</time>
      </trkpt>
      <trkpt lat="44.43781" lon="1.12177">
        <ele>199.510254</ele>
        <time>2019-08-17T14:49:03Z</time>
      </trkpt>
      <trkpt lat="44.43778" lon="1.12177">
        <ele>199.250122</ele>
        <time>2019-08-17T14:49:04Z</time>
      </trkpt>
      <trkpt lat="44.43774" lon="1.12176">
        <ele>198.959106</ele>
        <time>2019-08-17T14:49:05Z</time>
      </trkpt>
      <trkpt lat="44.43771" lon="1.12176">
        <ele>198.629196</ele>
        <time>2019-08-17T14:49:06Z</time>
      </trkpt>
      <trkpt lat="44.43767" lon="1.12176">
        <ele>198.262161</ele>
        <time>2019-08-17T14:49:07Z</time>
      </trkpt>
      <trkpt lat="44.43762" lon="1.12177">
        <ele>197.900635</ele>
        <time>2019-08-17T14:49:08Z</time>
      </trkpt>
      <trkpt lat="44.43758" lon="1.12177">
        <ele>197.514755</ele>
        <time>2019-08-17T14:49:09Z</time>
      </trkpt>
      <trkpt lat="44.43753" lon="1.12176">
        <ele>197.117935</ele>
        <time>2019-08-17T14:49:10Z</time>
      </trkpt>
      <trkpt lat="44.43749" lon="1.12174">
        <ele>196.723938</ele>
        <time>2019-08-17T14:49:11Z</time>
      </trkpt>
      <trkpt lat="44.43745" lon="1.12171">
        <ele>196.329468</ele>
        <time>2019-08-17T14:49:12Z</time>
      </trkpt>
      <trkpt lat="44.43742" lon="1.12168">
        <ele>195.909851</ele>
        <time>2019-08-17T14:49:13Z</time>
      </trkpt>
      <trkpt lat="44.4374" lon="1.12164">
        <ele>195.443253</ele>
        <time>2019-08-17T14:49:14Z</time>
      </trkpt>
      <trkpt lat="44.43737" lon="1.1216">
        <ele>194.920044</ele>
        <time>2019-08-17T14:49:15Z</time>
      </trkpt>
      <trkpt lat="44.43734" lon="1.12155">
        <ele>194.325684</ele>
        <time>2019-08-17T14:49:16Z</time>
      </trkpt>
      <trkpt lat="44.43731" lon="1.12151">
        <ele>193.660751</ele>
        <time>2019-08-17T14:49:17Z</time>
      </trkpt>
      <trkpt lat="44.43728" lon="1.12146">
        <ele>193.660751</ele>
        <time>2019-08-17T14:49:18Z</time>
      </trkpt>
      <trkpt lat="44.43725" lon="1.12143">
        <ele>192.921387</ele>
        <time>2019-08-17T14:49:19Z</time>
      </trkpt>
      <trkpt lat="44.43722" lon="1.12141">
        <ele>192.121994</ele>
        <time>2019-08-17T14:49:20Z</time>
      </trkpt>
      <trkpt lat="44.43719" lon="1.12139">
        <ele>191.135117</ele>
        <time>2019-08-17T14:49:21Z</time>
      </trkpt>
      <trkpt lat="44.43716" lon="1.12135">
        <ele>190.164841</ele>
        <time>2019-08-17T14:49:22Z</time>
      </trkpt>
      <trkpt lat="44.43713" lon="1.12131">
        <ele>189.229904</ele>
        <time>2019-08-17T14:49:23Z</time>
      </trkpt>
      <trkpt lat="44.43709" lon="1.12126">
        <ele>189.229904</ele>
        <time>2019-08-17T14:49:24Z</time>
      </trkpt>
      <trkpt lat="44.43705" lon="1.12121">
        <ele>188.32251</ele>
        <time>2019-08-17T14:49:25Z</time>
      </trkpt>
      <trkpt lat="44.43701" lon="1.12116">
        <ele>187.435593</ele>
        <time>2019-08-17T14:49:26Z</time>
      </trkpt>
      <trkpt lat="44.43697" lon="1.12111">
        <ele>186.415283</ele>
        <time>2019-08-17T14:49:27Z</time>
      </trkpt>
      <trkpt lat="44.43692" lon="1.12108">
        <ele>185.574646</ele>
        <time>2019-08-17T14:49:28Z</time>
      </trkpt>
      <trkpt lat="44.43687" lon="1.12105">
        <ele>184.705643</ele>
        <time>2019-08-17T14:49:29Z</time>
      </trkpt>
      <trkpt lat="44.43683" lon="1.12103">
        <ele>183.806625</ele>
        <time>2019-08-17T14:49:30Z</time>
      </trkpt>
      <trkpt lat="44.43678" lon="1.12102">
        <ele>182.88179</ele>
        <time>2019-08-17T14:49:31Z</time>
      </trkpt>
      <trkpt lat="44.43672" lon="1.12102">
        <ele>181.945206</ele>
        <time>2019-08-17T14:49:32Z</time>
      </trkpt>
      <trkpt lat="44.43667" lon="1.12102">
        <ele>181.174332</ele>
        <time>2019-08-17T14:49:33Z</time>
      </trkpt>
      <trkpt lat="44.43661" lon="1.12102">
        <ele>180.421158</ele>
        <time>2019-08-17T14:49:34Z</time>
      </trkpt>
      <trkpt lat="44.43655" lon="1.12102">
        <ele>179.699341</ele>
        <time>2019-08-17T14:49:35Z</time>
      </trkpt>
      <trkpt lat="44.43651" lon="1.12103">
        <ele>178.994934</ele>
        <time>2019-08-17T14:49:36Z</time>
      </trkpt>
      <trkpt lat="44.43646" lon="1.12103">
        <ele>178.311951</ele>
        <time>2019-08-17T14:49:37Z</time>
      </trkpt>
      <trkpt lat="44.43642" lon="1.12103">
        <ele>177.661758</ele>
        <time>2019-08-17T14:49:38Z</time>
      </trkpt>
      <trkpt lat="44.43639" lon="1.12104">
        <ele>177.04985</ele>
        <time>2019-08-17T14:49:39Z</time>
      </trkpt>
      <trkpt lat="44.43635" lon="1.12105">
        <ele>176.472427</ele>
        <time>2019-08-17T14:49:40Z</time>
      </trkpt>
      <trkpt lat="44.43632" lon="1.12105">
        <ele>175.933044</ele>
        <time>2019-08-17T14:49:41Z</time>
      </trkpt>
      <trkpt lat="44.43628" lon="1.12106">
        <ele>175.434769</ele>
        <time>2019-08-17T14:49:42Z</time>
      </trkpt>
      <trkpt lat="44.43625" lon="1.12106">
        <ele>174.982224</ele>
        <time>2019-08-17T14:49:43Z</time>
      </trkpt>
      <trkpt lat="44.43621" lon="1.12106">
        <ele>174.982224</ele>
        <time>2019-08-17T14:49:44Z</time>
      </trkpt>
      <trkpt lat="44.43618" lon="1.12107">
        <ele>174.559799</ele>
        <time>2019-08-17T14:49:45Z</time>
      </trkpt>
      <trkpt lat="44.43614" lon="1.12108">
        <ele>174.153625</ele>
        <time>2019-08-17T14:49:46Z</time>
      </trkpt>
      <trkpt lat="44.43611" lon="1.12108">
        <ele>173.741699</ele>
        <time>2019-08-17T14:49:47Z</time>
      </trkpt>
      <trkpt lat="44.43608" lon="1.12108">
        <ele>173.369125</ele>
        <time>2019-08-17T14:49:48Z</time>
      </trkpt>
      <trkpt lat="44.43605" lon="1.12108">
        <ele>173.03363</ele>
        <time>2019-08-17T14:49:49Z</time>
      </trkpt>
      <trkpt lat="44.43601" lon="1.12108">
        <ele>172.728088</ele>
        <time>2019-08-17T14:49:50Z</time>
      </trkpt>
      <trkpt lat="44.43598" lon="1.12108">
        <ele>172.461044</ele>
        <time>2019-08-17T14:49:51Z</time>
      </trkpt>
      <trkpt lat="44.43594" lon="1.12108">
        <ele>172.2285</ele>
        <time>2019-08-17T14:49:52Z</time>
      </trkpt>
      <trkpt lat="44.4359" lon="1.12107">
        <ele>172.048874</ele>
        <time>2019-08-17T14:49:53Z</time>
      </trkpt>
      <trkpt lat="44.43586" lon="1.12107">
        <ele>171.862686</ele>
        <time>2019-08-17T14:49:54Z</time>
      </trkpt>
      <trkpt lat="44.43581" lon="1.12106">
        <ele>171.670486</ele>
        <time>2019-08-17T14:49:55Z</time>
      </trkpt>
      <trkpt lat="44.43577" lon="1.12104">
        <ele>171.465805</ele>
        <time>2019-08-17T14:49:56Z</time>
      </trkpt>
      <trkpt lat="44.43572" lon="1.12101">
        <ele>171.249466</ele>
        <time>2019-08-17T14:49:57Z</time>
      </trkpt>
      <trkpt lat="44.43567" lon="1.12097">
        <ele>171.249466</ele>
        <time>2019-08-17T14:49:58Z</time>
      </trkpt>
      <trkpt lat="44.43562" lon="1.12093">
        <ele>171.017029</ele>
        <time>2019-08-17T14:49:59Z</time>
      </trkpt>
      <trkpt lat="44.43557" lon="1.12089">
        <ele>170.76564</ele>
        <time>2019-08-17T14:50:00Z</time>
      </trkpt>
      <trkpt lat="44.43552" lon="1.12086">
        <ele>170.448776</ele>
        <time>2019-08-17T14:50:01Z</time>
      </trkpt>
      <trkpt lat="44.43547" lon="1.12083">
        <ele>170.171036</ele>
        <time>2019-08-17T14:50:02Z</time>
      </trkpt>
      <trkpt lat="44.43544" lon="1.12081">
        <ele>170.005966</ele>
        <time>2019-08-17T14:50:03Z</time>
      </trkpt>
      <trkpt lat="44.4354" lon="1.12079">
        <ele>169.94162</ele>
        <time>2019-08-17T14:50:04Z</time>
      </trkpt>
      <trkpt lat="44.43537" lon="1.12077">
        <ele>169.94162</ele>
        <time>2019-08-17T14:50:05Z</time>
      </trkpt>
      <trkpt lat="44.43534" lon="1.12076">
        <ele>169.94162</ele>
        <time>2019-08-17T14:50:06Z</time>
      </trkpt>
      <trkpt lat="44.43531" lon="1.12075">
        <ele>169.978897</ele>
        <time>2019-08-17T14:50:07Z</time>
      </trkpt>
      <trkpt lat="44.4353" lon="1.12074">
        <ele>170.117218</ele>
        <time>2019-08-17T14:50:08Z</time>
      </trkpt>
      <trkpt lat="44.43528" lon="1.12072">
        <ele>170.405075</ele>
        <time>2019-08-17T14:50:09Z</time>
      </trkpt>
      <trkpt lat="44.43528" lon="1.1207">
        <ele>170.729813</ele>
        <time>2019-08-17T14:50:10Z</time>
      </trkpt>
      <trkpt lat="44.43529" lon="1.12068">
        <ele>170.729813</ele>
        <time>2019-08-17T14:50:11Z</time>
      </trkpt>
      <trkpt lat="44.4353" lon="1.12067">
        <ele>171.018356</ele>
        <time>2019-08-17T14:50:12Z</time>
      </trkpt>
      <trkpt lat="44.43538" lon="1.12059">
        <ele>171.752853</ele>
        <time>2019-08-17T14:50:42Z</time>
      </trkpt>
      <trkpt lat="44.43541" lon="1.12056">
        <ele>171.686752</ele>
        <time>2019-08-17T14:50:44Z</time>
      </trkpt>
      <trkpt lat="44.43543" lon="1.12052">
        <ele>171.686752</ele>
        <time>2019-08-17T14:50:45Z</time>
      </trkpt>
      <trkpt lat="44.43545" lon="1.12047">
        <ele>171.592575</ele>
        <time>2019-08-17T14:50:46Z</time>
      </trkpt>
      <trkpt lat="44.43547" lon="1.12042">
        <ele>171.47113</ele>
        <time>2019-08-17T14:50:47Z</time>
      </trkpt>
      <trkpt lat="44.43548" lon="1.12036">
        <ele>171.29866</ele>
        <time>2019-08-17T14:50:48Z</time>
      </trkpt>
      <trkpt lat="44.43549" lon="1.1203">
        <ele>171.121964</ele>
        <time>2019-08-17T14:50:49Z</time>
      </trkpt>
      <trkpt lat="44.43549" lon="1.12024">
        <ele>170.976151</ele>
        <time>2019-08-17T14:50:50Z</time>
      </trkpt>
      <trkpt lat="44.43549" lon="1.12018">
        <ele>170.916092</ele>
        <time>2019-08-17T14:50:51Z</time>
      </trkpt>
      <trkpt lat="44.43549" lon="1.12012">
        <ele>170.913254</ele>
        <time>2019-08-17T14:50:52Z</time>
      </trkpt>
      <trkpt lat="44.43549" lon="1.12005">
        <ele>170.913254</ele>
        <time>2019-08-17T14:50:53Z</time>
      </trkpt>
      <trkpt lat="44.43549" lon="1.11998">
        <ele>170.913254</ele>
        <time>2019-08-17T14:50:54Z</time>
      </trkpt>
      <trkpt lat="44.4355" lon="1.11991">
        <ele>170.967453</ele>
        <time>2019-08-17T14:50:55Z</time>
      </trkpt>
      <trkpt lat="44.43551" lon="1.11984">
        <ele>171.103027</ele>
        <time>2019-08-17T14:50:56Z</time>
      </trkpt>
      <trkpt lat="44.43551" lon="1.11977">
        <ele>171.272781</ele>
        <time>2019-08-17T14:50:57Z</time>
      </trkpt>
      <trkpt lat="44.43552" lon="1.11963">
        <ele>171.61821</ele>
        <time>2019-08-17T14:50:59Z</time>
      </trkpt>
      <trkpt lat="44.43553" lon="1.11956">
        <ele>171.61821</ele>
        <time>2019-08-17T14:51:00Z</time>
      </trkpt>
      <trkpt lat="44.43554" lon="1.11949">
        <ele>171.786331</ele>
        <time>2019-08-17T14:51:01Z</time>
      </trkpt>
      <trkpt lat="44.43554" lon="1.11942">
        <ele>171.952103</ele>
        <time>2019-08-17T14:51:02Z</time>
      </trkpt>
      <trkpt lat="44.43554" lon="1.11935">
        <ele>172.131226</ele>
        <time>2019-08-17T14:51:03Z</time>
      </trkpt>
      <trkpt lat="44.43554" lon="1.11929">
        <ele>172.303085</ele>
        <time>2019-08-17T14:51:04Z</time>
      </trkpt>
      <trkpt lat="44.43554" lon="1.11922">
        <ele>172.469925</ele>
        <time>2019-08-17T14:51:05Z</time>
      </trkpt>
      <trkpt lat="44.43554" lon="1.11916">
        <ele>172.642395</ele>
        <time>2019-08-17T14:51:06Z</time>
      </trkpt>
      <trkpt lat="44.43554" lon="1.11909">
        <ele>172.822754</ele>
        <time>2019-08-17T14:51:07Z</time>
      </trkpt>
      <trkpt lat="44.43554" lon="1.11902">
        <ele>173.011795</ele>
        <time>2019-08-17T14:51:08Z</time>
      </trkpt>
      <trkpt lat="44.43553" lon="1.11894">
        <ele>173.204514</ele>
        <time>2019-08-17T14:51:09Z</time>
      </trkpt>
      <trkpt lat="44.43552" lon="1.11887">
        <ele>173.423111</ele>
        <time>2019-08-17T14:51:10Z</time>
      </trkpt>
      <trkpt lat="44.43551" lon="1.1188">
        <ele>173.683029</ele>
        <time>2019-08-17T14:51:11Z</time>
      </trkpt>
      <trkpt lat="44.4355" lon="1.11873">
        <ele>173.978134</ele>
        <time>2019-08-17T14:51:12Z</time>
      </trkpt>
      <trkpt lat="44.43549" lon="1.11866">
        <ele>173.978134</ele>
        <time>2019-08-17T14:51:13Z</time>
      </trkpt>
      <trkpt lat="44.43549" lon="1.11859">
        <ele>174.304932</ele>
        <time>2019-08-17T14:51:14Z</time>
      </trkpt>
      <trkpt lat="44.43548" lon="1.11853">
        <ele>174.671631</ele>
        <time>2019-08-17T14:51:15Z</time>
      </trkpt>
      <trkpt lat="44.43547" lon="1.11845">
        <ele>175.127762</ele>
        <time>2019-08-17T14:51:16Z</time>
      </trkpt>
      <trkpt lat="44.43546" lon="1.11839">
        <ele>175.594894</ele>
        <time>2019-08-17T14:51:17Z</time>
      </trkpt>
      <trkpt lat="44.43546" lon="1.11832">
        <ele>176.056808</ele>
        <time>2019-08-17T14:51:18Z</time>
      </trkpt>
      <trkpt lat="44.43544" lon="1.11825">
        <ele>176.507645</ele>
        <time>2019-08-17T14:51:19Z</time>
      </trkpt>
      <trkpt lat="44.43544" lon="1.11817">
        <ele>176.938232</ele>
        <time>2019-08-17T14:51:20Z</time>
      </trkpt>
      <trkpt lat="44.43543" lon="1.1181">
        <ele>177.339035</ele>
        <time>2019-08-17T14:51:21Z</time>
      </trkpt>
      <trkpt lat="44.43543" lon="1.11803">
        <ele>177.339035</ele>
        <time>2019-08-17T14:51:22Z</time>
      </trkpt>
      <trkpt lat="44.43543" lon="1.11795">
        <ele>177.652664</ele>
        <time>2019-08-17T14:51:23Z</time>
      </trkpt>
      <trkpt lat="44.43542" lon="1.11789">
        <ele>177.959473</ele>
        <time>2019-08-17T14:51:24Z</time>
      </trkpt>
      <trkpt lat="44.43542" lon="1.11782">
        <ele>178.299149</ele>
        <time>2019-08-17T14:51:25Z</time>
      </trkpt>
      <trkpt lat="44.43542" lon="1.11775">
        <ele>178.299149</ele>
        <time>2019-08-17T14:51:26Z</time>
      </trkpt>
      <trkpt lat="44.43543" lon="1.11768">
        <ele>178.625977</ele>
        <time>2019-08-17T14:51:27Z</time>
      </trkpt>
      <trkpt lat="44.43543" lon="1.11761">
        <ele>178.946289</ele>
        <time>2019-08-17T14:51:28Z</time>
      </trkpt>
      <trkpt lat="44.43543" lon="1.11754">
        <ele>179.263016</ele>
        <time>2019-08-17T14:51:29Z</time>
      </trkpt>
      <trkpt lat="44.43544" lon="1.11748">
        <ele>179.536942</ele>
        <time>2019-08-17T14:51:30Z</time>
      </trkpt>
      <trkpt lat="44.43545" lon="1.11741">
        <ele>179.771072</ele>
        <time>2019-08-17T14:51:31Z</time>
      </trkpt>
      <trkpt lat="44.43546" lon="1.11734">
        <ele>179.918289</ele>
        <time>2019-08-17T14:51:32Z</time>
      </trkpt>
      <trkpt lat="44.43547" lon="1.11727">
        <ele>179.918289</ele>
        <time>2019-08-17T14:51:33Z</time>
      </trkpt>
      <trkpt lat="44.43548" lon="1.1172">
        <ele>180.019363</ele>
        <time>2019-08-17T14:51:34Z</time>
      </trkpt>
      <trkpt lat="44.43549" lon="1.11714">
        <ele>180.074539</ele>
        <time>2019-08-17T14:51:35Z</time>
      </trkpt>
      <trkpt lat="44.43551" lon="1.11708">
        <ele>180.074539</ele>
        <time>2019-08-17T14:51:36Z</time>
      </trkpt>
      <trkpt lat="44.43552" lon="1.11701">
        <ele>180.074539</ele>
        <time>2019-08-17T14:51:37Z</time>
      </trkpt>
      <trkpt lat="44.43554" lon="1.11695">
        <ele>180.071777</ele>
        <time>2019-08-17T14:51:38Z</time>
      </trkpt>
      <trkpt lat="44.43554" lon="1.11688">
        <ele>180.036133</ele>
        <time>2019-08-17T14:51:39Z</time>
      </trkpt>
      <trkpt lat="44.43555" lon="1.11681">
        <ele>180.036133</ele>
        <time>2019-08-17T14:51:40Z</time>
      </trkpt>
      <trkpt lat="44.43556" lon="1.11675">
        <ele>179.955643</ele>
        <time>2019-08-17T14:51:41Z</time>
      </trkpt>
      <trkpt lat="44.43557" lon="1.11668">
        <ele>179.845383</ele>
        <time>2019-08-17T14:51:42Z</time>
      </trkpt>
      <trkpt lat="44.43557" lon="1.11662">
        <ele>179.710617</ele>
        <time>2019-08-17T14:51:43Z</time>
      </trkpt>
      <trkpt lat="44.43557" lon="1.11655">
        <ele>179.569016</ele>
        <time>2019-08-17T14:51:44Z</time>
      </trkpt>
      <trkpt lat="44.43557" lon="1.11649">
        <ele>179.569016</ele>
        <time>2019-08-17T14:51:45Z</time>
      </trkpt>
      <trkpt lat="44.43557" lon="1.11643">
        <ele>179.432938</ele>
        <time>2019-08-17T14:51:46Z</time>
      </trkpt>
      <trkpt lat="44.43557" lon="1.11636">
        <ele>179.337357</ele>
        <time>2019-08-17T14:51:47Z</time>
      </trkpt>
      <trkpt lat="44.43557" lon="1.1163">
        <ele>179.337357</ele>
        <time>2019-08-17T14:51:48Z</time>
      </trkpt>
      <trkpt lat="44.43556" lon="1.11624">
        <ele>179.304199</ele>
        <time>2019-08-17T14:51:49Z</time>
      </trkpt>
      <trkpt lat="44.43555" lon="1.11618">
        <ele>179.304199</ele>
        <time>2019-08-17T14:51:50Z</time>
      </trkpt>
      <trkpt lat="44.43554" lon="1.11613">
        <ele>179.304199</ele>
        <time>2019-08-17T14:51:51Z</time>
      </trkpt>
      <trkpt lat="44.43554" lon="1.11607">
        <ele>179.304199</ele>
        <time>2019-08-17T14:51:52Z</time>
      </trkpt>
      <trkpt lat="44.43553" lon="1.11602">
        <ele>179.320313</ele>
        <time>2019-08-17T14:51:53Z</time>
      </trkpt>
      <trkpt lat="44.43553" lon="1.11596">
        <ele>179.422867</ele>
        <time>2019-08-17T14:51:54Z</time>
      </trkpt>
      <trkpt lat="44.43552" lon="1.11591">
        <ele>179.55751</ele>
        <time>2019-08-17T14:51:55Z</time>
      </trkpt>
      <trkpt lat="44.43551" lon="1.11586">
        <ele>179.55751</ele>
        <time>2019-08-17T14:51:56Z</time>
      </trkpt>
      <trkpt lat="44.43551" lon="1.11581">
        <ele>179.725647</ele>
        <time>2019-08-17T14:51:57Z</time>
      </trkpt>
      <trkpt lat="44.43549" lon="1.11575">
        <ele>179.900269</ele>
        <time>2019-08-17T14:51:58Z</time>
      </trkpt>
      <trkpt lat="44.43549" lon="1.1157">
        <ele>179.900269</ele>
        <time>2019-08-17T14:51:59Z</time>
      </trkpt>
      <trkpt lat="44.43548" lon="1.11566">
        <ele>180.091751</ele>
        <time>2019-08-17T14:52:00Z</time>
      </trkpt>
      <trkpt lat="44.43547" lon="1.11561">
        <ele>180.287552</ele>
        <time>2019-08-17T14:52:01Z</time>
      </trkpt>
      <trkpt lat="44.43547" lon="1.11557">
        <ele>180.287552</ele>
        <time>2019-08-17T14:52:02Z</time>
      </trkpt>
      <trkpt lat="44.43547" lon="1.11553">
        <ele>180.502258</ele>
        <time>2019-08-17T14:52:03Z</time>
      </trkpt>
      <trkpt lat="44.43548" lon="1.11549">
        <ele>180.730057</ele>
        <time>2019-08-17T14:52:04Z</time>
      </trkpt>
      <trkpt lat="44.43549" lon="1.11545">
        <ele>180.730057</ele>
        <time>2019-08-17T14:52:05Z</time>
      </trkpt>
      <trkpt lat="44.43551" lon="1.11541">
        <ele>180.988174</ele>
        <time>2019-08-17T14:52:06Z</time>
      </trkpt>
      <trkpt lat="44.43554" lon="1.11539">
        <ele>181.229126</ele>
        <time>2019-08-17T14:52:07Z</time>
      </trkpt>
      <trkpt lat="44.43557" lon="1.11537">
        <ele>181.229126</ele>
        <time>2019-08-17T14:52:08Z</time>
      </trkpt>
      <trkpt lat="44.43559" lon="1.11534">
        <ele>181.362061</ele>
        <time>2019-08-17T14:52:09Z</time>
      </trkpt>
      <trkpt lat="44.4356" lon="1.1153">
        <ele>181.472305</ele>
        <time>2019-08-17T14:52:10Z</time>
      </trkpt>
      <trkpt lat="44.43563" lon="1.11527">
        <ele>181.5392</ele>
        <time>2019-08-17T14:52:11Z</time>
      </trkpt>
      <trkpt lat="44.43565" lon="1.11524">
        <ele>181.608749</ele>
        <time>2019-08-17T14:52:12Z</time>
      </trkpt>
      <trkpt lat="44.43567" lon="1.11521">
        <ele>181.681534</ele>
        <time>2019-08-17T14:52:13Z</time>
      </trkpt>
      <trkpt lat="44.43569" lon="1.11517">
        <ele>181.752945</ele>
        <time>2019-08-17T14:52:14Z</time>
      </trkpt>
      <trkpt lat="44.43571" lon="1.11514">
        <ele>181.797043</ele>
        <time>2019-08-17T14:52:15Z</time>
      </trkpt>
      <trkpt lat="44.43573" lon="1.11511">
        <ele>181.852097</ele>
        <time>2019-08-17T14:52:16Z</time>
      </trkpt>
      <trkpt lat="44.43575" lon="1.11507">
        <ele>181.937012</ele>
        <time>2019-08-17T14:52:17Z</time>
      </trkpt>
      <trkpt lat="44.43578" lon="1.11504">
        <ele>182.066833</ele>
        <time>2019-08-17T14:52:18Z</time>
      </trkpt>
      <trkpt lat="44.4358" lon="1.115">
        <ele>182.249435</ele>
        <time>2019-08-17T14:52:19Z</time>
      </trkpt>
      <trkpt lat="44.43581" lon="1.11496">
        <ele>182.476624</ele>
        <time>2019-08-17T14:52:20Z</time>
      </trkpt>
      <trkpt lat="44.43583" lon="1.11492">
        <ele>182.748581</ele>
        <time>2019-08-17T14:52:21Z</time>
      </trkpt>
      <trkpt lat="44.43584" lon="1.11489">
        <ele>183.063828</ele>
        <time>2019-08-17T14:52:22Z</time>
      </trkpt>
      <trkpt lat="44.43584" lon="1.11486">
        <ele>183.426071</ele>
        <time>2019-08-17T14:52:23Z</time>
      </trkpt>
      <trkpt lat="44.43584" lon="1.11483">
        <ele>183.828476</ele>
        <time>2019-08-17T14:52:24Z</time>
      </trkpt>
      <trkpt lat="44.43583" lon="1.1148">
        <ele>184.269043</ele>
        <time>2019-08-17T14:52:25Z</time>
      </trkpt>
      <trkpt lat="44.43581" lon="1.11477">
        <ele>184.685242</ele>
        <time>2019-08-17T14:52:26Z</time>
      </trkpt>
      <trkpt lat="44.43579" lon="1.11473">
        <ele>184.685242</ele>
        <time>2019-08-17T14:52:27Z</time>
      </trkpt>
      <trkpt lat="44.43575" lon="1.11469">
        <ele>185.072159</ele>
        <time>2019-08-17T14:52:28Z</time>
      </trkpt>
      <trkpt lat="44.43571" lon="1.11467">
        <ele>185.429932</ele>
        <time>2019-08-17T14:52:29Z</time>
      </trkpt>
      <trkpt lat="44.43567" lon="1.11465">
        <ele>185.772461</ele>
        <time>2019-08-17T14:52:30Z</time>
      </trkpt>
      <trkpt lat="44.43562" lon="1.11463">
        <ele>186.054642</ele>
        <time>2019-08-17T14:52:31Z</time>
      </trkpt>
      <trkpt lat="44.43556" lon="1.11463">
        <ele>186.236023</ele>
        <time>2019-08-17T14:52:32Z</time>
      </trkpt>
      <trkpt lat="44.4355" lon="1.11463">
        <ele>186.348953</ele>
        <time>2019-08-17T14:52:33Z</time>
      </trkpt>
      <trkpt lat="44.43544" lon="1.11462">
        <ele>186.461197</ele>
        <time>2019-08-17T14:52:34Z</time>
      </trkpt>
      <trkpt lat="44.43538" lon="1.1146">
        <ele>186.553024</ele>
        <time>2019-08-17T14:52:35Z</time>
      </trkpt>
      <trkpt lat="44.43531" lon="1.11456">
        <ele>186.623352</ele>
        <time>2019-08-17T14:52:36Z</time>
      </trkpt>
      <trkpt lat="44.43527" lon="1.11452">
        <ele>186.711349</ele>
        <time>2019-08-17T14:52:37Z</time>
      </trkpt>
      <trkpt lat="44.43523" lon="1.11448">
        <ele>186.848526</ele>
        <time>2019-08-17T14:52:38Z</time>
      </trkpt>
      <trkpt lat="44.43518" lon="1.11444">
        <ele>187.035645</ele>
        <time>2019-08-17T14:52:39Z</time>
      </trkpt>
      <trkpt lat="44.43516" lon="1.11439">
        <ele>187.29718</ele>
        <time>2019-08-17T14:52:40Z</time>
      </trkpt>
      <trkpt lat="44.43513" lon="1.11435">
        <ele>187.645096</ele>
        <time>2019-08-17T14:52:41Z</time>
      </trkpt>
      <trkpt lat="44.4351" lon="1.1143">
        <ele>188.055359</ele>
        <time>2019-08-17T14:52:42Z</time>
      </trkpt>
      <trkpt lat="44.43508" lon="1.11424">
        <ele>188.466171</ele>
        <time>2019-08-17T14:52:43Z</time>
      </trkpt>
      <trkpt lat="44.43506" lon="1.11419">
        <ele>188.860825</ele>
        <time>2019-08-17T14:52:44Z</time>
      </trkpt>
      <trkpt lat="44.43503" lon="1.11415">
        <ele>189.235214</ele>
        <time>2019-08-17T14:52:45Z</time>
      </trkpt>
      <trkpt lat="44.43502" lon="1.1141">
        <ele>189.235214</ele>
        <time>2019-08-17T14:52:46Z</time>
      </trkpt>
      <trkpt lat="44.43499" lon="1.11405">
        <ele>189.593185</ele>
        <time>2019-08-17T14:52:47Z</time>
      </trkpt>
      <trkpt lat="44.43498" lon="1.114">
        <ele>189.937393</ele>
        <time>2019-08-17T14:52:48Z</time>
      </trkpt>
      <trkpt lat="44.43497" lon="1.11395">
        <ele>190.315353</ele>
        <time>2019-08-17T14:52:49Z</time>
      </trkpt>
      <trkpt lat="44.43496" lon="1.1139">
        <ele>190.679153</ele>
        <time>2019-08-17T14:52:50Z</time>
      </trkpt>
      <trkpt lat="44.43496" lon="1.11386">
        <ele>191.027084</ele>
        <time>2019-08-17T14:52:51Z</time>
      </trkpt>
      <trkpt lat="44.43496" lon="1.11382">
        <ele>191.355225</ele>
        <time>2019-08-17T14:52:52Z</time>
      </trkpt>
      <trkpt lat="44.43496" lon="1.11378">
        <ele>191.664932</ele>
        <time>2019-08-17T14:52:53Z</time>
      </trkpt>
      <trkpt lat="44.43495" lon="1.11375">
        <ele>191.959518</ele>
        <time>2019-08-17T14:52:54Z</time>
      </trkpt>
      <trkpt lat="44.43494" lon="1.11371">
        <ele>192.192856</ele>
        <time>2019-08-17T14:52:55Z</time>
      </trkpt>
      <trkpt lat="44.43493" lon="1.11368">
        <ele>192.407455</ele>
        <time>2019-08-17T14:52:56Z</time>
      </trkpt>
      <trkpt lat="44.43491" lon="1.11365">
        <ele>192.607559</ele>
        <time>2019-08-17T14:52:57Z</time>
      </trkpt>
      <trkpt lat="44.4349" lon="1.11362">
        <ele>192.793564</ele>
        <time>2019-08-17T14:52:58Z</time>
      </trkpt>
      <trkpt lat="44.43488" lon="1.11358">
        <ele>192.961472</ele>
        <time>2019-08-17T14:52:59Z</time>
      </trkpt>
      <trkpt lat="44.43487" lon="1.11354">
        <ele>193.110977</ele>
        <time>2019-08-17T14:53:00Z</time>
      </trkpt>
      <trkpt lat="44.43485" lon="1.1135">
        <ele>193.246765</ele>
        <time>2019-08-17T14:53:01Z</time>
      </trkpt>
      <trkpt lat="44.43484" lon="1.11345">
        <ele>193.385941</ele>
        <time>2019-08-17T14:53:02Z</time>
      </trkpt>
      <trkpt lat="44.43482" lon="1.1134">
        <ele>193.529648</ele>
        <time>2019-08-17T14:53:03Z</time>
      </trkpt>
      <trkpt lat="44.43481" lon="1.11336">
        <ele>193.681534</ele>
        <time>2019-08-17T14:53:04Z</time>
      </trkpt>
      <trkpt lat="44.43479" lon="1.11332">
        <ele>193.846085</ele>
        <time>2019-08-17T14:53:05Z</time>
      </trkpt>
      <trkpt lat="44.43478" lon="1.11327">
        <ele>193.846085</ele>
        <time>2019-08-17T14:53:06Z</time>
      </trkpt>
      <trkpt lat="44.43476" lon="1.11323">
        <ele>194.025208</ele>
        <time>2019-08-17T14:53:07Z</time>
      </trkpt>
      <trkpt lat="44.43475" lon="1.11318">
        <ele>194.214951</ele>
        <time>2019-08-17T14:53:08Z</time>
      </trkpt>
      <trkpt lat="44.43473" lon="1.11314">
        <ele>194.43187</ele>
        <time>2019-08-17T14:53:09Z</time>
      </trkpt>
      <trkpt lat="44.43472" lon="1.11309">
        <ele>194.646286</ele>
        <time>2019-08-17T14:53:10Z</time>
      </trkpt>
      <trkpt lat="44.4347" lon="1.11305">
        <ele>194.85321</ele>
        <time>2019-08-17T14:53:11Z</time>
      </trkpt>
      <trkpt lat="44.43469" lon="1.113">
        <ele>195.046631</ele>
        <time>2019-08-17T14:53:12Z</time>
      </trkpt>
      <trkpt lat="44.43467" lon="1.11295">
        <ele>195.229614</ele>
        <time>2019-08-17T14:53:13Z</time>
      </trkpt>
      <trkpt lat="44.43466" lon="1.11291">
        <ele>195.407593</ele>
        <time>2019-08-17T14:53:14Z</time>
      </trkpt>
      <trkpt lat="44.43465" lon="1.11287">
        <ele>195.561462</ele>
        <time>2019-08-17T14:53:15Z</time>
      </trkpt>
      <trkpt lat="44.43464" lon="1.11282">
        <ele>195.717346</ele>
        <time>2019-08-17T14:53:16Z</time>
      </trkpt>
      <trkpt lat="44.43462" lon="1.11278">
        <ele>195.87468</ele>
        <time>2019-08-17T14:53:17Z</time>
      </trkpt>
      <trkpt lat="44.43461" lon="1.11273">
        <ele>196.035095</ele>
        <time>2019-08-17T14:53:18Z</time>
      </trkpt>
      <trkpt lat="44.43459" lon="1.11269">
        <ele>196.198685</ele>
        <time>2019-08-17T14:53:19Z</time>
      </trkpt>
      <trkpt lat="44.43458" lon="1.11265">
        <ele>196.361877</ele>
        <time>2019-08-17T14:53:20Z</time>
      </trkpt>
      <trkpt lat="44.43457" lon="1.11261">
        <ele>196.514847</ele>
        <time>2019-08-17T14:53:21Z</time>
      </trkpt>
      <trkpt lat="44.43456" lon="1.11257">
        <ele>196.657669</ele>
        <time>2019-08-17T14:53:22Z</time>
      </trkpt>
      <trkpt lat="44.43455" lon="1.11253">
        <ele>196.657669</ele>
        <time>2019-08-17T14:53:23Z</time>
      </trkpt>
      <trkpt lat="44.43453" lon="1.11249">
        <ele>196.791763</ele>
        <time>2019-08-17T14:53:24Z</time>
      </trkpt>
      <trkpt lat="44.43452" lon="1.11245">
        <ele>196.919937</ele>
        <time>2019-08-17T14:53:25Z</time>
      </trkpt>
      <trkpt lat="44.4345" lon="1.11241">
        <ele>197.054367</ele>
        <time>2019-08-17T14:53:26Z</time>
      </trkpt>
      <trkpt lat="44.43448" lon="1.11238">
        <ele>197.177383</ele>
        <time>2019-08-17T14:53:27Z</time>
      </trkpt>
      <trkpt lat="44.43446" lon="1.11235">
        <ele>197.177383</ele>
        <time>2019-08-17T14:53:28Z</time>
      </trkpt>
      <trkpt lat="44.43444" lon="1.11231">
        <ele>197.288742</ele>
        <time>2019-08-17T14:53:29Z</time>
      </trkpt>
      <trkpt lat="44.43443" lon="1.11228">
        <ele>197.377441</ele>
        <time>2019-08-17T14:53:30Z</time>
      </trkpt>
      <trkpt lat="44.4344" lon="1.11225">
        <ele>197.441391</ele>
        <time>2019-08-17T14:53:31Z</time>
      </trkpt>
      <trkpt lat="44.43438" lon="1.11221">
        <ele>197.479996</ele>
        <time>2019-08-17T14:53:32Z</time>
      </trkpt>
      <trkpt lat="44.43436" lon="1.11218">
        <ele>197.479996</ele>
        <time>2019-08-17T14:53:33Z</time>
      </trkpt>
      <trkpt lat="44.43434" lon="1.11214">
        <ele>197.479996</ele>
        <time>2019-08-17T14:53:34Z</time>
      </trkpt>
      <trkpt lat="44.43432" lon="1.11211">
        <ele>197.47583</ele>
        <time>2019-08-17T14:53:35Z</time>
      </trkpt>
      <trkpt lat="44.4343" lon="1.11207">
        <ele>197.44783</ele>
        <time>2019-08-17T14:53:36Z</time>
      </trkpt>
      <trkpt lat="44.43428" lon="1.11204">
        <ele>197.397812</ele>
        <time>2019-08-17T14:53:37Z</time>
      </trkpt>
      <trkpt lat="44.43427" lon="1.112">
        <ele>197.336105</ele>
        <time>2019-08-17T14:53:38Z</time>
      </trkpt>
      <trkpt lat="44.43425" lon="1.11196">
        <ele>197.27092</ele>
        <time>2019-08-17T14:53:39Z</time>
      </trkpt>
      <trkpt lat="44.43424" lon="1.11193">
        <ele>197.201706</ele>
        <time>2019-08-17T14:53:40Z</time>
      </trkpt>
      <trkpt lat="44.43423" lon="1.1119">
        <ele>197.133484</ele>
        <time>2019-08-17T14:53:41Z</time>
      </trkpt>
      <trkpt lat="44.43423" lon="1.11187">
        <ele>197.067032</ele>
        <time>2019-08-17T14:53:42Z</time>
      </trkpt>
      <trkpt lat="44.43422" lon="1.11184">
        <ele>197.009018</ele>
        <time>2019-08-17T14:53:43Z</time>
      </trkpt>
      <trkpt lat="44.43423" lon="1.11181">
        <ele>196.970764</ele>
        <time>2019-08-17T14:53:44Z</time>
      </trkpt>
      <trkpt lat="44.43423" lon="1.11178">
        <ele>196.952881</ele>
        <time>2019-08-17T14:53:45Z</time>
      </trkpt>
      <trkpt lat="44.43424" lon="1.11175">
        <ele>196.952881</ele>
        <time>2019-08-17T14:53:46Z</time>
      </trkpt>
      <trkpt lat="44.43425" lon="1.11172">
        <ele>196.952881</ele>
        <time>2019-08-17T14:53:47Z</time>
      </trkpt>
      <trkpt lat="44.43426" lon="1.1117">
        <ele>196.960571</ele>
        <time>2019-08-17T14:53:48Z</time>
      </trkpt>
      <trkpt lat="44.43427" lon="1.11166">
        <ele>196.999222</ele>
        <time>2019-08-17T14:53:49Z</time>
      </trkpt>
      <trkpt lat="44.43427" lon="1.11163">
        <ele>197.071457</ele>
        <time>2019-08-17T14:53:50Z</time>
      </trkpt>
      <trkpt lat="44.43427" lon="1.1116">
        <ele>197.166931</ele>
        <time>2019-08-17T14:53:51Z</time>
      </trkpt>
      <trkpt lat="44.43428" lon="1.11157">
        <ele>197.166931</ele>
        <time>2019-08-17T14:53:52Z</time>
      </trkpt>
      <trkpt lat="44.43429" lon="1.11154">
        <ele>197.275085</ele>
        <time>2019-08-17T14:53:53Z</time>
      </trkpt>
      <trkpt lat="44.43429" lon="1.11151">
        <ele>197.39502</ele>
        <time>2019-08-17T14:53:54Z</time>
      </trkpt>
      <trkpt lat="44.4343" lon="1.11149">
        <ele>197.555237</ele>
        <time>2019-08-17T14:53:55Z</time>
      </trkpt>
      <trkpt lat="44.4343" lon="1.11146">
        <ele>197.718689</ele>
        <time>2019-08-17T14:53:56Z</time>
      </trkpt>
      <trkpt lat="44.43432" lon="1.11144">
        <ele>197.878555</ele>
        <time>2019-08-17T14:53:57Z</time>
      </trkpt>
      <trkpt lat="44.43433" lon="1.11141">
        <ele>198.042786</ele>
        <time>2019-08-17T14:53:58Z</time>
      </trkpt>
      <trkpt lat="44.43433" lon="1.11138">
        <ele>198.217163</ele>
        <time>2019-08-17T14:53:59Z</time>
      </trkpt>
      <trkpt lat="44.43433" lon="1.11136">
        <ele>198.400864</ele>
        <time>2019-08-17T14:54:00Z</time>
      </trkpt>
      <trkpt lat="44.43433" lon="1.11133">
        <ele>198.554825</ele>
        <time>2019-08-17T14:54:01Z</time>
      </trkpt>
      <trkpt lat="44.43434" lon="1.1113">
        <ele>198.708542</ele>
        <time>2019-08-17T14:54:02Z</time>
      </trkpt>
      <trkpt lat="44.43435" lon="1.11127">
        <ele>198.866989</ele>
        <time>2019-08-17T14:54:03Z</time>
      </trkpt>
      <trkpt lat="44.43435" lon="1.11124">
        <ele>199.022385</ele>
        <time>2019-08-17T14:54:04Z</time>
      </trkpt>
      <trkpt lat="44.43435" lon="1.11121">
        <ele>199.170227</ele>
        <time>2019-08-17T14:54:05Z</time>
      </trkpt>
      <trkpt lat="44.43436" lon="1.11118">
        <ele>199.3134</ele>
        <time>2019-08-17T14:54:06Z</time>
      </trkpt>
      <trkpt lat="44.43437" lon="1.11116">
        <ele>199.45961</ele>
        <time>2019-08-17T14:54:07Z</time>
      </trkpt>
      <trkpt lat="44.43438" lon="1.11113">
        <ele>199.45961</ele>
        <time>2019-08-17T14:54:08Z</time>
      </trkpt>
      <trkpt lat="44.43439" lon="1.1111">
        <ele>199.604965</ele>
        <time>2019-08-17T14:54:09Z</time>
      </trkpt>
      <trkpt lat="44.4344" lon="1.11107">
        <ele>199.754883</ele>
        <time>2019-08-17T14:54:10Z</time>
      </trkpt>
      <trkpt lat="44.43441" lon="1.11103">
        <ele>199.951492</ele>
        <time>2019-08-17T14:54:11Z</time>
      </trkpt>
      <trkpt lat="44.43441" lon="1.111">
        <ele>200.158997</ele>
        <time>2019-08-17T14:54:12Z</time>
      </trkpt>
      <trkpt lat="44.43442" lon="1.11096">
        <ele>200.378616</ele>
        <time>2019-08-17T14:54:13Z</time>
      </trkpt>
      <trkpt lat="44.43443" lon="1.11092">
        <ele>200.606857</ele>
        <time>2019-08-17T14:54:14Z</time>
      </trkpt>
      <trkpt lat="44.43444" lon="1.11089">
        <ele>200.847229</ele>
        <time>2019-08-17T14:54:15Z</time>
      </trkpt>
      <trkpt lat="44.43444" lon="1.11084">
        <ele>201.117111</ele>
        <time>2019-08-17T14:54:16Z</time>
      </trkpt>
      <trkpt lat="44.43443" lon="1.1108">
        <ele>201.380127</ele>
        <time>2019-08-17T14:54:17Z</time>
      </trkpt>
      <trkpt lat="44.43443" lon="1.11077">
        <ele>201.670578</ele>
        <time>2019-08-17T14:54:18Z</time>
      </trkpt>
      <trkpt lat="44.43442" lon="1.11073">
        <ele>201.975266</ele>
        <time>2019-08-17T14:54:19Z</time>
      </trkpt>
      <trkpt lat="44.4344" lon="1.11069">
        <ele>202.286987</ele>
        <time>2019-08-17T14:54:20Z</time>
      </trkpt>
      <trkpt lat="44.43439" lon="1.11066">
        <ele>202.286987</ele>
        <time>2019-08-17T14:54:21Z</time>
      </trkpt>
      <trkpt lat="44.43437" lon="1.11062">
        <ele>202.595535</ele>
        <time>2019-08-17T14:54:22Z</time>
      </trkpt>
      <trkpt lat="44.43436" lon="1.11059">
        <ele>202.873459</ele>
        <time>2019-08-17T14:54:23Z</time>
      </trkpt>
      <trkpt lat="44.43435" lon="1.11055">
        <ele>203.119461</ele>
        <time>2019-08-17T14:54:24Z</time>
      </trkpt>
      <trkpt lat="44.43435" lon="1.11051">
        <ele>203.315842</ele>
        <time>2019-08-17T14:54:25Z</time>
      </trkpt>
      <trkpt lat="44.43435" lon="1.11047">
        <ele>203.315842</ele>
        <time>2019-08-17T14:54:26Z</time>
      </trkpt>
      <trkpt lat="44.43435" lon="1.11043">
        <ele>203.473145</ele>
        <time>2019-08-17T14:54:27Z</time>
      </trkpt>
      <trkpt lat="44.43435" lon="1.11039">
        <ele>203.617264</ele>
        <time>2019-08-17T14:54:28Z</time>
      </trkpt>
      <trkpt lat="44.43434" lon="1.11035">
        <ele>203.617264</ele>
        <time>2019-08-17T14:54:29Z</time>
      </trkpt>
      <trkpt lat="44.43434" lon="1.11031">
        <ele>203.824463</ele>
        <time>2019-08-17T14:54:30Z</time>
      </trkpt>
      <trkpt lat="44.43433" lon="1.11027">
        <ele>204.048752</ele>
        <time>2019-08-17T14:54:31Z</time>
      </trkpt>
      <trkpt lat="44.43433" lon="1.11023">
        <ele>204.048752</ele>
        <time>2019-08-17T14:54:32Z</time>
      </trkpt>
      <trkpt lat="44.43433" lon="1.1102">
        <ele>204.33667</ele>
        <time>2019-08-17T14:54:33Z</time>
      </trkpt>
      <trkpt lat="44.43433" lon="1.11016">
        <ele>204.654709</ele>
        <time>2019-08-17T14:54:34Z</time>
      </trkpt>
      <trkpt lat="44.43433" lon="1.11013">
        <ele>205.03302</ele>
        <time>2019-08-17T14:54:35Z</time>
      </trkpt>
      <trkpt lat="44.43434" lon="1.1101">
        <ele>205.03302</ele>
        <time>2019-08-17T14:54:36Z</time>
      </trkpt>
      <trkpt lat="44.43435" lon="1.11008">
        <ele>205.426559</ele>
        <time>2019-08-17T14:54:37Z</time>
      </trkpt>
      <trkpt lat="44.43436" lon="1.11005">
        <ele>205.770386</ele>
        <time>2019-08-17T14:54:38Z</time>
      </trkpt>
      <trkpt lat="44.43438" lon="1.11002">
        <ele>206.164856</ele>
        <time>2019-08-17T14:54:39Z</time>
      </trkpt>
      <trkpt lat="44.43439" lon="1.11">
        <ele>206.520752</ele>
        <time>2019-08-17T14:54:40Z</time>
      </trkpt>
      <trkpt lat="44.4344" lon="1.10998">
        <ele>206.520752</ele>
        <time>2019-08-17T14:54:41Z</time>
      </trkpt>
      <trkpt lat="44.43441" lon="1.10996">
        <ele>206.891357</ele>
        <time>2019-08-17T14:54:42Z</time>
      </trkpt>
      <trkpt lat="44.43444" lon="1.10994">
        <ele>207.245056</ele>
        <time>2019-08-17T14:54:43Z</time>
      </trkpt>
      <trkpt lat="44.43446" lon="1.10992">
        <ele>207.660446</ele>
        <time>2019-08-17T14:54:44Z</time>
      </trkpt>
      <trkpt lat="44.43448" lon="1.1099">
        <ele>208.093307</ele>
        <time>2019-08-17T14:54:45Z</time>
      </trkpt>
      <trkpt lat="44.43451" lon="1.10988">
        <ele>208.498169</ele>
        <time>2019-08-17T14:54:46Z</time>
      </trkpt>
      <trkpt lat="44.43453" lon="1.10987">
        <ele>208.918015</ele>
        <time>2019-08-17T14:54:47Z</time>
      </trkpt>
      <trkpt lat="44.43455" lon="1.10986">
        <ele>208.918015</ele>
        <time>2019-08-17T14:54:48Z</time>
      </trkpt>
      <trkpt lat="44.43457" lon="1.10985">
        <ele>209.355576</ele>
        <time>2019-08-17T14:54:49Z</time>
      </trkpt>
      <trkpt lat="44.4346" lon="1.10984">
        <ele>209.807938</ele>
        <time>2019-08-17T14:54:50Z</time>
      </trkpt>
      <trkpt lat="44.43462" lon="1.10983">
        <ele>210.275711</ele>
        <time>2019-08-17T14:54:51Z</time>
      </trkpt>
      <trkpt lat="44.43465" lon="1.10982">
        <ele>210.747238</ele>
        <time>2019-08-17T14:54:52Z</time>
      </trkpt>
      <trkpt lat="44.43468" lon="1.1098">
        <ele>211.220291</ele>
        <time>2019-08-17T14:54:53Z</time>
      </trkpt>
      <trkpt lat="44.43471" lon="1.10979">
        <ele>211.693115</ele>
        <time>2019-08-17T14:54:54Z</time>
      </trkpt>
      <trkpt lat="44.43474" lon="1.10977">
        <ele>212.167526</ele>
        <time>2019-08-17T14:54:55Z</time>
      </trkpt>
      <trkpt lat="44.43476" lon="1.10976">
        <ele>212.650192</ele>
        <time>2019-08-17T14:54:56Z</time>
      </trkpt>
      <trkpt lat="44.43479" lon="1.10975">
        <ele>213.08696</ele>
        <time>2019-08-17T14:54:57Z</time>
      </trkpt>
      <trkpt lat="44.43481" lon="1.10974">
        <ele>213.534439</ele>
        <time>2019-08-17T14:54:58Z</time>
      </trkpt>
      <trkpt lat="44.43484" lon="1.10972">
        <ele>213.982254</ele>
        <time>2019-08-17T14:54:59Z</time>
      </trkpt>
      <trkpt lat="44.43486" lon="1.10971">
        <ele>214.434311</ele>
        <time>2019-08-17T14:55:00Z</time>
      </trkpt>
      <trkpt lat="44.43489" lon="1.10969">
        <ele>214.886612</ele>
        <time>2019-08-17T14:55:01Z</time>
      </trkpt>
      <trkpt lat="44.43492" lon="1.10968">
        <ele>215.332657</ele>
        <time>2019-08-17T14:55:02Z</time>
      </trkpt>
      <trkpt lat="44.43494" lon="1.10966">
        <ele>215.776901</ele>
        <time>2019-08-17T14:55:03Z</time>
      </trkpt>
      <trkpt lat="44.43496" lon="1.10963">
        <ele>216.223862</ele>
        <time>2019-08-17T14:55:04Z</time>
      </trkpt>
      <trkpt lat="44.43498" lon="1.1096">
        <ele>216.699356</ele>
        <time>2019-08-17T14:55:05Z</time>
      </trkpt>
      <trkpt lat="44.43499" lon="1.10956">
        <ele>216.699356</ele>
        <time>2019-08-17T14:55:06Z</time>
      </trkpt>
      <trkpt lat="44.43499" lon="1.10952">
        <ele>217.20575</ele>
        <time>2019-08-17T14:55:07Z</time>
      </trkpt>
      <trkpt lat="44.43498" lon="1.10948">
        <ele>217.737259</ele>
        <time>2019-08-17T14:55:08Z</time>
      </trkpt>
      <trkpt lat="44.43496" lon="1.10944">
        <ele>218.304855</ele>
        <time>2019-08-17T14:55:09Z</time>
      </trkpt>
      <trkpt lat="44.43495" lon="1.10939">
        <ele>218.786133</ele>
        <time>2019-08-17T14:55:10Z</time>
      </trkpt>
      <trkpt lat="44.43493" lon="1.10935">
        <ele>219.158981</ele>
        <time>2019-08-17T14:55:11Z</time>
      </trkpt>
      <trkpt lat="44.43491" lon="1.10931">
        <ele>219.158981</ele>
        <time>2019-08-17T14:55:12Z</time>
      </trkpt>
      <trkpt lat="44.43489" lon="1.10926">
        <ele>219.374924</ele>
        <time>2019-08-17T14:55:13Z</time>
      </trkpt>
      <trkpt lat="44.43488" lon="1.10922">
        <ele>219.459106</ele>
        <time>2019-08-17T14:55:14Z</time>
      </trkpt>
      <trkpt lat="44.43486" lon="1.10917">
        <ele>219.459106</ele>
        <time>2019-08-17T14:55:15Z</time>
      </trkpt>
      <trkpt lat="44.43484" lon="1.10912">
        <ele>219.459106</ele>
        <time>2019-08-17T14:55:16Z</time>
      </trkpt>
      <trkpt lat="44.43482" lon="1.10907">
        <ele>219.431717</ele>
        <time>2019-08-17T14:55:17Z</time>
      </trkpt>
      <trkpt lat="44.43481" lon="1.10903">
        <ele>219.275711</ele>
        <time>2019-08-17T14:55:18Z</time>
      </trkpt>
      <trkpt lat="44.43479" lon="1.10898">
        <ele>219.11377</ele>
        <time>2019-08-17T14:55:19Z</time>
      </trkpt>
      <trkpt lat="44.43478" lon="1.10893">
        <ele>218.963623</ele>
        <time>2019-08-17T14:55:20Z</time>
      </trkpt>
      <trkpt lat="44.43476" lon="1.10888">
        <ele>218.862793</ele>
        <time>2019-08-17T14:55:21Z</time>
      </trkpt>
      <trkpt lat="44.43475" lon="1.10884">
        <ele>218.780106</ele>
        <time>2019-08-17T14:55:22Z</time>
      </trkpt>
      <trkpt lat="44.43474" lon="1.10879">
        <ele>218.708359</ele>
        <time>2019-08-17T14:55:23Z</time>
      </trkpt>
      <trkpt lat="44.43473" lon="1.10875">
        <ele>218.666794</ele>
        <time>2019-08-17T14:55:24Z</time>
      </trkpt>
      <trkpt lat="44.43472" lon="1.10871">
        <ele>218.648376</ele>
        <time>2019-08-17T14:55:25Z</time>
      </trkpt>
      <trkpt lat="44.4347" lon="1.10868">
        <ele>218.648376</ele>
        <time>2019-08-17T14:55:26Z</time>
      </trkpt>
      <trkpt lat="44.43469" lon="1.10864">
        <ele>218.648376</ele>
        <time>2019-08-17T14:55:27Z</time>
      </trkpt>
      <trkpt lat="44.43467" lon="1.10859">
        <ele>218.648376</ele>
        <time>2019-08-17T14:55:28Z</time>
      </trkpt>
      <trkpt lat="44.43466" lon="1.10855">
        <ele>218.649918</ele>
        <time>2019-08-17T14:55:29Z</time>
      </trkpt>
      <trkpt lat="44.43465" lon="1.10851">
        <ele>218.664017</ele>
        <time>2019-08-17T14:55:30Z</time>
      </trkpt>
      <trkpt lat="44.43463" lon="1.10847">
        <ele>218.692856</ele>
        <time>2019-08-17T14:55:31Z</time>
      </trkpt>
      <trkpt lat="44.43462" lon="1.10844">
        <ele>218.727036</ele>
        <time>2019-08-17T14:55:32Z</time>
      </trkpt>
      <trkpt lat="44.43461" lon="1.1084">
        <ele>218.760254</ele>
        <time>2019-08-17T14:55:33Z</time>
      </trkpt>
      <trkpt lat="44.43457" lon="1.10835">
        <ele>218.794601</ele>
        <time>2019-08-17T14:55:34Z</time>
      </trkpt>
      <trkpt lat="44.43454" lon="1.10833">
        <ele>218.805908</ele>
        <time>2019-08-17T14:55:35Z</time>
      </trkpt>
      <trkpt lat="44.43449" lon="1.10832">
        <ele>218.805908</ele>
        <time>2019-08-17T14:55:36Z</time>
      </trkpt>
      <trkpt lat="44.43444" lon="1.1083">
        <ele>218.805908</ele>
        <time>2019-08-17T14:55:37Z</time>
      </trkpt>
      <trkpt lat="44.43438" lon="1.10828">
        <ele>218.760376</ele>
        <time>2019-08-17T14:55:38Z</time>
      </trkpt>
      <trkpt lat="44.43433" lon="1.10824">
        <ele>218.62471</ele>
        <time>2019-08-17T14:55:39Z</time>
      </trkpt>
      <trkpt lat="44.4343" lon="1.10819">
        <ele>218.393997</ele>
        <time>2019-08-17T14:55:40Z</time>
      </trkpt>
      <trkpt lat="44.43426" lon="1.10812">
        <ele>218.393997</ele>
        <time>2019-08-17T14:55:41Z</time>
      </trkpt>
      <trkpt lat="44.43422" lon="1.10805">
        <ele>218.313431</ele>
        <time>2019-08-17T14:55:42Z</time>
      </trkpt>
      <trkpt lat="44.43418" lon="1.10799">
        <ele>218.316711</ele>
        <time>2019-08-17T14:55:43Z</time>
      </trkpt>
      <trkpt lat="44.43415" lon="1.10794">
        <ele>218.316711</ele>
        <time>2019-08-17T14:55:44Z</time>
      </trkpt>
      <trkpt lat="44.43412" lon="1.10791">
        <ele>218.406021</ele>
        <time>2019-08-17T14:55:45Z</time>
      </trkpt>
      <trkpt lat="44.43409" lon="1.10788">
        <ele>218.704712</ele>
        <time>2019-08-17T14:55:46Z</time>
      </trkpt>
      <trkpt lat="44.43407" lon="1.10786">
        <ele>219.209976</ele>
        <time>2019-08-17T14:55:47Z</time>
      </trkpt>
      <trkpt lat="44.43405" lon="1.10783">
        <ele>219.910477</ele>
        <time>2019-08-17T14:55:48Z</time>
      </trkpt>
      <trkpt lat="44.43404" lon="1.10781">
        <ele>220.790573</ele>
        <time>2019-08-17T14:55:49Z</time>
      </trkpt>
      <trkpt lat="44.43401" lon="1.10778">
        <ele>221.582626</ele>
        <time>2019-08-17T14:55:50Z</time>
      </trkpt>
      <trkpt lat="44.434" lon="1.10776">
        <ele>222.27948</ele>
        <time>2019-08-17T14:55:51Z</time>
      </trkpt>
      <trkpt lat="44.43398" lon="1.10774">
        <ele>222.860779</ele>
        <time>2019-08-17T14:55:52Z</time>
      </trkpt>
      <trkpt lat="44.43396" lon="1.10771">
        <ele>223.361328</ele>
        <time>2019-08-17T14:55:53Z</time>
      </trkpt>
      <trkpt lat="44.43394" lon="1.10769">
        <ele>223.82518</ele>
        <time>2019-08-17T14:55:54Z</time>
      </trkpt>
      <trkpt lat="44.43393" lon="1.10767">
        <ele>224.270325</ele>
        <time>2019-08-17T14:55:55Z</time>
      </trkpt>
      <trkpt lat="44.43391" lon="1.10765">
        <ele>224.705276</ele>
        <time>2019-08-17T14:55:56Z</time>
      </trkpt>
      <trkpt lat="44.43389" lon="1.10762">
        <ele>225.117798</ele>
        <time>2019-08-17T14:55:57Z</time>
      </trkpt>
      <trkpt lat="44.43387" lon="1.1076">
        <ele>225.528824</ele>
        <time>2019-08-17T14:55:58Z</time>
      </trkpt>
      <trkpt lat="44.43385" lon="1.10758">
        <ele>225.936279</ele>
        <time>2019-08-17T14:55:59Z</time>
      </trkpt>
      <trkpt lat="44.43384" lon="1.10756">
        <ele>226.335922</ele>
        <time>2019-08-17T14:56:00Z</time>
      </trkpt>
      <trkpt lat="44.43382" lon="1.10753">
        <ele>226.727356</ele>
        <time>2019-08-17T14:56:01Z</time>
      </trkpt>
      <trkpt lat="44.4338" lon="1.10751">
        <ele>226.727356</ele>
        <time>2019-08-17T14:56:02Z</time>
      </trkpt>
      <trkpt lat="44.43378" lon="1.10749">
        <ele>227.110718</ele>
        <time>2019-08-17T14:56:03Z</time>
      </trkpt>
      <trkpt lat="44.43377" lon="1.10747">
        <ele>227.500229</ele>
        <time>2019-08-17T14:56:04Z</time>
      </trkpt>
      <trkpt lat="44.43374" lon="1.10745">
        <ele>227.957321</ele>
        <time>2019-08-17T14:56:05Z</time>
      </trkpt>
      <trkpt lat="44.43372" lon="1.10743">
        <ele>228.399597</ele>
        <time>2019-08-17T14:56:06Z</time>
      </trkpt>
      <trkpt lat="44.4337" lon="1.10741">
        <ele>228.822937</ele>
        <time>2019-08-17T14:56:07Z</time>
      </trkpt>
      <trkpt lat="44.43368" lon="1.10739">
        <ele>229.233932</ele>
        <time>2019-08-17T14:56:08Z</time>
      </trkpt>
      <trkpt lat="44.43366" lon="1.10737">
        <ele>229.643478</ele>
        <time>2019-08-17T14:56:09Z</time>
      </trkpt>
      <trkpt lat="44.43364" lon="1.10735">
        <ele>230.03833</ele>
        <time>2019-08-17T14:56:10Z</time>
      </trkpt>
      <trkpt lat="44.43362" lon="1.10733">
        <ele>230.34552</ele>
        <time>2019-08-17T14:56:11Z</time>
      </trkpt>
      <trkpt lat="44.43361" lon="1.10732">
        <ele>230.651489</ele>
        <time>2019-08-17T14:56:12Z</time>
      </trkpt>
      <trkpt lat="44.43359" lon="1.10731">
        <ele>230.962234</ele>
        <time>2019-08-17T14:56:13Z</time>
      </trkpt>
      <trkpt lat="44.43357" lon="1.10729">
        <ele>231.264114</ele>
        <time>2019-08-17T14:56:14Z</time>
      </trkpt>
      <trkpt lat="44.43355" lon="1.10728">
        <ele>231.528732</ele>
        <time>2019-08-17T14:56:15Z</time>
      </trkpt>
      <trkpt lat="44.43353" lon="1.10726">
        <ele>231.758667</ele>
        <time>2019-08-17T14:56:16Z</time>
      </trkpt>
      <trkpt lat="44.43351" lon="1.10724">
        <ele>231.961502</ele>
        <time>2019-08-17T14:56:17Z</time>
      </trkpt>
      <trkpt lat="44.4335" lon="1.10722">
        <ele>232.134598</ele>
        <time>2019-08-17T14:56:18Z</time>
      </trkpt>
      <trkpt lat="44.43348" lon="1.1072">
        <ele>232.290222</ele>
        <time>2019-08-17T14:56:19Z</time>
      </trkpt>
      <trkpt lat="44.43347" lon="1.10718">
        <ele>232.453552</ele>
        <time>2019-08-17T14:56:20Z</time>
      </trkpt>
      <trkpt lat="44.43345" lon="1.10714">
        <ele>232.650635</ele>
        <time>2019-08-17T14:56:21Z</time>
      </trkpt>
      <trkpt lat="44.43345" lon="1.10712">
        <ele>232.896423</ele>
        <time>2019-08-17T14:56:22Z</time>
      </trkpt>
      <trkpt lat="44.43344" lon="1.10709">
        <ele>233.181625</ele>
        <time>2019-08-17T14:56:23Z</time>
      </trkpt>
      <trkpt lat="44.43343" lon="1.10707">
        <ele>233.531204</ele>
        <time>2019-08-17T14:56:24Z</time>
      </trkpt>
      <trkpt lat="44.43344" lon="1.10704">
        <ele>233.919113</ele>
        <time>2019-08-17T14:56:25Z</time>
      </trkpt>
      <trkpt lat="44.43345" lon="1.10702">
        <ele>234.328491</ele>
        <time>2019-08-17T14:56:26Z</time>
      </trkpt>
      <trkpt lat="44.43346" lon="1.10701">
        <ele>234.328491</ele>
        <time>2019-08-17T14:56:27Z</time>
      </trkpt>
      <trkpt lat="44.43353" lon="1.10692">
        <ele>237.943527</ele>
        <time>2019-08-17T14:57:04Z</time>
      </trkpt>
      <trkpt lat="44.43353" lon="1.1069">
        <ele>238.15416</ele>
        <time>2019-08-17T14:57:06Z</time>
      </trkpt>
      <trkpt lat="44.43353" lon="1.10689">
        <ele>238.15416</ele>
        <time>2019-08-17T14:57:07Z</time>
      </trkpt>
      <trkpt lat="44.43352" lon="1.10688">
        <ele>238.395447</ele>
        <time>2019-08-17T14:57:08Z</time>
      </trkpt>
      <trkpt lat="44.43352" lon="1.10687">
        <ele>238.649902</ele>
        <time>2019-08-17T14:57:09Z</time>
      </trkpt>
      <trkpt lat="44.43352" lon="1.10686">
        <ele>238.649902</ele>
        <time>2019-08-17T14:57:10Z</time>
      </trkpt>
      <trkpt lat="44.43353" lon="1.10685">
        <ele>238.93306</ele>
        <time>2019-08-17T14:57:11Z</time>
      </trkpt>
      <trkpt lat="44.43353" lon="1.10684">
        <ele>239.190857</ele>
        <time>2019-08-17T14:57:12Z</time>
      </trkpt>
      <trkpt lat="44.43353" lon="1.10683">
        <ele>239.450256</ele>
        <time>2019-08-17T14:57:13Z</time>
      </trkpt>
      <trkpt lat="44.43353" lon="1.10682">
        <ele>239.450256</ele>
        <time>2019-08-17T14:57:14Z</time>
      </trkpt>
      <trkpt lat="44.43354" lon="1.10681">
        <ele>239.696365</ele>
        <time>2019-08-17T14:57:15Z</time>
      </trkpt>
      <trkpt lat="44.43354" lon="1.1068">
        <ele>239.925354</ele>
        <time>2019-08-17T14:57:16Z</time>
      </trkpt>
      <trkpt lat="44.43355" lon="1.10679">
        <ele>239.925354</ele>
        <time>2019-08-17T14:57:17Z</time>
      </trkpt>
      <trkpt lat="44.43355" lon="1.10678">
        <ele>240.137711</ele>
        <time>2019-08-17T14:57:18Z</time>
      </trkpt>
      <trkpt lat="44.43356" lon="1.10677">
        <ele>240.285629</ele>
        <time>2019-08-17T14:57:19Z</time>
      </trkpt>
      <trkpt lat="44.43356" lon="1.10676">
        <ele>240.45488</ele>
        <time>2019-08-17T14:57:20Z</time>
      </trkpt>
      <trkpt lat="44.43357" lon="1.10675">
        <ele>240.604996</ele>
        <time>2019-08-17T14:57:21Z</time>
      </trkpt>
      <trkpt lat="44.43357" lon="1.10674">
        <ele>240.754807</ele>
        <time>2019-08-17T14:57:22Z</time>
      </trkpt>
      <trkpt lat="44.43358" lon="1.10673">
        <ele>240.904739</ele>
        <time>2019-08-17T14:57:23Z</time>
      </trkpt>
      <trkpt lat="44.43358" lon="1.10671">
        <ele>241.038651</ele>
        <time>2019-08-17T14:57:24Z</time>
      </trkpt>
      <trkpt lat="44.43358" lon="1.1067">
        <ele>241.172363</ele>
        <time>2019-08-17T14:57:25Z</time>
      </trkpt>
      <trkpt lat="44.43358" lon="1.1067">
        <ele>241.279007</ele>
        <time>2019-08-17T14:57:26Z</time>
      </trkpt>
      <trkpt lat="44.43359" lon="1.10669">
        <ele>241.385483</ele>
        <time>2019-08-17T14:57:27Z</time>
      </trkpt>
      <trkpt lat="44.43359" lon="1.10668">
        <ele>241.489914</ele>
        <time>2019-08-17T14:57:28Z</time>
      </trkpt>
      <trkpt lat="44.4336" lon="1.10667">
        <ele>241.489914</ele>
        <time>2019-08-17T14:57:29Z</time>
      </trkpt>
      <trkpt lat="44.4336" lon="1.10666">
        <ele>241.592148</ele>
        <time>2019-08-17T14:57:30Z</time>
      </trkpt>
      <trkpt lat="44.43361" lon="1.10665">
        <ele>241.693863</ele>
        <time>2019-08-17T14:57:31Z</time>
      </trkpt>
      <trkpt lat="44.43361" lon="1.10664">
        <ele>241.693863</ele>
        <time>2019-08-17T14:57:32Z</time>
      </trkpt>
      <trkpt lat="44.43361" lon="1.10663">
        <ele>241.814392</ele>
        <time>2019-08-17T14:57:33Z</time>
      </trkpt>
      <trkpt lat="44.43361" lon="1.10662">
        <ele>241.934982</ele>
        <time>2019-08-17T14:57:34Z</time>
      </trkpt>
      <trkpt lat="44.43361" lon="1.1066">
        <ele>242.065979</ele>
        <time>2019-08-17T14:57:35Z</time>
      </trkpt>
      <trkpt lat="44.43362" lon="1.10659">
        <ele>242.196823</ele>
        <time>2019-08-17T14:57:36Z</time>
      </trkpt>
      <trkpt lat="44.43362" lon="1.10658">
        <ele>242.330307</ele>
        <time>2019-08-17T14:57:37Z</time>
      </trkpt>
      <trkpt lat="44.43362" lon="1.10658">
        <ele>242.467163</ele>
        <time>2019-08-17T14:57:38Z</time>
      </trkpt>
      <trkpt lat="44.43363" lon="1.10656">
        <ele>242.702591</ele>
        <time>2019-08-17T14:57:39Z</time>
      </trkpt>
      <trkpt lat="44.43364" lon="1.10655">
        <ele>242.801941</ele>
        <time>2019-08-17T14:57:41Z</time>
      </trkpt>
      <trkpt lat="44.43364" lon="1.10654">
        <ele>242.897522</ele>
        <time>2019-08-17T14:57:42Z</time>
      </trkpt>
      <trkpt lat="44.43364" lon="1.10653">
        <ele>242.989792</ele>
        <time>2019-08-17T14:57:43Z</time>
      </trkpt>
      <trkpt lat="44.43364" lon="1.10652">
        <ele>242.989792</ele>
        <time>2019-08-17T14:57:44Z</time>
      </trkpt>
      <trkpt lat="44.43365" lon="1.10651">
        <ele>243.082291</ele>
        <time>2019-08-17T14:57:45Z</time>
      </trkpt>
      <trkpt lat="44.43365" lon="1.10649">
        <ele>243.172012</ele>
        <time>2019-08-17T14:57:46Z</time>
      </trkpt>
      <trkpt lat="44.43365" lon="1.10648">
        <ele>243.277573</ele>
        <time>2019-08-17T14:57:47Z</time>
      </trkpt>
      <trkpt lat="44.43366" lon="1.10647">
        <ele>243.391068</ele>
        <time>2019-08-17T14:57:48Z</time>
      </trkpt>
      <trkpt lat="44.43366" lon="1.10645">
        <ele>243.50975</ele>
        <time>2019-08-17T14:57:49Z</time>
      </trkpt>
      <trkpt lat="44.43366" lon="1.10644">
        <ele>243.629318</ele>
        <time>2019-08-17T14:57:50Z</time>
      </trkpt>
      <trkpt lat="44.43367" lon="1.10643">
        <ele>243.752884</ele>
        <time>2019-08-17T14:57:51Z</time>
      </trkpt>
      <trkpt lat="44.43367" lon="1.10642">
        <ele>243.878906</ele>
        <time>2019-08-17T14:57:52Z</time>
      </trkpt>
      <trkpt lat="44.43368" lon="1.10641">
        <ele>243.992722</ele>
        <time>2019-08-17T14:57:53Z</time>
      </trkpt>
      <trkpt lat="44.43374" lon="1.10629">
        <ele>244.875443</ele>
        <time>2019-08-17T14:58:04Z</time>
      </trkpt>
      <trkpt lat="44.43374" lon="1.10626">
        <ele>245.019241</ele>
        <time>2019-08-17T14:58:06Z</time>
      </trkpt>
      <trkpt lat="44.43375" lon="1.10625">
        <ele>245.199783</ele>
        <time>2019-08-17T14:58:07Z</time>
      </trkpt>
      <trkpt lat="44.43377" lon="1.10623">
        <ele>245.395264</ele>
        <time>2019-08-17T14:58:08Z</time>
      </trkpt>
      <trkpt lat="44.43377" lon="1.10622">
        <ele>245.601822</ele>
        <time>2019-08-17T14:58:09Z</time>
      </trkpt>
      <trkpt lat="44.43377" lon="1.10621">
        <ele>245.805542</ele>
        <time>2019-08-17T14:58:10Z</time>
      </trkpt>
      <trkpt lat="44.43378" lon="1.1062">
        <ele>246.00264</ele>
        <time>2019-08-17T14:58:11Z</time>
      </trkpt>
      <trkpt lat="44.43378" lon="1.10619">
        <ele>246.187454</ele>
        <time>2019-08-17T14:58:12Z</time>
      </trkpt>
      <trkpt lat="44.43378" lon="1.10618">
        <ele>246.352493</ele>
        <time>2019-08-17T14:58:13Z</time>
      </trkpt>
      <trkpt lat="44.43378" lon="1.10617">
        <ele>246.497726</ele>
        <time>2019-08-17T14:58:14Z</time>
      </trkpt>
      <trkpt lat="44.43378" lon="1.10616">
        <ele>246.497726</ele>
        <time>2019-08-17T14:58:15Z</time>
      </trkpt>
      <trkpt lat="44.43372" lon="1.10607">
        <ele>246.956589</ele>
        <time>2019-08-17T14:58:24Z</time>
      </trkpt>
      <trkpt lat="44.4337" lon="1.10603">
        <ele>246.948059</ele>
        <time>2019-08-17T14:58:26Z</time>
      </trkpt>
      <trkpt lat="44.43368" lon="1.10599">
        <ele>246.93811</ele>
        <time>2019-08-17T14:58:27Z</time>
      </trkpt>
      <trkpt lat="44.43366" lon="1.10596">
        <ele>246.9245</ele>
        <time>2019-08-17T14:58:28Z</time>
      </trkpt>
      <trkpt lat="44.43365" lon="1.10591">
        <ele>246.9245</ele>
        <time>2019-08-17T14:58:29Z</time>
      </trkpt>
      <trkpt lat="44.43363" lon="1.10587">
        <ele>246.9245</ele>
        <time>2019-08-17T14:58:30Z</time>
      </trkpt>
      <trkpt lat="44.43361" lon="1.10583">
        <ele>246.9245</ele>
        <time>2019-08-17T14:58:31Z</time>
      </trkpt>
      <trkpt lat="44.4336" lon="1.1058">
        <ele>246.9245</ele>
        <time>2019-08-17T14:58:32Z</time>
      </trkpt>
      <trkpt lat="44.43358" lon="1.10576">
        <ele>246.926254</ele>
        <time>2019-08-17T14:58:33Z</time>
      </trkpt>
      <trkpt lat="44.43357" lon="1.10573">
        <ele>246.940079</ele>
        <time>2019-08-17T14:58:34Z</time>
      </trkpt>
      <trkpt lat="44.43355" lon="1.10569">
        <ele>246.980392</ele>
        <time>2019-08-17T14:58:35Z</time>
      </trkpt>
      <trkpt lat="44.43354" lon="1.10566">
        <ele>247.030991</ele>
        <time>2019-08-17T14:58:36Z</time>
      </trkpt>
      <trkpt lat="44.43352" lon="1.10563">
        <ele>247.030991</ele>
        <time>2019-08-17T14:58:37Z</time>
      </trkpt>
      <trkpt lat="44.43351" lon="1.1056">
        <ele>247.093002</ele>
        <time>2019-08-17T14:58:38Z</time>
      </trkpt>
      <trkpt lat="44.4335" lon="1.10558">
        <ele>247.166565</ele>
        <time>2019-08-17T14:58:39Z</time>
      </trkpt>
      <trkpt lat="44.43349" lon="1.10555">
        <ele>247.166565</ele>
        <time>2019-08-17T14:58:40Z</time>
      </trkpt>
      <trkpt lat="44.43348" lon="1.10552">
        <ele>247.244995</ele>
        <time>2019-08-17T14:58:41Z</time>
      </trkpt>
      <trkpt lat="44.43347" lon="1.10549">
        <ele>247.323471</ele>
        <time>2019-08-17T14:58:42Z</time>
      </trkpt>
      <trkpt lat="44.43347" lon="1.10546">
        <ele>247.398148</ele>
        <time>2019-08-17T14:58:43Z</time>
      </trkpt>
      <trkpt lat="44.43348" lon="1.10544">
        <ele>247.475403</ele>
        <time>2019-08-17T14:58:44Z</time>
      </trkpt>
      <trkpt lat="44.43348" lon="1.10541">
        <ele>247.555435</ele>
        <time>2019-08-17T14:58:45Z</time>
      </trkpt>
      <trkpt lat="44.43348" lon="1.10538">
        <ele>247.650452</ele>
        <time>2019-08-17T14:58:46Z</time>
      </trkpt>
      <trkpt lat="44.43348" lon="1.10536">
        <ele>247.746887</ele>
        <time>2019-08-17T14:58:47Z</time>
      </trkpt>
      <trkpt lat="44.43347" lon="1.10535">
        <ele>247.855057</ele>
        <time>2019-08-17T14:58:48Z</time>
      </trkpt>
      <trkpt lat="44.43347" lon="1.10533">
        <ele>247.965637</ele>
        <time>2019-08-17T14:58:49Z</time>
      </trkpt>
      <trkpt lat="44.43347" lon="1.10531">
        <ele>248.081604</ele>
        <time>2019-08-17T14:58:50Z</time>
      </trkpt>
      <trkpt lat="44.43348" lon="1.1053">
        <ele>248.192886</ele>
        <time>2019-08-17T14:58:51Z</time>
      </trkpt>
      <trkpt lat="44.43349" lon="1.10529">
        <ele>248.290237</ele>
        <time>2019-08-17T14:58:52Z</time>
      </trkpt>
      <trkpt lat="44.4335" lon="1.10528">
        <ele>248.38147</ele>
        <time>2019-08-17T14:58:53Z</time>
      </trkpt>
      <trkpt lat="44.4335" lon="1.10526">
        <ele>248.466202</ele>
        <time>2019-08-17T14:58:54Z</time>
      </trkpt>
      <trkpt lat="44.43349" lon="1.10525">
        <ele>248.466202</ele>
        <time>2019-08-17T14:58:55Z</time>
      </trkpt>
      <trkpt lat="44.43348" lon="1.10526">
        <ele>248.547729</ele>
        <time>2019-08-17T14:58:56Z</time>
      </trkpt>
      <trkpt lat="44.43346" lon="1.10528">
        <ele>248.625961</ele>
        <time>2019-08-17T14:58:57Z</time>
      </trkpt>
      <trkpt lat="44.43345" lon="1.10531">
        <ele>248.666626</ele>
        <time>2019-08-17T14:58:58Z</time>
      </trkpt>
      <trkpt lat="44.43344" lon="1.10534">
        <ele>248.668274</ele>
        <time>2019-08-17T14:58:59Z</time>
      </trkpt>
      <trkpt lat="44.43342" lon="1.10536">
        <ele>248.668274</ele>
        <time>2019-08-17T14:59:00Z</time>
      </trkpt>
      <trkpt lat="44.43339" lon="1.10537">
        <ele>248.668274</ele>
        <time>2019-08-17T14:59:01Z</time>
      </trkpt>
      <trkpt lat="44.43337" lon="1.10537">
        <ele>248.618484</ele>
        <time>2019-08-17T14:59:02Z</time>
      </trkpt>
      <trkpt lat="44.43334" lon="1.10538">
        <ele>248.518677</ele>
        <time>2019-08-17T14:59:03Z</time>
      </trkpt>
      <trkpt lat="44.43331" lon="1.10538">
        <ele>248.370178</ele>
        <time>2019-08-17T14:59:04Z</time>
      </trkpt>
      <trkpt lat="44.43328" lon="1.10539">
        <ele>248.181686</ele>
        <time>2019-08-17T14:59:05Z</time>
      </trkpt>
      <trkpt lat="44.43325" lon="1.10539">
        <ele>247.994873</ele>
        <time>2019-08-17T14:59:06Z</time>
      </trkpt>
      <trkpt lat="44.43321" lon="1.10539">
        <ele>247.806473</ele>
        <time>2019-08-17T14:59:07Z</time>
      </trkpt>
      <trkpt lat="44.43318" lon="1.10539">
        <ele>247.806473</ele>
        <time>2019-08-17T14:59:08Z</time>
      </trkpt>
      <trkpt lat="44.43315" lon="1.10537">
        <ele>247.620499</ele>
        <time>2019-08-17T14:59:09Z</time>
      </trkpt>
      <trkpt lat="44.43312" lon="1.10536">
        <ele>247.436172</ele>
        <time>2019-08-17T14:59:10Z</time>
      </trkpt>
      <trkpt lat="44.43308" lon="1.10535">
        <ele>247.22612</ele>
        <time>2019-08-17T14:59:11Z</time>
      </trkpt>
      <trkpt lat="44.43304" lon="1.10534">
        <ele>247.025375</ele>
        <time>2019-08-17T14:59:12Z</time>
      </trkpt>
      <trkpt lat="44.43301" lon="1.10532">
        <ele>246.831528</ele>
        <time>2019-08-17T14:59:13Z</time>
      </trkpt>
      <trkpt lat="44.43298" lon="1.1053">
        <ele>246.644638</ele>
        <time>2019-08-17T14:59:14Z</time>
      </trkpt>
      <trkpt lat="44.43294" lon="1.10528">
        <ele>246.46785</ele>
        <time>2019-08-17T14:59:15Z</time>
      </trkpt>
      <trkpt lat="44.4329" lon="1.10526">
        <ele>246.306198</ele>
        <time>2019-08-17T14:59:16Z</time>
      </trkpt>
      <trkpt lat="44.43287" lon="1.10524">
        <ele>246.190842</ele>
        <time>2019-08-17T14:59:17Z</time>
      </trkpt>
      <trkpt lat="44.43284" lon="1.10521">
        <ele>246.081848</ele>
        <time>2019-08-17T14:59:18Z</time>
      </trkpt>
      <trkpt lat="44.4328" lon="1.10519">
        <ele>245.982788</ele>
        <time>2019-08-17T14:59:19Z</time>
      </trkpt>
      <trkpt lat="44.43277" lon="1.10516">
        <ele>245.898132</ele>
        <time>2019-08-17T14:59:20Z</time>
      </trkpt>
      <trkpt lat="44.43274" lon="1.10513">
        <ele>245.833389</ele>
        <time>2019-08-17T14:59:21Z</time>
      </trkpt>
      <trkpt lat="44.4327" lon="1.1051">
        <ele>245.792557</ele>
        <time>2019-08-17T14:59:22Z</time>
      </trkpt>
      <trkpt lat="44.43267" lon="1.10506">
        <ele>245.775375</ele>
        <time>2019-08-17T14:59:23Z</time>
      </trkpt>
      <trkpt lat="44.43264" lon="1.10502">
        <ele>245.775375</ele>
        <time>2019-08-17T14:59:24Z</time>
      </trkpt>
      <trkpt lat="44.4326" lon="1.10498">
        <ele>245.775375</ele>
        <time>2019-08-17T14:59:25Z</time>
      </trkpt>
      <trkpt lat="44.43256" lon="1.10495">
        <ele>245.785721</ele>
        <time>2019-08-17T14:59:26Z</time>
      </trkpt>
      <trkpt lat="44.43253" lon="1.10491">
        <ele>245.82637</ele>
        <time>2019-08-17T14:59:27Z</time>
      </trkpt>
      <trkpt lat="44.43249" lon="1.10487">
        <ele>245.89949</ele>
        <time>2019-08-17T14:59:28Z</time>
      </trkpt>
      <trkpt lat="44.43245" lon="1.10484">
        <ele>245.997681</ele>
        <time>2019-08-17T14:59:29Z</time>
      </trkpt>
      <trkpt lat="44.4324" lon="1.10481">
        <ele>246.110947</ele>
        <time>2019-08-17T14:59:30Z</time>
      </trkpt>
      <trkpt lat="44.43236" lon="1.10478">
        <ele>246.233414</ele>
        <time>2019-08-17T14:59:31Z</time>
      </trkpt>
      <trkpt lat="44.43231" lon="1.10475">
        <ele>246.233414</ele>
        <time>2019-08-17T14:59:32Z</time>
      </trkpt>
      <trkpt lat="44.43227" lon="1.10473">
        <ele>246.360352</ele>
        <time>2019-08-17T14:59:33Z</time>
      </trkpt>
      <trkpt lat="44.43222" lon="1.1047">
        <ele>246.487228</ele>
        <time>2019-08-17T14:59:34Z</time>
      </trkpt>
      <trkpt lat="44.43217" lon="1.10468">
        <ele>246.600235</ele>
        <time>2019-08-17T14:59:35Z</time>
      </trkpt>
      <trkpt lat="44.43213" lon="1.10465">
        <ele>246.691849</ele>
        <time>2019-08-17T14:59:36Z</time>
      </trkpt>
      <trkpt lat="44.43208" lon="1.10463">
        <ele>246.762085</ele>
        <time>2019-08-17T14:59:37Z</time>
      </trkpt>
      <trkpt lat="44.43204" lon="1.1046">
        <ele>246.813736</ele>
        <time>2019-08-17T14:59:38Z</time>
      </trkpt>
      <trkpt lat="44.43199" lon="1.10457">
        <ele>246.848923</ele>
        <time>2019-08-17T14:59:39Z</time>
      </trkpt>
      <trkpt lat="44.43195" lon="1.10453">
        <ele>246.868423</ele>
        <time>2019-08-17T14:59:40Z</time>
      </trkpt>
      <trkpt lat="44.43191" lon="1.10449">
        <ele>246.890305</ele>
        <time>2019-08-17T14:59:41Z</time>
      </trkpt>
      <trkpt lat="44.43187" lon="1.10445">
        <ele>246.925827</ele>
        <time>2019-08-17T14:59:42Z</time>
      </trkpt>
      <trkpt lat="44.43184" lon="1.10441">
        <ele>246.979248</ele>
        <time>2019-08-17T14:59:43Z</time>
      </trkpt>
      <trkpt lat="44.4318" lon="1.10436">
        <ele>246.979248</ele>
        <time>2019-08-17T14:59:44Z</time>
      </trkpt>
      <trkpt lat="44.43176" lon="1.10431">
        <ele>247.060867</ele>
        <time>2019-08-17T14:59:45Z</time>
      </trkpt>
      <trkpt lat="44.43173" lon="1.10427">
        <ele>247.171616</ele>
        <time>2019-08-17T14:59:46Z</time>
      </trkpt>
      <trkpt lat="44.4317" lon="1.10422">
        <ele>247.346985</ele>
        <time>2019-08-17T14:59:47Z</time>
      </trkpt>
      <trkpt lat="44.43166" lon="1.10418">
        <ele>247.551773</ele>
        <time>2019-08-17T14:59:48Z</time>
      </trkpt>
      <trkpt lat="44.43163" lon="1.10414">
        <ele>247.784424</ele>
        <time>2019-08-17T14:59:49Z</time>
      </trkpt>
      <trkpt lat="44.4316" lon="1.10409">
        <ele>248.038086</ele>
        <time>2019-08-17T14:59:50Z</time>
      </trkpt>
      <trkpt lat="44.43156" lon="1.10405">
        <ele>248.299057</ele>
        <time>2019-08-17T14:59:51Z</time>
      </trkpt>
      <trkpt lat="44.43153" lon="1.10402">
        <ele>248.299057</ele>
        <time>2019-08-17T14:59:52Z</time>
      </trkpt>
      <trkpt lat="44.4315" lon="1.10398">
        <ele>248.568314</ele>
        <time>2019-08-17T14:59:53Z</time>
      </trkpt>
      <trkpt lat="44.43145" lon="1.10395">
        <ele>248.783371</ele>
        <time>2019-08-17T14:59:54Z</time>
      </trkpt>
      <trkpt lat="44.4314" lon="1.10393">
        <ele>248.957809</ele>
        <time>2019-08-17T14:59:55Z</time>
      </trkpt>
      <trkpt lat="44.43136" lon="1.10392">
        <ele>249.092773</ele>
        <time>2019-08-17T14:59:56Z</time>
      </trkpt>
      <trkpt lat="44.4313" lon="1.10392">
        <ele>249.189499</ele>
        <time>2019-08-17T14:59:57Z</time>
      </trkpt>
      <trkpt lat="44.43125" lon="1.10392">
        <ele>249.249344</ele>
        <time>2019-08-17T14:59:58Z</time>
      </trkpt>
      <trkpt lat="44.43119" lon="1.10392">
        <ele>249.270584</ele>
        <time>2019-08-17T14:59:59Z</time>
      </trkpt>
      <trkpt lat="44.43114" lon="1.10392">
        <ele>249.279953</ele>
        <time>2019-08-17T15:00:00Z</time>
      </trkpt>
      <trkpt lat="44.43108" lon="1.10392">
        <ele>249.288254</ele>
        <time>2019-08-17T15:00:01Z</time>
      </trkpt>
      <trkpt lat="44.43103" lon="1.10392">
        <ele>249.294113</ele>
        <time>2019-08-17T15:00:02Z</time>
      </trkpt>
      <trkpt lat="44.43097" lon="1.10393">
        <ele>249.297852</ele>
        <time>2019-08-17T15:00:03Z</time>
      </trkpt>
      <trkpt lat="44.43091" lon="1.10393">
        <ele>249.299484</ele>
        <time>2019-08-17T15:00:04Z</time>
      </trkpt>
      <trkpt lat="44.43084" lon="1.10393">
        <ele>249.299484</ele>
        <time>2019-08-17T15:00:05Z</time>
      </trkpt>
      <trkpt lat="44.43078" lon="1.10394">
        <ele>249.299484</ele>
        <time>2019-08-17T15:00:06Z</time>
      </trkpt>
      <trkpt lat="44.43073" lon="1.10394">
        <ele>249.299484</ele>
        <time>2019-08-17T15:00:07Z</time>
      </trkpt>
      <trkpt lat="44.43066" lon="1.10394">
        <ele>249.301102</ele>
        <time>2019-08-17T15:00:08Z</time>
      </trkpt>
      <trkpt lat="44.4306" lon="1.10394">
        <ele>249.301102</ele>
        <time>2019-08-17T15:00:09Z</time>
      </trkpt>
      <trkpt lat="44.43055" lon="1.10394">
        <ele>249.303833</ele>
        <time>2019-08-17T15:00:10Z</time>
      </trkpt>
      <trkpt lat="44.43049" lon="1.10394">
        <ele>249.317398</ele>
        <time>2019-08-17T15:00:11Z</time>
      </trkpt>
      <trkpt lat="44.43043" lon="1.10394">
        <ele>249.341614</ele>
        <time>2019-08-17T15:00:12Z</time>
      </trkpt>
      <trkpt lat="44.43037" lon="1.10394">
        <ele>249.377243</ele>
        <time>2019-08-17T15:00:13Z</time>
      </trkpt>
      <trkpt lat="44.43032" lon="1.10394">
        <ele>249.423172</ele>
        <time>2019-08-17T15:00:14Z</time>
      </trkpt>
      <trkpt lat="44.43026" lon="1.10395">
        <ele>249.479782</ele>
        <time>2019-08-17T15:00:15Z</time>
      </trkpt>
      <trkpt lat="44.43021" lon="1.10395">
        <ele>249.540894</ele>
        <time>2019-08-17T15:00:16Z</time>
      </trkpt>
      <trkpt lat="44.43015" lon="1.10395">
        <ele>249.601273</ele>
        <time>2019-08-17T15:00:17Z</time>
      </trkpt>
      <trkpt lat="44.43009" lon="1.10396">
        <ele>249.661011</ele>
        <time>2019-08-17T15:00:18Z</time>
      </trkpt>
      <trkpt lat="44.43004" lon="1.10396">
        <ele>249.719955</ele>
        <time>2019-08-17T15:00:19Z</time>
      </trkpt>
      <trkpt lat="44.42999" lon="1.10396">
        <ele>249.77948</ele>
        <time>2019-08-17T15:00:20Z</time>
      </trkpt>
      <trkpt lat="44.42993" lon="1.10396">
        <ele>249.839096</ele>
        <time>2019-08-17T15:00:21Z</time>
      </trkpt>
      <trkpt lat="44.42988" lon="1.10396">
        <ele>249.901291</ele>
        <time>2019-08-17T15:00:22Z</time>
      </trkpt>
      <trkpt lat="44.42983" lon="1.10396">
        <ele>249.966751</ele>
        <time>2019-08-17T15:00:23Z</time>
      </trkpt>
      <trkpt lat="44.42978" lon="1.10396">
        <ele>250.035645</ele>
        <time>2019-08-17T15:00:24Z</time>
      </trkpt>
      <trkpt lat="44.42973" lon="1.10395">
        <ele>250.107285</ele>
        <time>2019-08-17T15:00:25Z</time>
      </trkpt>
      <trkpt lat="44.42968" lon="1.10395">
        <ele>250.180923</ele>
        <time>2019-08-17T15:00:26Z</time>
      </trkpt>
      <trkpt lat="44.42963" lon="1.10394">
        <ele>250.25676</ele>
        <time>2019-08-17T15:00:27Z</time>
      </trkpt>
      <trkpt lat="44.42959" lon="1.10392">
        <ele>250.332031</ele>
        <time>2019-08-17T15:00:28Z</time>
      </trkpt>
      <trkpt lat="44.42954" lon="1.1039">
        <ele>250.405685</ele>
        <time>2019-08-17T15:00:29Z</time>
      </trkpt>
      <trkpt lat="44.4295" lon="1.10387">
        <ele>250.405685</ele>
        <time>2019-08-17T15:00:30Z</time>
      </trkpt>
      <trkpt lat="44.42946" lon="1.10385">
        <ele>250.478027</ele>
        <time>2019-08-17T15:00:31Z</time>
      </trkpt>
      <trkpt lat="44.42941" lon="1.10382">
        <ele>250.54924</ele>
        <time>2019-08-17T15:00:32Z</time>
      </trkpt>
      <trkpt lat="44.42937" lon="1.10379">
        <ele>250.629715</ele>
        <time>2019-08-17T15:00:33Z</time>
      </trkpt>
      <trkpt lat="44.42933" lon="1.10375">
        <ele>250.708572</ele>
        <time>2019-08-17T15:00:34Z</time>
      </trkpt>
      <trkpt lat="44.42928" lon="1.10371">
        <ele>250.785812</ele>
        <time>2019-08-17T15:00:35Z</time>
      </trkpt>
      <trkpt lat="44.42925" lon="1.10367">
        <ele>250.865463</ele>
        <time>2019-08-17T15:00:36Z</time>
      </trkpt>
      <trkpt lat="44.42921" lon="1.10363">
        <ele>250.947586</ele>
        <time>2019-08-17T15:00:37Z</time>
      </trkpt>
      <trkpt lat="44.42917" lon="1.10359">
        <ele>251.031433</ele>
        <time>2019-08-17T15:00:38Z</time>
      </trkpt>
      <trkpt lat="44.42913" lon="1.10355">
        <ele>251.105301</ele>
        <time>2019-08-17T15:00:39Z</time>
      </trkpt>
      <trkpt lat="44.42909" lon="1.10351">
        <ele>251.178848</ele>
        <time>2019-08-17T15:00:40Z</time>
      </trkpt>
      <trkpt lat="44.42905" lon="1.10346">
        <ele>251.250977</ele>
        <time>2019-08-17T15:00:41Z</time>
      </trkpt>
      <trkpt lat="44.42902" lon="1.10342">
        <ele>251.31636</ele>
        <time>2019-08-17T15:00:42Z</time>
      </trkpt>
      <trkpt lat="44.42897" lon="1.10338">
        <ele>251.31636</ele>
        <time>2019-08-17T15:00:43Z</time>
      </trkpt>
      <trkpt lat="44.42894" lon="1.10334">
        <ele>251.373245</ele>
        <time>2019-08-17T15:00:44Z</time>
      </trkpt>
      <trkpt lat="44.4289" lon="1.1033">
        <ele>251.422119</ele>
        <time>2019-08-17T15:00:45Z</time>
      </trkpt>
      <trkpt lat="44.42886" lon="1.10326">
        <ele>251.475281</ele>
        <time>2019-08-17T15:00:46Z</time>
      </trkpt>
      <trkpt lat="44.42883" lon="1.10323">
        <ele>251.527542</ele>
        <time>2019-08-17T15:00:47Z</time>
      </trkpt>
      <trkpt lat="44.42879" lon="1.10319">
        <ele>251.579697</ele>
        <time>2019-08-17T15:00:48Z</time>
      </trkpt>
      <trkpt lat="44.42876" lon="1.10316">
        <ele>251.633713</ele>
        <time>2019-08-17T15:00:49Z</time>
      </trkpt>
      <trkpt lat="44.42873" lon="1.10311">
        <ele>251.690903</ele>
        <time>2019-08-17T15:00:50Z</time>
      </trkpt>
      <trkpt lat="44.42872" lon="1.10305">
        <ele>251.752365</ele>
        <time>2019-08-17T15:00:51Z</time>
      </trkpt>
      <trkpt lat="44.4287" lon="1.10299">
        <ele>251.80574</ele>
        <time>2019-08-17T15:00:52Z</time>
      </trkpt>
      <trkpt lat="44.42869" lon="1.10292">
        <ele>251.855545</ele>
        <time>2019-08-17T15:00:53Z</time>
      </trkpt>
      <trkpt lat="44.42867" lon="1.10285">
        <ele>251.855545</ele>
        <time>2019-08-17T15:00:54Z</time>
      </trkpt>
      <trkpt lat="44.42866" lon="1.10278">
        <ele>251.899979</ele>
        <time>2019-08-17T15:00:55Z</time>
      </trkpt>
      <trkpt lat="44.42865" lon="1.10271">
        <ele>251.94136</ele>
        <time>2019-08-17T15:00:56Z</time>
      </trkpt>
      <trkpt lat="44.42864" lon="1.10264">
        <ele>251.995117</ele>
        <time>2019-08-17T15:00:57Z</time>
      </trkpt>
      <trkpt lat="44.42863" lon="1.10256">
        <ele>252.051025</ele>
        <time>2019-08-17T15:00:58Z</time>
      </trkpt>
      <trkpt lat="44.42863" lon="1.10249">
        <ele>252.119034</ele>
        <time>2019-08-17T15:00:59Z</time>
      </trkpt>
      <trkpt lat="44.42863" lon="1.10241">
        <ele>252.203598</ele>
        <time>2019-08-17T15:01:00Z</time>
      </trkpt>
      <trkpt lat="44.42864" lon="1.10233">
        <ele>252.305176</ele>
        <time>2019-08-17T15:01:01Z</time>
      </trkpt>
      <trkpt lat="44.42864" lon="1.10226">
        <ele>252.417709</ele>
        <time>2019-08-17T15:01:02Z</time>
      </trkpt>
      <trkpt lat="44.42865" lon="1.10218">
        <ele>252.524353</ele>
        <time>2019-08-17T15:01:03Z</time>
      </trkpt>
      <trkpt lat="44.42866" lon="1.10211">
        <ele>252.632584</ele>
        <time>2019-08-17T15:01:04Z</time>
      </trkpt>
      <trkpt lat="44.42866" lon="1.10203">
        <ele>252.733566</ele>
        <time>2019-08-17T15:01:05Z</time>
      </trkpt>
      <trkpt lat="44.42865" lon="1.10196">
        <ele>252.82428</ele>
        <time>2019-08-17T15:01:06Z</time>
      </trkpt>
      <trkpt lat="44.42864" lon="1.10189">
        <ele>252.908432</ele>
        <time>2019-08-17T15:01:07Z</time>
      </trkpt>
      <trkpt lat="44.42863" lon="1.10182">
        <ele>252.984024</ele>
        <time>2019-08-17T15:01:08Z</time>
      </trkpt>
      <trkpt lat="44.4286" lon="1.10176">
        <ele>252.984024</ele>
        <time>2019-08-17T15:01:09Z</time>
      </trkpt>
      <trkpt lat="44.42858" lon="1.1017">
        <ele>253.045883</ele>
        <time>2019-08-17T15:01:10Z</time>
      </trkpt>
      <trkpt lat="44.42856" lon="1.10164">
        <ele>253.099503</ele>
        <time>2019-08-17T15:01:11Z</time>
      </trkpt>
      <trkpt lat="44.42852" lon="1.10159">
        <ele>253.15918</ele>
        <time>2019-08-17T15:01:12Z</time>
      </trkpt>
      <trkpt lat="44.42849" lon="1.10154">
        <ele>253.219101</ele>
        <time>2019-08-17T15:01:13Z</time>
      </trkpt>
      <trkpt lat="44.42844" lon="1.1015">
        <ele>253.278</ele>
        <time>2019-08-17T15:01:14Z</time>
      </trkpt>
      <trkpt lat="44.42841" lon="1.10145">
        <ele>253.344406</ele>
        <time>2019-08-17T15:01:15Z</time>
      </trkpt>
      <trkpt lat="44.42836" lon="1.10141">
        <ele>253.426102</ele>
        <time>2019-08-17T15:01:16Z</time>
      </trkpt>
      <trkpt lat="44.42832" lon="1.10137">
        <ele>253.522461</ele>
        <time>2019-08-17T15:01:17Z</time>
      </trkpt>
      <trkpt lat="44.42828" lon="1.10134">
        <ele>253.619629</ele>
        <time>2019-08-17T15:01:18Z</time>
      </trkpt>
      <trkpt lat="44.42823" lon="1.10131">
        <ele>253.619629</ele>
        <time>2019-08-17T15:01:19Z</time>
      </trkpt>
      <trkpt lat="44.42819" lon="1.10128">
        <ele>253.725586</ele>
        <time>2019-08-17T15:01:20Z</time>
      </trkpt>
      <trkpt lat="44.42814" lon="1.10125">
        <ele>253.84082</ele>
        <time>2019-08-17T15:01:21Z</time>
      </trkpt>
      <trkpt lat="44.42809" lon="1.10123">
        <ele>253.998459</ele>
        <time>2019-08-17T15:01:22Z</time>
      </trkpt>
      <trkpt lat="44.42805" lon="1.10121">
        <ele>254.168701</ele>
        <time>2019-08-17T15:01:23Z</time>
      </trkpt>
      <trkpt lat="44.428" lon="1.10119">
        <ele>254.347244</ele>
        <time>2019-08-17T15:01:24Z</time>
      </trkpt>
      <trkpt lat="44.42796" lon="1.10118">
        <ele>254.534912</ele>
        <time>2019-08-17T15:01:25Z</time>
      </trkpt>
      <trkpt lat="44.42791" lon="1.10116">
        <ele>254.727859</ele>
        <time>2019-08-17T15:01:26Z</time>
      </trkpt>
      <trkpt lat="44.42786" lon="1.10115">
        <ele>254.925537</ele>
        <time>2019-08-17T15:01:27Z</time>
      </trkpt>
      <trkpt lat="44.42782" lon="1.10113">
        <ele>255.091385</ele>
        <time>2019-08-17T15:01:28Z</time>
      </trkpt>
      <trkpt lat="44.42777" lon="1.10112">
        <ele>255.252365</ele>
        <time>2019-08-17T15:01:29Z</time>
      </trkpt>
      <trkpt lat="44.42772" lon="1.10111">
        <ele>255.411942</ele>
        <time>2019-08-17T15:01:30Z</time>
      </trkpt>
      <trkpt lat="44.42768" lon="1.10109">
        <ele>255.56926</ele>
        <time>2019-08-17T15:01:31Z</time>
      </trkpt>
      <trkpt lat="44.42764" lon="1.10107">
        <ele>255.726563</ele>
        <time>2019-08-17T15:01:32Z</time>
      </trkpt>
      <trkpt lat="44.42761" lon="1.10104">
        <ele>255.882736</ele>
        <time>2019-08-17T15:01:33Z</time>
      </trkpt>
      <trkpt lat="44.42757" lon="1.101">
        <ele>256.037689</ele>
        <time>2019-08-17T15:01:34Z</time>
      </trkpt>
      <trkpt lat="44.42754" lon="1.10096">
        <ele>256.192719</ele>
        <time>2019-08-17T15:01:35Z</time>
      </trkpt>
      <trkpt lat="44.4275" lon="1.10092">
        <ele>256.346344</ele>
        <time>2019-08-17T15:01:36Z</time>
      </trkpt>
      <trkpt lat="44.42748" lon="1.10088">
        <ele>256.499603</ele>
        <time>2019-08-17T15:01:37Z</time>
      </trkpt>
      <trkpt lat="44.42745" lon="1.10083">
        <ele>256.6521</ele>
        <time>2019-08-17T15:01:38Z</time>
      </trkpt>
      <trkpt lat="44.42743" lon="1.10079">
        <ele>256.804596</ele>
        <time>2019-08-17T15:01:39Z</time>
      </trkpt>
      <trkpt lat="44.4274" lon="1.10074">
        <ele>256.804596</ele>
        <time>2019-08-17T15:01:40Z</time>
      </trkpt>
      <trkpt lat="44.42738" lon="1.10069">
        <ele>256.955963</ele>
        <time>2019-08-17T15:01:41Z</time>
      </trkpt>
      <trkpt lat="44.42736" lon="1.10065">
        <ele>257.105957</ele>
        <time>2019-08-17T15:01:42Z</time>
      </trkpt>
      <trkpt lat="44.42734" lon="1.1006">
        <ele>257.277191</ele>
        <time>2019-08-17T15:01:43Z</time>
      </trkpt>
      <trkpt lat="44.42732" lon="1.10055">
        <ele>257.444</ele>
        <time>2019-08-17T15:01:44Z</time>
      </trkpt>
      <trkpt lat="44.4273" lon="1.10051">
        <ele>257.595062</ele>
        <time>2019-08-17T15:01:45Z</time>
      </trkpt>
      <trkpt lat="44.42728" lon="1.10046">
        <ele>257.729004</ele>
        <time>2019-08-17T15:01:46Z</time>
      </trkpt>
      <trkpt lat="44.42726" lon="1.1004">
        <ele>257.844147</ele>
        <time>2019-08-17T15:01:47Z</time>
      </trkpt>
      <trkpt lat="44.42724" lon="1.10035">
        <ele>257.940826</ele>
        <time>2019-08-17T15:01:48Z</time>
      </trkpt>
      <trkpt lat="44.42722" lon="1.10029">
        <ele>257.940826</ele>
        <time>2019-08-17T15:01:49Z</time>
      </trkpt>
      <trkpt lat="44.42719" lon="1.10023">
        <ele>257.995605</ele>
        <time>2019-08-17T15:01:50Z</time>
      </trkpt>
      <trkpt lat="44.42717" lon="1.10017">
        <ele>258.033844</ele>
        <time>2019-08-17T15:01:51Z</time>
      </trkpt>
      <trkpt lat="44.42715" lon="1.10012">
        <ele>258.073242</ele>
        <time>2019-08-17T15:01:52Z</time>
      </trkpt>
      <trkpt lat="44.42712" lon="1.10007">
        <ele>258.109528</ele>
        <time>2019-08-17T15:01:53Z</time>
      </trkpt>
      <trkpt lat="44.42709" lon="1.10001">
        <ele>258.145996</ele>
        <time>2019-08-17T15:01:54Z</time>
      </trkpt>
      <trkpt lat="44.42707" lon="1.09996">
        <ele>258.183197</ele>
        <time>2019-08-17T15:01:55Z</time>
      </trkpt>
      <trkpt lat="44.42704" lon="1.09991">
        <ele>258.222504</ele>
        <time>2019-08-17T15:01:56Z</time>
      </trkpt>
      <trkpt lat="44.42702" lon="1.09985">
        <ele>258.263336</ele>
        <time>2019-08-17T15:01:57Z</time>
      </trkpt>
      <trkpt lat="44.427" lon="1.0998">
        <ele>258.293457</ele>
        <time>2019-08-17T15:01:58Z</time>
      </trkpt>
      <trkpt lat="44.42697" lon="1.09974">
        <ele>258.315887</ele>
        <time>2019-08-17T15:01:59Z</time>
      </trkpt>
      <trkpt lat="44.42695" lon="1.09968">
        <ele>258.329803</ele>
        <time>2019-08-17T15:02:00Z</time>
      </trkpt>
      <trkpt lat="44.42692" lon="1.09962">
        <ele>258.333954</ele>
        <time>2019-08-17T15:02:01Z</time>
      </trkpt>
      <trkpt lat="44.42689" lon="1.09956">
        <ele>258.333954</ele>
        <time>2019-08-17T15:02:02Z</time>
      </trkpt>
      <trkpt lat="44.42686" lon="1.0995">
        <ele>258.333954</ele>
        <time>2019-08-17T15:02:03Z</time>
      </trkpt>
      <trkpt lat="44.42683" lon="1.09945">
        <ele>258.326324</ele>
        <time>2019-08-17T15:02:04Z</time>
      </trkpt>
      <trkpt lat="44.4268" lon="1.09939">
        <ele>258.305664</ele>
        <time>2019-08-17T15:02:05Z</time>
      </trkpt>
      <trkpt lat="44.42676" lon="1.09933">
        <ele>258.277496</ele>
        <time>2019-08-17T15:02:06Z</time>
      </trkpt>
      <trkpt lat="44.42673" lon="1.09928">
        <ele>258.277496</ele>
        <time>2019-08-17T15:02:07Z</time>
      </trkpt>
      <trkpt lat="44.42669" lon="1.09921">
        <ele>258.242645</ele>
        <time>2019-08-17T15:02:08Z</time>
      </trkpt>
      <trkpt lat="44.42666" lon="1.09915">
        <ele>258.200928</ele>
        <time>2019-08-17T15:02:09Z</time>
      </trkpt>
      <trkpt lat="44.42662" lon="1.09909">
        <ele>258.150421</ele>
        <time>2019-08-17T15:02:10Z</time>
      </trkpt>
      <trkpt lat="44.42659" lon="1.09902">
        <ele>258.109375</ele>
        <time>2019-08-17T15:02:11Z</time>
      </trkpt>
      <trkpt lat="44.42656" lon="1.09896">
        <ele>258.079193</ele>
        <time>2019-08-17T15:02:12Z</time>
      </trkpt>
      <trkpt lat="44.42652" lon="1.0989">
        <ele>258.059021</ele>
        <time>2019-08-17T15:02:13Z</time>
      </trkpt>
      <trkpt lat="44.42648" lon="1.09884">
        <ele>258.048615</ele>
        <time>2019-08-17T15:02:14Z</time>
      </trkpt>
      <trkpt lat="44.42645" lon="1.09878">
        <ele>258.047638</ele>
        <time>2019-08-17T15:02:15Z</time>
      </trkpt>
      <trkpt lat="44.42641" lon="1.09872">
        <ele>258.045441</ele>
        <time>2019-08-17T15:02:16Z</time>
      </trkpt>
      <trkpt lat="44.42638" lon="1.09866">
        <ele>258.040405</ele>
        <time>2019-08-17T15:02:17Z</time>
      </trkpt>
      <trkpt lat="44.42635" lon="1.0986">
        <ele>258.042511</ele>
        <time>2019-08-17T15:02:18Z</time>
      </trkpt>
      <trkpt lat="44.42632" lon="1.09854">
        <ele>258.042511</ele>
        <time>2019-08-17T15:02:19Z</time>
      </trkpt>
      <trkpt lat="44.42628" lon="1.09849">
        <ele>258.042511</ele>
        <time>2019-08-17T15:02:20Z</time>
      </trkpt>
      <trkpt lat="44.42625" lon="1.09843">
        <ele>258.034515</ele>
        <time>2019-08-17T15:02:21Z</time>
      </trkpt>
      <trkpt lat="44.42621" lon="1.09838">
        <ele>258.015106</ele>
        <time>2019-08-17T15:02:22Z</time>
      </trkpt>
      <trkpt lat="44.42618" lon="1.09832">
        <ele>257.984711</ele>
        <time>2019-08-17T15:02:23Z</time>
      </trkpt>
      <trkpt lat="44.42615" lon="1.09827">
        <ele>257.945618</ele>
        <time>2019-08-17T15:02:24Z</time>
      </trkpt>
      <trkpt lat="44.42612" lon="1.09822">
        <ele>257.899078</ele>
        <time>2019-08-17T15:02:25Z</time>
      </trkpt>
      <trkpt lat="44.42609" lon="1.09818">
        <ele>257.84552</ele>
        <time>2019-08-17T15:02:26Z</time>
      </trkpt>
      <trkpt lat="44.42605" lon="1.09813">
        <ele>257.785583</ele>
        <time>2019-08-17T15:02:27Z</time>
      </trkpt>
      <trkpt lat="44.42602" lon="1.09807">
        <ele>257.719513</ele>
        <time>2019-08-17T15:02:28Z</time>
      </trkpt>
      <trkpt lat="44.42598" lon="1.09802">
        <ele>257.647461</ele>
        <time>2019-08-17T15:02:29Z</time>
      </trkpt>
      <trkpt lat="44.42595" lon="1.09796">
        <ele>257.569305</ele>
        <time>2019-08-17T15:02:30Z</time>
      </trkpt>
      <trkpt lat="44.42591" lon="1.09791">
        <ele>257.569305</ele>
        <time>2019-08-17T15:02:31Z</time>
      </trkpt>
      <trkpt lat="44.42587" lon="1.09785">
        <ele>257.483856</ele>
        <time>2019-08-17T15:02:32Z</time>
      </trkpt>
      <trkpt lat="44.42584" lon="1.09779">
        <ele>257.39032</ele>
        <time>2019-08-17T15:02:33Z</time>
      </trkpt>
      <trkpt lat="44.42581" lon="1.09773">
        <ele>257.285919</ele>
        <time>2019-08-17T15:02:34Z</time>
      </trkpt>
      <trkpt lat="44.42577" lon="1.09767">
        <ele>257.190155</ele>
        <time>2019-08-17T15:02:35Z</time>
      </trkpt>
      <trkpt lat="44.42574" lon="1.09762">
        <ele>257.101349</ele>
        <time>2019-08-17T15:02:36Z</time>
      </trkpt>
      <trkpt lat="44.42571" lon="1.09757">
        <ele>257.018372</ele>
        <time>2019-08-17T15:02:37Z</time>
      </trkpt>
      <trkpt lat="44.42568" lon="1.09751">
        <ele>256.940338</ele>
        <time>2019-08-17T15:02:38Z</time>
      </trkpt>
      <trkpt lat="44.42565" lon="1.09746">
        <ele>256.867096</ele>
        <time>2019-08-17T15:02:39Z</time>
      </trkpt>
      <trkpt lat="44.42562" lon="1.09741">
        <ele>256.799683</ele>
        <time>2019-08-17T15:02:40Z</time>
      </trkpt>
      <trkpt lat="44.42559" lon="1.09736">
        <ele>256.717499</ele>
        <time>2019-08-17T15:02:41Z</time>
      </trkpt>
      <trkpt lat="44.42556" lon="1.09731">
        <ele>256.717499</ele>
        <time>2019-08-17T15:02:42Z</time>
      </trkpt>
      <trkpt lat="44.42553" lon="1.09727">
        <ele>256.621796</ele>
        <time>2019-08-17T15:02:43Z</time>
      </trkpt>
      <trkpt lat="44.4255" lon="1.09722">
        <ele>256.513519</ele>
        <time>2019-08-17T15:02:44Z</time>
      </trkpt>
      <trkpt lat="44.42548" lon="1.09718">
        <ele>256.368317</ele>
        <time>2019-08-17T15:02:45Z</time>
      </trkpt>
      <trkpt lat="44.42545" lon="1.09715">
        <ele>256.211273</ele>
        <time>2019-08-17T15:02:46Z</time>
      </trkpt>
      <trkpt lat="44.42542" lon="1.09712">
        <ele>256.047272</ele>
        <time>2019-08-17T15:02:47Z</time>
      </trkpt>
      <trkpt lat="44.4254" lon="1.09708">
        <ele>255.88002</ele>
        <time>2019-08-17T15:02:48Z</time>
      </trkpt>
      <trkpt lat="44.42537" lon="1.09704">
        <ele>255.712112</ele>
        <time>2019-08-17T15:02:49Z</time>
      </trkpt>
      <trkpt lat="44.42535" lon="1.097">
        <ele>255.545471</ele>
        <time>2019-08-17T15:02:50Z</time>
      </trkpt>
      <trkpt lat="44.42533" lon="1.09696">
        <ele>255.40596</ele>
        <time>2019-08-17T15:02:51Z</time>
      </trkpt>
      <trkpt lat="44.42531" lon="1.09693">
        <ele>255.27327</ele>
        <time>2019-08-17T15:02:52Z</time>
      </trkpt>
      <trkpt lat="44.42529" lon="1.0969">
        <ele>255.145096</ele>
        <time>2019-08-17T15:02:53Z</time>
      </trkpt>
      <trkpt lat="44.42528" lon="1.09687">
        <ele>255.02002</ele>
        <time>2019-08-17T15:02:54Z</time>
      </trkpt>
      <trkpt lat="44.42527" lon="1.09684">
        <ele>254.899979</ele>
        <time>2019-08-17T15:02:55Z</time>
      </trkpt>
      <trkpt lat="44.42525" lon="1.09682">
        <ele>254.785477</ele>
        <time>2019-08-17T15:02:56Z</time>
      </trkpt>
      <trkpt lat="44.42523" lon="1.09679">
        <ele>254.678299</ele>
        <time>2019-08-17T15:02:57Z</time>
      </trkpt>
      <trkpt lat="44.42521" lon="1.09676">
        <ele>254.579788</ele>
        <time>2019-08-17T15:02:58Z</time>
      </trkpt>
      <trkpt lat="44.4252" lon="1.09673">
        <ele>254.488708</ele>
        <time>2019-08-17T15:02:59Z</time>
      </trkpt>
      <trkpt lat="44.42518" lon="1.0967">
        <ele>254.402847</ele>
        <time>2019-08-17T15:03:00Z</time>
      </trkpt>
      <trkpt lat="44.42517" lon="1.09667">
        <ele>254.317947</ele>
        <time>2019-08-17T15:03:01Z</time>
      </trkpt>
      <trkpt lat="44.42515" lon="1.09665">
        <ele>254.233841</ele>
        <time>2019-08-17T15:03:02Z</time>
      </trkpt>
      <trkpt lat="44.42514" lon="1.09663">
        <ele>254.149902</ele>
        <time>2019-08-17T15:03:03Z</time>
      </trkpt>
      <trkpt lat="44.42513" lon="1.0966">
        <ele>254.063477</ele>
        <time>2019-08-17T15:03:04Z</time>
      </trkpt>
      <trkpt lat="44.42511" lon="1.09657">
        <ele>253.976624</ele>
        <time>2019-08-17T15:03:05Z</time>
      </trkpt>
      <trkpt lat="44.4251" lon="1.09655">
        <ele>253.890808</ele>
        <time>2019-08-17T15:03:06Z</time>
      </trkpt>
      <trkpt lat="44.42508" lon="1.09652">
        <ele>253.806747</ele>
        <time>2019-08-17T15:03:07Z</time>
      </trkpt>
      <trkpt lat="44.42506" lon="1.0965">
        <ele>253.722153</ele>
        <time>2019-08-17T15:03:08Z</time>
      </trkpt>
      <trkpt lat="44.42505" lon="1.09648">
        <ele>253.63829</ele>
        <time>2019-08-17T15:03:09Z</time>
      </trkpt>
      <trkpt lat="44.42503" lon="1.09645">
        <ele>253.63829</ele>
        <time>2019-08-17T15:03:10Z</time>
      </trkpt>
      <trkpt lat="44.42501" lon="1.09642">
        <ele>253.55542</ele>
        <time>2019-08-17T15:03:11Z</time>
      </trkpt>
      <trkpt lat="44.425" lon="1.09639">
        <ele>253.473145</ele>
        <time>2019-08-17T15:03:12Z</time>
      </trkpt>
      <trkpt lat="44.42498" lon="1.09636">
        <ele>253.375961</ele>
        <time>2019-08-17T15:03:13Z</time>
      </trkpt>
      <trkpt lat="44.42497" lon="1.09633">
        <ele>253.277908</ele>
        <time>2019-08-17T15:03:14Z</time>
      </trkpt>
      <trkpt lat="44.42495" lon="1.0963">
        <ele>253.180832</ele>
        <time>2019-08-17T15:03:15Z</time>
      </trkpt>
      <trkpt lat="44.42494" lon="1.09627">
        <ele>253.083252</ele>
        <time>2019-08-17T15:03:16Z</time>
      </trkpt>
      <trkpt lat="44.42494" lon="1.09624">
        <ele>252.984131</ele>
        <time>2019-08-17T15:03:17Z</time>
      </trkpt>
      <trkpt lat="44.42493" lon="1.09621">
        <ele>252.882645</ele>
        <time>2019-08-17T15:03:18Z</time>
      </trkpt>
      <trkpt lat="44.42492" lon="1.09617">
        <ele>252.797195</ele>
        <time>2019-08-17T15:03:19Z</time>
      </trkpt>
      <trkpt lat="44.42491" lon="1.09613">
        <ele>252.715012</ele>
        <time>2019-08-17T15:03:20Z</time>
      </trkpt>
      <trkpt lat="44.42489" lon="1.09608">
        <ele>252.635254</ele>
        <time>2019-08-17T15:03:21Z</time>
      </trkpt>
      <trkpt lat="44.42488" lon="1.09602">
        <ele>252.557693</ele>
        <time>2019-08-17T15:03:22Z</time>
      </trkpt>
      <trkpt lat="44.42485" lon="1.09597">
        <ele>252.478836</ele>
        <time>2019-08-17T15:03:23Z</time>
      </trkpt>
      <trkpt lat="44.42483" lon="1.09592">
        <ele>252.478836</ele>
        <time>2019-08-17T15:03:24Z</time>
      </trkpt>
      <trkpt lat="44.4248" lon="1.09586">
        <ele>252.394608</ele>
        <time>2019-08-17T15:03:25Z</time>
      </trkpt>
      <trkpt lat="44.42478" lon="1.0958">
        <ele>252.300293</ele>
        <time>2019-08-17T15:03:26Z</time>
      </trkpt>
      <trkpt lat="44.42475" lon="1.09575">
        <ele>252.169189</ele>
        <time>2019-08-17T15:03:27Z</time>
      </trkpt>
      <trkpt lat="44.42471" lon="1.0957">
        <ele>252.016434</ele>
        <time>2019-08-17T15:03:28Z</time>
      </trkpt>
      <trkpt lat="44.42468" lon="1.09565">
        <ele>251.836746</ele>
        <time>2019-08-17T15:03:29Z</time>
      </trkpt>
      <trkpt lat="44.42464" lon="1.09561">
        <ele>251.630859</ele>
        <time>2019-08-17T15:03:30Z</time>
      </trkpt>
      <trkpt lat="44.4246" lon="1.09556">
        <ele>251.405197</ele>
        <time>2019-08-17T15:03:31Z</time>
      </trkpt>
      <trkpt lat="44.42455" lon="1.09552">
        <ele>251.405197</ele>
        <time>2019-08-17T15:03:32Z</time>
      </trkpt>
      <trkpt lat="44.42451" lon="1.09548">
        <ele>251.161453</ele>
        <time>2019-08-17T15:03:33Z</time>
      </trkpt>
      <trkpt lat="44.42446" lon="1.09543">
        <ele>250.926102</ele>
        <time>2019-08-17T15:03:34Z</time>
      </trkpt>
      <trkpt lat="44.42442" lon="1.09539">
        <ele>250.641281</ele>
        <time>2019-08-17T15:03:35Z</time>
      </trkpt>
      <trkpt lat="44.42437" lon="1.09534">
        <ele>250.353348</ele>
        <time>2019-08-17T15:03:36Z</time>
      </trkpt>
      <trkpt lat="44.42431" lon="1.09529">
        <ele>250.063797</ele>
        <time>2019-08-17T15:03:37Z</time>
      </trkpt>
      <trkpt lat="44.42426" lon="1.09525">
        <ele>249.768555</ele>
        <time>2019-08-17T15:03:38Z</time>
      </trkpt>
      <trkpt lat="44.4242" lon="1.0952">
        <ele>249.467453</ele>
        <time>2019-08-17T15:03:39Z</time>
      </trkpt>
      <trkpt lat="44.42414" lon="1.09515">
        <ele>249.157547</ele>
        <time>2019-08-17T15:03:40Z</time>
      </trkpt>
      <trkpt lat="44.42408" lon="1.09509">
        <ele>248.882492</ele>
        <time>2019-08-17T15:03:41Z</time>
      </trkpt>
      <trkpt lat="44.42402" lon="1.09504">
        <ele>248.598465</ele>
        <time>2019-08-17T15:03:42Z</time>
      </trkpt>
      <trkpt lat="44.42396" lon="1.09498">
        <ele>248.32959</ele>
        <time>2019-08-17T15:03:43Z</time>
      </trkpt>
      <trkpt lat="44.4239" lon="1.09493">
        <ele>248.076172</ele>
        <time>2019-08-17T15:03:44Z</time>
      </trkpt>
      <trkpt lat="44.42383" lon="1.09486">
        <ele>248.076172</ele>
        <time>2019-08-17T15:03:45Z</time>
      </trkpt>
      <trkpt lat="44.42377" lon="1.0948">
        <ele>247.839035</ele>
        <time>2019-08-17T15:03:46Z</time>
      </trkpt>
      <trkpt lat="44.42371" lon="1.09474">
        <ele>247.620438</ele>
        <time>2019-08-17T15:03:47Z</time>
      </trkpt>
      <trkpt lat="44.42365" lon="1.09467">
        <ele>247.424973</ele>
        <time>2019-08-17T15:03:48Z</time>
      </trkpt>
      <trkpt lat="44.42358" lon="1.09461">
        <ele>247.28125</ele>
        <time>2019-08-17T15:03:49Z</time>
      </trkpt>
      <trkpt lat="44.42352" lon="1.09455">
        <ele>247.28125</ele>
        <time>2019-08-17T15:03:50Z</time>
      </trkpt>
      <trkpt lat="44.42346" lon="1.09449">
        <ele>247.166016</ele>
        <time>2019-08-17T15:03:51Z</time>
      </trkpt>
      <trkpt lat="44.4234" lon="1.09443">
        <ele>247.080734</ele>
        <time>2019-08-17T15:03:52Z</time>
      </trkpt>
      <trkpt lat="44.42334" lon="1.09437">
        <ele>247.025391</ele>
        <time>2019-08-17T15:03:53Z</time>
      </trkpt>
      <trkpt lat="44.42328" lon="1.09431">
        <ele>246.993576</ele>
        <time>2019-08-17T15:03:54Z</time>
      </trkpt>
      <trkpt lat="44.42323" lon="1.09426">
        <ele>246.97258</ele>
        <time>2019-08-17T15:03:55Z</time>
      </trkpt>
      <trkpt lat="44.42318" lon="1.0942">
        <ele>246.937424</ele>
        <time>2019-08-17T15:03:56Z</time>
      </trkpt>
      <trkpt lat="44.42313" lon="1.09415">
        <ele>246.906021</ele>
        <time>2019-08-17T15:03:57Z</time>
      </trkpt>
      <trkpt lat="44.42308" lon="1.09411">
        <ele>246.906021</ele>
        <time>2019-08-17T15:03:58Z</time>
      </trkpt>
      <trkpt lat="44.42304" lon="1.09407">
        <ele>246.906021</ele>
        <time>2019-08-17T15:03:59Z</time>
      </trkpt>
      <trkpt lat="44.42299" lon="1.09403">
        <ele>246.916275</ele>
        <time>2019-08-17T15:04:00Z</time>
      </trkpt>
      <trkpt lat="44.42296" lon="1.09399">
        <ele>246.971817</ele>
        <time>2019-08-17T15:04:01Z</time>
      </trkpt>
      <trkpt lat="44.42294" lon="1.09395">
        <ele>247.079208</ele>
        <time>2019-08-17T15:04:02Z</time>
      </trkpt>
      <trkpt lat="44.42294" lon="1.09391">
        <ele>247.079208</ele>
        <time>2019-08-17T15:04:03Z</time>
      </trkpt>
      <trkpt lat="44.42295" lon="1.09389">
        <ele>247.237656</ele>
        <time>2019-08-17T15:04:04Z</time>
      </trkpt>
      <trkpt lat="44.42297" lon="1.09386">
        <ele>247.441528</ele>
        <time>2019-08-17T15:04:05Z</time>
      </trkpt>
      <trkpt lat="44.423" lon="1.09384">
        <ele>247.616043</ele>
        <time>2019-08-17T15:04:06Z</time>
      </trkpt>
      <trkpt lat="44.42304" lon="1.09381">
        <ele>247.708923</ele>
        <time>2019-08-17T15:04:07Z</time>
      </trkpt>
      <trkpt lat="44.42307" lon="1.09378">
        <ele>247.713394</ele>
        <time>2019-08-17T15:04:08Z</time>
      </trkpt>
      <trkpt lat="44.42312" lon="1.09375">
        <ele>247.713394</ele>
        <time>2019-08-17T15:04:09Z</time>
      </trkpt>
      <trkpt lat="44.42316" lon="1.09372">
        <ele>247.713394</ele>
        <time>2019-08-17T15:04:10Z</time>
      </trkpt>
      <trkpt lat="44.42321" lon="1.09369">
        <ele>247.629044</ele>
        <time>2019-08-17T15:04:11Z</time>
      </trkpt>
      <trkpt lat="44.42326" lon="1.09366">
        <ele>247.460556</ele>
        <time>2019-08-17T15:04:12Z</time>
      </trkpt>
      <trkpt lat="44.42331" lon="1.09363">
        <ele>247.212204</ele>
        <time>2019-08-17T15:04:13Z</time>
      </trkpt>
      <trkpt lat="44.42336" lon="1.09359">
        <ele>246.944382</ele>
        <time>2019-08-17T15:04:14Z</time>
      </trkpt>
      <trkpt lat="44.42341" lon="1.09356">
        <ele>246.944382</ele>
        <time>2019-08-17T15:04:15Z</time>
      </trkpt>
      <trkpt lat="44.42346" lon="1.09353">
        <ele>246.721298</ele>
        <time>2019-08-17T15:04:16Z</time>
      </trkpt>
      <trkpt lat="44.4235" lon="1.09349">
        <ele>246.542007</ele>
        <time>2019-08-17T15:04:17Z</time>
      </trkpt>
      <trkpt lat="44.42355" lon="1.09346">
        <ele>246.40625</ele>
        <time>2019-08-17T15:04:18Z</time>
      </trkpt>
      <trkpt lat="44.42359" lon="1.09343">
        <ele>246.317184</ele>
        <time>2019-08-17T15:04:19Z</time>
      </trkpt>
      <trkpt lat="44.42363" lon="1.0934">
        <ele>246.274826</ele>
        <time>2019-08-17T15:04:20Z</time>
      </trkpt>
      <trkpt lat="44.42366" lon="1.09338">
        <ele>246.269287</ele>
        <time>2019-08-17T15:04:21Z</time>
      </trkpt>
      <trkpt lat="44.4237" lon="1.09336">
        <ele>246.260452</ele>
        <time>2019-08-17T15:04:22Z</time>
      </trkpt>
      <trkpt lat="44.42374" lon="1.09334">
        <ele>246.260452</ele>
        <time>2019-08-17T15:04:23Z</time>
      </trkpt>
      <trkpt lat="44.42377" lon="1.09332">
        <ele>246.260452</ele>
        <time>2019-08-17T15:04:24Z</time>
      </trkpt>
      <trkpt lat="44.42381" lon="1.0933">
        <ele>246.252853</ele>
        <time>2019-08-17T15:04:25Z</time>
      </trkpt>
      <trkpt lat="44.42386" lon="1.09328">
        <ele>246.235123</ele>
        <time>2019-08-17T15:04:26Z</time>
      </trkpt>
      <trkpt lat="44.4239" lon="1.09328">
        <ele>246.211914</ele>
        <time>2019-08-17T15:04:27Z</time>
      </trkpt>
      <trkpt lat="44.42395" lon="1.09327">
        <ele>246.184814</ele>
        <time>2019-08-17T15:04:28Z</time>
      </trkpt>
      <trkpt lat="44.424" lon="1.09325">
        <ele>246.155472</ele>
        <time>2019-08-17T15:04:29Z</time>
      </trkpt>
      <trkpt lat="44.42404" lon="1.09323">
        <ele>246.14241</ele>
        <time>2019-08-17T15:04:30Z</time>
      </trkpt>
      <trkpt lat="44.42409" lon="1.09321">
        <ele>246.14241</ele>
        <time>2019-08-17T15:04:31Z</time>
      </trkpt>
      <trkpt lat="44.42413" lon="1.09318">
        <ele>246.14241</ele>
        <time>2019-08-17T15:04:32Z</time>
      </trkpt>
      <trkpt lat="44.42418" lon="1.09315">
        <ele>246.146118</ele>
        <time>2019-08-17T15:04:33Z</time>
      </trkpt>
      <trkpt lat="44.42422" lon="1.09311">
        <ele>246.166458</ele>
        <time>2019-08-17T15:04:34Z</time>
      </trkpt>
      <trkpt lat="44.42426" lon="1.09309">
        <ele>246.166458</ele>
        <time>2019-08-17T15:04:35Z</time>
      </trkpt>
      <trkpt lat="44.42431" lon="1.09306">
        <ele>246.202271</ele>
        <time>2019-08-17T15:04:36Z</time>
      </trkpt>
      <trkpt lat="44.42437" lon="1.09304">
        <ele>246.251099</ele>
        <time>2019-08-17T15:04:37Z</time>
      </trkpt>
      <trkpt lat="44.42442" lon="1.09301">
        <ele>246.331223</ele>
        <time>2019-08-17T15:04:38Z</time>
      </trkpt>
      <trkpt lat="44.42447" lon="1.09297">
        <ele>246.412415</ele>
        <time>2019-08-17T15:04:39Z</time>
      </trkpt>
      <trkpt lat="44.42452" lon="1.09294">
        <ele>246.494431</ele>
        <time>2019-08-17T15:04:40Z</time>
      </trkpt>
      <trkpt lat="44.42456" lon="1.0929">
        <ele>246.577194</ele>
        <time>2019-08-17T15:04:41Z</time>
      </trkpt>
      <trkpt lat="44.42461" lon="1.09286">
        <ele>246.66156</ele>
        <time>2019-08-17T15:04:42Z</time>
      </trkpt>
      <trkpt lat="44.42465" lon="1.09282">
        <ele>246.748917</ele>
        <time>2019-08-17T15:04:43Z</time>
      </trkpt>
      <trkpt lat="44.4247" lon="1.09278">
        <ele>246.818542</ele>
        <time>2019-08-17T15:04:44Z</time>
      </trkpt>
      <trkpt lat="44.42474" lon="1.09273">
        <ele>246.885849</ele>
        <time>2019-08-17T15:04:45Z</time>
      </trkpt>
      <trkpt lat="44.42478" lon="1.09269">
        <ele>246.955627</ele>
        <time>2019-08-17T15:04:46Z</time>
      </trkpt>
      <trkpt lat="44.42482" lon="1.09265">
        <ele>247.028427</ele>
        <time>2019-08-17T15:04:47Z</time>
      </trkpt>
      <trkpt lat="44.42486" lon="1.09261">
        <ele>247.103165</ele>
        <time>2019-08-17T15:04:48Z</time>
      </trkpt>
      <trkpt lat="44.42489" lon="1.09256">
        <ele>247.179001</ele>
        <time>2019-08-17T15:04:49Z</time>
      </trkpt>
      <trkpt lat="44.42493" lon="1.09251">
        <ele>247.255356</ele>
        <time>2019-08-17T15:04:50Z</time>
      </trkpt>
      <trkpt lat="44.42496" lon="1.09246">
        <ele>247.326782</ele>
        <time>2019-08-17T15:04:51Z</time>
      </trkpt>
      <trkpt lat="44.425" lon="1.09241">
        <ele>247.387512</ele>
        <time>2019-08-17T15:04:52Z</time>
      </trkpt>
      <trkpt lat="44.42503" lon="1.09236">
        <ele>247.437485</ele>
        <time>2019-08-17T15:04:53Z</time>
      </trkpt>
      <trkpt lat="44.42507" lon="1.09231">
        <ele>247.476822</ele>
        <time>2019-08-17T15:04:54Z</time>
      </trkpt>
      <trkpt lat="44.42511" lon="1.09225">
        <ele>247.511963</ele>
        <time>2019-08-17T15:04:55Z</time>
      </trkpt>
      <trkpt lat="44.42514" lon="1.09219">
        <ele>247.511963</ele>
        <time>2019-08-17T15:04:56Z</time>
      </trkpt>
      <trkpt lat="44.42517" lon="1.09213">
        <ele>247.546936</ele>
        <time>2019-08-17T15:04:57Z</time>
      </trkpt>
      <trkpt lat="44.42521" lon="1.09207">
        <ele>247.584</ele>
        <time>2019-08-17T15:04:58Z</time>
      </trkpt>
      <trkpt lat="44.42524" lon="1.09201">
        <ele>247.632996</ele>
        <time>2019-08-17T15:04:59Z</time>
      </trkpt>
      <trkpt lat="44.42527" lon="1.09195">
        <ele>247.686111</ele>
        <time>2019-08-17T15:05:00Z</time>
      </trkpt>
      <trkpt lat="44.4253" lon="1.09189">
        <ele>247.744308</ele>
        <time>2019-08-17T15:05:01Z</time>
      </trkpt>
      <trkpt lat="44.42533" lon="1.09183">
        <ele>247.802567</ele>
        <time>2019-08-17T15:05:02Z</time>
      </trkpt>
      <trkpt lat="44.42535" lon="1.09177">
        <ele>247.859619</ele>
        <time>2019-08-17T15:05:03Z</time>
      </trkpt>
      <trkpt lat="44.42538" lon="1.09171">
        <ele>247.910477</ele>
        <time>2019-08-17T15:05:04Z</time>
      </trkpt>
      <trkpt lat="44.42541" lon="1.09165">
        <ele>247.94426</ele>
        <time>2019-08-17T15:05:05Z</time>
      </trkpt>
      <trkpt lat="44.42544" lon="1.0916">
        <ele>247.969559</ele>
        <time>2019-08-17T15:05:06Z</time>
      </trkpt>
      <trkpt lat="44.42547" lon="1.09155">
        <ele>247.987137</ele>
        <time>2019-08-17T15:05:07Z</time>
      </trkpt>
      <trkpt lat="44.4255" lon="1.0915">
        <ele>247.997482</ele>
        <time>2019-08-17T15:05:08Z</time>
      </trkpt>
      <trkpt lat="44.42553" lon="1.09146">
        <ele>248.000076</ele>
        <time>2019-08-17T15:05:09Z</time>
      </trkpt>
      <trkpt lat="44.42556" lon="1.09141">
        <ele>248.000076</ele>
        <time>2019-08-17T15:05:10Z</time>
      </trkpt>
      <trkpt lat="44.42559" lon="1.09135">
        <ele>248.000076</ele>
        <time>2019-08-17T15:05:11Z</time>
      </trkpt>
      <trkpt lat="44.42563" lon="1.0913">
        <ele>248</ele>
        <time>2019-08-17T15:05:12Z</time>
      </trkpt>
      <trkpt lat="44.42567" lon="1.09125">
        <ele>248</ele>
        <time>2019-08-17T15:05:13Z</time>
      </trkpt>
      <trkpt lat="44.42571" lon="1.0912">
        <ele>248</ele>
        <time>2019-08-17T15:05:14Z</time>
      </trkpt>
      <trkpt lat="44.42576" lon="1.09117">
        <ele>248</ele>
        <time>2019-08-17T15:05:15Z</time>
      </trkpt>
      <trkpt lat="44.4258" lon="1.09113">
        <ele>248</ele>
        <time>2019-08-17T15:05:16Z</time>
      </trkpt>
      <trkpt lat="44.42584" lon="1.0911">
        <ele>248</ele>
        <time>2019-08-17T15:05:17Z</time>
      </trkpt>
      <trkpt lat="44.42589" lon="1.09107">
        <ele>248</ele>
        <time>2019-08-17T15:05:18Z</time>
      </trkpt>
      <trkpt lat="44.42593" lon="1.09104">
        <ele>248</ele>
        <time>2019-08-17T15:05:19Z</time>
      </trkpt>
      <trkpt lat="44.42598" lon="1.091">
        <ele>248</ele>
        <time>2019-08-17T15:05:20Z</time>
      </trkpt>
      <trkpt lat="44.42602" lon="1.09097">
        <ele>247.997192</ele>
        <time>2019-08-17T15:05:21Z</time>
      </trkpt>
      <trkpt lat="44.42606" lon="1.09094">
        <ele>247.997192</ele>
        <time>2019-08-17T15:05:22Z</time>
      </trkpt>
      <trkpt lat="44.4261" lon="1.0909">
        <ele>247.986801</ele>
        <time>2019-08-17T15:05:23Z</time>
      </trkpt>
      <trkpt lat="44.42614" lon="1.09086">
        <ele>247.968246</ele>
        <time>2019-08-17T15:05:24Z</time>
      </trkpt>
      <trkpt lat="44.42616" lon="1.09081">
        <ele>247.93309</ele>
        <time>2019-08-17T15:05:25Z</time>
      </trkpt>
      <trkpt lat="44.42619" lon="1.09077">
        <ele>247.889053</ele>
        <time>2019-08-17T15:05:26Z</time>
      </trkpt>
      <trkpt lat="44.42621" lon="1.09073">
        <ele>247.835678</ele>
        <time>2019-08-17T15:05:27Z</time>
      </trkpt>
      <trkpt lat="44.42623" lon="1.09071">
        <ele>247.773788</ele>
        <time>2019-08-17T15:05:28Z</time>
      </trkpt>
      <trkpt lat="44.42625" lon="1.09068">
        <ele>247.707764</ele>
        <time>2019-08-17T15:05:29Z</time>
      </trkpt>
      <trkpt lat="44.42628" lon="1.09066">
        <ele>247.641769</ele>
        <time>2019-08-17T15:05:30Z</time>
      </trkpt>
      <trkpt lat="44.42631" lon="1.09064">
        <ele>247.586349</ele>
        <time>2019-08-17T15:05:31Z</time>
      </trkpt>
      <trkpt lat="44.42635" lon="1.09061">
        <ele>247.533691</ele>
        <time>2019-08-17T15:05:32Z</time>
      </trkpt>
      <trkpt lat="44.42639" lon="1.09057">
        <ele>247.485184</ele>
        <time>2019-08-17T15:05:33Z</time>
      </trkpt>
      <trkpt lat="44.42643" lon="1.09053">
        <ele>247.485184</ele>
        <time>2019-08-17T15:05:34Z</time>
      </trkpt>
      <trkpt lat="44.42646" lon="1.09048">
        <ele>247.441895</ele>
        <time>2019-08-17T15:05:35Z</time>
      </trkpt>
      <trkpt lat="44.42651" lon="1.09044">
        <ele>247.403076</ele>
        <time>2019-08-17T15:05:36Z</time>
      </trkpt>
      <trkpt lat="44.42654" lon="1.09039">
        <ele>247.352951</ele>
        <time>2019-08-17T15:05:37Z</time>
      </trkpt>
      <trkpt lat="44.42658" lon="1.09034">
        <ele>247.297928</ele>
        <time>2019-08-17T15:05:38Z</time>
      </trkpt>
      <trkpt lat="44.42661" lon="1.09029">
        <ele>247.238525</ele>
        <time>2019-08-17T15:05:39Z</time>
      </trkpt>
      <trkpt lat="44.42664" lon="1.09024">
        <ele>247.173401</ele>
        <time>2019-08-17T15:05:40Z</time>
      </trkpt>
      <trkpt lat="44.42667" lon="1.09018">
        <ele>247.103943</ele>
        <time>2019-08-17T15:05:41Z</time>
      </trkpt>
      <trkpt lat="44.42671" lon="1.09012">
        <ele>247.028992</ele>
        <time>2019-08-17T15:05:42Z</time>
      </trkpt>
      <trkpt lat="44.42675" lon="1.09006">
        <ele>246.959106</ele>
        <time>2019-08-17T15:05:43Z</time>
      </trkpt>
      <trkpt lat="44.4268" lon="1.09001">
        <ele>246.881454</ele>
        <time>2019-08-17T15:05:44Z</time>
      </trkpt>
      <trkpt lat="44.42685" lon="1.08997">
        <ele>246.795303</ele>
        <time>2019-08-17T15:05:45Z</time>
      </trkpt>
      <trkpt lat="44.4269" lon="1.08992">
        <ele>246.702286</ele>
        <time>2019-08-17T15:05:46Z</time>
      </trkpt>
      <trkpt lat="44.42696" lon="1.08988">
        <ele>246.604202</ele>
        <time>2019-08-17T15:05:47Z</time>
      </trkpt>
      <trkpt lat="44.42701" lon="1.08984">
        <ele>246.505295</ele>
        <time>2019-08-17T15:05:48Z</time>
      </trkpt>
      <trkpt lat="44.42706" lon="1.0898">
        <ele>246.40918</ele>
        <time>2019-08-17T15:05:49Z</time>
      </trkpt>
      <trkpt lat="44.42712" lon="1.08977">
        <ele>246.322205</ele>
        <time>2019-08-17T15:05:50Z</time>
      </trkpt>
      <trkpt lat="44.42717" lon="1.08974">
        <ele>246.246353</ele>
        <time>2019-08-17T15:05:51Z</time>
      </trkpt>
      <trkpt lat="44.42722" lon="1.08971">
        <ele>246.182129</ele>
        <time>2019-08-17T15:05:52Z</time>
      </trkpt>
      <trkpt lat="44.42728" lon="1.08968">
        <ele>246.129044</ele>
        <time>2019-08-17T15:05:53Z</time>
      </trkpt>
      <trkpt lat="44.42734" lon="1.08965">
        <ele>246.086609</ele>
        <time>2019-08-17T15:05:54Z</time>
      </trkpt>
      <trkpt lat="44.4274" lon="1.08963">
        <ele>246.053955</ele>
        <time>2019-08-17T15:05:55Z</time>
      </trkpt>
      <trkpt lat="44.42746" lon="1.08961">
        <ele>246.024551</ele>
        <time>2019-08-17T15:05:56Z</time>
      </trkpt>
      <trkpt lat="44.42752" lon="1.08958">
        <ele>245.995743</ele>
        <time>2019-08-17T15:05:57Z</time>
      </trkpt>
      <trkpt lat="44.42758" lon="1.08956">
        <ele>245.9543</ele>
        <time>2019-08-17T15:05:58Z</time>
      </trkpt>
      <trkpt lat="44.42764" lon="1.08954">
        <ele>245.899963</ele>
        <time>2019-08-17T15:05:59Z</time>
      </trkpt>
      <trkpt lat="44.4277" lon="1.08952">
        <ele>245.83226</ele>
        <time>2019-08-17T15:06:00Z</time>
      </trkpt>
      <trkpt lat="44.42776" lon="1.0895">
        <ele>245.751266</ele>
        <time>2019-08-17T15:06:01Z</time>
      </trkpt>
      <trkpt lat="44.42782" lon="1.08949">
        <ele>245.751266</ele>
        <time>2019-08-17T15:06:02Z</time>
      </trkpt>
      <trkpt lat="44.42788" lon="1.08947">
        <ele>245.662247</ele>
        <time>2019-08-17T15:06:03Z</time>
      </trkpt>
      <trkpt lat="44.42794" lon="1.08945">
        <ele>245.566818</ele>
        <time>2019-08-17T15:06:04Z</time>
      </trkpt>
      <trkpt lat="44.42799" lon="1.08944">
        <ele>245.465805</ele>
        <time>2019-08-17T15:06:05Z</time>
      </trkpt>
      <trkpt lat="44.42804" lon="1.08942">
        <ele>245.371597</ele>
        <time>2019-08-17T15:06:06Z</time>
      </trkpt>
      <trkpt lat="44.42809" lon="1.0894">
        <ele>245.284241</ele>
        <time>2019-08-17T15:06:07Z</time>
      </trkpt>
      <trkpt lat="44.42813" lon="1.08939">
        <ele>245.203369</ele>
        <time>2019-08-17T15:06:08Z</time>
      </trkpt>
      <trkpt lat="44.42817" lon="1.08937">
        <ele>245.130234</ele>
        <time>2019-08-17T15:06:09Z</time>
      </trkpt>
      <trkpt lat="44.42822" lon="1.08937">
        <ele>245.065659</ele>
        <time>2019-08-17T15:06:10Z</time>
      </trkpt>
      <trkpt lat="44.42827" lon="1.08937">
        <ele>245.020126</ele>
        <time>2019-08-17T15:06:11Z</time>
      </trkpt>
      <trkpt lat="44.42832" lon="1.08936">
        <ele>244.979416</ele>
        <time>2019-08-17T15:06:12Z</time>
      </trkpt>
      <trkpt lat="44.42838" lon="1.08933">
        <ele>244.943161</ele>
        <time>2019-08-17T15:06:13Z</time>
      </trkpt>
      <trkpt lat="44.42843" lon="1.0893">
        <ele>244.909973</ele>
        <time>2019-08-17T15:06:14Z</time>
      </trkpt>
      <trkpt lat="44.42849" lon="1.08926">
        <ele>244.875504</ele>
        <time>2019-08-17T15:06:15Z</time>
      </trkpt>
      <trkpt lat="44.42854" lon="1.08921">
        <ele>244.835693</ele>
        <time>2019-08-17T15:06:16Z</time>
      </trkpt>
      <trkpt lat="44.42859" lon="1.08916">
        <ele>244.789063</ele>
        <time>2019-08-17T15:06:17Z</time>
      </trkpt>
      <trkpt lat="44.42863" lon="1.08911">
        <ele>244.733597</ele>
        <time>2019-08-17T15:06:18Z</time>
      </trkpt>
      <trkpt lat="44.42868" lon="1.08905">
        <ele>244.666824</ele>
        <time>2019-08-17T15:06:19Z</time>
      </trkpt>
      <trkpt lat="44.42872" lon="1.08899">
        <ele>244.587204</ele>
        <time>2019-08-17T15:06:20Z</time>
      </trkpt>
      <trkpt lat="44.42876" lon="1.08893">
        <ele>244.494629</ele>
        <time>2019-08-17T15:06:21Z</time>
      </trkpt>
      <trkpt lat="44.4288" lon="1.08887">
        <ele>244.39032</ele>
        <time>2019-08-17T15:06:22Z</time>
      </trkpt>
      <trkpt lat="44.42884" lon="1.08881">
        <ele>244.275589</ele>
        <time>2019-08-17T15:06:23Z</time>
      </trkpt>
      <trkpt lat="44.42888" lon="1.08875">
        <ele>244.159241</ele>
        <time>2019-08-17T15:06:24Z</time>
      </trkpt>
      <trkpt lat="44.42891" lon="1.08868">
        <ele>244.04158</ele>
        <time>2019-08-17T15:06:25Z</time>
      </trkpt>
      <trkpt lat="44.42895" lon="1.08862">
        <ele>243.922546</ele>
        <time>2019-08-17T15:06:26Z</time>
      </trkpt>
      <trkpt lat="44.42899" lon="1.08855">
        <ele>243.802994</ele>
        <time>2019-08-17T15:06:27Z</time>
      </trkpt>
      <trkpt lat="44.42903" lon="1.08849">
        <ele>243.681747</ele>
        <time>2019-08-17T15:06:28Z</time>
      </trkpt>
      <trkpt lat="44.42907" lon="1.08843">
        <ele>243.557434</ele>
        <time>2019-08-17T15:06:29Z</time>
      </trkpt>
      <trkpt lat="44.42912" lon="1.08836">
        <ele>243.557434</ele>
        <time>2019-08-17T15:06:30Z</time>
      </trkpt>
      <trkpt lat="44.42917" lon="1.0883">
        <ele>243.421616</ele>
        <time>2019-08-17T15:06:31Z</time>
      </trkpt>
      <trkpt lat="44.42921" lon="1.08825">
        <ele>243.421616</ele>
        <time>2019-08-17T15:06:32Z</time>
      </trkpt>
      <trkpt lat="44.42926" lon="1.0882">
        <ele>243.273193</ele>
        <time>2019-08-17T15:06:33Z</time>
      </trkpt>
      <trkpt lat="44.42932" lon="1.08816">
        <ele>243.078995</ele>
        <time>2019-08-17T15:06:34Z</time>
      </trkpt>
      <trkpt lat="44.42938" lon="1.08812">
        <ele>242.871628</ele>
        <time>2019-08-17T15:06:35Z</time>
      </trkpt>
      <trkpt lat="44.42943" lon="1.08809">
        <ele>242.676025</ele>
        <time>2019-08-17T15:06:36Z</time>
      </trkpt>
      <trkpt lat="44.42949" lon="1.08806">
        <ele>242.493164</ele>
        <time>2019-08-17T15:06:37Z</time>
      </trkpt>
      <trkpt lat="44.42954" lon="1.08804">
        <ele>242.32489</ele>
        <time>2019-08-17T15:06:38Z</time>
      </trkpt>
      <trkpt lat="44.4296" lon="1.08802">
        <ele>242.173141</ele>
        <time>2019-08-17T15:06:39Z</time>
      </trkpt>
      <trkpt lat="44.42966" lon="1.088">
        <ele>242.072754</ele>
        <time>2019-08-17T15:06:40Z</time>
      </trkpt>
      <trkpt lat="44.42971" lon="1.08798">
        <ele>241.993088</ele>
        <time>2019-08-17T15:06:41Z</time>
      </trkpt>
      <trkpt lat="44.42976" lon="1.08796">
        <ele>241.911789</ele>
        <time>2019-08-17T15:06:42Z</time>
      </trkpt>
      <trkpt lat="44.42979" lon="1.08794">
        <ele>241.829269</ele>
        <time>2019-08-17T15:06:43Z</time>
      </trkpt>
      <trkpt lat="44.4298" lon="1.08789">
        <ele>241.829269</ele>
        <time>2019-08-17T15:06:44Z</time>
      </trkpt>
      <trkpt lat="44.42981" lon="1.08783">
        <ele>241.74675</ele>
        <time>2019-08-17T15:06:45Z</time>
      </trkpt>
      <trkpt lat="44.4298" lon="1.08776">
        <ele>241.667404</ele>
        <time>2019-08-17T15:06:46Z</time>
      </trkpt>
      <trkpt lat="44.42979" lon="1.08769">
        <ele>241.591309</ele>
        <time>2019-08-17T15:06:47Z</time>
      </trkpt>
      <trkpt lat="44.42979" lon="1.08761">
        <ele>241.531006</ele>
        <time>2019-08-17T15:06:48Z</time>
      </trkpt>
      <trkpt lat="44.4298" lon="1.08753">
        <ele>241.531006</ele>
        <time>2019-08-17T15:06:49Z</time>
      </trkpt>
      <trkpt lat="44.42981" lon="1.08745">
        <ele>241.531006</ele>
        <time>2019-08-17T15:06:50Z</time>
      </trkpt>
      <trkpt lat="44.42981" lon="1.08737">
        <ele>241.531006</ele>
        <time>2019-08-17T15:06:51Z</time>
      </trkpt>
      <trkpt lat="44.42983" lon="1.08729">
        <ele>241.568604</ele>
        <time>2019-08-17T15:06:52Z</time>
      </trkpt>
      <trkpt lat="44.42983" lon="1.08721">
        <ele>241.675858</ele>
        <time>2019-08-17T15:06:53Z</time>
      </trkpt>
      <trkpt lat="44.42983" lon="1.08714">
        <ele>241.853439</ele>
        <time>2019-08-17T15:06:54Z</time>
      </trkpt>
      <trkpt lat="44.42983" lon="1.08706">
        <ele>242.098709</ele>
        <time>2019-08-17T15:06:55Z</time>
      </trkpt>
      <trkpt lat="44.42983" lon="1.087">
        <ele>242.410568</ele>
        <time>2019-08-17T15:06:56Z</time>
      </trkpt>
      <trkpt lat="44.42983" lon="1.08693">
        <ele>242.773849</ele>
        <time>2019-08-17T15:06:57Z</time>
      </trkpt>
      <trkpt lat="44.42983" lon="1.08686">
        <ele>243.105637</ele>
        <time>2019-08-17T15:06:58Z</time>
      </trkpt>
      <trkpt lat="44.42983" lon="1.08679">
        <ele>243.432129</ele>
        <time>2019-08-17T15:06:59Z</time>
      </trkpt>
      <trkpt lat="44.42983" lon="1.08673">
        <ele>243.764282</ele>
        <time>2019-08-17T15:07:00Z</time>
      </trkpt>
      <trkpt lat="44.42982" lon="1.08666">
        <ele>244.114548</ele>
        <time>2019-08-17T15:07:01Z</time>
      </trkpt>
      <trkpt lat="44.42982" lon="1.08659">
        <ele>244.483932</ele>
        <time>2019-08-17T15:07:02Z</time>
      </trkpt>
      <trkpt lat="44.42982" lon="1.08653">
        <ele>244.872803</ele>
        <time>2019-08-17T15:07:03Z</time>
      </trkpt>
      <trkpt lat="44.42982" lon="1.08646">
        <ele>244.872803</ele>
        <time>2019-08-17T15:07:04Z</time>
      </trkpt>
      <trkpt lat="44.42982" lon="1.0864">
        <ele>245.285965</ele>
        <time>2019-08-17T15:07:05Z</time>
      </trkpt>
      <trkpt lat="44.42982" lon="1.08633">
        <ele>245.723679</ele>
        <time>2019-08-17T15:07:06Z</time>
      </trkpt>
      <trkpt lat="44.42982" lon="1.08626">
        <ele>246.24379</ele>
        <time>2019-08-17T15:07:07Z</time>
      </trkpt>
      <trkpt lat="44.42983" lon="1.08619">
        <ele>246.763489</ele>
        <time>2019-08-17T15:07:08Z</time>
      </trkpt>
      <trkpt lat="44.42983" lon="1.08613">
        <ele>247.283157</ele>
        <time>2019-08-17T15:07:09Z</time>
      </trkpt>
      <trkpt lat="44.42984" lon="1.08607">
        <ele>247.283157</ele>
        <time>2019-08-17T15:07:10Z</time>
      </trkpt>
      <trkpt lat="44.42984" lon="1.086">
        <ele>247.805435</ele>
        <time>2019-08-17T15:07:11Z</time>
      </trkpt>
      <trkpt lat="44.42985" lon="1.08594">
        <ele>248.321396</ele>
        <time>2019-08-17T15:07:12Z</time>
      </trkpt>
      <trkpt lat="44.42985" lon="1.08588">
        <ele>248.894409</ele>
        <time>2019-08-17T15:07:13Z</time>
      </trkpt>
      <trkpt lat="44.42986" lon="1.08582">
        <ele>249.390854</ele>
        <time>2019-08-17T15:07:14Z</time>
      </trkpt>
      <trkpt lat="44.42986" lon="1.08577">
        <ele>249.87944</ele>
        <time>2019-08-17T15:07:15Z</time>
      </trkpt>
      <trkpt lat="44.42986" lon="1.08571">
        <ele>250.355606</ele>
        <time>2019-08-17T15:07:16Z</time>
      </trkpt>
      <trkpt lat="44.42986" lon="1.08565">
        <ele>250.816757</ele>
        <time>2019-08-17T15:07:17Z</time>
      </trkpt>
      <trkpt lat="44.42986" lon="1.0856">
        <ele>251.267502</ele>
        <time>2019-08-17T15:07:18Z</time>
      </trkpt>
      <trkpt lat="44.42986" lon="1.08554">
        <ele>251.646729</ele>
        <time>2019-08-17T15:07:19Z</time>
      </trkpt>
      <trkpt lat="44.42986" lon="1.08549">
        <ele>252.01683</ele>
        <time>2019-08-17T15:07:20Z</time>
      </trkpt>
      <trkpt lat="44.42986" lon="1.08544">
        <ele>252.377945</ele>
        <time>2019-08-17T15:07:21Z</time>
      </trkpt>
      <trkpt lat="44.42986" lon="1.08539">
        <ele>252.720139</ele>
        <time>2019-08-17T15:07:22Z</time>
      </trkpt>
      <trkpt lat="44.42986" lon="1.08533">
        <ele>252.720139</ele>
        <time>2019-08-17T15:07:23Z</time>
      </trkpt>
      <trkpt lat="44.42985" lon="1.08528">
        <ele>253.039413</ele>
        <time>2019-08-17T15:07:24Z</time>
      </trkpt>
      <trkpt lat="44.42985" lon="1.08523">
        <ele>253.337112</ele>
        <time>2019-08-17T15:07:25Z</time>
      </trkpt>
      <trkpt lat="44.42984" lon="1.08518">
        <ele>253.650131</ele>
        <time>2019-08-17T15:07:26Z</time>
      </trkpt>
      <trkpt lat="44.42983" lon="1.08512">
        <ele>253.941818</ele>
        <time>2019-08-17T15:07:27Z</time>
      </trkpt>
      <trkpt lat="44.42982" lon="1.08507">
        <ele>254.210693</ele>
        <time>2019-08-17T15:07:28Z</time>
      </trkpt>
      <trkpt lat="44.4298" lon="1.08502">
        <ele>254.470459</ele>
        <time>2019-08-17T15:07:29Z</time>
      </trkpt>
      <trkpt lat="44.42979" lon="1.08497">
        <ele>254.727371</ele>
        <time>2019-08-17T15:07:30Z</time>
      </trkpt>
      <trkpt lat="44.42978" lon="1.08491">
        <ele>254.97673</ele>
        <time>2019-08-17T15:07:31Z</time>
      </trkpt>
      <trkpt lat="44.42977" lon="1.08486">
        <ele>255.181717</ele>
        <time>2019-08-17T15:07:32Z</time>
      </trkpt>
      <trkpt lat="44.42975" lon="1.08481">
        <ele>255.380615</ele>
        <time>2019-08-17T15:07:33Z</time>
      </trkpt>
      <trkpt lat="44.42974" lon="1.08477">
        <ele>255.380615</ele>
        <time>2019-08-17T15:07:34Z</time>
      </trkpt>
      <trkpt lat="44.42973" lon="1.08472">
        <ele>255.550293</ele>
        <time>2019-08-17T15:07:35Z</time>
      </trkpt>
      <trkpt lat="44.42972" lon="1.08467">
        <ele>255.67482</ele>
        <time>2019-08-17T15:07:36Z</time>
      </trkpt>
      <trkpt lat="44.42971" lon="1.08462">
        <ele>255.754929</ele>
        <time>2019-08-17T15:07:37Z</time>
      </trkpt>
      <trkpt lat="44.4297" lon="1.08457">
        <ele>255.794739</ele>
        <time>2019-08-17T15:07:38Z</time>
      </trkpt>
      <trkpt lat="44.42969" lon="1.08453">
        <ele>255.794739</ele>
        <time>2019-08-17T15:07:39Z</time>
      </trkpt>
      <trkpt lat="44.42968" lon="1.08448">
        <ele>255.794739</ele>
        <time>2019-08-17T15:07:40Z</time>
      </trkpt>
      <trkpt lat="44.42967" lon="1.08443">
        <ele>255.793747</ele>
        <time>2019-08-17T15:07:41Z</time>
      </trkpt>
      <trkpt lat="44.42967" lon="1.08437">
        <ele>255.75238</ele>
        <time>2019-08-17T15:07:42Z</time>
      </trkpt>
      <trkpt lat="44.42967" lon="1.08432">
        <ele>255.697311</ele>
        <time>2019-08-17T15:07:43Z</time>
      </trkpt>
      <trkpt lat="44.42968" lon="1.08426">
        <ele>255.645874</ele>
        <time>2019-08-17T15:07:44Z</time>
      </trkpt>
      <trkpt lat="44.4297" lon="1.08421">
        <ele>255.597473</ele>
        <time>2019-08-17T15:07:45Z</time>
      </trkpt>
      <trkpt lat="44.42973" lon="1.08417">
        <ele>255.553421</ele>
        <time>2019-08-17T15:07:46Z</time>
      </trkpt>
      <trkpt lat="44.42976" lon="1.08413">
        <ele>255.516281</ele>
        <time>2019-08-17T15:07:47Z</time>
      </trkpt>
      <trkpt lat="44.4298" lon="1.0841">
        <ele>255.486084</ele>
        <time>2019-08-17T15:07:48Z</time>
      </trkpt>
      <trkpt lat="44.42983" lon="1.08408">
        <ele>255.454971</ele>
        <time>2019-08-17T15:07:49Z</time>
      </trkpt>
      <trkpt lat="44.42987" lon="1.08406">
        <ele>255.424484</ele>
        <time>2019-08-17T15:07:50Z</time>
      </trkpt>
      <trkpt lat="44.42991" lon="1.08404">
        <ele>255.397781</ele>
        <time>2019-08-17T15:07:51Z</time>
      </trkpt>
      <trkpt lat="44.42996" lon="1.08401">
        <ele>255.375015</ele>
        <time>2019-08-17T15:07:52Z</time>
      </trkpt>
      <trkpt lat="44.43" lon="1.08399">
        <ele>255.353821</ele>
        <time>2019-08-17T15:07:53Z</time>
      </trkpt>
      <trkpt lat="44.43004" lon="1.08397">
        <ele>255.330429</ele>
        <time>2019-08-17T15:07:54Z</time>
      </trkpt>
      <trkpt lat="44.43008" lon="1.08395">
        <ele>255.312195</ele>
        <time>2019-08-17T15:07:55Z</time>
      </trkpt>
      <trkpt lat="44.43013" lon="1.08393">
        <ele>255.312195</ele>
        <time>2019-08-17T15:07:56Z</time>
      </trkpt>
      <trkpt lat="44.43016" lon="1.08391">
        <ele>255.297058</ele>
        <time>2019-08-17T15:07:57Z</time>
      </trkpt>
      <trkpt lat="44.43021" lon="1.08389">
        <ele>255.281677</ele>
        <time>2019-08-17T15:07:58Z</time>
      </trkpt>
      <trkpt lat="44.43026" lon="1.08388">
        <ele>255.261215</ele>
        <time>2019-08-17T15:07:59Z</time>
      </trkpt>
      <trkpt lat="44.43029" lon="1.08387">
        <ele>255.239136</ele>
        <time>2019-08-17T15:08:00Z</time>
      </trkpt>
      <trkpt lat="44.43034" lon="1.08385">
        <ele>255.217361</ele>
        <time>2019-08-17T15:08:01Z</time>
      </trkpt>
      <trkpt lat="44.43039" lon="1.08384">
        <ele>255.197876</ele>
        <time>2019-08-17T15:08:02Z</time>
      </trkpt>
      <trkpt lat="44.43043" lon="1.08382">
        <ele>255.179672</ele>
        <time>2019-08-17T15:08:03Z</time>
      </trkpt>
      <trkpt lat="44.43047" lon="1.0838">
        <ele>255.162247</ele>
        <time>2019-08-17T15:08:04Z</time>
      </trkpt>
      <trkpt lat="44.43051" lon="1.08377">
        <ele>255.146866</ele>
        <time>2019-08-17T15:08:05Z</time>
      </trkpt>
      <trkpt lat="44.43055" lon="1.08374">
        <ele>255.128006</ele>
        <time>2019-08-17T15:08:06Z</time>
      </trkpt>
      <trkpt lat="44.43058" lon="1.08371">
        <ele>255.10289</ele>
        <time>2019-08-17T15:08:07Z</time>
      </trkpt>
      <trkpt lat="44.43062" lon="1.08366">
        <ele>255.066757</ele>
        <time>2019-08-17T15:08:08Z</time>
      </trkpt>
      <trkpt lat="44.43066" lon="1.08362">
        <ele>255.016861</ele>
        <time>2019-08-17T15:08:09Z</time>
      </trkpt>
      <trkpt lat="44.4307" lon="1.08357">
        <ele>254.947891</ele>
        <time>2019-08-17T15:08:10Z</time>
      </trkpt>
      <trkpt lat="44.43073" lon="1.08352">
        <ele>254.854538</ele>
        <time>2019-08-17T15:08:11Z</time>
      </trkpt>
      <trkpt lat="44.43077" lon="1.08346">
        <ele>254.737061</ele>
        <time>2019-08-17T15:08:12Z</time>
      </trkpt>
      <trkpt lat="44.43081" lon="1.0834">
        <ele>254.597336</ele>
        <time>2019-08-17T15:08:13Z</time>
      </trkpt>
      <trkpt lat="44.43084" lon="1.08334">
        <ele>254.432373</ele>
        <time>2019-08-17T15:08:14Z</time>
      </trkpt>
      <trkpt lat="44.43088" lon="1.08328">
        <ele>254.240799</ele>
        <time>2019-08-17T15:08:15Z</time>
      </trkpt>
      <trkpt lat="44.43092" lon="1.08321">
        <ele>254.026535</ele>
        <time>2019-08-17T15:08:16Z</time>
      </trkpt>
      <trkpt lat="44.43096" lon="1.08315">
        <ele>253.793625</ele>
        <time>2019-08-17T15:08:17Z</time>
      </trkpt>
      <trkpt lat="44.431" lon="1.08309">
        <ele>253.539871</ele>
        <time>2019-08-17T15:08:18Z</time>
      </trkpt>
      <trkpt lat="44.43104" lon="1.08302">
        <ele>253.264603</ele>
        <time>2019-08-17T15:08:19Z</time>
      </trkpt>
      <trkpt lat="44.43109" lon="1.08295">
        <ele>252.970688</ele>
        <time>2019-08-17T15:08:20Z</time>
      </trkpt>
      <trkpt lat="44.43114" lon="1.08289">
        <ele>252.663696</ele>
        <time>2019-08-17T15:08:21Z</time>
      </trkpt>
      <trkpt lat="44.43119" lon="1.08282">
        <ele>252.33989</ele>
        <time>2019-08-17T15:08:22Z</time>
      </trkpt>
      <trkpt lat="44.43124" lon="1.08275">
        <ele>252.00032</ele>
        <time>2019-08-17T15:08:23Z</time>
      </trkpt>
      <trkpt lat="44.4313" lon="1.08268">
        <ele>252.00032</ele>
        <time>2019-08-17T15:08:24Z</time>
      </trkpt>
      <trkpt lat="44.43135" lon="1.08261">
        <ele>251.644897</ele>
        <time>2019-08-17T15:08:25Z</time>
      </trkpt>
      <trkpt lat="44.4314" lon="1.08254">
        <ele>251.274765</ele>
        <time>2019-08-17T15:08:26Z</time>
      </trkpt>
      <trkpt lat="44.43145" lon="1.08248">
        <ele>250.840652</ele>
        <time>2019-08-17T15:08:27Z</time>
      </trkpt>
      <trkpt lat="44.4315" lon="1.08242">
        <ele>250.398544</ele>
        <time>2019-08-17T15:08:28Z</time>
      </trkpt>
      <trkpt lat="44.43154" lon="1.08236">
        <ele>249.952744</ele>
        <time>2019-08-17T15:08:29Z</time>
      </trkpt>
      <trkpt lat="44.43159" lon="1.08231">
        <ele>249.505676</ele>
        <time>2019-08-17T15:08:30Z</time>
      </trkpt>
      <trkpt lat="44.43163" lon="1.08227">
        <ele>249.051834</ele>
        <time>2019-08-17T15:08:31Z</time>
      </trkpt>
      <trkpt lat="44.43168" lon="1.08222">
        <ele>248.59053</ele>
        <time>2019-08-17T15:08:32Z</time>
      </trkpt>
      <trkpt lat="44.43173" lon="1.08216">
        <ele>248.178833</ele>
        <time>2019-08-17T15:08:33Z</time>
      </trkpt>
      <trkpt lat="44.43178" lon="1.08209">
        <ele>248.178833</ele>
        <time>2019-08-17T15:08:34Z</time>
      </trkpt>
      <trkpt lat="44.43184" lon="1.08202">
        <ele>247.764084</ele>
        <time>2019-08-17T15:08:35Z</time>
      </trkpt>
      <trkpt lat="44.4319" lon="1.08195">
        <ele>247.345779</ele>
        <time>2019-08-17T15:08:36Z</time>
      </trkpt>
      <trkpt lat="44.43196" lon="1.08188">
        <ele>246.895386</ele>
        <time>2019-08-17T15:08:37Z</time>
      </trkpt>
      <trkpt lat="44.43202" lon="1.0818">
        <ele>246.503983</ele>
        <time>2019-08-17T15:08:38Z</time>
      </trkpt>
      <trkpt lat="44.43209" lon="1.08173">
        <ele>246.175369</ele>
        <time>2019-08-17T15:08:39Z</time>
      </trkpt>
      <trkpt lat="44.43216" lon="1.08167">
        <ele>245.907272</ele>
        <time>2019-08-17T15:08:40Z</time>
      </trkpt>
      <trkpt lat="44.43223" lon="1.0816">
        <ele>245.698242</ele>
        <time>2019-08-17T15:08:41Z</time>
      </trkpt>
      <trkpt lat="44.4323" lon="1.08152">
        <ele>245.698242</ele>
        <time>2019-08-17T15:08:42Z</time>
      </trkpt>
      <trkpt lat="44.43235" lon="1.08144">
        <ele>245.550461</ele>
        <time>2019-08-17T15:08:43Z</time>
      </trkpt>
      <trkpt lat="44.43241" lon="1.08135">
        <ele>245.521729</ele>
        <time>2019-08-17T15:08:44Z</time>
      </trkpt>
      <trkpt lat="44.43247" lon="1.08127">
        <ele>245.521729</ele>
        <time>2019-08-17T15:08:45Z</time>
      </trkpt>
      <trkpt lat="44.43251" lon="1.08119">
        <ele>245.521729</ele>
        <time>2019-08-17T15:08:46Z</time>
      </trkpt>
      <trkpt lat="44.43257" lon="1.08111">
        <ele>245.521729</ele>
        <time>2019-08-17T15:08:47Z</time>
      </trkpt>
      <trkpt lat="44.43261" lon="1.08104">
        <ele>245.575928</ele>
        <time>2019-08-17T15:08:48Z</time>
      </trkpt>
      <trkpt lat="44.43266" lon="1.08097">
        <ele>245.779343</ele>
        <time>2019-08-17T15:08:49Z</time>
      </trkpt>
      <trkpt lat="44.4327" lon="1.08091">
        <ele>246.06041</ele>
        <time>2019-08-17T15:08:50Z</time>
      </trkpt>
      <trkpt lat="44.43273" lon="1.08086">
        <ele>246.413925</ele>
        <time>2019-08-17T15:08:51Z</time>
      </trkpt>
      <trkpt lat="44.43277" lon="1.08081">
        <ele>246.836777</ele>
        <time>2019-08-17T15:08:52Z</time>
      </trkpt>
      <trkpt lat="44.4328" lon="1.08076">
        <ele>246.836777</ele>
        <time>2019-08-17T15:08:53Z</time>
      </trkpt>
      <trkpt lat="44.43282" lon="1.08071">
        <ele>247.292831</ele>
        <time>2019-08-17T15:08:54Z</time>
      </trkpt>
      <trkpt lat="44.43284" lon="1.08066">
        <ele>247.732971</ele>
        <time>2019-08-17T15:08:55Z</time>
      </trkpt>
      <trkpt lat="44.43285" lon="1.08061">
        <ele>248.149658</ele>
        <time>2019-08-17T15:08:56Z</time>
      </trkpt>
      <trkpt lat="44.43286" lon="1.08056">
        <ele>248.580566</ele>
        <time>2019-08-17T15:08:57Z</time>
      </trkpt>
      <trkpt lat="44.43285" lon="1.08052">
        <ele>249.023148</ele>
        <time>2019-08-17T15:08:58Z</time>
      </trkpt>
      <trkpt lat="44.43283" lon="1.08047">
        <ele>249.473221</ele>
        <time>2019-08-17T15:08:59Z</time>
      </trkpt>
      <trkpt lat="44.4328" lon="1.08042">
        <ele>249.942673</ele>
        <time>2019-08-17T15:09:00Z</time>
      </trkpt>
      <trkpt lat="44.43279" lon="1.08037">
        <ele>249.942673</ele>
        <time>2019-08-17T15:09:01Z</time>
      </trkpt>
      <trkpt lat="44.43278" lon="1.08031">
        <ele>250.443588</ele>
        <time>2019-08-17T15:09:02Z</time>
      </trkpt>
      <trkpt lat="44.43277" lon="1.08025">
        <ele>250.92009</ele>
        <time>2019-08-17T15:09:03Z</time>
      </trkpt>
      <trkpt lat="44.43276" lon="1.08019">
        <ele>251.488235</ele>
        <time>2019-08-17T15:09:04Z</time>
      </trkpt>
      <trkpt lat="44.43275" lon="1.08014">
        <ele>252.070633</ele>
        <time>2019-08-17T15:09:05Z</time>
      </trkpt>
      <trkpt lat="44.43274" lon="1.08008">
        <ele>252.673508</ele>
        <time>2019-08-17T15:09:06Z</time>
      </trkpt>
      <trkpt lat="44.43274" lon="1.08003">
        <ele>253.292404</ele>
        <time>2019-08-17T15:09:07Z</time>
      </trkpt>
      <trkpt lat="44.43273" lon="1.07998">
        <ele>253.91597</ele>
        <time>2019-08-17T15:09:08Z</time>
      </trkpt>
      <trkpt lat="44.43272" lon="1.07993">
        <ele>254.530457</ele>
        <time>2019-08-17T15:09:09Z</time>
      </trkpt>
      <trkpt lat="44.4327" lon="1.07987">
        <ele>255.029541</ele>
        <time>2019-08-17T15:09:10Z</time>
      </trkpt>
      <trkpt lat="44.43269" lon="1.07981">
        <ele>255.49147</ele>
        <time>2019-08-17T15:09:11Z</time>
      </trkpt>
      <trkpt lat="44.43268" lon="1.07976">
        <ele>255.919296</ele>
        <time>2019-08-17T15:09:12Z</time>
      </trkpt>
      <trkpt lat="44.43267" lon="1.07971">
        <ele>256.315369</ele>
        <time>2019-08-17T15:09:13Z</time>
      </trkpt>
      <trkpt lat="44.43265" lon="1.07965">
        <ele>256.682465</ele>
        <time>2019-08-17T15:09:14Z</time>
      </trkpt>
      <trkpt lat="44.43263" lon="1.0796">
        <ele>256.682465</ele>
        <time>2019-08-17T15:09:15Z</time>
      </trkpt>
      <trkpt lat="44.43261" lon="1.07955">
        <ele>257.026886</ele>
        <time>2019-08-17T15:09:16Z</time>
      </trkpt>
      <trkpt lat="44.43259" lon="1.0795">
        <ele>257.36676</ele>
        <time>2019-08-17T15:09:17Z</time>
      </trkpt>
      <trkpt lat="44.43257" lon="1.07945">
        <ele>257.753113</ele>
        <time>2019-08-17T15:09:18Z</time>
      </trkpt>
      <trkpt lat="44.43255" lon="1.0794">
        <ele>258.126587</ele>
        <time>2019-08-17T15:09:19Z</time>
      </trkpt>
      <trkpt lat="44.43253" lon="1.07935">
        <ele>258.47995</ele>
        <time>2019-08-17T15:09:20Z</time>
      </trkpt>
      <trkpt lat="44.43251" lon="1.0793">
        <ele>258.816254</ele>
        <time>2019-08-17T15:09:21Z</time>
      </trkpt>
      <trkpt lat="44.43249" lon="1.07925">
        <ele>259.132904</ele>
        <time>2019-08-17T15:09:22Z</time>
      </trkpt>
      <trkpt lat="44.43247" lon="1.0792">
        <ele>259.398834</ele>
        <time>2019-08-17T15:09:23Z</time>
      </trkpt>
      <trkpt lat="44.43245" lon="1.07915">
        <ele>259.567749</ele>
        <time>2019-08-17T15:09:24Z</time>
      </trkpt>
      <trkpt lat="44.43243" lon="1.0791">
        <ele>259.696869</ele>
        <time>2019-08-17T15:09:25Z</time>
      </trkpt>
      <trkpt lat="44.43241" lon="1.07906">
        <ele>259.78952</ele>
        <time>2019-08-17T15:09:26Z</time>
      </trkpt>
      <trkpt lat="44.43238" lon="1.07901">
        <ele>259.843018</ele>
        <time>2019-08-17T15:09:27Z</time>
      </trkpt>
      <trkpt lat="44.43237" lon="1.07897">
        <ele>259.865509</ele>
        <time>2019-08-17T15:09:28Z</time>
      </trkpt>
      <trkpt lat="44.43234" lon="1.07892">
        <ele>259.890472</ele>
        <time>2019-08-17T15:09:29Z</time>
      </trkpt>
      <trkpt lat="44.43232" lon="1.07887">
        <ele>259.917328</ele>
        <time>2019-08-17T15:09:30Z</time>
      </trkpt>
      <trkpt lat="44.43229" lon="1.07882">
        <ele>259.948334</ele>
        <time>2019-08-17T15:09:31Z</time>
      </trkpt>
      <trkpt lat="44.43227" lon="1.07878">
        <ele>259.983856</ele>
        <time>2019-08-17T15:09:32Z</time>
      </trkpt>
      <trkpt lat="44.43224" lon="1.07874">
        <ele>260.023743</ele>
        <time>2019-08-17T15:09:33Z</time>
      </trkpt>
      <trkpt lat="44.43222" lon="1.0787">
        <ele>260.063202</ele>
        <time>2019-08-17T15:09:34Z</time>
      </trkpt>
      <trkpt lat="44.43219" lon="1.07866">
        <ele>260.101898</ele>
        <time>2019-08-17T15:09:35Z</time>
      </trkpt>
      <trkpt lat="44.43216" lon="1.07862">
        <ele>260.101898</ele>
        <time>2019-08-17T15:09:36Z</time>
      </trkpt>
      <trkpt lat="44.43214" lon="1.07858">
        <ele>260.140839</ele>
        <time>2019-08-17T15:09:37Z</time>
      </trkpt>
      <trkpt lat="44.43211" lon="1.07854">
        <ele>260.178314</ele>
        <time>2019-08-17T15:09:38Z</time>
      </trkpt>
      <trkpt lat="44.43208" lon="1.07849">
        <ele>260.222229</ele>
        <time>2019-08-17T15:09:39Z</time>
      </trkpt>
      <trkpt lat="44.43205" lon="1.07845">
        <ele>260.265045</ele>
        <time>2019-08-17T15:09:40Z</time>
      </trkpt>
      <trkpt lat="44.43203" lon="1.07841">
        <ele>260.303589</ele>
        <time>2019-08-17T15:09:41Z</time>
      </trkpt>
      <trkpt lat="44.432" lon="1.07836">
        <ele>260.341797</ele>
        <time>2019-08-17T15:09:42Z</time>
      </trkpt>
      <trkpt lat="44.43198" lon="1.07832">
        <ele>260.378021</ele>
        <time>2019-08-17T15:09:43Z</time>
      </trkpt>
      <trkpt lat="44.43195" lon="1.07827">
        <ele>260.414612</ele>
        <time>2019-08-17T15:09:44Z</time>
      </trkpt>
      <trkpt lat="44.43192" lon="1.07822">
        <ele>260.444855</ele>
        <time>2019-08-17T15:09:45Z</time>
      </trkpt>
      <trkpt lat="44.4319" lon="1.07817">
        <ele>260.478119</ele>
        <time>2019-08-17T15:09:46Z</time>
      </trkpt>
      <trkpt lat="44.43187" lon="1.07812">
        <ele>260.520691</ele>
        <time>2019-08-17T15:09:47Z</time>
      </trkpt>
      <trkpt lat="44.43185" lon="1.07807">
        <ele>260.570343</ele>
        <time>2019-08-17T15:09:48Z</time>
      </trkpt>
      <trkpt lat="44.43182" lon="1.07801">
        <ele>260.570343</ele>
        <time>2019-08-17T15:09:49Z</time>
      </trkpt>
      <trkpt lat="44.4318" lon="1.07796">
        <ele>260.630493</ele>
        <time>2019-08-17T15:09:50Z</time>
      </trkpt>
      <trkpt lat="44.43177" lon="1.0779">
        <ele>260.700745</ele>
        <time>2019-08-17T15:09:51Z</time>
      </trkpt>
      <trkpt lat="44.43175" lon="1.07784">
        <ele>260.80014</ele>
        <time>2019-08-17T15:09:52Z</time>
      </trkpt>
      <trkpt lat="44.43173" lon="1.07778">
        <ele>260.905304</ele>
        <time>2019-08-17T15:09:53Z</time>
      </trkpt>
      <trkpt lat="44.43171" lon="1.07773">
        <ele>261.01712</ele>
        <time>2019-08-17T15:09:54Z</time>
      </trkpt>
      <trkpt lat="44.43168" lon="1.07767">
        <ele>261.139679</ele>
        <time>2019-08-17T15:09:55Z</time>
      </trkpt>
      <trkpt lat="44.43166" lon="1.07761">
        <ele>261.271332</ele>
        <time>2019-08-17T15:09:56Z</time>
      </trkpt>
      <trkpt lat="44.43164" lon="1.07755">
        <ele>261.411316</ele>
        <time>2019-08-17T15:09:57Z</time>
      </trkpt>
      <trkpt lat="44.43163" lon="1.07749">
        <ele>261.541534</ele>
        <time>2019-08-17T15:09:58Z</time>
      </trkpt>
      <trkpt lat="44.43161" lon="1.07743">
        <ele>261.686096</ele>
        <time>2019-08-17T15:09:59Z</time>
      </trkpt>
      <trkpt lat="44.43159" lon="1.07737">
        <ele>261.844269</ele>
        <time>2019-08-17T15:10:00Z</time>
      </trkpt>
      <trkpt lat="44.43158" lon="1.07731">
        <ele>262.013306</ele>
        <time>2019-08-17T15:10:01Z</time>
      </trkpt>
      <trkpt lat="44.43156" lon="1.07725">
        <ele>262.196014</ele>
        <time>2019-08-17T15:10:02Z</time>
      </trkpt>
      <trkpt lat="44.43155" lon="1.07718">
        <ele>262.392609</ele>
        <time>2019-08-17T15:10:03Z</time>
      </trkpt>
      <trkpt lat="44.43154" lon="1.07712">
        <ele>262.601349</ele>
        <time>2019-08-17T15:10:04Z</time>
      </trkpt>
      <trkpt lat="44.43152" lon="1.07706">
        <ele>262.601349</ele>
        <time>2019-08-17T15:10:05Z</time>
      </trkpt>
      <trkpt lat="44.4315" lon="1.07701">
        <ele>262.820435</ele>
        <time>2019-08-17T15:10:06Z</time>
      </trkpt>
      <trkpt lat="44.43149" lon="1.07695">
        <ele>263.051178</ele>
        <time>2019-08-17T15:10:07Z</time>
      </trkpt>
      <trkpt lat="44.43147" lon="1.07688">
        <ele>263.332916</ele>
        <time>2019-08-17T15:10:08Z</time>
      </trkpt>
      <trkpt lat="44.43146" lon="1.07682">
        <ele>263.62204</ele>
        <time>2019-08-17T15:10:09Z</time>
      </trkpt>
      <trkpt lat="44.43146" lon="1.07677">
        <ele>263.918488</ele>
        <time>2019-08-17T15:10:10Z</time>
      </trkpt>
      <trkpt lat="44.43145" lon="1.07671">
        <ele>264.223389</ele>
        <time>2019-08-17T15:10:11Z</time>
      </trkpt>
      <trkpt lat="44.43144" lon="1.07665">
        <ele>264.535797</ele>
        <time>2019-08-17T15:10:12Z</time>
      </trkpt>
      <trkpt lat="44.43143" lon="1.07659">
        <ele>264.845978</ele>
        <time>2019-08-17T15:10:13Z</time>
      </trkpt>
      <trkpt lat="44.43142" lon="1.07652">
        <ele>264.845978</ele>
        <time>2019-08-17T15:10:14Z</time>
      </trkpt>
      <trkpt lat="44.43142" lon="1.07646">
        <ele>265.097748</ele>
        <time>2019-08-17T15:10:15Z</time>
      </trkpt>
      <trkpt lat="44.43142" lon="1.0764">
        <ele>265.328033</ele>
        <time>2019-08-17T15:10:16Z</time>
      </trkpt>
      <trkpt lat="44.43142" lon="1.07634">
        <ele>265.523102</ele>
        <time>2019-08-17T15:10:17Z</time>
      </trkpt>
      <trkpt lat="44.43142" lon="1.07627">
        <ele>265.68454</ele>
        <time>2019-08-17T15:10:18Z</time>
      </trkpt>
      <trkpt lat="44.43142" lon="1.07621">
        <ele>265.815155</ele>
        <time>2019-08-17T15:10:19Z</time>
      </trkpt>
      <trkpt lat="44.43142" lon="1.07615">
        <ele>265.921967</ele>
        <time>2019-08-17T15:10:20Z</time>
      </trkpt>
      <trkpt lat="44.43142" lon="1.07609">
        <ele>266.017853</ele>
        <time>2019-08-17T15:10:21Z</time>
      </trkpt>
      <trkpt lat="44.43142" lon="1.07602">
        <ele>266.105621</ele>
        <time>2019-08-17T15:10:22Z</time>
      </trkpt>
      <trkpt lat="44.43141" lon="1.07596">
        <ele>266.198853</ele>
        <time>2019-08-17T15:10:23Z</time>
      </trkpt>
      <trkpt lat="44.43141" lon="1.0759">
        <ele>266.292877</ele>
        <time>2019-08-17T15:10:24Z</time>
      </trkpt>
      <trkpt lat="44.43141" lon="1.07584">
        <ele>266.385437</ele>
        <time>2019-08-17T15:10:25Z</time>
      </trkpt>
      <trkpt lat="44.43142" lon="1.07578">
        <ele>266.475372</ele>
        <time>2019-08-17T15:10:26Z</time>
      </trkpt>
      <trkpt lat="44.43142" lon="1.07571">
        <ele>266.475372</ele>
        <time>2019-08-17T15:10:27Z</time>
      </trkpt>
      <trkpt lat="44.43141" lon="1.07564">
        <ele>266.566162</ele>
        <time>2019-08-17T15:10:28Z</time>
      </trkpt>
      <trkpt lat="44.43141" lon="1.07558">
        <ele>266.661469</ele>
        <time>2019-08-17T15:10:29Z</time>
      </trkpt>
      <trkpt lat="44.43141" lon="1.07551">
        <ele>266.661469</ele>
        <time>2019-08-17T15:10:30Z</time>
      </trkpt>
      <trkpt lat="44.43141" lon="1.07545">
        <ele>266.776459</ele>
        <time>2019-08-17T15:10:31Z</time>
      </trkpt>
      <trkpt lat="44.4314" lon="1.07539">
        <ele>266.892975</ele>
        <time>2019-08-17T15:10:32Z</time>
      </trkpt>
      <trkpt lat="44.4314" lon="1.07533">
        <ele>267.027557</ele>
        <time>2019-08-17T15:10:33Z</time>
      </trkpt>
      <trkpt lat="44.4314" lon="1.07526">
        <ele>267.027557</ele>
        <time>2019-08-17T15:10:34Z</time>
      </trkpt>
      <trkpt lat="44.43141" lon="1.0752">
        <ele>267.16571</ele>
        <time>2019-08-17T15:10:35Z</time>
      </trkpt>
      <trkpt lat="44.43141" lon="1.07513">
        <ele>267.302826</ele>
        <time>2019-08-17T15:10:36Z</time>
      </trkpt>
      <trkpt lat="44.43142" lon="1.07507">
        <ele>267.449768</ele>
        <time>2019-08-17T15:10:37Z</time>
      </trkpt>
      <trkpt lat="44.43142" lon="1.075">
        <ele>267.449768</ele>
        <time>2019-08-17T15:10:38Z</time>
      </trkpt>
      <trkpt lat="44.43143" lon="1.07493">
        <ele>267.56485</ele>
        <time>2019-08-17T15:10:39Z</time>
      </trkpt>
      <trkpt lat="44.43144" lon="1.07486">
        <ele>267.66861</ele>
        <time>2019-08-17T15:10:40Z</time>
      </trkpt>
      <trkpt lat="44.43145" lon="1.0748">
        <ele>267.66861</ele>
        <time>2019-08-17T15:10:41Z</time>
      </trkpt>
      <trkpt lat="44.43146" lon="1.07473">
        <ele>267.750092</ele>
        <time>2019-08-17T15:10:42Z</time>
      </trkpt>
      <trkpt lat="44.43146" lon="1.07467">
        <ele>267.818939</ele>
        <time>2019-08-17T15:10:43Z</time>
      </trkpt>
      <trkpt lat="44.43147" lon="1.07461">
        <ele>267.881195</ele>
        <time>2019-08-17T15:10:44Z</time>
      </trkpt>
      <trkpt lat="44.43147" lon="1.07454">
        <ele>267.881195</ele>
        <time>2019-08-17T15:10:45Z</time>
      </trkpt>
      <trkpt lat="44.43146" lon="1.07448">
        <ele>267.902466</ele>
        <time>2019-08-17T15:10:46Z</time>
      </trkpt>
      <trkpt lat="44.43144" lon="1.07442">
        <ele>267.90387</ele>
        <time>2019-08-17T15:10:47Z</time>
      </trkpt>
      <trkpt lat="44.43141" lon="1.07438">
        <ele>267.90387</ele>
        <time>2019-08-17T15:10:48Z</time>
      </trkpt>
      <trkpt lat="44.43137" lon="1.07436">
        <ele>267.90387</ele>
        <time>2019-08-17T15:10:49Z</time>
      </trkpt>
      <trkpt lat="44.43133" lon="1.07434">
        <ele>267.90387</ele>
        <time>2019-08-17T15:10:50Z</time>
      </trkpt>
      <trkpt lat="44.4313" lon="1.07432">
        <ele>267.888428</ele>
        <time>2019-08-17T15:10:51Z</time>
      </trkpt>
      <trkpt lat="44.43126" lon="1.07429">
        <ele>267.866241</ele>
        <time>2019-08-17T15:10:52Z</time>
      </trkpt>
      <trkpt lat="44.43122" lon="1.07426">
        <ele>267.843842</ele>
        <time>2019-08-17T15:10:53Z</time>
      </trkpt>
      <trkpt lat="44.43117" lon="1.07424">
        <ele>267.820648</ele>
        <time>2019-08-17T15:10:54Z</time>
      </trkpt>
      <trkpt lat="44.43112" lon="1.07422">
        <ele>267.819977</ele>
        <time>2019-08-17T15:10:55Z</time>
      </trkpt>
      <trkpt lat="44.43107" lon="1.07419">
        <ele>267.819977</ele>
        <time>2019-08-17T15:10:56Z</time>
      </trkpt>
      <trkpt lat="44.43103" lon="1.07418">
        <ele>267.819977</ele>
        <time>2019-08-17T15:10:57Z</time>
      </trkpt>
      <trkpt lat="44.43098" lon="1.07416">
        <ele>267.847046</ele>
        <time>2019-08-17T15:10:58Z</time>
      </trkpt>
      <trkpt lat="44.43093" lon="1.07415">
        <ele>267.899445</ele>
        <time>2019-08-17T15:10:59Z</time>
      </trkpt>
      <trkpt lat="44.43088" lon="1.07413">
        <ele>267.899445</ele>
        <time>2019-08-17T15:11:00Z</time>
      </trkpt>
      <trkpt lat="44.43084" lon="1.07411">
        <ele>267.962952</ele>
        <time>2019-08-17T15:11:01Z</time>
      </trkpt>
      <trkpt lat="44.43079" lon="1.07409">
        <ele>268.037811</ele>
        <time>2019-08-17T15:11:02Z</time>
      </trkpt>
      <trkpt lat="44.43074" lon="1.07407">
        <ele>268.139862</ele>
        <time>2019-08-17T15:11:03Z</time>
      </trkpt>
      <trkpt lat="44.4307" lon="1.07405">
        <ele>268.25058</ele>
        <time>2019-08-17T15:11:04Z</time>
      </trkpt>
      <trkpt lat="44.43065" lon="1.07404">
        <ele>268.368988</ele>
        <time>2019-08-17T15:11:05Z</time>
      </trkpt>
      <trkpt lat="44.43059" lon="1.07401">
        <ele>268.494354</ele>
        <time>2019-08-17T15:11:06Z</time>
      </trkpt>
      <trkpt lat="44.43053" lon="1.07399">
        <ele>268.625854</ele>
        <time>2019-08-17T15:11:07Z</time>
      </trkpt>
      <trkpt lat="44.43048" lon="1.07398">
        <ele>268.765106</ele>
        <time>2019-08-17T15:11:08Z</time>
      </trkpt>
      <trkpt lat="44.43042" lon="1.07396">
        <ele>268.898621</ele>
        <time>2019-08-17T15:11:09Z</time>
      </trkpt>
      <trkpt lat="44.43036" lon="1.07394">
        <ele>269.044739</ele>
        <time>2019-08-17T15:11:10Z</time>
      </trkpt>
      <trkpt lat="44.4303" lon="1.07393">
        <ele>269.203552</ele>
        <time>2019-08-17T15:11:11Z</time>
      </trkpt>
      <trkpt lat="44.43024" lon="1.07392">
        <ele>269.377563</ele>
        <time>2019-08-17T15:11:12Z</time>
      </trkpt>
      <trkpt lat="44.43019" lon="1.07391">
        <ele>269.566132</ele>
        <time>2019-08-17T15:11:13Z</time>
      </trkpt>
      <trkpt lat="44.43013" lon="1.07391">
        <ele>269.766724</ele>
        <time>2019-08-17T15:11:14Z</time>
      </trkpt>
      <trkpt lat="44.43007" lon="1.0739">
        <ele>269.974335</ele>
        <time>2019-08-17T15:11:15Z</time>
      </trkpt>
      <trkpt lat="44.43001" lon="1.0739">
        <ele>270.182404</ele>
        <time>2019-08-17T15:11:16Z</time>
      </trkpt>
      <trkpt lat="44.42995" lon="1.0739">
        <ele>270.382843</ele>
        <time>2019-08-17T15:11:17Z</time>
      </trkpt>
      <trkpt lat="44.42989" lon="1.07389">
        <ele>270.563202</ele>
        <time>2019-08-17T15:11:18Z</time>
      </trkpt>
      <trkpt lat="44.42983" lon="1.07389">
        <ele>270.705231</ele>
        <time>2019-08-17T15:11:19Z</time>
      </trkpt>
      <trkpt lat="44.42977" lon="1.07388">
        <ele>270.808594</ele>
        <time>2019-08-17T15:11:20Z</time>
      </trkpt>
      <trkpt lat="44.42971" lon="1.07389">
        <ele>270.875641</ele>
        <time>2019-08-17T15:11:21Z</time>
      </trkpt>
      <trkpt lat="44.42966" lon="1.07389">
        <ele>270.912445</ele>
        <time>2019-08-17T15:11:22Z</time>
      </trkpt>
      <trkpt lat="44.4296" lon="1.0739">
        <ele>270.926605</ele>
        <time>2019-08-17T15:11:23Z</time>
      </trkpt>
      <trkpt lat="44.42954" lon="1.07391">
        <ele>270.933105</ele>
        <time>2019-08-17T15:11:24Z</time>
      </trkpt>
      <trkpt lat="44.42949" lon="1.07391">
        <ele>270.94043</ele>
        <time>2019-08-17T15:11:25Z</time>
      </trkpt>
      <trkpt lat="44.42944" lon="1.0739">
        <ele>270.94043</ele>
        <time>2019-08-17T15:11:26Z</time>
      </trkpt>
      <trkpt lat="44.42938" lon="1.0739">
        <ele>270.942047</ele>
        <time>2019-08-17T15:11:27Z</time>
      </trkpt>
      <trkpt lat="44.42933" lon="1.0739">
        <ele>270.937164</ele>
        <time>2019-08-17T15:11:28Z</time>
      </trkpt>
      <trkpt lat="44.42928" lon="1.07389">
        <ele>270.934479</ele>
        <time>2019-08-17T15:11:29Z</time>
      </trkpt>
      <trkpt lat="44.42923" lon="1.07389">
        <ele>270.933685</ele>
        <time>2019-08-17T15:11:30Z</time>
      </trkpt>
      <trkpt lat="44.42919" lon="1.07389">
        <ele>270.905487</ele>
        <time>2019-08-17T15:11:31Z</time>
      </trkpt>
      <trkpt lat="44.42916" lon="1.07389">
        <ele>270.849548</ele>
        <time>2019-08-17T15:11:32Z</time>
      </trkpt>
      <trkpt lat="44.42913" lon="1.0739">
        <ele>270.769073</ele>
        <time>2019-08-17T15:11:33Z</time>
      </trkpt>
      <trkpt lat="44.42912" lon="1.0739">
        <ele>270.667023</ele>
        <time>2019-08-17T15:11:34Z</time>
      </trkpt>
      <trkpt lat="44.4291" lon="1.0739">
        <ele>270.547852</ele>
        <time>2019-08-17T15:11:35Z</time>
      </trkpt>
      <trkpt lat="44.42908" lon="1.0739">
        <ele>270.428314</ele>
        <time>2019-08-17T15:11:36Z</time>
      </trkpt>
      <trkpt lat="44.42907" lon="1.0739">
        <ele>270.329437</ele>
        <time>2019-08-17T15:11:37Z</time>
      </trkpt>
      <trkpt lat="44.42906" lon="1.07391">
        <ele>270.247345</ele>
        <time>2019-08-17T15:11:38Z</time>
      </trkpt>
      <trkpt lat="44.42906" lon="1.07393">
        <ele>270.178223</ele>
        <time>2019-08-17T15:11:39Z</time>
      </trkpt>
      <trkpt lat="44.42908" lon="1.07394">
        <ele>270.12265</ele>
        <time>2019-08-17T15:11:40Z</time>
      </trkpt>
      <trkpt lat="44.42911" lon="1.07393">
        <ele>270.081329</ele>
        <time>2019-08-17T15:11:41Z</time>
      </trkpt>
      <trkpt lat="44.42914" lon="1.07393">
        <ele>270.064728</ele>
        <time>2019-08-17T15:11:42Z</time>
      </trkpt>
      <trkpt lat="44.42918" lon="1.07392">
        <ele>270.064728</ele>
        <time>2019-08-17T15:11:43Z</time>
      </trkpt>
      <trkpt lat="44.42921" lon="1.07391">
        <ele>270.064728</ele>
        <time>2019-08-17T15:11:44Z</time>
      </trkpt>
      <trkpt lat="44.42926" lon="1.07391">
        <ele>270.064728</ele>
        <time>2019-08-17T15:11:45Z</time>
      </trkpt>
      <trkpt lat="44.42931" lon="1.07392">
        <ele>270.074463</ele>
        <time>2019-08-17T15:11:46Z</time>
      </trkpt>
      <trkpt lat="44.42936" lon="1.07392">
        <ele>270.136139</ele>
        <time>2019-08-17T15:11:47Z</time>
      </trkpt>
      <trkpt lat="44.42941" lon="1.07393">
        <ele>270.228058</ele>
        <time>2019-08-17T15:11:48Z</time>
      </trkpt>
      <trkpt lat="44.42946" lon="1.07393">
        <ele>270.347046</ele>
        <time>2019-08-17T15:11:49Z</time>
      </trkpt>
      <trkpt lat="44.42951" lon="1.07393">
        <ele>270.485199</ele>
        <time>2019-08-17T15:11:50Z</time>
      </trkpt>
      <trkpt lat="44.42956" lon="1.07393">
        <ele>270.624268</ele>
        <time>2019-08-17T15:11:51Z</time>
      </trkpt>
      <trkpt lat="44.4296" lon="1.07392">
        <ele>270.825287</ele>
        <time>2019-08-17T15:11:52Z</time>
      </trkpt>
      <trkpt lat="44.42965" lon="1.07392">
        <ele>270.825287</ele>
        <time>2019-08-17T15:11:53Z</time>
      </trkpt>
      <trkpt lat="44.42969" lon="1.07392">
        <ele>270.884735</ele>
        <time>2019-08-17T15:11:54Z</time>
      </trkpt>
      <trkpt lat="44.42973" lon="1.07393">
        <ele>270.922699</ele>
        <time>2019-08-17T15:11:55Z</time>
      </trkpt>
      <trkpt lat="44.42977" lon="1.07393">
        <ele>270.937653</ele>
        <time>2019-08-17T15:11:56Z</time>
      </trkpt>
      <trkpt lat="44.42981" lon="1.07394">
        <ele>270.937653</ele>
        <time>2019-08-17T15:11:57Z</time>
      </trkpt>
      <trkpt lat="44.42986" lon="1.07394">
        <ele>270.937653</ele>
        <time>2019-08-17T15:11:58Z</time>
      </trkpt>
      <trkpt lat="44.4299" lon="1.07394">
        <ele>270.930511</ele>
        <time>2019-08-17T15:11:59Z</time>
      </trkpt>
      <trkpt lat="44.42994" lon="1.07394">
        <ele>270.930511</ele>
        <time>2019-08-17T15:12:00Z</time>
      </trkpt>
      <trkpt lat="44.42999" lon="1.07394">
        <ele>270.919037</ele>
        <time>2019-08-17T15:12:01Z</time>
      </trkpt>
      <trkpt lat="44.43003" lon="1.07393">
        <ele>270.907471</ele>
        <time>2019-08-17T15:12:02Z</time>
      </trkpt>
      <trkpt lat="44.43007" lon="1.07391">
        <ele>270.899445</ele>
        <time>2019-08-17T15:12:03Z</time>
      </trkpt>
      <trkpt lat="44.43009" lon="1.07386">
        <ele>270.901733</ele>
        <time>2019-08-17T15:12:04Z</time>
      </trkpt>
      <trkpt lat="44.43011" lon="1.07381">
        <ele>270.883911</ele>
        <time>2019-08-17T15:12:05Z</time>
      </trkpt>
      <trkpt lat="44.43012" lon="1.07376">
        <ele>270.871613</ele>
        <time>2019-08-17T15:12:06Z</time>
      </trkpt>
      <trkpt lat="44.43013" lon="1.0737">
        <ele>270.860199</ele>
        <time>2019-08-17T15:12:07Z</time>
      </trkpt>
      <trkpt lat="44.43014" lon="1.07365">
        <ele>270.815948</ele>
        <time>2019-08-17T15:12:08Z</time>
      </trkpt>
      <trkpt lat="44.43015" lon="1.07359">
        <ele>270.744415</ele>
        <time>2019-08-17T15:12:09Z</time>
      </trkpt>
      <trkpt lat="44.43016" lon="1.07353">
        <ele>270.64386</ele>
        <time>2019-08-17T15:12:10Z</time>
      </trkpt>
      <trkpt lat="44.43018" lon="1.07347">
        <ele>270.511139</ele>
        <time>2019-08-17T15:12:11Z</time>
      </trkpt>
      <trkpt lat="44.43018" lon="1.0734">
        <ele>270.347992</ele>
        <time>2019-08-17T15:12:12Z</time>
      </trkpt>
      <trkpt lat="44.43018" lon="1.07334">
        <ele>270.151367</ele>
        <time>2019-08-17T15:12:13Z</time>
      </trkpt>
      <trkpt lat="44.43016" lon="1.07328">
        <ele>269.950684</ele>
        <time>2019-08-17T15:12:14Z</time>
      </trkpt>
      <trkpt lat="44.43013" lon="1.07323">
        <ele>269.748383</ele>
        <time>2019-08-17T15:12:15Z</time>
      </trkpt>
      <trkpt lat="44.43008" lon="1.07318">
        <ele>269.549469</ele>
        <time>2019-08-17T15:12:16Z</time>
      </trkpt>
      <trkpt lat="44.43004" lon="1.07313">
        <ele>269.358734</ele>
        <time>2019-08-17T15:12:17Z</time>
      </trkpt>
      <trkpt lat="44.43" lon="1.07309">
        <ele>269.191254</ele>
        <time>2019-08-17T15:12:18Z</time>
      </trkpt>
      <trkpt lat="44.42996" lon="1.07305">
        <ele>269.035492</ele>
        <time>2019-08-17T15:12:19Z</time>
      </trkpt>
      <trkpt lat="44.42992" lon="1.07301">
        <ele>268.874237</ele>
        <time>2019-08-17T15:12:20Z</time>
      </trkpt>
      <trkpt lat="44.42988" lon="1.07296">
        <ele>268.709991</ele>
        <time>2019-08-17T15:12:21Z</time>
      </trkpt>
      <trkpt lat="44.42984" lon="1.07291">
        <ele>268.709991</ele>
        <time>2019-08-17T15:12:22Z</time>
      </trkpt>
      <trkpt lat="44.42981" lon="1.07286">
        <ele>268.536652</ele>
        <time>2019-08-17T15:12:23Z</time>
      </trkpt>
      <trkpt lat="44.42977" lon="1.0728">
        <ele>268.348267</ele>
        <time>2019-08-17T15:12:24Z</time>
      </trkpt>
      <trkpt lat="44.42973" lon="1.07275">
        <ele>268.09079</ele>
        <time>2019-08-17T15:12:25Z</time>
      </trkpt>
      <trkpt lat="44.4297" lon="1.07269">
        <ele>267.814575</ele>
        <time>2019-08-17T15:12:26Z</time>
      </trkpt>
      <trkpt lat="44.42966" lon="1.07263">
        <ele>267.538544</ele>
        <time>2019-08-17T15:12:27Z</time>
      </trkpt>
      <trkpt lat="44.42963" lon="1.07258">
        <ele>267.257843</ele>
        <time>2019-08-17T15:12:28Z</time>
      </trkpt>
      <trkpt lat="44.42959" lon="1.07251">
        <ele>266.972687</ele>
        <time>2019-08-17T15:12:29Z</time>
      </trkpt>
      <trkpt lat="44.42955" lon="1.07245">
        <ele>266.684601</ele>
        <time>2019-08-17T15:12:30Z</time>
      </trkpt>
      <trkpt lat="44.42952" lon="1.07238">
        <ele>266.436554</ele>
        <time>2019-08-17T15:12:31Z</time>
      </trkpt>
      <trkpt lat="44.42948" lon="1.07232">
        <ele>266.192017</ele>
        <time>2019-08-17T15:12:32Z</time>
      </trkpt>
      <trkpt lat="44.42944" lon="1.07225">
        <ele>265.948273</ele>
        <time>2019-08-17T15:12:33Z</time>
      </trkpt>
      <trkpt lat="44.4294" lon="1.07219">
        <ele>265.706482</ele>
        <time>2019-08-17T15:12:34Z</time>
      </trkpt>
      <trkpt lat="44.42935" lon="1.07213">
        <ele>265.465179</ele>
        <time>2019-08-17T15:12:35Z</time>
      </trkpt>
      <trkpt lat="44.42931" lon="1.07208">
        <ele>265.465179</ele>
        <time>2019-08-17T15:12:36Z</time>
      </trkpt>
      <trkpt lat="44.42926" lon="1.07202">
        <ele>265.22702</ele>
        <time>2019-08-17T15:12:37Z</time>
      </trkpt>
      <trkpt lat="44.42921" lon="1.07196">
        <ele>264.995209</ele>
        <time>2019-08-17T15:12:38Z</time>
      </trkpt>
      <trkpt lat="44.42917" lon="1.0719">
        <ele>264.724243</ele>
        <time>2019-08-17T15:12:39Z</time>
      </trkpt>
      <trkpt lat="44.42913" lon="1.07183">
        <ele>264.724243</ele>
        <time>2019-08-17T15:12:40Z</time>
      </trkpt>
      <trkpt lat="44.42909" lon="1.07176">
        <ele>264.454926</ele>
        <time>2019-08-17T15:12:41Z</time>
      </trkpt>
      <trkpt lat="44.42905" lon="1.07169">
        <ele>264.183655</ele>
        <time>2019-08-17T15:12:42Z</time>
      </trkpt>
      <trkpt lat="44.42902" lon="1.07161">
        <ele>264.183655</ele>
        <time>2019-08-17T15:12:43Z</time>
      </trkpt>
      <trkpt lat="44.42899" lon="1.07154">
        <ele>263.860321</ele>
        <time>2019-08-17T15:12:44Z</time>
      </trkpt>
      <trkpt lat="44.42895" lon="1.07147">
        <ele>263.529541</ele>
        <time>2019-08-17T15:12:45Z</time>
      </trkpt>
      <trkpt lat="44.42892" lon="1.07139">
        <ele>263.529541</ele>
        <time>2019-08-17T15:12:46Z</time>
      </trkpt>
      <trkpt lat="44.42888" lon="1.07132">
        <ele>263.145874</ele>
        <time>2019-08-17T15:12:47Z</time>
      </trkpt>
      <trkpt lat="44.42883" lon="1.07124">
        <ele>262.799622</ele>
        <time>2019-08-17T15:12:48Z</time>
      </trkpt>
      <trkpt lat="44.42879" lon="1.07118">
        <ele>262.419037</ele>
        <time>2019-08-17T15:12:49Z</time>
      </trkpt>
      <trkpt lat="44.42874" lon="1.07111">
        <ele>262.048157</ele>
        <time>2019-08-17T15:12:50Z</time>
      </trkpt>
      <trkpt lat="44.42869" lon="1.07104">
        <ele>262.048157</ele>
        <time>2019-08-17T15:12:51Z</time>
      </trkpt>
      <trkpt lat="44.42865" lon="1.07096">
        <ele>261.764587</ele>
        <time>2019-08-17T15:12:52Z</time>
      </trkpt>
      <trkpt lat="44.42863" lon="1.07087">
        <ele>261.55014</ele>
        <time>2019-08-17T15:12:53Z</time>
      </trkpt>
      <trkpt lat="44.42862" lon="1.07078">
        <ele>261.443573</ele>
        <time>2019-08-17T15:12:54Z</time>
      </trkpt>
      <trkpt lat="44.42862" lon="1.07069">
        <ele>261.398773</ele>
        <time>2019-08-17T15:12:55Z</time>
      </trkpt>
      <trkpt lat="44.42862" lon="1.07061">
        <ele>261.398773</ele>
        <time>2019-08-17T15:12:56Z</time>
      </trkpt>
      <trkpt lat="44.42861" lon="1.07052">
        <ele>261.398773</ele>
        <time>2019-08-17T15:12:57Z</time>
      </trkpt>
      <trkpt lat="44.42861" lon="1.07043">
        <ele>261.398773</ele>
        <time>2019-08-17T15:12:58Z</time>
      </trkpt>
      <trkpt lat="44.4286" lon="1.07034">
        <ele>261.465729</ele>
        <time>2019-08-17T15:12:59Z</time>
      </trkpt>
      <trkpt lat="44.42859" lon="1.07025">
        <ele>261.465729</ele>
        <time>2019-08-17T15:13:00Z</time>
      </trkpt>
      <trkpt lat="44.42859" lon="1.07016">
        <ele>261.584137</ele>
        <time>2019-08-17T15:13:01Z</time>
      </trkpt>
      <trkpt lat="44.42859" lon="1.07008">
        <ele>261.740082</ele>
        <time>2019-08-17T15:13:02Z</time>
      </trkpt>
      <trkpt lat="44.42858" lon="1.06999">
        <ele>261.948517</ele>
        <time>2019-08-17T15:13:03Z</time>
      </trkpt>
      <trkpt lat="44.42857" lon="1.0699">
        <ele>262.171661</ele>
        <time>2019-08-17T15:13:04Z</time>
      </trkpt>
      <trkpt lat="44.42856" lon="1.06981">
        <ele>262.413666</ele>
        <time>2019-08-17T15:13:05Z</time>
      </trkpt>
      <trkpt lat="44.42855" lon="1.06972">
        <ele>262.656189</ele>
        <time>2019-08-17T15:13:06Z</time>
      </trkpt>
      <trkpt lat="44.42854" lon="1.06963">
        <ele>262.916565</ele>
        <time>2019-08-17T15:13:07Z</time>
      </trkpt>
      <trkpt lat="44.42853" lon="1.06954">
        <ele>263.181366</ele>
        <time>2019-08-17T15:13:08Z</time>
      </trkpt>
      <trkpt lat="44.42852" lon="1.06946">
        <ele>263.391022</ele>
        <time>2019-08-17T15:13:09Z</time>
      </trkpt>
      <trkpt lat="44.42851" lon="1.06937">
        <ele>263.581451</ele>
        <time>2019-08-17T15:13:10Z</time>
      </trkpt>
      <trkpt lat="44.4285" lon="1.06929">
        <ele>263.752563</ele>
        <time>2019-08-17T15:13:11Z</time>
      </trkpt>
      <trkpt lat="44.42849" lon="1.06921">
        <ele>263.903595</ele>
        <time>2019-08-17T15:13:12Z</time>
      </trkpt>
      <trkpt lat="44.42848" lon="1.06912">
        <ele>264.036652</ele>
        <time>2019-08-17T15:13:13Z</time>
      </trkpt>
      <trkpt lat="44.42847" lon="1.06904">
        <ele>264.036652</ele>
        <time>2019-08-17T15:13:14Z</time>
      </trkpt>
      <trkpt lat="44.42846" lon="1.06895">
        <ele>264.151276</ele>
        <time>2019-08-17T15:13:15Z</time>
      </trkpt>
      <trkpt lat="44.42846" lon="1.06887">
        <ele>264.26181</ele>
        <time>2019-08-17T15:13:16Z</time>
      </trkpt>
      <trkpt lat="44.42844" lon="1.06879">
        <ele>264.26181</ele>
        <time>2019-08-17T15:13:17Z</time>
      </trkpt>
      <trkpt lat="44.42843" lon="1.06871">
        <ele>264.383148</ele>
        <time>2019-08-17T15:13:18Z</time>
      </trkpt>
      <trkpt lat="44.42842" lon="1.06863">
        <ele>264.496613</ele>
        <time>2019-08-17T15:13:19Z</time>
      </trkpt>
      <trkpt lat="44.42841" lon="1.06855">
        <ele>264.610382</ele>
        <time>2019-08-17T15:13:20Z</time>
      </trkpt>
      <trkpt lat="44.4284" lon="1.06847">
        <ele>264.713287</ele>
        <time>2019-08-17T15:13:21Z</time>
      </trkpt>
      <trkpt lat="44.4284" lon="1.0684">
        <ele>264.805298</ele>
        <time>2019-08-17T15:13:22Z</time>
      </trkpt>
      <trkpt lat="44.42839" lon="1.06831">
        <ele>264.883575</ele>
        <time>2019-08-17T15:13:23Z</time>
      </trkpt>
      <trkpt lat="44.42838" lon="1.06823">
        <ele>264.889374</ele>
        <time>2019-08-17T15:13:24Z</time>
      </trkpt>
      <trkpt lat="44.42836" lon="1.06816">
        <ele>264.889374</ele>
        <time>2019-08-17T15:13:25Z</time>
      </trkpt>
      <trkpt lat="44.42835" lon="1.06808">
        <ele>264.889374</ele>
        <time>2019-08-17T15:13:26Z</time>
      </trkpt>
      <trkpt lat="44.42832" lon="1.06802">
        <ele>264.889374</ele>
        <time>2019-08-17T15:13:27Z</time>
      </trkpt>
      <trkpt lat="44.42828" lon="1.06796">
        <ele>264.841248</ele>
        <time>2019-08-17T15:13:28Z</time>
      </trkpt>
      <trkpt lat="44.42825" lon="1.06791">
        <ele>264.73056</ele>
        <time>2019-08-17T15:13:29Z</time>
      </trkpt>
      <trkpt lat="44.4282" lon="1.06785">
        <ele>264.73056</ele>
        <time>2019-08-17T15:13:30Z</time>
      </trkpt>
      <trkpt lat="44.42817" lon="1.0678">
        <ele>264.523163</ele>
        <time>2019-08-17T15:13:31Z</time>
      </trkpt>
      <trkpt lat="44.42814" lon="1.06774">
        <ele>264.262207</ele>
        <time>2019-08-17T15:13:32Z</time>
      </trkpt>
      <trkpt lat="44.42811" lon="1.06768">
        <ele>264.262207</ele>
        <time>2019-08-17T15:13:33Z</time>
      </trkpt>
      <trkpt lat="44.42808" lon="1.06762">
        <ele>263.906891</ele>
        <time>2019-08-17T15:13:34Z</time>
      </trkpt>
      <trkpt lat="44.42806" lon="1.06755">
        <ele>263.551758</ele>
        <time>2019-08-17T15:13:35Z</time>
      </trkpt>
      <trkpt lat="44.42802" lon="1.0675">
        <ele>263.551758</ele>
        <time>2019-08-17T15:13:36Z</time>
      </trkpt>
      <trkpt lat="44.42798" lon="1.06745">
        <ele>263.138092</ele>
        <time>2019-08-17T15:13:37Z</time>
      </trkpt>
      <trkpt lat="44.42794" lon="1.06741">
        <ele>262.709869</ele>
        <time>2019-08-17T15:13:38Z</time>
      </trkpt>
      <trkpt lat="44.42791" lon="1.06736">
        <ele>262.257141</ele>
        <time>2019-08-17T15:13:39Z</time>
      </trkpt>
      <trkpt lat="44.42787" lon="1.06731">
        <ele>262.257141</ele>
        <time>2019-08-17T15:13:40Z</time>
      </trkpt>
      <trkpt lat="44.42784" lon="1.06725">
        <ele>261.780426</ele>
        <time>2019-08-17T15:13:41Z</time>
      </trkpt>
      <trkpt lat="44.42783" lon="1.06719">
        <ele>261.326202</ele>
        <time>2019-08-17T15:13:42Z</time>
      </trkpt>
      <trkpt lat="44.42783" lon="1.06712">
        <ele>260.784454</ele>
        <time>2019-08-17T15:13:43Z</time>
      </trkpt>
      <trkpt lat="44.42785" lon="1.06706">
        <ele>260.284302</ele>
        <time>2019-08-17T15:13:44Z</time>
      </trkpt>
      <trkpt lat="44.42788" lon="1.067">
        <ele>260.284302</ele>
        <time>2019-08-17T15:13:45Z</time>
      </trkpt>
      <trkpt lat="44.42792" lon="1.06694">
        <ele>259.791992</ele>
        <time>2019-08-17T15:13:46Z</time>
      </trkpt>
      <trkpt lat="44.42795" lon="1.06687">
        <ele>259.374359</ele>
        <time>2019-08-17T15:13:47Z</time>
      </trkpt>
      <trkpt lat="44.42799" lon="1.06681">
        <ele>258.982269</ele>
        <time>2019-08-17T15:13:48Z</time>
      </trkpt>
      <trkpt lat="44.42803" lon="1.06674">
        <ele>258.633087</ele>
        <time>2019-08-17T15:13:49Z</time>
      </trkpt>
      <trkpt lat="44.42806" lon="1.06667">
        <ele>258.393707</ele>
        <time>2019-08-17T15:13:50Z</time>
      </trkpt>
      <trkpt lat="44.4281" lon="1.0666">
        <ele>258.195831</ele>
        <time>2019-08-17T15:13:51Z</time>
      </trkpt>
      <trkpt lat="44.42814" lon="1.06652">
        <ele>258.026276</ele>
        <time>2019-08-17T15:13:52Z</time>
      </trkpt>
      <trkpt lat="44.42818" lon="1.06645">
        <ele>257.861725</ele>
        <time>2019-08-17T15:13:53Z</time>
      </trkpt>
      <trkpt lat="44.42822" lon="1.06637">
        <ele>257.706146</ele>
        <time>2019-08-17T15:13:54Z</time>
      </trkpt>
      <trkpt lat="44.42827" lon="1.06629">
        <ele>257.538574</ele>
        <time>2019-08-17T15:13:55Z</time>
      </trkpt>
      <trkpt lat="44.42831" lon="1.06622">
        <ele>257.356445</ele>
        <time>2019-08-17T15:13:56Z</time>
      </trkpt>
      <trkpt lat="44.42835" lon="1.06613">
        <ele>257.15567</ele>
        <time>2019-08-17T15:13:57Z</time>
      </trkpt>
      <trkpt lat="44.42839" lon="1.06605">
        <ele>257.15567</ele>
        <time>2019-08-17T15:13:58Z</time>
      </trkpt>
      <trkpt lat="44.42843" lon="1.06597">
        <ele>256.959137</ele>
        <time>2019-08-17T15:13:59Z</time>
      </trkpt>
      <trkpt lat="44.42847" lon="1.06589">
        <ele>256.7789</ele>
        <time>2019-08-17T15:14:00Z</time>
      </trkpt>
      <trkpt lat="44.4285" lon="1.0658">
        <ele>256.5961</ele>
        <time>2019-08-17T15:14:01Z</time>
      </trkpt>
      <trkpt lat="44.42853" lon="1.06572">
        <ele>256.431305</ele>
        <time>2019-08-17T15:14:02Z</time>
      </trkpt>
      <trkpt lat="44.42856" lon="1.06564">
        <ele>256.279633</ele>
        <time>2019-08-17T15:14:03Z</time>
      </trkpt>
      <trkpt lat="44.42859" lon="1.06555">
        <ele>256.138184</ele>
        <time>2019-08-17T15:14:04Z</time>
      </trkpt>
      <trkpt lat="44.42862" lon="1.06548">
        <ele>255.990234</ele>
        <time>2019-08-17T15:14:05Z</time>
      </trkpt>
      <trkpt lat="44.42864" lon="1.0654">
        <ele>255.835983</ele>
        <time>2019-08-17T15:14:06Z</time>
      </trkpt>
      <trkpt lat="44.42867" lon="1.06533">
        <ele>255.697861</ele>
        <time>2019-08-17T15:14:07Z</time>
      </trkpt>
      <trkpt lat="44.4287" lon="1.06525">
        <ele>255.553528</ele>
        <time>2019-08-17T15:14:08Z</time>
      </trkpt>
      <trkpt lat="44.42873" lon="1.06518">
        <ele>255.406418</ele>
        <time>2019-08-17T15:14:09Z</time>
      </trkpt>
      <trkpt lat="44.42876" lon="1.0651">
        <ele>255.26091</ele>
        <time>2019-08-17T15:14:10Z</time>
      </trkpt>
      <trkpt lat="44.42879" lon="1.06502">
        <ele>255.115463</ele>
        <time>2019-08-17T15:14:11Z</time>
      </trkpt>
      <trkpt lat="44.42882" lon="1.06495">
        <ele>255.115463</ele>
        <time>2019-08-17T15:14:12Z</time>
      </trkpt>
      <trkpt lat="44.42886" lon="1.06487">
        <ele>254.951218</ele>
        <time>2019-08-17T15:14:13Z</time>
      </trkpt>
      <trkpt lat="44.42889" lon="1.06479">
        <ele>254.75647</ele>
        <time>2019-08-17T15:14:14Z</time>
      </trkpt>
      <trkpt lat="44.42892" lon="1.06472">
        <ele>254.494308</ele>
        <time>2019-08-17T15:14:15Z</time>
      </trkpt>
      <trkpt lat="44.42896" lon="1.06465">
        <ele>254.226563</ele>
        <time>2019-08-17T15:14:16Z</time>
      </trkpt>
      <trkpt lat="44.42899" lon="1.06458">
        <ele>253.955276</ele>
        <time>2019-08-17T15:14:17Z</time>
      </trkpt>
      <trkpt lat="44.42904" lon="1.06451">
        <ele>253.682938</ele>
        <time>2019-08-17T15:14:18Z</time>
      </trkpt>
      <trkpt lat="44.42908" lon="1.06444">
        <ele>253.429153</ele>
        <time>2019-08-17T15:14:19Z</time>
      </trkpt>
      <trkpt lat="44.42912" lon="1.06437">
        <ele>253.203918</ele>
        <time>2019-08-17T15:14:20Z</time>
      </trkpt>
      <trkpt lat="44.42916" lon="1.0643">
        <ele>253.203918</ele>
        <time>2019-08-17T15:14:21Z</time>
      </trkpt>
      <trkpt lat="44.42921" lon="1.06424">
        <ele>253.048172</ele>
        <time>2019-08-17T15:14:22Z</time>
      </trkpt>
      <trkpt lat="44.42925" lon="1.06417">
        <ele>252.902222</ele>
        <time>2019-08-17T15:14:23Z</time>
      </trkpt>
      <trkpt lat="44.4293" lon="1.06411">
        <ele>252.74852</ele>
        <time>2019-08-17T15:14:24Z</time>
      </trkpt>
      <trkpt lat="44.42934" lon="1.06404">
        <ele>252.605667</ele>
        <time>2019-08-17T15:14:25Z</time>
      </trkpt>
      <trkpt lat="44.42939" lon="1.06397">
        <ele>252.473709</ele>
        <time>2019-08-17T15:14:26Z</time>
      </trkpt>
      <trkpt lat="44.42944" lon="1.06391">
        <ele>252.354263</ele>
        <time>2019-08-17T15:14:27Z</time>
      </trkpt>
      <trkpt lat="44.42949" lon="1.06384">
        <ele>252.248047</ele>
        <time>2019-08-17T15:14:28Z</time>
      </trkpt>
      <trkpt lat="44.42953" lon="1.06378">
        <ele>252.155167</ele>
        <time>2019-08-17T15:14:29Z</time>
      </trkpt>
      <trkpt lat="44.42958" lon="1.06371">
        <ele>252.084152</ele>
        <time>2019-08-17T15:14:30Z</time>
      </trkpt>
      <trkpt lat="44.42962" lon="1.06365">
        <ele>252.013672</ele>
        <time>2019-08-17T15:14:31Z</time>
      </trkpt>
      <trkpt lat="44.42967" lon="1.06358">
        <ele>252.013672</ele>
        <time>2019-08-17T15:14:32Z</time>
      </trkpt>
      <trkpt lat="44.42971" lon="1.06352">
        <ele>251.944443</ele>
        <time>2019-08-17T15:14:33Z</time>
      </trkpt>
      <trkpt lat="44.42976" lon="1.06345">
        <ele>251.877274</ele>
        <time>2019-08-17T15:14:34Z</time>
      </trkpt>
      <trkpt lat="44.42981" lon="1.06339">
        <ele>251.807053</ele>
        <time>2019-08-17T15:14:35Z</time>
      </trkpt>
      <trkpt lat="44.42986" lon="1.06333">
        <ele>251.740311</ele>
        <time>2019-08-17T15:14:36Z</time>
      </trkpt>
      <trkpt lat="44.42991" lon="1.06328">
        <ele>251.740311</ele>
        <time>2019-08-17T15:14:37Z</time>
      </trkpt>
      <trkpt lat="44.42996" lon="1.06323">
        <ele>251.690475</ele>
        <time>2019-08-17T15:14:38Z</time>
      </trkpt>
      <trkpt lat="44.43001" lon="1.06317">
        <ele>251.65918</ele>
        <time>2019-08-17T15:14:39Z</time>
      </trkpt>
      <trkpt lat="44.43006" lon="1.06312">
        <ele>251.646072</ele>
        <time>2019-08-17T15:14:40Z</time>
      </trkpt>
      <trkpt lat="44.43011" lon="1.06307">
        <ele>251.646072</ele>
        <time>2019-08-17T15:14:41Z</time>
      </trkpt>
      <trkpt lat="44.43016" lon="1.06303">
        <ele>251.646072</ele>
        <time>2019-08-17T15:14:42Z</time>
      </trkpt>
      <trkpt lat="44.43021" lon="1.06298">
        <ele>251.649948</ele>
        <time>2019-08-17T15:14:43Z</time>
      </trkpt>
      <trkpt lat="44.43027" lon="1.06294">
        <ele>251.675293</ele>
        <time>2019-08-17T15:14:44Z</time>
      </trkpt>
      <trkpt lat="44.43032" lon="1.0629">
        <ele>251.71434</ele>
        <time>2019-08-17T15:14:45Z</time>
      </trkpt>
      <trkpt lat="44.43037" lon="1.06286">
        <ele>251.762085</ele>
        <time>2019-08-17T15:14:46Z</time>
      </trkpt>
      <trkpt lat="44.43043" lon="1.06282">
        <ele>251.811935</ele>
        <time>2019-08-17T15:14:47Z</time>
      </trkpt>
      <trkpt lat="44.43049" lon="1.06278">
        <ele>251.85231</ele>
        <time>2019-08-17T15:14:48Z</time>
      </trkpt>
      <trkpt lat="44.43053" lon="1.06274">
        <ele>251.883102</ele>
        <time>2019-08-17T15:14:49Z</time>
      </trkpt>
      <trkpt lat="44.43058" lon="1.0627">
        <ele>251.904236</ele>
        <time>2019-08-17T15:14:50Z</time>
      </trkpt>
      <trkpt lat="44.43064" lon="1.06266">
        <ele>251.916306</ele>
        <time>2019-08-17T15:14:51Z</time>
      </trkpt>
      <trkpt lat="44.43068" lon="1.06262">
        <ele>251.919357</ele>
        <time>2019-08-17T15:14:52Z</time>
      </trkpt>
      <trkpt lat="44.43074" lon="1.06259">
        <ele>251.925674</ele>
        <time>2019-08-17T15:14:53Z</time>
      </trkpt>
      <trkpt lat="44.43078" lon="1.06255">
        <ele>251.936386</ele>
        <time>2019-08-17T15:14:54Z</time>
      </trkpt>
      <trkpt lat="44.43083" lon="1.06251">
        <ele>251.936386</ele>
        <time>2019-08-17T15:14:55Z</time>
      </trkpt>
      <trkpt lat="44.43087" lon="1.06248">
        <ele>251.935196</ele>
        <time>2019-08-17T15:14:56Z</time>
      </trkpt>
      <trkpt lat="44.43091" lon="1.06244">
        <ele>251.93663</ele>
        <time>2019-08-17T15:14:57Z</time>
      </trkpt>
      <trkpt lat="44.43095" lon="1.06241">
        <ele>251.939697</ele>
        <time>2019-08-17T15:14:58Z</time>
      </trkpt>
      <trkpt lat="44.43099" lon="1.06238">
        <ele>251.943558</ele>
        <time>2019-08-17T15:14:59Z</time>
      </trkpt>
      <trkpt lat="44.43103" lon="1.06235">
        <ele>251.945206</ele>
        <time>2019-08-17T15:15:00Z</time>
      </trkpt>
      <trkpt lat="44.43107" lon="1.06232">
        <ele>251.945923</ele>
        <time>2019-08-17T15:15:01Z</time>
      </trkpt>
      <trkpt lat="44.43109" lon="1.06228">
        <ele>251.945923</ele>
        <time>2019-08-17T15:15:02Z</time>
      </trkpt>
      <trkpt lat="44.4311" lon="1.06223">
        <ele>251.952286</ele>
        <time>2019-08-17T15:15:03Z</time>
      </trkpt>
      <trkpt lat="44.43111" lon="1.06218">
        <ele>251.957443</ele>
        <time>2019-08-17T15:15:04Z</time>
      </trkpt>
      <trkpt lat="44.4311" lon="1.06214">
        <ele>251.96019</ele>
        <time>2019-08-17T15:15:05Z</time>
      </trkpt>
      <trkpt lat="44.43108" lon="1.06209">
        <ele>251.961563</ele>
        <time>2019-08-17T15:15:06Z</time>
      </trkpt>
      <trkpt lat="44.43106" lon="1.06205">
        <ele>251.967117</ele>
        <time>2019-08-17T15:15:07Z</time>
      </trkpt>
      <trkpt lat="44.43103" lon="1.062">
        <ele>251.975403</ele>
        <time>2019-08-17T15:15:08Z</time>
      </trkpt>
      <trkpt lat="44.43101" lon="1.06196">
        <ele>251.985306</ele>
        <time>2019-08-17T15:15:09Z</time>
      </trkpt>
      <trkpt lat="44.43098" lon="1.06191">
        <ele>251.995544</ele>
        <time>2019-08-17T15:15:10Z</time>
      </trkpt>
      <trkpt lat="44.43096" lon="1.06187">
        <ele>251.995544</ele>
        <time>2019-08-17T15:15:11Z</time>
      </trkpt>
      <trkpt lat="44.43094" lon="1.06182">
        <ele>252</ele>
        <time>2019-08-17T15:15:12Z</time>
      </trkpt>
      <trkpt lat="44.43091" lon="1.06176">
        <ele>252</ele>
        <time>2019-08-17T15:15:13Z</time>
      </trkpt>
      <trkpt lat="44.43089" lon="1.06171">
        <ele>252</ele>
        <time>2019-08-17T15:15:14Z</time>
      </trkpt>
      <trkpt lat="44.43086" lon="1.06166">
        <ele>252</ele>
        <time>2019-08-17T15:15:15Z</time>
      </trkpt>
      <trkpt lat="44.43084" lon="1.0616">
        <ele>252</ele>
        <time>2019-08-17T15:15:16Z</time>
      </trkpt>
      <trkpt lat="44.43081" lon="1.06153">
        <ele>252</ele>
        <time>2019-08-17T15:15:17Z</time>
      </trkpt>
      <trkpt lat="44.43078" lon="1.06147">
        <ele>252</ele>
        <time>2019-08-17T15:15:18Z</time>
      </trkpt>
      <trkpt lat="44.43076" lon="1.06141">
        <ele>252</ele>
        <time>2019-08-17T15:15:19Z</time>
      </trkpt>
      <trkpt lat="44.43073" lon="1.06134">
        <ele>251.995239</ele>
        <time>2019-08-17T15:15:20Z</time>
      </trkpt>
      <trkpt lat="44.43071" lon="1.06127">
        <ele>251.974731</ele>
        <time>2019-08-17T15:15:21Z</time>
      </trkpt>
      <trkpt lat="44.43068" lon="1.0612">
        <ele>251.927048</ele>
        <time>2019-08-17T15:15:22Z</time>
      </trkpt>
      <trkpt lat="44.43065" lon="1.06113">
        <ele>251.845901</ele>
        <time>2019-08-17T15:15:23Z</time>
      </trkpt>
      <trkpt lat="44.43062" lon="1.06106">
        <ele>251.845901</ele>
        <time>2019-08-17T15:15:24Z</time>
      </trkpt>
      <trkpt lat="44.43059" lon="1.06099">
        <ele>251.728317</ele>
        <time>2019-08-17T15:15:25Z</time>
      </trkpt>
      <trkpt lat="44.43055" lon="1.06091">
        <ele>251.57402</ele>
        <time>2019-08-17T15:15:26Z</time>
      </trkpt>
      <trkpt lat="44.43052" lon="1.06085">
        <ele>251.350174</ele>
        <time>2019-08-17T15:15:27Z</time>
      </trkpt>
      <trkpt lat="44.43047" lon="1.06078">
        <ele>251.100998</ele>
        <time>2019-08-17T15:15:28Z</time>
      </trkpt>
      <trkpt lat="44.43042" lon="1.06071">
        <ele>250.836182</ele>
        <time>2019-08-17T15:15:29Z</time>
      </trkpt>
      <trkpt lat="44.43037" lon="1.06064">
        <ele>250.552246</ele>
        <time>2019-08-17T15:15:30Z</time>
      </trkpt>
      <trkpt lat="44.43032" lon="1.06056">
        <ele>250.238846</ele>
        <time>2019-08-17T15:15:31Z</time>
      </trkpt>
      <trkpt lat="44.43028" lon="1.06048">
        <ele>249.89299</ele>
        <time>2019-08-17T15:15:32Z</time>
      </trkpt>
      <trkpt lat="44.43023" lon="1.0604">
        <ele>249.55159</ele>
        <time>2019-08-17T15:15:33Z</time>
      </trkpt>
      <trkpt lat="44.43019" lon="1.06031">
        <ele>249.178467</ele>
        <time>2019-08-17T15:15:34Z</time>
      </trkpt>
      <trkpt lat="44.43015" lon="1.06022">
        <ele>248.776291</ele>
        <time>2019-08-17T15:15:35Z</time>
      </trkpt>
      <trkpt lat="44.4301" lon="1.06014">
        <ele>248.353592</ele>
        <time>2019-08-17T15:15:36Z</time>
      </trkpt>
      <trkpt lat="44.43006" lon="1.06005">
        <ele>247.922775</ele>
        <time>2019-08-17T15:15:37Z</time>
      </trkpt>
      <trkpt lat="44.43001" lon="1.05996">
        <ele>247.922775</ele>
        <time>2019-08-17T15:15:38Z</time>
      </trkpt>
      <trkpt lat="44.42997" lon="1.05988">
        <ele>247.486816</ele>
        <time>2019-08-17T15:15:39Z</time>
      </trkpt>
      <trkpt lat="44.42992" lon="1.0598">
        <ele>247.047165</ele>
        <time>2019-08-17T15:15:40Z</time>
      </trkpt>
      <trkpt lat="44.42987" lon="1.05972">
        <ele>246.52034</ele>
        <time>2019-08-17T15:15:41Z</time>
      </trkpt>
      <trkpt lat="44.42981" lon="1.05965">
        <ele>245.987503</ele>
        <time>2019-08-17T15:15:42Z</time>
      </trkpt>
      <trkpt lat="44.42975" lon="1.05958">
        <ele>245.987503</ele>
        <time>2019-08-17T15:15:43Z</time>
      </trkpt>
      <trkpt lat="44.4297" lon="1.05951">
        <ele>245.451859</ele>
        <time>2019-08-17T15:15:44Z</time>
      </trkpt>
      <trkpt lat="44.42963" lon="1.05944">
        <ele>244.914474</ele>
        <time>2019-08-17T15:15:45Z</time>
      </trkpt>
      <trkpt lat="44.42957" lon="1.05938">
        <ele>244.306885</ele>
        <time>2019-08-17T15:15:46Z</time>
      </trkpt>
      <trkpt lat="44.4295" lon="1.05933">
        <ele>243.704834</ele>
        <time>2019-08-17T15:15:47Z</time>
      </trkpt>
      <trkpt lat="44.42942" lon="1.05928">
        <ele>243.190994</ele>
        <time>2019-08-17T15:15:48Z</time>
      </trkpt>
      <trkpt lat="44.42935" lon="1.05924">
        <ele>242.688232</ele>
        <time>2019-08-17T15:15:49Z</time>
      </trkpt>
      <trkpt lat="44.42928" lon="1.05919">
        <ele>242.200211</ele>
        <time>2019-08-17T15:15:50Z</time>
      </trkpt>
      <trkpt lat="44.42921" lon="1.05913">
        <ele>241.730362</ele>
        <time>2019-08-17T15:15:51Z</time>
      </trkpt>
      <trkpt lat="44.42915" lon="1.05906">
        <ele>241.359207</ele>
        <time>2019-08-17T15:15:52Z</time>
      </trkpt>
      <trkpt lat="44.42908" lon="1.05898">
        <ele>241.018433</ele>
        <time>2019-08-17T15:15:53Z</time>
      </trkpt>
      <trkpt lat="44.42902" lon="1.0589">
        <ele>240.713364</ele>
        <time>2019-08-17T15:15:54Z</time>
      </trkpt>
      <trkpt lat="44.42896" lon="1.05882">
        <ele>240.440842</ele>
        <time>2019-08-17T15:15:55Z</time>
      </trkpt>
      <trkpt lat="44.42889" lon="1.05874">
        <ele>240.198929</ele>
        <time>2019-08-17T15:15:56Z</time>
      </trkpt>
      <trkpt lat="44.42883" lon="1.05866">
        <ele>239.986923</ele>
        <time>2019-08-17T15:15:57Z</time>
      </trkpt>
      <trkpt lat="44.42876" lon="1.05859">
        <ele>239.796509</ele>
        <time>2019-08-17T15:15:58Z</time>
      </trkpt>
      <trkpt lat="44.42869" lon="1.05852">
        <ele>239.626999</ele>
        <time>2019-08-17T15:15:59Z</time>
      </trkpt>
      <trkpt lat="44.42863" lon="1.05844">
        <ele>239.626999</ele>
        <time>2019-08-17T15:16:00Z</time>
      </trkpt>
      <trkpt lat="44.42857" lon="1.05837">
        <ele>239.477463</ele>
        <time>2019-08-17T15:16:01Z</time>
      </trkpt>
      <trkpt lat="44.42851" lon="1.0583">
        <ele>239.345947</ele>
        <time>2019-08-17T15:16:02Z</time>
      </trkpt>
      <trkpt lat="44.42846" lon="1.05823">
        <ele>239.345947</ele>
        <time>2019-08-17T15:16:03Z</time>
      </trkpt>
      <trkpt lat="44.42841" lon="1.05816">
        <ele>239.23262</ele>
        <time>2019-08-17T15:16:04Z</time>
      </trkpt>
      <trkpt lat="44.42836" lon="1.0581">
        <ele>239.147018</ele>
        <time>2019-08-17T15:16:05Z</time>
      </trkpt>
      <trkpt lat="44.42832" lon="1.05803">
        <ele>239.088516</ele>
        <time>2019-08-17T15:16:06Z</time>
      </trkpt>
      <trkpt lat="44.42828" lon="1.05797">
        <ele>239.088516</ele>
        <time>2019-08-17T15:16:07Z</time>
      </trkpt>
      <trkpt lat="44.42823" lon="1.05791">
        <ele>239.057251</ele>
        <time>2019-08-17T15:16:08Z</time>
      </trkpt>
      <trkpt lat="44.4282" lon="1.05786">
        <ele>239.044266</ele>
        <time>2019-08-17T15:16:09Z</time>
      </trkpt>
      <trkpt lat="44.42815" lon="1.0578">
        <ele>239.044266</ele>
        <time>2019-08-17T15:16:10Z</time>
      </trkpt>
      <trkpt lat="44.42811" lon="1.05775">
        <ele>239.043411</ele>
        <time>2019-08-17T15:16:11Z</time>
      </trkpt>
      <trkpt lat="44.42807" lon="1.0577">
        <ele>239.042892</ele>
        <time>2019-08-17T15:16:12Z</time>
      </trkpt>
      <trkpt lat="44.42803" lon="1.05765">
        <ele>239.042892</ele>
        <time>2019-08-17T15:16:13Z</time>
      </trkpt>
      <trkpt lat="44.42799" lon="1.05761">
        <ele>239.044113</ele>
        <time>2019-08-17T15:16:14Z</time>
      </trkpt>
      <trkpt lat="44.42796" lon="1.05755">
        <ele>239.044113</ele>
        <time>2019-08-17T15:16:15Z</time>
      </trkpt>
      <trkpt lat="44.42793" lon="1.0575">
        <ele>239.044113</ele>
        <time>2019-08-17T15:16:16Z</time>
      </trkpt>
      <trkpt lat="44.4279" lon="1.05744">
        <ele>239.030991</ele>
        <time>2019-08-17T15:16:17Z</time>
      </trkpt>
      <trkpt lat="44.42788" lon="1.05738">
        <ele>239.030991</ele>
        <time>2019-08-17T15:16:18Z</time>
      </trkpt>
      <trkpt lat="44.42786" lon="1.0573">
        <ele>238.999695</ele>
        <time>2019-08-17T15:16:19Z</time>
      </trkpt>
      <trkpt lat="44.42785" lon="1.05723">
        <ele>238.94191</ele>
        <time>2019-08-17T15:16:20Z</time>
      </trkpt>
      <trkpt lat="44.42783" lon="1.05715">
        <ele>238.856384</ele>
        <time>2019-08-17T15:16:21Z</time>
      </trkpt>
      <trkpt lat="44.42781" lon="1.05707">
        <ele>238.764145</ele>
        <time>2019-08-17T15:16:22Z</time>
      </trkpt>
      <trkpt lat="44.42779" lon="1.05699">
        <ele>238.764145</ele>
        <time>2019-08-17T15:16:23Z</time>
      </trkpt>
      <trkpt lat="44.42777" lon="1.05691">
        <ele>238.674377</ele>
        <time>2019-08-17T15:16:24Z</time>
      </trkpt>
      <trkpt lat="44.42775" lon="1.05683">
        <ele>238.590805</ele>
        <time>2019-08-17T15:16:25Z</time>
      </trkpt>
      <trkpt lat="44.42773" lon="1.05675">
        <ele>238.5056</ele>
        <time>2019-08-17T15:16:26Z</time>
      </trkpt>
      <trkpt lat="44.42771" lon="1.05667">
        <ele>238.427414</ele>
        <time>2019-08-17T15:16:27Z</time>
      </trkpt>
      <trkpt lat="44.42769" lon="1.05659">
        <ele>238.427414</ele>
        <time>2019-08-17T15:16:28Z</time>
      </trkpt>
      <trkpt lat="44.42767" lon="1.05652">
        <ele>238.366699</ele>
        <time>2019-08-17T15:16:29Z</time>
      </trkpt>
      <trkpt lat="44.42765" lon="1.05644">
        <ele>238.306351</ele>
        <time>2019-08-17T15:16:30Z</time>
      </trkpt>
      <trkpt lat="44.42762" lon="1.05636">
        <ele>238.252975</ele>
        <time>2019-08-17T15:16:31Z</time>
      </trkpt>
      <trkpt lat="44.42761" lon="1.05628">
        <ele>238.205124</ele>
        <time>2019-08-17T15:16:32Z</time>
      </trkpt>
      <trkpt lat="44.42758" lon="1.05619">
        <ele>238.169418</ele>
        <time>2019-08-17T15:16:33Z</time>
      </trkpt>
      <trkpt lat="44.42757" lon="1.05611">
        <ele>238.138046</ele>
        <time>2019-08-17T15:16:34Z</time>
      </trkpt>
      <trkpt lat="44.42757" lon="1.05603">
        <ele>238.109726</ele>
        <time>2019-08-17T15:16:35Z</time>
      </trkpt>
      <trkpt lat="44.42756" lon="1.05594">
        <ele>238.086899</ele>
        <time>2019-08-17T15:16:36Z</time>
      </trkpt>
      <trkpt lat="44.42755" lon="1.05586">
        <ele>238.067017</ele>
        <time>2019-08-17T15:16:37Z</time>
      </trkpt>
      <trkpt lat="44.42754" lon="1.05577">
        <ele>238.051147</ele>
        <time>2019-08-17T15:16:38Z</time>
      </trkpt>
      <trkpt lat="44.42753" lon="1.05569">
        <ele>238.051147</ele>
        <time>2019-08-17T15:16:39Z</time>
      </trkpt>
      <trkpt lat="44.42752" lon="1.0556">
        <ele>238.035706</ele>
        <time>2019-08-17T15:16:40Z</time>
      </trkpt>
      <trkpt lat="44.42751" lon="1.05552">
        <ele>238.02478</ele>
        <time>2019-08-17T15:16:41Z</time>
      </trkpt>
      <trkpt lat="44.4275" lon="1.05544">
        <ele>238.018845</ele>
        <time>2019-08-17T15:16:42Z</time>
      </trkpt>
      <trkpt lat="44.42749" lon="1.05536">
        <ele>238.011185</ele>
        <time>2019-08-17T15:16:43Z</time>
      </trkpt>
      <trkpt lat="44.42748" lon="1.05529">
        <ele>237.999954</ele>
        <time>2019-08-17T15:16:44Z</time>
      </trkpt>
      <trkpt lat="44.42746" lon="1.05522">
        <ele>237.987305</ele>
        <time>2019-08-17T15:16:45Z</time>
      </trkpt>
      <trkpt lat="44.42745" lon="1.05515">
        <ele>237.980057</ele>
        <time>2019-08-17T15:16:46Z</time>
      </trkpt>
      <trkpt lat="44.42744" lon="1.05509">
        <ele>237.980057</ele>
        <time>2019-08-17T15:16:47Z</time>
      </trkpt>
      <trkpt lat="44.42742" lon="1.05503">
        <ele>237.978104</ele>
        <time>2019-08-17T15:16:48Z</time>
      </trkpt>
      <trkpt lat="44.42741" lon="1.05498">
        <ele>237.976135</ele>
        <time>2019-08-17T15:16:49Z</time>
      </trkpt>
      <trkpt lat="44.42739" lon="1.05491">
        <ele>237.973938</ele>
        <time>2019-08-17T15:16:50Z</time>
      </trkpt>
      <trkpt lat="44.42738" lon="1.05485">
        <ele>237.972061</ele>
        <time>2019-08-17T15:16:51Z</time>
      </trkpt>
      <trkpt lat="44.42736" lon="1.05478">
        <ele>237.971725</ele>
        <time>2019-08-17T15:16:52Z</time>
      </trkpt>
      <trkpt lat="44.42734" lon="1.05471">
        <ele>237.977127</ele>
        <time>2019-08-17T15:16:53Z</time>
      </trkpt>
      <trkpt lat="44.42732" lon="1.05464">
        <ele>237.98584</ele>
        <time>2019-08-17T15:16:54Z</time>
      </trkpt>
      <trkpt lat="44.42731" lon="1.05456">
        <ele>237.99202</ele>
        <time>2019-08-17T15:16:55Z</time>
      </trkpt>
      <trkpt lat="44.42729" lon="1.05449">
        <ele>237.995193</ele>
        <time>2019-08-17T15:16:56Z</time>
      </trkpt>
      <trkpt lat="44.42728" lon="1.05441">
        <ele>238.048752</ele>
        <time>2019-08-17T15:16:57Z</time>
      </trkpt>
      <trkpt lat="44.42726" lon="1.05433">
        <ele>238.178787</ele>
        <time>2019-08-17T15:16:58Z</time>
      </trkpt>
      <trkpt lat="44.42725" lon="1.05425">
        <ele>238.396561</ele>
        <time>2019-08-17T15:16:59Z</time>
      </trkpt>
      <trkpt lat="44.42723" lon="1.05417">
        <ele>238.70903</ele>
        <time>2019-08-17T15:17:00Z</time>
      </trkpt>
      <trkpt lat="44.42722" lon="1.05409">
        <ele>239.122635</ele>
        <time>2019-08-17T15:17:01Z</time>
      </trkpt>
      <trkpt lat="44.4272" lon="1.05401">
        <ele>239.640945</ele>
        <time>2019-08-17T15:17:02Z</time>
      </trkpt>
      <trkpt lat="44.42719" lon="1.05393">
        <ele>240.216476</ele>
        <time>2019-08-17T15:17:03Z</time>
      </trkpt>
      <trkpt lat="44.42716" lon="1.05385">
        <ele>240.216476</ele>
        <time>2019-08-17T15:17:04Z</time>
      </trkpt>
      <trkpt lat="44.42712" lon="1.05378">
        <ele>240.82576</ele>
        <time>2019-08-17T15:17:05Z</time>
      </trkpt>
      <trkpt lat="44.42707" lon="1.05371">
        <ele>241.465775</ele>
        <time>2019-08-17T15:17:06Z</time>
      </trkpt>
      <trkpt lat="44.42703" lon="1.05365">
        <ele>242.022354</ele>
        <time>2019-08-17T15:17:07Z</time>
      </trkpt>
      <trkpt lat="44.42699" lon="1.05359">
        <ele>242.479675</ele>
        <time>2019-08-17T15:17:08Z</time>
      </trkpt>
      <trkpt lat="44.42695" lon="1.05353">
        <ele>242.828751</ele>
        <time>2019-08-17T15:17:09Z</time>
      </trkpt>
      <trkpt lat="44.42691" lon="1.05347">
        <ele>243.063919</ele>
        <time>2019-08-17T15:17:10Z</time>
      </trkpt>
      <trkpt lat="44.42687" lon="1.05341">
        <ele>243.179855</ele>
        <time>2019-08-17T15:17:11Z</time>
      </trkpt>
      <trkpt lat="44.42683" lon="1.05335">
        <ele>243.179855</ele>
        <time>2019-08-17T15:17:12Z</time>
      </trkpt>
      <trkpt lat="44.4268" lon="1.05329">
        <ele>243.179855</ele>
        <time>2019-08-17T15:17:13Z</time>
      </trkpt>
      <trkpt lat="44.42677" lon="1.05324">
        <ele>243.171249</ele>
        <time>2019-08-17T15:17:14Z</time>
      </trkpt>
      <trkpt lat="44.42673" lon="1.05318">
        <ele>243.142899</ele>
        <time>2019-08-17T15:17:15Z</time>
      </trkpt>
      <trkpt lat="44.4267" lon="1.05313">
        <ele>243.106995</ele>
        <time>2019-08-17T15:17:16Z</time>
      </trkpt>
      <trkpt lat="44.42667" lon="1.05307">
        <ele>243.073898</ele>
        <time>2019-08-17T15:17:17Z</time>
      </trkpt>
      <trkpt lat="44.42663" lon="1.05302">
        <ele>243.045059</ele>
        <time>2019-08-17T15:17:18Z</time>
      </trkpt>
      <trkpt lat="44.4266" lon="1.05298">
        <ele>243.021988</ele>
        <time>2019-08-17T15:17:19Z</time>
      </trkpt>
      <trkpt lat="44.42657" lon="1.05293">
        <ele>243.006302</ele>
        <time>2019-08-17T15:17:20Z</time>
      </trkpt>
      <trkpt lat="44.42654" lon="1.05289">
        <ele>243.006302</ele>
        <time>2019-08-17T15:17:21Z</time>
      </trkpt>
      <trkpt lat="44.42651" lon="1.05284">
        <ele>243</ele>
        <time>2019-08-17T15:17:22Z</time>
      </trkpt>
      <trkpt lat="44.42648" lon="1.05279">
        <ele>243</ele>
        <time>2019-08-17T15:17:23Z</time>
      </trkpt>
      <trkpt lat="44.42644" lon="1.05275">
        <ele>243</ele>
        <time>2019-08-17T15:17:24Z</time>
      </trkpt>
      <trkpt lat="44.42641" lon="1.05271">
        <ele>243</ele>
        <time>2019-08-17T15:17:25Z</time>
      </trkpt>
      <trkpt lat="44.42638" lon="1.05266">
        <ele>243</ele>
        <time>2019-08-17T15:17:26Z</time>
      </trkpt>
      <trkpt lat="44.42634" lon="1.05262">
        <ele>243</ele>
        <time>2019-08-17T15:17:27Z</time>
      </trkpt>
      <trkpt lat="44.42631" lon="1.05258">
        <ele>243</ele>
        <time>2019-08-17T15:17:28Z</time>
      </trkpt>
      <trkpt lat="44.42628" lon="1.05254">
        <ele>243</ele>
        <time>2019-08-17T15:17:29Z</time>
      </trkpt>
      <trkpt lat="44.42625" lon="1.0525">
        <ele>243</ele>
        <time>2019-08-17T15:17:30Z</time>
      </trkpt>
      <trkpt lat="44.42622" lon="1.05245">
        <ele>243</ele>
        <time>2019-08-17T15:17:31Z</time>
      </trkpt>
      <trkpt lat="44.4262" lon="1.0524">
        <ele>243</ele>
        <time>2019-08-17T15:17:32Z</time>
      </trkpt>
      <trkpt lat="44.42617" lon="1.05235">
        <ele>243</ele>
        <time>2019-08-17T15:17:33Z</time>
      </trkpt>
      <trkpt lat="44.42615" lon="1.0523">
        <ele>243</ele>
        <time>2019-08-17T15:17:34Z</time>
      </trkpt>
      <trkpt lat="44.42613" lon="1.05224">
        <ele>243</ele>
        <time>2019-08-17T15:17:35Z</time>
      </trkpt>
      <trkpt lat="44.42611" lon="1.05219">
        <ele>243</ele>
        <time>2019-08-17T15:17:36Z</time>
      </trkpt>
      <trkpt lat="44.42609" lon="1.05213">
        <ele>243</ele>
        <time>2019-08-17T15:17:37Z</time>
      </trkpt>
      <trkpt lat="44.42608" lon="1.05207">
        <ele>243</ele>
        <time>2019-08-17T15:17:38Z</time>
      </trkpt>
      <trkpt lat="44.42606" lon="1.05201">
        <ele>243</ele>
        <time>2019-08-17T15:17:39Z</time>
      </trkpt>
      <trkpt lat="44.42605" lon="1.05195">
        <ele>243</ele>
        <time>2019-08-17T15:17:40Z</time>
      </trkpt>
      <trkpt lat="44.42604" lon="1.05189">
        <ele>243</ele>
        <time>2019-08-17T15:17:41Z</time>
      </trkpt>
      <trkpt lat="44.42603" lon="1.05182">
        <ele>243</ele>
        <time>2019-08-17T15:17:42Z</time>
      </trkpt>
      <trkpt lat="44.42602" lon="1.05176">
        <ele>243</ele>
        <time>2019-08-17T15:17:43Z</time>
      </trkpt>
      <trkpt lat="44.426" lon="1.0517">
        <ele>243</ele>
        <time>2019-08-17T15:17:44Z</time>
      </trkpt>
      <trkpt lat="44.42598" lon="1.05164">
        <ele>243</ele>
        <time>2019-08-17T15:17:45Z</time>
      </trkpt>
      <trkpt lat="44.42596" lon="1.05158">
        <ele>243</ele>
        <time>2019-08-17T15:17:46Z</time>
      </trkpt>
      <trkpt lat="44.42594" lon="1.05152">
        <ele>243</ele>
        <time>2019-08-17T15:17:47Z</time>
      </trkpt>
      <trkpt lat="44.42591" lon="1.05146">
        <ele>243</ele>
        <time>2019-08-17T15:17:48Z</time>
      </trkpt>
      <trkpt lat="44.42588" lon="1.0514">
        <ele>242.999023</ele>
        <time>2019-08-17T15:17:49Z</time>
      </trkpt>
      <trkpt lat="44.42584" lon="1.05135">
        <ele>242.992355</ele>
        <time>2019-08-17T15:17:50Z</time>
      </trkpt>
      <trkpt lat="44.4258" lon="1.05129">
        <ele>242.97876</ele>
        <time>2019-08-17T15:17:51Z</time>
      </trkpt>
      <trkpt lat="44.42576" lon="1.05123">
        <ele>242.957108</ele>
        <time>2019-08-17T15:17:52Z</time>
      </trkpt>
      <trkpt lat="44.42572" lon="1.05118">
        <ele>242.927002</ele>
        <time>2019-08-17T15:17:53Z</time>
      </trkpt>
      <trkpt lat="44.42567" lon="1.05112">
        <ele>242.887527</ele>
        <time>2019-08-17T15:17:54Z</time>
      </trkpt>
      <trkpt lat="44.42563" lon="1.05107">
        <ele>242.842972</ele>
        <time>2019-08-17T15:17:55Z</time>
      </trkpt>
      <trkpt lat="44.42559" lon="1.05101">
        <ele>242.842972</ele>
        <time>2019-08-17T15:17:56Z</time>
      </trkpt>
      <trkpt lat="44.42554" lon="1.05096">
        <ele>242.802307</ele>
        <time>2019-08-17T15:17:57Z</time>
      </trkpt>
      <trkpt lat="44.42549" lon="1.0509">
        <ele>242.764084</ele>
        <time>2019-08-17T15:17:58Z</time>
      </trkpt>
      <trkpt lat="44.42544" lon="1.05084">
        <ele>242.720078</ele>
        <time>2019-08-17T15:17:59Z</time>
      </trkpt>
      <trkpt lat="44.42539" lon="1.05078">
        <ele>242.674271</ele>
        <time>2019-08-17T15:18:00Z</time>
      </trkpt>
      <trkpt lat="44.42534" lon="1.05072">
        <ele>242.625427</ele>
        <time>2019-08-17T15:18:01Z</time>
      </trkpt>
      <trkpt lat="44.4253" lon="1.05066">
        <ele>242.566956</ele>
        <time>2019-08-17T15:18:02Z</time>
      </trkpt>
      <trkpt lat="44.42525" lon="1.0506">
        <ele>242.493652</ele>
        <time>2019-08-17T15:18:03Z</time>
      </trkpt>
      <trkpt lat="44.42521" lon="1.05053">
        <ele>242.406357</ele>
        <time>2019-08-17T15:18:04Z</time>
      </trkpt>
      <trkpt lat="44.42518" lon="1.05045">
        <ele>242.313217</ele>
        <time>2019-08-17T15:18:05Z</time>
      </trkpt>
      <trkpt lat="44.42516" lon="1.05037">
        <ele>242.209106</ele>
        <time>2019-08-17T15:18:06Z</time>
      </trkpt>
      <trkpt lat="44.42515" lon="1.05028">
        <ele>242.123276</ele>
        <time>2019-08-17T15:18:07Z</time>
      </trkpt>
      <trkpt lat="44.42515" lon="1.05019">
        <ele>242.070633</ele>
        <time>2019-08-17T15:18:08Z</time>
      </trkpt>
      <trkpt lat="44.42514" lon="1.0501">
        <ele>242.054077</ele>
        <time>2019-08-17T15:18:09Z</time>
      </trkpt>
      <trkpt lat="44.42514" lon="1.05">
        <ele>242.054077</ele>
        <time>2019-08-17T15:18:10Z</time>
      </trkpt>
      <trkpt lat="44.42514" lon="1.04992">
        <ele>242.054077</ele>
        <time>2019-08-17T15:18:11Z</time>
      </trkpt>
      <trkpt lat="44.42515" lon="1.04983">
        <ele>242.077774</ele>
        <time>2019-08-17T15:18:12Z</time>
      </trkpt>
      <trkpt lat="44.42515" lon="1.04974">
        <ele>242.141846</ele>
        <time>2019-08-17T15:18:13Z</time>
      </trkpt>
      <trkpt lat="44.42515" lon="1.04966">
        <ele>242.249344</ele>
        <time>2019-08-17T15:18:14Z</time>
      </trkpt>
      <trkpt lat="44.42514" lon="1.04957">
        <ele>242.249344</ele>
        <time>2019-08-17T15:18:15Z</time>
      </trkpt>
      <trkpt lat="44.42514" lon="1.04949">
        <ele>242.360031</ele>
        <time>2019-08-17T15:18:16Z</time>
      </trkpt>
      <trkpt lat="44.42514" lon="1.0494">
        <ele>242.451584</ele>
        <time>2019-08-17T15:18:17Z</time>
      </trkpt>
      <trkpt lat="44.42513" lon="1.04932">
        <ele>242.520432</ele>
        <time>2019-08-17T15:18:18Z</time>
      </trkpt>
      <trkpt lat="44.42512" lon="1.04924">
        <ele>242.5634</ele>
        <time>2019-08-17T15:18:19Z</time>
      </trkpt>
      <trkpt lat="44.42511" lon="1.04916">
        <ele>242.580811</ele>
        <time>2019-08-17T15:18:20Z</time>
      </trkpt>
      <trkpt lat="44.42509" lon="1.04909">
        <ele>242.580811</ele>
        <time>2019-08-17T15:18:21Z</time>
      </trkpt>
      <trkpt lat="44.42507" lon="1.04901">
        <ele>242.580811</ele>
        <time>2019-08-17T15:18:22Z</time>
      </trkpt>
      <trkpt lat="44.42505" lon="1.04894">
        <ele>242.561523</ele>
        <time>2019-08-17T15:18:23Z</time>
      </trkpt>
      <trkpt lat="44.42503" lon="1.04886">
        <ele>242.507401</ele>
        <time>2019-08-17T15:18:24Z</time>
      </trkpt>
      <trkpt lat="44.42501" lon="1.04879">
        <ele>242.427414</ele>
        <time>2019-08-17T15:18:25Z</time>
      </trkpt>
      <trkpt lat="44.42499" lon="1.04872">
        <ele>242.324295</ele>
        <time>2019-08-17T15:18:26Z</time>
      </trkpt>
      <trkpt lat="44.42497" lon="1.04864">
        <ele>242.197021</ele>
        <time>2019-08-17T15:18:27Z</time>
      </trkpt>
      <trkpt lat="44.42495" lon="1.04856">
        <ele>242.197021</ele>
        <time>2019-08-17T15:18:28Z</time>
      </trkpt>
      <trkpt lat="44.42493" lon="1.04848">
        <ele>242.046707</ele>
        <time>2019-08-17T15:18:29Z</time>
      </trkpt>
      <trkpt lat="44.42491" lon="1.0484">
        <ele>241.882492</ele>
        <time>2019-08-17T15:18:30Z</time>
      </trkpt>
      <trkpt lat="44.42488" lon="1.04833">
        <ele>241.6866</ele>
        <time>2019-08-17T15:18:31Z</time>
      </trkpt>
      <trkpt lat="44.42486" lon="1.04825">
        <ele>241.6866</ele>
        <time>2019-08-17T15:18:32Z</time>
      </trkpt>
      <trkpt lat="44.42484" lon="1.04817">
        <ele>241.482742</ele>
        <time>2019-08-17T15:18:33Z</time>
      </trkpt>
      <trkpt lat="44.42481" lon="1.04808">
        <ele>241.255936</ele>
        <time>2019-08-17T15:18:34Z</time>
      </trkpt>
      <trkpt lat="44.42478" lon="1.048">
        <ele>240.959549</ele>
        <time>2019-08-17T15:18:35Z</time>
      </trkpt>
      <trkpt lat="44.42475" lon="1.04791">
        <ele>240.63916</ele>
        <time>2019-08-17T15:18:36Z</time>
      </trkpt>
      <trkpt lat="44.42472" lon="1.04783">
        <ele>240.293945</ele>
        <time>2019-08-17T15:18:37Z</time>
      </trkpt>
      <trkpt lat="44.42469" lon="1.04773">
        <ele>239.951828</ele>
        <time>2019-08-17T15:18:38Z</time>
      </trkpt>
      <trkpt lat="44.42466" lon="1.04763">
        <ele>239.590332</ele>
        <time>2019-08-17T15:18:39Z</time>
      </trkpt>
      <trkpt lat="44.42463" lon="1.04753">
        <ele>239.222168</ele>
        <time>2019-08-17T15:18:40Z</time>
      </trkpt>
      <trkpt lat="44.4246" lon="1.04743">
        <ele>239.222168</ele>
        <time>2019-08-17T15:18:41Z</time>
      </trkpt>
      <trkpt lat="44.42458" lon="1.04732">
        <ele>238.895218</ele>
        <time>2019-08-17T15:18:42Z</time>
      </trkpt>
      <trkpt lat="44.42456" lon="1.04721">
        <ele>238.5578</ele>
        <time>2019-08-17T15:18:43Z</time>
      </trkpt>
      <trkpt lat="44.42455" lon="1.0471">
        <ele>238.5578</ele>
        <time>2019-08-17T15:18:44Z</time>
      </trkpt>
      <trkpt lat="44.42455" lon="1.04699">
        <ele>238.139542</ele>
        <time>2019-08-17T15:18:45Z</time>
      </trkpt>
      <trkpt lat="44.42456" lon="1.04688">
        <ele>237.709793</ele>
        <time>2019-08-17T15:18:46Z</time>
      </trkpt>
      <trkpt lat="44.42458" lon="1.04678">
        <ele>237.238754</ele>
        <time>2019-08-17T15:18:47Z</time>
      </trkpt>
      <trkpt lat="44.42461" lon="1.04669">
        <ele>236.834839</ele>
        <time>2019-08-17T15:18:48Z</time>
      </trkpt>
      <trkpt lat="44.42464" lon="1.0466">
        <ele>236.834839</ele>
        <time>2019-08-17T15:18:49Z</time>
      </trkpt>
      <trkpt lat="44.42466" lon="1.04651">
        <ele>236.51506</ele>
        <time>2019-08-17T15:18:50Z</time>
      </trkpt>
      <trkpt lat="44.42468" lon="1.04644">
        <ele>236.268112</ele>
        <time>2019-08-17T15:18:51Z</time>
      </trkpt>
      <trkpt lat="44.42468" lon="1.04636">
        <ele>236.268112</ele>
        <time>2019-08-17T15:18:52Z</time>
      </trkpt>
      <trkpt lat="44.42468" lon="1.04629">
        <ele>236.208481</ele>
        <time>2019-08-17T15:18:53Z</time>
      </trkpt>
      <trkpt lat="44.42468" lon="1.04621">
        <ele>236.208481</ele>
        <time>2019-08-17T15:18:54Z</time>
      </trkpt>
      <trkpt lat="44.42467" lon="1.04613">
        <ele>236.208481</ele>
        <time>2019-08-17T15:18:55Z</time>
      </trkpt>
      <trkpt lat="44.42465" lon="1.04606">
        <ele>236.208481</ele>
        <time>2019-08-17T15:18:56Z</time>
      </trkpt>
      <trkpt lat="44.42464" lon="1.04599">
        <ele>236.251175</ele>
        <time>2019-08-17T15:18:57Z</time>
      </trkpt>
      <trkpt lat="44.42462" lon="1.04592">
        <ele>236.45546</ele>
        <time>2019-08-17T15:18:58Z</time>
      </trkpt>
      <trkpt lat="44.4246" lon="1.04585">
        <ele>236.676926</ele>
        <time>2019-08-17T15:18:59Z</time>
      </trkpt>
      <trkpt lat="44.42458" lon="1.04579">
        <ele>236.676926</ele>
        <time>2019-08-17T15:19:00Z</time>
      </trkpt>
      <trkpt lat="44.42456" lon="1.04572">
        <ele>236.898361</ele>
        <time>2019-08-17T15:19:01Z</time>
      </trkpt>
      <trkpt lat="44.42453" lon="1.04567">
        <ele>237.134598</ele>
        <time>2019-08-17T15:19:02Z</time>
      </trkpt>
      <trkpt lat="44.4245" lon="1.04562">
        <ele>237.364182</ele>
        <time>2019-08-17T15:19:03Z</time>
      </trkpt>
      <trkpt lat="44.42445" lon="1.0456">
        <ele>237.596115</ele>
        <time>2019-08-17T15:19:04Z</time>
      </trkpt>
      <trkpt lat="44.4244" lon="1.0456">
        <ele>237.596115</ele>
        <time>2019-08-17T15:19:05Z</time>
      </trkpt>
      <trkpt lat="44.42434" lon="1.04559">
        <ele>237.806229</ele>
        <time>2019-08-17T15:19:06Z</time>
      </trkpt>
      <trkpt lat="44.42428" lon="1.04559">
        <ele>237.966385</ele>
        <time>2019-08-17T15:19:07Z</time>
      </trkpt>
      <trkpt lat="44.42422" lon="1.04558">
        <ele>238.071533</ele>
        <time>2019-08-17T15:19:08Z</time>
      </trkpt>
      <trkpt lat="44.42416" lon="1.04558">
        <ele>238.126389</ele>
        <time>2019-08-17T15:19:09Z</time>
      </trkpt>
      <trkpt lat="44.42409" lon="1.04557">
        <ele>238.126389</ele>
        <time>2019-08-17T15:19:10Z</time>
      </trkpt>
      <trkpt lat="44.42402" lon="1.04556">
        <ele>238.126389</ele>
        <time>2019-08-17T15:19:11Z</time>
      </trkpt>
      <trkpt lat="44.42395" lon="1.04555">
        <ele>238.10791</ele>
        <time>2019-08-17T15:19:12Z</time>
      </trkpt>
      <trkpt lat="44.42389" lon="1.04554">
        <ele>238.026367</ele>
        <time>2019-08-17T15:19:13Z</time>
      </trkpt>
      <trkpt lat="44.42382" lon="1.04553">
        <ele>237.87825</ele>
        <time>2019-08-17T15:19:14Z</time>
      </trkpt>
      <trkpt lat="44.42375" lon="1.04552">
        <ele>237.729172</ele>
        <time>2019-08-17T15:19:15Z</time>
      </trkpt>
      <trkpt lat="44.42368" lon="1.04551">
        <ele>237.588943</ele>
        <time>2019-08-17T15:19:16Z</time>
      </trkpt>
      <trkpt lat="44.42362" lon="1.0455">
        <ele>237.465332</ele>
        <time>2019-08-17T15:19:17Z</time>
      </trkpt>
      <trkpt lat="44.42356" lon="1.04549">
        <ele>237.360352</ele>
        <time>2019-08-17T15:19:18Z</time>
      </trkpt>
      <trkpt lat="44.4235" lon="1.04548">
        <ele>237.273605</ele>
        <time>2019-08-17T15:19:19Z</time>
      </trkpt>
      <trkpt lat="44.42344" lon="1.04548">
        <ele>237.20549</ele>
        <time>2019-08-17T15:19:20Z</time>
      </trkpt>
      <trkpt lat="44.42338" lon="1.04547">
        <ele>237.154785</ele>
        <time>2019-08-17T15:19:21Z</time>
      </trkpt>
      <trkpt lat="44.42332" lon="1.04546">
        <ele>237.116287</ele>
        <time>2019-08-17T15:19:22Z</time>
      </trkpt>
      <trkpt lat="44.42326" lon="1.04545">
        <ele>237.077805</ele>
        <time>2019-08-17T15:19:23Z</time>
      </trkpt>
      <trkpt lat="44.4232" lon="1.04544">
        <ele>237.042969</ele>
        <time>2019-08-17T15:19:24Z</time>
      </trkpt>
      <trkpt lat="44.42315" lon="1.04543">
        <ele>237.010986</ele>
        <time>2019-08-17T15:19:25Z</time>
      </trkpt>
      <trkpt lat="44.42308" lon="1.04542">
        <ele>237.000244</ele>
        <time>2019-08-17T15:19:26Z</time>
      </trkpt>
      <trkpt lat="44.42303" lon="1.04542">
        <ele>237.000244</ele>
        <time>2019-08-17T15:19:27Z</time>
      </trkpt>
      <trkpt lat="44.42297" lon="1.04541">
        <ele>237.000244</ele>
        <time>2019-08-17T15:19:28Z</time>
      </trkpt>
      <trkpt lat="44.42291" lon="1.04541">
        <ele>237.01741</ele>
        <time>2019-08-17T15:19:29Z</time>
      </trkpt>
      <trkpt lat="44.42284" lon="1.04541">
        <ele>237.059982</ele>
        <time>2019-08-17T15:19:30Z</time>
      </trkpt>
      <trkpt lat="44.42278" lon="1.04541">
        <ele>237.130447</ele>
        <time>2019-08-17T15:19:31Z</time>
      </trkpt>
      <trkpt lat="44.42271" lon="1.04541">
        <ele>237.223557</ele>
        <time>2019-08-17T15:19:32Z</time>
      </trkpt>
      <trkpt lat="44.42265" lon="1.04541">
        <ele>237.335205</ele>
        <time>2019-08-17T15:19:33Z</time>
      </trkpt>
      <trkpt lat="44.42259" lon="1.04542">
        <ele>237.445313</ele>
        <time>2019-08-17T15:19:34Z</time>
      </trkpt>
      <trkpt lat="44.42253" lon="1.04543">
        <ele>237.546463</ele>
        <time>2019-08-17T15:19:35Z</time>
      </trkpt>
      <trkpt lat="44.42246" lon="1.04544">
        <ele>237.640793</ele>
        <time>2019-08-17T15:19:36Z</time>
      </trkpt>
      <trkpt lat="44.42241" lon="1.04546">
        <ele>237.724533</ele>
        <time>2019-08-17T15:19:37Z</time>
      </trkpt>
      <trkpt lat="44.42234" lon="1.04547">
        <ele>237.793655</ele>
        <time>2019-08-17T15:19:38Z</time>
      </trkpt>
      <trkpt lat="44.42228" lon="1.04549">
        <ele>237.853683</ele>
        <time>2019-08-17T15:19:39Z</time>
      </trkpt>
      <trkpt lat="44.42223" lon="1.04552">
        <ele>237.853683</ele>
        <time>2019-08-17T15:19:40Z</time>
      </trkpt>
      <trkpt lat="44.42217" lon="1.04554">
        <ele>237.90239</ele>
        <time>2019-08-17T15:19:41Z</time>
      </trkpt>
      <trkpt lat="44.42211" lon="1.04557">
        <ele>237.939865</ele>
        <time>2019-08-17T15:19:42Z</time>
      </trkpt>
      <trkpt lat="44.42205" lon="1.0456">
        <ele>237.965271</ele>
        <time>2019-08-17T15:19:43Z</time>
      </trkpt>
      <trkpt lat="44.422" lon="1.04563">
        <ele>237.98201</ele>
        <time>2019-08-17T15:19:44Z</time>
      </trkpt>
      <trkpt lat="44.42194" lon="1.04566">
        <ele>237.996262</ele>
        <time>2019-08-17T15:19:45Z</time>
      </trkpt>
      <trkpt lat="44.42189" lon="1.0457">
        <ele>238.005661</ele>
        <time>2019-08-17T15:19:46Z</time>
      </trkpt>
      <trkpt lat="44.42184" lon="1.04574">
        <ele>238.01329</ele>
        <time>2019-08-17T15:19:47Z</time>
      </trkpt>
      <trkpt lat="44.42178" lon="1.04577">
        <ele>238.020432</ele>
        <time>2019-08-17T15:19:48Z</time>
      </trkpt>
      <trkpt lat="44.42173" lon="1.04581">
        <ele>238.030136</ele>
        <time>2019-08-17T15:19:49Z</time>
      </trkpt>
      <trkpt lat="44.42168" lon="1.04585">
        <ele>238.046432</ele>
        <time>2019-08-17T15:19:50Z</time>
      </trkpt>
      <trkpt lat="44.42162" lon="1.04589">
        <ele>238.071121</ele>
        <time>2019-08-17T15:19:51Z</time>
      </trkpt>
      <trkpt lat="44.42157" lon="1.04592">
        <ele>238.111389</ele>
        <time>2019-08-17T15:19:52Z</time>
      </trkpt>
      <trkpt lat="44.42151" lon="1.04595">
        <ele>238.167114</ele>
        <time>2019-08-17T15:19:53Z</time>
      </trkpt>
      <trkpt lat="44.42146" lon="1.04596">
        <ele>238.237839</ele>
        <time>2019-08-17T15:19:54Z</time>
      </trkpt>
      <trkpt lat="44.4214" lon="1.04597">
        <ele>238.324539</ele>
        <time>2019-08-17T15:19:55Z</time>
      </trkpt>
      <trkpt lat="44.42135" lon="1.04598">
        <ele>238.425049</ele>
        <time>2019-08-17T15:19:56Z</time>
      </trkpt>
      <trkpt lat="44.42129" lon="1.04598">
        <ele>238.537842</ele>
        <time>2019-08-17T15:19:57Z</time>
      </trkpt>
      <trkpt lat="44.42124" lon="1.046">
        <ele>238.659103</ele>
        <time>2019-08-17T15:19:58Z</time>
      </trkpt>
      <trkpt lat="44.42119" lon="1.04601">
        <ele>238.788162</ele>
        <time>2019-08-17T15:19:59Z</time>
      </trkpt>
      <trkpt lat="44.42114" lon="1.04602">
        <ele>238.924881</ele>
        <time>2019-08-17T15:20:00Z</time>
      </trkpt>
      <trkpt lat="44.4211" lon="1.04603">
        <ele>239.065186</ele>
        <time>2019-08-17T15:20:01Z</time>
      </trkpt>
      <trkpt lat="44.42105" lon="1.04604">
        <ele>239.206711</ele>
        <time>2019-08-17T15:20:02Z</time>
      </trkpt>
      <trkpt lat="44.421" lon="1.04604">
        <ele>239.344238</ele>
        <time>2019-08-17T15:20:03Z</time>
      </trkpt>
      <trkpt lat="44.42096" lon="1.04606">
        <ele>239.468887</ele>
        <time>2019-08-17T15:20:04Z</time>
      </trkpt>
      <trkpt lat="44.4209" lon="1.04607">
        <ele>239.581497</ele>
        <time>2019-08-17T15:20:05Z</time>
      </trkpt>
      <trkpt lat="44.42086" lon="1.04609">
        <ele>239.684586</ele>
        <time>2019-08-17T15:20:06Z</time>
      </trkpt>
      <trkpt lat="44.4208" lon="1.0461">
        <ele>239.780014</ele>
        <time>2019-08-17T15:20:07Z</time>
      </trkpt>
      <trkpt lat="44.42075" lon="1.04611">
        <ele>239.86763</ele>
        <time>2019-08-17T15:20:08Z</time>
      </trkpt>
      <trkpt lat="44.4207" lon="1.04613">
        <ele>239.952866</ele>
        <time>2019-08-17T15:20:09Z</time>
      </trkpt>
      <trkpt lat="44.42064" lon="1.04614">
        <ele>240.042435</ele>
        <time>2019-08-17T15:20:10Z</time>
      </trkpt>
      <trkpt lat="44.4206" lon="1.04614">
        <ele>240.137512</ele>
        <time>2019-08-17T15:20:11Z</time>
      </trkpt>
      <trkpt lat="44.42054" lon="1.04615">
        <ele>240.137512</ele>
        <time>2019-08-17T15:20:12Z</time>
      </trkpt>
      <trkpt lat="44.42049" lon="1.04614">
        <ele>240.236084</ele>
        <time>2019-08-17T15:20:13Z</time>
      </trkpt>
      <trkpt lat="44.42044" lon="1.04614">
        <ele>240.338058</ele>
        <time>2019-08-17T15:20:14Z</time>
      </trkpt>
      <trkpt lat="44.4204" lon="1.04613">
        <ele>240.463181</ele>
        <time>2019-08-17T15:20:15Z</time>
      </trkpt>
      <trkpt lat="44.42035" lon="1.04612">
        <ele>240.547974</ele>
        <time>2019-08-17T15:20:16Z</time>
      </trkpt>
      <trkpt lat="44.42031" lon="1.04611">
        <ele>240.583084</ele>
        <time>2019-08-17T15:20:17Z</time>
      </trkpt>
      <trkpt lat="44.42026" lon="1.0461">
        <ele>240.583084</ele>
        <time>2019-08-17T15:20:18Z</time>
      </trkpt>
      <trkpt lat="44.42022" lon="1.04609">
        <ele>240.583084</ele>
        <time>2019-08-17T15:20:19Z</time>
      </trkpt>
      <trkpt lat="44.42018" lon="1.04608">
        <ele>240.566483</ele>
        <time>2019-08-17T15:20:20Z</time>
      </trkpt>
      <trkpt lat="44.42013" lon="1.04607">
        <ele>240.497314</ele>
        <time>2019-08-17T15:20:21Z</time>
      </trkpt>
      <trkpt lat="44.42009" lon="1.04606">
        <ele>240.377243</ele>
        <time>2019-08-17T15:20:22Z</time>
      </trkpt>
      <trkpt lat="44.42005" lon="1.04605">
        <ele>240.189697</ele>
        <time>2019-08-17T15:20:23Z</time>
      </trkpt>
      <trkpt lat="44.42001" lon="1.04604">
        <ele>239.996826</ele>
        <time>2019-08-17T15:20:24Z</time>
      </trkpt>
      <trkpt lat="44.41996" lon="1.04604">
        <ele>239.806396</ele>
        <time>2019-08-17T15:20:25Z</time>
      </trkpt>
      <trkpt lat="44.41992" lon="1.04603">
        <ele>239.616943</ele>
        <time>2019-08-17T15:20:26Z</time>
      </trkpt>
      <trkpt lat="44.41987" lon="1.04603">
        <ele>239.429932</ele>
        <time>2019-08-17T15:20:27Z</time>
      </trkpt>
      <trkpt lat="44.41982" lon="1.04602">
        <ele>239.243164</ele>
        <time>2019-08-17T15:20:28Z</time>
      </trkpt>
      <trkpt lat="44.41977" lon="1.04602">
        <ele>239.053955</ele>
        <time>2019-08-17T15:20:29Z</time>
      </trkpt>
      <trkpt lat="44.41972" lon="1.04602">
        <ele>238.86084</ele>
        <time>2019-08-17T15:20:30Z</time>
      </trkpt>
      <trkpt lat="44.41967" lon="1.04602">
        <ele>238.662842</ele>
        <time>2019-08-17T15:20:31Z</time>
      </trkpt>
      <trkpt lat="44.41963" lon="1.04602">
        <ele>238.458328</ele>
        <time>2019-08-17T15:20:32Z</time>
      </trkpt>
      <trkpt lat="44.41958" lon="1.04602">
        <ele>238.236816</ele>
        <time>2019-08-17T15:20:33Z</time>
      </trkpt>
      <trkpt lat="44.41953" lon="1.04602">
        <ele>238.001144</ele>
        <time>2019-08-17T15:20:34Z</time>
      </trkpt>
      <trkpt lat="44.41947" lon="1.04602">
        <ele>237.751297</ele>
        <time>2019-08-17T15:20:35Z</time>
      </trkpt>
      <trkpt lat="44.41942" lon="1.04602">
        <ele>237.488449</ele>
        <time>2019-08-17T15:20:36Z</time>
      </trkpt>
      <trkpt lat="44.41937" lon="1.04602">
        <ele>237.210617</ele>
        <time>2019-08-17T15:20:37Z</time>
      </trkpt>
      <trkpt lat="44.41932" lon="1.04602">
        <ele>236.919266</ele>
        <time>2019-08-17T15:20:38Z</time>
      </trkpt>
      <trkpt lat="44.41927" lon="1.04602">
        <ele>236.626297</ele>
        <time>2019-08-17T15:20:39Z</time>
      </trkpt>
      <trkpt lat="44.41921" lon="1.04602">
        <ele>236.626297</ele>
        <time>2019-08-17T15:20:40Z</time>
      </trkpt>
      <trkpt lat="44.41916" lon="1.04602">
        <ele>236.330078</ele>
        <time>2019-08-17T15:20:41Z</time>
      </trkpt>
      <trkpt lat="44.41911" lon="1.04601">
        <ele>236.030594</ele>
        <time>2019-08-17T15:20:42Z</time>
      </trkpt>
      <trkpt lat="44.41906" lon="1.04601">
        <ele>235.676437</ele>
        <time>2019-08-17T15:20:43Z</time>
      </trkpt>
      <trkpt lat="44.419" lon="1.04601">
        <ele>235.322266</ele>
        <time>2019-08-17T15:20:44Z</time>
      </trkpt>
      <trkpt lat="44.41895" lon="1.04601">
        <ele>234.969727</ele>
        <time>2019-08-17T15:20:45Z</time>
      </trkpt>
      <trkpt lat="44.4189" lon="1.04601">
        <ele>234.608963</ele>
        <time>2019-08-17T15:20:46Z</time>
      </trkpt>
      <trkpt lat="44.41885" lon="1.04601">
        <ele>234.238022</ele>
        <time>2019-08-17T15:20:47Z</time>
      </trkpt>
      <trkpt lat="44.4188" lon="1.04601">
        <ele>233.859085</ele>
        <time>2019-08-17T15:20:48Z</time>
      </trkpt>
      <trkpt lat="44.41874" lon="1.04602">
        <ele>233.522202</ele>
        <time>2019-08-17T15:20:49Z</time>
      </trkpt>
      <trkpt lat="44.41868" lon="1.04603">
        <ele>233.17926</ele>
        <time>2019-08-17T15:20:50Z</time>
      </trkpt>
      <trkpt lat="44.41863" lon="1.04603">
        <ele>232.828415</ele>
        <time>2019-08-17T15:20:51Z</time>
      </trkpt>
      <trkpt lat="44.41857" lon="1.04604">
        <ele>232.476578</ele>
        <time>2019-08-17T15:20:52Z</time>
      </trkpt>
      <trkpt lat="44.41851" lon="1.04604">
        <ele>232.122437</ele>
        <time>2019-08-17T15:20:53Z</time>
      </trkpt>
      <trkpt lat="44.41845" lon="1.04605">
        <ele>231.763977</ele>
        <time>2019-08-17T15:20:54Z</time>
      </trkpt>
      <trkpt lat="44.4184" lon="1.04605">
        <ele>231.401062</ele>
        <time>2019-08-17T15:20:55Z</time>
      </trkpt>
      <trkpt lat="44.41834" lon="1.04605">
        <ele>231.032471</ele>
        <time>2019-08-17T15:20:56Z</time>
      </trkpt>
      <trkpt lat="44.41828" lon="1.04606">
        <ele>230.658493</ele>
        <time>2019-08-17T15:20:57Z</time>
      </trkpt>
      <trkpt lat="44.41822" lon="1.04607">
        <ele>230.280334</ele>
        <time>2019-08-17T15:20:58Z</time>
      </trkpt>
      <trkpt lat="44.41816" lon="1.04608">
        <ele>229.896057</ele>
        <time>2019-08-17T15:20:59Z</time>
      </trkpt>
      <trkpt lat="44.4181" lon="1.04609">
        <ele>229.502579</ele>
        <time>2019-08-17T15:21:00Z</time>
      </trkpt>
      <trkpt lat="44.41803" lon="1.0461">
        <ele>229.100967</ele>
        <time>2019-08-17T15:21:01Z</time>
      </trkpt>
      <trkpt lat="44.41796" lon="1.04611">
        <ele>228.6884</ele>
        <time>2019-08-17T15:21:02Z</time>
      </trkpt>
      <trkpt lat="44.41789" lon="1.04612">
        <ele>228.264404</ele>
        <time>2019-08-17T15:21:03Z</time>
      </trkpt>
      <trkpt lat="44.41782" lon="1.04613">
        <ele>227.825272</ele>
        <time>2019-08-17T15:21:04Z</time>
      </trkpt>
      <trkpt lat="44.41775" lon="1.04615">
        <ele>227.373535</ele>
        <time>2019-08-17T15:21:05Z</time>
      </trkpt>
      <trkpt lat="44.41767" lon="1.04617">
        <ele>226.911621</ele>
        <time>2019-08-17T15:21:06Z</time>
      </trkpt>
      <trkpt lat="44.4176" lon="1.04619">
        <ele>226.439941</ele>
        <time>2019-08-17T15:21:07Z</time>
      </trkpt>
      <trkpt lat="44.41753" lon="1.0462">
        <ele>225.957596</ele>
        <time>2019-08-17T15:21:08Z</time>
      </trkpt>
      <trkpt lat="44.41746" lon="1.04619">
        <ele>225.435989</ele>
        <time>2019-08-17T15:21:09Z</time>
      </trkpt>
      <trkpt lat="44.41739" lon="1.04619">
        <ele>224.867874</ele>
        <time>2019-08-17T15:21:10Z</time>
      </trkpt>
      <trkpt lat="44.41732" lon="1.04619">
        <ele>224.25322</ele>
        <time>2019-08-17T15:21:11Z</time>
      </trkpt>
      <trkpt lat="44.41724" lon="1.0462">
        <ele>223.599686</ele>
        <time>2019-08-17T15:21:12Z</time>
      </trkpt>
      <trkpt lat="44.41717" lon="1.04621">
        <ele>222.908386</ele>
        <time>2019-08-17T15:21:13Z</time>
      </trkpt>
      <trkpt lat="44.4171" lon="1.04623">
        <ele>222.177307</ele>
        <time>2019-08-17T15:21:14Z</time>
      </trkpt>
      <trkpt lat="44.41702" lon="1.04624">
        <ele>221.424606</ele>
        <time>2019-08-17T15:21:15Z</time>
      </trkpt>
      <trkpt lat="44.41695" lon="1.04625">
        <ele>220.662796</ele>
        <time>2019-08-17T15:21:16Z</time>
      </trkpt>
      <trkpt lat="44.41689" lon="1.04626">
        <ele>219.898972</ele>
        <time>2019-08-17T15:21:17Z</time>
      </trkpt>
      <trkpt lat="44.41682" lon="1.04627">
        <ele>219.126953</ele>
        <time>2019-08-17T15:21:18Z</time>
      </trkpt>
      <trkpt lat="44.41675" lon="1.04628">
        <ele>218.349121</ele>
        <time>2019-08-17T15:21:19Z</time>
      </trkpt>
      <trkpt lat="44.41668" lon="1.04629">
        <ele>218.349121</ele>
        <time>2019-08-17T15:21:20Z</time>
      </trkpt>
      <trkpt lat="44.4166" lon="1.0463">
        <ele>217.567825</ele>
        <time>2019-08-17T15:21:21Z</time>
      </trkpt>
      <trkpt lat="44.41653" lon="1.04631">
        <ele>216.794693</ele>
        <time>2019-08-17T15:21:22Z</time>
      </trkpt>
      <trkpt lat="44.41647" lon="1.04632">
        <ele>215.882751</ele>
        <time>2019-08-17T15:21:23Z</time>
      </trkpt>
      <trkpt lat="44.4164" lon="1.04633">
        <ele>214.9599</ele>
        <time>2019-08-17T15:21:24Z</time>
      </trkpt>
      <trkpt lat="44.41634" lon="1.04635">
        <ele>214.031998</ele>
        <time>2019-08-17T15:21:25Z</time>
      </trkpt>
      <trkpt lat="44.41628" lon="1.04636">
        <ele>213.101151</ele>
        <time>2019-08-17T15:21:26Z</time>
      </trkpt>
      <trkpt lat="44.41622" lon="1.04638">
        <ele>212.16423</ele>
        <time>2019-08-17T15:21:27Z</time>
      </trkpt>
      <trkpt lat="44.41616" lon="1.04639">
        <ele>211.236465</ele>
        <time>2019-08-17T15:21:28Z</time>
      </trkpt>
      <trkpt lat="44.41611" lon="1.0464">
        <ele>210.494461</ele>
        <time>2019-08-17T15:21:29Z</time>
      </trkpt>
      <trkpt lat="44.41606" lon="1.0464">
        <ele>209.809616</ele>
        <time>2019-08-17T15:21:30Z</time>
      </trkpt>
      <trkpt lat="44.41602" lon="1.04638">
        <ele>209.175964</ele>
        <time>2019-08-17T15:21:31Z</time>
      </trkpt>
      <trkpt lat="44.41601" lon="1.04633">
        <ele>208.599792</ele>
        <time>2019-08-17T15:21:32Z</time>
      </trkpt>
      <trkpt lat="44.41601" lon="1.04627">
        <ele>208.098434</ele>
        <time>2019-08-17T15:21:33Z</time>
      </trkpt>
      <trkpt lat="44.41603" lon="1.04621">
        <ele>208.098434</ele>
        <time>2019-08-17T15:21:34Z</time>
      </trkpt>
      <trkpt lat="44.41605" lon="1.04615">
        <ele>207.775497</ele>
        <time>2019-08-17T15:21:35Z</time>
      </trkpt>
      <trkpt lat="44.41608" lon="1.04609">
        <ele>207.603378</ele>
        <time>2019-08-17T15:21:36Z</time>
      </trkpt>
      <trkpt lat="44.41611" lon="1.04603">
        <ele>207.603378</ele>
        <time>2019-08-17T15:21:37Z</time>
      </trkpt>
      <trkpt lat="44.41614" lon="1.04597">
        <ele>207.603378</ele>
        <time>2019-08-17T15:21:38Z</time>
      </trkpt>
      <trkpt lat="44.41616" lon="1.0459">
        <ele>207.603378</ele>
        <time>2019-08-17T15:21:39Z</time>
      </trkpt>
      <trkpt lat="44.4162" lon="1.04584">
        <ele>207.656723</ele>
        <time>2019-08-17T15:21:40Z</time>
      </trkpt>
      <trkpt lat="44.41623" lon="1.04576">
        <ele>207.871658</ele>
        <time>2019-08-17T15:21:41Z</time>
      </trkpt>
      <trkpt lat="44.41627" lon="1.04568">
        <ele>208.242554</ele>
        <time>2019-08-17T15:21:42Z</time>
      </trkpt>
      <trkpt lat="44.4163" lon="1.0456">
        <ele>208.242554</ele>
        <time>2019-08-17T15:21:43Z</time>
      </trkpt>
      <trkpt lat="44.41634" lon="1.04552">
        <ele>208.76973</ele>
        <time>2019-08-17T15:21:44Z</time>
      </trkpt>
      <trkpt lat="44.41637" lon="1.04543">
        <ele>209.340652</ele>
        <time>2019-08-17T15:21:45Z</time>
      </trkpt>
      <trkpt lat="44.41641" lon="1.04533">
        <ele>210.074463</ele>
        <time>2019-08-17T15:21:46Z</time>
      </trkpt>
      <trkpt lat="44.41645" lon="1.04524">
        <ele>210.787109</ele>
        <time>2019-08-17T15:21:47Z</time>
      </trkpt>
      <trkpt lat="44.41649" lon="1.04515">
        <ele>211.539322</ele>
        <time>2019-08-17T15:21:48Z</time>
      </trkpt>
      <trkpt lat="44.41653" lon="1.04508">
        <ele>212.317184</ele>
        <time>2019-08-17T15:21:49Z</time>
      </trkpt>
      <trkpt lat="44.41657" lon="1.04501">
        <ele>213.103516</ele>
        <time>2019-08-17T15:21:50Z</time>
      </trkpt>
      <trkpt lat="44.4166" lon="1.04494">
        <ele>213.882446</ele>
        <time>2019-08-17T15:21:51Z</time>
      </trkpt>
      <trkpt lat="44.41663" lon="1.04488">
        <ele>214.523758</ele>
        <time>2019-08-17T15:21:52Z</time>
      </trkpt>
      <trkpt lat="44.41665" lon="1.04482">
        <ele>215.132553</ele>
        <time>2019-08-17T15:21:53Z</time>
      </trkpt>
      <trkpt lat="44.41668" lon="1.04476">
        <ele>215.700073</ele>
        <time>2019-08-17T15:21:54Z</time>
      </trkpt>
      <trkpt lat="44.4167" lon="1.04469">
        <ele>216.221664</ele>
        <time>2019-08-17T15:21:55Z</time>
      </trkpt>
      <trkpt lat="44.41673" lon="1.04463">
        <ele>216.698013</ele>
        <time>2019-08-17T15:21:56Z</time>
      </trkpt>
      <trkpt lat="44.41675" lon="1.04456">
        <ele>217.133011</ele>
        <time>2019-08-17T15:21:57Z</time>
      </trkpt>
      <trkpt lat="44.41677" lon="1.04449">
        <ele>217.532913</ele>
        <time>2019-08-17T15:21:58Z</time>
      </trkpt>
      <trkpt lat="44.41679" lon="1.04443">
        <ele>217.897324</ele>
        <time>2019-08-17T15:21:59Z</time>
      </trkpt>
      <trkpt lat="44.41681" lon="1.04437">
        <ele>218.232773</ele>
        <time>2019-08-17T15:22:00Z</time>
      </trkpt>
      <trkpt lat="44.41684" lon="1.04431">
        <ele>218.547714</ele>
        <time>2019-08-17T15:22:01Z</time>
      </trkpt>
      <trkpt lat="44.41686" lon="1.04425">
        <ele>218.840256</ele>
        <time>2019-08-17T15:22:02Z</time>
      </trkpt>
      <trkpt lat="44.41689" lon="1.0442">
        <ele>218.840256</ele>
        <time>2019-08-17T15:22:03Z</time>
      </trkpt>
      <trkpt lat="44.41692" lon="1.04415">
        <ele>219.112137</ele>
        <time>2019-08-17T15:22:04Z</time>
      </trkpt>
      <trkpt lat="44.41695" lon="1.04409">
        <ele>219.359375</ele>
        <time>2019-08-17T15:22:05Z</time>
      </trkpt>
      <trkpt lat="44.41698" lon="1.04404">
        <ele>219.601273</ele>
        <time>2019-08-17T15:22:06Z</time>
      </trkpt>
      <trkpt lat="44.41702" lon="1.04399">
        <ele>219.814987</ele>
        <time>2019-08-17T15:22:07Z</time>
      </trkpt>
      <trkpt lat="44.41705" lon="1.04394">
        <ele>220.004318</ele>
        <time>2019-08-17T15:22:08Z</time>
      </trkpt>
      <trkpt lat="44.41708" lon="1.04389">
        <ele>220.170776</ele>
        <time>2019-08-17T15:22:09Z</time>
      </trkpt>
      <trkpt lat="44.41712" lon="1.04385">
        <ele>220.315201</ele>
        <time>2019-08-17T15:22:10Z</time>
      </trkpt>
      <trkpt lat="44.41716" lon="1.0438">
        <ele>220.432663</ele>
        <time>2019-08-17T15:22:11Z</time>
      </trkpt>
      <trkpt lat="44.4172" lon="1.04376">
        <ele>220.495407</ele>
        <time>2019-08-17T15:22:12Z</time>
      </trkpt>
      <trkpt lat="44.41724" lon="1.04371">
        <ele>220.52803</ele>
        <time>2019-08-17T15:22:13Z</time>
      </trkpt>
      <trkpt lat="44.41727" lon="1.04366">
        <ele>220.528488</ele>
        <time>2019-08-17T15:22:14Z</time>
      </trkpt>
      <trkpt lat="44.4173" lon="1.04361">
        <ele>220.53479</ele>
        <time>2019-08-17T15:22:15Z</time>
      </trkpt>
      <trkpt lat="44.41733" lon="1.04356">
        <ele>220.548782</ele>
        <time>2019-08-17T15:22:16Z</time>
      </trkpt>
      <trkpt lat="44.41736" lon="1.04351">
        <ele>220.567261</ele>
        <time>2019-08-17T15:22:17Z</time>
      </trkpt>
      <trkpt lat="44.4174" lon="1.04345">
        <ele>220.574753</ele>
        <time>2019-08-17T15:22:18Z</time>
      </trkpt>
      <trkpt lat="44.41742" lon="1.04339">
        <ele>220.57666</ele>
        <time>2019-08-17T15:22:19Z</time>
      </trkpt>
      <trkpt lat="44.41745" lon="1.04333">
        <ele>220.59819</ele>
        <time>2019-08-17T15:22:20Z</time>
      </trkpt>
      <trkpt lat="44.41747" lon="1.04328">
        <ele>220.645325</ele>
        <time>2019-08-17T15:22:21Z</time>
      </trkpt>
      <trkpt lat="44.41747" lon="1.04323">
        <ele>220.726944</ele>
        <time>2019-08-17T15:22:22Z</time>
      </trkpt>
      <trkpt lat="44.41746" lon="1.04318">
        <ele>220.846573</ele>
        <time>2019-08-17T15:22:23Z</time>
      </trkpt>
      <trkpt lat="44.41745" lon="1.04312">
        <ele>220.98494</ele>
        <time>2019-08-17T15:22:24Z</time>
      </trkpt>
      <trkpt lat="44.41746" lon="1.04307">
        <ele>221.136963</ele>
        <time>2019-08-17T15:22:25Z</time>
      </trkpt>
      <trkpt lat="44.41747" lon="1.04303">
        <ele>221.307678</ele>
        <time>2019-08-17T15:22:26Z</time>
      </trkpt>
      <trkpt lat="44.41749" lon="1.04299">
        <ele>221.494202</ele>
        <time>2019-08-17T15:22:27Z</time>
      </trkpt>
      <trkpt lat="44.41751" lon="1.04296">
        <ele>221.683304</ele>
        <time>2019-08-17T15:22:28Z</time>
      </trkpt>
      <trkpt lat="44.41753" lon="1.04291">
        <ele>221.867905</ele>
        <time>2019-08-17T15:22:29Z</time>
      </trkpt>
      <trkpt lat="44.41755" lon="1.04287">
        <ele>221.867905</ele>
        <time>2019-08-17T15:22:30Z</time>
      </trkpt>
      <trkpt lat="44.41757" lon="1.04282">
        <ele>222.046875</ele>
        <time>2019-08-17T15:22:31Z</time>
      </trkpt>
      <trkpt lat="44.41759" lon="1.04277">
        <ele>222.221512</ele>
        <time>2019-08-17T15:22:32Z</time>
      </trkpt>
      <trkpt lat="44.4176" lon="1.04272">
        <ele>222.42598</ele>
        <time>2019-08-17T15:22:33Z</time>
      </trkpt>
      <trkpt lat="44.41761" lon="1.04267">
        <ele>222.630844</ele>
        <time>2019-08-17T15:22:34Z</time>
      </trkpt>
      <trkpt lat="44.41761" lon="1.04262">
        <ele>222.849548</ele>
        <time>2019-08-17T15:22:35Z</time>
      </trkpt>
      <trkpt lat="44.41761" lon="1.04258">
        <ele>223.088028</ele>
        <time>2019-08-17T15:22:36Z</time>
      </trkpt>
      <trkpt lat="44.41759" lon="1.04255">
        <ele>223.349899</ele>
        <time>2019-08-17T15:22:37Z</time>
      </trkpt>
      <trkpt lat="44.41756" lon="1.04252">
        <ele>223.625427</ele>
        <time>2019-08-17T15:22:38Z</time>
      </trkpt>
      <trkpt lat="44.41754" lon="1.0425">
        <ele>223.625427</ele>
        <time>2019-08-17T15:22:39Z</time>
      </trkpt>
      <trkpt lat="44.41752" lon="1.04248">
        <ele>223.86969</ele>
        <time>2019-08-17T15:22:40Z</time>
      </trkpt>
      <trkpt lat="44.41749" lon="1.04246">
        <ele>224.105606</ele>
        <time>2019-08-17T15:22:41Z</time>
      </trkpt>
      <trkpt lat="44.41747" lon="1.04243">
        <ele>224.335861</ele>
        <time>2019-08-17T15:22:42Z</time>
      </trkpt>
      <trkpt lat="44.41744" lon="1.0424">
        <ele>224.537552</ele>
        <time>2019-08-17T15:22:43Z</time>
      </trkpt>
      <trkpt lat="44.41741" lon="1.04238">
        <ele>224.709</ele>
        <time>2019-08-17T15:22:44Z</time>
      </trkpt>
      <trkpt lat="44.41739" lon="1.04235">
        <ele>224.857285</ele>
        <time>2019-08-17T15:22:45Z</time>
      </trkpt>
      <trkpt lat="44.41738" lon="1.04232">
        <ele>224.984512</ele>
        <time>2019-08-17T15:22:46Z</time>
      </trkpt>
      <trkpt lat="44.41738" lon="1.04228">
        <ele>225.096451</ele>
        <time>2019-08-17T15:22:47Z</time>
      </trkpt>
      <trkpt lat="44.41738" lon="1.04224">
        <ele>225.18541</ele>
        <time>2019-08-17T15:22:48Z</time>
      </trkpt>
      <trkpt lat="44.4174" lon="1.0422">
        <ele>225.277542</ele>
        <time>2019-08-17T15:22:49Z</time>
      </trkpt>
      <trkpt lat="44.41742" lon="1.04216">
        <ele>225.375046</ele>
        <time>2019-08-17T15:22:50Z</time>
      </trkpt>
      <trkpt lat="44.41744" lon="1.04211">
        <ele>225.477432</ele>
        <time>2019-08-17T15:22:51Z</time>
      </trkpt>
      <trkpt lat="44.41746" lon="1.04207">
        <ele>225.477432</ele>
        <time>2019-08-17T15:22:52Z</time>
      </trkpt>
      <trkpt lat="44.41748" lon="1.04203">
        <ele>225.591629</ele>
        <time>2019-08-17T15:22:53Z</time>
      </trkpt>
      <trkpt lat="44.41751" lon="1.04199">
        <ele>225.720139</ele>
        <time>2019-08-17T15:22:54Z</time>
      </trkpt>
      <trkpt lat="44.41754" lon="1.04195">
        <ele>225.894775</ele>
        <time>2019-08-17T15:22:55Z</time>
      </trkpt>
      <trkpt lat="44.41757" lon="1.04191">
        <ele>226.083755</ele>
        <time>2019-08-17T15:22:56Z</time>
      </trkpt>
      <trkpt lat="44.4176" lon="1.04188">
        <ele>226.28743</ele>
        <time>2019-08-17T15:22:57Z</time>
      </trkpt>
      <trkpt lat="44.41763" lon="1.04184">
        <ele>226.506851</ele>
        <time>2019-08-17T15:22:58Z</time>
      </trkpt>
      <trkpt lat="44.41765" lon="1.04179">
        <ele>226.73877</ele>
        <time>2019-08-17T15:22:59Z</time>
      </trkpt>
      <trkpt lat="44.41768" lon="1.04175">
        <ele>226.981827</ele>
        <time>2019-08-17T15:23:00Z</time>
      </trkpt>
      <trkpt lat="44.41771" lon="1.04171">
        <ele>227.206192</ele>
        <time>2019-08-17T15:23:01Z</time>
      </trkpt>
      <trkpt lat="44.41774" lon="1.04168">
        <ele>227.443405</ele>
        <time>2019-08-17T15:23:02Z</time>
      </trkpt>
      <trkpt lat="44.41777" lon="1.04164">
        <ele>227.694336</ele>
        <time>2019-08-17T15:23:03Z</time>
      </trkpt>
      <trkpt lat="44.41779" lon="1.0416">
        <ele>227.954727</ele>
        <time>2019-08-17T15:23:04Z</time>
      </trkpt>
      <trkpt lat="44.41781" lon="1.04157">
        <ele>228.221924</ele>
        <time>2019-08-17T15:23:05Z</time>
      </trkpt>
      <trkpt lat="44.41783" lon="1.04154">
        <ele>228.496887</ele>
        <time>2019-08-17T15:23:06Z</time>
      </trkpt>
      <trkpt lat="44.41784" lon="1.04152">
        <ele>228.773575</ele>
        <time>2019-08-17T15:23:07Z</time>
      </trkpt>
      <trkpt lat="44.41786" lon="1.04149">
        <ele>229.04039</ele>
        <time>2019-08-17T15:23:08Z</time>
      </trkpt>
      <trkpt lat="44.41787" lon="1.04146">
        <ele>229.289734</ele>
        <time>2019-08-17T15:23:09Z</time>
      </trkpt>
      <trkpt lat="44.41788" lon="1.04144">
        <ele>229.521973</ele>
        <time>2019-08-17T15:23:10Z</time>
      </trkpt>
      <trkpt lat="44.4179" lon="1.04143">
        <ele>229.736984</ele>
        <time>2019-08-17T15:23:11Z</time>
      </trkpt>
      <trkpt lat="44.4179" lon="1.04142">
        <ele>229.931656</ele>
        <time>2019-08-17T15:23:12Z</time>
      </trkpt>
      <trkpt lat="44.41784" lon="1.04153">
        <ele>230.410873</ele>
        <time>2019-08-17T15:23:24Z</time>
      </trkpt>
      <trkpt lat="44.41783" lon="1.04155">
        <ele>230.329178</ele>
        <time>2019-08-17T15:23:26Z</time>
      </trkpt>
      <trkpt lat="44.41782" lon="1.04156">
        <ele>230.247055</ele>
        <time>2019-08-17T15:23:27Z</time>
      </trkpt>
      <trkpt lat="44.41781" lon="1.04157">
        <ele>230.163193</ele>
        <time>2019-08-17T15:23:28Z</time>
      </trkpt>
      <trkpt lat="44.4178" lon="1.04159">
        <ele>230.163193</ele>
        <time>2019-08-17T15:23:29Z</time>
      </trkpt>
      <trkpt lat="44.4178" lon="1.04161">
        <ele>230.0746</ele>
        <time>2019-08-17T15:23:30Z</time>
      </trkpt>
      <trkpt lat="44.41779" lon="1.04163">
        <ele>229.984482</ele>
        <time>2019-08-17T15:23:31Z</time>
      </trkpt>
      <trkpt lat="44.41777" lon="1.04165">
        <ele>229.876236</ele>
        <time>2019-08-17T15:23:32Z</time>
      </trkpt>
      <trkpt lat="44.41776" lon="1.04167">
        <ele>229.876236</ele>
        <time>2019-08-17T15:23:33Z</time>
      </trkpt>
      <trkpt lat="44.41774" lon="1.04169">
        <ele>229.763687</ele>
        <time>2019-08-17T15:23:34Z</time>
      </trkpt>
      <trkpt lat="44.41773" lon="1.0417">
        <ele>229.644897</ele>
        <time>2019-08-17T15:23:35Z</time>
      </trkpt>
      <trkpt lat="44.41771" lon="1.04172">
        <ele>229.49147</ele>
        <time>2019-08-17T15:23:36Z</time>
      </trkpt>
      <trkpt lat="44.4177" lon="1.04173">
        <ele>229.327194</ele>
        <time>2019-08-17T15:23:37Z</time>
      </trkpt>
      <trkpt lat="44.41769" lon="1.04176">
        <ele>229.155197</ele>
        <time>2019-08-17T15:23:38Z</time>
      </trkpt>
      <trkpt lat="44.41767" lon="1.04177">
        <ele>228.997391</ele>
        <time>2019-08-17T15:23:39Z</time>
      </trkpt>
      <trkpt lat="44.41766" lon="1.04179">
        <ele>228.839645</ele>
        <time>2019-08-17T15:23:40Z</time>
      </trkpt>
      <trkpt lat="44.41765" lon="1.04181">
        <ele>228.677734</ele>
        <time>2019-08-17T15:23:41Z</time>
      </trkpt>
      <trkpt lat="44.41764" lon="1.04183">
        <ele>228.547668</ele>
        <time>2019-08-17T15:23:42Z</time>
      </trkpt>
      <trkpt lat="44.41763" lon="1.04185">
        <ele>228.424622</ele>
        <time>2019-08-17T15:23:43Z</time>
      </trkpt>
      <trkpt lat="44.41761" lon="1.04186">
        <ele>228.30336</ele>
        <time>2019-08-17T15:23:44Z</time>
      </trkpt>
      <trkpt lat="44.4176" lon="1.04188">
        <ele>228.181274</ele>
        <time>2019-08-17T15:23:45Z</time>
      </trkpt>
      <trkpt lat="44.41759" lon="1.0419">
        <ele>228.057907</ele>
        <time>2019-08-17T15:23:46Z</time>
      </trkpt>
      <trkpt lat="44.41758" lon="1.04191">
        <ele>227.938278</ele>
        <time>2019-08-17T15:23:47Z</time>
      </trkpt>
      <trkpt lat="44.41765" lon="1.0418">
        <ele>227.5186</ele>
        <time>2019-08-17T15:24:01Z</time>
      </trkpt>
      <trkpt lat="44.41768" lon="1.04177">
        <ele>227.558945</ele>
        <time>2019-08-17T15:24:03Z</time>
      </trkpt>
      <trkpt lat="44.4177" lon="1.04174">
        <ele>227.558945</ele>
        <time>2019-08-17T15:24:04Z</time>
      </trkpt>
      <trkpt lat="44.41773" lon="1.0417">
        <ele>227.624527</ele>
        <time>2019-08-17T15:24:05Z</time>
      </trkpt>
      <trkpt lat="44.41775" lon="1.04166">
        <ele>227.714462</ele>
        <time>2019-08-17T15:24:06Z</time>
      </trkpt>
      <trkpt lat="44.41778" lon="1.04162">
        <ele>227.870483</ele>
        <time>2019-08-17T15:24:07Z</time>
      </trkpt>
      <trkpt lat="44.41781" lon="1.04159">
        <ele>228.064133</ele>
        <time>2019-08-17T15:24:08Z</time>
      </trkpt>
      <trkpt lat="44.41784" lon="1.04155">
        <ele>228.303909</ele>
        <time>2019-08-17T15:24:09Z</time>
      </trkpt>
      <trkpt lat="44.41787" lon="1.04151">
        <ele>228.578064</ele>
        <time>2019-08-17T15:24:10Z</time>
      </trkpt>
      <trkpt lat="44.4179" lon="1.04147">
        <ele>228.867416</ele>
        <time>2019-08-17T15:24:11Z</time>
      </trkpt>
      <trkpt lat="44.41793" lon="1.04143">
        <ele>229.170166</ele>
        <time>2019-08-17T15:24:12Z</time>
      </trkpt>
      <trkpt lat="44.41796" lon="1.04138">
        <ele>229.447189</ele>
        <time>2019-08-17T15:24:13Z</time>
      </trkpt>
      <trkpt lat="44.41798" lon="1.04134">
        <ele>229.725647</ele>
        <time>2019-08-17T15:24:14Z</time>
      </trkpt>
      <trkpt lat="44.41801" lon="1.04129">
        <ele>230.005447</ele>
        <time>2019-08-17T15:24:15Z</time>
      </trkpt>
      <trkpt lat="44.41804" lon="1.04124">
        <ele>230.005447</ele>
        <time>2019-08-17T15:24:16Z</time>
      </trkpt>
      <trkpt lat="44.41806" lon="1.04119">
        <ele>230.288223</ele>
        <time>2019-08-17T15:24:17Z</time>
      </trkpt>
      <trkpt lat="44.4181" lon="1.04114">
        <ele>230.573975</ele>
        <time>2019-08-17T15:24:18Z</time>
      </trkpt>
      <trkpt lat="44.41812" lon="1.0411">
        <ele>230.907852</ele>
        <time>2019-08-17T15:24:19Z</time>
      </trkpt>
      <trkpt lat="44.41815" lon="1.04105">
        <ele>231.237671</ele>
        <time>2019-08-17T15:24:20Z</time>
      </trkpt>
      <trkpt lat="44.41818" lon="1.041">
        <ele>231.566391</ele>
        <time>2019-08-17T15:24:21Z</time>
      </trkpt>
      <trkpt lat="44.41821" lon="1.04095">
        <ele>231.889755</ele>
        <time>2019-08-17T15:24:22Z</time>
      </trkpt>
      <trkpt lat="44.41823" lon="1.0409">
        <ele>232.208191</ele>
        <time>2019-08-17T15:24:23Z</time>
      </trkpt>
      <trkpt lat="44.41826" lon="1.04086">
        <ele>232.522415</ele>
        <time>2019-08-17T15:24:24Z</time>
      </trkpt>
      <trkpt lat="44.41829" lon="1.04081">
        <ele>232.780457</ele>
        <time>2019-08-17T15:24:25Z</time>
      </trkpt>
      <trkpt lat="44.41831" lon="1.04077">
        <ele>233.005417</ele>
        <time>2019-08-17T15:24:26Z</time>
      </trkpt>
      <trkpt lat="44.41833" lon="1.04072">
        <ele>233.197128</ele>
        <time>2019-08-17T15:24:27Z</time>
      </trkpt>
      <trkpt lat="44.41836" lon="1.04067">
        <ele>233.358932</ele>
        <time>2019-08-17T15:24:28Z</time>
      </trkpt>
      <trkpt lat="44.41839" lon="1.04063">
        <ele>233.48909</ele>
        <time>2019-08-17T15:24:29Z</time>
      </trkpt>
      <trkpt lat="44.4184" lon="1.04058">
        <ele>233.589035</ele>
        <time>2019-08-17T15:24:30Z</time>
      </trkpt>
      <trkpt lat="44.41843" lon="1.04053">
        <ele>233.662766</ele>
        <time>2019-08-17T15:24:31Z</time>
      </trkpt>
      <trkpt lat="44.41845" lon="1.04048">
        <ele>233.735519</ele>
        <time>2019-08-17T15:24:32Z</time>
      </trkpt>
      <trkpt lat="44.41848" lon="1.04044">
        <ele>233.806808</ele>
        <time>2019-08-17T15:24:33Z</time>
      </trkpt>
      <trkpt lat="44.41851" lon="1.04039">
        <ele>233.873367</ele>
        <time>2019-08-17T15:24:34Z</time>
      </trkpt>
      <trkpt lat="44.41853" lon="1.04035">
        <ele>233.933838</ele>
        <time>2019-08-17T15:24:35Z</time>
      </trkpt>
      <trkpt lat="44.41856" lon="1.0403">
        <ele>233.988358</ele>
        <time>2019-08-17T15:24:36Z</time>
      </trkpt>
      <trkpt lat="44.41859" lon="1.04026">
        <ele>234.037521</ele>
        <time>2019-08-17T15:24:37Z</time>
      </trkpt>
      <trkpt lat="44.41861" lon="1.04021">
        <ele>234.037521</ele>
        <time>2019-08-17T15:24:38Z</time>
      </trkpt>
      <trkpt lat="44.41864" lon="1.04017">
        <ele>234.081131</ele>
        <time>2019-08-17T15:24:39Z</time>
      </trkpt>
      <trkpt lat="44.41867" lon="1.04013">
        <ele>234.119797</ele>
        <time>2019-08-17T15:24:40Z</time>
      </trkpt>
      <trkpt lat="44.41869" lon="1.04009">
        <ele>234.154953</ele>
        <time>2019-08-17T15:24:41Z</time>
      </trkpt>
      <trkpt lat="44.41872" lon="1.04005">
        <ele>234.184525</ele>
        <time>2019-08-17T15:24:42Z</time>
      </trkpt>
      <trkpt lat="44.41875" lon="1.04001">
        <ele>234.209229</ele>
        <time>2019-08-17T15:24:43Z</time>
      </trkpt>
      <trkpt lat="44.41877" lon="1.03998">
        <ele>234.209229</ele>
        <time>2019-08-17T15:24:44Z</time>
      </trkpt>
      <trkpt lat="44.4188" lon="1.03994">
        <ele>234.230515</ele>
        <time>2019-08-17T15:24:45Z</time>
      </trkpt>
      <trkpt lat="44.41882" lon="1.03991">
        <ele>234.247986</ele>
        <time>2019-08-17T15:24:46Z</time>
      </trkpt>
      <trkpt lat="44.41885" lon="1.03987">
        <ele>234.266724</ele>
        <time>2019-08-17T15:24:47Z</time>
      </trkpt>
      <trkpt lat="44.41887" lon="1.03984">
        <ele>234.286865</ele>
        <time>2019-08-17T15:24:48Z</time>
      </trkpt>
      <trkpt lat="44.4189" lon="1.03981">
        <ele>234.311523</ele>
        <time>2019-08-17T15:24:49Z</time>
      </trkpt>
      <trkpt lat="44.41893" lon="1.03978">
        <ele>234.340439</ele>
        <time>2019-08-17T15:24:50Z</time>
      </trkpt>
      <trkpt lat="44.41895" lon="1.03974">
        <ele>234.373718</ele>
        <time>2019-08-17T15:24:51Z</time>
      </trkpt>
      <trkpt lat="44.41898" lon="1.03971">
        <ele>234.413223</ele>
        <time>2019-08-17T15:24:52Z</time>
      </trkpt>
      <trkpt lat="44.41901" lon="1.03967">
        <ele>234.454819</ele>
        <time>2019-08-17T15:24:53Z</time>
      </trkpt>
      <trkpt lat="44.41903" lon="1.03964">
        <ele>234.498947</ele>
        <time>2019-08-17T15:24:54Z</time>
      </trkpt>
      <trkpt lat="44.41906" lon="1.0396">
        <ele>234.548111</ele>
        <time>2019-08-17T15:24:55Z</time>
      </trkpt>
      <trkpt lat="44.41909" lon="1.03956">
        <ele>234.601501</ele>
        <time>2019-08-17T15:24:56Z</time>
      </trkpt>
      <trkpt lat="44.41911" lon="1.03953">
        <ele>234.660034</ele>
        <time>2019-08-17T15:24:57Z</time>
      </trkpt>
      <trkpt lat="44.41914" lon="1.03949">
        <ele>234.722244</ele>
        <time>2019-08-17T15:24:58Z</time>
      </trkpt>
      <trkpt lat="44.41917" lon="1.03945">
        <ele>234.78743</ele>
        <time>2019-08-17T15:24:59Z</time>
      </trkpt>
      <trkpt lat="44.41921" lon="1.03941">
        <ele>234.850418</ele>
        <time>2019-08-17T15:25:00Z</time>
      </trkpt>
      <trkpt lat="44.41924" lon="1.03937">
        <ele>234.950974</ele>
        <time>2019-08-17T15:25:01Z</time>
      </trkpt>
      <trkpt lat="44.41927" lon="1.03933">
        <ele>234.950974</ele>
        <time>2019-08-17T15:25:02Z</time>
      </trkpt>
      <trkpt lat="44.4193" lon="1.03928">
        <ele>234.988281</ele>
        <time>2019-08-17T15:25:03Z</time>
      </trkpt>
      <trkpt lat="44.41933" lon="1.03924">
        <ele>235.012939</ele>
        <time>2019-08-17T15:25:04Z</time>
      </trkpt>
      <trkpt lat="44.41937" lon="1.03919">
        <ele>235.012939</ele>
        <time>2019-08-17T15:25:05Z</time>
      </trkpt>
      <trkpt lat="44.4194" lon="1.03915">
        <ele>235.033707</ele>
        <time>2019-08-17T15:25:06Z</time>
      </trkpt>
      <trkpt lat="44.41944" lon="1.03911">
        <ele>235.054749</ele>
        <time>2019-08-17T15:25:07Z</time>
      </trkpt>
      <trkpt lat="44.41948" lon="1.03906">
        <ele>235.090088</ele>
        <time>2019-08-17T15:25:08Z</time>
      </trkpt>
      <trkpt lat="44.41951" lon="1.03902">
        <ele>235.133118</ele>
        <time>2019-08-17T15:25:09Z</time>
      </trkpt>
      <trkpt lat="44.41954" lon="1.03897">
        <ele>235.133118</ele>
        <time>2019-08-17T15:25:10Z</time>
      </trkpt>
      <trkpt lat="44.41957" lon="1.03892">
        <ele>235.18396</ele>
        <time>2019-08-17T15:25:11Z</time>
      </trkpt>
      <trkpt lat="44.41961" lon="1.03887">
        <ele>235.246719</ele>
        <time>2019-08-17T15:25:12Z</time>
      </trkpt>
      <trkpt lat="44.41964" lon="1.03882">
        <ele>235.326797</ele>
        <time>2019-08-17T15:25:13Z</time>
      </trkpt>
      <trkpt lat="44.41967" lon="1.03877">
        <ele>235.416306</ele>
        <time>2019-08-17T15:25:14Z</time>
      </trkpt>
      <trkpt lat="44.4197" lon="1.03872">
        <ele>235.501144</ele>
        <time>2019-08-17T15:25:15Z</time>
      </trkpt>
      <trkpt lat="44.41973" lon="1.03867">
        <ele>235.582077</ele>
        <time>2019-08-17T15:25:16Z</time>
      </trkpt>
      <trkpt lat="44.41976" lon="1.03863">
        <ele>235.658646</ele>
        <time>2019-08-17T15:25:17Z</time>
      </trkpt>
      <trkpt lat="44.41979" lon="1.03859">
        <ele>235.658646</ele>
        <time>2019-08-17T15:25:18Z</time>
      </trkpt>
      <trkpt lat="44.41982" lon="1.03854">
        <ele>235.73085</ele>
        <time>2019-08-17T15:25:19Z</time>
      </trkpt>
      <trkpt lat="44.41985" lon="1.0385">
        <ele>235.785217</ele>
        <time>2019-08-17T15:25:20Z</time>
      </trkpt>
      <trkpt lat="44.41987" lon="1.03847">
        <ele>235.843613</ele>
        <time>2019-08-17T15:25:21Z</time>
      </trkpt>
      <trkpt lat="44.41989" lon="1.03844">
        <ele>235.901108</ele>
        <time>2019-08-17T15:25:22Z</time>
      </trkpt>
      <trkpt lat="44.4199" lon="1.0384">
        <ele>235.963486</ele>
        <time>2019-08-17T15:25:23Z</time>
      </trkpt>
      <trkpt lat="44.41989" lon="1.03837">
        <ele>236.030533</ele>
        <time>2019-08-17T15:25:24Z</time>
      </trkpt>
      <trkpt lat="44.41988" lon="1.03835">
        <ele>236.030533</ele>
        <time>2019-08-17T15:25:25Z</time>
      </trkpt>
      <trkpt lat="44.41985" lon="1.03835">
        <ele>236.095749</ele>
        <time>2019-08-17T15:25:26Z</time>
      </trkpt>
      <trkpt lat="44.41981" lon="1.03835">
        <ele>236.139832</ele>
        <time>2019-08-17T15:25:27Z</time>
      </trkpt>
      <trkpt lat="44.41977" lon="1.03837">
        <ele>236.148315</ele>
        <time>2019-08-17T15:25:28Z</time>
      </trkpt>
      <trkpt lat="44.41973" lon="1.03839">
        <ele>236.148315</ele>
        <time>2019-08-17T15:25:29Z</time>
      </trkpt>
      <trkpt lat="44.41969" lon="1.03839">
        <ele>236.148315</ele>
        <time>2019-08-17T15:25:30Z</time>
      </trkpt>
      <trkpt lat="44.41965" lon="1.03839">
        <ele>236.129639</ele>
        <time>2019-08-17T15:25:31Z</time>
      </trkpt>
      <trkpt lat="44.41962" lon="1.03837">
        <ele>236.082047</ele>
        <time>2019-08-17T15:25:32Z</time>
      </trkpt>
      <trkpt lat="44.41959" lon="1.03835">
        <ele>236.006714</ele>
        <time>2019-08-17T15:25:33Z</time>
      </trkpt>
      <trkpt lat="44.41956" lon="1.03833">
        <ele>235.909897</ele>
        <time>2019-08-17T15:25:34Z</time>
      </trkpt>
      <trkpt lat="44.41953" lon="1.0383">
        <ele>235.811646</ele>
        <time>2019-08-17T15:25:35Z</time>
      </trkpt>
      <trkpt lat="44.4195" lon="1.03827">
        <ele>235.714478</ele>
        <time>2019-08-17T15:25:36Z</time>
      </trkpt>
      <trkpt lat="44.41947" lon="1.03823">
        <ele>235.714478</ele>
        <time>2019-08-17T15:25:37Z</time>
      </trkpt>
      <trkpt lat="44.41944" lon="1.03819">
        <ele>235.619812</ele>
        <time>2019-08-17T15:25:38Z</time>
      </trkpt>
      <trkpt lat="44.4194" lon="1.03814">
        <ele>235.528931</ele>
        <time>2019-08-17T15:25:39Z</time>
      </trkpt>
      <trkpt lat="44.41936" lon="1.0381">
        <ele>235.421082</ele>
        <time>2019-08-17T15:25:40Z</time>
      </trkpt>
      <trkpt lat="44.41931" lon="1.03805">
        <ele>235.29686</ele>
        <time>2019-08-17T15:25:41Z</time>
      </trkpt>
      <trkpt lat="44.41927" lon="1.03801">
        <ele>235.139297</ele>
        <time>2019-08-17T15:25:42Z</time>
      </trkpt>
      <trkpt lat="44.41922" lon="1.03796">
        <ele>234.944702</ele>
        <time>2019-08-17T15:25:43Z</time>
      </trkpt>
      <trkpt lat="44.41918" lon="1.03791">
        <ele>234.711716</ele>
        <time>2019-08-17T15:25:44Z</time>
      </trkpt>
      <trkpt lat="44.41914" lon="1.03786">
        <ele>234.439865</ele>
        <time>2019-08-17T15:25:45Z</time>
      </trkpt>
      <trkpt lat="44.41909" lon="1.03781">
        <ele>234.145798</ele>
        <time>2019-08-17T15:25:46Z</time>
      </trkpt>
      <trkpt lat="44.41904" lon="1.03777">
        <ele>233.8228</ele>
        <time>2019-08-17T15:25:47Z</time>
      </trkpt>
      <trkpt lat="44.419" lon="1.03774">
        <ele>233.484909</ele>
        <time>2019-08-17T15:25:48Z</time>
      </trkpt>
      <trkpt lat="44.41895" lon="1.0377">
        <ele>233.133133</ele>
        <time>2019-08-17T15:25:49Z</time>
      </trkpt>
      <trkpt lat="44.41891" lon="1.03766">
        <ele>232.761032</ele>
        <time>2019-08-17T15:25:50Z</time>
      </trkpt>
      <trkpt lat="44.41888" lon="1.0376">
        <ele>232.761032</ele>
        <time>2019-08-17T15:25:51Z</time>
      </trkpt>
      <trkpt lat="44.41885" lon="1.03753">
        <ele>232.373154</ele>
        <time>2019-08-17T15:25:52Z</time>
      </trkpt>
      <trkpt lat="44.41883" lon="1.03745">
        <ele>231.97229</ele>
        <time>2019-08-17T15:25:53Z</time>
      </trkpt>
      <trkpt lat="44.4188" lon="1.03736">
        <ele>231.486389</ele>
        <time>2019-08-17T15:25:54Z</time>
      </trkpt>
      <trkpt lat="44.41877" lon="1.03727">
        <ele>230.986328</ele>
        <time>2019-08-17T15:25:55Z</time>
      </trkpt>
      <trkpt lat="44.41875" lon="1.0372">
        <ele>230.476974</ele>
        <time>2019-08-17T15:25:56Z</time>
      </trkpt>
      <trkpt lat="44.41872" lon="1.03715">
        <ele>229.960373</ele>
        <time>2019-08-17T15:25:57Z</time>
      </trkpt>
      <trkpt lat="44.41867" lon="1.0371">
        <ele>229.433228</ele>
        <time>2019-08-17T15:25:58Z</time>
      </trkpt>
      <trkpt lat="44.41862" lon="1.03707">
        <ele>229.433228</ele>
        <time>2019-08-17T15:25:59Z</time>
      </trkpt>
      <trkpt lat="44.41857" lon="1.03704">
        <ele>228.908157</ele>
        <time>2019-08-17T15:26:00Z</time>
      </trkpt>
      <trkpt lat="44.41851" lon="1.03701">
        <ele>228.470779</ele>
        <time>2019-08-17T15:26:01Z</time>
      </trkpt>
      <trkpt lat="44.41846" lon="1.03696">
        <ele>227.990799</ele>
        <time>2019-08-17T15:26:02Z</time>
      </trkpt>
      <trkpt lat="44.4184" lon="1.03692">
        <ele>227.525314</ele>
        <time>2019-08-17T15:26:03Z</time>
      </trkpt>
      <trkpt lat="44.41835" lon="1.03688">
        <ele>227.076355</ele>
        <time>2019-08-17T15:26:04Z</time>
      </trkpt>
      <trkpt lat="44.41831" lon="1.03682">
        <ele>226.644516</ele>
        <time>2019-08-17T15:26:05Z</time>
      </trkpt>
      <trkpt lat="44.41827" lon="1.03676">
        <ele>226.214355</ele>
        <time>2019-08-17T15:26:06Z</time>
      </trkpt>
      <trkpt lat="44.41824" lon="1.0367">
        <ele>225.759506</ele>
        <time>2019-08-17T15:26:07Z</time>
      </trkpt>
      <trkpt lat="44.4182" lon="1.03665">
        <ele>225.337875</ele>
        <time>2019-08-17T15:26:08Z</time>
      </trkpt>
      <trkpt lat="44.41816" lon="1.0366">
        <ele>224.886536</ele>
        <time>2019-08-17T15:26:09Z</time>
      </trkpt>
      <trkpt lat="44.41813" lon="1.03653">
        <ele>224.417038</ele>
        <time>2019-08-17T15:26:10Z</time>
      </trkpt>
      <trkpt lat="44.41811" lon="1.03646">
        <ele>223.928024</ele>
        <time>2019-08-17T15:26:11Z</time>
      </trkpt>
      <trkpt lat="44.4181" lon="1.03637">
        <ele>223.419357</ele>
        <time>2019-08-17T15:26:12Z</time>
      </trkpt>
      <trkpt lat="44.41808" lon="1.03629">
        <ele>222.911789</ele>
        <time>2019-08-17T15:26:13Z</time>
      </trkpt>
      <trkpt lat="44.41805" lon="1.0362">
        <ele>222.409103</ele>
        <time>2019-08-17T15:26:14Z</time>
      </trkpt>
      <trkpt lat="44.41803" lon="1.03613">
        <ele>221.91658</ele>
        <time>2019-08-17T15:26:15Z</time>
      </trkpt>
      <trkpt lat="44.41801" lon="1.03606">
        <ele>221.91658</ele>
        <time>2019-08-17T15:26:16Z</time>
      </trkpt>
      <trkpt lat="44.41799" lon="1.03601">
        <ele>221.418213</ele>
        <time>2019-08-17T15:26:17Z</time>
      </trkpt>
      <trkpt lat="44.41796" lon="1.03596">
        <ele>220.912521</ele>
        <time>2019-08-17T15:26:18Z</time>
      </trkpt>
      <trkpt lat="44.41792" lon="1.03592">
        <ele>220.359375</ele>
        <time>2019-08-17T15:26:19Z</time>
      </trkpt>
      <trkpt lat="44.41788" lon="1.03586">
        <ele>219.831131</ele>
        <time>2019-08-17T15:26:20Z</time>
      </trkpt>
      <trkpt lat="44.41785" lon="1.0358">
        <ele>219.324783</ele>
        <time>2019-08-17T15:26:21Z</time>
      </trkpt>
      <trkpt lat="44.41781" lon="1.03575">
        <ele>218.827148</ele>
        <time>2019-08-17T15:26:22Z</time>
      </trkpt>
      <trkpt lat="44.41777" lon="1.03571">
        <ele>218.349533</ele>
        <time>2019-08-17T15:26:23Z</time>
      </trkpt>
      <trkpt lat="44.41771" lon="1.03569">
        <ele>217.894608</ele>
        <time>2019-08-17T15:26:24Z</time>
      </trkpt>
      <trkpt lat="44.41765" lon="1.03568">
        <ele>217.503983</ele>
        <time>2019-08-17T15:26:25Z</time>
      </trkpt>
      <trkpt lat="44.41758" lon="1.03566">
        <ele>217.091797</ele>
        <time>2019-08-17T15:26:26Z</time>
      </trkpt>
      <trkpt lat="44.41752" lon="1.03564">
        <ele>216.648209</ele>
        <time>2019-08-17T15:26:27Z</time>
      </trkpt>
      <trkpt lat="44.41745" lon="1.03561">
        <ele>216.164871</ele>
        <time>2019-08-17T15:26:28Z</time>
      </trkpt>
      <trkpt lat="44.41738" lon="1.0356">
        <ele>215.625931</ele>
        <time>2019-08-17T15:26:29Z</time>
      </trkpt>
      <trkpt lat="44.41731" lon="1.03561">
        <ele>215.024643</ele>
        <time>2019-08-17T15:26:30Z</time>
      </trkpt>
      <trkpt lat="44.41724" lon="1.03562">
        <ele>214.354126</ele>
        <time>2019-08-17T15:26:31Z</time>
      </trkpt>
      <trkpt lat="44.41716" lon="1.03561">
        <ele>213.622131</ele>
        <time>2019-08-17T15:26:32Z</time>
      </trkpt>
      <trkpt lat="44.41709" lon="1.03558">
        <ele>212.850784</ele>
        <time>2019-08-17T15:26:33Z</time>
      </trkpt>
      <trkpt lat="44.41702" lon="1.03553">
        <ele>212.064621</ele>
        <time>2019-08-17T15:26:34Z</time>
      </trkpt>
      <trkpt lat="44.41695" lon="1.03549">
        <ele>211.263351</ele>
        <time>2019-08-17T15:26:35Z</time>
      </trkpt>
      <trkpt lat="44.41689" lon="1.03545">
        <ele>211.263351</ele>
        <time>2019-08-17T15:26:36Z</time>
      </trkpt>
      <trkpt lat="44.41684" lon="1.0354">
        <ele>210.431641</ele>
        <time>2019-08-17T15:26:37Z</time>
      </trkpt>
      <trkpt lat="44.41678" lon="1.03535">
        <ele>209.559128</ele>
        <time>2019-08-17T15:26:38Z</time>
      </trkpt>
      <trkpt lat="44.41673" lon="1.03531">
        <ele>208.465454</ele>
        <time>2019-08-17T15:26:39Z</time>
      </trkpt>
      <trkpt lat="44.41666" lon="1.03527">
        <ele>207.370041</ele>
        <time>2019-08-17T15:26:40Z</time>
      </trkpt>
      <trkpt lat="44.41661" lon="1.03523">
        <ele>206.278</ele>
        <time>2019-08-17T15:26:41Z</time>
      </trkpt>
      <trkpt lat="44.41656" lon="1.0352">
        <ele>205.19783</ele>
        <time>2019-08-17T15:26:42Z</time>
      </trkpt>
      <trkpt lat="44.41651" lon="1.03519">
        <ele>204.145386</ele>
        <time>2019-08-17T15:26:43Z</time>
      </trkpt>
      <trkpt lat="44.41646" lon="1.03519">
        <ele>203.150879</ele>
        <time>2019-08-17T15:26:44Z</time>
      </trkpt>
      <trkpt lat="44.41641" lon="1.0352">
        <ele>202.406815</ele>
        <time>2019-08-17T15:26:45Z</time>
      </trkpt>
      <trkpt lat="44.41636" lon="1.0352">
        <ele>201.696289</ele>
        <time>2019-08-17T15:26:46Z</time>
      </trkpt>
      <trkpt lat="44.41629" lon="1.03519">
        <ele>201.696289</ele>
        <time>2019-08-17T15:26:47Z</time>
      </trkpt>
      <trkpt lat="44.41622" lon="1.03519">
        <ele>201.000854</ele>
        <time>2019-08-17T15:26:48Z</time>
      </trkpt>
      <trkpt lat="44.41615" lon="1.03518">
        <ele>200.328323</ele>
        <time>2019-08-17T15:26:49Z</time>
      </trkpt>
      <trkpt lat="44.41607" lon="1.03517">
        <ele>199.557083</ele>
        <time>2019-08-17T15:26:50Z</time>
      </trkpt>
      <trkpt lat="44.41599" lon="1.03516">
        <ele>198.783798</ele>
        <time>2019-08-17T15:26:51Z</time>
      </trkpt>
      <trkpt lat="44.41591" lon="1.03516">
        <ele>197.991699</ele>
        <time>2019-08-17T15:26:52Z</time>
      </trkpt>
      <trkpt lat="44.41584" lon="1.03515">
        <ele>197.165359</ele>
        <time>2019-08-17T15:26:53Z</time>
      </trkpt>
      <trkpt lat="44.41577" lon="1.03513">
        <ele>196.316177</ele>
        <time>2019-08-17T15:26:54Z</time>
      </trkpt>
      <trkpt lat="44.4157" lon="1.0351">
        <ele>195.440262</ele>
        <time>2019-08-17T15:26:55Z</time>
      </trkpt>
      <trkpt lat="44.41564" lon="1.03506">
        <ele>194.671631</ele>
        <time>2019-08-17T15:26:56Z</time>
      </trkpt>
      <trkpt lat="44.41558" lon="1.03502">
        <ele>194.671631</ele>
        <time>2019-08-17T15:26:57Z</time>
      </trkpt>
      <trkpt lat="44.41552" lon="1.03497">
        <ele>193.910583</ele>
        <time>2019-08-17T15:26:58Z</time>
      </trkpt>
      <trkpt lat="44.41548" lon="1.0349">
        <ele>193.176376</ele>
        <time>2019-08-17T15:26:59Z</time>
      </trkpt>
      <trkpt lat="44.41546" lon="1.03483">
        <ele>192.473587</ele>
        <time>2019-08-17T15:27:00Z</time>
      </trkpt>
      <trkpt lat="44.41544" lon="1.03475">
        <ele>191.907608</ele>
        <time>2019-08-17T15:27:01Z</time>
      </trkpt>
      <trkpt lat="44.41543" lon="1.03468">
        <ele>191.529007</ele>
        <time>2019-08-17T15:27:02Z</time>
      </trkpt>
      <trkpt lat="44.41542" lon="1.03462">
        <ele>191.529007</ele>
        <time>2019-08-17T15:27:03Z</time>
      </trkpt>
      <trkpt lat="44.4154" lon="1.03456">
        <ele>191.452164</ele>
        <time>2019-08-17T15:27:04Z</time>
      </trkpt>
      <trkpt lat="44.41539" lon="1.03451">
        <ele>191.452164</ele>
        <time>2019-08-17T15:27:05Z</time>
      </trkpt>
      <trkpt lat="44.41536" lon="1.03447">
        <ele>191.452164</ele>
        <time>2019-08-17T15:27:06Z</time>
      </trkpt>
      <trkpt lat="44.41534" lon="1.03444">
        <ele>191.452164</ele>
        <time>2019-08-17T15:27:07Z</time>
      </trkpt>
      <trkpt lat="44.41533" lon="1.03442">
        <ele>191.566162</ele>
        <time>2019-08-17T15:27:08Z</time>
      </trkpt>
      <trkpt lat="44.4153" lon="1.03441">
        <ele>191.888474</ele>
        <time>2019-08-17T15:27:09Z</time>
      </trkpt>
      <trkpt lat="44.41528" lon="1.0344">
        <ele>192.333847</ele>
        <time>2019-08-17T15:27:10Z</time>
      </trkpt>
      <trkpt lat="44.41525" lon="1.0344">
        <ele>192.782471</ele>
        <time>2019-08-17T15:27:11Z</time>
      </trkpt>
      <trkpt lat="44.41522" lon="1.0344">
        <ele>193.156494</ele>
        <time>2019-08-17T15:27:12Z</time>
      </trkpt>
      <trkpt lat="44.41519" lon="1.03438">
        <ele>193.337158</ele>
        <time>2019-08-17T15:27:13Z</time>
      </trkpt>
      <trkpt lat="44.41516" lon="1.03437">
        <ele>193.44165</ele>
        <time>2019-08-17T15:27:14Z</time>
      </trkpt>
      <trkpt lat="44.41513" lon="1.03435">
        <ele>193.443115</ele>
        <time>2019-08-17T15:27:15Z</time>
      </trkpt>
      <trkpt lat="44.41511" lon="1.03434">
        <ele>193.444092</ele>
        <time>2019-08-17T15:27:16Z</time>
      </trkpt>
      <trkpt lat="44.41509" lon="1.03432">
        <ele>193.446533</ele>
        <time>2019-08-17T15:27:17Z</time>
      </trkpt>
      <trkpt lat="44.41507" lon="1.0343">
        <ele>193.432129</ele>
        <time>2019-08-17T15:27:18Z</time>
      </trkpt>
      <trkpt lat="44.41505" lon="1.03428">
        <ele>193.422852</ele>
        <time>2019-08-17T15:27:19Z</time>
      </trkpt>
      <trkpt lat="44.41503" lon="1.03426">
        <ele>193.422852</ele>
        <time>2019-08-17T15:27:20Z</time>
      </trkpt>
      <trkpt lat="44.41502" lon="1.03424">
        <ele>193.422852</ele>
        <time>2019-08-17T15:27:21Z</time>
      </trkpt>
      <trkpt lat="44.41501" lon="1.03421">
        <ele>193.422852</ele>
        <time>2019-08-17T15:27:22Z</time>
      </trkpt>
      <trkpt lat="44.415" lon="1.03419">
        <ele>193.467773</ele>
        <time>2019-08-17T15:27:23Z</time>
      </trkpt>
      <trkpt lat="44.41498" lon="1.03416">
        <ele>193.551514</ele>
        <time>2019-08-17T15:27:24Z</time>
      </trkpt>
      <trkpt lat="44.41497" lon="1.03414">
        <ele>193.663086</ele>
        <time>2019-08-17T15:27:25Z</time>
      </trkpt>
      <trkpt lat="44.41496" lon="1.03411">
        <ele>193.802979</ele>
        <time>2019-08-17T15:27:26Z</time>
      </trkpt>
      <trkpt lat="44.41494" lon="1.03408">
        <ele>193.965332</ele>
        <time>2019-08-17T15:27:27Z</time>
      </trkpt>
      <trkpt lat="44.41493" lon="1.03406">
        <ele>194.144485</ele>
        <time>2019-08-17T15:27:28Z</time>
      </trkpt>
      <trkpt lat="44.41492" lon="1.03404">
        <ele>194.323288</ele>
        <time>2019-08-17T15:27:29Z</time>
      </trkpt>
      <trkpt lat="44.4149" lon="1.03401">
        <ele>194.509232</ele>
        <time>2019-08-17T15:27:30Z</time>
      </trkpt>
      <trkpt lat="44.41488" lon="1.03399">
        <ele>194.699158</ele>
        <time>2019-08-17T15:27:31Z</time>
      </trkpt>
      <trkpt lat="44.41486" lon="1.03397">
        <ele>194.884277</ele>
        <time>2019-08-17T15:27:32Z</time>
      </trkpt>
      <trkpt lat="44.41484" lon="1.03395">
        <ele>195.068069</ele>
        <time>2019-08-17T15:27:33Z</time>
      </trkpt>
      <trkpt lat="44.41482" lon="1.03392">
        <ele>195.244034</ele>
        <time>2019-08-17T15:27:34Z</time>
      </trkpt>
      <trkpt lat="44.4148" lon="1.0339">
        <ele>195.407913</ele>
        <time>2019-08-17T15:27:35Z</time>
      </trkpt>
      <trkpt lat="44.41478" lon="1.03388">
        <ele>195.562866</ele>
        <time>2019-08-17T15:27:36Z</time>
      </trkpt>
      <trkpt lat="44.41476" lon="1.03386">
        <ele>195.705917</ele>
        <time>2019-08-17T15:27:37Z</time>
      </trkpt>
      <trkpt lat="44.41474" lon="1.03385">
        <ele>195.843994</ele>
        <time>2019-08-17T15:27:38Z</time>
      </trkpt>
      <trkpt lat="44.41472" lon="1.03384">
        <ele>195.968674</ele>
        <time>2019-08-17T15:27:39Z</time>
      </trkpt>
      <trkpt lat="44.4147" lon="1.03383">
        <ele>196.083786</ele>
        <time>2019-08-17T15:27:40Z</time>
      </trkpt>
      <trkpt lat="44.41467" lon="1.03382">
        <ele>196.180054</ele>
        <time>2019-08-17T15:27:41Z</time>
      </trkpt>
      <trkpt lat="44.41464" lon="1.0338">
        <ele>196.253799</ele>
        <time>2019-08-17T15:27:42Z</time>
      </trkpt>
      <trkpt lat="44.41462" lon="1.03379">
        <ele>196.30806</ele>
        <time>2019-08-17T15:27:43Z</time>
      </trkpt>
      <trkpt lat="44.41459" lon="1.03377">
        <ele>196.346115</ele>
        <time>2019-08-17T15:27:44Z</time>
      </trkpt>
      <trkpt lat="44.41457" lon="1.03375">
        <ele>196.374588</ele>
        <time>2019-08-17T15:27:45Z</time>
      </trkpt>
      <trkpt lat="44.41454" lon="1.03374">
        <ele>196.374588</ele>
        <time>2019-08-17T15:27:46Z</time>
      </trkpt>
      <trkpt lat="44.41451" lon="1.03374">
        <ele>196.389236</ele>
        <time>2019-08-17T15:27:47Z</time>
      </trkpt>
      <trkpt lat="44.41448" lon="1.03373">
        <ele>196.389359</ele>
        <time>2019-08-17T15:27:48Z</time>
      </trkpt>
      <trkpt lat="44.41446" lon="1.03372">
        <ele>196.389359</ele>
        <time>2019-08-17T15:27:49Z</time>
      </trkpt>
      <trkpt lat="44.41443" lon="1.03372">
        <ele>196.387589</ele>
        <time>2019-08-17T15:27:50Z</time>
      </trkpt>
      <trkpt lat="44.41441" lon="1.03372">
        <ele>196.374771</ele>
        <time>2019-08-17T15:27:51Z</time>
      </trkpt>
      <trkpt lat="44.41438" lon="1.03372">
        <ele>196.352341</ele>
        <time>2019-08-17T15:27:52Z</time>
      </trkpt>
      <trkpt lat="44.41435" lon="1.03371">
        <ele>196.312134</ele>
        <time>2019-08-17T15:27:53Z</time>
      </trkpt>
      <trkpt lat="44.41431" lon="1.03371">
        <ele>196.254471</ele>
        <time>2019-08-17T15:27:54Z</time>
      </trkpt>
      <trkpt lat="44.41428" lon="1.0337">
        <ele>196.254471</ele>
        <time>2019-08-17T15:27:55Z</time>
      </trkpt>
      <trkpt lat="44.41425" lon="1.03369">
        <ele>196.178589</ele>
        <time>2019-08-17T15:27:56Z</time>
      </trkpt>
      <trkpt lat="44.41422" lon="1.03368">
        <ele>196.093384</ele>
        <time>2019-08-17T15:27:57Z</time>
      </trkpt>
      <trkpt lat="44.41419" lon="1.03368">
        <ele>195.990189</ele>
        <time>2019-08-17T15:27:58Z</time>
      </trkpt>
      <trkpt lat="44.41416" lon="1.03368">
        <ele>195.882935</ele>
        <time>2019-08-17T15:27:59Z</time>
      </trkpt>
      <trkpt lat="44.41413" lon="1.03368">
        <ele>195.773911</ele>
        <time>2019-08-17T15:28:00Z</time>
      </trkpt>
      <trkpt lat="44.4141" lon="1.03369">
        <ele>195.659653</ele>
        <time>2019-08-17T15:28:01Z</time>
      </trkpt>
      <trkpt lat="44.41407" lon="1.03369">
        <ele>195.542862</ele>
        <time>2019-08-17T15:28:02Z</time>
      </trkpt>
      <trkpt lat="44.41404" lon="1.03371">
        <ele>195.423599</ele>
        <time>2019-08-17T15:28:03Z</time>
      </trkpt>
      <trkpt lat="44.414" lon="1.03373">
        <ele>195.313965</ele>
        <time>2019-08-17T15:28:04Z</time>
      </trkpt>
      <trkpt lat="44.41396" lon="1.03375">
        <ele>195.192551</ele>
        <time>2019-08-17T15:28:05Z</time>
      </trkpt>
      <trkpt lat="44.41393" lon="1.03378">
        <ele>195.054077</ele>
        <time>2019-08-17T15:28:06Z</time>
      </trkpt>
      <trkpt lat="44.4139" lon="1.03381">
        <ele>195.054077</ele>
        <time>2019-08-17T15:28:07Z</time>
      </trkpt>
      <trkpt lat="44.41386" lon="1.03383">
        <ele>194.901794</ele>
        <time>2019-08-17T15:28:08Z</time>
      </trkpt>
      <trkpt lat="44.41383" lon="1.03385">
        <ele>194.737671</ele>
        <time>2019-08-17T15:28:09Z</time>
      </trkpt>
      <trkpt lat="44.4138" lon="1.03387">
        <ele>194.539612</ele>
        <time>2019-08-17T15:28:10Z</time>
      </trkpt>
      <trkpt lat="44.41378" lon="1.03389">
        <ele>194.339722</ele>
        <time>2019-08-17T15:28:11Z</time>
      </trkpt>
      <trkpt lat="44.41375" lon="1.03391">
        <ele>194.143738</ele>
        <time>2019-08-17T15:28:12Z</time>
      </trkpt>
      <trkpt lat="44.41373" lon="1.03393">
        <ele>193.960037</ele>
        <time>2019-08-17T15:28:13Z</time>
      </trkpt>
      <trkpt lat="44.41372" lon="1.03395">
        <ele>193.79277</ele>
        <time>2019-08-17T15:28:14Z</time>
      </trkpt>
      <trkpt lat="44.4137" lon="1.03399">
        <ele>193.644165</ele>
        <time>2019-08-17T15:28:15Z</time>
      </trkpt>
      <trkpt lat="44.41368" lon="1.03403">
        <ele>193.539551</ele>
        <time>2019-08-17T15:28:16Z</time>
      </trkpt>
      <trkpt lat="44.41367" lon="1.03408">
        <ele>193.539551</ele>
        <time>2019-08-17T15:28:17Z</time>
      </trkpt>
      <trkpt lat="44.41366" lon="1.03412">
        <ele>193.447708</ele>
        <time>2019-08-17T15:28:18Z</time>
      </trkpt>
      <trkpt lat="44.41365" lon="1.03415">
        <ele>193.366089</ele>
        <time>2019-08-17T15:28:19Z</time>
      </trkpt>
      <trkpt lat="44.41365" lon="1.03418">
        <ele>193.287109</ele>
        <time>2019-08-17T15:28:20Z</time>
      </trkpt>
      <trkpt lat="44.41364" lon="1.0342">
        <ele>193.220596</ele>
        <time>2019-08-17T15:28:21Z</time>
      </trkpt>
      <trkpt lat="44.41363" lon="1.03422">
        <ele>193.164108</ele>
        <time>2019-08-17T15:28:22Z</time>
      </trkpt>
      <trkpt lat="44.41356" lon="1.0343">
        <ele>193.007614</ele>
        <time>2019-08-17T15:29:10Z</time>
      </trkpt>
      <trkpt lat="44.41354" lon="1.03433">
        <ele>193.003662</ele>
        <time>2019-08-17T15:29:12Z</time>
      </trkpt>
      <trkpt lat="44.41351" lon="1.03436">
        <ele>192.992233</ele>
        <time>2019-08-17T15:29:13Z</time>
      </trkpt>
      <trkpt lat="44.41349" lon="1.03439">
        <ele>192.992233</ele>
        <time>2019-08-17T15:29:14Z</time>
      </trkpt>
      <trkpt lat="44.41346" lon="1.03442">
        <ele>192.972214</ele>
        <time>2019-08-17T15:29:15Z</time>
      </trkpt>
      <trkpt lat="44.41343" lon="1.03445">
        <ele>192.945114</ele>
        <time>2019-08-17T15:29:16Z</time>
      </trkpt>
      <trkpt lat="44.4134" lon="1.03448">
        <ele>192.909058</ele>
        <time>2019-08-17T15:29:17Z</time>
      </trkpt>
      <trkpt lat="44.41336" lon="1.0345">
        <ele>192.871658</ele>
        <time>2019-08-17T15:29:18Z</time>
      </trkpt>
      <trkpt lat="44.41333" lon="1.03452">
        <ele>192.83931</ele>
        <time>2019-08-17T15:29:19Z</time>
      </trkpt>
      <trkpt lat="44.4133" lon="1.03453">
        <ele>192.817749</ele>
        <time>2019-08-17T15:29:20Z</time>
      </trkpt>
      <trkpt lat="44.41326" lon="1.03454">
        <ele>192.805099</ele>
        <time>2019-08-17T15:29:21Z</time>
      </trkpt>
      <trkpt lat="44.41323" lon="1.03454">
        <ele>192.797409</ele>
        <time>2019-08-17T15:29:22Z</time>
      </trkpt>
      <trkpt lat="44.41319" lon="1.03454">
        <ele>192.792664</ele>
        <time>2019-08-17T15:29:23Z</time>
      </trkpt>
      <trkpt lat="44.41316" lon="1.03454">
        <ele>192.786545</ele>
        <time>2019-08-17T15:29:24Z</time>
      </trkpt>
      <trkpt lat="44.41312" lon="1.03453">
        <ele>192.783585</ele>
        <time>2019-08-17T15:29:25Z</time>
      </trkpt>
      <trkpt lat="44.41308" lon="1.03452">
        <ele>192.782974</ele>
        <time>2019-08-17T15:29:26Z</time>
      </trkpt>
      <trkpt lat="44.41304" lon="1.0345">
        <ele>192.777832</ele>
        <time>2019-08-17T15:29:27Z</time>
      </trkpt>
      <trkpt lat="44.41301" lon="1.03448">
        <ele>192.76326</ele>
        <time>2019-08-17T15:29:28Z</time>
      </trkpt>
      <trkpt lat="44.41297" lon="1.03445">
        <ele>192.733566</ele>
        <time>2019-08-17T15:29:29Z</time>
      </trkpt>
      <trkpt lat="44.41294" lon="1.03442">
        <ele>192.733566</ele>
        <time>2019-08-17T15:29:30Z</time>
      </trkpt>
      <trkpt lat="44.41291" lon="1.03438">
        <ele>192.685791</ele>
        <time>2019-08-17T15:29:31Z</time>
      </trkpt>
      <trkpt lat="44.4129" lon="1.03434">
        <ele>192.618118</ele>
        <time>2019-08-17T15:29:32Z</time>
      </trkpt>
      <trkpt lat="44.41288" lon="1.0343">
        <ele>192.480637</ele>
        <time>2019-08-17T15:29:33Z</time>
      </trkpt>
      <trkpt lat="44.41286" lon="1.03425">
        <ele>192.306152</ele>
        <time>2019-08-17T15:29:34Z</time>
      </trkpt>
      <trkpt lat="44.41285" lon="1.0342">
        <ele>192.102982</ele>
        <time>2019-08-17T15:29:35Z</time>
      </trkpt>
      <trkpt lat="44.41284" lon="1.03415">
        <ele>192.102982</ele>
        <time>2019-08-17T15:29:36Z</time>
      </trkpt>
      <trkpt lat="44.41282" lon="1.03409">
        <ele>191.873917</ele>
        <time>2019-08-17T15:29:37Z</time>
      </trkpt>
      <trkpt lat="44.41282" lon="1.03402">
        <ele>191.61499</ele>
        <time>2019-08-17T15:29:38Z</time>
      </trkpt>
      <trkpt lat="44.41281" lon="1.03396">
        <ele>191.276688</ele>
        <time>2019-08-17T15:29:39Z</time>
      </trkpt>
      <trkpt lat="44.4128" lon="1.0339">
        <ele>190.952164</ele>
        <time>2019-08-17T15:29:40Z</time>
      </trkpt>
      <trkpt lat="44.4128" lon="1.03384">
        <ele>190.615524</ele>
        <time>2019-08-17T15:29:41Z</time>
      </trkpt>
      <trkpt lat="44.4128" lon="1.03377">
        <ele>190.260208</ele>
        <time>2019-08-17T15:29:42Z</time>
      </trkpt>
      <trkpt lat="44.41281" lon="1.03371">
        <ele>189.890701</ele>
        <time>2019-08-17T15:29:43Z</time>
      </trkpt>
      <trkpt lat="44.41281" lon="1.03365">
        <ele>189.890701</ele>
        <time>2019-08-17T15:29:44Z</time>
      </trkpt>
      <trkpt lat="44.41281" lon="1.0336">
        <ele>189.516785</ele>
        <time>2019-08-17T15:29:45Z</time>
      </trkpt>
      <trkpt lat="44.41281" lon="1.03355">
        <ele>189.190979</ele>
        <time>2019-08-17T15:29:46Z</time>
      </trkpt>
      <trkpt lat="44.41282" lon="1.0335">
        <ele>189.190979</ele>
        <time>2019-08-17T15:29:47Z</time>
      </trkpt>
      <trkpt lat="44.41283" lon="1.03345">
        <ele>188.824539</ele>
        <time>2019-08-17T15:29:48Z</time>
      </trkpt>
      <trkpt lat="44.41285" lon="1.0334">
        <ele>188.466782</ele>
        <time>2019-08-17T15:29:49Z</time>
      </trkpt>
      <trkpt lat="44.41287" lon="1.03335">
        <ele>188.466782</ele>
        <time>2019-08-17T15:29:50Z</time>
      </trkpt>
      <trkpt lat="44.41288" lon="1.03329">
        <ele>188.084534</ele>
        <time>2019-08-17T15:29:51Z</time>
      </trkpt>
      <trkpt lat="44.41291" lon="1.03324">
        <ele>187.724564</ele>
        <time>2019-08-17T15:29:52Z</time>
      </trkpt>
      <trkpt lat="44.41293" lon="1.03318">
        <ele>187.357864</ele>
        <time>2019-08-17T15:29:53Z</time>
      </trkpt>
      <trkpt lat="44.41295" lon="1.03313">
        <ele>187.357864</ele>
        <time>2019-08-17T15:29:54Z</time>
      </trkpt>
      <trkpt lat="44.41295" lon="1.03307">
        <ele>187.016235</ele>
        <time>2019-08-17T15:29:55Z</time>
      </trkpt>
      <trkpt lat="44.41295" lon="1.033">
        <ele>186.75029</ele>
        <time>2019-08-17T15:29:56Z</time>
      </trkpt>
      <trkpt lat="44.41296" lon="1.03294">
        <ele>186.501602</ele>
        <time>2019-08-17T15:29:57Z</time>
      </trkpt>
      <trkpt lat="44.41297" lon="1.03289">
        <ele>186.301697</ele>
        <time>2019-08-17T15:29:58Z</time>
      </trkpt>
      <trkpt lat="44.41295" lon="1.03284">
        <ele>186.09343</ele>
        <time>2019-08-17T15:29:59Z</time>
      </trkpt>
      <trkpt lat="44.41293" lon="1.03279">
        <ele>185.917969</ele>
        <time>2019-08-17T15:30:00Z</time>
      </trkpt>
      <trkpt lat="44.41291" lon="1.03274">
        <ele>185.741806</ele>
        <time>2019-08-17T15:30:01Z</time>
      </trkpt>
      <trkpt lat="44.41288" lon="1.03268">
        <ele>185.741806</ele>
        <time>2019-08-17T15:30:02Z</time>
      </trkpt>
      <trkpt lat="44.41287" lon="1.03262">
        <ele>185.528015</ele>
        <time>2019-08-17T15:30:03Z</time>
      </trkpt>
      <trkpt lat="44.41284" lon="1.03257">
        <ele>185.26445</ele>
        <time>2019-08-17T15:30:04Z</time>
      </trkpt>
      <trkpt lat="44.41282" lon="1.03253">
        <ele>185.26445</ele>
        <time>2019-08-17T15:30:05Z</time>
      </trkpt>
      <trkpt lat="44.41279" lon="1.03248">
        <ele>184.901505</ele>
        <time>2019-08-17T15:30:06Z</time>
      </trkpt>
      <trkpt lat="44.41277" lon="1.03244">
        <ele>184.526871</ele>
        <time>2019-08-17T15:30:07Z</time>
      </trkpt>
      <trkpt lat="44.41274" lon="1.0324">
        <ele>184.075424</ele>
        <time>2019-08-17T15:30:08Z</time>
      </trkpt>
      <trkpt lat="44.4127" lon="1.03237">
        <ele>184.075424</ele>
        <time>2019-08-17T15:30:09Z</time>
      </trkpt>
      <trkpt lat="44.41266" lon="1.03234">
        <ele>183.604492</ele>
        <time>2019-08-17T15:30:10Z</time>
      </trkpt>
      <trkpt lat="44.41261" lon="1.03232">
        <ele>183.1465</ele>
        <time>2019-08-17T15:30:11Z</time>
      </trkpt>
      <trkpt lat="44.41257" lon="1.03231">
        <ele>182.665359</ele>
        <time>2019-08-17T15:30:12Z</time>
      </trkpt>
      <trkpt lat="44.41253" lon="1.03229">
        <ele>182.258545</ele>
        <time>2019-08-17T15:30:13Z</time>
      </trkpt>
      <trkpt lat="44.41249" lon="1.03227">
        <ele>181.845657</ele>
        <time>2019-08-17T15:30:14Z</time>
      </trkpt>
      <trkpt lat="44.41245" lon="1.03226">
        <ele>181.484085</ele>
        <time>2019-08-17T15:30:15Z</time>
      </trkpt>
      <trkpt lat="44.4124" lon="1.03226">
        <ele>181.120285</ele>
        <time>2019-08-17T15:30:16Z</time>
      </trkpt>
      <trkpt lat="44.41236" lon="1.03228">
        <ele>180.752335</ele>
        <time>2019-08-17T15:30:17Z</time>
      </trkpt>
      <trkpt lat="44.41233" lon="1.03231">
        <ele>180.437271</ele>
        <time>2019-08-17T15:30:18Z</time>
      </trkpt>
      <trkpt lat="44.41229" lon="1.03233">
        <ele>180.137589</ele>
        <time>2019-08-17T15:30:19Z</time>
      </trkpt>
      <trkpt lat="44.41225" lon="1.03235">
        <ele>179.857803</ele>
        <time>2019-08-17T15:30:20Z</time>
      </trkpt>
      <trkpt lat="44.41222" lon="1.03236">
        <ele>179.59314</ele>
        <time>2019-08-17T15:30:21Z</time>
      </trkpt>
      <trkpt lat="44.4122" lon="1.03234">
        <ele>179.346939</ele>
        <time>2019-08-17T15:30:22Z</time>
      </trkpt>
      <trkpt lat="44.41219" lon="1.03231">
        <ele>179.160477</ele>
        <time>2019-08-17T15:30:23Z</time>
      </trkpt>
      <trkpt lat="44.41219" lon="1.03226">
        <ele>179.034302</ele>
        <time>2019-08-17T15:30:24Z</time>
      </trkpt>
      <trkpt lat="44.4122" lon="1.03222">
        <ele>178.920288</ele>
        <time>2019-08-17T15:30:25Z</time>
      </trkpt>
      <trkpt lat="44.41219" lon="1.03217">
        <ele>178.823715</ele>
        <time>2019-08-17T15:30:26Z</time>
      </trkpt>
      <trkpt lat="44.41217" lon="1.03214">
        <ele>178.760605</ele>
        <time>2019-08-17T15:30:27Z</time>
      </trkpt>
      <trkpt lat="44.41215" lon="1.03213">
        <ele>178.735916</ele>
        <time>2019-08-17T15:30:28Z</time>
      </trkpt>
      <trkpt lat="44.41212" lon="1.03213">
        <ele>178.735916</ele>
        <time>2019-08-17T15:30:29Z</time>
      </trkpt>
      <trkpt lat="44.41209" lon="1.03214">
        <ele>178.75531</ele>
        <time>2019-08-17T15:30:30Z</time>
      </trkpt>
      <trkpt lat="44.41206" lon="1.03214">
        <ele>178.827957</ele>
        <time>2019-08-17T15:30:31Z</time>
      </trkpt>
      <trkpt lat="44.41203" lon="1.03213">
        <ele>178.827957</ele>
        <time>2019-08-17T15:30:32Z</time>
      </trkpt>
      <trkpt lat="44.41199" lon="1.0321">
        <ele>178.952438</ele>
        <time>2019-08-17T15:30:33Z</time>
      </trkpt>
      <trkpt lat="44.41196" lon="1.03208">
        <ele>179.095932</ele>
        <time>2019-08-17T15:30:34Z</time>
      </trkpt>
      <trkpt lat="44.41193" lon="1.03206">
        <ele>179.343033</ele>
        <time>2019-08-17T15:30:35Z</time>
      </trkpt>
      <trkpt lat="44.41192" lon="1.03205">
        <ele>179.669312</ele>
        <time>2019-08-17T15:30:36Z</time>
      </trkpt>
      <trkpt lat="44.41191" lon="1.03203">
        <ele>180.030228</ele>
        <time>2019-08-17T15:30:37Z</time>
      </trkpt>
      <trkpt lat="44.41182" lon="1.03195">
        <ele>181.316208</ele>
        <time>2019-08-17T15:30:58Z</time>
      </trkpt>
      <trkpt lat="44.41179" lon="1.03194">
        <ele>181.351578</ele>
        <time>2019-08-17T15:31:00Z</time>
      </trkpt>
      <trkpt lat="44.41176" lon="1.03193">
        <ele>181.402512</ele>
        <time>2019-08-17T15:31:01Z</time>
      </trkpt>
      <trkpt lat="44.41173" lon="1.03192">
        <ele>181.517136</ele>
        <time>2019-08-17T15:31:02Z</time>
      </trkpt>
      <trkpt lat="44.4117" lon="1.03191">
        <ele>181.517136</ele>
        <time>2019-08-17T15:31:03Z</time>
      </trkpt>
      <trkpt lat="44.41167" lon="1.03191">
        <ele>181.670761</ele>
        <time>2019-08-17T15:31:04Z</time>
      </trkpt>
      <trkpt lat="44.41164" lon="1.03191">
        <ele>181.854294</ele>
        <time>2019-08-17T15:31:05Z</time>
      </trkpt>
      <trkpt lat="44.41161" lon="1.0319">
        <ele>182.111618</ele>
        <time>2019-08-17T15:31:06Z</time>
      </trkpt>
      <trkpt lat="44.41158" lon="1.03189">
        <ele>182.398911</ele>
        <time>2019-08-17T15:31:07Z</time>
      </trkpt>
      <trkpt lat="44.41155" lon="1.03187">
        <ele>182.718246</ele>
        <time>2019-08-17T15:31:08Z</time>
      </trkpt>
      <trkpt lat="44.41152" lon="1.03185">
        <ele>183.022903</ele>
        <time>2019-08-17T15:31:09Z</time>
      </trkpt>
      <trkpt lat="44.41149" lon="1.03184">
        <ele>183.33461</ele>
        <time>2019-08-17T15:31:10Z</time>
      </trkpt>
      <trkpt lat="44.41147" lon="1.03183">
        <ele>183.640503</ele>
        <time>2019-08-17T15:31:11Z</time>
      </trkpt>
      <trkpt lat="44.41143" lon="1.03182">
        <ele>183.895691</ele>
        <time>2019-08-17T15:31:12Z</time>
      </trkpt>
      <trkpt lat="44.4114" lon="1.0318">
        <ele>184.157425</ele>
        <time>2019-08-17T15:31:13Z</time>
      </trkpt>
      <trkpt lat="44.41137" lon="1.03179">
        <ele>184.426163</ele>
        <time>2019-08-17T15:31:14Z</time>
      </trkpt>
      <trkpt lat="44.41134" lon="1.03176">
        <ele>184.707748</ele>
        <time>2019-08-17T15:31:15Z</time>
      </trkpt>
      <trkpt lat="44.41131" lon="1.03174">
        <ele>185.001633</ele>
        <time>2019-08-17T15:31:16Z</time>
      </trkpt>
      <trkpt lat="44.41129" lon="1.03171">
        <ele>185.307129</ele>
        <time>2019-08-17T15:31:17Z</time>
      </trkpt>
      <trkpt lat="44.41127" lon="1.03168">
        <ele>185.613892</ele>
        <time>2019-08-17T15:31:18Z</time>
      </trkpt>
      <trkpt lat="44.41125" lon="1.03165">
        <ele>185.895508</ele>
        <time>2019-08-17T15:31:19Z</time>
      </trkpt>
      <trkpt lat="44.41124" lon="1.03161">
        <ele>186.143967</ele>
        <time>2019-08-17T15:31:20Z</time>
      </trkpt>
      <trkpt lat="44.41123" lon="1.03156">
        <ele>186.335571</ele>
        <time>2019-08-17T15:31:21Z</time>
      </trkpt>
      <trkpt lat="44.41123" lon="1.03151">
        <ele>186.44133</ele>
        <time>2019-08-17T15:31:22Z</time>
      </trkpt>
      <trkpt lat="44.41125" lon="1.03148">
        <ele>186.45137</ele>
        <time>2019-08-17T15:31:23Z</time>
      </trkpt>
      <trkpt lat="44.41127" lon="1.03146">
        <ele>186.45137</ele>
        <time>2019-08-17T15:31:24Z</time>
      </trkpt>
      <trkpt lat="44.41129" lon="1.03145">
        <ele>186.45137</ele>
        <time>2019-08-17T15:31:25Z</time>
      </trkpt>
      <trkpt lat="44.41131" lon="1.03142">
        <ele>186.45137</ele>
        <time>2019-08-17T15:31:26Z</time>
      </trkpt>
      <trkpt lat="44.41133" lon="1.03138">
        <ele>186.313843</ele>
        <time>2019-08-17T15:31:27Z</time>
      </trkpt>
      <trkpt lat="44.41136" lon="1.03135">
        <ele>186.097412</ele>
        <time>2019-08-17T15:31:28Z</time>
      </trkpt>
      <trkpt lat="44.41139" lon="1.03133">
        <ele>185.800766</ele>
        <time>2019-08-17T15:31:29Z</time>
      </trkpt>
      <trkpt lat="44.41141" lon="1.03131">
        <ele>185.424759</ele>
        <time>2019-08-17T15:31:30Z</time>
      </trkpt>
      <trkpt lat="44.41145" lon="1.03129">
        <ele>185.00676</ele>
        <time>2019-08-17T15:31:31Z</time>
      </trkpt>
      <trkpt lat="44.41148" lon="1.03127">
        <ele>184.572159</ele>
        <time>2019-08-17T15:31:32Z</time>
      </trkpt>
      <trkpt lat="44.4115" lon="1.03124">
        <ele>184.183212</ele>
        <time>2019-08-17T15:31:33Z</time>
      </trkpt>
      <trkpt lat="44.41153" lon="1.03122">
        <ele>183.779282</ele>
        <time>2019-08-17T15:31:34Z</time>
      </trkpt>
      <trkpt lat="44.41156" lon="1.0312">
        <ele>183.369064</ele>
        <time>2019-08-17T15:31:35Z</time>
      </trkpt>
      <trkpt lat="44.41159" lon="1.03118">
        <ele>182.966492</ele>
        <time>2019-08-17T15:31:36Z</time>
      </trkpt>
      <trkpt lat="44.41161" lon="1.03115">
        <ele>182.57605</ele>
        <time>2019-08-17T15:31:37Z</time>
      </trkpt>
      <trkpt lat="44.41164" lon="1.03113">
        <ele>182.57605</ele>
        <time>2019-08-17T15:31:38Z</time>
      </trkpt>
      <trkpt lat="44.41166" lon="1.0311">
        <ele>182.198898</ele>
        <time>2019-08-17T15:31:39Z</time>
      </trkpt>
      <trkpt lat="44.41169" lon="1.03108">
        <ele>181.841721</ele>
        <time>2019-08-17T15:31:40Z</time>
      </trkpt>
      <trkpt lat="44.41172" lon="1.03105">
        <ele>181.468201</ele>
        <time>2019-08-17T15:31:41Z</time>
      </trkpt>
      <trkpt lat="44.41176" lon="1.03103">
        <ele>181.117004</ele>
        <time>2019-08-17T15:31:42Z</time>
      </trkpt>
      <trkpt lat="44.41178" lon="1.03101">
        <ele>180.787003</ele>
        <time>2019-08-17T15:31:43Z</time>
      </trkpt>
      <trkpt lat="44.41181" lon="1.03098">
        <ele>180.478683</ele>
        <time>2019-08-17T15:31:44Z</time>
      </trkpt>
      <trkpt lat="44.41184" lon="1.03096">
        <ele>180.183914</ele>
        <time>2019-08-17T15:31:45Z</time>
      </trkpt>
      <trkpt lat="44.41187" lon="1.03093">
        <ele>179.898056</ele>
        <time>2019-08-17T15:31:46Z</time>
      </trkpt>
      <trkpt lat="44.4119" lon="1.03091">
        <ele>179.663895</ele>
        <time>2019-08-17T15:31:47Z</time>
      </trkpt>
      <trkpt lat="44.41193" lon="1.03089">
        <ele>179.438705</ele>
        <time>2019-08-17T15:31:48Z</time>
      </trkpt>
      <trkpt lat="44.41196" lon="1.03087">
        <ele>179.22142</ele>
        <time>2019-08-17T15:31:49Z</time>
      </trkpt>
      <trkpt lat="44.41198" lon="1.03084">
        <ele>179.22142</ele>
        <time>2019-08-17T15:31:50Z</time>
      </trkpt>
      <trkpt lat="44.41201" lon="1.03082">
        <ele>179.013062</ele>
        <time>2019-08-17T15:31:51Z</time>
      </trkpt>
      <trkpt lat="44.41203" lon="1.03079">
        <ele>178.812683</ele>
        <time>2019-08-17T15:31:52Z</time>
      </trkpt>
      <trkpt lat="44.41206" lon="1.03076">
        <ele>178.597061</ele>
        <time>2019-08-17T15:31:53Z</time>
      </trkpt>
      <trkpt lat="44.41208" lon="1.03074">
        <ele>178.3918</ele>
        <time>2019-08-17T15:31:54Z</time>
      </trkpt>
      <trkpt lat="44.4121" lon="1.03071">
        <ele>178.19902</ele>
        <time>2019-08-17T15:31:55Z</time>
      </trkpt>
      <trkpt lat="44.41213" lon="1.03068">
        <ele>178.021072</ele>
        <time>2019-08-17T15:31:56Z</time>
      </trkpt>
      <trkpt lat="44.41216" lon="1.03065">
        <ele>177.856644</ele>
        <time>2019-08-17T15:31:57Z</time>
      </trkpt>
      <trkpt lat="44.41218" lon="1.03063">
        <ele>177.705154</ele>
        <time>2019-08-17T15:31:58Z</time>
      </trkpt>
      <trkpt lat="44.41221" lon="1.03061">
        <ele>177.587341</ele>
        <time>2019-08-17T15:31:59Z</time>
      </trkpt>
      <trkpt lat="44.41223" lon="1.03059">
        <ele>177.477905</ele>
        <time>2019-08-17T15:32:00Z</time>
      </trkpt>
      <trkpt lat="44.41225" lon="1.03056">
        <ele>177.376709</ele>
        <time>2019-08-17T15:32:01Z</time>
      </trkpt>
      <trkpt lat="44.41226" lon="1.03055">
        <ele>177.286453</ele>
        <time>2019-08-17T15:32:02Z</time>
      </trkpt>
      <trkpt lat="44.41227" lon="1.03054">
        <ele>177.228928</ele>
        <time>2019-08-17T15:32:03Z</time>
      </trkpt>
      <trkpt lat="44.41227" lon="1.03053">
        <ele>177.196945</ele>
        <time>2019-08-17T15:32:04Z</time>
      </trkpt>
      <trkpt lat="44.41229" lon="1.03053">
        <ele>177.186569</ele>
        <time>2019-08-17T15:32:05Z</time>
      </trkpt>
      <trkpt lat="44.41229" lon="1.03052">
        <ele>177.186569</ele>
        <time>2019-08-17T15:32:06Z</time>
      </trkpt>
      <trkpt lat="44.4123" lon="1.03051">
        <ele>177.186569</ele>
        <time>2019-08-17T15:32:07Z</time>
      </trkpt>
      <trkpt lat="44.4124" lon="1.0304">
        <ele>177.402023</ele>
        <time>2019-08-17T15:32:14Z</time>
      </trkpt>
      <trkpt lat="44.41242" lon="1.03037">
        <ele>177.441086</ele>
        <time>2019-08-17T15:32:16Z</time>
      </trkpt>
      <trkpt lat="44.41245" lon="1.03035">
        <ele>177.481445</ele>
        <time>2019-08-17T15:32:17Z</time>
      </trkpt>
      <trkpt lat="44.41248" lon="1.03034">
        <ele>177.575195</ele>
        <time>2019-08-17T15:32:18Z</time>
      </trkpt>
      <trkpt lat="44.41251" lon="1.03033">
        <ele>177.693359</ele>
        <time>2019-08-17T15:32:19Z</time>
      </trkpt>
      <trkpt lat="44.41253" lon="1.03031">
        <ele>177.693359</ele>
        <time>2019-08-17T15:32:20Z</time>
      </trkpt>
      <trkpt lat="44.41255" lon="1.03028">
        <ele>177.837234</ele>
        <time>2019-08-17T15:32:21Z</time>
      </trkpt>
      <trkpt lat="44.41258" lon="1.03025">
        <ele>178.005539</ele>
        <time>2019-08-17T15:32:22Z</time>
      </trkpt>
      <trkpt lat="44.41261" lon="1.03023">
        <ele>178.207687</ele>
        <time>2019-08-17T15:32:23Z</time>
      </trkpt>
      <trkpt lat="44.41265" lon="1.0302">
        <ele>178.411789</ele>
        <time>2019-08-17T15:32:24Z</time>
      </trkpt>
      <trkpt lat="44.41267" lon="1.03017">
        <ele>178.589844</ele>
        <time>2019-08-17T15:32:25Z</time>
      </trkpt>
      <trkpt lat="44.4127" lon="1.03014">
        <ele>178.772781</ele>
        <time>2019-08-17T15:32:26Z</time>
      </trkpt>
      <trkpt lat="44.41272" lon="1.0301">
        <ele>178.960617</ele>
        <time>2019-08-17T15:32:27Z</time>
      </trkpt>
      <trkpt lat="44.41275" lon="1.03006">
        <ele>179.145187</ele>
        <time>2019-08-17T15:32:28Z</time>
      </trkpt>
      <trkpt lat="44.41277" lon="1.03001">
        <ele>179.306961</ele>
        <time>2019-08-17T15:32:29Z</time>
      </trkpt>
      <trkpt lat="44.41279" lon="1.02996">
        <ele>179.473633</ele>
        <time>2019-08-17T15:32:30Z</time>
      </trkpt>
      <trkpt lat="44.41282" lon="1.02992">
        <ele>179.78093</ele>
        <time>2019-08-17T15:32:31Z</time>
      </trkpt>
      <trkpt lat="44.41285" lon="1.02988">
        <ele>179.78093</ele>
        <time>2019-08-17T15:32:32Z</time>
      </trkpt>
      <trkpt lat="44.41288" lon="1.02983">
        <ele>179.924576</ele>
        <time>2019-08-17T15:32:33Z</time>
      </trkpt>
      <trkpt lat="44.41291" lon="1.02979">
        <ele>180.042191</ele>
        <time>2019-08-17T15:32:34Z</time>
      </trkpt>
      <trkpt lat="44.41293" lon="1.02974">
        <ele>180.042191</ele>
        <time>2019-08-17T15:32:35Z</time>
      </trkpt>
      <trkpt lat="44.41296" lon="1.02971">
        <ele>180.190445</ele>
        <time>2019-08-17T15:32:36Z</time>
      </trkpt>
      <trkpt lat="44.41299" lon="1.02968">
        <ele>180.340698</ele>
        <time>2019-08-17T15:32:37Z</time>
      </trkpt>
      <trkpt lat="44.41302" lon="1.02965">
        <ele>180.532349</ele>
        <time>2019-08-17T15:32:38Z</time>
      </trkpt>
      <trkpt lat="44.41303" lon="1.02962">
        <ele>180.749252</ele>
        <time>2019-08-17T15:32:39Z</time>
      </trkpt>
      <trkpt lat="44.41305" lon="1.02961">
        <ele>180.988205</ele>
        <time>2019-08-17T15:32:40Z</time>
      </trkpt>
      <trkpt lat="44.41307" lon="1.0296">
        <ele>181.264816</ele>
        <time>2019-08-17T15:32:41Z</time>
      </trkpt>
      <trkpt lat="44.41307" lon="1.02959">
        <ele>181.506516</ele>
        <time>2019-08-17T15:32:42Z</time>
      </trkpt>
      <trkpt lat="44.41308" lon="1.02959">
        <ele>181.749985</ele>
        <time>2019-08-17T15:32:43Z</time>
      </trkpt>
      <trkpt lat="44.41309" lon="1.02956">
        <ele>182.14183</ele>
        <time>2019-08-17T15:32:44Z</time>
      </trkpt>
      <trkpt lat="44.4131" lon="1.02953">
        <ele>182.28447</ele>
        <time>2019-08-17T15:32:46Z</time>
      </trkpt>
      <trkpt lat="44.41311" lon="1.02949">
        <ele>182.395081</ele>
        <time>2019-08-17T15:32:47Z</time>
      </trkpt>
      <trkpt lat="44.41313" lon="1.02945">
        <ele>182.493423</ele>
        <time>2019-08-17T15:32:48Z</time>
      </trkpt>
      <trkpt lat="44.41314" lon="1.02941">
        <ele>182.493423</ele>
        <time>2019-08-17T15:32:49Z</time>
      </trkpt>
      <trkpt lat="44.41316" lon="1.02936">
        <ele>182.577759</ele>
        <time>2019-08-17T15:32:50Z</time>
      </trkpt>
      <trkpt lat="44.41317" lon="1.0293">
        <ele>182.662109</ele>
        <time>2019-08-17T15:32:51Z</time>
      </trkpt>
      <trkpt lat="44.41318" lon="1.02925">
        <ele>182.662109</ele>
        <time>2019-08-17T15:32:52Z</time>
      </trkpt>
      <trkpt lat="44.41319" lon="1.02919">
        <ele>182.78009</ele>
        <time>2019-08-17T15:32:53Z</time>
      </trkpt>
      <trkpt lat="44.4132" lon="1.02913">
        <ele>182.918961</ele>
        <time>2019-08-17T15:32:54Z</time>
      </trkpt>
      <trkpt lat="44.41322" lon="1.02906">
        <ele>183.105362</ele>
        <time>2019-08-17T15:32:55Z</time>
      </trkpt>
      <trkpt lat="44.41322" lon="1.029">
        <ele>183.316483</ele>
        <time>2019-08-17T15:32:56Z</time>
      </trkpt>
      <trkpt lat="44.41323" lon="1.02894">
        <ele>183.548111</ele>
        <time>2019-08-17T15:32:57Z</time>
      </trkpt>
      <trkpt lat="44.41323" lon="1.02888">
        <ele>183.548111</ele>
        <time>2019-08-17T15:32:58Z</time>
      </trkpt>
      <trkpt lat="44.41324" lon="1.02883">
        <ele>183.780807</ele>
        <time>2019-08-17T15:32:59Z</time>
      </trkpt>
      <trkpt lat="44.41324" lon="1.02877">
        <ele>183.987411</ele>
        <time>2019-08-17T15:33:00Z</time>
      </trkpt>
      <trkpt lat="44.41323" lon="1.02871">
        <ele>184.207626</ele>
        <time>2019-08-17T15:33:01Z</time>
      </trkpt>
      <trkpt lat="44.41322" lon="1.02865">
        <ele>184.396225</ele>
        <time>2019-08-17T15:33:02Z</time>
      </trkpt>
      <trkpt lat="44.41322" lon="1.02859">
        <ele>184.55629</ele>
        <time>2019-08-17T15:33:03Z</time>
      </trkpt>
      <trkpt lat="44.41324" lon="1.02854">
        <ele>184.680893</ele>
        <time>2019-08-17T15:33:04Z</time>
      </trkpt>
      <trkpt lat="44.41324" lon="1.02849">
        <ele>184.781677</ele>
        <time>2019-08-17T15:33:05Z</time>
      </trkpt>
      <trkpt lat="44.41323" lon="1.02844">
        <ele>184.872681</ele>
        <time>2019-08-17T15:33:06Z</time>
      </trkpt>
      <trkpt lat="44.41322" lon="1.02838">
        <ele>184.951797</ele>
        <time>2019-08-17T15:33:07Z</time>
      </trkpt>
      <trkpt lat="44.4132" lon="1.02832">
        <ele>185.005356</ele>
        <time>2019-08-17T15:33:08Z</time>
      </trkpt>
      <trkpt lat="44.41319" lon="1.02826">
        <ele>185.038208</ele>
        <time>2019-08-17T15:33:09Z</time>
      </trkpt>
      <trkpt lat="44.41318" lon="1.0282">
        <ele>185.053635</ele>
        <time>2019-08-17T15:33:10Z</time>
      </trkpt>
      <trkpt lat="44.41317" lon="1.02815">
        <ele>185.053635</ele>
        <time>2019-08-17T15:33:11Z</time>
      </trkpt>
      <trkpt lat="44.41315" lon="1.0281">
        <ele>185.053635</ele>
        <time>2019-08-17T15:33:12Z</time>
      </trkpt>
      <trkpt lat="44.41314" lon="1.02804">
        <ele>185.043503</ele>
        <time>2019-08-17T15:33:13Z</time>
      </trkpt>
      <trkpt lat="44.41312" lon="1.02799">
        <ele>184.993774</ele>
        <time>2019-08-17T15:33:14Z</time>
      </trkpt>
      <trkpt lat="44.41309" lon="1.02795">
        <ele>184.888428</ele>
        <time>2019-08-17T15:33:15Z</time>
      </trkpt>
      <trkpt lat="44.41307" lon="1.0279">
        <ele>184.757034</ele>
        <time>2019-08-17T15:33:16Z</time>
      </trkpt>
      <trkpt lat="44.41304" lon="1.02786">
        <ele>184.757034</ele>
        <time>2019-08-17T15:33:17Z</time>
      </trkpt>
      <trkpt lat="44.41302" lon="1.02781">
        <ele>184.596802</ele>
        <time>2019-08-17T15:33:18Z</time>
      </trkpt>
      <trkpt lat="44.41298" lon="1.02777">
        <ele>184.401749</ele>
        <time>2019-08-17T15:33:19Z</time>
      </trkpt>
      <trkpt lat="44.41294" lon="1.02773">
        <ele>184.1147</ele>
        <time>2019-08-17T15:33:20Z</time>
      </trkpt>
      <trkpt lat="44.41289" lon="1.02769">
        <ele>183.787796</ele>
        <time>2019-08-17T15:33:21Z</time>
      </trkpt>
      <trkpt lat="44.41285" lon="1.02764">
        <ele>183.397385</ele>
        <time>2019-08-17T15:33:22Z</time>
      </trkpt>
      <trkpt lat="44.41282" lon="1.0276">
        <ele>182.925125</ele>
        <time>2019-08-17T15:33:23Z</time>
      </trkpt>
      <trkpt lat="44.41278" lon="1.02757">
        <ele>182.415573</ele>
        <time>2019-08-17T15:33:24Z</time>
      </trkpt>
      <trkpt lat="44.41274" lon="1.02755">
        <ele>181.898514</ele>
        <time>2019-08-17T15:33:25Z</time>
      </trkpt>
      <trkpt lat="44.4127" lon="1.02752">
        <ele>181.440918</ele>
        <time>2019-08-17T15:33:26Z</time>
      </trkpt>
      <trkpt lat="44.41266" lon="1.0275">
        <ele>180.989441</ele>
        <time>2019-08-17T15:33:27Z</time>
      </trkpt>
      <trkpt lat="44.41262" lon="1.02748">
        <ele>180.567062</ele>
        <time>2019-08-17T15:33:28Z</time>
      </trkpt>
      <trkpt lat="44.41256" lon="1.02748">
        <ele>180.198929</ele>
        <time>2019-08-17T15:33:29Z</time>
      </trkpt>
      <trkpt lat="44.41252" lon="1.02747">
        <ele>179.844833</ele>
        <time>2019-08-17T15:33:30Z</time>
      </trkpt>
      <trkpt lat="44.41248" lon="1.02746">
        <ele>179.465164</ele>
        <time>2019-08-17T15:33:31Z</time>
      </trkpt>
      <trkpt lat="44.41243" lon="1.02744">
        <ele>179.051407</ele>
        <time>2019-08-17T15:33:32Z</time>
      </trkpt>
      <trkpt lat="44.4124" lon="1.02743">
        <ele>178.61235</ele>
        <time>2019-08-17T15:33:33Z</time>
      </trkpt>
      <trkpt lat="44.41236" lon="1.02742">
        <ele>178.155045</ele>
        <time>2019-08-17T15:33:34Z</time>
      </trkpt>
      <trkpt lat="44.41232" lon="1.0274">
        <ele>177.680191</ele>
        <time>2019-08-17T15:33:35Z</time>
      </trkpt>
      <trkpt lat="44.41229" lon="1.02739">
        <ele>177.202438</ele>
        <time>2019-08-17T15:33:36Z</time>
      </trkpt>
      <trkpt lat="44.41226" lon="1.02737">
        <ele>176.738525</ele>
        <time>2019-08-17T15:33:37Z</time>
      </trkpt>
      <trkpt lat="44.41222" lon="1.02736">
        <ele>176.738525</ele>
        <time>2019-08-17T15:33:38Z</time>
      </trkpt>
      <trkpt lat="44.41219" lon="1.02736">
        <ele>176.291092</ele>
        <time>2019-08-17T15:33:39Z</time>
      </trkpt>
      <trkpt lat="44.41215" lon="1.02736">
        <ele>175.862656</ele>
        <time>2019-08-17T15:33:40Z</time>
      </trkpt>
      <trkpt lat="44.41211" lon="1.02734">
        <ele>175.594559</ele>
        <time>2019-08-17T15:33:41Z</time>
      </trkpt>
      <trkpt lat="44.41208" lon="1.02732">
        <ele>175.484451</ele>
        <time>2019-08-17T15:33:42Z</time>
      </trkpt>
      <trkpt lat="44.41204" lon="1.02731">
        <ele>175.484451</ele>
        <time>2019-08-17T15:33:43Z</time>
      </trkpt>
      <trkpt lat="44.41201" lon="1.02729">
        <ele>175.484451</ele>
        <time>2019-08-17T15:33:44Z</time>
      </trkpt>
      <trkpt lat="44.41197" lon="1.02728">
        <ele>175.523438</ele>
        <time>2019-08-17T15:33:45Z</time>
      </trkpt>
      <trkpt lat="44.41193" lon="1.02727">
        <ele>175.713989</ele>
        <time>2019-08-17T15:33:46Z</time>
      </trkpt>
      <trkpt lat="44.4119" lon="1.02725">
        <ele>176.057419</ele>
        <time>2019-08-17T15:33:47Z</time>
      </trkpt>
      <trkpt lat="44.41185" lon="1.02722">
        <ele>176.546829</ele>
        <time>2019-08-17T15:33:48Z</time>
      </trkpt>
      <trkpt lat="44.41182" lon="1.02719">
        <ele>177.041519</ele>
        <time>2019-08-17T15:33:49Z</time>
      </trkpt>
      <trkpt lat="44.4118" lon="1.02715">
        <ele>177.546524</ele>
        <time>2019-08-17T15:33:50Z</time>
      </trkpt>
      <trkpt lat="44.41177" lon="1.0271">
        <ele>178.076431</ele>
        <time>2019-08-17T15:33:51Z</time>
      </trkpt>
      <trkpt lat="44.41177" lon="1.02705">
        <ele>178.606857</ele>
        <time>2019-08-17T15:33:52Z</time>
      </trkpt>
      <trkpt lat="44.41177" lon="1.02701">
        <ele>179.120056</ele>
        <time>2019-08-17T15:33:53Z</time>
      </trkpt>
      <trkpt lat="44.41177" lon="1.02698">
        <ele>179.59552</ele>
        <time>2019-08-17T15:33:54Z</time>
      </trkpt>
      <trkpt lat="44.41177" lon="1.02697">
        <ele>179.999008</ele>
        <time>2019-08-17T15:33:55Z</time>
      </trkpt>
      <trkpt lat="44.41182" lon="1.02686">
        <ele>180.377762</ele>
        <time>2019-08-17T15:34:19Z</time>
      </trkpt>
      <trkpt lat="44.41183" lon="1.02685">
        <ele>180.30127</ele>
        <time>2019-08-17T15:34:21Z</time>
      </trkpt>
      <trkpt lat="44.41184" lon="1.02684">
        <ele>180.228836</ele>
        <time>2019-08-17T15:34:22Z</time>
      </trkpt>
      <trkpt lat="44.41184" lon="1.02682">
        <ele>180.228836</ele>
        <time>2019-08-17T15:34:23Z</time>
      </trkpt>
      <trkpt lat="44.41184" lon="1.0268">
        <ele>180.156418</ele>
        <time>2019-08-17T15:34:24Z</time>
      </trkpt>
      <trkpt lat="44.41185" lon="1.02678">
        <ele>180.071777</ele>
        <time>2019-08-17T15:34:25Z</time>
      </trkpt>
      <trkpt lat="44.41186" lon="1.02675">
        <ele>179.987137</ele>
        <time>2019-08-17T15:34:26Z</time>
      </trkpt>
      <trkpt lat="44.41187" lon="1.0267">
        <ele>179.922043</ele>
        <time>2019-08-17T15:34:27Z</time>
      </trkpt>
      <trkpt lat="44.41188" lon="1.02666">
        <ele>179.922043</ele>
        <time>2019-08-17T15:34:28Z</time>
      </trkpt>
      <trkpt lat="44.4119" lon="1.02661">
        <ele>179.836594</ele>
        <time>2019-08-17T15:34:29Z</time>
      </trkpt>
      <trkpt lat="44.41191" lon="1.02655">
        <ele>179.72673</ele>
        <time>2019-08-17T15:34:30Z</time>
      </trkpt>
      <trkpt lat="44.41193" lon="1.02649">
        <ele>179.564774</ele>
        <time>2019-08-17T15:34:31Z</time>
      </trkpt>
      <trkpt lat="44.41195" lon="1.02644">
        <ele>179.564774</ele>
        <time>2019-08-17T15:34:32Z</time>
      </trkpt>
      <trkpt lat="44.41197" lon="1.02639">
        <ele>179.390625</ele>
        <time>2019-08-17T15:34:33Z</time>
      </trkpt>
      <trkpt lat="44.41199" lon="1.02633">
        <ele>179.204269</ele>
        <time>2019-08-17T15:34:34Z</time>
      </trkpt>
      <trkpt lat="44.41201" lon="1.02628">
        <ele>178.937332</ele>
        <time>2019-08-17T15:34:35Z</time>
      </trkpt>
      <trkpt lat="44.41205" lon="1.02623">
        <ele>178.645996</ele>
        <time>2019-08-17T15:34:36Z</time>
      </trkpt>
      <trkpt lat="44.41207" lon="1.02618">
        <ele>178.645996</ele>
        <time>2019-08-17T15:34:37Z</time>
      </trkpt>
      <trkpt lat="44.4121" lon="1.02613">
        <ele>178.326981</ele>
        <time>2019-08-17T15:34:38Z</time>
      </trkpt>
      <trkpt lat="44.41213" lon="1.02608">
        <ele>178.01123</ele>
        <time>2019-08-17T15:34:39Z</time>
      </trkpt>
      <trkpt lat="44.41216" lon="1.02602">
        <ele>177.5905</ele>
        <time>2019-08-17T15:34:40Z</time>
      </trkpt>
      <trkpt lat="44.41218" lon="1.02596">
        <ele>177.5905</ele>
        <time>2019-08-17T15:34:41Z</time>
      </trkpt>
      <trkpt lat="44.4122" lon="1.0259">
        <ele>177.138016</ele>
        <time>2019-08-17T15:34:42Z</time>
      </trkpt>
      <trkpt lat="44.41222" lon="1.02584">
        <ele>176.701004</ele>
        <time>2019-08-17T15:34:43Z</time>
      </trkpt>
      <trkpt lat="44.41223" lon="1.02577">
        <ele>176.1875</ele>
        <time>2019-08-17T15:34:44Z</time>
      </trkpt>
      <trkpt lat="44.41224" lon="1.02571">
        <ele>175.673172</ele>
        <time>2019-08-17T15:34:45Z</time>
      </trkpt>
      <trkpt lat="44.41225" lon="1.02564">
        <ele>175.673172</ele>
        <time>2019-08-17T15:34:46Z</time>
      </trkpt>
      <trkpt lat="44.41226" lon="1.02557">
        <ele>175.242065</ele>
        <time>2019-08-17T15:34:47Z</time>
      </trkpt>
      <trkpt lat="44.41227" lon="1.02551">
        <ele>175.242065</ele>
        <time>2019-08-17T15:34:48Z</time>
      </trkpt>
      <trkpt lat="44.41228" lon="1.02544">
        <ele>175.020737</ele>
        <time>2019-08-17T15:34:49Z</time>
      </trkpt>
      <trkpt lat="44.41229" lon="1.02538">
        <ele>174.899719</ele>
        <time>2019-08-17T15:34:50Z</time>
      </trkpt>
      <trkpt lat="44.41229" lon="1.02532">
        <ele>174.882431</ele>
        <time>2019-08-17T15:34:51Z</time>
      </trkpt>
      <trkpt lat="44.41229" lon="1.02525">
        <ele>174.882431</ele>
        <time>2019-08-17T15:34:52Z</time>
      </trkpt>
      <trkpt lat="44.41229" lon="1.02519">
        <ele>174.882431</ele>
        <time>2019-08-17T15:34:53Z</time>
      </trkpt>
      <trkpt lat="44.41228" lon="1.02513">
        <ele>174.882431</ele>
        <time>2019-08-17T15:34:54Z</time>
      </trkpt>
      <trkpt lat="44.41226" lon="1.02506">
        <ele>175.010437</ele>
        <time>2019-08-17T15:34:55Z</time>
      </trkpt>
      <trkpt lat="44.41225" lon="1.025">
        <ele>175.194763</ele>
        <time>2019-08-17T15:34:56Z</time>
      </trkpt>
      <trkpt lat="44.41224" lon="1.02493">
        <ele>175.194763</ele>
        <time>2019-08-17T15:34:57Z</time>
      </trkpt>
      <trkpt lat="44.41223" lon="1.02487">
        <ele>175.336655</ele>
        <time>2019-08-17T15:34:58Z</time>
      </trkpt>
      <trkpt lat="44.41221" lon="1.0248">
        <ele>175.423767</ele>
        <time>2019-08-17T15:34:59Z</time>
      </trkpt>
      <trkpt lat="44.41219" lon="1.02474">
        <ele>175.489929</ele>
        <time>2019-08-17T15:35:00Z</time>
      </trkpt>
      <trkpt lat="44.41217" lon="1.02467">
        <ele>175.489929</ele>
        <time>2019-08-17T15:35:01Z</time>
      </trkpt>
      <trkpt lat="44.41216" lon="1.02461">
        <ele>175.527634</ele>
        <time>2019-08-17T15:35:02Z</time>
      </trkpt>
      <trkpt lat="44.41214" lon="1.02455">
        <ele>175.59845</ele>
        <time>2019-08-17T15:35:03Z</time>
      </trkpt>
      <trkpt lat="44.41212" lon="1.02449">
        <ele>175.759644</ele>
        <time>2019-08-17T15:35:04Z</time>
      </trkpt>
      <trkpt lat="44.4121" lon="1.02443">
        <ele>175.967606</ele>
        <time>2019-08-17T15:35:05Z</time>
      </trkpt>
      <trkpt lat="44.41207" lon="1.02438">
        <ele>176.21727</ele>
        <time>2019-08-17T15:35:06Z</time>
      </trkpt>
      <trkpt lat="44.41205" lon="1.02432">
        <ele>176.524948</ele>
        <time>2019-08-17T15:35:07Z</time>
      </trkpt>
      <trkpt lat="44.41201" lon="1.02426">
        <ele>176.934219</ele>
        <time>2019-08-17T15:35:08Z</time>
      </trkpt>
      <trkpt lat="44.41199" lon="1.0242">
        <ele>177.395706</ele>
        <time>2019-08-17T15:35:09Z</time>
      </trkpt>
      <trkpt lat="44.41196" lon="1.02414">
        <ele>177.859085</ele>
        <time>2019-08-17T15:35:10Z</time>
      </trkpt>
      <trkpt lat="44.41194" lon="1.02407">
        <ele>178.385925</ele>
        <time>2019-08-17T15:35:11Z</time>
      </trkpt>
      <trkpt lat="44.41192" lon="1.02401">
        <ele>178.962402</ele>
        <time>2019-08-17T15:35:12Z</time>
      </trkpt>
      <trkpt lat="44.41192" lon="1.02394">
        <ele>179.575012</ele>
        <time>2019-08-17T15:35:13Z</time>
      </trkpt>
      <trkpt lat="44.41191" lon="1.02388">
        <ele>180.187088</ele>
        <time>2019-08-17T15:35:14Z</time>
      </trkpt>
      <trkpt lat="44.4119" lon="1.02383">
        <ele>180.777893</ele>
        <time>2019-08-17T15:35:15Z</time>
      </trkpt>
      <trkpt lat="44.4119" lon="1.02378">
        <ele>181.323715</ele>
        <time>2019-08-17T15:35:16Z</time>
      </trkpt>
      <trkpt lat="44.4119" lon="1.02374">
        <ele>181.811157</ele>
        <time>2019-08-17T15:35:17Z</time>
      </trkpt>
      <trkpt lat="44.41191" lon="1.0237">
        <ele>182.247513</ele>
        <time>2019-08-17T15:35:18Z</time>
      </trkpt>
      <trkpt lat="44.41193" lon="1.02366">
        <ele>182.627136</ele>
        <time>2019-08-17T15:35:19Z</time>
      </trkpt>
      <trkpt lat="44.41195" lon="1.02363">
        <ele>182.627136</ele>
        <time>2019-08-17T15:35:20Z</time>
      </trkpt>
      <trkpt lat="44.41197" lon="1.02362">
        <ele>182.946289</ele>
        <time>2019-08-17T15:35:21Z</time>
      </trkpt>
      <trkpt lat="44.412" lon="1.02362">
        <ele>183.190796</ele>
        <time>2019-08-17T15:35:22Z</time>
      </trkpt>
      <trkpt lat="44.41202" lon="1.02361">
        <ele>183.334167</ele>
        <time>2019-08-17T15:35:23Z</time>
      </trkpt>
      <trkpt lat="44.41204" lon="1.02361">
        <ele>183.39119</ele>
        <time>2019-08-17T15:35:24Z</time>
      </trkpt>
      <trkpt lat="44.41205" lon="1.02361">
        <ele>183.39119</ele>
        <time>2019-08-17T15:35:25Z</time>
      </trkpt>
      <trkpt lat="44.41207" lon="1.02361">
        <ele>183.39119</ele>
        <time>2019-08-17T15:35:26Z</time>
      </trkpt>
      <trkpt lat="44.41209" lon="1.0236">
        <ele>183.373291</ele>
        <time>2019-08-17T15:35:27Z</time>
      </trkpt>
      <trkpt lat="44.4121" lon="1.0236">
        <ele>183.291946</ele>
        <time>2019-08-17T15:35:28Z</time>
      </trkpt>
      <trkpt lat="44.41212" lon="1.02359">
        <ele>183.160095</ele>
        <time>2019-08-17T15:35:29Z</time>
      </trkpt>
      <trkpt lat="44.41214" lon="1.02358">
        <ele>183.005005</ele>
        <time>2019-08-17T15:35:30Z</time>
      </trkpt>
      <trkpt lat="44.41216" lon="1.02358">
        <ele>182.864807</ele>
        <time>2019-08-17T15:35:31Z</time>
      </trkpt>
      <trkpt lat="44.41218" lon="1.02357">
        <ele>182.738968</ele>
        <time>2019-08-17T15:35:32Z</time>
      </trkpt>
      <trkpt lat="44.41219" lon="1.02356">
        <ele>182.616837</ele>
        <time>2019-08-17T15:35:33Z</time>
      </trkpt>
      <trkpt lat="44.41221" lon="1.02355">
        <ele>182.49646</ele>
        <time>2019-08-17T15:35:34Z</time>
      </trkpt>
      <trkpt lat="44.41223" lon="1.02354">
        <ele>182.376297</ele>
        <time>2019-08-17T15:35:35Z</time>
      </trkpt>
      <trkpt lat="44.41224" lon="1.02353">
        <ele>182.262329</ele>
        <time>2019-08-17T15:35:36Z</time>
      </trkpt>
      <trkpt lat="44.41225" lon="1.02353">
        <ele>182.158035</ele>
        <time>2019-08-17T15:35:37Z</time>
      </trkpt>
      <trkpt lat="44.41226" lon="1.02352">
        <ele>182.072464</ele>
        <time>2019-08-17T15:35:38Z</time>
      </trkpt>
      <trkpt lat="44.41229" lon="1.02335">
        <ele>182.143387</ele>
        <time>2019-08-17T15:35:58Z</time>
      </trkpt>
      <trkpt lat="44.4123" lon="1.0233">
        <ele>182.237183</ele>
        <time>2019-08-17T15:36:00Z</time>
      </trkpt>
      <trkpt lat="44.41232" lon="1.02325">
        <ele>182.373093</ele>
        <time>2019-08-17T15:36:01Z</time>
      </trkpt>
      <trkpt lat="44.41233" lon="1.02319">
        <ele>182.373093</ele>
        <time>2019-08-17T15:36:02Z</time>
      </trkpt>
      <trkpt lat="44.41235" lon="1.02312">
        <ele>182.550827</ele>
        <time>2019-08-17T15:36:03Z</time>
      </trkpt>
      <trkpt lat="44.41237" lon="1.02305">
        <ele>182.767654</ele>
        <time>2019-08-17T15:36:04Z</time>
      </trkpt>
      <trkpt lat="44.4124" lon="1.02297">
        <ele>182.767654</ele>
        <time>2019-08-17T15:36:05Z</time>
      </trkpt>
      <trkpt lat="44.41242" lon="1.0229">
        <ele>183.071533</ele>
        <time>2019-08-17T15:36:06Z</time>
      </trkpt>
      <trkpt lat="44.41246" lon="1.02282">
        <ele>183.402527</ele>
        <time>2019-08-17T15:36:07Z</time>
      </trkpt>
      <trkpt lat="44.41249" lon="1.02274">
        <ele>183.777405</ele>
        <time>2019-08-17T15:36:08Z</time>
      </trkpt>
      <trkpt lat="44.41253" lon="1.02267">
        <ele>184.137711</ele>
        <time>2019-08-17T15:36:09Z</time>
      </trkpt>
      <trkpt lat="44.41257" lon="1.02259">
        <ele>184.137711</ele>
        <time>2019-08-17T15:36:10Z</time>
      </trkpt>
      <trkpt lat="44.41261" lon="1.02251">
        <ele>184.459061</ele>
        <time>2019-08-17T15:36:11Z</time>
      </trkpt>
      <trkpt lat="44.41264" lon="1.02244">
        <ele>184.711929</ele>
        <time>2019-08-17T15:36:12Z</time>
      </trkpt>
      <trkpt lat="44.41268" lon="1.02236">
        <ele>184.835999</ele>
        <time>2019-08-17T15:36:13Z</time>
      </trkpt>
      <trkpt lat="44.41272" lon="1.02227">
        <ele>184.86438</ele>
        <time>2019-08-17T15:36:14Z</time>
      </trkpt>
      <trkpt lat="44.41277" lon="1.02219">
        <ele>184.86438</ele>
        <time>2019-08-17T15:36:15Z</time>
      </trkpt>
      <trkpt lat="44.41282" lon="1.02212">
        <ele>184.86438</ele>
        <time>2019-08-17T15:36:16Z</time>
      </trkpt>
      <trkpt lat="44.41287" lon="1.02205">
        <ele>184.86438</ele>
        <time>2019-08-17T15:36:17Z</time>
      </trkpt>
      <trkpt lat="44.41291" lon="1.02198">
        <ele>184.86438</ele>
        <time>2019-08-17T15:36:18Z</time>
      </trkpt>
      <trkpt lat="44.41296" lon="1.02191">
        <ele>184.684647</ele>
        <time>2019-08-17T15:36:19Z</time>
      </trkpt>
      <trkpt lat="44.41301" lon="1.02184">
        <ele>184.388916</ele>
        <time>2019-08-17T15:36:20Z</time>
      </trkpt>
      <trkpt lat="44.41305" lon="1.02177">
        <ele>183.892502</ele>
        <time>2019-08-17T15:36:21Z</time>
      </trkpt>
      <trkpt lat="44.41309" lon="1.02171">
        <ele>183.312302</ele>
        <time>2019-08-17T15:36:22Z</time>
      </trkpt>
      <trkpt lat="44.4131" lon="1.02164">
        <ele>182.638535</ele>
        <time>2019-08-17T15:36:23Z</time>
      </trkpt>
      <trkpt lat="44.4131" lon="1.02156">
        <ele>181.896057</ele>
        <time>2019-08-17T15:36:24Z</time>
      </trkpt>
      <trkpt lat="44.41309" lon="1.02149">
        <ele>181.195923</ele>
        <time>2019-08-17T15:36:25Z</time>
      </trkpt>
      <trkpt lat="44.41309" lon="1.02142">
        <ele>180.617294</ele>
        <time>2019-08-17T15:36:26Z</time>
      </trkpt>
      <trkpt lat="44.41308" lon="1.02135">
        <ele>180.265442</ele>
        <time>2019-08-17T15:36:27Z</time>
      </trkpt>
      <trkpt lat="44.41307" lon="1.02128">
        <ele>180.055923</ele>
        <time>2019-08-17T15:36:28Z</time>
      </trkpt>
      <trkpt lat="44.41306" lon="1.02121">
        <ele>180.004639</ele>
        <time>2019-08-17T15:36:29Z</time>
      </trkpt>
      <trkpt lat="44.41306" lon="1.02114">
        <ele>180.004639</ele>
        <time>2019-08-17T15:36:30Z</time>
      </trkpt>
      <trkpt lat="44.41304" lon="1.02108">
        <ele>180.004639</ele>
        <time>2019-08-17T15:36:31Z</time>
      </trkpt>
      <trkpt lat="44.41304" lon="1.02101">
        <ele>180.004639</ele>
        <time>2019-08-17T15:36:32Z</time>
      </trkpt>
      <trkpt lat="44.41303" lon="1.02095">
        <ele>180.101242</ele>
        <time>2019-08-17T15:36:33Z</time>
      </trkpt>
      <trkpt lat="44.41303" lon="1.02089">
        <ele>180.101242</ele>
        <time>2019-08-17T15:36:34Z</time>
      </trkpt>
      <trkpt lat="44.41304" lon="1.02085">
        <ele>180.351395</ele>
        <time>2019-08-17T15:36:35Z</time>
      </trkpt>
      <trkpt lat="44.41306" lon="1.02081">
        <ele>180.606445</ele>
        <time>2019-08-17T15:36:36Z</time>
      </trkpt>
      <trkpt lat="44.41308" lon="1.02077">
        <ele>180.838989</ele>
        <time>2019-08-17T15:36:37Z</time>
      </trkpt>
      <trkpt lat="44.41311" lon="1.02073">
        <ele>180.838989</ele>
        <time>2019-08-17T15:36:38Z</time>
      </trkpt>
      <trkpt lat="44.41313" lon="1.0207">
        <ele>180.952103</ele>
        <time>2019-08-17T15:36:39Z</time>
      </trkpt>
      <trkpt lat="44.41315" lon="1.02066">
        <ele>180.981674</ele>
        <time>2019-08-17T15:36:40Z</time>
      </trkpt>
      <trkpt lat="44.41317" lon="1.02062">
        <ele>180.981674</ele>
        <time>2019-08-17T15:36:41Z</time>
      </trkpt>
      <trkpt lat="44.4132" lon="1.02057">
        <ele>180.981674</ele>
        <time>2019-08-17T15:36:42Z</time>
      </trkpt>
      <trkpt lat="44.41323" lon="1.02053">
        <ele>180.981674</ele>
        <time>2019-08-17T15:36:43Z</time>
      </trkpt>
      <trkpt lat="44.41326" lon="1.02049">
        <ele>180.936661</ele>
        <time>2019-08-17T15:36:44Z</time>
      </trkpt>
      <trkpt lat="44.41329" lon="1.02044">
        <ele>180.74556</ele>
        <time>2019-08-17T15:36:45Z</time>
      </trkpt>
      <trkpt lat="44.41332" lon="1.02039">
        <ele>180.464127</ele>
        <time>2019-08-17T15:36:46Z</time>
      </trkpt>
      <trkpt lat="44.41335" lon="1.02034">
        <ele>180.116211</ele>
        <time>2019-08-17T15:36:47Z</time>
      </trkpt>
      <trkpt lat="44.41338" lon="1.02029">
        <ele>179.79631</ele>
        <time>2019-08-17T15:36:48Z</time>
      </trkpt>
      <trkpt lat="44.41341" lon="1.02025">
        <ele>179.468552</ele>
        <time>2019-08-17T15:36:49Z</time>
      </trkpt>
      <trkpt lat="44.41344" lon="1.02021">
        <ele>179.131226</ele>
        <time>2019-08-17T15:36:50Z</time>
      </trkpt>
      <trkpt lat="44.41346" lon="1.02016">
        <ele>178.832321</ele>
        <time>2019-08-17T15:36:51Z</time>
      </trkpt>
      <trkpt lat="44.41347" lon="1.02011">
        <ele>178.832321</ele>
        <time>2019-08-17T15:36:52Z</time>
      </trkpt>
      <trkpt lat="44.41349" lon="1.02006">
        <ele>178.551392</ele>
        <time>2019-08-17T15:36:53Z</time>
      </trkpt>
      <trkpt lat="44.4135" lon="1.02001">
        <ele>178.296829</ele>
        <time>2019-08-17T15:36:54Z</time>
      </trkpt>
      <trkpt lat="44.41351" lon="1.01996">
        <ele>178.296829</ele>
        <time>2019-08-17T15:36:55Z</time>
      </trkpt>
      <trkpt lat="44.41353" lon="1.01992">
        <ele>178.100281</ele>
        <time>2019-08-17T15:36:56Z</time>
      </trkpt>
      <trkpt lat="44.41354" lon="1.01987">
        <ele>177.958878</ele>
        <time>2019-08-17T15:36:57Z</time>
      </trkpt>
      <trkpt lat="44.41356" lon="1.01982">
        <ele>177.873108</ele>
        <time>2019-08-17T15:36:58Z</time>
      </trkpt>
      <trkpt lat="44.41357" lon="1.01977">
        <ele>177.873108</ele>
        <time>2019-08-17T15:36:59Z</time>
      </trkpt>
      <trkpt lat="44.41359" lon="1.01973">
        <ele>177.829773</ele>
        <time>2019-08-17T15:37:00Z</time>
      </trkpt>
      <trkpt lat="44.4136" lon="1.01968">
        <ele>177.829773</ele>
        <time>2019-08-17T15:37:01Z</time>
      </trkpt>
      <trkpt lat="44.41361" lon="1.01964">
        <ele>177.829773</ele>
        <time>2019-08-17T15:37:02Z</time>
      </trkpt>
      <trkpt lat="44.41362" lon="1.01959">
        <ele>177.829773</ele>
        <time>2019-08-17T15:37:03Z</time>
      </trkpt>
      <trkpt lat="44.41363" lon="1.01956">
        <ele>177.833389</ele>
        <time>2019-08-17T15:37:04Z</time>
      </trkpt>
      <trkpt lat="44.41364" lon="1.01952">
        <ele>177.88179</ele>
        <time>2019-08-17T15:37:05Z</time>
      </trkpt>
      <trkpt lat="44.41364" lon="1.01949">
        <ele>177.945511</ele>
        <time>2019-08-17T15:37:06Z</time>
      </trkpt>
      <trkpt lat="44.41365" lon="1.01946">
        <ele>178.010132</ele>
        <time>2019-08-17T15:37:07Z</time>
      </trkpt>
      <trkpt lat="44.41366" lon="1.01943">
        <ele>178.010132</ele>
        <time>2019-08-17T15:37:08Z</time>
      </trkpt>
      <trkpt lat="44.41367" lon="1.0194">
        <ele>178.071976</ele>
        <time>2019-08-17T15:37:09Z</time>
      </trkpt>
      <trkpt lat="44.41369" lon="1.01938">
        <ele>178.140198</ele>
        <time>2019-08-17T15:37:10Z</time>
      </trkpt>
      <trkpt lat="44.41371" lon="1.01936">
        <ele>178.140198</ele>
        <time>2019-08-17T15:37:11Z</time>
      </trkpt>
      <trkpt lat="44.41372" lon="1.01933">
        <ele>178.187363</ele>
        <time>2019-08-17T15:37:12Z</time>
      </trkpt>
      <trkpt lat="44.41373" lon="1.0193">
        <ele>178.21521</ele>
        <time>2019-08-17T15:37:13Z</time>
      </trkpt>
      <trkpt lat="44.41374" lon="1.01928">
        <ele>178.224731</ele>
        <time>2019-08-17T15:37:14Z</time>
      </trkpt>
      <trkpt lat="44.41375" lon="1.01925">
        <ele>178.233627</ele>
        <time>2019-08-17T15:37:15Z</time>
      </trkpt>
      <trkpt lat="44.41375" lon="1.01921">
        <ele>178.245071</ele>
        <time>2019-08-17T15:37:16Z</time>
      </trkpt>
      <trkpt lat="44.41375" lon="1.01917">
        <ele>178.2668</ele>
        <time>2019-08-17T15:37:17Z</time>
      </trkpt>
      <trkpt lat="44.41374" lon="1.01913">
        <ele>178.287781</ele>
        <time>2019-08-17T15:37:18Z</time>
      </trkpt>
      <trkpt lat="44.41373" lon="1.01909">
        <ele>178.302078</ele>
        <time>2019-08-17T15:37:19Z</time>
      </trkpt>
      <trkpt lat="44.41373" lon="1.01905">
        <ele>178.320297</ele>
        <time>2019-08-17T15:37:20Z</time>
      </trkpt>
      <trkpt lat="44.41372" lon="1.01901">
        <ele>178.367752</ele>
        <time>2019-08-17T15:37:21Z</time>
      </trkpt>
      <trkpt lat="44.41371" lon="1.01898">
        <ele>178.367752</ele>
        <time>2019-08-17T15:37:22Z</time>
      </trkpt>
      <trkpt lat="44.4137" lon="1.01894">
        <ele>178.456604</ele>
        <time>2019-08-17T15:37:23Z</time>
      </trkpt>
      <trkpt lat="44.41369" lon="1.01891">
        <ele>178.571732</ele>
        <time>2019-08-17T15:37:24Z</time>
      </trkpt>
      <trkpt lat="44.41367" lon="1.01888">
        <ele>178.571732</ele>
        <time>2019-08-17T15:37:25Z</time>
      </trkpt>
      <trkpt lat="44.41365" lon="1.01884">
        <ele>178.722351</ele>
        <time>2019-08-17T15:37:26Z</time>
      </trkpt>
      <trkpt lat="44.41364" lon="1.0188">
        <ele>178.864944</ele>
        <time>2019-08-17T15:37:27Z</time>
      </trkpt>
      <trkpt lat="44.41362" lon="1.01876">
        <ele>178.864944</ele>
        <time>2019-08-17T15:37:28Z</time>
      </trkpt>
      <trkpt lat="44.4136" lon="1.01872">
        <ele>178.98967</ele>
        <time>2019-08-17T15:37:29Z</time>
      </trkpt>
      <trkpt lat="44.41357" lon="1.01867">
        <ele>179.089722</ele>
        <time>2019-08-17T15:37:30Z</time>
      </trkpt>
      <trkpt lat="44.41355" lon="1.01863">
        <ele>179.16774</ele>
        <time>2019-08-17T15:37:31Z</time>
      </trkpt>
      <trkpt lat="44.41353" lon="1.01858">
        <ele>179.16774</ele>
        <time>2019-08-17T15:37:32Z</time>
      </trkpt>
      <trkpt lat="44.4135" lon="1.01854">
        <ele>179.206284</ele>
        <time>2019-08-17T15:37:33Z</time>
      </trkpt>
      <trkpt lat="44.41348" lon="1.01849">
        <ele>179.206284</ele>
        <time>2019-08-17T15:37:34Z</time>
      </trkpt>
      <trkpt lat="44.41345" lon="1.01844">
        <ele>179.206284</ele>
        <time>2019-08-17T15:37:35Z</time>
      </trkpt>
      <trkpt lat="44.41341" lon="1.01841">
        <ele>179.19043</ele>
        <time>2019-08-17T15:37:36Z</time>
      </trkpt>
      <trkpt lat="44.41337" lon="1.01836">
        <ele>179.19043</ele>
        <time>2019-08-17T15:37:37Z</time>
      </trkpt>
      <trkpt lat="44.41334" lon="1.01831">
        <ele>179.167465</ele>
        <time>2019-08-17T15:37:38Z</time>
      </trkpt>
      <trkpt lat="44.4133" lon="1.01824">
        <ele>179.127853</ele>
        <time>2019-08-17T15:37:39Z</time>
      </trkpt>
      <trkpt lat="44.41329" lon="1.01817">
        <ele>179.078903</ele>
        <time>2019-08-17T15:37:40Z</time>
      </trkpt>
      <trkpt lat="44.41328" lon="1.01809">
        <ele>179.011597</ele>
        <time>2019-08-17T15:37:41Z</time>
      </trkpt>
      <trkpt lat="44.41328" lon="1.01801">
        <ele>178.899246</ele>
        <time>2019-08-17T15:37:42Z</time>
      </trkpt>
      <trkpt lat="44.41329" lon="1.01793">
        <ele>178.714417</ele>
        <time>2019-08-17T15:37:43Z</time>
      </trkpt>
      <trkpt lat="44.4133" lon="1.01786">
        <ele>178.445175</ele>
        <time>2019-08-17T15:37:44Z</time>
      </trkpt>
      <trkpt lat="44.41331" lon="1.01779">
        <ele>178.092819</ele>
        <time>2019-08-17T15:37:45Z</time>
      </trkpt>
      <trkpt lat="44.41333" lon="1.01773">
        <ele>177.655716</ele>
        <time>2019-08-17T15:37:46Z</time>
      </trkpt>
      <trkpt lat="44.41334" lon="1.01767">
        <ele>177.655716</ele>
        <time>2019-08-17T15:37:47Z</time>
      </trkpt>
      <trkpt lat="44.41335" lon="1.0176">
        <ele>177.14888</ele>
        <time>2019-08-17T15:37:48Z</time>
      </trkpt>
      <trkpt lat="44.41337" lon="1.01753">
        <ele>176.618149</ele>
        <time>2019-08-17T15:37:49Z</time>
      </trkpt>
      <trkpt lat="44.41338" lon="1.01748">
        <ele>176.618149</ele>
        <time>2019-08-17T15:37:50Z</time>
      </trkpt>
      <trkpt lat="44.4134" lon="1.01743">
        <ele>176.016922</ele>
        <time>2019-08-17T15:37:51Z</time>
      </trkpt>
      <trkpt lat="44.4134" lon="1.01739">
        <ele>175.436035</ele>
        <time>2019-08-17T15:37:52Z</time>
      </trkpt>
      <trkpt lat="44.4134" lon="1.01736">
        <ele>175.436035</ele>
        <time>2019-08-17T15:37:53Z</time>
      </trkpt>
      <trkpt lat="44.4134" lon="1.01733">
        <ele>174.83992</ele>
        <time>2019-08-17T15:37:54Z</time>
      </trkpt>
      <trkpt lat="44.41339" lon="1.0173">
        <ele>174.298111</ele>
        <time>2019-08-17T15:37:55Z</time>
      </trkpt>
      <trkpt lat="44.41338" lon="1.01727">
        <ele>173.778137</ele>
        <time>2019-08-17T15:37:56Z</time>
      </trkpt>
      <trkpt lat="44.41335" lon="1.01723">
        <ele>173.778137</ele>
        <time>2019-08-17T15:37:57Z</time>
      </trkpt>
      <trkpt lat="44.41332" lon="1.01721">
        <ele>173.313492</ele>
        <time>2019-08-17T15:37:58Z</time>
      </trkpt>
      <trkpt lat="44.41328" lon="1.01718">
        <ele>172.975174</ele>
        <time>2019-08-17T15:37:59Z</time>
      </trkpt>
      <trkpt lat="44.41324" lon="1.01716">
        <ele>172.975174</ele>
        <time>2019-08-17T15:38:00Z</time>
      </trkpt>
      <trkpt lat="44.41319" lon="1.01713">
        <ele>172.644043</ele>
        <time>2019-08-17T15:38:01Z</time>
      </trkpt>
      <trkpt lat="44.41314" lon="1.0171">
        <ele>172.385849</ele>
        <time>2019-08-17T15:38:02Z</time>
      </trkpt>
      <trkpt lat="44.41309" lon="1.01707">
        <ele>172.093948</ele>
        <time>2019-08-17T15:38:03Z</time>
      </trkpt>
      <trkpt lat="44.41304" lon="1.01704">
        <ele>171.823898</ele>
        <time>2019-08-17T15:38:04Z</time>
      </trkpt>
      <trkpt lat="44.41298" lon="1.017">
        <ele>171.529922</ele>
        <time>2019-08-17T15:38:05Z</time>
      </trkpt>
      <trkpt lat="44.41294" lon="1.01695">
        <ele>171.210434</ele>
        <time>2019-08-17T15:38:06Z</time>
      </trkpt>
      <trkpt lat="44.4129" lon="1.01689">
        <ele>170.902222</ele>
        <time>2019-08-17T15:38:07Z</time>
      </trkpt>
      <trkpt lat="44.41286" lon="1.01681">
        <ele>170.565262</ele>
        <time>2019-08-17T15:38:08Z</time>
      </trkpt>
      <trkpt lat="44.41283" lon="1.01674">
        <ele>170.221283</ele>
        <time>2019-08-17T15:38:09Z</time>
      </trkpt>
      <trkpt lat="44.41282" lon="1.01666">
        <ele>169.843124</ele>
        <time>2019-08-17T15:38:10Z</time>
      </trkpt>
      <trkpt lat="44.4128" lon="1.01658">
        <ele>169.44101</ele>
        <time>2019-08-17T15:38:11Z</time>
      </trkpt>
      <trkpt lat="44.41278" lon="1.01652">
        <ele>169.009476</ele>
        <time>2019-08-17T15:38:12Z</time>
      </trkpt>
      <trkpt lat="44.41276" lon="1.01646">
        <ele>168.548401</ele>
        <time>2019-08-17T15:38:13Z</time>
      </trkpt>
      <trkpt lat="44.41275" lon="1.01641">
        <ele>168.067932</ele>
        <time>2019-08-17T15:38:14Z</time>
      </trkpt>
      <trkpt lat="44.41274" lon="1.01637">
        <ele>168.067932</ele>
        <time>2019-08-17T15:38:15Z</time>
      </trkpt>
      <trkpt lat="44.41272" lon="1.01633">
        <ele>167.59407</ele>
        <time>2019-08-17T15:38:16Z</time>
      </trkpt>
      <trkpt lat="44.41271" lon="1.01628">
        <ele>167.132996</ele>
        <time>2019-08-17T15:38:17Z</time>
      </trkpt>
      <trkpt lat="44.41269" lon="1.01625">
        <ele>166.629333</ele>
        <time>2019-08-17T15:38:18Z</time>
      </trkpt>
      <trkpt lat="44.41267" lon="1.0162">
        <ele>166.159058</ele>
        <time>2019-08-17T15:38:19Z</time>
      </trkpt>
      <trkpt lat="44.41264" lon="1.01617">
        <ele>165.720825</ele>
        <time>2019-08-17T15:38:20Z</time>
      </trkpt>
      <trkpt lat="44.41261" lon="1.01614">
        <ele>165.313263</ele>
        <time>2019-08-17T15:38:21Z</time>
      </trkpt>
      <trkpt lat="44.41257" lon="1.01612">
        <ele>164.950256</ele>
        <time>2019-08-17T15:38:22Z</time>
      </trkpt>
      <trkpt lat="44.41253" lon="1.01611">
        <ele>164.630173</ele>
        <time>2019-08-17T15:38:23Z</time>
      </trkpt>
      <trkpt lat="44.4125" lon="1.0161">
        <ele>164.403473</ele>
        <time>2019-08-17T15:38:24Z</time>
      </trkpt>
      <trkpt lat="44.41246" lon="1.01609">
        <ele>164.201324</ele>
        <time>2019-08-17T15:38:25Z</time>
      </trkpt>
      <trkpt lat="44.41242" lon="1.01607">
        <ele>164.031876</ele>
        <time>2019-08-17T15:38:26Z</time>
      </trkpt>
      <trkpt lat="44.41239" lon="1.01605">
        <ele>163.894608</ele>
        <time>2019-08-17T15:38:27Z</time>
      </trkpt>
      <trkpt lat="44.41236" lon="1.01602">
        <ele>163.765869</ele>
        <time>2019-08-17T15:38:28Z</time>
      </trkpt>
      <trkpt lat="44.41233" lon="1.01598">
        <ele>163.638428</ele>
        <time>2019-08-17T15:38:29Z</time>
      </trkpt>
      <trkpt lat="44.41232" lon="1.01594">
        <ele>163.511719</ele>
        <time>2019-08-17T15:38:30Z</time>
      </trkpt>
      <trkpt lat="44.4123" lon="1.01589">
        <ele>163.384354</ele>
        <time>2019-08-17T15:38:31Z</time>
      </trkpt>
      <trkpt lat="44.41228" lon="1.01584">
        <ele>163.256836</ele>
        <time>2019-08-17T15:38:32Z</time>
      </trkpt>
      <trkpt lat="44.41226" lon="1.01579">
        <ele>163.256836</ele>
        <time>2019-08-17T15:38:33Z</time>
      </trkpt>
      <trkpt lat="44.41225" lon="1.01574">
        <ele>163.128586</ele>
        <time>2019-08-17T15:38:34Z</time>
      </trkpt>
      <trkpt lat="44.41223" lon="1.01568">
        <ele>163.000809</ele>
        <time>2019-08-17T15:38:35Z</time>
      </trkpt>
      <trkpt lat="44.41222" lon="1.01562">
        <ele>162.854004</ele>
        <time>2019-08-17T15:38:36Z</time>
      </trkpt>
      <trkpt lat="44.4122" lon="1.01557">
        <ele>162.708008</ele>
        <time>2019-08-17T15:38:37Z</time>
      </trkpt>
      <trkpt lat="44.41219" lon="1.0155">
        <ele>162.563965</ele>
        <time>2019-08-17T15:38:38Z</time>
      </trkpt>
      <trkpt lat="44.41218" lon="1.01545">
        <ele>162.430634</ele>
        <time>2019-08-17T15:38:39Z</time>
      </trkpt>
      <trkpt lat="44.41217" lon="1.01539">
        <ele>162.330383</ele>
        <time>2019-08-17T15:38:40Z</time>
      </trkpt>
      <trkpt lat="44.41216" lon="1.01533">
        <ele>162.263138</ele>
        <time>2019-08-17T15:38:41Z</time>
      </trkpt>
      <trkpt lat="44.41215" lon="1.01528">
        <ele>162.247849</ele>
        <time>2019-08-17T15:38:42Z</time>
      </trkpt>
      <trkpt lat="44.41214" lon="1.01522">
        <ele>162.247849</ele>
        <time>2019-08-17T15:38:43Z</time>
      </trkpt>
      <trkpt lat="44.41213" lon="1.01515">
        <ele>162.247849</ele>
        <time>2019-08-17T15:38:44Z</time>
      </trkpt>
      <trkpt lat="44.41213" lon="1.01509">
        <ele>162.264938</ele>
        <time>2019-08-17T15:38:45Z</time>
      </trkpt>
      <trkpt lat="44.41214" lon="1.01502">
        <ele>162.314316</ele>
        <time>2019-08-17T15:38:46Z</time>
      </trkpt>
      <trkpt lat="44.41214" lon="1.01495">
        <ele>162.385147</ele>
        <time>2019-08-17T15:38:47Z</time>
      </trkpt>
      <trkpt lat="44.41214" lon="1.01488">
        <ele>162.455383</ele>
        <time>2019-08-17T15:38:48Z</time>
      </trkpt>
      <trkpt lat="44.41215" lon="1.01482">
        <ele>162.524582</ele>
        <time>2019-08-17T15:38:49Z</time>
      </trkpt>
      <trkpt lat="44.41215" lon="1.01476">
        <ele>162.594498</ele>
        <time>2019-08-17T15:38:50Z</time>
      </trkpt>
      <trkpt lat="44.41216" lon="1.0147">
        <ele>162.666153</ele>
        <time>2019-08-17T15:38:51Z</time>
      </trkpt>
      <trkpt lat="44.41216" lon="1.01463">
        <ele>162.728394</ele>
        <time>2019-08-17T15:38:52Z</time>
      </trkpt>
      <trkpt lat="44.41217" lon="1.01457">
        <ele>162.779434</ele>
        <time>2019-08-17T15:38:53Z</time>
      </trkpt>
      <trkpt lat="44.41217" lon="1.0145">
        <ele>162.779434</ele>
        <time>2019-08-17T15:38:54Z</time>
      </trkpt>
      <trkpt lat="44.41219" lon="1.01444">
        <ele>162.819443</ele>
        <time>2019-08-17T15:38:55Z</time>
      </trkpt>
      <trkpt lat="44.41219" lon="1.01437">
        <ele>162.84819</ele>
        <time>2019-08-17T15:38:56Z</time>
      </trkpt>
      <trkpt lat="44.4122" lon="1.01431">
        <ele>162.864807</ele>
        <time>2019-08-17T15:38:57Z</time>
      </trkpt>
      <trkpt lat="44.41221" lon="1.01424">
        <ele>162.871033</ele>
        <time>2019-08-17T15:38:58Z</time>
      </trkpt>
      <trkpt lat="44.41221" lon="1.01418">
        <ele>162.871033</ele>
        <time>2019-08-17T15:38:59Z</time>
      </trkpt>
      <trkpt lat="44.41222" lon="1.01411">
        <ele>162.877731</ele>
        <time>2019-08-17T15:39:00Z</time>
      </trkpt>
      <trkpt lat="44.41223" lon="1.01405">
        <ele>162.886398</ele>
        <time>2019-08-17T15:39:01Z</time>
      </trkpt>
      <trkpt lat="44.41224" lon="1.01399">
        <ele>162.886398</ele>
        <time>2019-08-17T15:39:02Z</time>
      </trkpt>
      <trkpt lat="44.41225" lon="1.01393">
        <ele>162.898361</ele>
        <time>2019-08-17T15:39:03Z</time>
      </trkpt>
      <trkpt lat="44.41225" lon="1.01387">
        <ele>162.945053</ele>
        <time>2019-08-17T15:39:04Z</time>
      </trkpt>
      <trkpt lat="44.41226" lon="1.01381">
        <ele>163.063583</ele>
        <time>2019-08-17T15:39:05Z</time>
      </trkpt>
      <trkpt lat="44.41227" lon="1.01375">
        <ele>163.215912</ele>
        <time>2019-08-17T15:39:06Z</time>
      </trkpt>
      <trkpt lat="44.41228" lon="1.0137">
        <ele>163.403763</ele>
        <time>2019-08-17T15:39:07Z</time>
      </trkpt>
      <trkpt lat="44.41229" lon="1.01364">
        <ele>163.625198</ele>
        <time>2019-08-17T15:39:08Z</time>
      </trkpt>
      <trkpt lat="44.4123" lon="1.01359">
        <ele>163.878616</ele>
        <time>2019-08-17T15:39:09Z</time>
      </trkpt>
      <trkpt lat="44.41232" lon="1.01354">
        <ele>164.135422</ele>
        <time>2019-08-17T15:39:10Z</time>
      </trkpt>
      <trkpt lat="44.41233" lon="1.01349">
        <ele>164.356277</ele>
        <time>2019-08-17T15:39:11Z</time>
      </trkpt>
      <trkpt lat="44.41234" lon="1.01344">
        <ele>164.576492</ele>
        <time>2019-08-17T15:39:12Z</time>
      </trkpt>
      <trkpt lat="44.41236" lon="1.01339">
        <ele>164.796707</ele>
        <time>2019-08-17T15:39:13Z</time>
      </trkpt>
      <trkpt lat="44.41237" lon="1.01334">
        <ele>165.017654</ele>
        <time>2019-08-17T15:39:14Z</time>
      </trkpt>
      <trkpt lat="44.41237" lon="1.01329">
        <ele>165.226395</ele>
        <time>2019-08-17T15:39:15Z</time>
      </trkpt>
      <trkpt lat="44.41237" lon="1.01323">
        <ele>165.226395</ele>
        <time>2019-08-17T15:39:16Z</time>
      </trkpt>
      <trkpt lat="44.41236" lon="1.01318">
        <ele>165.423019</ele>
        <time>2019-08-17T15:39:17Z</time>
      </trkpt>
      <trkpt lat="44.41234" lon="1.01313">
        <ele>165.605881</ele>
        <time>2019-08-17T15:39:18Z</time>
      </trkpt>
      <trkpt lat="44.41233" lon="1.01308">
        <ele>165.777176</ele>
        <time>2019-08-17T15:39:19Z</time>
      </trkpt>
      <trkpt lat="44.41231" lon="1.01304">
        <ele>165.911865</ele>
        <time>2019-08-17T15:39:20Z</time>
      </trkpt>
      <trkpt lat="44.41229" lon="1.01299">
        <ele>166.005539</ele>
        <time>2019-08-17T15:39:21Z</time>
      </trkpt>
      <trkpt lat="44.41227" lon="1.01295">
        <ele>166.065842</ele>
        <time>2019-08-17T15:39:22Z</time>
      </trkpt>
      <trkpt lat="44.41225" lon="1.0129">
        <ele>166.090744</ele>
        <time>2019-08-17T15:39:23Z</time>
      </trkpt>
      <trkpt lat="44.41223" lon="1.01286">
        <ele>166.090744</ele>
        <time>2019-08-17T15:39:24Z</time>
      </trkpt>
      <trkpt lat="44.41221" lon="1.01281">
        <ele>166.090744</ele>
        <time>2019-08-17T15:39:25Z</time>
      </trkpt>
      <trkpt lat="44.41219" lon="1.01276">
        <ele>166.082275</ele>
        <time>2019-08-17T15:39:26Z</time>
      </trkpt>
      <trkpt lat="44.41216" lon="1.01271">
        <ele>166.040451</ele>
        <time>2019-08-17T15:39:27Z</time>
      </trkpt>
      <trkpt lat="44.41213" lon="1.01267">
        <ele>165.99324</ele>
        <time>2019-08-17T15:39:28Z</time>
      </trkpt>
      <trkpt lat="44.41211" lon="1.01262">
        <ele>165.94722</ele>
        <time>2019-08-17T15:39:29Z</time>
      </trkpt>
      <trkpt lat="44.41208" lon="1.01257">
        <ele>165.904846</ele>
        <time>2019-08-17T15:39:30Z</time>
      </trkpt>
      <trkpt lat="44.41205" lon="1.01252">
        <ele>165.868454</ele>
        <time>2019-08-17T15:39:31Z</time>
      </trkpt>
      <trkpt lat="44.41203" lon="1.01248">
        <ele>165.837494</ele>
        <time>2019-08-17T15:39:32Z</time>
      </trkpt>
      <trkpt lat="44.41199" lon="1.01243">
        <ele>165.837494</ele>
        <time>2019-08-17T15:39:33Z</time>
      </trkpt>
      <trkpt lat="44.41195" lon="1.01239">
        <ele>165.812393</ele>
        <time>2019-08-17T15:39:34Z</time>
      </trkpt>
      <trkpt lat="44.41191" lon="1.01234">
        <ele>165.78894</ele>
        <time>2019-08-17T15:39:35Z</time>
      </trkpt>
      <trkpt lat="44.41187" lon="1.0123">
        <ele>165.759521</ele>
        <time>2019-08-17T15:39:36Z</time>
      </trkpt>
      <trkpt lat="44.41182" lon="1.01227">
        <ele>165.728256</ele>
        <time>2019-08-17T15:39:37Z</time>
      </trkpt>
      <trkpt lat="44.41177" lon="1.01225">
        <ele>165.694016</ele>
        <time>2019-08-17T15:39:38Z</time>
      </trkpt>
      <trkpt lat="44.41172" lon="1.01223">
        <ele>165.654312</ele>
        <time>2019-08-17T15:39:39Z</time>
      </trkpt>
      <trkpt lat="44.41167" lon="1.01223">
        <ele>165.603867</ele>
        <time>2019-08-17T15:39:40Z</time>
      </trkpt>
      <trkpt lat="44.41161" lon="1.01223">
        <ele>165.539734</ele>
        <time>2019-08-17T15:39:41Z</time>
      </trkpt>
      <trkpt lat="44.41154" lon="1.01224">
        <ele>165.463928</ele>
        <time>2019-08-17T15:39:42Z</time>
      </trkpt>
      <trkpt lat="44.41147" lon="1.01225">
        <ele>165.367905</ele>
        <time>2019-08-17T15:39:43Z</time>
      </trkpt>
      <trkpt lat="44.4114" lon="1.01227">
        <ele>165.246033</ele>
        <time>2019-08-17T15:39:44Z</time>
      </trkpt>
      <trkpt lat="44.41134" lon="1.01229">
        <ele>165.097336</ele>
        <time>2019-08-17T15:39:45Z</time>
      </trkpt>
      <trkpt lat="44.41127" lon="1.01233">
        <ele>164.937637</ele>
        <time>2019-08-17T15:39:46Z</time>
      </trkpt>
      <trkpt lat="44.41121" lon="1.01238">
        <ele>164.765335</ele>
        <time>2019-08-17T15:39:47Z</time>
      </trkpt>
      <trkpt lat="44.41116" lon="1.01244">
        <ele>164.580368</ele>
        <time>2019-08-17T15:39:48Z</time>
      </trkpt>
      <trkpt lat="44.41111" lon="1.0125">
        <ele>164.37944</ele>
        <time>2019-08-17T15:39:49Z</time>
      </trkpt>
      <trkpt lat="44.41106" lon="1.01255">
        <ele>164.162369</ele>
        <time>2019-08-17T15:39:50Z</time>
      </trkpt>
      <trkpt lat="44.41101" lon="1.0126">
        <ele>163.928207</ele>
        <time>2019-08-17T15:39:51Z</time>
      </trkpt>
      <trkpt lat="44.41097" lon="1.01266">
        <ele>163.662842</ele>
        <time>2019-08-17T15:39:52Z</time>
      </trkpt>
      <trkpt lat="44.41092" lon="1.0127">
        <ele>163.373352</ele>
        <time>2019-08-17T15:39:53Z</time>
      </trkpt>
      <trkpt lat="44.41087" lon="1.01273">
        <ele>163.373352</ele>
        <time>2019-08-17T15:39:54Z</time>
      </trkpt>
      <trkpt lat="44.41082" lon="1.01275">
        <ele>163.063126</ele>
        <time>2019-08-17T15:39:55Z</time>
      </trkpt>
      <trkpt lat="44.41078" lon="1.01277">
        <ele>162.742371</ele>
        <time>2019-08-17T15:39:56Z</time>
      </trkpt>
      <trkpt lat="44.41073" lon="1.01279">
        <ele>162.37645</ele>
        <time>2019-08-17T15:39:57Z</time>
      </trkpt>
      <trkpt lat="44.41069" lon="1.01279">
        <ele>162.025284</ele>
        <time>2019-08-17T15:39:58Z</time>
      </trkpt>
      <trkpt lat="44.41065" lon="1.01279">
        <ele>161.69606</ele>
        <time>2019-08-17T15:39:59Z</time>
      </trkpt>
      <trkpt lat="44.4106" lon="1.01279">
        <ele>161.387466</ele>
        <time>2019-08-17T15:40:00Z</time>
      </trkpt>
      <trkpt lat="44.41055" lon="1.0128">
        <ele>161.106491</ele>
        <time>2019-08-17T15:40:01Z</time>
      </trkpt>
      <trkpt lat="44.41051" lon="1.0128">
        <ele>160.858383</ele>
        <time>2019-08-17T15:40:02Z</time>
      </trkpt>
      <trkpt lat="44.41046" lon="1.01281">
        <ele>160.682388</ele>
        <time>2019-08-17T15:40:03Z</time>
      </trkpt>
      <trkpt lat="44.41041" lon="1.01281">
        <ele>160.518234</ele>
        <time>2019-08-17T15:40:04Z</time>
      </trkpt>
      <trkpt lat="44.41036" lon="1.01281">
        <ele>160.359879</ele>
        <time>2019-08-17T15:40:05Z</time>
      </trkpt>
      <trkpt lat="44.41031" lon="1.0128">
        <ele>160.207642</ele>
        <time>2019-08-17T15:40:06Z</time>
      </trkpt>
      <trkpt lat="44.41026" lon="1.0128">
        <ele>160.057281</ele>
        <time>2019-08-17T15:40:07Z</time>
      </trkpt>
      <trkpt lat="44.41021" lon="1.01279">
        <ele>159.904953</ele>
        <time>2019-08-17T15:40:08Z</time>
      </trkpt>
      <trkpt lat="44.41016" lon="1.01278">
        <ele>159.755142</ele>
        <time>2019-08-17T15:40:09Z</time>
      </trkpt>
      <trkpt lat="44.41011" lon="1.01277">
        <ele>159.613922</ele>
        <time>2019-08-17T15:40:10Z</time>
      </trkpt>
      <trkpt lat="44.41007" lon="1.01276">
        <ele>159.487869</ele>
        <time>2019-08-17T15:40:11Z</time>
      </trkpt>
      <trkpt lat="44.41002" lon="1.01275">
        <ele>159.377136</ele>
        <time>2019-08-17T15:40:12Z</time>
      </trkpt>
      <trkpt lat="44.40998" lon="1.01273">
        <ele>159.294922</ele>
        <time>2019-08-17T15:40:13Z</time>
      </trkpt>
      <trkpt lat="44.40993" lon="1.01272">
        <ele>159.238358</ele>
        <time>2019-08-17T15:40:14Z</time>
      </trkpt>
      <trkpt lat="44.40988" lon="1.01271">
        <ele>159.20575</ele>
        <time>2019-08-17T15:40:15Z</time>
      </trkpt>
      <trkpt lat="44.40983" lon="1.01269">
        <ele>159.193481</ele>
        <time>2019-08-17T15:40:16Z</time>
      </trkpt>
      <trkpt lat="44.40978" lon="1.01267">
        <ele>159.193481</ele>
        <time>2019-08-17T15:40:17Z</time>
      </trkpt>
      <trkpt lat="44.40973" lon="1.01265">
        <ele>159.193481</ele>
        <time>2019-08-17T15:40:18Z</time>
      </trkpt>
      <trkpt lat="44.40968" lon="1.01263">
        <ele>159.197647</ele>
        <time>2019-08-17T15:40:19Z</time>
      </trkpt>
      <trkpt lat="44.40963" lon="1.01262">
        <ele>159.216644</ele>
        <time>2019-08-17T15:40:20Z</time>
      </trkpt>
      <trkpt lat="44.40958" lon="1.01261">
        <ele>159.239975</ele>
        <time>2019-08-17T15:40:21Z</time>
      </trkpt>
      <trkpt lat="44.40954" lon="1.0126">
        <ele>159.261963</ele>
        <time>2019-08-17T15:40:22Z</time>
      </trkpt>
      <trkpt lat="44.40949" lon="1.0126">
        <ele>159.272385</ele>
        <time>2019-08-17T15:40:23Z</time>
      </trkpt>
      <trkpt lat="44.40945" lon="1.01259">
        <ele>159.272385</ele>
        <time>2019-08-17T15:40:24Z</time>
      </trkpt>
      <trkpt lat="44.40939" lon="1.0126">
        <ele>159.272385</ele>
        <time>2019-08-17T15:40:25Z</time>
      </trkpt>
      <trkpt lat="44.40933" lon="1.0126">
        <ele>159.271851</ele>
        <time>2019-08-17T15:40:26Z</time>
      </trkpt>
      <trkpt lat="44.40928" lon="1.01261">
        <ele>159.229187</ele>
        <time>2019-08-17T15:40:27Z</time>
      </trkpt>
      <trkpt lat="44.40921" lon="1.01261">
        <ele>159.129684</ele>
        <time>2019-08-17T15:40:28Z</time>
      </trkpt>
      <trkpt lat="44.40915" lon="1.01261">
        <ele>158.962509</ele>
        <time>2019-08-17T15:40:29Z</time>
      </trkpt>
      <trkpt lat="44.4091" lon="1.01261">
        <ele>158.727539</ele>
        <time>2019-08-17T15:40:30Z</time>
      </trkpt>
      <trkpt lat="44.40904" lon="1.01261">
        <ele>158.438431</ele>
        <time>2019-08-17T15:40:31Z</time>
      </trkpt>
      <trkpt lat="44.40899" lon="1.0126">
        <ele>158.097</ele>
        <time>2019-08-17T15:40:32Z</time>
      </trkpt>
      <trkpt lat="44.40894" lon="1.0126">
        <ele>157.741211</ele>
        <time>2019-08-17T15:40:33Z</time>
      </trkpt>
      <trkpt lat="44.40889" lon="1.0126">
        <ele>157.391602</ele>
        <time>2019-08-17T15:40:34Z</time>
      </trkpt>
      <trkpt lat="44.40884" lon="1.01259">
        <ele>157.05632</ele>
        <time>2019-08-17T15:40:35Z</time>
      </trkpt>
      <trkpt lat="44.40878" lon="1.01259">
        <ele>156.740234</ele>
        <time>2019-08-17T15:40:36Z</time>
      </trkpt>
      <trkpt lat="44.40873" lon="1.01258">
        <ele>156.435547</ele>
        <time>2019-08-17T15:40:37Z</time>
      </trkpt>
      <trkpt lat="44.40867" lon="1.01258">
        <ele>156.145508</ele>
        <time>2019-08-17T15:40:38Z</time>
      </trkpt>
      <trkpt lat="44.40862" lon="1.01257">
        <ele>155.865219</ele>
        <time>2019-08-17T15:40:39Z</time>
      </trkpt>
      <trkpt lat="44.40857" lon="1.01257">
        <ele>155.589752</ele>
        <time>2019-08-17T15:40:40Z</time>
      </trkpt>
      <trkpt lat="44.40851" lon="1.01256">
        <ele>155.317093</ele>
        <time>2019-08-17T15:40:41Z</time>
      </trkpt>
      <trkpt lat="44.40847" lon="1.01256">
        <ele>155.045288</ele>
        <time>2019-08-17T15:40:42Z</time>
      </trkpt>
      <trkpt lat="44.40842" lon="1.01256">
        <ele>154.778793</ele>
        <time>2019-08-17T15:40:43Z</time>
      </trkpt>
      <trkpt lat="44.40837" lon="1.01255">
        <ele>154.516891</ele>
        <time>2019-08-17T15:40:44Z</time>
      </trkpt>
      <trkpt lat="44.40832" lon="1.01254">
        <ele>154.257797</ele>
        <time>2019-08-17T15:40:45Z</time>
      </trkpt>
      <trkpt lat="44.40828" lon="1.01253">
        <ele>154.000854</ele>
        <time>2019-08-17T15:40:46Z</time>
      </trkpt>
      <trkpt lat="44.40822" lon="1.01252">
        <ele>154.000854</ele>
        <time>2019-08-17T15:40:47Z</time>
      </trkpt>
      <trkpt lat="44.40817" lon="1.01251">
        <ele>153.747726</ele>
        <time>2019-08-17T15:40:48Z</time>
      </trkpt>
      <trkpt lat="44.40812" lon="1.0125">
        <ele>153.502182</ele>
        <time>2019-08-17T15:40:49Z</time>
      </trkpt>
      <trkpt lat="44.40807" lon="1.01249">
        <ele>153.222244</ele>
        <time>2019-08-17T15:40:50Z</time>
      </trkpt>
      <trkpt lat="44.40802" lon="1.01247">
        <ele>152.94368</ele>
        <time>2019-08-17T15:40:51Z</time>
      </trkpt>
      <trkpt lat="44.40797" lon="1.01246">
        <ele>152.665146</ele>
        <time>2019-08-17T15:40:52Z</time>
      </trkpt>
      <trkpt lat="44.40792" lon="1.01244">
        <ele>152.390564</ele>
        <time>2019-08-17T15:40:53Z</time>
      </trkpt>
      <trkpt lat="44.40786" lon="1.01243">
        <ele>152.119156</ele>
        <time>2019-08-17T15:40:54Z</time>
      </trkpt>
      <trkpt lat="44.40781" lon="1.01241">
        <ele>151.847702</ele>
        <time>2019-08-17T15:40:55Z</time>
      </trkpt>
      <trkpt lat="44.40776" lon="1.01239">
        <ele>151.616364</ele>
        <time>2019-08-17T15:40:56Z</time>
      </trkpt>
      <trkpt lat="44.40771" lon="1.01237">
        <ele>151.387589</ele>
        <time>2019-08-17T15:40:57Z</time>
      </trkpt>
      <trkpt lat="44.40766" lon="1.01236">
        <ele>151.161484</ele>
        <time>2019-08-17T15:40:58Z</time>
      </trkpt>
      <trkpt lat="44.4076" lon="1.01234">
        <ele>150.933533</ele>
        <time>2019-08-17T15:40:59Z</time>
      </trkpt>
      <trkpt lat="44.40755" lon="1.01232">
        <ele>150.701828</ele>
        <time>2019-08-17T15:41:00Z</time>
      </trkpt>
      <trkpt lat="44.4075" lon="1.01228">
        <ele>150.466644</ele>
        <time>2019-08-17T15:41:01Z</time>
      </trkpt>
      <trkpt lat="44.40746" lon="1.01223">
        <ele>150.228027</ele>
        <time>2019-08-17T15:41:02Z</time>
      </trkpt>
      <trkpt lat="44.40743" lon="1.01216">
        <ele>149.986801</ele>
        <time>2019-08-17T15:41:03Z</time>
      </trkpt>
      <trkpt lat="44.4074" lon="1.0121">
        <ele>149.74617</ele>
        <time>2019-08-17T15:41:04Z</time>
      </trkpt>
      <trkpt lat="44.40738" lon="1.01203">
        <ele>149.518494</ele>
        <time>2019-08-17T15:41:05Z</time>
      </trkpt>
      <trkpt lat="44.40736" lon="1.01197">
        <ele>149.518494</ele>
        <time>2019-08-17T15:41:06Z</time>
      </trkpt>
      <trkpt lat="44.40733" lon="1.0119">
        <ele>149.329773</ele>
        <time>2019-08-17T15:41:07Z</time>
      </trkpt>
      <trkpt lat="44.40731" lon="1.01184">
        <ele>149.185043</ele>
        <time>2019-08-17T15:41:08Z</time>
      </trkpt>
      <trkpt lat="44.4073" lon="1.01176">
        <ele>149.085678</ele>
        <time>2019-08-17T15:41:09Z</time>
      </trkpt>
      <trkpt lat="44.40728" lon="1.01169">
        <ele>149.03093</ele>
        <time>2019-08-17T15:41:10Z</time>
      </trkpt>
      <trkpt lat="44.40725" lon="1.01162">
        <ele>149.015762</ele>
        <time>2019-08-17T15:41:11Z</time>
      </trkpt>
      <trkpt lat="44.40723" lon="1.01155">
        <ele>149.013779</ele>
        <time>2019-08-17T15:41:12Z</time>
      </trkpt>
      <trkpt lat="44.4072" lon="1.01149">
        <ele>149.009018</ele>
        <time>2019-08-17T15:41:13Z</time>
      </trkpt>
      <trkpt lat="44.40718" lon="1.01142">
        <ele>149.006577</ele>
        <time>2019-08-17T15:41:14Z</time>
      </trkpt>
      <trkpt lat="44.40716" lon="1.01135">
        <ele>149.006577</ele>
        <time>2019-08-17T15:41:15Z</time>
      </trkpt>
      <trkpt lat="44.40714" lon="1.01128">
        <ele>149.006577</ele>
        <time>2019-08-17T15:41:16Z</time>
      </trkpt>
      <trkpt lat="44.40711" lon="1.01121">
        <ele>148.998718</ele>
        <time>2019-08-17T15:41:17Z</time>
      </trkpt>
      <trkpt lat="44.40709" lon="1.01115">
        <ele>148.998718</ele>
        <time>2019-08-17T15:41:18Z</time>
      </trkpt>
      <trkpt lat="44.40706" lon="1.01108">
        <ele>148.981567</ele>
        <time>2019-08-17T15:41:19Z</time>
      </trkpt>
      <trkpt lat="44.40704" lon="1.01102">
        <ele>148.953598</ele>
        <time>2019-08-17T15:41:20Z</time>
      </trkpt>
      <trkpt lat="44.40702" lon="1.01095">
        <ele>148.901077</ele>
        <time>2019-08-17T15:41:21Z</time>
      </trkpt>
      <trkpt lat="44.40699" lon="1.01089">
        <ele>148.839783</ele>
        <time>2019-08-17T15:41:22Z</time>
      </trkpt>
      <trkpt lat="44.40697" lon="1.01083">
        <ele>148.772385</ele>
        <time>2019-08-17T15:41:23Z</time>
      </trkpt>
      <trkpt lat="44.40694" lon="1.01077">
        <ele>148.69838</ele>
        <time>2019-08-17T15:41:24Z</time>
      </trkpt>
      <trkpt lat="44.40692" lon="1.01071">
        <ele>148.616257</ele>
        <time>2019-08-17T15:41:25Z</time>
      </trkpt>
      <trkpt lat="44.4069" lon="1.01065">
        <ele>148.524231</ele>
        <time>2019-08-17T15:41:26Z</time>
      </trkpt>
      <trkpt lat="44.40687" lon="1.01059">
        <ele>148.437149</ele>
        <time>2019-08-17T15:41:27Z</time>
      </trkpt>
      <trkpt lat="44.40685" lon="1.01053">
        <ele>148.343231</ele>
        <time>2019-08-17T15:41:28Z</time>
      </trkpt>
      <trkpt lat="44.40683" lon="1.01047">
        <ele>148.238449</ele>
        <time>2019-08-17T15:41:29Z</time>
      </trkpt>
      <trkpt lat="44.40681" lon="1.0104">
        <ele>148.122009</ele>
        <time>2019-08-17T15:41:30Z</time>
      </trkpt>
      <trkpt lat="44.40679" lon="1.01033">
        <ele>148.001419</ele>
        <time>2019-08-17T15:41:31Z</time>
      </trkpt>
      <trkpt lat="44.40678" lon="1.01026">
        <ele>147.877884</ele>
        <time>2019-08-17T15:41:32Z</time>
      </trkpt>
      <trkpt lat="44.40677" lon="1.0102">
        <ele>147.752151</ele>
        <time>2019-08-17T15:41:33Z</time>
      </trkpt>
      <trkpt lat="44.40676" lon="1.01013">
        <ele>147.633759</ele>
        <time>2019-08-17T15:41:34Z</time>
      </trkpt>
      <trkpt lat="44.40675" lon="1.01006">
        <ele>147.524094</ele>
        <time>2019-08-17T15:41:35Z</time>
      </trkpt>
      <trkpt lat="44.40675" lon="1.00999">
        <ele>147.423965</ele>
        <time>2019-08-17T15:41:36Z</time>
      </trkpt>
      <trkpt lat="44.40676" lon="1.00991">
        <ele>147.342911</ele>
        <time>2019-08-17T15:41:37Z</time>
      </trkpt>
      <trkpt lat="44.40676" lon="1.00984">
        <ele>147.307053</ele>
        <time>2019-08-17T15:41:38Z</time>
      </trkpt>
      <trkpt lat="44.40678" lon="1.00976">
        <ele>147.307053</ele>
        <time>2019-08-17T15:41:39Z</time>
      </trkpt>
      <trkpt lat="44.40678" lon="1.00969">
        <ele>147.307053</ele>
        <time>2019-08-17T15:41:40Z</time>
      </trkpt>
      <trkpt lat="44.4068" lon="1.00961">
        <ele>147.307053</ele>
        <time>2019-08-17T15:41:41Z</time>
      </trkpt>
      <trkpt lat="44.40681" lon="1.00953">
        <ele>147.315582</ele>
        <time>2019-08-17T15:41:42Z</time>
      </trkpt>
      <trkpt lat="44.40682" lon="1.00946">
        <ele>147.369934</ele>
        <time>2019-08-17T15:41:43Z</time>
      </trkpt>
      <trkpt lat="44.40683" lon="1.00938">
        <ele>147.499466</ele>
        <time>2019-08-17T15:41:44Z</time>
      </trkpt>
      <trkpt lat="44.40684" lon="1.0093">
        <ele>147.676102</ele>
        <time>2019-08-17T15:41:45Z</time>
      </trkpt>
      <trkpt lat="44.40685" lon="1.00922">
        <ele>147.884109</ele>
        <time>2019-08-17T15:41:46Z</time>
      </trkpt>
      <trkpt lat="44.40686" lon="1.00915">
        <ele>148.098953</ele>
        <time>2019-08-17T15:41:47Z</time>
      </trkpt>
      <trkpt lat="44.40686" lon="1.00907">
        <ele>148.318359</ele>
        <time>2019-08-17T15:41:48Z</time>
      </trkpt>
      <trkpt lat="44.40685" lon="1.00899">
        <ele>148.538162</ele>
        <time>2019-08-17T15:41:49Z</time>
      </trkpt>
      <trkpt lat="44.40685" lon="1.00892">
        <ele>148.725906</ele>
        <time>2019-08-17T15:41:50Z</time>
      </trkpt>
      <trkpt lat="44.40685" lon="1.00885">
        <ele>148.900223</ele>
        <time>2019-08-17T15:41:51Z</time>
      </trkpt>
      <trkpt lat="44.40683" lon="1.00879">
        <ele>149.060303</ele>
        <time>2019-08-17T15:41:52Z</time>
      </trkpt>
      <trkpt lat="44.40683" lon="1.00873">
        <ele>149.060303</ele>
        <time>2019-08-17T15:41:53Z</time>
      </trkpt>
      <trkpt lat="44.40683" lon="1.00867">
        <ele>149.200439</ele>
        <time>2019-08-17T15:41:54Z</time>
      </trkpt>
      <trkpt lat="44.40683" lon="1.00862">
        <ele>149.318192</ele>
        <time>2019-08-17T15:41:55Z</time>
      </trkpt>
      <trkpt lat="44.40683" lon="1.00857">
        <ele>149.415939</ele>
        <time>2019-08-17T15:41:56Z</time>
      </trkpt>
      <trkpt lat="44.40682" lon="1.00853">
        <ele>149.498291</ele>
        <time>2019-08-17T15:41:57Z</time>
      </trkpt>
      <trkpt lat="44.40681" lon="1.00849">
        <ele>149.57251</ele>
        <time>2019-08-17T15:41:58Z</time>
      </trkpt>
      <trkpt lat="44.40679" lon="1.00844">
        <ele>149.637375</ele>
        <time>2019-08-17T15:41:59Z</time>
      </trkpt>
      <trkpt lat="44.40678" lon="1.00839">
        <ele>149.683105</ele>
        <time>2019-08-17T15:42:00Z</time>
      </trkpt>
      <trkpt lat="44.40676" lon="1.00833">
        <ele>149.71257</ele>
        <time>2019-08-17T15:42:01Z</time>
      </trkpt>
      <trkpt lat="44.40675" lon="1.00828">
        <ele>149.723801</ele>
        <time>2019-08-17T15:42:02Z</time>
      </trkpt>
      <trkpt lat="44.40675" lon="1.00822">
        <ele>149.726974</ele>
        <time>2019-08-17T15:42:03Z</time>
      </trkpt>
      <trkpt lat="44.40675" lon="1.00816">
        <ele>149.736084</ele>
        <time>2019-08-17T15:42:04Z</time>
      </trkpt>
      <trkpt lat="44.40675" lon="1.00811">
        <ele>149.753906</ele>
        <time>2019-08-17T15:42:05Z</time>
      </trkpt>
      <trkpt lat="44.40675" lon="1.00804">
        <ele>149.763184</ele>
        <time>2019-08-17T15:42:06Z</time>
      </trkpt>
      <trkpt lat="44.40675" lon="1.00797">
        <ele>149.765457</ele>
        <time>2019-08-17T15:42:07Z</time>
      </trkpt>
      <trkpt lat="44.40675" lon="1.00791">
        <ele>149.77742</ele>
        <time>2019-08-17T15:42:08Z</time>
      </trkpt>
      <trkpt lat="44.40677" lon="1.00785">
        <ele>149.806885</ele>
        <time>2019-08-17T15:42:09Z</time>
      </trkpt>
      <trkpt lat="44.40678" lon="1.0078">
        <ele>149.868546</ele>
        <time>2019-08-17T15:42:10Z</time>
      </trkpt>
      <trkpt lat="44.4068" lon="1.00775">
        <ele>149.976608</ele>
        <time>2019-08-17T15:42:11Z</time>
      </trkpt>
      <trkpt lat="44.40682" lon="1.0077">
        <ele>150.120651</ele>
        <time>2019-08-17T15:42:12Z</time>
      </trkpt>
      <trkpt lat="44.40683" lon="1.00764">
        <ele>150.292633</ele>
        <time>2019-08-17T15:42:13Z</time>
      </trkpt>
      <trkpt lat="44.40686" lon="1.00758">
        <ele>150.492386</ele>
        <time>2019-08-17T15:42:14Z</time>
      </trkpt>
      <trkpt lat="44.40689" lon="1.00751">
        <ele>150.716736</ele>
        <time>2019-08-17T15:42:15Z</time>
      </trkpt>
      <trkpt lat="44.40692" lon="1.00743">
        <ele>150.959381</ele>
        <time>2019-08-17T15:42:16Z</time>
      </trkpt>
      <trkpt lat="44.40696" lon="1.00736">
        <ele>151.21312</ele>
        <time>2019-08-17T15:42:17Z</time>
      </trkpt>
      <trkpt lat="44.40699" lon="1.00728">
        <ele>151.478882</ele>
        <time>2019-08-17T15:42:18Z</time>
      </trkpt>
      <trkpt lat="44.40702" lon="1.0072">
        <ele>151.762375</ele>
        <time>2019-08-17T15:42:19Z</time>
      </trkpt>
      <trkpt lat="44.40702" lon="1.00712">
        <ele>152.062927</ele>
        <time>2019-08-17T15:42:20Z</time>
      </trkpt>
      <trkpt lat="44.40699" lon="1.00706">
        <ele>152.370117</ele>
        <time>2019-08-17T15:42:21Z</time>
      </trkpt>
      <trkpt lat="44.40694" lon="1.007">
        <ele>152.370117</ele>
        <time>2019-08-17T15:42:22Z</time>
      </trkpt>
      <trkpt lat="44.40691" lon="1.00693">
        <ele>152.665054</ele>
        <time>2019-08-17T15:42:23Z</time>
      </trkpt>
      <trkpt lat="44.40687" lon="1.00686">
        <ele>152.920731</ele>
        <time>2019-08-17T15:42:24Z</time>
      </trkpt>
      <trkpt lat="44.40684" lon="1.00678">
        <ele>153.126175</ele>
        <time>2019-08-17T15:42:25Z</time>
      </trkpt>
      <trkpt lat="44.40682" lon="1.00671">
        <ele>153.274734</ele>
        <time>2019-08-17T15:42:26Z</time>
      </trkpt>
      <trkpt lat="44.40679" lon="1.00663">
        <ele>153.380478</ele>
        <time>2019-08-17T15:42:27Z</time>
      </trkpt>
      <trkpt lat="44.40678" lon="1.00654">
        <ele>153.459778</ele>
        <time>2019-08-17T15:42:28Z</time>
      </trkpt>
      <trkpt lat="44.40677" lon="1.00646">
        <ele>153.535385</ele>
        <time>2019-08-17T15:42:29Z</time>
      </trkpt>
      <trkpt lat="44.40677" lon="1.00638">
        <ele>153.632278</ele>
        <time>2019-08-17T15:42:30Z</time>
      </trkpt>
      <trkpt lat="44.40677" lon="1.00631">
        <ele>153.763382</ele>
        <time>2019-08-17T15:42:31Z</time>
      </trkpt>
      <trkpt lat="44.40677" lon="1.00624">
        <ele>153.932663</ele>
        <time>2019-08-17T15:42:32Z</time>
      </trkpt>
      <trkpt lat="44.40677" lon="1.00618">
        <ele>154.125748</ele>
        <time>2019-08-17T15:42:33Z</time>
      </trkpt>
      <trkpt lat="44.40677" lon="1.00611">
        <ele>154.332748</ele>
        <time>2019-08-17T15:42:34Z</time>
      </trkpt>
      <trkpt lat="44.40677" lon="1.00605">
        <ele>154.545334</ele>
        <time>2019-08-17T15:42:35Z</time>
      </trkpt>
      <trkpt lat="44.40676" lon="1.00599">
        <ele>154.755798</ele>
        <time>2019-08-17T15:42:36Z</time>
      </trkpt>
      <trkpt lat="44.40676" lon="1.00593">
        <ele>154.956497</ele>
        <time>2019-08-17T15:42:37Z</time>
      </trkpt>
      <trkpt lat="44.40676" lon="1.00586">
        <ele>155.146912</ele>
        <time>2019-08-17T15:42:38Z</time>
      </trkpt>
      <trkpt lat="44.40676" lon="1.0058">
        <ele>155.329834</ele>
        <time>2019-08-17T15:42:39Z</time>
      </trkpt>
      <trkpt lat="44.40676" lon="1.00574">
        <ele>155.508163</ele>
        <time>2019-08-17T15:42:40Z</time>
      </trkpt>
      <trkpt lat="44.40676" lon="1.00567">
        <ele>155.671982</ele>
        <time>2019-08-17T15:42:41Z</time>
      </trkpt>
      <trkpt lat="44.40676" lon="1.00561">
        <ele>155.821213</ele>
        <time>2019-08-17T15:42:42Z</time>
      </trkpt>
      <trkpt lat="44.40676" lon="1.00555">
        <ele>155.955124</ele>
        <time>2019-08-17T15:42:43Z</time>
      </trkpt>
      <trkpt lat="44.40675" lon="1.00549">
        <ele>155.955124</ele>
        <time>2019-08-17T15:42:44Z</time>
      </trkpt>
      <trkpt lat="44.40675" lon="1.00543">
        <ele>156.074677</ele>
        <time>2019-08-17T15:42:45Z</time>
      </trkpt>
      <trkpt lat="44.40676" lon="1.00537">
        <ele>156.179703</ele>
        <time>2019-08-17T15:42:46Z</time>
      </trkpt>
      <trkpt lat="44.40675" lon="1.00531">
        <ele>156.285202</ele>
        <time>2019-08-17T15:42:47Z</time>
      </trkpt>
      <trkpt lat="44.40675" lon="1.00524">
        <ele>156.387924</ele>
        <time>2019-08-17T15:42:48Z</time>
      </trkpt>
      <trkpt lat="44.40675" lon="1.00517">
        <ele>156.489136</ele>
        <time>2019-08-17T15:42:49Z</time>
      </trkpt>
      <trkpt lat="44.40675" lon="1.0051">
        <ele>156.592865</ele>
        <time>2019-08-17T15:42:50Z</time>
      </trkpt>
      <trkpt lat="44.40675" lon="1.00503">
        <ele>156.698654</ele>
        <time>2019-08-17T15:42:51Z</time>
      </trkpt>
      <trkpt lat="44.40675" lon="1.00496">
        <ele>156.791367</ele>
        <time>2019-08-17T15:42:52Z</time>
      </trkpt>
      <trkpt lat="44.40674" lon="1.00489">
        <ele>156.85463</ele>
        <time>2019-08-17T15:42:53Z</time>
      </trkpt>
      <trkpt lat="44.40674" lon="1.00482">
        <ele>156.90451</ele>
        <time>2019-08-17T15:42:54Z</time>
      </trkpt>
      <trkpt lat="44.40674" lon="1.00475">
        <ele>156.942139</ele>
        <time>2019-08-17T15:42:55Z</time>
      </trkpt>
      <trkpt lat="44.40674" lon="1.00467">
        <ele>156.964844</ele>
        <time>2019-08-17T15:42:56Z</time>
      </trkpt>
      <trkpt lat="44.40674" lon="1.0046">
        <ele>156.971924</ele>
        <time>2019-08-17T15:42:57Z</time>
      </trkpt>
      <trkpt lat="44.40673" lon="1.00453">
        <ele>156.971924</ele>
        <time>2019-08-17T15:42:58Z</time>
      </trkpt>
      <trkpt lat="44.40671" lon="1.00445">
        <ele>156.971924</ele>
        <time>2019-08-17T15:42:59Z</time>
      </trkpt>
      <trkpt lat="44.40669" lon="1.00439">
        <ele>156.971924</ele>
        <time>2019-08-17T15:43:00Z</time>
      </trkpt>
      <trkpt lat="44.40666" lon="1.00432">
        <ele>156.966553</ele>
        <time>2019-08-17T15:43:01Z</time>
      </trkpt>
      <trkpt lat="44.40663" lon="1.00426">
        <ele>156.934326</ele>
        <time>2019-08-17T15:43:02Z</time>
      </trkpt>
      <trkpt lat="44.4066" lon="1.0042">
        <ele>156.880539</ele>
        <time>2019-08-17T15:43:03Z</time>
      </trkpt>
      <trkpt lat="44.40657" lon="1.00414">
        <ele>156.80632</ele>
        <time>2019-08-17T15:43:04Z</time>
      </trkpt>
      <trkpt lat="44.40654" lon="1.00407">
        <ele>156.712158</ele>
        <time>2019-08-17T15:43:05Z</time>
      </trkpt>
      <trkpt lat="44.40651" lon="1.00401">
        <ele>156.602707</ele>
        <time>2019-08-17T15:43:06Z</time>
      </trkpt>
      <trkpt lat="44.40648" lon="1.00395">
        <ele>156.489426</ele>
        <time>2019-08-17T15:43:07Z</time>
      </trkpt>
      <trkpt lat="44.40645" lon="1.00388">
        <ele>156.388351</ele>
        <time>2019-08-17T15:43:08Z</time>
      </trkpt>
      <trkpt lat="44.40642" lon="1.00381">
        <ele>156.29216</ele>
        <time>2019-08-17T15:43:09Z</time>
      </trkpt>
      <trkpt lat="44.40639" lon="1.00375">
        <ele>156.198242</ele>
        <time>2019-08-17T15:43:10Z</time>
      </trkpt>
      <trkpt lat="44.40636" lon="1.00367">
        <ele>156.105957</ele>
        <time>2019-08-17T15:43:11Z</time>
      </trkpt>
      <trkpt lat="44.40634" lon="1.0036">
        <ele>156.009598</ele>
        <time>2019-08-17T15:43:12Z</time>
      </trkpt>
      <trkpt lat="44.40631" lon="1.00353">
        <ele>155.906906</ele>
        <time>2019-08-17T15:43:13Z</time>
      </trkpt>
      <trkpt lat="44.40628" lon="1.00345">
        <ele>155.795242</ele>
        <time>2019-08-17T15:43:14Z</time>
      </trkpt>
      <trkpt lat="44.40626" lon="1.00338">
        <ele>155.677078</ele>
        <time>2019-08-17T15:43:15Z</time>
      </trkpt>
      <trkpt lat="44.40623" lon="1.00332">
        <ele>155.677078</ele>
        <time>2019-08-17T15:43:16Z</time>
      </trkpt>
      <trkpt lat="44.4062" lon="1.00325">
        <ele>155.553223</ele>
        <time>2019-08-17T15:43:17Z</time>
      </trkpt>
      <trkpt lat="44.40616" lon="1.00319">
        <ele>155.424637</ele>
        <time>2019-08-17T15:43:18Z</time>
      </trkpt>
      <trkpt lat="44.40613" lon="1.00313">
        <ele>155.277344</ele>
        <time>2019-08-17T15:43:19Z</time>
      </trkpt>
      <trkpt lat="44.4061" lon="1.00306">
        <ele>155.134933</ele>
        <time>2019-08-17T15:43:20Z</time>
      </trkpt>
      <trkpt lat="44.40607" lon="1.003">
        <ele>154.99968</ele>
        <time>2019-08-17T15:43:21Z</time>
      </trkpt>
      <trkpt lat="44.40604" lon="1.00294">
        <ele>154.869354</ele>
        <time>2019-08-17T15:43:22Z</time>
      </trkpt>
      <trkpt lat="44.40602" lon="1.00289">
        <ele>154.74501</ele>
        <time>2019-08-17T15:43:23Z</time>
      </trkpt>
      <trkpt lat="44.40599" lon="1.00283">
        <ele>154.628326</ele>
        <time>2019-08-17T15:43:24Z</time>
      </trkpt>
      <trkpt lat="44.40597" lon="1.00278">
        <ele>154.54097</ele>
        <time>2019-08-17T15:43:25Z</time>
      </trkpt>
      <trkpt lat="44.40594" lon="1.00273">
        <ele>154.472763</ele>
        <time>2019-08-17T15:43:26Z</time>
      </trkpt>
      <trkpt lat="44.40592" lon="1.00269">
        <ele>154.426468</ele>
        <time>2019-08-17T15:43:27Z</time>
      </trkpt>
      <trkpt lat="44.40589" lon="1.00264">
        <ele>154.406815</ele>
        <time>2019-08-17T15:43:28Z</time>
      </trkpt>
      <trkpt lat="44.40585" lon="1.0026">
        <ele>154.406815</ele>
        <time>2019-08-17T15:43:29Z</time>
      </trkpt>
      <trkpt lat="44.40582" lon="1.00256">
        <ele>154.406815</ele>
        <time>2019-08-17T15:43:30Z</time>
      </trkpt>
      <trkpt lat="44.40578" lon="1.00251">
        <ele>154.419327</ele>
        <time>2019-08-17T15:43:31Z</time>
      </trkpt>
      <trkpt lat="44.40574" lon="1.00246">
        <ele>154.465378</ele>
        <time>2019-08-17T15:43:32Z</time>
      </trkpt>
      <trkpt lat="44.40571" lon="1.0024">
        <ele>154.547775</ele>
        <time>2019-08-17T15:43:33Z</time>
      </trkpt>
      <trkpt lat="44.40567" lon="1.00234">
        <ele>154.654175</ele>
        <time>2019-08-17T15:43:34Z</time>
      </trkpt>
      <trkpt lat="44.40563" lon="1.00227">
        <ele>154.785583</ele>
        <time>2019-08-17T15:43:35Z</time>
      </trkpt>
      <trkpt lat="44.40559" lon="1.0022">
        <ele>154.937576</ele>
        <time>2019-08-17T15:43:36Z</time>
      </trkpt>
      <trkpt lat="44.40554" lon="1.00213">
        <ele>155.105515</ele>
        <time>2019-08-17T15:43:37Z</time>
      </trkpt>
      <trkpt lat="44.4055" lon="1.00206">
        <ele>155.284607</ele>
        <time>2019-08-17T15:43:38Z</time>
      </trkpt>
      <trkpt lat="44.40545" lon="1.002">
        <ele>155.470001</ele>
        <time>2019-08-17T15:43:39Z</time>
      </trkpt>
      <trkpt lat="44.40541" lon="1.00194">
        <ele>155.663498</ele>
        <time>2019-08-17T15:43:40Z</time>
      </trkpt>
      <trkpt lat="44.40535" lon="1.00189">
        <ele>155.861008</ele>
        <time>2019-08-17T15:43:41Z</time>
      </trkpt>
      <trkpt lat="44.4053" lon="1.00185">
        <ele>156.06665</ele>
        <time>2019-08-17T15:43:42Z</time>
      </trkpt>
      <trkpt lat="44.40525" lon="1.00181">
        <ele>156.06665</ele>
        <time>2019-08-17T15:43:43Z</time>
      </trkpt>
      <trkpt lat="44.4052" lon="1.00177">
        <ele>156.285721</ele>
        <time>2019-08-17T15:43:44Z</time>
      </trkpt>
      <trkpt lat="44.40515" lon="1.00174">
        <ele>156.524887</ele>
        <time>2019-08-17T15:43:45Z</time>
      </trkpt>
      <trkpt lat="44.4051" lon="1.0017">
        <ele>156.834183</ele>
        <time>2019-08-17T15:43:46Z</time>
      </trkpt>
      <trkpt lat="44.40505" lon="1.00167">
        <ele>157.163559</ele>
        <time>2019-08-17T15:43:47Z</time>
      </trkpt>
      <trkpt lat="44.405" lon="1.00164">
        <ele>157.514832</ele>
        <time>2019-08-17T15:43:48Z</time>
      </trkpt>
      <trkpt lat="44.40495" lon="1.00161">
        <ele>157.886948</ele>
        <time>2019-08-17T15:43:49Z</time>
      </trkpt>
      <trkpt lat="44.40491" lon="1.00158">
        <ele>158.272507</ele>
        <time>2019-08-17T15:43:50Z</time>
      </trkpt>
      <trkpt lat="44.40486" lon="1.00155">
        <ele>158.665054</ele>
        <time>2019-08-17T15:43:51Z</time>
      </trkpt>
      <trkpt lat="44.40482" lon="1.00153">
        <ele>159.010193</ele>
        <time>2019-08-17T15:43:52Z</time>
      </trkpt>
      <trkpt lat="44.40477" lon="1.00151">
        <ele>159.355103</ele>
        <time>2019-08-17T15:43:53Z</time>
      </trkpt>
      <trkpt lat="44.40473" lon="1.00148">
        <ele>159.699203</ele>
        <time>2019-08-17T15:43:54Z</time>
      </trkpt>
      <trkpt lat="44.40468" lon="1.00146">
        <ele>160.041687</ele>
        <time>2019-08-17T15:43:55Z</time>
      </trkpt>
      <trkpt lat="44.40463" lon="1.00144">
        <ele>160.386414</ele>
        <time>2019-08-17T15:43:56Z</time>
      </trkpt>
      <trkpt lat="44.40459" lon="1.00142">
        <ele>160.386414</ele>
        <time>2019-08-17T15:43:57Z</time>
      </trkpt>
      <trkpt lat="44.40455" lon="1.0014">
        <ele>160.734741</ele>
        <time>2019-08-17T15:43:58Z</time>
      </trkpt>
      <trkpt lat="44.4045" lon="1.00138">
        <ele>161.086746</ele>
        <time>2019-08-17T15:43:59Z</time>
      </trkpt>
      <trkpt lat="44.40446" lon="1.00137">
        <ele>161.463165</ele>
        <time>2019-08-17T15:44:00Z</time>
      </trkpt>
      <trkpt lat="44.40442" lon="1.00135">
        <ele>161.821487</ele>
        <time>2019-08-17T15:44:01Z</time>
      </trkpt>
      <trkpt lat="44.40437" lon="1.00133">
        <ele>162.162781</ele>
        <time>2019-08-17T15:44:02Z</time>
      </trkpt>
      <trkpt lat="44.40433" lon="1.00131">
        <ele>162.481796</ele>
        <time>2019-08-17T15:44:03Z</time>
      </trkpt>
      <trkpt lat="44.40429" lon="1.00129">
        <ele>162.779465</ele>
        <time>2019-08-17T15:44:04Z</time>
      </trkpt>
      <trkpt lat="44.40424" lon="1.00127">
        <ele>163.057159</ele>
        <time>2019-08-17T15:44:05Z</time>
      </trkpt>
      <trkpt lat="44.4042" lon="1.00124">
        <ele>163.295975</ele>
        <time>2019-08-17T15:44:06Z</time>
      </trkpt>
      <trkpt lat="44.40416" lon="1.00122">
        <ele>163.539047</ele>
        <time>2019-08-17T15:44:07Z</time>
      </trkpt>
      <trkpt lat="44.40411" lon="1.00119">
        <ele>163.784714</ele>
        <time>2019-08-17T15:44:08Z</time>
      </trkpt>
      <trkpt lat="44.40407" lon="1.00116">
        <ele>164.03627</ele>
        <time>2019-08-17T15:44:09Z</time>
      </trkpt>
      <trkpt lat="44.40403" lon="1.00114">
        <ele>164.29274</ele>
        <time>2019-08-17T15:44:10Z</time>
      </trkpt>
      <trkpt lat="44.40398" lon="1.00111">
        <ele>164.555267</ele>
        <time>2019-08-17T15:44:11Z</time>
      </trkpt>
      <trkpt lat="44.40395" lon="1.00108">
        <ele>164.821716</ele>
        <time>2019-08-17T15:44:12Z</time>
      </trkpt>
      <trkpt lat="44.4039" lon="1.00106">
        <ele>165.090988</ele>
        <time>2019-08-17T15:44:13Z</time>
      </trkpt>
      <trkpt lat="44.40386" lon="1.00103">
        <ele>165.353195</ele>
        <time>2019-08-17T15:44:14Z</time>
      </trkpt>
      <trkpt lat="44.40382" lon="1.001">
        <ele>165.570236</ele>
        <time>2019-08-17T15:44:15Z</time>
      </trkpt>
      <trkpt lat="44.40378" lon="1.00098">
        <ele>165.742355</ele>
        <time>2019-08-17T15:44:16Z</time>
      </trkpt>
      <trkpt lat="44.40374" lon="1.00095">
        <ele>165.868362</ele>
        <time>2019-08-17T15:44:17Z</time>
      </trkpt>
      <trkpt lat="44.40369" lon="1.00093">
        <ele>165.949966</ele>
        <time>2019-08-17T15:44:18Z</time>
      </trkpt>
      <trkpt lat="44.40366" lon="1.0009">
        <ele>165.987152</ele>
        <time>2019-08-17T15:44:19Z</time>
      </trkpt>
      <trkpt lat="44.40362" lon="1.00087">
        <ele>165.990646</ele>
        <time>2019-08-17T15:44:20Z</time>
      </trkpt>
      <trkpt lat="44.40358" lon="1.00084">
        <ele>165.996231</ele>
        <time>2019-08-17T15:44:21Z</time>
      </trkpt>
      <trkpt lat="44.40354" lon="1.00081">
        <ele>165.996231</ele>
        <time>2019-08-17T15:44:22Z</time>
      </trkpt>
      <trkpt lat="44.4035" lon="1.00079">
        <ele>166.001907</ele>
        <time>2019-08-17T15:44:23Z</time>
      </trkpt>
      <trkpt lat="44.40347" lon="1.00075">
        <ele>166.01442</ele>
        <time>2019-08-17T15:44:24Z</time>
      </trkpt>
      <trkpt lat="44.40343" lon="1.00072">
        <ele>166.034348</ele>
        <time>2019-08-17T15:44:25Z</time>
      </trkpt>
      <trkpt lat="44.40339" lon="1.00069">
        <ele>166.060516</ele>
        <time>2019-08-17T15:44:26Z</time>
      </trkpt>
      <trkpt lat="44.40336" lon="1.00066">
        <ele>166.09462</ele>
        <time>2019-08-17T15:44:27Z</time>
      </trkpt>
      <trkpt lat="44.40332" lon="1.00063">
        <ele>166.13678</ele>
        <time>2019-08-17T15:44:28Z</time>
      </trkpt>
      <trkpt lat="44.40329" lon="1.00059">
        <ele>166.186172</ele>
        <time>2019-08-17T15:44:29Z</time>
      </trkpt>
      <trkpt lat="44.40325" lon="1.00056">
        <ele>166.242111</ele>
        <time>2019-08-17T15:44:30Z</time>
      </trkpt>
      <trkpt lat="44.40321" lon="1.00052">
        <ele>166.30397</ele>
        <time>2019-08-17T15:44:31Z</time>
      </trkpt>
      <trkpt lat="44.40318" lon="1.00048">
        <ele>166.362656</ele>
        <time>2019-08-17T15:44:32Z</time>
      </trkpt>
      <trkpt lat="44.40314" lon="1.00044">
        <ele>166.412231</ele>
        <time>2019-08-17T15:44:33Z</time>
      </trkpt>
      <trkpt lat="44.4031" lon="1.0004">
        <ele>166.450607</ele>
        <time>2019-08-17T15:44:34Z</time>
      </trkpt>
      <trkpt lat="44.40306" lon="1.00037">
        <ele>166.472916</ele>
        <time>2019-08-17T15:44:35Z</time>
      </trkpt>
      <trkpt lat="44.40302" lon="1.00033">
        <ele>166.472916</ele>
        <time>2019-08-17T15:44:36Z</time>
      </trkpt>
      <trkpt lat="44.40297" lon="1.00029">
        <ele>166.472916</ele>
        <time>2019-08-17T15:44:37Z</time>
      </trkpt>
      <trkpt lat="44.40293" lon="1.00025">
        <ele>166.472916</ele>
        <time>2019-08-17T15:44:38Z</time>
      </trkpt>
      <trkpt lat="44.40288" lon="1.00022">
        <ele>166.472244</ele>
        <time>2019-08-17T15:44:39Z</time>
      </trkpt>
      <trkpt lat="44.40284" lon="1.00019">
        <ele>166.452316</ele>
        <time>2019-08-17T15:44:40Z</time>
      </trkpt>
      <trkpt lat="44.4028" lon="1.00015">
        <ele>166.423416</ele>
        <time>2019-08-17T15:44:41Z</time>
      </trkpt>
      <trkpt lat="44.40276" lon="1.00012">
        <ele>166.390366</ele>
        <time>2019-08-17T15:44:42Z</time>
      </trkpt>
      <trkpt lat="44.40271" lon="1.00008">
        <ele>166.353943</ele>
        <time>2019-08-17T15:44:43Z</time>
      </trkpt>
      <trkpt lat="44.40267" lon="1.00005">
        <ele>166.319443</ele>
        <time>2019-08-17T15:44:44Z</time>
      </trkpt>
      <trkpt lat="44.40263" lon="1.00001">
        <ele>166.297684</ele>
        <time>2019-08-17T15:44:45Z</time>
      </trkpt>
      <trkpt lat="44.40258" lon="0.99997">
        <ele>166.287033</ele>
        <time>2019-08-17T15:44:46Z</time>
      </trkpt>
      <trkpt lat="44.40255" lon="0.99993">
        <ele>166.274109</ele>
        <time>2019-08-17T15:44:47Z</time>
      </trkpt>
      <trkpt lat="44.40251" lon="0.99989">
        <ele>166.265503</ele>
        <time>2019-08-17T15:44:48Z</time>
      </trkpt>
      <trkpt lat="44.40248" lon="0.99985">
        <ele>166.249329</ele>
        <time>2019-08-17T15:44:49Z</time>
      </trkpt>
      <trkpt lat="44.40244" lon="0.99981">
        <ele>166.216934</ele>
        <time>2019-08-17T15:44:50Z</time>
      </trkpt>
      <trkpt lat="44.4024" lon="0.99977">
        <ele>166.17009</ele>
        <time>2019-08-17T15:44:51Z</time>
      </trkpt>
      <trkpt lat="44.40236" lon="0.99973">
        <ele>166.105743</ele>
        <time>2019-08-17T15:44:52Z</time>
      </trkpt>
      <trkpt lat="44.40233" lon="0.99969">
        <ele>166.025772</ele>
        <time>2019-08-17T15:44:53Z</time>
      </trkpt>
      <trkpt lat="44.40229" lon="0.99966">
        <ele>165.930588</ele>
        <time>2019-08-17T15:44:54Z</time>
      </trkpt>
      <trkpt lat="44.40225" lon="0.99962">
        <ele>165.822998</ele>
        <time>2019-08-17T15:44:55Z</time>
      </trkpt>
      <trkpt lat="44.40222" lon="0.99958">
        <ele>165.710709</ele>
        <time>2019-08-17T15:44:56Z</time>
      </trkpt>
      <trkpt lat="44.40219" lon="0.99955">
        <ele>165.593613</ele>
        <time>2019-08-17T15:44:57Z</time>
      </trkpt>
      <trkpt lat="44.40216" lon="0.99952">
        <ele>165.593613</ele>
        <time>2019-08-17T15:44:58Z</time>
      </trkpt>
      <trkpt lat="44.40213" lon="0.9995">
        <ele>165.478882</ele>
        <time>2019-08-17T15:44:59Z</time>
      </trkpt>
      <trkpt lat="44.40211" lon="0.99948">
        <ele>165.370987</ele>
        <time>2019-08-17T15:45:00Z</time>
      </trkpt>
      <trkpt lat="44.40209" lon="0.99945">
        <ele>165.26326</ele>
        <time>2019-08-17T15:45:01Z</time>
      </trkpt>
      <trkpt lat="44.40207" lon="0.99941">
        <ele>165.169067</ele>
        <time>2019-08-17T15:45:02Z</time>
      </trkpt>
      <trkpt lat="44.40205" lon="0.99938">
        <ele>165.101761</ele>
        <time>2019-08-17T15:45:03Z</time>
      </trkpt>
      <trkpt lat="44.40202" lon="0.99934">
        <ele>165.063156</ele>
        <time>2019-08-17T15:45:04Z</time>
      </trkpt>
      <trkpt lat="44.40199" lon="0.9993">
        <ele>165.048767</ele>
        <time>2019-08-17T15:45:05Z</time>
      </trkpt>
      <trkpt lat="44.40197" lon="0.99926">
        <ele>165.048767</ele>
        <time>2019-08-17T15:45:06Z</time>
      </trkpt>
      <trkpt lat="44.40195" lon="0.99922">
        <ele>165.048767</ele>
        <time>2019-08-17T15:45:07Z</time>
      </trkpt>
      <trkpt lat="44.40193" lon="0.99918">
        <ele>165.058395</ele>
        <time>2019-08-17T15:45:08Z</time>
      </trkpt>
      <trkpt lat="44.40191" lon="0.99914">
        <ele>165.098206</ele>
        <time>2019-08-17T15:45:09Z</time>
      </trkpt>
      <trkpt lat="44.40189" lon="0.9991">
        <ele>165.16716</ele>
        <time>2019-08-17T15:45:10Z</time>
      </trkpt>
      <trkpt lat="44.40187" lon="0.99907">
        <ele>165.255112</ele>
        <time>2019-08-17T15:45:11Z</time>
      </trkpt>
      <trkpt lat="44.40185" lon="0.99905">
        <ele>165.255112</ele>
        <time>2019-08-17T15:45:12Z</time>
      </trkpt>
      <trkpt lat="44.40184" lon="0.99904">
        <ele>165.358932</ele>
        <time>2019-08-17T15:45:13Z</time>
      </trkpt>
      <trkpt lat="44.40183" lon="0.99903">
        <ele>165.476089</ele>
        <time>2019-08-17T15:45:14Z</time>
      </trkpt>
      <trkpt lat="44.40177" lon="0.99889">
        <ele>166.03331</ele>
        <time>2019-08-17T15:45:21Z</time>
      </trkpt>
      <trkpt lat="44.40176" lon="0.99884">
        <ele>166.061722</ele>
        <time>2019-08-17T15:45:23Z</time>
      </trkpt>
      <trkpt lat="44.40174" lon="0.99879">
        <ele>166.118576</ele>
        <time>2019-08-17T15:45:24Z</time>
      </trkpt>
      <trkpt lat="44.40172" lon="0.99873">
        <ele>166.212173</ele>
        <time>2019-08-17T15:45:25Z</time>
      </trkpt>
      <trkpt lat="44.4017" lon="0.99867">
        <ele>166.347763</ele>
        <time>2019-08-17T15:45:26Z</time>
      </trkpt>
      <trkpt lat="44.40169" lon="0.99861">
        <ele>166.530441</ele>
        <time>2019-08-17T15:45:27Z</time>
      </trkpt>
      <trkpt lat="44.40167" lon="0.99855">
        <ele>166.760452</ele>
        <time>2019-08-17T15:45:28Z</time>
      </trkpt>
      <trkpt lat="44.40165" lon="0.99849">
        <ele>167.030655</ele>
        <time>2019-08-17T15:45:29Z</time>
      </trkpt>
      <trkpt lat="44.40163" lon="0.99843">
        <ele>167.335434</ele>
        <time>2019-08-17T15:45:30Z</time>
      </trkpt>
      <trkpt lat="44.40162" lon="0.99836">
        <ele>167.672485</ele>
        <time>2019-08-17T15:45:31Z</time>
      </trkpt>
      <trkpt lat="44.4016" lon="0.9983">
        <ele>168.0392</ele>
        <time>2019-08-17T15:45:32Z</time>
      </trkpt>
      <trkpt lat="44.40158" lon="0.99824">
        <ele>168.433212</ele>
        <time>2019-08-17T15:45:33Z</time>
      </trkpt>
      <trkpt lat="44.40156" lon="0.99818">
        <ele>168.854187</ele>
        <time>2019-08-17T15:45:34Z</time>
      </trkpt>
      <trkpt lat="44.40154" lon="0.99812">
        <ele>169.309692</ele>
        <time>2019-08-17T15:45:35Z</time>
      </trkpt>
      <trkpt lat="44.40152" lon="0.99807">
        <ele>169.797913</ele>
        <time>2019-08-17T15:45:36Z</time>
      </trkpt>
      <trkpt lat="44.40151" lon="0.99801">
        <ele>170.311569</ele>
        <time>2019-08-17T15:45:37Z</time>
      </trkpt>
      <trkpt lat="44.4015" lon="0.99795">
        <ele>170.851547</ele>
        <time>2019-08-17T15:45:38Z</time>
      </trkpt>
      <trkpt lat="44.40149" lon="0.99789">
        <ele>171.414566</ele>
        <time>2019-08-17T15:45:39Z</time>
      </trkpt>
      <trkpt lat="44.40147" lon="0.99783">
        <ele>171.414566</ele>
        <time>2019-08-17T15:45:40Z</time>
      </trkpt>
      <trkpt lat="44.40147" lon="0.99777">
        <ele>171.996414</ele>
        <time>2019-08-17T15:45:41Z</time>
      </trkpt>
      <trkpt lat="44.40147" lon="0.99771">
        <ele>172.582397</ele>
        <time>2019-08-17T15:45:42Z</time>
      </trkpt>
      <trkpt lat="44.40147" lon="0.99764">
        <ele>173.267838</ele>
        <time>2019-08-17T15:45:43Z</time>
      </trkpt>
      <trkpt lat="44.40148" lon="0.99757">
        <ele>173.950607</ele>
        <time>2019-08-17T15:45:44Z</time>
      </trkpt>
      <trkpt lat="44.4015" lon="0.99751">
        <ele>174.622635</ele>
        <time>2019-08-17T15:45:45Z</time>
      </trkpt>
      <trkpt lat="44.40152" lon="0.99744">
        <ele>175.279297</ele>
        <time>2019-08-17T15:45:46Z</time>
      </trkpt>
      <trkpt lat="44.40155" lon="0.99737">
        <ele>175.911942</ele>
        <time>2019-08-17T15:45:47Z</time>
      </trkpt>
      <trkpt lat="44.40157" lon="0.9973">
        <ele>176.498611</ele>
        <time>2019-08-17T15:45:48Z</time>
      </trkpt>
      <trkpt lat="44.40157" lon="0.99722">
        <ele>176.924515</ele>
        <time>2019-08-17T15:45:49Z</time>
      </trkpt>
      <trkpt lat="44.40157" lon="0.99714">
        <ele>177.293564</ele>
        <time>2019-08-17T15:45:50Z</time>
      </trkpt>
      <trkpt lat="44.40154" lon="0.99708">
        <ele>177.615799</ele>
        <time>2019-08-17T15:45:51Z</time>
      </trkpt>
      <trkpt lat="44.40152" lon="0.99702">
        <ele>177.931381</ele>
        <time>2019-08-17T15:45:52Z</time>
      </trkpt>
      <trkpt lat="44.40148" lon="0.99698">
        <ele>178.28241</ele>
        <time>2019-08-17T15:45:53Z</time>
      </trkpt>
      <trkpt lat="44.40144" lon="0.99694">
        <ele>178.28241</ele>
        <time>2019-08-17T15:45:54Z</time>
      </trkpt>
      <trkpt lat="44.40141" lon="0.99691">
        <ele>178.727249</ele>
        <time>2019-08-17T15:45:55Z</time>
      </trkpt>
      <trkpt lat="44.40137" lon="0.99687">
        <ele>179.293442</ele>
        <time>2019-08-17T15:45:56Z</time>
      </trkpt>
      <trkpt lat="44.40134" lon="0.99684">
        <ele>180.156998</ele>
        <time>2019-08-17T15:45:57Z</time>
      </trkpt>
      <trkpt lat="44.40131" lon="0.99682">
        <ele>181.149918</ele>
        <time>2019-08-17T15:45:58Z</time>
      </trkpt>
      <trkpt lat="44.40127" lon="0.9968">
        <ele>182.218918</ele>
        <time>2019-08-17T15:45:59Z</time>
      </trkpt>
      <trkpt lat="44.40123" lon="0.99678">
        <ele>183.326843</ele>
        <time>2019-08-17T15:46:00Z</time>
      </trkpt>
      <trkpt lat="44.4012" lon="0.99677">
        <ele>184.431534</ele>
        <time>2019-08-17T15:46:01Z</time>
      </trkpt>
      <trkpt lat="44.40117" lon="0.99679">
        <ele>185.526245</ele>
        <time>2019-08-17T15:46:02Z</time>
      </trkpt>
      <trkpt lat="44.40114" lon="0.99682">
        <ele>186.432999</ele>
        <time>2019-08-17T15:46:03Z</time>
      </trkpt>
      <trkpt lat="44.40112" lon="0.99686">
        <ele>187.317062</ele>
        <time>2019-08-17T15:46:04Z</time>
      </trkpt>
      <trkpt lat="44.4011" lon="0.9969">
        <ele>188.144165</ele>
        <time>2019-08-17T15:46:05Z</time>
      </trkpt>
      <trkpt lat="44.40108" lon="0.99693">
        <ele>188.882828</ele>
        <time>2019-08-17T15:46:06Z</time>
      </trkpt>
      <trkpt lat="44.40106" lon="0.99697">
        <ele>189.497803</ele>
        <time>2019-08-17T15:46:07Z</time>
      </trkpt>
      <trkpt lat="44.40104" lon="0.997">
        <ele>189.984421</ele>
        <time>2019-08-17T15:46:08Z</time>
      </trkpt>
      <trkpt lat="44.40102" lon="0.99704">
        <ele>190.346313</ele>
        <time>2019-08-17T15:46:09Z</time>
      </trkpt>
      <trkpt lat="44.40099" lon="0.99705">
        <ele>190.585129</ele>
        <time>2019-08-17T15:46:10Z</time>
      </trkpt>
      <trkpt lat="44.40097" lon="0.99706">
        <ele>190.759171</ele>
        <time>2019-08-17T15:46:11Z</time>
      </trkpt>
      <trkpt lat="44.40096" lon="0.99706">
        <ele>190.904709</ele>
        <time>2019-08-17T15:46:12Z</time>
      </trkpt>
    </trkseg>
  </trk>
  <trk>
    <name><![CDATA[tournon aerodrome 35]]></name>
    <trkseg>
      <trkpt lat="44.40669" lon="1.00796">
        <ele>152.42</ele>
      </trkpt>
      <trkpt lat="44.40658" lon="1.00808">
        <ele>152.05</ele>
      </trkpt>
      <trkpt lat="44.40673" lon="1.00833">
        <ele>153.37</ele>
      </trkpt>
      <trkpt lat="44.40658" lon="1.00808">
        <ele>152.05</ele>
      </trkpt>
      <trkpt lat="44.40674" lon="1.00791">
        <ele>152.87</ele>
      </trkpt>
      <trkpt lat="44.40679" lon="1.00777">
        <ele>152.87</ele>
      </trkpt>
      <trkpt lat="44.40679" lon="1.00843">
        <ele>153.94</ele>
      </trkpt>
      <trkpt lat="44.40658" lon="1.00808">
        <ele>152.05</ele>
      </trkpt>
      <trkpt lat="44.40674" lon="1.00791">
        <ele>152.87</ele>
      </trkpt>
      <trkpt lat="44.40679" lon="1.00777">
        <ele>152.87</ele>
      </trkpt>
      <trkpt lat="44.4069" lon="1.00777">
        <ele>153.39</ele>
      </trkpt>
      <trkpt lat="44.40709" lon="1.00784">
        <ele>155.65</ele>
      </trkpt>
      <trkpt lat="44.40731" lon="1.00789">
        <ele>158.29</ele>
      </trkpt>
      <trkpt lat="44.40739" lon="1.00787">
        <ele>159.04</ele>
      </trkpt>
      <trkpt lat="44.40806" lon="1.00788">
        <ele>165.28</ele>
      </trkpt>
      <trkpt lat="44.40873" lon="1.00788">
        <ele>173.43</ele>
      </trkpt>
      <trkpt lat="44.4088" lon="1.00784">
        <ele>174.36</ele>
      </trkpt>
      <trkpt lat="44.40864" lon="1.00733">
        <ele>171.31</ele>
      </trkpt>
      <trkpt lat="44.40877" lon="1.0065">
        <ele>168.54</ele>
      </trkpt>
      <trkpt lat="44.4089" lon="1.00566">
        <ele>168.67</ele>
      </trkpt>
      <trkpt lat="44.40901" lon="1.00506">
        <ele>169.57</ele>
      </trkpt>
      <trkpt lat="44.40945" lon="1.00419">
        <ele>168.6</ele>
      </trkpt>
      <trkpt lat="44.40989" lon="1.00331">
        <ele>167.03</ele>
      </trkpt>
      <trkpt lat="44.41027" lon="1.00265">
        <ele>167.87</ele>
      </trkpt>
      <trkpt lat="44.41074" lon="1.00196">
        <ele>166.08</ele>
      </trkpt>
      <trkpt lat="44.41079" lon="1.00181">
        <ele>164.85</ele>
      </trkpt>
      <trkpt lat="44.4109" lon="1.00186">
        <ele>167.11</ele>
      </trkpt>
      <trkpt lat="44.4113" lon="1.00193">
        <ele>169.57</ele>
      </trkpt>
      <trkpt lat="44.41145" lon="1.00215">
        <ele>173.2</ele>
      </trkpt>
      <trkpt lat="44.4118" lon="1.00228">
        <ele>176.31</ele>
      </trkpt>
      <trkpt lat="44.41212" lon="1.00289">
        <ele>184.51</ele>
      </trkpt>
      <trkpt lat="44.41252" lon="1.00343">
        <ele>190.65</ele>
      </trkpt>
      <trkpt lat="44.41314" lon="1.0041">
        <ele>194.64</ele>
      </trkpt>
      <trkpt lat="44.41376" lon="1.00476">
        <ele>199.93</ele>
      </trkpt>
      <trkpt lat="44.41411" lon="1.00476">
        <ele>202.23</ele>
      </trkpt>
      <trkpt lat="44.41482" lon="1.00433">
        <ele>207.69</ele>
      </trkpt>
      <trkpt lat="44.41528" lon="1.00435">
        <ele>209.58</ele>
      </trkpt>
      <trkpt lat="44.41535" lon="1.00438">
        <ele>209.58</ele>
      </trkpt>
      <trkpt lat="44.41581" lon="1.00479">
        <ele>204.64</ele>
      </trkpt>
      <trkpt lat="44.41627" lon="1.00519">
        <ele>202.98</ele>
      </trkpt>
      <trkpt lat="44.41677" lon="1.00533">
        <ele>203.12</ele>
      </trkpt>
      <trkpt lat="44.41737" lon="1.00538">
        <ele>204.14</ele>
      </trkpt>
      <trkpt lat="44.41797" lon="1.00542">
        <ele>206.48</ele>
      </trkpt>
      <trkpt lat="44.41806" lon="1.00466">
        <ele>202.42</ele>
      </trkpt>
      <trkpt lat="44.41857" lon="1.0037">
        <ele>198.83</ele>
      </trkpt>
      <trkpt lat="44.41928" lon="1.00334">
        <ele>200.68</ele>
      </trkpt>
      <trkpt lat="44.41999" lon="1.00297">
        <ele>200.55</ele>
      </trkpt>
      <trkpt lat="44.42064" lon="1.00246">
        <ele>197.2</ele>
      </trkpt>
      <trkpt lat="44.42106" lon="1.00182">
        <ele>194.27</ele>
      </trkpt>
      <trkpt lat="44.42147" lon="1.00117">
        <ele>186.69</ele>
      </trkpt>
      <trkpt lat="44.42221" lon="1.00085">
        <ele>180.86</ele>
      </trkpt>
      <trkpt lat="44.42294" lon="1.00053">
        <ele>177.24</ele>
      </trkpt>
      <trkpt lat="44.42348" lon="0.99963">
        <ele>174.59</ele>
      </trkpt>
      <trkpt lat="44.42402" lon="0.99873">
        <ele>174.24</ele>
      </trkpt>
      <trkpt lat="44.42456" lon="0.99783">
        <ele>172.84</ele>
      </trkpt>
      <trkpt lat="44.42509" lon="0.99693">
        <ele>171.28</ele>
      </trkpt>
      <trkpt lat="44.42563" lon="0.99603">
        <ele>170.4</ele>
      </trkpt>
      <trkpt lat="44.42617" lon="0.99513">
        <ele>170.15</ele>
      </trkpt>
      <trkpt lat="44.42669" lon="0.9944">
        <ele>168.36</ele>
      </trkpt>
      <trkpt lat="44.42721" lon="0.99367">
        <ele>167.3</ele>
      </trkpt>
      <trkpt lat="44.42772" lon="0.99335">
        <ele>165.68</ele>
      </trkpt>
      <trkpt lat="44.42822" lon="0.99303">
        <ele>163.33</ele>
      </trkpt>
      <trkpt lat="44.42884" lon="0.99256">
        <ele>161.26</ele>
      </trkpt>
      <trkpt lat="44.42945" lon="0.99209">
        <ele>159.51</ele>
      </trkpt>
      <trkpt lat="44.43028" lon="0.99181">
        <ele>157.75</ele>
      </trkpt>
      <trkpt lat="44.43098" lon="0.992">
        <ele>156.1</ele>
      </trkpt>
      <trkpt lat="44.43119" lon="0.99226">
        <ele>155.45</ele>
      </trkpt>
      <trkpt lat="44.43128" lon="0.99211">
        <ele>155.13</ele>
      </trkpt>
      <trkpt lat="44.43128" lon="0.99201">
        <ele>155.5</ele>
      </trkpt>
      <trkpt lat="44.43131" lon="0.99188">
        <ele>156.01</ele>
      </trkpt>
      <trkpt lat="44.43135" lon="0.9918">
        <ele>157</ele>
      </trkpt>
      <trkpt lat="44.4314" lon="0.99175">
        <ele>157.99</ele>
      </trkpt>
      <trkpt lat="44.43149" lon="0.99177">
        <ele>157.96</ele>
      </trkpt>
      <trkpt lat="44.43153" lon="0.99176">
        <ele>158.96</ele>
      </trkpt>
      <trkpt lat="44.43154" lon="0.99172">
        <ele>159.77</ele>
      </trkpt>
      <trkpt lat="44.43157" lon="0.99169">
        <ele>160.05</ele>
      </trkpt>
      <trkpt lat="44.4316" lon="0.9917">
        <ele>160.35</ele>
      </trkpt>
      <trkpt lat="44.43159" lon="0.99165">
        <ele>161.21</ele>
      </trkpt>
      <trkpt lat="44.43145" lon="0.99147">
        <ele>163.32</ele>
      </trkpt>
      <trkpt lat="44.43133" lon="0.99119">
        <ele>168.23</ele>
      </trkpt>
      <trkpt lat="44.43125" lon="0.9911">
        <ele>169.01</ele>
      </trkpt>
      <trkpt lat="44.43119" lon="0.99098">
        <ele>171.19</ele>
      </trkpt>
      <trkpt lat="44.43105" lon="0.99078">
        <ele>174.37</ele>
      </trkpt>
      <trkpt lat="44.43106" lon="0.99074">
        <ele>175.59</ele>
      </trkpt>
      <trkpt lat="44.43109" lon="0.99072">
        <ele>175.98</ele>
      </trkpt>
      <trkpt lat="44.43138" lon="0.99078">
        <ele>178.78</ele>
      </trkpt>
      <trkpt lat="44.43151" lon="0.99086">
        <ele>179.03</ele>
      </trkpt>
      <trkpt lat="44.43175" lon="0.99105">
        <ele>177.61</ele>
      </trkpt>
      <trkpt lat="44.43186" lon="0.99109">
        <ele>177.81</ele>
      </trkpt>
      <trkpt lat="44.43188" lon="0.99107">
        <ele>179.25</ele>
      </trkpt>
      <trkpt lat="44.43186" lon="0.99102">
        <ele>179.8</ele>
      </trkpt>
      <trkpt lat="44.43181" lon="0.99097">
        <ele>179.99</ele>
      </trkpt>
      <trkpt lat="44.43161" lon="0.99064">
        <ele>185.02</ele>
      </trkpt>
      <trkpt lat="44.43148" lon="0.99048">
        <ele>185.12</ele>
      </trkpt>
      <trkpt lat="44.43146" lon="0.99044">
        <ele>185.75</ele>
      </trkpt>
      <trkpt lat="44.43114" lon="0.99016">
        <ele>185.12</ele>
      </trkpt>
      <trkpt lat="44.4309" lon="0.99006">
        <ele>184.69</ele>
      </trkpt>
      <trkpt lat="44.4307" lon="0.98992">
        <ele>185.16</ele>
      </trkpt>
      <trkpt lat="44.43062" lon="0.98983">
        <ele>185.46</ele>
      </trkpt>
      <trkpt lat="44.43056" lon="0.98982">
        <ele>185.33</ele>
      </trkpt>
      <trkpt lat="44.43039" lon="0.98987">
        <ele>184.53</ele>
      </trkpt>
      <trkpt lat="44.4303" lon="0.98986">
        <ele>184.66</ele>
      </trkpt>
      <trkpt lat="44.43025" lon="0.98982">
        <ele>185.2</ele>
      </trkpt>
      <trkpt lat="44.43018" lon="0.9898">
        <ele>185.65</ele>
      </trkpt>
      <trkpt lat="44.4301" lon="0.98974">
        <ele>186.74</ele>
      </trkpt>
      <trkpt lat="44.42995" lon="0.98969">
        <ele>188.21</ele>
      </trkpt>
      <trkpt lat="44.42983" lon="0.98963">
        <ele>189.57</ele>
      </trkpt>
      <trkpt lat="44.42966" lon="0.98949">
        <ele>192.11</ele>
      </trkpt>
      <trkpt lat="44.42956" lon="0.98949">
        <ele>193.71</ele>
      </trkpt>
      <trkpt lat="44.42951" lon="0.98948">
        <ele>194.38</ele>
      </trkpt>
      <trkpt lat="44.42938" lon="0.98937">
        <ele>196.25</ele>
      </trkpt>
      <trkpt lat="44.42936" lon="0.98927">
        <ele>196.95</ele>
      </trkpt>
      <trkpt lat="44.42938" lon="0.989">
        <ele>197.28</ele>
      </trkpt>
      <trkpt lat="44.42936" lon="0.98892">
        <ele>197.43</ele>
      </trkpt>
      <trkpt lat="44.42882" lon="0.9885">
        <ele>200.78</ele>
      </trkpt>
      <trkpt lat="44.4284" lon="0.98809">
        <ele>203.98</ele>
      </trkpt>
      <trkpt lat="44.42831" lon="0.98812">
        <ele>204.52</ele>
      </trkpt>
      <trkpt lat="44.42826" lon="0.98809">
        <ele>204.64</ele>
      </trkpt>
      <trkpt lat="44.42809" lon="0.98758">
        <ele>204.51</ele>
      </trkpt>
      <trkpt lat="44.428" lon="0.98739">
        <ele>204.48</ele>
      </trkpt>
      <trkpt lat="44.42787" lon="0.98721">
        <ele>205.08</ele>
      </trkpt>
      <trkpt lat="44.42786" lon="0.9871">
        <ele>204.98</ele>
      </trkpt>
      <trkpt lat="44.42796" lon="0.98707">
        <ele>202.8</ele>
      </trkpt>
      <trkpt lat="44.42819" lon="0.98692">
        <ele>201.61</ele>
      </trkpt>
      <trkpt lat="44.42879" lon="0.9872">
        <ele>199.65</ele>
      </trkpt>
      <trkpt lat="44.42939" lon="0.98747">
        <ele>196.7</ele>
      </trkpt>
      <trkpt lat="44.42987" lon="0.98759">
        <ele>192.43</ele>
      </trkpt>
      <trkpt lat="44.43034" lon="0.98771">
        <ele>189.68</ele>
      </trkpt>
      <trkpt lat="44.4308" lon="0.98767">
        <ele>187.56</ele>
      </trkpt>
      <trkpt lat="44.43141" lon="0.98784">
        <ele>184.26</ele>
      </trkpt>
      <trkpt lat="44.43201" lon="0.98801">
        <ele>188.02</ele>
      </trkpt>
      <trkpt lat="44.43267" lon="0.98845">
        <ele>194.72</ele>
      </trkpt>
      <trkpt lat="44.43333" lon="0.98889">
        <ele>198.28</ele>
      </trkpt>
      <trkpt lat="44.43379" lon="0.98932">
        <ele>201.73</ele>
      </trkpt>
      <trkpt lat="44.43425" lon="0.98975">
        <ele>202.8</ele>
      </trkpt>
      <trkpt lat="44.43475" lon="0.98999">
        <ele>203.18</ele>
      </trkpt>
      <trkpt lat="44.43524" lon="0.99022">
        <ele>203.74</ele>
      </trkpt>
      <trkpt lat="44.43586" lon="0.99039">
        <ele>204.95</ele>
      </trkpt>
      <trkpt lat="44.43648" lon="0.99056">
        <ele>205.07</ele>
      </trkpt>
      <trkpt lat="44.43723" lon="0.99058">
        <ele>202.22</ele>
      </trkpt>
      <trkpt lat="44.43786" lon="0.9902">
        <ele>195.92</ele>
      </trkpt>
      <trkpt lat="44.43815" lon="0.98988">
        <ele>191.34</ele>
      </trkpt>
      <trkpt lat="44.4387" lon="0.98965">
        <ele>183.75</ele>
      </trkpt>
      <trkpt lat="44.43918" lon="0.98913">
        <ele>177.68</ele>
      </trkpt>
      <trkpt lat="44.43994" lon="0.98877">
        <ele>168.23</ele>
      </trkpt>
      <trkpt lat="44.4407" lon="0.9884">
        <ele>158.36</ele>
      </trkpt>
      <trkpt lat="44.44114" lon="0.98826">
        <ele>151.96</ele>
      </trkpt>
      <trkpt lat="44.44158" lon="0.98812">
        <ele>146.35</ele>
      </trkpt>
      <trkpt lat="44.4421" lon="0.98773">
        <ele>140.01</ele>
      </trkpt>
      <trkpt lat="44.44261" lon="0.98733">
        <ele>130.06</ele>
      </trkpt>
      <trkpt lat="44.44324" lon="0.98733">
        <ele>121.23</ele>
      </trkpt>
      <trkpt lat="44.44332" lon="0.98736">
        <ele>119.97</ele>
      </trkpt>
      <trkpt lat="44.44327" lon="0.9875">
        <ele>120.5</ele>
      </trkpt>
      <trkpt lat="44.44315" lon="0.98841">
        <ele>123.72</ele>
      </trkpt>
      <trkpt lat="44.44304" lon="0.98932">
        <ele>126</ele>
      </trkpt>
      <trkpt lat="44.44292" lon="0.99023">
        <ele>127.82</ele>
      </trkpt>
      <trkpt lat="44.44288" lon="0.99039">
        <ele>127.82</ele>
      </trkpt>
      <trkpt lat="44.44283" lon="0.99046">
        <ele>128.41</ele>
      </trkpt>
      <trkpt lat="44.44276" lon="0.99051">
        <ele>128.94</ele>
      </trkpt>
      <trkpt lat="44.44329" lon="0.9914">
        <ele>121.54</ele>
      </trkpt>
      <trkpt lat="44.44383" lon="0.99229">
        <ele>120.68</ele>
      </trkpt>
      <trkpt lat="44.44436" lon="0.99318">
        <ele>123.54</ele>
      </trkpt>
      <trkpt lat="44.4442" lon="0.99339">
        <ele>124.33</ele>
      </trkpt>
      <trkpt lat="44.44466" lon="0.99326">
        <ele>124.3</ele>
      </trkpt>
      <trkpt lat="44.44421" lon="0.99339">
        <ele>124.33</ele>
      </trkpt>
      <trkpt lat="44.44368" lon="0.99401">
        <ele>125.32</ele>
      </trkpt>
      <trkpt lat="44.44316" lon="0.99464">
        <ele>126.74</ele>
      </trkpt>
      <trkpt lat="44.44263" lon="0.99526">
        <ele>128.6</ele>
      </trkpt>
      <trkpt lat="44.44229" lon="0.99569">
        <ele>129.81</ele>
      </trkpt>
      <trkpt lat="44.44194" lon="0.99611">
        <ele>131.27</ele>
      </trkpt>
      <trkpt lat="44.44186" lon="0.99675">
        <ele>132.47</ele>
      </trkpt>
      <trkpt lat="44.44178" lon="0.99739">
        <ele>133.37</ele>
      </trkpt>
      <trkpt lat="44.44151" lon="0.99752">
        <ele>134.66</ele>
      </trkpt>
      <trkpt lat="44.44083" lon="0.99769">
        <ele>135.74</ele>
      </trkpt>
      <trkpt lat="44.44029" lon="0.99812">
        <ele>136.48</ele>
      </trkpt>
      <trkpt lat="44.43975" lon="0.99855">
        <ele>136.72</ele>
      </trkpt>
      <trkpt lat="44.43921" lon="0.99898">
        <ele>136.86</ele>
      </trkpt>
      <trkpt lat="44.43889" lon="0.99933">
        <ele>137.77</ele>
      </trkpt>
      <trkpt lat="44.43895" lon="0.9994">
        <ele>138.18</ele>
      </trkpt>
      <trkpt lat="44.4391" lon="0.99969">
        <ele>140.05</ele>
      </trkpt>
      <trkpt lat="44.43913" lon="1.00012">
        <ele>141.76</ele>
      </trkpt>
      <trkpt lat="44.43911" lon="1.00115">
        <ele>149.78</ele>
      </trkpt>
      <trkpt lat="44.4394" lon="1.00191">
        <ele>156.69</ele>
      </trkpt>
      <trkpt lat="44.43969" lon="1.00267">
        <ele>162.74</ele>
      </trkpt>
      <trkpt lat="44.44004" lon="1.00308">
        <ele>165.37</ele>
      </trkpt>
      <trkpt lat="44.44039" lon="1.00348">
        <ele>167.76</ele>
      </trkpt>
      <trkpt lat="44.44072" lon="1.00369">
        <ele>169.64</ele>
      </trkpt>
      <trkpt lat="44.44145" lon="1.00373">
        <ele>174.31</ele>
      </trkpt>
      <trkpt lat="44.44214" lon="1.00397">
        <ele>180.22</ele>
      </trkpt>
      <trkpt lat="44.44264" lon="1.00428">
        <ele>183.09</ele>
      </trkpt>
      <trkpt lat="44.44303" lon="1.0046">
        <ele>187.28</ele>
      </trkpt>
      <trkpt lat="44.44329" lon="1.00493">
        <ele>190.86</ele>
      </trkpt>
      <trkpt lat="44.4434" lon="1.00556">
        <ele>195.81</ele>
      </trkpt>
      <trkpt lat="44.44342" lon="1.00589">
        <ele>198.67</ele>
      </trkpt>
      <trkpt lat="44.4434" lon="1.00556">
        <ele>194.94</ele>
      </trkpt>
      <trkpt lat="44.44329" lon="1.00493">
        <ele>191.15</ele>
      </trkpt>
      <trkpt lat="44.44357" lon="1.00474">
        <ele>199.42</ele>
      </trkpt>
      <trkpt lat="44.44355" lon="1.00455">
        <ele>199.94</ele>
      </trkpt>
      <trkpt lat="44.44363" lon="1.00415">
        <ele>201.89</ele>
      </trkpt>
      <trkpt lat="44.44363" lon="1.004">
        <ele>202.6</ele>
      </trkpt>
      <trkpt lat="44.44356" lon="1.0038">
        <ele>202.74</ele>
      </trkpt>
      <trkpt lat="44.44354" lon="1.00377">
        <ele>202.61</ele>
      </trkpt>
      <trkpt lat="44.44347" lon="1.00373">
        <ele>202.22</ele>
      </trkpt>
      <trkpt lat="44.44337" lon="1.00371">
        <ele>201.47</ele>
      </trkpt>
      <trkpt lat="44.44334" lon="1.00368">
        <ele>201.2</ele>
      </trkpt>
      <trkpt lat="44.44335" lon="1.00363">
        <ele>201.21</ele>
      </trkpt>
      <trkpt lat="44.44338" lon="1.00359">
        <ele>201.5</ele>
      </trkpt>
      <trkpt lat="44.44342" lon="1.00358">
        <ele>202.05</ele>
      </trkpt>
      <trkpt lat="44.44363" lon="1.00354">
        <ele>203.66</ele>
      </trkpt>
      <trkpt lat="44.44378" lon="1.00364">
        <ele>204.33</ele>
      </trkpt>
      <trkpt lat="44.44393" lon="1.00376">
        <ele>204.5</ele>
      </trkpt>
      <trkpt lat="44.44402" lon="1.0038">
        <ele>204.41</ele>
      </trkpt>
      <trkpt lat="44.44404" lon="1.00385">
        <ele>204.33</ele>
      </trkpt>
      <trkpt lat="44.44399" lon="1.00404">
        <ele>203.94</ele>
      </trkpt>
      <trkpt lat="44.44395" lon="1.00447">
        <ele>202.86</ele>
      </trkpt>
      <trkpt lat="44.44409" lon="1.00523">
        <ele>205.08</ele>
      </trkpt>
      <trkpt lat="44.44422" lon="1.00598">
        <ele>211.87</ele>
      </trkpt>
      <trkpt lat="44.44428" lon="1.00617">
        <ele>212.88</ele>
      </trkpt>
      <trkpt lat="44.44451" lon="1.00657">
        <ele>216.52</ele>
      </trkpt>
      <trkpt lat="44.44469" lon="1.00696">
        <ele>217.74</ele>
      </trkpt>
      <trkpt lat="44.44518" lon="1.0064">
        <ele>219.23</ele>
      </trkpt>
      <trkpt lat="44.44574" lon="1.0059">
        <ele>214.8</ele>
      </trkpt>
      <trkpt lat="44.44623" lon="1.00647">
        <ele>211.63</ele>
      </trkpt>
      <trkpt lat="44.44674" lon="1.00573">
        <ele>200.77</ele>
      </trkpt>
      <trkpt lat="44.44726" lon="1.00498">
        <ele>189.51</ele>
      </trkpt>
      <trkpt lat="44.44777" lon="1.00424">
        <ele>180.96</ele>
      </trkpt>
      <trkpt lat="44.44821" lon="1.0033">
        <ele>169.53</ele>
      </trkpt>
      <trkpt lat="44.44865" lon="1.00237">
        <ele>160.64</ele>
      </trkpt>
      <trkpt lat="44.4491" lon="1.00143">
        <ele>148.69</ele>
      </trkpt>
      <trkpt lat="44.44954" lon="1.0005">
        <ele>141.4</ele>
      </trkpt>
      <trkpt lat="44.44998" lon="0.99956">
        <ele>132.57</ele>
      </trkpt>
      <trkpt lat="44.44938" lon="0.9989">
        <ele>133.21</ele>
      </trkpt>
      <trkpt lat="44.44879" lon="0.99824">
        <ele>134.73</ele>
      </trkpt>
      <trkpt lat="44.44819" lon="0.99758">
        <ele>134.53</ele>
      </trkpt>
      <trkpt lat="44.44759" lon="0.99692">
        <ele>130.59</ele>
      </trkpt>
      <trkpt lat="44.44709" lon="0.99622">
        <ele>129.08</ele>
      </trkpt>
      <trkpt lat="44.44659" lon="0.99552">
        <ele>126.58</ele>
      </trkpt>
      <trkpt lat="44.44689" lon="0.99498">
        <ele>122.7</ele>
      </trkpt>
      <trkpt lat="44.44719" lon="0.99443">
        <ele>122.58</ele>
      </trkpt>
      <trkpt lat="44.44758" lon="0.99434">
        <ele>124.97</ele>
      </trkpt>
      <trkpt lat="44.44826" lon="0.99351">
        <ele>134.47</ele>
      </trkpt>
      <trkpt lat="44.44893" lon="0.99268">
        <ele>142.76</ele>
      </trkpt>
      <trkpt lat="44.44934" lon="0.9919">
        <ele>149.99</ele>
      </trkpt>
      <trkpt lat="44.44949" lon="0.99185">
        <ele>153.35</ele>
      </trkpt>
      <trkpt lat="44.45014" lon="0.99254">
        <ele>167.79</ele>
      </trkpt>
      <trkpt lat="44.45059" lon="0.99272">
        <ele>174.01</ele>
      </trkpt>
      <trkpt lat="44.45103" lon="0.9929">
        <ele>182.62</ele>
      </trkpt>
      <trkpt lat="44.45169" lon="0.99271">
        <ele>192.9</ele>
      </trkpt>
      <trkpt lat="44.4524" lon="0.99215">
        <ele>200.15</ele>
      </trkpt>
      <trkpt lat="44.4531" lon="0.99158">
        <ele>203</ele>
      </trkpt>
      <trkpt lat="44.45384" lon="0.99207">
        <ele>201.57</ele>
      </trkpt>
      <trkpt lat="44.45457" lon="0.99256">
        <ele>199.55</ele>
      </trkpt>
      <trkpt lat="44.45517" lon="0.99298">
        <ele>197.73</ele>
      </trkpt>
      <trkpt lat="44.45577" lon="0.99339">
        <ele>195.59</ele>
      </trkpt>
      <trkpt lat="44.45637" lon="0.99381">
        <ele>197.15</ele>
      </trkpt>
      <trkpt lat="44.45688" lon="0.99403">
        <ele>197.73</ele>
      </trkpt>
      <trkpt lat="44.45738" lon="0.99424">
        <ele>196.89</ele>
      </trkpt>
      <trkpt lat="44.45809" lon="0.99434">
        <ele>189.63</ele>
      </trkpt>
      <trkpt lat="44.45877" lon="0.99428">
        <ele>185.83</ele>
      </trkpt>
      <trkpt lat="44.45944" lon="0.99421">
        <ele>183.15</ele>
      </trkpt>
      <trkpt lat="44.46019" lon="0.99418">
        <ele>184.36</ele>
      </trkpt>
      <trkpt lat="44.46093" lon="0.99415">
        <ele>184.51</ele>
      </trkpt>
      <trkpt lat="44.46133" lon="0.99455">
        <ele>185.21</ele>
      </trkpt>
      <trkpt lat="44.46175" lon="0.99509">
        <ele>185.81</ele>
      </trkpt>
      <trkpt lat="44.46224" lon="0.99552">
        <ele>188.07</ele>
      </trkpt>
      <trkpt lat="44.46273" lon="0.99594">
        <ele>187.64</ele>
      </trkpt>
      <trkpt lat="44.46336" lon="0.99577">
        <ele>184.07</ele>
      </trkpt>
      <trkpt lat="44.4635" lon="0.99561">
        <ele>183.42</ele>
      </trkpt>
      <trkpt lat="44.46363" lon="0.99538">
        <ele>182.28</ele>
      </trkpt>
      <trkpt lat="44.46358" lon="0.9957">
        <ele>184.41</ele>
      </trkpt>
      <trkpt lat="44.46408" lon="0.99625">
        <ele>184.05</ele>
      </trkpt>
      <trkpt lat="44.46404" lon="0.99662">
        <ele>184.05</ele>
      </trkpt>
      <trkpt lat="44.46419" lon="0.99719">
        <ele>184.05</ele>
      </trkpt>
      <trkpt lat="44.4642" lon="0.99723">
        <ele>180.12</ele>
      </trkpt>
      <trkpt lat="44.46429" lon="0.9972">
        <ele>178.88</ele>
      </trkpt>
      <trkpt lat="44.46482" lon="0.99682">
        <ele>169.57</ele>
      </trkpt>
      <trkpt lat="44.46485" lon="0.99677">
        <ele>169.3</ele>
      </trkpt>
      <trkpt lat="44.46483" lon="0.99656">
        <ele>171.07</ele>
      </trkpt>
      <trkpt lat="44.46485" lon="0.99648">
        <ele>170.78</ele>
      </trkpt>
      <trkpt lat="44.4649" lon="0.99641">
        <ele>170.3</ele>
      </trkpt>
      <trkpt lat="44.46496" lon="0.99638">
        <ele>169.28</ele>
      </trkpt>
      <trkpt lat="44.46506" lon="0.9963">
        <ele>167.25</ele>
      </trkpt>
      <trkpt lat="44.46513" lon="0.99619">
        <ele>166.57</ele>
      </trkpt>
      <trkpt lat="44.46522" lon="0.99612">
        <ele>165.07</ele>
      </trkpt>
      <trkpt lat="44.46548" lon="0.99595">
        <ele>160.65</ele>
      </trkpt>
      <trkpt lat="44.46565" lon="0.996">
        <ele>157.5</ele>
      </trkpt>
      <trkpt lat="44.46572" lon="0.996">
        <ele>156.53</ele>
      </trkpt>
      <trkpt lat="44.46586" lon="0.99588">
        <ele>154.34</ele>
      </trkpt>
      <trkpt lat="44.46599" lon="0.99581">
        <ele>152.85</ele>
      </trkpt>
      <trkpt lat="44.46605" lon="0.9958">
        <ele>152.36</ele>
      </trkpt>
      <trkpt lat="44.46611" lon="0.99582">
        <ele>151.51</ele>
      </trkpt>
      <trkpt lat="44.46617" lon="0.99572">
        <ele>151.26</ele>
      </trkpt>
      <trkpt lat="44.46624" lon="0.99554">
        <ele>151.91</ele>
      </trkpt>
      <trkpt lat="44.4663" lon="0.9955">
        <ele>151.63</ele>
      </trkpt>
      <trkpt lat="44.46638" lon="0.99551">
        <ele>150.31</ele>
      </trkpt>
      <trkpt lat="44.46661" lon="0.99565">
        <ele>147.67</ele>
      </trkpt>
      <trkpt lat="44.46676" lon="0.99571">
        <ele>146.67</ele>
      </trkpt>
      <trkpt lat="44.46694" lon="0.99587">
        <ele>145.69</ele>
      </trkpt>
      <trkpt lat="44.46715" lon="0.99617">
        <ele>145.47</ele>
      </trkpt>
      <trkpt lat="44.46723" lon="0.99643">
        <ele>145.67</ele>
      </trkpt>
      <trkpt lat="44.46735" lon="0.99661">
        <ele>146.06</ele>
      </trkpt>
      <trkpt lat="44.46739" lon="0.99655">
        <ele>151.09</ele>
      </trkpt>
      <trkpt lat="44.46814" lon="0.99597">
        <ele>143.59</ele>
      </trkpt>
      <trkpt lat="44.46862" lon="0.99614">
        <ele>137.78</ele>
      </trkpt>
      <trkpt lat="44.46909" lon="0.9963">
        <ele>132.9</ele>
      </trkpt>
      <trkpt lat="44.46922" lon="0.99624">
        <ele>131.71</ele>
      </trkpt>
      <trkpt lat="44.46925" lon="0.99637">
        <ele>131.85</ele>
      </trkpt>
      <trkpt lat="44.46923" lon="0.99666">
        <ele>132.13</ele>
      </trkpt>
      <trkpt lat="44.46908" lon="0.99735">
        <ele>133.17</ele>
      </trkpt>
      <trkpt lat="44.4689" lon="0.99843">
        <ele>134.09</ele>
      </trkpt>
      <trkpt lat="44.46872" lon="0.99951">
        <ele>133.93</ele>
      </trkpt>
      <trkpt lat="44.46884" lon="1.00003">
        <ele>133.93</ele>
      </trkpt>
      <trkpt lat="44.46919" lon="1.00104">
        <ele>132.88</ele>
      </trkpt>
      <trkpt lat="44.46905" lon="1.00197">
        <ele>132.71</ele>
      </trkpt>
      <trkpt lat="44.46892" lon="1.0029">
        <ele>132.6</ele>
      </trkpt>
      <trkpt lat="44.46878" lon="1.00383">
        <ele>132.92</ele>
      </trkpt>
      <trkpt lat="44.46934" lon="1.00427">
        <ele>130.2</ele>
      </trkpt>
      <trkpt lat="44.4699" lon="1.00471">
        <ele>127.38</ele>
      </trkpt>
      <trkpt lat="44.46946" lon="1.00549">
        <ele>127.38</ele>
      </trkpt>
      <trkpt lat="44.46901" lon="1.00626">
        <ele>148.09</ele>
      </trkpt>
      <trkpt lat="44.46857" lon="1.00704">
        <ele>148.09</ele>
      </trkpt>
      <trkpt lat="44.46812" lon="1.00781">
        <ele>148.09</ele>
      </trkpt>
      <trkpt lat="44.46764" lon="1.00746">
        <ele>154.47</ele>
      </trkpt>
      <trkpt lat="44.46729" lon="1.00748">
        <ele>155.81</ele>
      </trkpt>
      <trkpt lat="44.46715" lon="1.00752">
        <ele>157.62</ele>
      </trkpt>
      <trkpt lat="44.46674" lon="1.00691">
        <ele>162.18</ele>
      </trkpt>
      <trkpt lat="44.46632" lon="1.00629">
        <ele>171.51</ele>
      </trkpt>
      <trkpt lat="44.4656" lon="1.00599">
        <ele>180.39</ele>
      </trkpt>
      <trkpt lat="44.46545" lon="1.00585">
        <ele>181.82</ele>
      </trkpt>
      <trkpt lat="44.46493" lon="1.00517">
        <ele>191.04</ele>
      </trkpt>
      <trkpt lat="44.46446" lon="1.00485">
        <ele>196.34</ele>
      </trkpt>
      <trkpt lat="44.46434" lon="1.00471">
        <ele>197.73</ele>
      </trkpt>
      <trkpt lat="44.46415" lon="1.00431">
        <ele>198.25</ele>
      </trkpt>
      <trkpt lat="44.46382" lon="1.00389">
        <ele>197.34</ele>
      </trkpt>
      <trkpt lat="44.46371" lon="1.00414">
        <ele>198.18</ele>
      </trkpt>
      <trkpt lat="44.46382" lon="1.00389">
        <ele>197.34</ele>
      </trkpt>
      <trkpt lat="44.46394" lon="1.00352">
        <ele>196.36</ele>
      </trkpt>
      <trkpt lat="44.46402" lon="1.00277">
        <ele>194.12</ele>
      </trkpt>
      <trkpt lat="44.46401" lon="1.0024">
        <ele>193.79</ele>
      </trkpt>
      <trkpt lat="44.46391" lon="1.00146">
        <ele>191.77</ele>
      </trkpt>
      <trkpt lat="44.46375" lon="1.0009">
        <ele>191.04</ele>
      </trkpt>
      <trkpt lat="44.46318" lon="1.00136">
        <ele>181.14</ele>
      </trkpt>
      <trkpt lat="44.46288" lon="1.00189">
        <ele>176.58</ele>
      </trkpt>
      <trkpt lat="44.46267" lon="1.00215">
        <ele>173.09</ele>
      </trkpt>
      <trkpt lat="44.4625" lon="1.0023">
        <ele>171.99</ele>
      </trkpt>
      <trkpt lat="44.46233" lon="1.00232">
        <ele>171.02</ele>
      </trkpt>
      <trkpt lat="44.4621" lon="1.00232">
        <ele>169.98</ele>
      </trkpt>
      <trkpt lat="44.46171" lon="1.00226">
        <ele>168.16</ele>
      </trkpt>
      <trkpt lat="44.46117" lon="1.00232">
        <ele>167.15</ele>
      </trkpt>
      <trkpt lat="44.46062" lon="1.00237">
        <ele>168.5</ele>
      </trkpt>
      <trkpt lat="44.46012" lon="1.00229">
        <ele>170.32</ele>
      </trkpt>
      <trkpt lat="44.45962" lon="1.0022">
        <ele>169.11</ele>
      </trkpt>
      <trkpt lat="44.4589" lon="1.00233">
        <ele>166.94</ele>
      </trkpt>
      <trkpt lat="44.45814" lon="1.00269">
        <ele>164.23</ele>
      </trkpt>
      <trkpt lat="44.45754" lon="1.00313">
        <ele>161.59</ele>
      </trkpt>
      <trkpt lat="44.45695" lon="1.00358">
        <ele>159.48</ele>
      </trkpt>
      <trkpt lat="44.45635" lon="1.00402">
        <ele>155.89</ele>
      </trkpt>
      <trkpt lat="44.45565" lon="1.00423">
        <ele>153.39</ele>
      </trkpt>
      <trkpt lat="44.45494" lon="1.00444">
        <ele>151.14</ele>
      </trkpt>
      <trkpt lat="44.45443" lon="1.00489">
        <ele>148.8</ele>
      </trkpt>
      <trkpt lat="44.45391" lon="1.00535">
        <ele>145.18</ele>
      </trkpt>
      <trkpt lat="44.4534" lon="1.0058">
        <ele>142.09</ele>
      </trkpt>
      <trkpt lat="44.45273" lon="1.00604">
        <ele>138.2</ele>
      </trkpt>
      <trkpt lat="44.45193" lon="1.00592">
        <ele>140.59</ele>
      </trkpt>
      <trkpt lat="44.45181" lon="1.00579">
        <ele>141.15</ele>
      </trkpt>
      <trkpt lat="44.45182" lon="1.00559">
        <ele>141.96</ele>
      </trkpt>
      <trkpt lat="44.4517" lon="1.00557">
        <ele>143.41</ele>
      </trkpt>
      <trkpt lat="44.45138" lon="1.00577">
        <ele>147.49</ele>
      </trkpt>
      <trkpt lat="44.45088" lon="1.006">
        <ele>153.77</ele>
      </trkpt>
      <trkpt lat="44.45037" lon="1.00622">
        <ele>158.23</ele>
      </trkpt>
      <trkpt lat="44.45026" lon="1.00632">
        <ele>159.15</ele>
      </trkpt>
      <trkpt lat="44.45026" lon="1.00645">
        <ele>159.63</ele>
      </trkpt>
      <trkpt lat="44.45035" lon="1.00656">
        <ele>160.2</ele>
      </trkpt>
      <trkpt lat="44.45029" lon="1.00675">
        <ele>161.85</ele>
      </trkpt>
      <trkpt lat="44.45006" lon="1.00695">
        <ele>163.86</ele>
      </trkpt>
      <trkpt lat="44.4496" lon="1.00766">
        <ele>172.46</ele>
      </trkpt>
      <trkpt lat="44.44914" lon="1.00836">
        <ele>181.99</ele>
      </trkpt>
      <trkpt lat="44.44899" lon="1.0089">
        <ele>189.22</ele>
      </trkpt>
      <trkpt lat="44.44868" lon="1.0095">
        <ele>200.11</ele>
      </trkpt>
      <trkpt lat="44.44821" lon="1.01012">
        <ele>208.07</ele>
      </trkpt>
      <trkpt lat="44.44777" lon="1.01033">
        <ele>211.26</ele>
      </trkpt>
      <trkpt lat="44.44691" lon="1.01063">
        <ele>215.48</ele>
      </trkpt>
      <trkpt lat="44.44637" lon="1.01075">
        <ele>217.88</ele>
      </trkpt>
      <trkpt lat="44.44561" lon="1.01114">
        <ele>219.62</ele>
      </trkpt>
      <trkpt lat="44.4456" lon="1.01126">
        <ele>219.62</ele>
      </trkpt>
      <trkpt lat="44.44533" lon="1.01142">
        <ele>220.65</ele>
      </trkpt>
      <trkpt lat="44.44509" lon="1.01164">
        <ele>221.57</ele>
      </trkpt>
      <trkpt lat="44.4448" lon="1.01203">
        <ele>222.41</ele>
      </trkpt>
      <trkpt lat="44.44474" lon="1.01207">
        <ele>222.41</ele>
      </trkpt>
      <trkpt lat="44.4444" lon="1.01136">
        <ele>225.08</ele>
      </trkpt>
      <trkpt lat="44.44414" lon="1.01094">
        <ele>226.05</ele>
      </trkpt>
      <trkpt lat="44.44366" lon="1.01054">
        <ele>226.01</ele>
      </trkpt>
      <trkpt lat="44.4432" lon="1.01033">
        <ele>226.05</ele>
      </trkpt>
      <trkpt lat="44.44302" lon="1.01039">
        <ele>226.79</ele>
      </trkpt>
      <trkpt lat="44.4429" lon="1.0105">
        <ele>226.79</ele>
      </trkpt>
      <trkpt lat="44.44277" lon="1.0107">
        <ele>227.09</ele>
      </trkpt>
      <trkpt lat="44.44254" lon="1.01086">
        <ele>227.33</ele>
      </trkpt>
      <trkpt lat="44.44267" lon="1.01124">
        <ele>226.05</ele>
      </trkpt>
      <trkpt lat="44.44259" lon="1.0115">
        <ele>225.16</ele>
      </trkpt>
      <trkpt lat="44.44239" lon="1.01172">
        <ele>224.01</ele>
      </trkpt>
      <trkpt lat="44.44214" lon="1.01216">
        <ele>222.68</ele>
      </trkpt>
      <trkpt lat="44.44189" lon="1.01247">
        <ele>221.53</ele>
      </trkpt>
      <trkpt lat="44.44226" lon="1.01338">
        <ele>218.21</ele>
      </trkpt>
      <trkpt lat="44.44262" lon="1.01428">
        <ele>218.21</ele>
      </trkpt>
      <trkpt lat="44.44235" lon="1.01352">
        <ele>218.21</ele>
      </trkpt>
      <trkpt lat="44.44203" lon="1.01278">
        <ele>223.41</ele>
      </trkpt>
      <trkpt lat="44.44182" lon="1.01237">
        <ele>223.41</ele>
      </trkpt>
      <trkpt lat="44.44145" lon="1.01217">
        <ele>223.41</ele>
      </trkpt>
      <trkpt lat="44.44078" lon="1.01234">
        <ele>223.07</ele>
      </trkpt>
      <trkpt lat="44.44077" lon="1.01213">
        <ele>223.51</ele>
      </trkpt>
      <trkpt lat="44.4406" lon="1.01095">
        <ele>225.29</ele>
      </trkpt>
      <trkpt lat="44.44043" lon="1.01055">
        <ele>224.02</ele>
      </trkpt>
      <trkpt lat="44.44006" lon="1.01062">
        <ele>219.32</ele>
      </trkpt>
      <trkpt lat="44.43996" lon="1.0106">
        <ele>217.89</ele>
      </trkpt>
      <trkpt lat="44.43979" lon="1.01064">
        <ele>214.34</ele>
      </trkpt>
      <trkpt lat="44.43957" lon="1.01073">
        <ele>212.54</ele>
      </trkpt>
      <trkpt lat="44.43949" lon="1.01071">
        <ele>211.59</ele>
      </trkpt>
      <trkpt lat="44.43941" lon="1.0106">
        <ele>211.59</ele>
      </trkpt>
      <trkpt lat="44.43931" lon="1.01004">
        <ele>210.4</ele>
      </trkpt>
      <trkpt lat="44.43918" lon="1.00888">
        <ele>210</ele>
      </trkpt>
      <trkpt lat="44.4391" lon="1.00826">
        <ele>209.84</ele>
      </trkpt>
      <trkpt lat="44.43901" lon="1.00763">
        <ele>209.17</ele>
      </trkpt>
      <trkpt lat="44.43896" lon="1.00705">
        <ele>210.62</ele>
      </trkpt>
      <trkpt lat="44.43942" lon="1.0068">
        <ele>215.95</ele>
      </trkpt>
      <trkpt lat="44.43936" lon="1.00638">
        <ele>212.2</ele>
      </trkpt>
      <trkpt lat="44.43924" lon="1.006">
        <ele>209.44</ele>
      </trkpt>
      <trkpt lat="44.43911" lon="1.00593">
        <ele>208.38</ele>
      </trkpt>
      <trkpt lat="44.43869" lon="1.00493">
        <ele>199.32</ele>
      </trkpt>
      <trkpt lat="44.43841" lon="1.00554">
        <ele>194.44</ele>
      </trkpt>
      <trkpt lat="44.43836" lon="1.00641">
        <ele>190.77</ele>
      </trkpt>
      <trkpt lat="44.4383" lon="1.00727">
        <ele>186.85</ele>
      </trkpt>
      <trkpt lat="44.43825" lon="1.00814">
        <ele>184.15</ele>
      </trkpt>
      <trkpt lat="44.43805" lon="1.00784">
        <ele>180</ele>
      </trkpt>
      <trkpt lat="44.43802" lon="1.00838">
        <ele>177.45</ele>
      </trkpt>
      <trkpt lat="44.43813" lon="1.00911">
        <ele>174.39</ele>
      </trkpt>
      <trkpt lat="44.43788" lon="1.0087">
        <ele>169.68</ele>
      </trkpt>
      <trkpt lat="44.43774" lon="1.00867">
        <ele>168.48</ele>
      </trkpt>
      <trkpt lat="44.43803" lon="1.00933">
        <ele>170.03</ele>
      </trkpt>
      <trkpt lat="44.43808" lon="1.00957">
        <ele>170.12</ele>
      </trkpt>
      <trkpt lat="44.43807" lon="1.00965">
        <ele>170.12</ele>
      </trkpt>
      <trkpt lat="44.43808" lon="1.00957">
        <ele>170.12</ele>
      </trkpt>
      <trkpt lat="44.43803" lon="1.00933">
        <ele>170.03</ele>
      </trkpt>
      <trkpt lat="44.43774" lon="1.00867">
        <ele>168.48</ele>
      </trkpt>
      <trkpt lat="44.43758" lon="1.00807">
        <ele>163.13</ele>
      </trkpt>
      <trkpt lat="44.43741" lon="1.00747">
        <ele>159.17</ele>
      </trkpt>
      <trkpt lat="44.43723" lon="1.00712">
        <ele>156.98</ele>
      </trkpt>
      <trkpt lat="44.43708" lon="1.00689">
        <ele>153.8</ele>
      </trkpt>
      <trkpt lat="44.43647" lon="1.00725">
        <ele>156.78</ele>
      </trkpt>
      <trkpt lat="44.43705" lon="1.0069">
        <ele>153.8</ele>
      </trkpt>
      <trkpt lat="44.43725" lon="1.00607">
        <ele>151.79</ele>
      </trkpt>
      <trkpt lat="44.43727" lon="1.00561">
        <ele>151.15</ele>
      </trkpt>
      <trkpt lat="44.43706" lon="1.00503">
        <ele>148.97</ele>
      </trkpt>
      <trkpt lat="44.43684" lon="1.00445">
        <ele>148.57</ele>
      </trkpt>
      <trkpt lat="44.43696" lon="1.0033">
        <ele>147.3</ele>
      </trkpt>
      <trkpt lat="44.43733" lon="1.00238">
        <ele>147.16</ele>
      </trkpt>
      <trkpt lat="44.43769" lon="1.00145">
        <ele>146.02</ele>
      </trkpt>
      <trkpt lat="44.43755" lon="1.0016">
        <ele>145.01</ele>
      </trkpt>
      <trkpt lat="44.43737" lon="1.00168">
        <ele>145.01</ele>
      </trkpt>
      <trkpt lat="44.43731" lon="1.00172">
        <ele>144.59</ele>
      </trkpt>
      <trkpt lat="44.43723" lon="1.00157">
        <ele>143.41</ele>
      </trkpt>
      <trkpt lat="44.43651" lon="1.00104">
        <ele>147.49</ele>
      </trkpt>
      <trkpt lat="44.43576" lon="1.00113">
        <ele>154.9</ele>
      </trkpt>
      <trkpt lat="44.43501" lon="1.00121">
        <ele>166.3</ele>
      </trkpt>
      <trkpt lat="44.43426" lon="1.0013">
        <ele>176.62</ele>
      </trkpt>
      <trkpt lat="44.43351" lon="1.00138">
        <ele>188.72</ele>
      </trkpt>
      <trkpt lat="44.43276" lon="1.002">
        <ele>196.98</ele>
      </trkpt>
      <trkpt lat="44.43201" lon="1.00262">
        <ele>203.29</ele>
      </trkpt>
      <trkpt lat="44.43125" lon="1.00324">
        <ele>209.55</ele>
      </trkpt>
      <trkpt lat="44.4305" lon="1.00386">
        <ele>212.18</ele>
      </trkpt>
      <trkpt lat="44.43051" lon="1.00387">
        <ele>211.4</ele>
      </trkpt>
      <trkpt lat="44.43052" lon="1.00405">
        <ele>212.01</ele>
      </trkpt>
      <trkpt lat="44.4304" lon="1.00412">
        <ele>212.15</ele>
      </trkpt>
      <trkpt lat="44.43033" lon="1.00421">
        <ele>212.43</ele>
      </trkpt>
      <trkpt lat="44.43019" lon="1.00433">
        <ele>212.53</ele>
      </trkpt>
      <trkpt lat="44.43009" lon="1.00443">
        <ele>212.87</ele>
      </trkpt>
      <trkpt lat="44.43007" lon="1.00448">
        <ele>212.87</ele>
      </trkpt>
      <trkpt lat="44.42996" lon="1.0046">
        <ele>213.07</ele>
      </trkpt>
      <trkpt lat="44.42969" lon="1.00499">
        <ele>213.91</ele>
      </trkpt>
      <trkpt lat="44.42963" lon="1.00507">
        <ele>213.91</ele>
      </trkpt>
      <trkpt lat="44.42931" lon="1.00556">
        <ele>214.06</ele>
      </trkpt>
      <trkpt lat="44.42897" lon="1.00525">
        <ele>215.77</ele>
      </trkpt>
      <trkpt lat="44.4288" lon="1.0052">
        <ele>215.77</ele>
      </trkpt>
      <trkpt lat="44.42862" lon="1.00537">
        <ele>215.77</ele>
      </trkpt>
      <trkpt lat="44.4282" lon="1.006">
        <ele>219.41</ele>
      </trkpt>
      <trkpt lat="44.42788" lon="1.00638">
        <ele>219.41</ele>
      </trkpt>
      <trkpt lat="44.42796" lon="1.00701">
        <ele>218.88</ele>
      </trkpt>
      <trkpt lat="44.42803" lon="1.00764">
        <ele>217</ele>
      </trkpt>
      <trkpt lat="44.42809" lon="1.00853">
        <ele>212.16</ele>
      </trkpt>
      <trkpt lat="44.42815" lon="1.00942">
        <ele>211.04</ele>
      </trkpt>
      <trkpt lat="44.42821" lon="1.01031">
        <ele>212.17</ele>
      </trkpt>
      <trkpt lat="44.42831" lon="1.01083">
        <ele>215.12</ele>
      </trkpt>
      <trkpt lat="44.4286" lon="1.01144">
        <ele>219.4</ele>
      </trkpt>
      <trkpt lat="44.42889" lon="1.01205">
        <ele>223.45</ele>
      </trkpt>
      <trkpt lat="44.42918" lon="1.01296">
        <ele>226.91</ele>
      </trkpt>
      <trkpt lat="44.42944" lon="1.0134">
        <ele>228.04</ele>
      </trkpt>
      <trkpt lat="44.4295" lon="1.0136">
        <ele>228.04</ele>
      </trkpt>
      <trkpt lat="44.42946" lon="1.0143">
        <ele>229.35</ele>
      </trkpt>
      <trkpt lat="44.42933" lon="1.01481">
        <ele>226.87</ele>
      </trkpt>
      <trkpt lat="44.42971" lon="1.01519">
        <ele>225.97</ele>
      </trkpt>
      <trkpt lat="44.42972" lon="1.01538">
        <ele>225.3</ele>
      </trkpt>
      <trkpt lat="44.42991" lon="1.01625">
        <ele>220.62</ele>
      </trkpt>
      <trkpt lat="44.43062" lon="1.0162">
        <ele>219.53</ele>
      </trkpt>
      <trkpt lat="44.43038" lon="1.01697">
        <ele>216.44</ele>
      </trkpt>
      <trkpt lat="44.43013" lon="1.01773">
        <ele>215.19</ele>
      </trkpt>
      <trkpt lat="44.43011" lon="1.01781">
        <ele>214.93</ele>
      </trkpt>
      <trkpt lat="44.43063" lon="1.01845">
        <ele>214.93</ele>
      </trkpt>
      <trkpt lat="44.43114" lon="1.01908">
        <ele>216.95</ele>
      </trkpt>
      <trkpt lat="44.43121" lon="1.01913">
        <ele>216.95</ele>
      </trkpt>
      <trkpt lat="44.43123" lon="1.01911">
        <ele>216.95</ele>
      </trkpt>
      <trkpt lat="44.43129" lon="1.01927">
        <ele>213.68</ele>
      </trkpt>
      <trkpt lat="44.43142" lon="1.01943">
        <ele>213.28</ele>
      </trkpt>
      <trkpt lat="44.4317" lon="1.01972">
        <ele>211.98</ele>
      </trkpt>
      <trkpt lat="44.43173" lon="1.01978">
        <ele>211.98</ele>
      </trkpt>
      <trkpt lat="44.43172" lon="1.02004">
        <ele>211.58</ele>
      </trkpt>
      <trkpt lat="44.43174" lon="1.02053">
        <ele>210.68</ele>
      </trkpt>
      <trkpt lat="44.43186" lon="1.02126">
        <ele>210.85</ele>
      </trkpt>
      <trkpt lat="44.43194" lon="1.02144">
        <ele>211.4</ele>
      </trkpt>
      <trkpt lat="44.43197" lon="1.02147">
        <ele>211.55</ele>
      </trkpt>
      <trkpt lat="44.43202" lon="1.02148">
        <ele>211.55</ele>
      </trkpt>
      <trkpt lat="44.43209" lon="1.02155">
        <ele>211.94</ele>
      </trkpt>
      <trkpt lat="44.43224" lon="1.02167">
        <ele>212.67</ele>
      </trkpt>
      <trkpt lat="44.43236" lon="1.02173">
        <ele>213.72</ele>
      </trkpt>
      <trkpt lat="44.43311" lon="1.02202">
        <ele>222.04</ele>
      </trkpt>
      <trkpt lat="44.4332" lon="1.02208">
        <ele>222.86</ele>
      </trkpt>
      <trkpt lat="44.43334" lon="1.02212">
        <ele>223.4</ele>
      </trkpt>
      <trkpt lat="44.43347" lon="1.02219">
        <ele>223.48</ele>
      </trkpt>
      <trkpt lat="44.4335" lon="1.02219">
        <ele>223.48</ele>
      </trkpt>
      <trkpt lat="44.43361" lon="1.02227">
        <ele>223.56</ele>
      </trkpt>
      <trkpt lat="44.43376" lon="1.02243">
        <ele>223.61</ele>
      </trkpt>
      <trkpt lat="44.43407" lon="1.02263">
        <ele>223.76</ele>
      </trkpt>
      <trkpt lat="44.43418" lon="1.02273">
        <ele>224.12</ele>
      </trkpt>
      <trkpt lat="44.43432" lon="1.02281">
        <ele>224.71</ele>
      </trkpt>
      <trkpt lat="44.43438" lon="1.02286">
        <ele>225.21</ele>
      </trkpt>
      <trkpt lat="44.43451" lon="1.02293">
        <ele>226.26</ele>
      </trkpt>
      <trkpt lat="44.43459" lon="1.023">
        <ele>226.78</ele>
      </trkpt>
      <trkpt lat="44.43471" lon="1.02306">
        <ele>227.73</ele>
      </trkpt>
      <trkpt lat="44.43493" lon="1.02328">
        <ele>229.06</ele>
      </trkpt>
      <trkpt lat="44.43506" lon="1.02338">
        <ele>230.69</ele>
      </trkpt>
      <trkpt lat="44.43519" lon="1.02353">
        <ele>231.8</ele>
      </trkpt>
      <trkpt lat="44.43536" lon="1.02365">
        <ele>233.04</ele>
      </trkpt>
      <trkpt lat="44.43554" lon="1.02374">
        <ele>234.91</ele>
      </trkpt>
      <trkpt lat="44.4357" lon="1.02386">
        <ele>235.69</ele>
      </trkpt>
      <trkpt lat="44.43573" lon="1.02389">
        <ele>235.85</ele>
      </trkpt>
      <trkpt lat="44.43578" lon="1.0241">
        <ele>236.25</ele>
      </trkpt>
      <trkpt lat="44.43549" lon="1.02461">
        <ele>235.92</ele>
      </trkpt>
      <trkpt lat="44.4352" lon="1.02512">
        <ele>235.92</ele>
      </trkpt>
      <trkpt lat="44.43502" lon="1.02524">
        <ele>235.92</ele>
      </trkpt>
      <trkpt lat="44.43466" lon="1.02542">
        <ele>235.92</ele>
      </trkpt>
      <trkpt lat="44.43449" lon="1.02555">
        <ele>233.42</ele>
      </trkpt>
      <trkpt lat="44.43408" lon="1.02603">
        <ele>233.42</ele>
      </trkpt>
      <trkpt lat="44.4337" lon="1.02632">
        <ele>233.42</ele>
      </trkpt>
      <trkpt lat="44.43316" lon="1.02682">
        <ele>233.42</ele>
      </trkpt>
      <trkpt lat="44.43351" lon="1.02732">
        <ele>233.08</ele>
      </trkpt>
      <trkpt lat="44.43372" lon="1.02775">
        <ele>232.31</ele>
      </trkpt>
      <trkpt lat="44.43386" lon="1.02769">
        <ele>231.66</ele>
      </trkpt>
      <trkpt lat="44.4341" lon="1.02791">
        <ele>230.98</ele>
      </trkpt>
      <trkpt lat="44.43431" lon="1.02813">
        <ele>230.47</ele>
      </trkpt>
      <trkpt lat="44.43472" lon="1.02867">
        <ele>229.16</ele>
      </trkpt>
      <trkpt lat="44.43485" lon="1.02883">
        <ele>229.3</ele>
      </trkpt>
      <trkpt lat="44.435" lon="1.02897">
        <ele>229.47</ele>
      </trkpt>
      <trkpt lat="44.43538" lon="1.02926">
        <ele>229.56</ele>
      </trkpt>
      <trkpt lat="44.43555" lon="1.02935">
        <ele>229.51</ele>
      </trkpt>
      <trkpt lat="44.43574" lon="1.02942">
        <ele>229.43</ele>
      </trkpt>
      <trkpt lat="44.43586" lon="1.0295">
        <ele>229.43</ele>
      </trkpt>
      <trkpt lat="44.43598" lon="1.02954">
        <ele>229.46</ele>
      </trkpt>
      <trkpt lat="44.43617" lon="1.02955">
        <ele>229.44</ele>
      </trkpt>
      <trkpt lat="44.43636" lon="1.02959">
        <ele>229.38</ele>
      </trkpt>
      <trkpt lat="44.4366" lon="1.02971">
        <ele>228.73</ele>
      </trkpt>
      <trkpt lat="44.43673" lon="1.02979">
        <ele>228.73</ele>
      </trkpt>
      <trkpt lat="44.43727" lon="1.03017">
        <ele>227.19</ele>
      </trkpt>
      <trkpt lat="44.43735" lon="1.03019">
        <ele>226.8</ele>
      </trkpt>
      <trkpt lat="44.43748" lon="1.03026">
        <ele>226.22</ele>
      </trkpt>
      <trkpt lat="44.4379" lon="1.03058">
        <ele>224.02</ele>
      </trkpt>
      <trkpt lat="44.43851" lon="1.03097">
        <ele>219.82</ele>
      </trkpt>
      <trkpt lat="44.43912" lon="1.03136">
        <ele>215.33</ele>
      </trkpt>
      <trkpt lat="44.43983" lon="1.03185">
        <ele>209.04</ele>
      </trkpt>
      <trkpt lat="44.43986" lon="1.03196">
        <ele>208.32</ele>
      </trkpt>
      <trkpt lat="44.43985" lon="1.032">
        <ele>208.32</ele>
      </trkpt>
      <trkpt lat="44.43979" lon="1.03204">
        <ele>208.62</ele>
      </trkpt>
      <trkpt lat="44.43973" lon="1.03211">
        <ele>208.85</ele>
      </trkpt>
      <trkpt lat="44.43962" lon="1.03201">
        <ele>210.12</ele>
      </trkpt>
      <trkpt lat="44.439" lon="1.03256">
        <ele>199.86</ele>
      </trkpt>
      <trkpt lat="44.43842" lon="1.03332">
        <ele>206.76</ele>
      </trkpt>
      <trkpt lat="44.43784" lon="1.03408">
        <ele>208.18</ele>
      </trkpt>
      <trkpt lat="44.43741" lon="1.03472">
        <ele>208.18</ele>
      </trkpt>
      <trkpt lat="44.43698" lon="1.03535">
        <ele>208.18</ele>
      </trkpt>
      <trkpt lat="44.43652" lon="1.0357">
        <ele>208.18</ele>
      </trkpt>
      <trkpt lat="44.43605" lon="1.03604">
        <ele>219.23</ele>
      </trkpt>
      <trkpt lat="44.43597" lon="1.03638">
        <ele>219.23</ele>
      </trkpt>
      <trkpt lat="44.43599" lon="1.03689">
        <ele>219.23</ele>
      </trkpt>
      <trkpt lat="44.4356" lon="1.03795">
        <ele>219.23</ele>
      </trkpt>
      <trkpt lat="44.43511" lon="1.03822">
        <ele>219.23</ele>
      </trkpt>
      <trkpt lat="44.43461" lon="1.03848">
        <ele>219.23</ele>
      </trkpt>
      <trkpt lat="44.4344" lon="1.03879">
        <ele>219.23</ele>
      </trkpt>
      <trkpt lat="44.43439" lon="1.03879">
        <ele>226.48</ele>
      </trkpt>
      <trkpt lat="44.43435" lon="1.03884">
        <ele>226.53</ele>
      </trkpt>
      <trkpt lat="44.43418" lon="1.03892">
        <ele>226.46</ele>
      </trkpt>
      <trkpt lat="44.43367" lon="1.03925">
        <ele>224.72</ele>
      </trkpt>
      <trkpt lat="44.43354" lon="1.03938">
        <ele>223.89</ele>
      </trkpt>
      <trkpt lat="44.43386" lon="1.04054">
        <ele>224.43</ele>
      </trkpt>
      <trkpt lat="44.43412" lon="1.04091">
        <ele>224.43</ele>
      </trkpt>
      <trkpt lat="44.43365" lon="1.04125">
        <ele>223.29</ele>
      </trkpt>
      <trkpt lat="44.43317" lon="1.04159">
        <ele>224.69</ele>
      </trkpt>
      <trkpt lat="44.43304" lon="1.04206">
        <ele>228.03</ele>
      </trkpt>
      <trkpt lat="44.43297" lon="1.04224">
        <ele>229.62</ele>
      </trkpt>
      <trkpt lat="44.43274" lon="1.04259">
        <ele>231.57</ele>
      </trkpt>
      <trkpt lat="44.43222" lon="1.04301">
        <ele>234.36</ele>
      </trkpt>
      <trkpt lat="44.43172" lon="1.04337">
        <ele>236.11</ele>
      </trkpt>
      <trkpt lat="44.4315" lon="1.04361">
        <ele>237.26</ele>
      </trkpt>
      <trkpt lat="44.43113" lon="1.04407">
        <ele>238.79</ele>
      </trkpt>
      <trkpt lat="44.43099" lon="1.0443">
        <ele>238.78</ele>
      </trkpt>
      <trkpt lat="44.43094" lon="1.04461">
        <ele>238.76</ele>
      </trkpt>
      <trkpt lat="44.43072" lon="1.04521">
        <ele>239.65</ele>
      </trkpt>
      <trkpt lat="44.43061" lon="1.04576">
        <ele>241.87</ele>
      </trkpt>
      <trkpt lat="44.43047" lon="1.04604">
        <ele>242.44</ele>
      </trkpt>
      <trkpt lat="44.43048" lon="1.04617">
        <ele>241.75</ele>
      </trkpt>
      <trkpt lat="44.43051" lon="1.04622">
        <ele>241.75</ele>
      </trkpt>
      <trkpt lat="44.43051" lon="1.04632">
        <ele>240.37</ele>
      </trkpt>
      <trkpt lat="44.43089" lon="1.04697">
        <ele>234.75</ele>
      </trkpt>
      <trkpt lat="44.43087" lon="1.04715">
        <ele>234.36</ele>
      </trkpt>
      <trkpt lat="44.43055" lon="1.04723">
        <ele>233.68</ele>
      </trkpt>
      <trkpt lat="44.43038" lon="1.04736">
        <ele>233.5</ele>
      </trkpt>
      <trkpt lat="44.43025" lon="1.04755">
        <ele>233.39</ele>
      </trkpt>
      <trkpt lat="44.43017" lon="1.04776">
        <ele>233.32</ele>
      </trkpt>
      <trkpt lat="44.42978" lon="1.04829">
        <ele>235.48</ele>
      </trkpt>
      <trkpt lat="44.42938" lon="1.04882">
        <ele>238.83</ele>
      </trkpt>
      <trkpt lat="44.42885" lon="1.04921">
        <ele>240.93</ele>
      </trkpt>
      <trkpt lat="44.4283" lon="1.04945">
        <ele>242.65</ele>
      </trkpt>
      <trkpt lat="44.42779" lon="1.04951">
        <ele>243.36</ele>
      </trkpt>
      <trkpt lat="44.42728" lon="1.04956">
        <ele>244.3</ele>
      </trkpt>
      <trkpt lat="44.42683" lon="1.04946">
        <ele>245.9</ele>
      </trkpt>
      <trkpt lat="44.42633" lon="1.04932">
        <ele>247.3</ele>
      </trkpt>
      <trkpt lat="44.42583" lon="1.04918">
        <ele>248.34</ele>
      </trkpt>
      <trkpt lat="44.42529" lon="1.04913">
        <ele>247.9</ele>
      </trkpt>
      <trkpt lat="44.42525" lon="1.04905">
        <ele>247.92</ele>
      </trkpt>
      <trkpt lat="44.4252" lon="1.04904">
        <ele>247.89</ele>
      </trkpt>
      <trkpt lat="44.42514" lon="1.0489">
        <ele>247.88</ele>
      </trkpt>
      <trkpt lat="44.42499" lon="1.04893">
        <ele>247.63</ele>
      </trkpt>
      <trkpt lat="44.4248" lon="1.04811">
        <ele>242.75</ele>
      </trkpt>
      <trkpt lat="44.4246" lon="1.04728">
        <ele>242.75</ele>
      </trkpt>
      <trkpt lat="44.42468" lon="1.04625">
        <ele>241.65</ele>
      </trkpt>
      <trkpt lat="44.42456" lon="1.04576">
        <ele>241.05</ele>
      </trkpt>
      <trkpt lat="44.42452" lon="1.04565">
        <ele>241.02</ele>
      </trkpt>
      <trkpt lat="44.42412" lon="1.04563">
        <ele>240.02</ele>
      </trkpt>
      <trkpt lat="44.42373" lon="1.04555">
        <ele>239.24</ele>
      </trkpt>
      <trkpt lat="44.42298" lon="1.04544">
        <ele>239.65</ele>
      </trkpt>
      <trkpt lat="44.4225" lon="1.04547">
        <ele>239.17</ele>
      </trkpt>
      <trkpt lat="44.42224" lon="1.04553">
        <ele>238.96</ele>
      </trkpt>
      <trkpt lat="44.42162" lon="1.04591">
        <ele>238.71</ele>
      </trkpt>
      <trkpt lat="44.42144" lon="1.04597">
        <ele>238.71</ele>
      </trkpt>
      <trkpt lat="44.42071" lon="1.04615">
        <ele>239.84</ele>
      </trkpt>
      <trkpt lat="44.42003" lon="1.04611">
        <ele>241.46</ele>
      </trkpt>
      <trkpt lat="44.41934" lon="1.04607">
        <ele>241.43</ele>
      </trkpt>
      <trkpt lat="44.41866" lon="1.04603">
        <ele>239.6</ele>
      </trkpt>
      <trkpt lat="44.41779" lon="1.04616">
        <ele>232.08</ele>
      </trkpt>
      <trkpt lat="44.41691" lon="1.0463">
        <ele>220.75</ele>
      </trkpt>
      <trkpt lat="44.41604" lon="1.04643">
        <ele>209.18</ele>
      </trkpt>
      <trkpt lat="44.41604" lon="1.04633">
        <ele>209.41</ele>
      </trkpt>
      <trkpt lat="44.41608" lon="1.04615">
        <ele>210.13</ele>
      </trkpt>
      <trkpt lat="44.41643" lon="1.04528">
        <ele>214.56</ele>
      </trkpt>
      <trkpt lat="44.41657" lon="1.04504">
        <ele>215.46</ele>
      </trkpt>
      <trkpt lat="44.41688" lon="1.04424">
        <ele>219.57</ele>
      </trkpt>
      <trkpt lat="44.41717" lon="1.04373">
        <ele>222.56</ele>
      </trkpt>
      <trkpt lat="44.41746" lon="1.04321">
        <ele>225.59</ele>
      </trkpt>
      <trkpt lat="44.41748" lon="1.04299">
        <ele>226.69</ele>
      </trkpt>
      <trkpt lat="44.41755" lon="1.04271">
        <ele>227.57</ele>
      </trkpt>
      <trkpt lat="44.41755" lon="1.04263">
        <ele>227.57</ele>
      </trkpt>
      <trkpt lat="44.41737" lon="1.04236">
        <ele>228.6</ele>
      </trkpt>
      <trkpt lat="44.41737" lon="1.04228">
        <ele>229.16</ele>
      </trkpt>
      <trkpt lat="44.41744" lon="1.04211">
        <ele>229.53</ele>
      </trkpt>
      <trkpt lat="44.41803" lon="1.04117">
        <ele>230.64</ele>
      </trkpt>
      <trkpt lat="44.41862" lon="1.04024">
        <ele>233.97</ele>
      </trkpt>
      <trkpt lat="44.41921" lon="1.0393">
        <ele>238.48</ele>
      </trkpt>
      <trkpt lat="44.41954" lon="1.03887">
        <ele>240.11</ele>
      </trkpt>
      <trkpt lat="44.41987" lon="1.03844">
        <ele>240.75</ele>
      </trkpt>
      <trkpt lat="44.41982" lon="1.03841">
        <ele>238.85</ele>
      </trkpt>
      <trkpt lat="44.41973" lon="1.03841">
        <ele>238.85</ele>
      </trkpt>
      <trkpt lat="44.41962" lon="1.03838">
        <ele>238.39</ele>
      </trkpt>
      <trkpt lat="44.41955" lon="1.03829">
        <ele>238.05</ele>
      </trkpt>
      <trkpt lat="44.41943" lon="1.03818">
        <ele>237.62</ele>
      </trkpt>
      <trkpt lat="44.41917" lon="1.0379">
        <ele>236.58</ele>
      </trkpt>
      <trkpt lat="44.41896" lon="1.03773">
        <ele>236.05</ele>
      </trkpt>
      <trkpt lat="44.41893" lon="1.03767">
        <ele>235.54</ele>
      </trkpt>
      <trkpt lat="44.41884" lon="1.03735">
        <ele>232.25</ele>
      </trkpt>
      <trkpt lat="44.41875" lon="1.03719">
        <ele>229.59</ele>
      </trkpt>
      <trkpt lat="44.41868" lon="1.03713">
        <ele>228.12</ele>
      </trkpt>
      <trkpt lat="44.41861" lon="1.03712">
        <ele>227.94</ele>
      </trkpt>
      <trkpt lat="44.41854" lon="1.03707">
        <ele>227.12</ele>
      </trkpt>
      <trkpt lat="44.41842" lon="1.03696">
        <ele>225.48</ele>
      </trkpt>
      <trkpt lat="44.41836" lon="1.03687">
        <ele>225.04</ele>
      </trkpt>
      <trkpt lat="44.41829" lon="1.03673">
        <ele>223.66</ele>
      </trkpt>
      <trkpt lat="44.4182" lon="1.03659">
        <ele>222.82</ele>
      </trkpt>
      <trkpt lat="44.41815" lon="1.03634">
        <ele>221.76</ele>
      </trkpt>
      <trkpt lat="44.4181" lon="1.03613">
        <ele>221.13</ele>
      </trkpt>
      <trkpt lat="44.41806" lon="1.03606">
        <ele>221.13</ele>
      </trkpt>
      <trkpt lat="44.41795" lon="1.03593">
        <ele>220.55</ele>
      </trkpt>
      <trkpt lat="44.41791" lon="1.03585">
        <ele>220.68</ele>
      </trkpt>
      <trkpt lat="44.41785" lon="1.03581">
        <ele>220.66</ele>
      </trkpt>
      <trkpt lat="44.4177" lon="1.03578">
        <ele>220.6</ele>
      </trkpt>
      <trkpt lat="44.41762" lon="1.03573">
        <ele>220.76</ele>
      </trkpt>
      <trkpt lat="44.41756" lon="1.03572">
        <ele>220.64</ele>
      </trkpt>
      <trkpt lat="44.41743" lon="1.03573">
        <ele>220.19</ele>
      </trkpt>
      <trkpt lat="44.41734" lon="1.03572">
        <ele>219.92</ele>
      </trkpt>
      <trkpt lat="44.41726" lon="1.03569">
        <ele>219.94</ele>
      </trkpt>
      <trkpt lat="44.41703" lon="1.03556">
        <ele>219.3</ele>
      </trkpt>
      <trkpt lat="44.41696" lon="1.03549">
        <ele>219.34</ele>
      </trkpt>
      <trkpt lat="44.41687" lon="1.03544">
        <ele>218.81</ele>
      </trkpt>
      <trkpt lat="44.41681" lon="1.03538">
        <ele>218.42</ele>
      </trkpt>
      <trkpt lat="44.41666" lon="1.03529">
        <ele>216.58</ele>
      </trkpt>
      <trkpt lat="44.41657" lon="1.03526">
        <ele>215.03</ele>
      </trkpt>
      <trkpt lat="44.41632" lon="1.03525">
        <ele>210.57</ele>
      </trkpt>
      <trkpt lat="44.41591" lon="1.03519">
        <ele>202.18</ele>
      </trkpt>
      <trkpt lat="44.41571" lon="1.03513">
        <ele>196.85</ele>
      </trkpt>
      <trkpt lat="44.41563" lon="1.03509">
        <ele>195.48</ele>
      </trkpt>
      <trkpt lat="44.41558" lon="1.03502">
        <ele>194.1</ele>
      </trkpt>
      <trkpt lat="44.41553" lon="1.03489">
        <ele>192.88</ele>
      </trkpt>
      <trkpt lat="44.41552" lon="1.03464">
        <ele>193.25</ele>
      </trkpt>
      <trkpt lat="44.41545" lon="1.03441">
        <ele>193.07</ele>
      </trkpt>
      <trkpt lat="44.41544" lon="1.0344">
        <ele>192.87</ele>
      </trkpt>
      <trkpt lat="44.4151" lon="1.03415">
        <ele>193.2</ele>
      </trkpt>
      <trkpt lat="44.41482" lon="1.03376">
        <ele>194.92</ele>
      </trkpt>
      <trkpt lat="44.41438" lon="1.03365">
        <ele>196.03</ele>
      </trkpt>
      <trkpt lat="44.41388" lon="1.03401">
        <ele>192.79</ele>
      </trkpt>
      <trkpt lat="44.41337" lon="1.03436">
        <ele>189.51</ele>
      </trkpt>
      <trkpt lat="44.41297" lon="1.03421">
        <ele>188.49</ele>
      </trkpt>
      <trkpt lat="44.41277" lon="1.03376">
        <ele>187.52</ele>
      </trkpt>
      <trkpt lat="44.41289" lon="1.03333">
        <ele>188.54</ele>
      </trkpt>
      <trkpt lat="44.41294" lon="1.03292">
        <ele>190.6</ele>
      </trkpt>
      <trkpt lat="44.41286" lon="1.03262">
        <ele>192.72</ele>
      </trkpt>
      <trkpt lat="44.41265" lon="1.03234">
        <ele>192.59</ele>
      </trkpt>
      <trkpt lat="44.41231" lon="1.03224">
        <ele>190.01</ele>
      </trkpt>
      <trkpt lat="44.41164" lon="1.03174">
        <ele>186.5</ele>
      </trkpt>
      <trkpt lat="44.41131" lon="1.03146">
        <ele>182.96</ele>
      </trkpt>
      <trkpt lat="44.41201" lon="1.03077">
        <ele>182.92</ele>
      </trkpt>
      <trkpt lat="44.41271" lon="1.03007">
        <ele>179.19</ele>
      </trkpt>
      <trkpt lat="44.41305" lon="1.02946">
        <ele>179.07</ele>
      </trkpt>
      <trkpt lat="44.41319" lon="1.0286">
        <ele>178.44</ele>
      </trkpt>
      <trkpt lat="44.41262" lon="1.02802">
        <ele>178.97</ele>
      </trkpt>
      <trkpt lat="44.41204" lon="1.02743">
        <ele>178.87</ele>
      </trkpt>
      <trkpt lat="44.41216" lon="1.02622">
        <ele>178.53</ele>
      </trkpt>
      <trkpt lat="44.41228" lon="1.02501">
        <ele>178.77</ele>
      </trkpt>
      <trkpt lat="44.41219" lon="1.02464">
        <ele>178.77</ele>
      </trkpt>
      <trkpt lat="44.41195" lon="1.02402">
        <ele>178.77</ele>
      </trkpt>
      <trkpt lat="44.41182" lon="1.0235">
        <ele>187.84</ele>
      </trkpt>
      <trkpt lat="44.41155" lon="1.0231">
        <ele>187.84</ele>
      </trkpt>
      <trkpt lat="44.4115" lon="1.02307">
        <ele>187.84</ele>
      </trkpt>
      <trkpt lat="44.41155" lon="1.02294">
        <ele>182.57</ele>
      </trkpt>
      <trkpt lat="44.41152" lon="1.0229">
        <ele>182.57</ele>
      </trkpt>
      <trkpt lat="44.41166" lon="1.02263">
        <ele>183.69</ele>
      </trkpt>
      <trkpt lat="44.41174" lon="1.02243">
        <ele>184.07</ele>
      </trkpt>
      <trkpt lat="44.41179" lon="1.02236">
        <ele>184.05</ele>
      </trkpt>
      <trkpt lat="44.41182" lon="1.02224">
        <ele>184.19</ele>
      </trkpt>
      <trkpt lat="44.41195" lon="1.02205">
        <ele>184.06</ele>
      </trkpt>
      <trkpt lat="44.41202" lon="1.0219">
        <ele>183.58</ele>
      </trkpt>
      <trkpt lat="44.41218" lon="1.02165">
        <ele>183.17</ele>
      </trkpt>
      <trkpt lat="44.41221" lon="1.02162">
        <ele>182.94</ele>
      </trkpt>
      <trkpt lat="44.41224" lon="1.02161">
        <ele>182.6</ele>
      </trkpt>
      <trkpt lat="44.41237" lon="1.02147">
        <ele>181.33</ele>
      </trkpt>
      <trkpt lat="44.41242" lon="1.02145">
        <ele>180.75</ele>
      </trkpt>
      <trkpt lat="44.41269" lon="1.02123">
        <ele>178.83</ele>
      </trkpt>
      <trkpt lat="44.41283" lon="1.02116">
        <ele>178.05</ele>
      </trkpt>
      <trkpt lat="44.41285" lon="1.0211">
        <ele>177.85</ele>
      </trkpt>
      <trkpt lat="44.41314" lon="1.02117">
        <ele>175.05</ele>
      </trkpt>
      <trkpt lat="44.41346" lon="1.02014">
        <ele>164.37</ele>
      </trkpt>
      <trkpt lat="44.41378" lon="1.01911">
        <ele>172.08</ele>
      </trkpt>
      <trkpt lat="44.41313" lon="1.01892">
        <ele>178.69</ele>
      </trkpt>
      <trkpt lat="44.41247" lon="1.01874">
        <ele>180.43</ele>
      </trkpt>
      <trkpt lat="44.41182" lon="1.01855">
        <ele>179.97</ele>
      </trkpt>
      <trkpt lat="44.411" lon="1.01805">
        <ele>179.83</ele>
      </trkpt>
      <trkpt lat="44.41018" lon="1.01754">
        <ele>177.24</ele>
      </trkpt>
      <trkpt lat="44.40946" lon="1.01685">
        <ele>177.12</ele>
      </trkpt>
      <trkpt lat="44.40936" lon="1.01685">
        <ele>177.12</ele>
      </trkpt>
      <trkpt lat="44.40896" lon="1.01658">
        <ele>173.94</ele>
      </trkpt>
      <trkpt lat="44.4086" lon="1.016">
        <ele>171.2</ele>
      </trkpt>
      <trkpt lat="44.40823" lon="1.01541">
        <ele>168.04</ele>
      </trkpt>
      <trkpt lat="44.40812" lon="1.01497">
        <ele>165.45</ele>
      </trkpt>
      <trkpt lat="44.40799" lon="1.01494">
        <ele>163.84</ele>
      </trkpt>
      <trkpt lat="44.40782" lon="1.01441">
        <ele>157.88</ele>
      </trkpt>
      <trkpt lat="44.40779" lon="1.01385">
        <ele>156.2</ele>
      </trkpt>
      <trkpt lat="44.40763" lon="1.01306">
        <ele>155.94</ele>
      </trkpt>
      <trkpt lat="44.40747" lon="1.01226">
        <ele>155.94</ele>
      </trkpt>
      <trkpt lat="44.40712" lon="1.01125">
        <ele>155.72</ele>
      </trkpt>
      <trkpt lat="44.40681" lon="1.0103">
        <ele>154.61</ele>
      </trkpt>
      <trkpt lat="44.40672" lon="1.01015">
        <ele>154.33</ele>
      </trkpt>
      <trkpt lat="44.40685" lon="1.00903">
        <ele>153.54</ele>
      </trkpt>
      <trkpt lat="44.40677" lon="1.00847">
        <ele>153.94</ele>
      </trkpt>
      <trkpt lat="44.40679" lon="1.00843">
        <ele>153.94</ele>
      </trkpt>
      <trkpt lat="44.40662" lon="1.00815">
        <ele>152.4</ele>
      </trkpt>
    </trkseg>
  </trk>
</gpx>